<?xml version='1.0' encoding='UTF-8'?><gpx version="1.1" creator="JPX - https://github.com/jenetics/jpx" xmlns="http://www.topografix.com/GPX/1/1"><trk><trkseg><trkpt lat="42.5218036" lon="14.1523802"><ele>-0.8333333333333333</ele><time>2026-05-02T06:00:11.941Z</time></trkpt><trkpt lat="42.5217345" lon="14.1523147"><ele>-0.6666666666666666</ele><time>2026-05-02T06:00:13.941Z</time></trkpt><trkpt lat="42.5216965" lon="14.1522392"><ele>-0.5</ele><time>2026-05-02T06:00:15.941Z</time></trkpt><trkpt lat="42.5217308" lon="14.1521543"><ele>-0.3333333333333333</ele><time>2026-05-02T06:00:18.943Z</time></trkpt><trkpt lat="42.5218049" lon="14.1521873"><ele>-0.16666666666666666</ele><time>2026-05-02T06:00:21.942Z</time></trkpt><trkpt lat="42.5218495" lon="14.1522596"><ele>0.0</ele><time>2026-05-02T06:00:23.942Z</time></trkpt><trkpt lat="42.5218926" lon="14.1523594"><ele>-0.16666666666666666</ele><time>2026-05-02T06:00:26.942Z</time></trkpt><trkpt lat="42.5219235" lon="14.1524409"><ele>-0.3333333333333333</ele><time>2026-05-02T06:00:29.943Z</time></trkpt><trkpt lat="42.5219762" lon="14.1525217"><ele>-0.5</ele><time>2026-05-02T06:00:33.943Z</time></trkpt><trkpt lat="42.522005" lon="14.1526076"><ele>-0.6666666666666666</ele><time>2026-05-02T06:00:49.941Z</time></trkpt><trkpt lat="42.5220651" lon="14.1527258"><ele>-0.8333333333333333</ele><time>2026-05-02T06:00:51.942Z</time></trkpt><trkpt lat="42.5221121" lon="14.1528377"><ele>-1.0</ele><time>2026-05-02T06:00:53.941Z</time></trkpt><trkpt lat="42.5221769" lon="14.1529946"><ele>-0.49999999999999994</ele><time>2026-05-02T06:00:55.941Z</time></trkpt><trkpt lat="42.5222106" lon="14.1530704"><ele>0.0</ele><time>2026-05-02T06:00:56.941Z</time></trkpt><trkpt lat="42.5222759" lon="14.1531842"><ele>0.5</ele><time>2026-05-02T06:00:58.941Z</time></trkpt><trkpt lat="42.5223079" lon="14.1532995"><ele>1.0</ele><time>2026-05-02T06:01:01.942Z</time></trkpt><trkpt lat="42.5222261" lon="14.1534013"><ele>1.4999999999999998</ele><time>2026-05-02T06:01:03.942Z</time></trkpt><trkpt lat="42.5221646" lon="14.1534513"><ele>2.0</ele><time>2026-05-02T06:01:04.941Z</time></trkpt><trkpt lat="42.5220689" lon="14.1535365"><ele>1.6</ele><time>2026-05-02T06:01:06.941Z</time></trkpt><trkpt lat="42.5219899" lon="14.1535918"><ele>1.2000000000000002</ele><time>2026-05-02T06:01:08.941Z</time></trkpt><trkpt lat="42.5218958" lon="14.1535778"><ele>0.8</ele><time>2026-05-02T06:01:10.943Z</time></trkpt><trkpt lat="42.5218236" lon="14.1534326"><ele>0.4</ele><time>2026-05-02T06:01:12.942Z</time></trkpt><trkpt lat="42.5217967" lon="14.1533456"><ele>0.0</ele><time>2026-05-02T06:01:13.942Z</time></trkpt><trkpt lat="42.5217617" lon="14.1532507"><ele>-0.2</ele><time>2026-05-02T06:01:14.941Z</time></trkpt><trkpt lat="42.5217218" lon="14.1531328"><ele>-0.4</ele><time>2026-05-02T06:01:15.943Z</time></trkpt><trkpt lat="42.5216796" lon="14.1530103"><ele>-0.6000000000000001</ele><time>2026-05-02T06:01:16.942Z</time></trkpt><trkpt lat="42.5216386" lon="14.1528909"><ele>-0.8</ele><time>2026-05-02T06:01:17.943Z</time></trkpt><trkpt lat="42.5215928" lon="14.1527707"><ele>-1.0</ele><time>2026-05-02T06:01:18.942Z</time></trkpt><trkpt lat="42.5215501" lon="14.1526513"><ele>-1.0</ele><time>2026-05-02T06:01:19.942Z</time></trkpt><trkpt lat="42.521507" lon="14.1525285"><ele>-1.0</ele><time>2026-05-02T06:01:20.941Z</time></trkpt><trkpt lat="42.5214658" lon="14.1524083"><ele>-1.0</ele><time>2026-05-02T06:01:21.94Z</time></trkpt><trkpt lat="42.5214232" lon="14.1522864"><ele>-1.0</ele><time>2026-05-02T06:01:22.942Z</time></trkpt><trkpt lat="42.521381" lon="14.1521696"><ele>-1.0</ele><time>2026-05-02T06:01:23.942Z</time></trkpt><trkpt lat="42.5213392" lon="14.1520465"><ele>-0.8</ele><time>2026-05-02T06:01:24.943Z</time></trkpt><trkpt lat="42.5212923" lon="14.1519307"><ele>-0.6000000000000001</ele><time>2026-05-02T06:01:25.94Z</time></trkpt><trkpt lat="42.5212569" lon="14.1518088"><ele>-0.4</ele><time>2026-05-02T06:01:26.941Z</time></trkpt><trkpt lat="42.521216" lon="14.1516825"><ele>-0.2</ele><time>2026-05-02T06:01:27.941Z</time></trkpt><trkpt lat="42.5211732" lon="14.1515549"><ele>0.0</ele><time>2026-05-02T06:01:28.94Z</time></trkpt><trkpt lat="42.5211297" lon="14.1514286"><ele>0.5</ele><time>2026-05-02T06:01:29.941Z</time></trkpt><trkpt lat="42.5210825" lon="14.1512901"><ele>1.0</ele><time>2026-05-02T06:01:30.942Z</time></trkpt><trkpt lat="42.5210388" lon="14.1511529"><ele>1.5</ele><time>2026-05-02T06:01:31.942Z</time></trkpt><trkpt lat="42.5209892" lon="14.151007"><ele>2.0</ele><time>2026-05-02T06:01:32.942Z</time></trkpt><trkpt lat="42.5209346" lon="14.1508414"><ele>2.25</ele><time>2026-05-02T06:01:33.943Z</time></trkpt><trkpt lat="42.5208834" lon="14.1506891"><ele>2.5</ele><time>2026-05-02T06:01:34.941Z</time></trkpt><trkpt lat="42.5208353" lon="14.1505304"><ele>2.75</ele><time>2026-05-02T06:01:35.941Z</time></trkpt><trkpt lat="42.5207807" lon="14.1503712"><ele>3.0</ele><time>2026-05-02T06:01:36.942Z</time></trkpt><trkpt lat="42.5207228" lon="14.1502116"><ele>3.0</ele><time>2026-05-02T06:01:37.941Z</time></trkpt><trkpt lat="42.5206654" lon="14.1500496"><ele>3.0</ele><time>2026-05-02T06:01:38.942Z</time></trkpt><trkpt lat="42.5206073" lon="14.149883"><ele>3.0</ele><time>2026-05-02T06:01:39.942Z</time></trkpt><trkpt lat="42.5205504" lon="14.1497216"><ele>3.0</ele><time>2026-05-02T06:01:40.942Z</time></trkpt><trkpt lat="42.5204969" lon="14.1495669"><ele>2.75</ele><time>2026-05-02T06:01:41.943Z</time></trkpt><trkpt lat="42.5204481" lon="14.1494144"><ele>2.5</ele><time>2026-05-02T06:01:42.941Z</time></trkpt><trkpt lat="42.5203991" lon="14.1492605"><ele>2.25</ele><time>2026-05-02T06:01:43.942Z</time></trkpt><trkpt lat="42.5203431" lon="14.1491069"><ele>2.0</ele><time>2026-05-02T06:01:44.942Z</time></trkpt><trkpt lat="42.5202876" lon="14.1489529"><ele>2.0</ele><time>2026-05-02T06:01:45.941Z</time></trkpt><trkpt lat="42.5202351" lon="14.1487924"><ele>2.0</ele><time>2026-05-02T06:01:46.942Z</time></trkpt><trkpt lat="42.5201808" lon="14.1486351"><ele>2.0</ele><time>2026-05-02T06:01:47.941Z</time></trkpt><trkpt lat="42.5201265" lon="14.1484775"><ele>2.0</ele><time>2026-05-02T06:01:48.942Z</time></trkpt><trkpt lat="42.5200622" lon="14.1483311"><ele>1.5</ele><time>2026-05-02T06:01:49.941Z</time></trkpt><trkpt lat="42.5200047" lon="14.1481778"><ele>1.0</ele><time>2026-05-02T06:01:50.941Z</time></trkpt><trkpt lat="42.5199357" lon="14.148034"><ele>0.5</ele><time>2026-05-02T06:01:51.94Z</time></trkpt><trkpt lat="42.5198613" lon="14.1479086"><ele>0.0</ele><time>2026-05-02T06:01:52.94Z</time></trkpt><trkpt lat="42.5197962" lon="14.1477881"><ele>0.0</ele><time>2026-05-02T06:01:53.942Z</time></trkpt><trkpt lat="42.5197305" lon="14.1476868"><ele>0.0</ele><time>2026-05-02T06:01:54.941Z</time></trkpt><trkpt lat="42.5196717" lon="14.1475839"><ele>0.0</ele><time>2026-05-02T06:01:55.942Z</time></trkpt><trkpt lat="42.5196198" lon="14.1474922"><ele>0.0</ele><time>2026-05-02T06:01:56.941Z</time></trkpt><trkpt lat="42.5195689" lon="14.1474057"><ele>0.0</ele><time>2026-05-02T06:01:57.943Z</time></trkpt><trkpt lat="42.5195244" lon="14.1473114"><ele>0.0</ele><time>2026-05-02T06:01:58.942Z</time></trkpt><trkpt lat="42.5194854" lon="14.1472172"><ele>0.5</ele><time>2026-05-02T06:01:59.942Z</time></trkpt><trkpt lat="42.5195027" lon="14.1470932"><ele>1.0</ele><time>2026-05-02T06:02:00.941Z</time></trkpt><trkpt lat="42.519485" lon="14.1469699"><ele>1.5</ele><time>2026-05-02T06:02:01.941Z</time></trkpt><trkpt lat="42.5194761" lon="14.1468506"><ele>2.0</ele><time>2026-05-02T06:02:02.942Z</time></trkpt><trkpt lat="42.519486" lon="14.1467243"><ele>2.5</ele><time>2026-05-02T06:02:03.942Z</time></trkpt><trkpt lat="42.5194888" lon="14.1466144"><ele>3.0</ele><time>2026-05-02T06:02:04.942Z</time></trkpt><trkpt lat="42.5195081" lon="14.1465087"><ele>2.9999999999999996</ele><time>2026-05-02T06:02:05.942Z</time></trkpt><trkpt lat="42.5195285" lon="14.1464263"><ele>3.0</ele><time>2026-05-02T06:02:06.941Z</time></trkpt><trkpt lat="42.519555" lon="14.1463385"><ele>3.0</ele><time>2026-05-02T06:02:07.942Z</time></trkpt><trkpt lat="42.519581" lon="14.146253"><ele>3.0</ele><time>2026-05-02T06:02:08.941Z</time></trkpt><trkpt lat="42.5196296" lon="14.146182"><ele>3.0</ele><time>2026-05-02T06:02:09.943Z</time></trkpt><trkpt lat="42.5196668" lon="14.1461124"><ele>2.9999999999999996</ele><time>2026-05-02T06:02:10.94Z</time></trkpt><trkpt lat="42.519691" lon="14.1459842"><ele>3.0</ele><time>2026-05-02T06:02:12.941Z</time></trkpt><trkpt lat="42.5196395" lon="14.145866"><ele>3.0</ele><time>2026-05-02T06:02:14.942Z</time></trkpt><trkpt lat="42.5195884" lon="14.1458141"><ele>3.0</ele><time>2026-05-02T06:02:15.941Z</time></trkpt><trkpt lat="42.5195107" lon="14.1457834"><ele>3.0</ele><time>2026-05-02T06:02:16.94Z</time></trkpt><trkpt lat="42.519426" lon="14.1457336"><ele>3.0</ele><time>2026-05-02T06:02:17.943Z</time></trkpt><trkpt lat="42.5193271" lon="14.1456782"><ele>3.0</ele><time>2026-05-02T06:02:18.942Z</time></trkpt><trkpt lat="42.5192354" lon="14.1456313"><ele>3.0</ele><time>2026-05-02T06:02:19.942Z</time></trkpt><trkpt lat="42.5191358" lon="14.1455646"><ele>3.0</ele><time>2026-05-02T06:02:20.941Z</time></trkpt><trkpt lat="42.5190284" lon="14.1454907"><ele>3.0</ele><time>2026-05-02T06:02:21.942Z</time></trkpt><trkpt lat="42.518919" lon="14.1454139"><ele>3.0</ele><time>2026-05-02T06:02:22.942Z</time></trkpt><trkpt lat="42.5188022" lon="14.1453304"><ele>3.0</ele><time>2026-05-02T06:02:23.941Z</time></trkpt><trkpt lat="42.5186817" lon="14.1452488"><ele>3.0</ele><time>2026-05-02T06:02:24.941Z</time></trkpt><trkpt lat="42.5185635" lon="14.1451602"><ele>3.0</ele><time>2026-05-02T06:02:25.941Z</time></trkpt><trkpt lat="42.5184471" lon="14.1450786"><ele>3.0</ele><time>2026-05-02T06:02:26.941Z</time></trkpt><trkpt lat="42.5183257" lon="14.1449944"><ele>3.0</ele><time>2026-05-02T06:02:27.942Z</time></trkpt><trkpt lat="42.5182049" lon="14.1449054"><ele>3.0</ele><time>2026-05-02T06:02:28.942Z</time></trkpt><trkpt lat="42.5180832" lon="14.1448191"><ele>3.0</ele><time>2026-05-02T06:02:29.941Z</time></trkpt><trkpt lat="42.5179636" lon="14.1447319"><ele>3.0</ele><time>2026-05-02T06:02:30.941Z</time></trkpt><trkpt lat="42.5178479" lon="14.1446447"><ele>3.0</ele><time>2026-05-02T06:02:31.941Z</time></trkpt><trkpt lat="42.5177276" lon="14.1445692"><ele>3.0</ele><time>2026-05-02T06:02:32.941Z</time></trkpt><trkpt lat="42.5176087" lon="14.1444867"><ele>3.0</ele><time>2026-05-02T06:02:33.941Z</time></trkpt><trkpt lat="42.5174929" lon="14.144404"><ele>3.0</ele><time>2026-05-02T06:02:34.941Z</time></trkpt><trkpt lat="42.5173778" lon="14.1443156"><ele>3.0</ele><time>2026-05-02T06:02:35.94Z</time></trkpt><trkpt lat="42.5172637" lon="14.1442306"><ele>3.0</ele><time>2026-05-02T06:02:36.943Z</time></trkpt><trkpt lat="42.5171496" lon="14.1441465"><ele>3.0</ele><time>2026-05-02T06:02:37.942Z</time></trkpt><trkpt lat="42.517035" lon="14.1440643"><ele>3.0</ele><time>2026-05-02T06:02:38.94Z</time></trkpt><trkpt lat="42.5169246" lon="14.1439809"><ele>3.0</ele><time>2026-05-02T06:02:39.941Z</time></trkpt><trkpt lat="42.5168085" lon="14.1438974"><ele>3.75</ele><time>2026-05-02T06:02:40.942Z</time></trkpt><trkpt lat="42.5166902" lon="14.1438106"><ele>4.5</ele><time>2026-05-02T06:02:41.942Z</time></trkpt><trkpt lat="42.5165716" lon="14.1437208"><ele>5.25</ele><time>2026-05-02T06:02:42.941Z</time></trkpt><trkpt lat="42.5164554" lon="14.1436316"><ele>6.0</ele><time>2026-05-02T06:02:43.942Z</time></trkpt><trkpt lat="42.5163351" lon="14.1435486"><ele>5.5</ele><time>2026-05-02T06:02:44.941Z</time></trkpt><trkpt lat="42.5162149" lon="14.1434678"><ele>5.0</ele><time>2026-05-02T06:02:45.943Z</time></trkpt><trkpt lat="42.5160952" lon="14.143388"><ele>4.5</ele><time>2026-05-02T06:02:46.941Z</time></trkpt><trkpt lat="42.5159782" lon="14.1433064"><ele>4.0</ele><time>2026-05-02T06:02:47.942Z</time></trkpt><trkpt lat="42.5158613" lon="14.143225"><ele>3.75</ele><time>2026-05-02T06:02:48.943Z</time></trkpt><trkpt lat="42.5157438" lon="14.1431417"><ele>3.5</ele><time>2026-05-02T06:02:49.942Z</time></trkpt><trkpt lat="42.515628" lon="14.1430521"><ele>3.25</ele><time>2026-05-02T06:02:50.942Z</time></trkpt><trkpt lat="42.5155055" lon="14.1429671"><ele>3.0</ele><time>2026-05-02T06:02:51.941Z</time></trkpt><trkpt lat="42.5153848" lon="14.1428827"><ele>2.75</ele><time>2026-05-02T06:02:52.941Z</time></trkpt><trkpt lat="42.5152705" lon="14.1428004"><ele>2.5</ele><time>2026-05-02T06:02:53.941Z</time></trkpt><trkpt lat="42.5151595" lon="14.1427194"><ele>2.25</ele><time>2026-05-02T06:02:54.941Z</time></trkpt><trkpt lat="42.5150576" lon="14.1426386"><ele>2.0</ele><time>2026-05-02T06:02:55.943Z</time></trkpt><trkpt lat="42.5149635" lon="14.1425649"><ele>1.9999999999999998</ele><time>2026-05-02T06:02:56.941Z</time></trkpt><trkpt lat="42.5148722" lon="14.1424971"><ele>2.0</ele><time>2026-05-02T06:02:57.941Z</time></trkpt><trkpt lat="42.5147905" lon="14.1424362"><ele>2.0</ele><time>2026-05-02T06:02:58.94Z</time></trkpt><trkpt lat="42.5147199" lon="14.1423778"><ele>2.0</ele><time>2026-05-02T06:02:59.941Z</time></trkpt><trkpt lat="42.5146565" lon="14.1423298"><ele>1.9999999999999998</ele><time>2026-05-02T06:03:00.942Z</time></trkpt><trkpt lat="42.5145985" lon="14.1422898"><ele>2.0</ele><time>2026-05-02T06:03:01.941Z</time></trkpt><trkpt lat="42.5145022" lon="14.1422179"><ele>2.2</ele><time>2026-05-02T06:03:03.942Z</time></trkpt><trkpt lat="42.5143879" lon="14.1421377"><ele>2.4000000000000004</ele><time>2026-05-02T06:03:05.941Z</time></trkpt><trkpt lat="42.5143184" lon="14.1420862"><ele>2.5999999999999996</ele><time>2026-05-02T06:03:06.942Z</time></trkpt><trkpt lat="42.5142372" lon="14.1420201"><ele>2.8</ele><time>2026-05-02T06:03:07.942Z</time></trkpt><trkpt lat="42.5141476" lon="14.1419572"><ele>3.0</ele><time>2026-05-02T06:03:08.942Z</time></trkpt><trkpt lat="42.5140598" lon="14.1418956"><ele>3.0</ele><time>2026-05-02T06:03:09.941Z</time></trkpt><trkpt lat="42.5139683" lon="14.1418349"><ele>3.0</ele><time>2026-05-02T06:03:10.941Z</time></trkpt><trkpt lat="42.5138791" lon="14.1417698"><ele>3.0</ele><time>2026-05-02T06:03:11.943Z</time></trkpt><trkpt lat="42.5137939" lon="14.1417083"><ele>3.0</ele><time>2026-05-02T06:03:12.941Z</time></trkpt><trkpt lat="42.5137053" lon="14.1416484"><ele>3.0</ele><time>2026-05-02T06:03:13.941Z</time></trkpt><trkpt lat="42.5136243" lon="14.1415818"><ele>3.5999999999999996</ele><time>2026-05-02T06:03:14.942Z</time></trkpt><trkpt lat="42.5135374" lon="14.1415215"><ele>4.199999999999999</ele><time>2026-05-02T06:03:15.94Z</time></trkpt><trkpt lat="42.5134526" lon="14.1414648"><ele>4.8</ele><time>2026-05-02T06:03:16.941Z</time></trkpt><trkpt lat="42.5133658" lon="14.141405"><ele>5.3999999999999995</ele><time>2026-05-02T06:03:17.942Z</time></trkpt><trkpt lat="42.5132802" lon="14.1413453"><ele>6.0</ele><time>2026-05-02T06:03:18.942Z</time></trkpt><trkpt lat="42.5131984" lon="14.1412801"><ele>6.0</ele><time>2026-05-02T06:03:19.942Z</time></trkpt><trkpt lat="42.5131267" lon="14.1412121"><ele>6.0</ele><time>2026-05-02T06:03:20.941Z</time></trkpt><trkpt lat="42.5130645" lon="14.1411334"><ele>6.0</ele><time>2026-05-02T06:03:21.941Z</time></trkpt><trkpt lat="42.5130092" lon="14.1410435"><ele>6.0</ele><time>2026-05-02T06:03:22.941Z</time></trkpt><trkpt lat="42.5129586" lon="14.1409399"><ele>6.0</ele><time>2026-05-02T06:03:23.942Z</time></trkpt><trkpt lat="42.5129193" lon="14.1408246"><ele>6.0</ele><time>2026-05-02T06:03:24.942Z</time></trkpt><trkpt lat="42.5128876" lon="14.1406996"><ele>6.0</ele><time>2026-05-02T06:03:25.942Z</time></trkpt><trkpt lat="42.5128724" lon="14.1405592"><ele>6.0</ele><time>2026-05-02T06:03:26.942Z</time></trkpt><trkpt lat="42.5128657" lon="14.1404117"><ele>6.0</ele><time>2026-05-02T06:03:27.943Z</time></trkpt><trkpt lat="42.5128743" lon="14.1402715"><ele>6.0</ele><time>2026-05-02T06:03:28.943Z</time></trkpt><trkpt lat="42.5128941" lon="14.1401369"><ele>6.0</ele><time>2026-05-02T06:03:29.942Z</time></trkpt><trkpt lat="42.5129438" lon="14.140001"><ele>6.25</ele><time>2026-05-02T06:03:30.941Z</time></trkpt><trkpt lat="42.5129849" lon="14.1398614"><ele>6.5</ele><time>2026-05-02T06:03:31.941Z</time></trkpt><trkpt lat="42.5130351" lon="14.139715"><ele>6.75</ele><time>2026-05-02T06:03:32.941Z</time></trkpt><trkpt lat="42.5130903" lon="14.139571"><ele>7.0</ele><time>2026-05-02T06:03:33.941Z</time></trkpt><trkpt lat="42.5131488" lon="14.1394246"><ele>7.0</ele><time>2026-05-02T06:03:34.941Z</time></trkpt><trkpt lat="42.5132066" lon="14.1392753"><ele>7.0</ele><time>2026-05-02T06:03:35.941Z</time></trkpt><trkpt lat="42.5132627" lon="14.1391266"><ele>7.0</ele><time>2026-05-02T06:03:36.942Z</time></trkpt><trkpt lat="42.5133218" lon="14.1389765"><ele>7.0</ele><time>2026-05-02T06:03:37.942Z</time></trkpt><trkpt lat="42.5133787" lon="14.1388296"><ele>6.5</ele><time>2026-05-02T06:03:38.943Z</time></trkpt><trkpt lat="42.5134373" lon="14.138681"><ele>6.0</ele><time>2026-05-02T06:03:39.941Z</time></trkpt><trkpt lat="42.5134956" lon="14.138532"><ele>5.5</ele><time>2026-05-02T06:03:40.941Z</time></trkpt><trkpt lat="42.5135544" lon="14.1383876"><ele>5.0</ele><time>2026-05-02T06:03:41.941Z</time></trkpt><trkpt lat="42.5136166" lon="14.13824"><ele>5.2</ele><time>2026-05-02T06:03:42.942Z</time></trkpt><trkpt lat="42.5136693" lon="14.138099"><ele>5.4</ele><time>2026-05-02T06:03:43.942Z</time></trkpt><trkpt lat="42.5137225" lon="14.1379776"><ele>5.6</ele><time>2026-05-02T06:03:44.942Z</time></trkpt><trkpt lat="42.513771" lon="14.1378639"><ele>5.8</ele><time>2026-05-02T06:03:45.941Z</time></trkpt><trkpt lat="42.5138224" lon="14.13778"><ele>6.0</ele><time>2026-05-02T06:03:46.94Z</time></trkpt><trkpt lat="42.5138679" lon="14.1376894"><ele>6.0</ele><time>2026-05-02T06:03:47.94Z</time></trkpt><trkpt lat="42.5138921" lon="14.1376006"><ele>6.0</ele><time>2026-05-02T06:03:48.942Z</time></trkpt><trkpt lat="42.5138936" lon="14.1374502"><ele>6.0</ele><time>2026-05-02T06:03:50.942Z</time></trkpt><trkpt lat="42.5137933" lon="14.137336"><ele>6.0</ele><time>2026-05-02T06:03:52.94Z</time></trkpt><trkpt lat="42.5137251" lon="14.1372594"><ele>6.0</ele><time>2026-05-02T06:03:53.941Z</time></trkpt><trkpt lat="42.5136564" lon="14.1371409"><ele>5.5</ele><time>2026-05-02T06:03:54.941Z</time></trkpt><trkpt lat="42.5135942" lon="14.1370151"><ele>5.0</ele><time>2026-05-02T06:03:55.94Z</time></trkpt><trkpt lat="42.5135465" lon="14.1368571"><ele>4.5</ele><time>2026-05-02T06:03:56.94Z</time></trkpt><trkpt lat="42.5135022" lon="14.1367016"><ele>4.0</ele><time>2026-05-02T06:03:57.94Z</time></trkpt><trkpt lat="42.5134682" lon="14.1365307"><ele>3.75</ele><time>2026-05-02T06:03:58.941Z</time></trkpt><trkpt lat="42.5134279" lon="14.1363557"><ele>3.5</ele><time>2026-05-02T06:03:59.942Z</time></trkpt><trkpt lat="42.5133816" lon="14.136181"><ele>3.25</ele><time>2026-05-02T06:04:00.941Z</time></trkpt><trkpt lat="42.5133342" lon="14.1360062"><ele>3.0</ele><time>2026-05-02T06:04:01.941Z</time></trkpt><trkpt lat="42.5132746" lon="14.1358284"><ele>2.75</ele><time>2026-05-02T06:04:02.941Z</time></trkpt><trkpt lat="42.5131954" lon="14.1356648"><ele>2.5</ele><time>2026-05-02T06:04:03.942Z</time></trkpt><trkpt lat="42.5131145" lon="14.1355045"><ele>2.25</ele><time>2026-05-02T06:04:04.942Z</time></trkpt><trkpt lat="42.5130192" lon="14.1353536"><ele>2.0</ele><time>2026-05-02T06:04:05.943Z</time></trkpt><trkpt lat="42.5129149" lon="14.1352252"><ele>2.25</ele><time>2026-05-02T06:04:06.942Z</time></trkpt><trkpt lat="42.5128051" lon="14.1351184"><ele>2.5</ele><time>2026-05-02T06:04:07.943Z</time></trkpt><trkpt lat="42.5126909" lon="14.1350229"><ele>2.75</ele><time>2026-05-02T06:04:08.941Z</time></trkpt><trkpt lat="42.512567" lon="14.1349371"><ele>3.0</ele><time>2026-05-02T06:04:09.942Z</time></trkpt><trkpt lat="42.5124424" lon="14.1348459"><ele>2.5</ele><time>2026-05-02T06:04:10.942Z</time></trkpt><trkpt lat="42.5123115" lon="14.134761"><ele>2.0</ele><time>2026-05-02T06:04:11.942Z</time></trkpt><trkpt lat="42.512178" lon="14.1346743"><ele>1.5</ele><time>2026-05-02T06:04:12.94Z</time></trkpt><trkpt lat="42.5120485" lon="14.1345819"><ele>1.0</ele><time>2026-05-02T06:04:13.942Z</time></trkpt><trkpt lat="42.5119256" lon="14.1344756"><ele>2.0</ele><time>2026-05-02T06:04:14.94Z</time></trkpt><trkpt lat="42.5118117" lon="14.1343613"><ele>3.0</ele><time>2026-05-02T06:04:15.942Z</time></trkpt><trkpt lat="42.5117089" lon="14.1342287"><ele>4.0</ele><time>2026-05-02T06:04:16.94Z</time></trkpt><trkpt lat="42.5116181" lon="14.1340821"><ele>5.0</ele><time>2026-05-02T06:04:17.942Z</time></trkpt><trkpt lat="42.5115397" lon="14.1339235"><ele>5.0</ele><time>2026-05-02T06:04:18.942Z</time></trkpt><trkpt lat="42.5114587" lon="14.1337586"><ele>5.0</ele><time>2026-05-02T06:04:19.941Z</time></trkpt><trkpt lat="42.511373" lon="14.1335973"><ele>5.0</ele><time>2026-05-02T06:04:20.94Z</time></trkpt><trkpt lat="42.5112846" lon="14.133436"><ele>5.0</ele><time>2026-05-02T06:04:21.941Z</time></trkpt><trkpt lat="42.5111861" lon="14.1332701"><ele>5.333333333333334</ele><time>2026-05-02T06:04:22.942Z</time></trkpt><trkpt lat="42.5110891" lon="14.1331036"><ele>5.666666666666667</ele><time>2026-05-02T06:04:23.942Z</time></trkpt><trkpt lat="42.5109923" lon="14.132934"><ele>6.0</ele><time>2026-05-02T06:04:24.942Z</time></trkpt><trkpt lat="42.5108989" lon="14.1327619"><ele>6.0</ele><time>2026-05-02T06:04:25.942Z</time></trkpt><trkpt lat="42.5108024" lon="14.1325829"><ele>6.0</ele><time>2026-05-02T06:04:26.941Z</time></trkpt><trkpt lat="42.5107092" lon="14.1324007"><ele>6.0</ele><time>2026-05-02T06:04:27.941Z</time></trkpt><trkpt lat="42.5106136" lon="14.1322169"><ele>6.0</ele><time>2026-05-02T06:04:28.942Z</time></trkpt><trkpt lat="42.5105164" lon="14.1320322"><ele>6.0</ele><time>2026-05-02T06:04:29.941Z</time></trkpt><trkpt lat="42.5104106" lon="14.1318438"><ele>6.0</ele><time>2026-05-02T06:04:30.943Z</time></trkpt><trkpt lat="42.5103155" lon="14.1316574"><ele>5.666666666666667</ele><time>2026-05-02T06:04:31.942Z</time></trkpt><trkpt lat="42.5102113" lon="14.1314778"><ele>5.333333333333334</ele><time>2026-05-02T06:04:32.942Z</time></trkpt><trkpt lat="42.5101036" lon="14.1312987"><ele>5.0</ele><time>2026-05-02T06:04:33.941Z</time></trkpt><trkpt lat="42.5099973" lon="14.1311246"><ele>5.0</ele><time>2026-05-02T06:04:34.942Z</time></trkpt><trkpt lat="42.509889" lon="14.1309558"><ele>5.0</ele><time>2026-05-02T06:04:35.941Z</time></trkpt><trkpt lat="42.5097789" lon="14.1307934"><ele>5.0</ele><time>2026-05-02T06:04:36.94Z</time></trkpt><trkpt lat="42.5096743" lon="14.1306445"><ele>5.5</ele><time>2026-05-02T06:04:37.941Z</time></trkpt><trkpt lat="42.5095831" lon="14.1304951"><ele>6.0</ele><time>2026-05-02T06:04:38.942Z</time></trkpt><trkpt lat="42.5094949" lon="14.1303631"><ele>6.5</ele><time>2026-05-02T06:04:39.943Z</time></trkpt><trkpt lat="42.5094155" lon="14.1302452"><ele>7.0</ele><time>2026-05-02T06:04:40.941Z</time></trkpt><trkpt lat="42.5093309" lon="14.1301292"><ele>7.0</ele><time>2026-05-02T06:04:41.942Z</time></trkpt><trkpt lat="42.509255" lon="14.130013"><ele>6.999999999999999</ele><time>2026-05-02T06:04:42.942Z</time></trkpt><trkpt lat="42.5091888" lon="14.1299074"><ele>6.999999999999999</ele><time>2026-05-02T06:04:43.943Z</time></trkpt><trkpt lat="42.5091245" lon="14.1297982"><ele>7.0</ele><time>2026-05-02T06:04:44.941Z</time></trkpt><trkpt lat="42.5090918" lon="14.1296864"><ele>7.0</ele><time>2026-05-02T06:04:45.942Z</time></trkpt><trkpt lat="42.5090628" lon="14.1295768"><ele>6.6</ele><time>2026-05-02T06:04:46.941Z</time></trkpt><trkpt lat="42.5090323" lon="14.1294769"><ele>6.199999999999999</ele><time>2026-05-02T06:04:47.942Z</time></trkpt><trkpt lat="42.5089843" lon="14.1293929"><ele>5.8</ele><time>2026-05-02T06:04:48.941Z</time></trkpt><trkpt lat="42.5089162" lon="14.129322"><ele>5.4</ele><time>2026-05-02T06:04:49.942Z</time></trkpt><trkpt lat="42.5088275" lon="14.1292446"><ele>5.0</ele><time>2026-05-02T06:04:50.941Z</time></trkpt><trkpt lat="42.5087468" lon="14.1291529"><ele>5.25</ele><time>2026-05-02T06:04:51.941Z</time></trkpt><trkpt lat="42.508654" lon="14.1290219"><ele>5.5</ele><time>2026-05-02T06:04:52.942Z</time></trkpt><trkpt lat="42.5085676" lon="14.1288765"><ele>5.75</ele><time>2026-05-02T06:04:53.941Z</time></trkpt><trkpt lat="42.5084802" lon="14.1287185"><ele>6.0</ele><time>2026-05-02T06:04:54.942Z</time></trkpt><trkpt lat="42.5083887" lon="14.1285504"><ele>6.0</ele><time>2026-05-02T06:04:55.941Z</time></trkpt><trkpt lat="42.5082892" lon="14.1283778"><ele>6.0</ele><time>2026-05-02T06:04:56.942Z</time></trkpt><trkpt lat="42.5081868" lon="14.1282063"><ele>6.0</ele><time>2026-05-02T06:04:57.941Z</time></trkpt><trkpt lat="42.5080872" lon="14.1280258"><ele>5.666666666666667</ele><time>2026-05-02T06:04:58.943Z</time></trkpt><trkpt lat="42.5079905" lon="14.1278438"><ele>5.333333333333334</ele><time>2026-05-02T06:04:59.942Z</time></trkpt><trkpt lat="42.5078916" lon="14.1276616"><ele>5.0</ele><time>2026-05-02T06:05:00.941Z</time></trkpt><trkpt lat="42.5077882" lon="14.1274861"><ele>6.0</ele><time>2026-05-02T06:05:01.942Z</time></trkpt><trkpt lat="42.5076875" lon="14.1273032"><ele>7.0</ele><time>2026-05-02T06:05:02.941Z</time></trkpt><trkpt lat="42.5075852" lon="14.1271183"><ele>8.0</ele><time>2026-05-02T06:05:03.942Z</time></trkpt><trkpt lat="42.507487" lon="14.1269367"><ele>8.0</ele><time>2026-05-02T06:05:04.941Z</time></trkpt><trkpt lat="42.5073842" lon="14.1267543"><ele>8.0</ele><time>2026-05-02T06:05:05.942Z</time></trkpt><trkpt lat="42.5072758" lon="14.1265672"><ele>8.0</ele><time>2026-05-02T06:05:06.941Z</time></trkpt><trkpt lat="42.5071734" lon="14.1263772"><ele>7.666666666666666</ele><time>2026-05-02T06:05:07.942Z</time></trkpt><trkpt lat="42.507065" lon="14.1261904"><ele>7.333333333333334</ele><time>2026-05-02T06:05:08.942Z</time></trkpt><trkpt lat="42.5069524" lon="14.1260096"><ele>7.0</ele><time>2026-05-02T06:05:09.943Z</time></trkpt><trkpt lat="42.5068402" lon="14.1258331"><ele>7.333333333333334</ele><time>2026-05-02T06:05:10.94Z</time></trkpt><trkpt lat="42.5067238" lon="14.1256681"><ele>7.666666666666666</ele><time>2026-05-02T06:05:11.942Z</time></trkpt><trkpt lat="42.5066107" lon="14.1254972"><ele>8.0</ele><time>2026-05-02T06:05:12.941Z</time></trkpt><trkpt lat="42.5064964" lon="14.1253334"><ele>8.0</ele><time>2026-05-02T06:05:13.942Z</time></trkpt><trkpt lat="42.5063795" lon="14.1251761"><ele>8.0</ele><time>2026-05-02T06:05:14.941Z</time></trkpt><trkpt lat="42.5062577" lon="14.1250229"><ele>8.0</ele><time>2026-05-02T06:05:15.942Z</time></trkpt><trkpt lat="42.5061342" lon="14.1248729"><ele>8.333333333333332</ele><time>2026-05-02T06:05:16.94Z</time></trkpt><trkpt lat="42.5060115" lon="14.1247224"><ele>8.666666666666666</ele><time>2026-05-02T06:05:17.942Z</time></trkpt><trkpt lat="42.5058822" lon="14.1245751"><ele>9.0</ele><time>2026-05-02T06:05:18.942Z</time></trkpt><trkpt lat="42.5057546" lon="14.1244343"><ele>9.0</ele><time>2026-05-02T06:05:19.942Z</time></trkpt><trkpt lat="42.5056242" lon="14.1243029"><ele>9.0</ele><time>2026-05-02T06:05:20.941Z</time></trkpt><trkpt lat="42.5054965" lon="14.1241687"><ele>9.0</ele><time>2026-05-02T06:05:21.942Z</time></trkpt><trkpt lat="42.5053653" lon="14.1240322"><ele>8.333333333333334</ele><time>2026-05-02T06:05:22.941Z</time></trkpt><trkpt lat="42.5052296" lon="14.1239033"><ele>7.666666666666667</ele><time>2026-05-02T06:05:23.941Z</time></trkpt><trkpt lat="42.5050979" lon="14.1237746"><ele>7.0</ele><time>2026-05-02T06:05:24.943Z</time></trkpt><trkpt lat="42.5049666" lon="14.1236475"><ele>7.0</ele><time>2026-05-02T06:05:25.942Z</time></trkpt><trkpt lat="42.504836" lon="14.1235222"><ele>7.0</ele><time>2026-05-02T06:05:26.941Z</time></trkpt><trkpt lat="42.504704" lon="14.1233991"><ele>7.0</ele><time>2026-05-02T06:05:27.942Z</time></trkpt><trkpt lat="42.5045672" lon="14.1232768"><ele>8.0</ele><time>2026-05-02T06:05:28.94Z</time></trkpt><trkpt lat="42.5044328" lon="14.1231524"><ele>9.0</ele><time>2026-05-02T06:05:29.941Z</time></trkpt><trkpt lat="42.5043001" lon="14.1230307"><ele>10.0</ele><time>2026-05-02T06:05:30.942Z</time></trkpt><trkpt lat="42.5041667" lon="14.1229107"><ele>10.0</ele><time>2026-05-02T06:05:31.941Z</time></trkpt><trkpt lat="42.5040331" lon="14.1227882"><ele>10.0</ele><time>2026-05-02T06:05:32.942Z</time></trkpt><trkpt lat="42.5039013" lon="14.1226672"><ele>10.0</ele><time>2026-05-02T06:05:33.943Z</time></trkpt><trkpt lat="42.5037667" lon="14.1225453"><ele>10.0</ele><time>2026-05-02T06:05:34.942Z</time></trkpt><trkpt lat="42.5036381" lon="14.1224276"><ele>10.0</ele><time>2026-05-02T06:05:35.941Z</time></trkpt><trkpt lat="42.5035135" lon="14.1223153"><ele>10.0</ele><time>2026-05-02T06:05:36.942Z</time></trkpt><trkpt lat="42.5033979" lon="14.1222152"><ele>10.0</ele><time>2026-05-02T06:05:37.942Z</time></trkpt><trkpt lat="42.5032942" lon="14.1221192"><ele>9.8</ele><time>2026-05-02T06:05:38.943Z</time></trkpt><trkpt lat="42.5031977" lon="14.1220302"><ele>9.6</ele><time>2026-05-02T06:05:39.943Z</time></trkpt><trkpt lat="42.5031105" lon="14.1219481"><ele>9.4</ele><time>2026-05-02T06:05:40.942Z</time></trkpt><trkpt lat="42.5030325" lon="14.1218691"><ele>9.2</ele><time>2026-05-02T06:05:41.942Z</time></trkpt><trkpt lat="42.5029636" lon="14.1217909"><ele>9.0</ele><time>2026-05-02T06:05:42.941Z</time></trkpt><trkpt lat="42.5029076" lon="14.1217134"><ele>8.833333333333334</ele><time>2026-05-02T06:05:43.942Z</time></trkpt><trkpt lat="42.5028624" lon="14.1216208"><ele>8.666666666666666</ele><time>2026-05-02T06:05:44.942Z</time></trkpt><trkpt lat="42.5028213" lon="14.1215161"><ele>8.5</ele><time>2026-05-02T06:05:45.94Z</time></trkpt><trkpt lat="42.5027711" lon="14.121428"><ele>8.333333333333332</ele><time>2026-05-02T06:05:46.942Z</time></trkpt><trkpt lat="42.5027125" lon="14.1213614"><ele>8.166666666666666</ele><time>2026-05-02T06:05:47.942Z</time></trkpt><trkpt lat="42.502646" lon="14.1213194"><ele>8.0</ele><time>2026-05-02T06:05:48.941Z</time></trkpt><trkpt lat="42.5025679" lon="14.1213008"><ele>8.0</ele><time>2026-05-02T06:05:49.942Z</time></trkpt><trkpt lat="42.5024778" lon="14.1212929"><ele>8.0</ele><time>2026-05-02T06:05:50.941Z</time></trkpt><trkpt lat="42.5023778" lon="14.1212894"><ele>8.0</ele><time>2026-05-02T06:05:51.941Z</time></trkpt><trkpt lat="42.5022711" lon="14.1212474"><ele>8.0</ele><time>2026-05-02T06:05:52.942Z</time></trkpt><trkpt lat="42.5021604" lon="14.1211903"><ele>8.0</ele><time>2026-05-02T06:05:53.943Z</time></trkpt><trkpt lat="42.5020405" lon="14.1211261"><ele>8.5</ele><time>2026-05-02T06:05:54.942Z</time></trkpt><trkpt lat="42.5019116" lon="14.1210568"><ele>9.0</ele><time>2026-05-02T06:05:55.941Z</time></trkpt><trkpt lat="42.5017734" lon="14.1209837"><ele>9.5</ele><time>2026-05-02T06:05:56.942Z</time></trkpt><trkpt lat="42.5016362" lon="14.1209158"><ele>10.0</ele><time>2026-05-02T06:05:57.942Z</time></trkpt><trkpt lat="42.5015017" lon="14.1208577"><ele>10.0</ele><time>2026-05-02T06:05:58.942Z</time></trkpt><trkpt lat="42.5013653" lon="14.1208122"><ele>10.0</ele><time>2026-05-02T06:05:59.943Z</time></trkpt><trkpt lat="42.5012294" lon="14.1207725"><ele>10.0</ele><time>2026-05-02T06:06:00.943Z</time></trkpt><trkpt lat="42.5011011" lon="14.1207294"><ele>10.0</ele><time>2026-05-02T06:06:01.94Z</time></trkpt><trkpt lat="42.5009841" lon="14.120678"><ele>10.25</ele><time>2026-05-02T06:06:02.942Z</time></trkpt><trkpt lat="42.5008676" lon="14.1206133"><ele>10.5</ele><time>2026-05-02T06:06:03.942Z</time></trkpt><trkpt lat="42.5007522" lon="14.1205397"><ele>10.75</ele><time>2026-05-02T06:06:04.942Z</time></trkpt><trkpt lat="42.5006364" lon="14.1204641"><ele>11.0</ele><time>2026-05-02T06:06:05.943Z</time></trkpt><trkpt lat="42.5005219" lon="14.1203856"><ele>11.75</ele><time>2026-05-02T06:06:06.942Z</time></trkpt><trkpt lat="42.5004151" lon="14.1203097"><ele>12.5</ele><time>2026-05-02T06:06:07.941Z</time></trkpt><trkpt lat="42.5003064" lon="14.1202385"><ele>13.25</ele><time>2026-05-02T06:06:08.942Z</time></trkpt><trkpt lat="42.5002004" lon="14.1201661"><ele>14.0</ele><time>2026-05-02T06:06:09.943Z</time></trkpt><trkpt lat="42.5001036" lon="14.1200957"><ele>14.0</ele><time>2026-05-02T06:06:10.942Z</time></trkpt><trkpt lat="42.5000168" lon="14.120034"><ele>13.999999999999998</ele><time>2026-05-02T06:06:11.942Z</time></trkpt><trkpt lat="42.4999449" lon="14.1199718"><ele>13.999999999999998</ele><time>2026-05-02T06:06:12.942Z</time></trkpt><trkpt lat="42.4998821" lon="14.1199188"><ele>14.0</ele><time>2026-05-02T06:06:13.942Z</time></trkpt><trkpt lat="42.4997764" lon="14.1198501"><ele>14.0</ele><time>2026-05-02T06:06:15.942Z</time></trkpt><trkpt lat="42.4996709" lon="14.1198575"><ele>14.0</ele><time>2026-05-02T06:06:17.942Z</time></trkpt><trkpt lat="42.4996139" lon="14.1199017"><ele>14.0</ele><time>2026-05-02T06:06:18.941Z</time></trkpt><trkpt lat="42.4995522" lon="14.1199728"><ele>14.0</ele><time>2026-05-02T06:06:19.941Z</time></trkpt><trkpt lat="42.4994976" lon="14.1200528"><ele>14.0</ele><time>2026-05-02T06:06:20.941Z</time></trkpt><trkpt lat="42.4994443" lon="14.1201237"><ele>14.0</ele><time>2026-05-02T06:06:21.942Z</time></trkpt><trkpt lat="42.4994023" lon="14.1201886"><ele>14.0</ele><time>2026-05-02T06:06:22.942Z</time></trkpt><trkpt lat="42.4993523" lon="14.1202587"><ele>14.0</ele><time>2026-05-02T06:06:23.942Z</time></trkpt><trkpt lat="42.4992829" lon="14.1203571"><ele>14.25</ele><time>2026-05-02T06:06:24.943Z</time></trkpt><trkpt lat="42.4991998" lon="14.1204739"><ele>14.5</ele><time>2026-05-02T06:06:25.942Z</time></trkpt><trkpt lat="42.4991064" lon="14.1205997"><ele>14.75</ele><time>2026-05-02T06:06:26.942Z</time></trkpt><trkpt lat="42.4989979" lon="14.1207401"><ele>15.0</ele><time>2026-05-02T06:06:27.942Z</time></trkpt><trkpt lat="42.4988767" lon="14.1208932"><ele>15.0</ele><time>2026-05-02T06:06:28.941Z</time></trkpt><trkpt lat="42.4987655" lon="14.1210327"><ele>15.0</ele><time>2026-05-02T06:06:29.942Z</time></trkpt><trkpt lat="42.4986624" lon="14.1211612"><ele>15.0</ele><time>2026-05-02T06:06:30.942Z</time></trkpt><trkpt lat="42.4985729" lon="14.1212734"><ele>15.0</ele><time>2026-05-02T06:06:31.941Z</time></trkpt><trkpt lat="42.498479" lon="14.1213835"><ele>15.0</ele><time>2026-05-02T06:06:32.942Z</time></trkpt><trkpt lat="42.4983894" lon="14.1214783"><ele>15.0</ele><time>2026-05-02T06:06:33.941Z</time></trkpt><trkpt lat="42.4983053" lon="14.1215523"><ele>15.0</ele><time>2026-05-02T06:06:34.942Z</time></trkpt><trkpt lat="42.4982117" lon="14.1216137"><ele>15.0</ele><time>2026-05-02T06:06:35.941Z</time></trkpt><trkpt lat="42.4981095" lon="14.1216889"><ele>15.0</ele><time>2026-05-02T06:06:36.941Z</time></trkpt><trkpt lat="42.4980231" lon="14.1217781"><ele>15.0</ele><time>2026-05-02T06:06:37.942Z</time></trkpt><trkpt lat="42.4979416" lon="14.1218793"><ele>15.0</ele><time>2026-05-02T06:06:38.942Z</time></trkpt><trkpt lat="42.4978653" lon="14.1220085"><ele>15.0</ele><time>2026-05-02T06:06:39.942Z</time></trkpt><trkpt lat="42.4977904" lon="14.1221341"><ele>15.0</ele><time>2026-05-02T06:06:40.942Z</time></trkpt><trkpt lat="42.4977135" lon="14.1222679"><ele>14.666666666666668</ele><time>2026-05-02T06:06:41.941Z</time></trkpt><trkpt lat="42.4976361" lon="14.122423"><ele>14.333333333333334</ele><time>2026-05-02T06:06:42.941Z</time></trkpt><trkpt lat="42.4975381" lon="14.1226098"><ele>14.0</ele><time>2026-05-02T06:06:43.942Z</time></trkpt><trkpt lat="42.4974125" lon="14.1227973"><ele>14.0</ele><time>2026-05-02T06:06:44.943Z</time></trkpt><trkpt lat="42.4972846" lon="14.1229888"><ele>14.0</ele><time>2026-05-02T06:06:45.941Z</time></trkpt><trkpt lat="42.4971482" lon="14.1231861"><ele>14.0</ele><time>2026-05-02T06:06:46.942Z</time></trkpt><trkpt lat="42.4970207" lon="14.1233667"><ele>14.666666666666668</ele><time>2026-05-02T06:06:47.942Z</time></trkpt><trkpt lat="42.4968953" lon="14.1235393"><ele>15.333333333333332</ele><time>2026-05-02T06:06:48.941Z</time></trkpt><trkpt lat="42.496773" lon="14.123685"><ele>16.0</ele><time>2026-05-02T06:06:49.943Z</time></trkpt><trkpt lat="42.4966466" lon="14.1238171"><ele>16.0</ele><time>2026-05-02T06:06:50.941Z</time></trkpt><trkpt lat="42.4965107" lon="14.1239391"><ele>16.0</ele><time>2026-05-02T06:06:51.941Z</time></trkpt><trkpt lat="42.4963938" lon="14.1240517"><ele>16.0</ele><time>2026-05-02T06:06:52.94Z</time></trkpt><trkpt lat="42.4962879" lon="14.1241461"><ele>16.0</ele><time>2026-05-02T06:06:53.942Z</time></trkpt><trkpt lat="42.4961999" lon="14.1242417"><ele>15.8</ele><time>2026-05-02T06:06:54.942Z</time></trkpt><trkpt lat="42.4961244" lon="14.1243195"><ele>15.600000000000001</ele><time>2026-05-02T06:06:55.942Z</time></trkpt><trkpt lat="42.4960471" lon="14.1243819"><ele>15.4</ele><time>2026-05-02T06:06:56.941Z</time></trkpt><trkpt lat="42.4959504" lon="14.1244348"><ele>15.2</ele><time>2026-05-02T06:06:57.942Z</time></trkpt><trkpt lat="42.4958525" lon="14.124501"><ele>15.0</ele><time>2026-05-02T06:06:58.942Z</time></trkpt><trkpt lat="42.4957551" lon="14.1245307"><ele>15.0</ele><time>2026-05-02T06:06:59.942Z</time></trkpt><trkpt lat="42.4956345" lon="14.1245525"><ele>15.0</ele><time>2026-05-02T06:07:00.942Z</time></trkpt><trkpt lat="42.4954998" lon="14.1245526"><ele>15.0</ele><time>2026-05-02T06:07:01.942Z</time></trkpt><trkpt lat="42.4953585" lon="14.1245529"><ele>15.0</ele><time>2026-05-02T06:07:02.943Z</time></trkpt><trkpt lat="42.4952159" lon="14.1245583"><ele>15.5</ele><time>2026-05-02T06:07:03.942Z</time></trkpt><trkpt lat="42.4950753" lon="14.124567"><ele>16.0</ele><time>2026-05-02T06:07:04.942Z</time></trkpt><trkpt lat="42.4949461" lon="14.1245709"><ele>16.5</ele><time>2026-05-02T06:07:05.941Z</time></trkpt><trkpt lat="42.4948177" lon="14.124575"><ele>17.0</ele><time>2026-05-02T06:07:06.942Z</time></trkpt><trkpt lat="42.4946897" lon="14.1245745"><ele>17.0</ele><time>2026-05-02T06:07:07.94Z</time></trkpt><trkpt lat="42.4945907" lon="14.1245605"><ele>17.0</ele><time>2026-05-02T06:07:08.941Z</time></trkpt><trkpt lat="42.4944984" lon="14.1245623"><ele>17.0</ele><time>2026-05-02T06:07:09.942Z</time></trkpt><trkpt lat="42.4944187" lon="14.1245895"><ele>17.0</ele><time>2026-05-02T06:07:10.942Z</time></trkpt><trkpt lat="42.4943417" lon="14.1246374"><ele>17.0</ele><time>2026-05-02T06:07:11.941Z</time></trkpt><trkpt lat="42.4942681" lon="14.1247301"><ele>17.166666666666668</ele><time>2026-05-02T06:07:12.941Z</time></trkpt><trkpt lat="42.4941997" lon="14.1248276"><ele>17.333333333333336</ele><time>2026-05-02T06:07:13.941Z</time></trkpt><trkpt lat="42.4941373" lon="14.1249094"><ele>17.5</ele><time>2026-05-02T06:07:14.942Z</time></trkpt><trkpt lat="42.4940834" lon="14.1249933"><ele>17.666666666666668</ele><time>2026-05-02T06:07:15.942Z</time></trkpt><trkpt lat="42.4940397" lon="14.1250742"><ele>17.833333333333332</ele><time>2026-05-02T06:07:16.941Z</time></trkpt><trkpt lat="42.4939816" lon="14.1251831"><ele>18.0</ele><time>2026-05-02T06:07:18.942Z</time></trkpt><trkpt lat="42.4939396" lon="14.1252533"><ele>18.0</ele><time>2026-05-02T06:07:23.942Z</time></trkpt><trkpt lat="42.4938903" lon="14.1253072"><ele>18.0</ele><time>2026-05-02T06:07:26.94Z</time></trkpt><trkpt lat="42.4937639" lon="14.1252298"><ele>18.0</ele><time>2026-05-02T06:07:29.941Z</time></trkpt><trkpt lat="42.4936932" lon="14.1251763"><ele>18.0</ele><time>2026-05-02T06:07:30.942Z</time></trkpt><trkpt lat="42.4936008" lon="14.1251003"><ele>18.0</ele><time>2026-05-02T06:07:31.94Z</time></trkpt><trkpt lat="42.4934959" lon="14.1250249"><ele>18.25</ele><time>2026-05-02T06:07:32.942Z</time></trkpt><trkpt lat="42.4933831" lon="14.1249407"><ele>18.5</ele><time>2026-05-02T06:07:33.942Z</time></trkpt><trkpt lat="42.4932567" lon="14.1248603"><ele>18.75</ele><time>2026-05-02T06:07:34.942Z</time></trkpt><trkpt lat="42.4931197" lon="14.1247539"><ele>19.0</ele><time>2026-05-02T06:07:35.942Z</time></trkpt><trkpt lat="42.4929797" lon="14.1246347"><ele>19.75</ele><time>2026-05-02T06:07:36.942Z</time></trkpt><trkpt lat="42.4928506" lon="14.1245308"><ele>20.5</ele><time>2026-05-02T06:07:37.942Z</time></trkpt><trkpt lat="42.4927502" lon="14.1244357"><ele>21.25</ele><time>2026-05-02T06:07:38.942Z</time></trkpt><trkpt lat="42.4926603" lon="14.1243628"><ele>22.0</ele><time>2026-05-02T06:07:39.941Z</time></trkpt><trkpt lat="42.4925847" lon="14.1243007"><ele>22.0</ele><time>2026-05-02T06:07:40.941Z</time></trkpt><trkpt lat="42.4925097" lon="14.124237"><ele>22.0</ele><time>2026-05-02T06:07:41.942Z</time></trkpt><trkpt lat="42.4924286" lon="14.1241678"><ele>22.0</ele><time>2026-05-02T06:07:42.941Z</time></trkpt><trkpt lat="42.4923492" lon="14.1241017"><ele>22.0</ele><time>2026-05-02T06:07:43.943Z</time></trkpt><trkpt lat="42.492266" lon="14.1240364"><ele>22.0</ele><time>2026-05-02T06:07:44.942Z</time></trkpt><trkpt lat="42.4921845" lon="14.1239729"><ele>21.833333333333332</ele><time>2026-05-02T06:07:45.94Z</time></trkpt><trkpt lat="42.4921023" lon="14.1239114"><ele>21.666666666666664</ele><time>2026-05-02T06:07:46.943Z</time></trkpt><trkpt lat="42.4920245" lon="14.1238383"><ele>21.5</ele><time>2026-05-02T06:07:47.942Z</time></trkpt><trkpt lat="42.4919487" lon="14.1237818"><ele>21.333333333333332</ele><time>2026-05-02T06:07:48.942Z</time></trkpt><trkpt lat="42.4918732" lon="14.1237278"><ele>21.166666666666668</ele><time>2026-05-02T06:07:49.942Z</time></trkpt><trkpt lat="42.4917972" lon="14.1236688"><ele>21.0</ele><time>2026-05-02T06:07:50.941Z</time></trkpt><trkpt lat="42.4917136" lon="14.1235964"><ele>21.0</ele><time>2026-05-02T06:07:51.943Z</time></trkpt><trkpt lat="42.4916234" lon="14.1235222"><ele>21.0</ele><time>2026-05-02T06:07:52.942Z</time></trkpt><trkpt lat="42.4915198" lon="14.1234376"><ele>21.0</ele><time>2026-05-02T06:07:53.94Z</time></trkpt><trkpt lat="42.4914061" lon="14.1233447"><ele>21.0</ele><time>2026-05-02T06:07:54.942Z</time></trkpt><trkpt lat="42.4912915" lon="14.1232523"><ele>21.5</ele><time>2026-05-02T06:07:55.941Z</time></trkpt><trkpt lat="42.491179" lon="14.1231615"><ele>22.0</ele><time>2026-05-02T06:07:56.941Z</time></trkpt><trkpt lat="42.4910663" lon="14.1230678"><ele>22.5</ele><time>2026-05-02T06:07:57.941Z</time></trkpt><trkpt lat="42.4909548" lon="14.1229797"><ele>23.0</ele><time>2026-05-02T06:07:58.942Z</time></trkpt><trkpt lat="42.4908414" lon="14.1228908"><ele>23.0</ele><time>2026-05-02T06:07:59.942Z</time></trkpt><trkpt lat="42.4907354" lon="14.122805"><ele>23.0</ele><time>2026-05-02T06:08:00.941Z</time></trkpt><trkpt lat="42.4906308" lon="14.1227173"><ele>23.0</ele><time>2026-05-02T06:08:01.942Z</time></trkpt><trkpt lat="42.4905233" lon="14.1226343"><ele>23.0</ele><time>2026-05-02T06:08:02.94Z</time></trkpt><trkpt lat="42.49042" lon="14.1225488"><ele>23.0</ele><time>2026-05-02T06:08:03.941Z</time></trkpt><trkpt lat="42.4903182" lon="14.1224618"><ele>23.0</ele><time>2026-05-02T06:08:04.941Z</time></trkpt><trkpt lat="42.4902159" lon="14.1223778"><ele>23.0</ele><time>2026-05-02T06:08:05.941Z</time></trkpt><trkpt lat="42.4901124" lon="14.1222926"><ele>23.0</ele><time>2026-05-02T06:08:06.942Z</time></trkpt><trkpt lat="42.4900152" lon="14.1222132"><ele>22.799999999999997</ele><time>2026-05-02T06:08:07.942Z</time></trkpt><trkpt lat="42.489923" lon="14.1221389"><ele>22.6</ele><time>2026-05-02T06:08:08.942Z</time></trkpt><trkpt lat="42.4898411" lon="14.1220686"><ele>22.4</ele><time>2026-05-02T06:08:09.941Z</time></trkpt><trkpt lat="42.4897601" lon="14.1220034"><ele>22.200000000000003</ele><time>2026-05-02T06:08:10.942Z</time></trkpt><trkpt lat="42.4896792" lon="14.1219333"><ele>22.0</ele><time>2026-05-02T06:08:11.941Z</time></trkpt><trkpt lat="42.4895902" lon="14.1218606"><ele>22.200000000000003</ele><time>2026-05-02T06:08:12.941Z</time></trkpt><trkpt lat="42.4894997" lon="14.1217866"><ele>22.4</ele><time>2026-05-02T06:08:13.942Z</time></trkpt><trkpt lat="42.4894098" lon="14.1217122"><ele>22.6</ele><time>2026-05-02T06:08:14.942Z</time></trkpt><trkpt lat="42.4893193" lon="14.1216355"><ele>22.799999999999997</ele><time>2026-05-02T06:08:15.94Z</time></trkpt><trkpt lat="42.4892238" lon="14.1215587"><ele>23.0</ele><time>2026-05-02T06:08:16.941Z</time></trkpt><trkpt lat="42.4891323" lon="14.1214906"><ele>23.0</ele><time>2026-05-02T06:08:17.942Z</time></trkpt><trkpt lat="42.4890436" lon="14.1214095"><ele>23.0</ele><time>2026-05-02T06:08:18.941Z</time></trkpt><trkpt lat="42.48896" lon="14.1213414"><ele>23.0</ele><time>2026-05-02T06:08:19.941Z</time></trkpt><trkpt lat="42.4888779" lon="14.1212709"><ele>23.0</ele><time>2026-05-02T06:08:20.941Z</time></trkpt><trkpt lat="42.4887956" lon="14.1212088"><ele>23.0</ele><time>2026-05-02T06:08:21.942Z</time></trkpt><trkpt lat="42.4887238" lon="14.1211457"><ele>23.4</ele><time>2026-05-02T06:08:22.943Z</time></trkpt><trkpt lat="42.4886518" lon="14.1210873"><ele>23.799999999999997</ele><time>2026-05-02T06:08:23.941Z</time></trkpt><trkpt lat="42.4885764" lon="14.1210222"><ele>24.2</ele><time>2026-05-02T06:08:24.942Z</time></trkpt><trkpt lat="42.4884982" lon="14.1209589"><ele>24.6</ele><time>2026-05-02T06:08:25.943Z</time></trkpt><trkpt lat="42.4884098" lon="14.1208925"><ele>25.0</ele><time>2026-05-02T06:08:26.941Z</time></trkpt><trkpt lat="42.4883161" lon="14.1208284"><ele>25.0</ele><time>2026-05-02T06:08:27.94Z</time></trkpt><trkpt lat="42.4882204" lon="14.1207519"><ele>25.0</ele><time>2026-05-02T06:08:28.942Z</time></trkpt><trkpt lat="42.4881155" lon="14.1206723"><ele>25.0</ele><time>2026-05-02T06:08:29.941Z</time></trkpt><trkpt lat="42.4880204" lon="14.120596"><ele>25.0</ele><time>2026-05-02T06:08:30.941Z</time></trkpt><trkpt lat="42.4879238" lon="14.1205315"><ele>25.0</ele><time>2026-05-02T06:08:31.942Z</time></trkpt><trkpt lat="42.4878239" lon="14.1204599"><ele>25.25</ele><time>2026-05-02T06:08:32.942Z</time></trkpt><trkpt lat="42.4877075" lon="14.1203619"><ele>25.5</ele><time>2026-05-02T06:08:33.941Z</time></trkpt><trkpt lat="42.4875992" lon="14.1202643"><ele>25.75</ele><time>2026-05-02T06:08:34.943Z</time></trkpt><trkpt lat="42.4874948" lon="14.1201758"><ele>26.0</ele><time>2026-05-02T06:08:35.942Z</time></trkpt><trkpt lat="42.4873805" lon="14.1200912"><ele>25.999999999999996</ele><time>2026-05-02T06:08:36.941Z</time></trkpt><trkpt lat="42.4872872" lon="14.1200093"><ele>26.0</ele><time>2026-05-02T06:08:37.943Z</time></trkpt><trkpt lat="42.4872102" lon="14.1199532"><ele>26.0</ele><time>2026-05-02T06:08:38.942Z</time></trkpt><trkpt lat="42.4871452" lon="14.119896"><ele>26.0</ele><time>2026-05-02T06:08:39.941Z</time></trkpt><trkpt lat="42.487092" lon="14.1198465"><ele>25.999999999999996</ele><time>2026-05-02T06:08:40.941Z</time></trkpt><trkpt lat="42.4870359" lon="14.119795"><ele>26.0</ele><time>2026-05-02T06:08:41.942Z</time></trkpt><trkpt lat="42.4869782" lon="14.1197428"><ele>26.0</ele><time>2026-05-02T06:08:42.941Z</time></trkpt><trkpt lat="42.4868733" lon="14.1196626"><ele>26.0</ele><time>2026-05-02T06:08:44.942Z</time></trkpt><trkpt lat="42.4868167" lon="14.1196203"><ele>26.0</ele><time>2026-05-02T06:08:45.941Z</time></trkpt><trkpt lat="42.4867448" lon="14.119562"><ele>26.0</ele><time>2026-05-02T06:08:46.942Z</time></trkpt><trkpt lat="42.4866621" lon="14.1195056"><ele>26.0</ele><time>2026-05-02T06:08:47.942Z</time></trkpt><trkpt lat="42.4865697" lon="14.1194489"><ele>25.999999999999996</ele><time>2026-05-02T06:08:48.941Z</time></trkpt><trkpt lat="42.4864922" lon="14.1193886"><ele>26.0</ele><time>2026-05-02T06:08:49.942Z</time></trkpt><trkpt lat="42.4864232" lon="14.1193315"><ele>26.0</ele><time>2026-05-02T06:08:50.942Z</time></trkpt><trkpt lat="42.4863652" lon="14.1192839"><ele>26.0</ele><time>2026-05-02T06:08:51.941Z</time></trkpt><trkpt lat="42.4862995" lon="14.1192119"><ele>25.999999999999996</ele><time>2026-05-02T06:08:53.94Z</time></trkpt><trkpt lat="42.4862508" lon="14.1191288"><ele>26.0</ele><time>2026-05-02T06:08:56.943Z</time></trkpt><trkpt lat="42.4861929" lon="14.1190867"><ele>25.8</ele><time>2026-05-02T06:08:57.941Z</time></trkpt><trkpt lat="42.4861283" lon="14.1190376"><ele>25.6</ele><time>2026-05-02T06:08:58.942Z</time></trkpt><trkpt lat="42.4860469" lon="14.1189718"><ele>25.4</ele><time>2026-05-02T06:08:59.941Z</time></trkpt><trkpt lat="42.4859611" lon="14.1189028"><ele>25.2</ele><time>2026-05-02T06:09:00.942Z</time></trkpt><trkpt lat="42.4858609" lon="14.1188189"><ele>25.0</ele><time>2026-05-02T06:09:01.941Z</time></trkpt><trkpt lat="42.4857629" lon="14.1187405"><ele>25.0</ele><time>2026-05-02T06:09:02.942Z</time></trkpt><trkpt lat="42.4856606" lon="14.1186608"><ele>25.0</ele><time>2026-05-02T06:09:03.941Z</time></trkpt><trkpt lat="42.4855603" lon="14.1185792"><ele>25.0</ele><time>2026-05-02T06:09:04.942Z</time></trkpt><trkpt lat="42.4854574" lon="14.1184935"><ele>25.0</ele><time>2026-05-02T06:09:05.942Z</time></trkpt><trkpt lat="42.4853544" lon="14.1184119"><ele>25.4</ele><time>2026-05-02T06:09:06.942Z</time></trkpt><trkpt lat="42.4852517" lon="14.1183273"><ele>25.8</ele><time>2026-05-02T06:09:07.942Z</time></trkpt><trkpt lat="42.4851558" lon="14.1182496"><ele>26.200000000000003</ele><time>2026-05-02T06:09:08.942Z</time></trkpt><trkpt lat="42.4850661" lon="14.1181801"><ele>26.6</ele><time>2026-05-02T06:09:09.942Z</time></trkpt><trkpt lat="42.4849845" lon="14.1181168"><ele>27.0</ele><time>2026-05-02T06:09:10.942Z</time></trkpt><trkpt lat="42.4849153" lon="14.1180658"><ele>27.0</ele><time>2026-05-02T06:09:11.941Z</time></trkpt><trkpt lat="42.4848586" lon="14.1180197"><ele>27.0</ele><time>2026-05-02T06:09:12.943Z</time></trkpt><trkpt lat="42.4847513" lon="14.1179465"><ele>27.0</ele><time>2026-05-02T06:09:14.942Z</time></trkpt><trkpt lat="42.4846934" lon="14.1178977"><ele>27.0</ele><time>2026-05-02T06:09:15.942Z</time></trkpt><trkpt lat="42.4846253" lon="14.1178311"><ele>27.0</ele><time>2026-05-02T06:09:16.942Z</time></trkpt><trkpt lat="42.4845415" lon="14.1177539"><ele>27.0</ele><time>2026-05-02T06:09:17.941Z</time></trkpt><trkpt lat="42.4844472" lon="14.1176744"><ele>27.0</ele><time>2026-05-02T06:09:18.941Z</time></trkpt><trkpt lat="42.4843436" lon="14.1175949"><ele>27.0</ele><time>2026-05-02T06:09:19.94Z</time></trkpt><trkpt lat="42.4842241" lon="14.1175"><ele>27.0</ele><time>2026-05-02T06:09:20.941Z</time></trkpt><trkpt lat="42.4841125" lon="14.1174109"><ele>27.0</ele><time>2026-05-02T06:09:21.942Z</time></trkpt><trkpt lat="42.4839979" lon="14.1173147"><ele>27.0</ele><time>2026-05-02T06:09:22.942Z</time></trkpt><trkpt lat="42.4838841" lon="14.1172194"><ele>27.0</ele><time>2026-05-02T06:09:23.942Z</time></trkpt><trkpt lat="42.4837678" lon="14.1171168"><ele>27.0</ele><time>2026-05-02T06:09:24.942Z</time></trkpt><trkpt lat="42.4836463" lon="14.1170205"><ele>27.0</ele><time>2026-05-02T06:09:25.942Z</time></trkpt><trkpt lat="42.4835181" lon="14.116922"><ele>28.0</ele><time>2026-05-02T06:09:26.942Z</time></trkpt><trkpt lat="42.4833868" lon="14.1168159"><ele>29.0</ele><time>2026-05-02T06:09:27.942Z</time></trkpt><trkpt lat="42.4832485" lon="14.1167043"><ele>30.0</ele><time>2026-05-02T06:09:28.941Z</time></trkpt><trkpt lat="42.483119" lon="14.1166"><ele>29.75</ele><time>2026-05-02T06:09:29.942Z</time></trkpt><trkpt lat="42.4829978" lon="14.1165058"><ele>29.5</ele><time>2026-05-02T06:09:30.942Z</time></trkpt><trkpt lat="42.4828863" lon="14.1164132"><ele>29.25</ele><time>2026-05-02T06:09:31.942Z</time></trkpt><trkpt lat="42.4827781" lon="14.1163263"><ele>29.0</ele><time>2026-05-02T06:09:32.943Z</time></trkpt><trkpt lat="42.4826723" lon="14.1162409"><ele>29.0</ele><time>2026-05-02T06:09:33.941Z</time></trkpt><trkpt lat="42.4825641" lon="14.1161512"><ele>29.0</ele><time>2026-05-02T06:09:34.942Z</time></trkpt><trkpt lat="42.4824584" lon="14.1160635"><ele>29.0</ele><time>2026-05-02T06:09:35.942Z</time></trkpt><trkpt lat="42.4823463" lon="14.1159756"><ele>29.0</ele><time>2026-05-02T06:09:36.943Z</time></trkpt><trkpt lat="42.482237" lon="14.1158879"><ele>29.0</ele><time>2026-05-02T06:09:37.941Z</time></trkpt><trkpt lat="42.4821278" lon="14.1157994"><ele>29.0</ele><time>2026-05-02T06:09:38.943Z</time></trkpt><trkpt lat="42.4820212" lon="14.1157128"><ele>29.0</ele><time>2026-05-02T06:09:39.941Z</time></trkpt><trkpt lat="42.4819145" lon="14.1156244"><ele>29.0</ele><time>2026-05-02T06:09:40.942Z</time></trkpt><trkpt lat="42.4818036" lon="14.115536"><ele>30.0</ele><time>2026-05-02T06:09:41.943Z</time></trkpt><trkpt lat="42.48169" lon="14.1154412"><ele>31.0</ele><time>2026-05-02T06:09:42.942Z</time></trkpt><trkpt lat="42.4815719" lon="14.1153464"><ele>32.0</ele><time>2026-05-02T06:09:43.942Z</time></trkpt><trkpt lat="42.4814486" lon="14.1152494"><ele>33.0</ele><time>2026-05-02T06:09:44.942Z</time></trkpt><trkpt lat="42.4813227" lon="14.1151542"><ele>33.0</ele><time>2026-05-02T06:09:45.943Z</time></trkpt><trkpt lat="42.4811976" lon="14.1150589"><ele>33.0</ele><time>2026-05-02T06:09:46.942Z</time></trkpt><trkpt lat="42.4810704" lon="14.1149562"><ele>33.0</ele><time>2026-05-02T06:09:47.941Z</time></trkpt><trkpt lat="42.4809408" lon="14.1148531"><ele>33.0</ele><time>2026-05-02T06:09:48.942Z</time></trkpt><trkpt lat="42.480808" lon="14.1147419"><ele>32.0</ele><time>2026-05-02T06:09:49.941Z</time></trkpt><trkpt lat="42.4806714" lon="14.1146332"><ele>31.0</ele><time>2026-05-02T06:09:50.942Z</time></trkpt><trkpt lat="42.4805374" lon="14.1145314"><ele>30.0</ele><time>2026-05-02T06:09:51.94Z</time></trkpt><trkpt lat="42.480404" lon="14.1144246"><ele>30.0</ele><time>2026-05-02T06:09:52.942Z</time></trkpt><trkpt lat="42.4802698" lon="14.1143181"><ele>30.0</ele><time>2026-05-02T06:09:53.942Z</time></trkpt><trkpt lat="42.4801383" lon="14.1142104"><ele>30.0</ele><time>2026-05-02T06:09:54.941Z</time></trkpt><trkpt lat="42.4800096" lon="14.1141033"><ele>29.666666666666664</ele><time>2026-05-02T06:09:55.941Z</time></trkpt><trkpt lat="42.4798763" lon="14.1139956"><ele>29.333333333333332</ele><time>2026-05-02T06:09:56.943Z</time></trkpt><trkpt lat="42.4797463" lon="14.1138895"><ele>29.0</ele><time>2026-05-02T06:09:57.941Z</time></trkpt><trkpt lat="42.4796205" lon="14.1137888"><ele>29.75</ele><time>2026-05-02T06:09:58.942Z</time></trkpt><trkpt lat="42.4795027" lon="14.1136856"><ele>30.5</ele><time>2026-05-02T06:09:59.941Z</time></trkpt><trkpt lat="42.4793858" lon="14.1135853"><ele>31.25</ele><time>2026-05-02T06:10:00.942Z</time></trkpt><trkpt lat="42.4792582" lon="14.113482"><ele>32.0</ele><time>2026-05-02T06:10:01.941Z</time></trkpt><trkpt lat="42.4791362" lon="14.1133773"><ele>32.0</ele><time>2026-05-02T06:10:02.942Z</time></trkpt><trkpt lat="42.4790124" lon="14.1132753"><ele>32.0</ele><time>2026-05-02T06:10:03.942Z</time></trkpt><trkpt lat="42.4788906" lon="14.1131751"><ele>32.0</ele><time>2026-05-02T06:10:04.942Z</time></trkpt><trkpt lat="42.4787663" lon="14.1130758"><ele>32.0</ele><time>2026-05-02T06:10:05.942Z</time></trkpt><trkpt lat="42.4786447" lon="14.1129738"><ele>32.25</ele><time>2026-05-02T06:10:06.942Z</time></trkpt><trkpt lat="42.4785201" lon="14.1128723"><ele>32.5</ele><time>2026-05-02T06:10:07.941Z</time></trkpt><trkpt lat="42.4783959" lon="14.1127707"><ele>32.75</ele><time>2026-05-02T06:10:08.941Z</time></trkpt><trkpt lat="42.4782733" lon="14.1126637"><ele>33.0</ele><time>2026-05-02T06:10:09.941Z</time></trkpt><trkpt lat="42.478152" lon="14.1125625"><ele>33.0</ele><time>2026-05-02T06:10:10.942Z</time></trkpt><trkpt lat="42.4780323" lon="14.1124651"><ele>33.0</ele><time>2026-05-02T06:10:11.943Z</time></trkpt><trkpt lat="42.4779096" lon="14.1123664"><ele>33.0</ele><time>2026-05-02T06:10:12.942Z</time></trkpt><trkpt lat="42.4777851" lon="14.1122711"><ele>33.0</ele><time>2026-05-02T06:10:13.942Z</time></trkpt><trkpt lat="42.4776606" lon="14.1121811"><ele>33.5</ele><time>2026-05-02T06:10:14.942Z</time></trkpt><trkpt lat="42.4775379" lon="14.1120795"><ele>34.0</ele><time>2026-05-02T06:10:15.942Z</time></trkpt><trkpt lat="42.4774161" lon="14.1119788"><ele>34.5</ele><time>2026-05-02T06:10:16.942Z</time></trkpt><trkpt lat="42.4772996" lon="14.1118886"><ele>35.0</ele><time>2026-05-02T06:10:17.942Z</time></trkpt><trkpt lat="42.4771918" lon="14.1118011"><ele>35.0</ele><time>2026-05-02T06:10:18.941Z</time></trkpt><trkpt lat="42.4770882" lon="14.111719"><ele>35.0</ele><time>2026-05-02T06:10:19.942Z</time></trkpt><trkpt lat="42.476986" lon="14.1116391"><ele>35.0</ele><time>2026-05-02T06:10:20.943Z</time></trkpt><trkpt lat="42.4768936" lon="14.1115541"><ele>35.0</ele><time>2026-05-02T06:10:21.942Z</time></trkpt><trkpt lat="42.476792" lon="14.1114735"><ele>35.0</ele><time>2026-05-02T06:10:22.943Z</time></trkpt><trkpt lat="42.4766952" lon="14.1113936"><ele>35.0</ele><time>2026-05-02T06:10:23.941Z</time></trkpt><trkpt lat="42.4765991" lon="14.1113129"><ele>35.0</ele><time>2026-05-02T06:10:24.942Z</time></trkpt><trkpt lat="42.4765131" lon="14.1112378"><ele>35.0</ele><time>2026-05-02T06:10:25.941Z</time></trkpt><trkpt lat="42.4764407" lon="14.1111605"><ele>35.0</ele><time>2026-05-02T06:10:26.942Z</time></trkpt><trkpt lat="42.476379" lon="14.1110944"><ele>35.0</ele><time>2026-05-02T06:10:27.942Z</time></trkpt><trkpt lat="42.4763327" lon="14.111023"><ele>35.0</ele><time>2026-05-02T06:10:28.942Z</time></trkpt><trkpt lat="42.4763004" lon="14.110946"><ele>35.0</ele><time>2026-05-02T06:10:29.942Z</time></trkpt><trkpt lat="42.4762982" lon="14.1108506"><ele>35.0</ele><time>2026-05-02T06:10:30.943Z</time></trkpt><trkpt lat="42.4762802" lon="14.1107513"><ele>35.0</ele><time>2026-05-02T06:10:31.943Z</time></trkpt><trkpt lat="42.4762541" lon="14.1106701"><ele>35.0</ele><time>2026-05-02T06:10:32.941Z</time></trkpt><trkpt lat="42.4761366" lon="14.1106306"><ele>35.4</ele><time>2026-05-02T06:10:34.941Z</time></trkpt><trkpt lat="42.4760515" lon="14.1106629"><ele>35.8</ele><time>2026-05-02T06:10:35.942Z</time></trkpt><trkpt lat="42.4759584" lon="14.1106914"><ele>36.2</ele><time>2026-05-02T06:10:36.942Z</time></trkpt><trkpt lat="42.4758461" lon="14.11068"><ele>36.6</ele><time>2026-05-02T06:10:37.941Z</time></trkpt><trkpt lat="42.4757418" lon="14.1106526"><ele>37.0</ele><time>2026-05-02T06:10:38.942Z</time></trkpt><trkpt lat="42.4756374" lon="14.1105863"><ele>37.0</ele><time>2026-05-02T06:10:39.943Z</time></trkpt><trkpt lat="42.4755319" lon="14.1105282"><ele>37.0</ele><time>2026-05-02T06:10:40.942Z</time></trkpt><trkpt lat="42.4754095" lon="14.1104914"><ele>37.0</ele><time>2026-05-02T06:10:41.941Z</time></trkpt><trkpt lat="42.4752804" lon="14.110483"><ele>37.0</ele><time>2026-05-02T06:10:42.942Z</time></trkpt><trkpt lat="42.4751463" lon="14.110505"><ele>38.75</ele><time>2026-05-02T06:10:43.941Z</time></trkpt><trkpt lat="42.4750056" lon="14.1105284"><ele>40.5</ele><time>2026-05-02T06:10:44.942Z</time></trkpt><trkpt lat="42.4748664" lon="14.1105388"><ele>42.25</ele><time>2026-05-02T06:10:45.942Z</time></trkpt><trkpt lat="42.4747181" lon="14.1105267"><ele>44.0</ele><time>2026-05-02T06:10:46.942Z</time></trkpt><trkpt lat="42.4745696" lon="14.1104886"><ele>46.666666666666664</ele><time>2026-05-02T06:10:47.942Z</time></trkpt><trkpt lat="42.4744188" lon="14.1104323"><ele>49.33333333333333</ele><time>2026-05-02T06:10:48.942Z</time></trkpt><trkpt lat="42.4742667" lon="14.1103705"><ele>52.0</ele><time>2026-05-02T06:10:49.942Z</time></trkpt><trkpt lat="42.4741083" lon="14.1102967"><ele>52.0</ele><time>2026-05-02T06:10:50.941Z</time></trkpt><trkpt lat="42.4739478" lon="14.1102201"><ele>52.0</ele><time>2026-05-02T06:10:51.943Z</time></trkpt><trkpt lat="42.4737831" lon="14.1101399"><ele>52.0</ele><time>2026-05-02T06:10:52.942Z</time></trkpt><trkpt lat="42.4736146" lon="14.1100619"><ele>53.33333333333333</ele><time>2026-05-02T06:10:53.942Z</time></trkpt><trkpt lat="42.4734448" lon="14.1099845"><ele>54.66666666666667</ele><time>2026-05-02T06:10:54.941Z</time></trkpt><trkpt lat="42.4732769" lon="14.109907"><ele>56.0</ele><time>2026-05-02T06:10:55.941Z</time></trkpt><trkpt lat="42.4731104" lon="14.1098278"><ele>59.66666666666667</ele><time>2026-05-02T06:10:56.942Z</time></trkpt><trkpt lat="42.4729513" lon="14.1097437"><ele>63.33333333333333</ele><time>2026-05-02T06:10:57.942Z</time></trkpt><trkpt lat="42.4727909" lon="14.1096682"><ele>67.0</ele><time>2026-05-02T06:10:58.942Z</time></trkpt><trkpt lat="42.4726319" lon="14.1096024"><ele>67.0</ele><time>2026-05-02T06:10:59.941Z</time></trkpt><trkpt lat="42.4724748" lon="14.1095345"><ele>67.0</ele><time>2026-05-02T06:11:00.942Z</time></trkpt><trkpt lat="42.4723113" lon="14.1094907"><ele>67.0</ele><time>2026-05-02T06:11:01.942Z</time></trkpt><trkpt lat="42.4721473" lon="14.1094396"><ele>65.66666666666666</ele><time>2026-05-02T06:11:02.943Z</time></trkpt><trkpt lat="42.4719882" lon="14.1093707"><ele>64.33333333333333</ele><time>2026-05-02T06:11:03.943Z</time></trkpt><trkpt lat="42.4718356" lon="14.1092884"><ele>63.0</ele><time>2026-05-02T06:11:04.941Z</time></trkpt><trkpt lat="42.4716996" lon="14.1091652"><ele>67.0</ele><time>2026-05-02T06:11:05.942Z</time></trkpt><trkpt lat="42.471561" lon="14.1090347"><ele>71.0</ele><time>2026-05-02T06:11:06.942Z</time></trkpt><trkpt lat="42.4714375" lon="14.1088803"><ele>75.0</ele><time>2026-05-02T06:11:07.941Z</time></trkpt><trkpt lat="42.4713124" lon="14.1087235"><ele>76.0</ele><time>2026-05-02T06:11:08.941Z</time></trkpt><trkpt lat="42.4711922" lon="14.108562"><ele>77.0</ele><time>2026-05-02T06:11:09.941Z</time></trkpt><trkpt lat="42.4710742" lon="14.1083973"><ele>78.0</ele><time>2026-05-02T06:11:10.942Z</time></trkpt><trkpt lat="42.4709578" lon="14.1082208"><ele>78.0</ele><time>2026-05-02T06:11:11.942Z</time></trkpt><trkpt lat="42.4708523" lon="14.1080409"><ele>78.0</ele><time>2026-05-02T06:11:12.942Z</time></trkpt><trkpt lat="42.4707534" lon="14.1078458"><ele>78.0</ele><time>2026-05-02T06:11:13.943Z</time></trkpt><trkpt lat="42.4706614" lon="14.1076506"><ele>78.0</ele><time>2026-05-02T06:11:14.943Z</time></trkpt><trkpt lat="42.4705863" lon="14.1074468"><ele>78.0</ele><time>2026-05-02T06:11:15.942Z</time></trkpt><trkpt lat="42.4705227" lon="14.1072367"><ele>78.0</ele><time>2026-05-02T06:11:16.941Z</time></trkpt><trkpt lat="42.4704636" lon="14.1070235"><ele>76.0</ele><time>2026-05-02T06:11:17.942Z</time></trkpt><trkpt lat="42.4703989" lon="14.1068195"><ele>74.0</ele><time>2026-05-02T06:11:18.943Z</time></trkpt><trkpt lat="42.4703194" lon="14.106625"><ele>72.0</ele><time>2026-05-02T06:11:19.942Z</time></trkpt><trkpt lat="42.47023" lon="14.1064502"><ele>75.0</ele><time>2026-05-02T06:11:20.941Z</time></trkpt><trkpt lat="42.4701264" lon="14.1062977"><ele>78.0</ele><time>2026-05-02T06:11:21.942Z</time></trkpt><trkpt lat="42.4700238" lon="14.1061811"><ele>81.0</ele><time>2026-05-02T06:11:22.941Z</time></trkpt><trkpt lat="42.469912" lon="14.1060868"><ele>84.0</ele><time>2026-05-02T06:11:23.942Z</time></trkpt><trkpt lat="42.4697955" lon="14.106"><ele>84.0</ele><time>2026-05-02T06:11:24.942Z</time></trkpt><trkpt lat="42.4696678" lon="14.1059164"><ele>84.0</ele><time>2026-05-02T06:11:25.943Z</time></trkpt><trkpt lat="42.469543" lon="14.1058259"><ele>84.0</ele><time>2026-05-02T06:11:26.943Z</time></trkpt><trkpt lat="42.4694169" lon="14.1057382"><ele>84.0</ele><time>2026-05-02T06:11:27.942Z</time></trkpt><trkpt lat="42.4692951" lon="14.1056494"><ele>86.5</ele><time>2026-05-02T06:11:28.942Z</time></trkpt><trkpt lat="42.4691714" lon="14.105562"><ele>89.0</ele><time>2026-05-02T06:11:29.942Z</time></trkpt><trkpt lat="42.469047" lon="14.1054724"><ele>91.5</ele><time>2026-05-02T06:11:30.942Z</time></trkpt><trkpt lat="42.4689222" lon="14.1053838"><ele>94.0</ele><time>2026-05-02T06:11:31.943Z</time></trkpt><trkpt lat="42.46878" lon="14.1053036"><ele>94.5</ele><time>2026-05-02T06:11:32.942Z</time></trkpt><trkpt lat="42.4686429" lon="14.1052295"><ele>95.0</ele><time>2026-05-02T06:11:33.942Z</time></trkpt><trkpt lat="42.4684973" lon="14.1051787"><ele>95.5</ele><time>2026-05-02T06:11:34.942Z</time></trkpt><trkpt lat="42.4683498" lon="14.1051339"><ele>96.0</ele><time>2026-05-02T06:11:35.942Z</time></trkpt><trkpt lat="42.4681991" lon="14.1050981"><ele>96.0</ele><time>2026-05-02T06:11:36.942Z</time></trkpt><trkpt lat="42.4680501" lon="14.1050631"><ele>96.0</ele><time>2026-05-02T06:11:37.942Z</time></trkpt><trkpt lat="42.4679105" lon="14.1050143"><ele>96.0</ele><time>2026-05-02T06:11:38.942Z</time></trkpt><trkpt lat="42.46778" lon="14.1049555"><ele>96.0</ele><time>2026-05-02T06:11:39.941Z</time></trkpt><trkpt lat="42.4676505" lon="14.1048773"><ele>98.66666666666666</ele><time>2026-05-02T06:11:40.942Z</time></trkpt><trkpt lat="42.4675312" lon="14.1047536"><ele>101.33333333333333</ele><time>2026-05-02T06:11:41.941Z</time></trkpt><trkpt lat="42.4674071" lon="14.1046283"><ele>104.0</ele><time>2026-05-02T06:11:42.941Z</time></trkpt><trkpt lat="42.4672907" lon="14.1045039"><ele>104.0</ele><time>2026-05-02T06:11:43.941Z</time></trkpt><trkpt lat="42.4671725" lon="14.1043889"><ele>104.0</ele><time>2026-05-02T06:11:44.942Z</time></trkpt><trkpt lat="42.4670492" lon="14.104296"><ele>104.0</ele><time>2026-05-02T06:11:45.942Z</time></trkpt><trkpt lat="42.4669276" lon="14.1041962"><ele>104.0</ele><time>2026-05-02T06:11:46.942Z</time></trkpt><trkpt lat="42.4668127" lon="14.1041098"><ele>102.75</ele><time>2026-05-02T06:11:47.941Z</time></trkpt><trkpt lat="42.4667021" lon="14.1040245"><ele>101.5</ele><time>2026-05-02T06:11:48.943Z</time></trkpt><trkpt lat="42.466592" lon="14.1039395"><ele>100.25</ele><time>2026-05-02T06:11:49.941Z</time></trkpt><trkpt lat="42.4664699" lon="14.1038815"><ele>99.0</ele><time>2026-05-02T06:11:50.942Z</time></trkpt><trkpt lat="42.4663483" lon="14.1038319"><ele>102.5</ele><time>2026-05-02T06:11:51.941Z</time></trkpt><trkpt lat="42.4662111" lon="14.1038083"><ele>106.0</ele><time>2026-05-02T06:11:52.942Z</time></trkpt><trkpt lat="42.4660748" lon="14.1038066"><ele>109.5</ele><time>2026-05-02T06:11:53.942Z</time></trkpt><trkpt lat="42.4659338" lon="14.1038147"><ele>113.0</ele><time>2026-05-02T06:11:54.943Z</time></trkpt><trkpt lat="42.4657949" lon="14.1038205"><ele>113.0</ele><time>2026-05-02T06:11:55.942Z</time></trkpt><trkpt lat="42.4656597" lon="14.103817"><ele>113.0</ele><time>2026-05-02T06:11:56.941Z</time></trkpt><trkpt lat="42.4655306" lon="14.1037951"><ele>113.0</ele><time>2026-05-02T06:11:57.943Z</time></trkpt><trkpt lat="42.4654052" lon="14.1037579"><ele>113.0</ele><time>2026-05-02T06:11:58.942Z</time></trkpt><trkpt lat="42.4652843" lon="14.1037136"><ele>113.4</ele><time>2026-05-02T06:11:59.942Z</time></trkpt><trkpt lat="42.4651821" lon="14.1036501"><ele>113.80000000000001</ele><time>2026-05-02T06:12:00.943Z</time></trkpt><trkpt lat="42.465087" lon="14.103594"><ele>114.2</ele><time>2026-05-02T06:12:01.941Z</time></trkpt><trkpt lat="42.4650097" lon="14.1035254"><ele>114.6</ele><time>2026-05-02T06:12:02.941Z</time></trkpt><trkpt lat="42.4649355" lon="14.1034361"><ele>115.0</ele><time>2026-05-02T06:12:03.943Z</time></trkpt><trkpt lat="42.4647643" lon="14.1032312"><ele>115.0</ele><time>2026-05-02T06:12:05.942Z</time></trkpt><trkpt lat="42.4646749" lon="14.1031429"><ele>115.0</ele><time>2026-05-02T06:12:06.942Z</time></trkpt><trkpt lat="42.4645879" lon="14.1030809"><ele>115.0</ele><time>2026-05-02T06:12:07.942Z</time></trkpt><trkpt lat="42.4645047" lon="14.1030541"><ele>115.0</ele><time>2026-05-02T06:12:08.942Z</time></trkpt><trkpt lat="42.4644377" lon="14.1030467"><ele>115.0</ele><time>2026-05-02T06:12:09.942Z</time></trkpt><trkpt lat="42.4643848" lon="14.103178"><ele>115.50000000000001</ele><time>2026-05-02T06:12:11.943Z</time></trkpt><trkpt lat="42.4643988" lon="14.1032617"><ele>116.0</ele><time>2026-05-02T06:12:12.942Z</time></trkpt><trkpt lat="42.4644265" lon="14.1033412"><ele>116.5</ele><time>2026-05-02T06:12:13.942Z</time></trkpt><trkpt lat="42.4644761" lon="14.1034033"><ele>117.0</ele><time>2026-05-02T06:12:14.943Z</time></trkpt><trkpt lat="42.4645929" lon="14.1034438"><ele>117.50000000000001</ele><time>2026-05-02T06:12:15.942Z</time></trkpt><trkpt lat="42.4646755" lon="14.1034953"><ele>118.0</ele><time>2026-05-02T06:12:16.942Z</time></trkpt><trkpt lat="42.4647219" lon="14.1035786"><ele>118.00000000000001</ele><time>2026-05-02T06:12:17.943Z</time></trkpt><trkpt lat="42.4647584" lon="14.1036538"><ele>118.0</ele><time>2026-05-02T06:12:18.943Z</time></trkpt><trkpt lat="42.4647122" lon="14.103764"><ele>118.0</ele><time>2026-05-02T06:12:20.942Z</time></trkpt><trkpt lat="42.464651" lon="14.1038066"><ele>118.0</ele><time>2026-05-02T06:12:21.942Z</time></trkpt><trkpt lat="42.4645693" lon="14.1038489"><ele>118.00000000000001</ele><time>2026-05-02T06:12:22.942Z</time></trkpt><trkpt lat="42.4644742" lon="14.1038901"><ele>118.0</ele><time>2026-05-02T06:12:23.942Z</time></trkpt><trkpt lat="42.4643676" lon="14.103936"><ele>118.5</ele><time>2026-05-02T06:12:24.942Z</time></trkpt><trkpt lat="42.4642467" lon="14.1039692"><ele>119.0</ele><time>2026-05-02T06:12:25.942Z</time></trkpt><trkpt lat="42.464116" lon="14.1039826"><ele>119.5</ele><time>2026-05-02T06:12:26.942Z</time></trkpt><trkpt lat="42.463994" lon="14.1039974"><ele>120.0</ele><time>2026-05-02T06:12:27.941Z</time></trkpt><trkpt lat="42.4638706" lon="14.1040183"><ele>121.0</ele><time>2026-05-02T06:12:28.943Z</time></trkpt><trkpt lat="42.4637388" lon="14.1040452"><ele>122.0</ele><time>2026-05-02T06:12:29.941Z</time></trkpt><trkpt lat="42.4636116" lon="14.1040727"><ele>123.0</ele><time>2026-05-02T06:12:30.942Z</time></trkpt><trkpt lat="42.4634936" lon="14.1040843"><ele>124.0</ele><time>2026-05-02T06:12:31.942Z</time></trkpt><trkpt lat="42.4633826" lon="14.1041463"><ele>125.25</ele><time>2026-05-02T06:12:32.943Z</time></trkpt><trkpt lat="42.4632726" lon="14.1042276"><ele>126.5</ele><time>2026-05-02T06:12:33.942Z</time></trkpt><trkpt lat="42.463168" lon="14.1043296"><ele>127.75</ele><time>2026-05-02T06:12:34.942Z</time></trkpt><trkpt lat="42.4630754" lon="14.1044367"><ele>129.0</ele><time>2026-05-02T06:12:35.942Z</time></trkpt><trkpt lat="42.462986" lon="14.1045401"><ele>129.4</ele><time>2026-05-02T06:12:36.941Z</time></trkpt><trkpt lat="42.462896" lon="14.1046288"><ele>129.8</ele><time>2026-05-02T06:12:37.942Z</time></trkpt><trkpt lat="42.4628182" lon="14.104705"><ele>130.2</ele><time>2026-05-02T06:12:38.942Z</time></trkpt><trkpt lat="42.4627497" lon="14.1047495"><ele>130.6</ele><time>2026-05-02T06:12:39.943Z</time></trkpt><trkpt lat="42.462689" lon="14.1047242"><ele>131.0</ele><time>2026-05-02T06:12:40.942Z</time></trkpt><trkpt lat="42.4625729" lon="14.1046697"><ele>131.0</ele><time>2026-05-02T06:12:42.942Z</time></trkpt><trkpt lat="42.4624738" lon="14.1047069"><ele>131.0</ele><time>2026-05-02T06:12:44.941Z</time></trkpt><trkpt lat="42.4624554" lon="14.1048518"><ele>131.0</ele><time>2026-05-02T06:12:46.942Z</time></trkpt><trkpt lat="42.4624608" lon="14.1049382"><ele>131.0</ele><time>2026-05-02T06:12:47.942Z</time></trkpt><trkpt lat="42.4624313" lon="14.1050198"><ele>131.0</ele><time>2026-05-02T06:12:48.942Z</time></trkpt><trkpt lat="42.4623806" lon="14.1051113"><ele>131.0</ele><time>2026-05-02T06:12:49.943Z</time></trkpt><trkpt lat="42.4623018" lon="14.1052141"><ele>131.5</ele><time>2026-05-02T06:12:50.943Z</time></trkpt><trkpt lat="42.4622074" lon="14.105319"><ele>132.0</ele><time>2026-05-02T06:12:51.943Z</time></trkpt><trkpt lat="42.4620956" lon="14.1054346"><ele>132.5</ele><time>2026-05-02T06:12:52.942Z</time></trkpt><trkpt lat="42.4619752" lon="14.1055472"><ele>133.0</ele><time>2026-05-02T06:12:53.942Z</time></trkpt><trkpt lat="42.4618536" lon="14.1056699"><ele>135.0</ele><time>2026-05-02T06:12:54.942Z</time></trkpt><trkpt lat="42.4617249" lon="14.1057958"><ele>137.0</ele><time>2026-05-02T06:12:55.942Z</time></trkpt><trkpt lat="42.4615927" lon="14.1059256"><ele>139.0</ele><time>2026-05-02T06:12:56.943Z</time></trkpt><trkpt lat="42.461471" lon="14.1060437"><ele>139.0</ele><time>2026-05-02T06:12:57.942Z</time></trkpt><trkpt lat="42.4613487" lon="14.1061678"><ele>139.0</ele><time>2026-05-02T06:12:58.941Z</time></trkpt><trkpt lat="42.4612246" lon="14.10626"><ele>139.0</ele><time>2026-05-02T06:12:59.943Z</time></trkpt><trkpt lat="42.4610988" lon="14.1063398"><ele>139.0</ele><time>2026-05-02T06:13:00.941Z</time></trkpt><trkpt lat="42.460971" lon="14.1064046"><ele>140.25</ele><time>2026-05-02T06:13:01.942Z</time></trkpt><trkpt lat="42.4608489" lon="14.1064726"><ele>141.5</ele><time>2026-05-02T06:13:02.942Z</time></trkpt><trkpt lat="42.4607348" lon="14.1065554"><ele>142.75</ele><time>2026-05-02T06:13:03.942Z</time></trkpt><trkpt lat="42.4606282" lon="14.1066544"><ele>144.0</ele><time>2026-05-02T06:13:04.941Z</time></trkpt><trkpt lat="42.4605485" lon="14.1067954"><ele>144.0</ele><time>2026-05-02T06:13:05.941Z</time></trkpt><trkpt lat="42.4604867" lon="14.1069648"><ele>144.0</ele><time>2026-05-02T06:13:06.942Z</time></trkpt><trkpt lat="42.4604269" lon="14.1071433"><ele>144.0</ele><time>2026-05-02T06:13:07.942Z</time></trkpt><trkpt lat="42.4603726" lon="14.1073416"><ele>144.0</ele><time>2026-05-02T06:13:08.942Z</time></trkpt><trkpt lat="42.4603448" lon="14.1075585"><ele>149.33333333333334</ele><time>2026-05-02T06:13:09.942Z</time></trkpt><trkpt lat="42.4603068" lon="14.107759"><ele>154.66666666666669</ele><time>2026-05-02T06:13:10.942Z</time></trkpt><trkpt lat="42.4602531" lon="14.1079506"><ele>160.0</ele><time>2026-05-02T06:13:11.942Z</time></trkpt><trkpt lat="42.460197" lon="14.1081416"><ele>159.0</ele><time>2026-05-02T06:13:12.942Z</time></trkpt><trkpt lat="42.460126" lon="14.1083269"><ele>158.0</ele><time>2026-05-02T06:13:13.942Z</time></trkpt><trkpt lat="42.460057" lon="14.1085176"><ele>157.0</ele><time>2026-05-02T06:13:14.942Z</time></trkpt><trkpt lat="42.4599803" lon="14.1087086"><ele>157.0</ele><time>2026-05-02T06:13:15.942Z</time></trkpt><trkpt lat="42.4598959" lon="14.1088857"><ele>157.0</ele><time>2026-05-02T06:13:16.942Z</time></trkpt><trkpt lat="42.459805" lon="14.1090383"><ele>157.0</ele><time>2026-05-02T06:13:17.943Z</time></trkpt><trkpt lat="42.4597031" lon="14.1091875"><ele>159.33333333333334</ele><time>2026-05-02T06:13:18.942Z</time></trkpt><trkpt lat="42.4595857" lon="14.1093177"><ele>161.66666666666666</ele><time>2026-05-02T06:13:19.942Z</time></trkpt><trkpt lat="42.4594596" lon="14.1094448"><ele>164.0</ele><time>2026-05-02T06:13:20.941Z</time></trkpt><trkpt lat="42.459336" lon="14.1095728"><ele>164.0</ele><time>2026-05-02T06:13:21.943Z</time></trkpt><trkpt lat="42.4592147" lon="14.1097257"><ele>164.0</ele><time>2026-05-02T06:13:22.942Z</time></trkpt><trkpt lat="42.4590985" lon="14.1098835"><ele>164.0</ele><time>2026-05-02T06:13:23.941Z</time></trkpt><trkpt lat="42.4589804" lon="14.1100474"><ele>162.0</ele><time>2026-05-02T06:13:24.942Z</time></trkpt><trkpt lat="42.4588622" lon="14.1102344"><ele>160.0</ele><time>2026-05-02T06:13:25.941Z</time></trkpt><trkpt lat="42.4587429" lon="14.110419"><ele>158.0</ele><time>2026-05-02T06:13:26.942Z</time></trkpt><trkpt lat="42.4586312" lon="14.1106115"><ele>159.33333333333331</ele><time>2026-05-02T06:13:27.942Z</time></trkpt><trkpt lat="42.4585241" lon="14.1107959"><ele>160.66666666666666</ele><time>2026-05-02T06:13:28.942Z</time></trkpt><trkpt lat="42.458431" lon="14.1109631"><ele>162.0</ele><time>2026-05-02T06:13:29.943Z</time></trkpt><trkpt lat="42.4583399" lon="14.1111062"><ele>162.0</ele><time>2026-05-02T06:13:30.942Z</time></trkpt><trkpt lat="42.4582464" lon="14.1112063"><ele>162.0</ele><time>2026-05-02T06:13:31.941Z</time></trkpt><trkpt lat="42.4581596" lon="14.111273"><ele>162.0</ele><time>2026-05-02T06:13:32.942Z</time></trkpt><trkpt lat="42.4580908" lon="14.1112414"><ele>162.0</ele><time>2026-05-02T06:13:33.943Z</time></trkpt><trkpt lat="42.4580266" lon="14.1111815"><ele>162.0</ele><time>2026-05-02T06:13:34.942Z</time></trkpt><trkpt lat="42.45797" lon="14.1110878"><ele>164.16666666666666</ele><time>2026-05-02T06:13:35.942Z</time></trkpt><trkpt lat="42.4579387" lon="14.1109599"><ele>166.33333333333334</ele><time>2026-05-02T06:13:36.943Z</time></trkpt><trkpt lat="42.4578909" lon="14.1108623"><ele>168.5</ele><time>2026-05-02T06:13:37.943Z</time></trkpt><trkpt lat="42.4578402" lon="14.1107916"><ele>170.66666666666669</ele><time>2026-05-02T06:13:38.942Z</time></trkpt><trkpt lat="42.4577337" lon="14.1108359"><ele>172.83333333333334</ele><time>2026-05-02T06:13:40.942Z</time></trkpt><trkpt lat="42.4577096" lon="14.1109196"><ele>175.0</ele><time>2026-05-02T06:13:41.943Z</time></trkpt><trkpt lat="42.4577171" lon="14.1110236"><ele>175.0</ele><time>2026-05-02T06:13:42.942Z</time></trkpt><trkpt lat="42.457751" lon="14.1111519"><ele>175.0</ele><time>2026-05-02T06:13:43.942Z</time></trkpt><trkpt lat="42.4577902" lon="14.111294"><ele>175.0</ele><time>2026-05-02T06:13:44.942Z</time></trkpt><trkpt lat="42.4578332" lon="14.1114625"><ele>175.0</ele><time>2026-05-02T06:13:45.943Z</time></trkpt><trkpt lat="42.4578773" lon="14.111651"><ele>175.0</ele><time>2026-05-02T06:13:46.942Z</time></trkpt><trkpt lat="42.4579223" lon="14.111848"><ele>175.0</ele><time>2026-05-02T06:13:47.943Z</time></trkpt><trkpt lat="42.4579714" lon="14.1120415"><ele>175.0</ele><time>2026-05-02T06:13:48.942Z</time></trkpt><trkpt lat="42.4580155" lon="14.1122262"><ele>175.0</ele><time>2026-05-02T06:13:49.942Z</time></trkpt><trkpt lat="42.4580609" lon="14.1124096"><ele>175.0</ele><time>2026-05-02T06:13:50.943Z</time></trkpt><trkpt lat="42.4580925" lon="14.1125875"><ele>175.0</ele><time>2026-05-02T06:13:51.942Z</time></trkpt><trkpt lat="42.4581061" lon="14.1127589"><ele>175.0</ele><time>2026-05-02T06:13:52.942Z</time></trkpt><trkpt lat="42.458111" lon="14.1129239"><ele>175.0</ele><time>2026-05-02T06:13:53.942Z</time></trkpt><trkpt lat="42.4580877" lon="14.1130872"><ele>175.0</ele><time>2026-05-02T06:13:54.942Z</time></trkpt><trkpt lat="42.4580506" lon="14.1132387"><ele>175.0</ele><time>2026-05-02T06:13:55.942Z</time></trkpt><trkpt lat="42.4580035" lon="14.1133862"><ele>175.0</ele><time>2026-05-02T06:13:56.941Z</time></trkpt><trkpt lat="42.4579568" lon="14.1135403"><ele>175.0</ele><time>2026-05-02T06:13:57.944Z</time></trkpt><trkpt lat="42.4579237" lon="14.113702"><ele>176.25</ele><time>2026-05-02T06:13:58.942Z</time></trkpt><trkpt lat="42.4579108" lon="14.1138815"><ele>177.5</ele><time>2026-05-02T06:13:59.942Z</time></trkpt><trkpt lat="42.4579167" lon="14.1140729"><ele>178.75</ele><time>2026-05-02T06:14:00.943Z</time></trkpt><trkpt lat="42.4579242" lon="14.1142628"><ele>180.0</ele><time>2026-05-02T06:14:01.942Z</time></trkpt><trkpt lat="42.4579176" lon="14.1144551"><ele>177.0</ele><time>2026-05-02T06:14:02.942Z</time></trkpt><trkpt lat="42.4578914" lon="14.1146462"><ele>174.0</ele><time>2026-05-02T06:14:03.941Z</time></trkpt><trkpt lat="42.4578532" lon="14.1148317"><ele>171.0</ele><time>2026-05-02T06:14:04.942Z</time></trkpt><trkpt lat="42.4578207" lon="14.1150045"><ele>168.0</ele><time>2026-05-02T06:14:05.944Z</time></trkpt><trkpt lat="42.457807" lon="14.1151719"><ele>167.75</ele><time>2026-05-02T06:14:06.942Z</time></trkpt><trkpt lat="42.4578253" lon="14.1153312"><ele>167.5</ele><time>2026-05-02T06:14:07.942Z</time></trkpt><trkpt lat="42.45787" lon="14.1154777"><ele>167.25</ele><time>2026-05-02T06:14:08.942Z</time></trkpt><trkpt lat="42.4579544" lon="14.1156004"><ele>167.0</ele><time>2026-05-02T06:14:09.941Z</time></trkpt><trkpt lat="42.4580514" lon="14.1157161"><ele>167.0</ele><time>2026-05-02T06:14:10.942Z</time></trkpt><trkpt lat="42.4581637" lon="14.1158371"><ele>167.0</ele><time>2026-05-02T06:14:11.942Z</time></trkpt><trkpt lat="42.4582803" lon="14.1159656"><ele>167.0</ele><time>2026-05-02T06:14:12.942Z</time></trkpt><trkpt lat="42.4584013" lon="14.1161029"><ele>167.0</ele><time>2026-05-02T06:14:13.942Z</time></trkpt><trkpt lat="42.4585203" lon="14.1162492"><ele>167.0</ele><time>2026-05-02T06:14:14.941Z</time></trkpt><trkpt lat="42.4586404" lon="14.1163945"><ele>167.0</ele><time>2026-05-02T06:14:15.941Z</time></trkpt><trkpt lat="42.4587651" lon="14.1165321"><ele>165.66666666666666</ele><time>2026-05-02T06:14:16.942Z</time></trkpt><trkpt lat="42.4588954" lon="14.1166596"><ele>164.33333333333334</ele><time>2026-05-02T06:14:17.943Z</time></trkpt><trkpt lat="42.4590302" lon="14.1167684"><ele>163.0</ele><time>2026-05-02T06:14:18.943Z</time></trkpt><trkpt lat="42.4591597" lon="14.1168837"><ele>163.0</ele><time>2026-05-02T06:14:19.942Z</time></trkpt><trkpt lat="42.4592918" lon="14.1169949"><ele>163.0</ele><time>2026-05-02T06:14:20.942Z</time></trkpt><trkpt lat="42.4594233" lon="14.117107"><ele>163.0</ele><time>2026-05-02T06:14:21.943Z</time></trkpt><trkpt lat="42.4595545" lon="14.1172198"><ele>162.33333333333334</ele><time>2026-05-02T06:14:22.943Z</time></trkpt><trkpt lat="42.4596874" lon="14.1173302"><ele>161.66666666666666</ele><time>2026-05-02T06:14:23.943Z</time></trkpt><trkpt lat="42.459824" lon="14.1174446"><ele>161.0</ele><time>2026-05-02T06:14:24.943Z</time></trkpt><trkpt lat="42.4599524" lon="14.1175506"><ele>160.75</ele><time>2026-05-02T06:14:25.942Z</time></trkpt><trkpt lat="42.4600755" lon="14.117648"><ele>160.5</ele><time>2026-05-02T06:14:26.941Z</time></trkpt><trkpt lat="42.4601888" lon="14.11774"><ele>160.25</ele><time>2026-05-02T06:14:27.942Z</time></trkpt><trkpt lat="42.4602873" lon="14.1178339"><ele>160.0</ele><time>2026-05-02T06:14:28.943Z</time></trkpt><trkpt lat="42.4603706" lon="14.1179318"><ele>160.0</ele><time>2026-05-02T06:14:29.941Z</time></trkpt><trkpt lat="42.4604423" lon="14.118038"><ele>160.0</ele><time>2026-05-02T06:14:30.941Z</time></trkpt><trkpt lat="42.4604745" lon="14.118172"><ele>160.0</ele><time>2026-05-02T06:14:31.942Z</time></trkpt><trkpt lat="42.4604972" lon="14.1183098"><ele>160.0</ele><time>2026-05-02T06:14:32.943Z</time></trkpt><trkpt lat="42.4604905" lon="14.1184627"><ele>160.0</ele><time>2026-05-02T06:14:33.942Z</time></trkpt><trkpt lat="42.4604703" lon="14.1186246"><ele>160.0</ele><time>2026-05-02T06:14:34.941Z</time></trkpt><trkpt lat="42.460437" lon="14.1187923"><ele>160.0</ele><time>2026-05-02T06:14:35.943Z</time></trkpt><trkpt lat="42.4603923" lon="14.118953"><ele>160.0</ele><time>2026-05-02T06:14:36.942Z</time></trkpt><trkpt lat="42.4603474" lon="14.1190961"><ele>160.0</ele><time>2026-05-02T06:14:37.942Z</time></trkpt><trkpt lat="42.4603065" lon="14.1192114"><ele>160.0</ele><time>2026-05-02T06:14:38.943Z</time></trkpt><trkpt lat="42.4602701" lon="14.1193099"><ele>160.0</ele><time>2026-05-02T06:14:39.941Z</time></trkpt><trkpt lat="42.4602336" lon="14.1193976"><ele>160.0</ele><time>2026-05-02T06:14:40.942Z</time></trkpt><trkpt lat="42.4601982" lon="14.1194723"><ele>160.0</ele><time>2026-05-02T06:14:41.943Z</time></trkpt><trkpt lat="42.4601105" lon="14.1195874"><ele>160.0</ele><time>2026-05-02T06:14:43.942Z</time></trkpt><trkpt lat="42.4600434" lon="14.119637"><ele>160.0</ele><time>2026-05-02T06:14:44.942Z</time></trkpt><trkpt lat="42.4599827" lon="14.119695"><ele>160.0</ele><time>2026-05-02T06:14:45.942Z</time></trkpt><trkpt lat="42.4599352" lon="14.1197722"><ele>160.0</ele><time>2026-05-02T06:14:46.942Z</time></trkpt><trkpt lat="42.4598924" lon="14.1198617"><ele>160.0</ele><time>2026-05-02T06:14:47.941Z</time></trkpt><trkpt lat="42.459852" lon="14.1199687"><ele>160.0</ele><time>2026-05-02T06:14:48.942Z</time></trkpt><trkpt lat="42.4597931" lon="14.120082"><ele>160.0</ele><time>2026-05-02T06:14:49.942Z</time></trkpt><trkpt lat="42.4597163" lon="14.1201859"><ele>160.0</ele><time>2026-05-02T06:14:50.943Z</time></trkpt><trkpt lat="42.4596258" lon="14.1202892"><ele>160.0</ele><time>2026-05-02T06:14:51.942Z</time></trkpt><trkpt lat="42.4595219" lon="14.1203944"><ele>160.0</ele><time>2026-05-02T06:14:52.942Z</time></trkpt><trkpt lat="42.4594212" lon="14.1204892"><ele>160.0</ele><time>2026-05-02T06:14:53.943Z</time></trkpt><trkpt lat="42.4593286" lon="14.1205785"><ele>160.0</ele><time>2026-05-02T06:14:54.942Z</time></trkpt><trkpt lat="42.4592443" lon="14.1206632"><ele>160.0</ele><time>2026-05-02T06:14:55.942Z</time></trkpt><trkpt lat="42.4591651" lon="14.1207436"><ele>160.0</ele><time>2026-05-02T06:14:56.942Z</time></trkpt><trkpt lat="42.459092" lon="14.1208186"><ele>160.0</ele><time>2026-05-02T06:14:57.941Z</time></trkpt><trkpt lat="42.45903" lon="14.1208883"><ele>160.0</ele><time>2026-05-02T06:14:58.943Z</time></trkpt><trkpt lat="42.4589731" lon="14.1209468"><ele>160.0</ele><time>2026-05-02T06:14:59.942Z</time></trkpt><trkpt lat="42.4589204" lon="14.1210133"><ele>160.0</ele><time>2026-05-02T06:15:01.943Z</time></trkpt><trkpt lat="42.4588418" lon="14.1210166"><ele>160.0</ele><time>2026-05-02T06:15:04.942Z</time></trkpt><trkpt lat="42.45874" lon="14.1209094"><ele>160.0</ele><time>2026-05-02T06:15:06.942Z</time></trkpt><trkpt lat="42.4586812" lon="14.1208416"><ele>160.0</ele><time>2026-05-02T06:15:07.943Z</time></trkpt><trkpt lat="42.4586328" lon="14.1207778"><ele>160.0</ele><time>2026-05-02T06:15:08.942Z</time></trkpt><trkpt lat="42.4585797" lon="14.1207166"><ele>160.0</ele><time>2026-05-02T06:15:11.942Z</time></trkpt><trkpt lat="42.4585092" lon="14.1206919"><ele>158.66666666666669</ele><time>2026-05-02T06:15:42.943Z</time></trkpt><trkpt lat="42.4584513" lon="14.1205956"><ele>157.33333333333334</ele><time>2026-05-02T06:15:49.941Z</time></trkpt><trkpt lat="42.4583857" lon="14.1205237"><ele>156.0</ele><time>2026-05-02T06:15:51.942Z</time></trkpt><trkpt lat="42.4583196" lon="14.1204553"><ele>154.66666666666666</ele><time>2026-05-02T06:15:53.942Z</time></trkpt><trkpt lat="42.4582613" lon="14.1203866"><ele>153.33333333333331</ele><time>2026-05-02T06:16:20.942Z</time></trkpt><trkpt lat="42.458208" lon="14.1203292"><ele>152.0</ele><time>2026-05-02T06:16:22.943Z</time></trkpt><trkpt lat="42.4581416" lon="14.1202575"><ele>152.0</ele><time>2026-05-02T06:16:24.943Z</time></trkpt><trkpt lat="42.4580841" lon="14.1201876"><ele>152.0</ele><time>2026-05-02T06:16:26.943Z</time></trkpt><trkpt lat="42.4580197" lon="14.1201004"><ele>152.0</ele><time>2026-05-02T06:16:28.942Z</time></trkpt><trkpt lat="42.4579381" lon="14.1199758"><ele>152.0</ele><time>2026-05-02T06:16:30.942Z</time></trkpt><trkpt lat="42.4578942" lon="14.1199031"><ele>152.0</ele><time>2026-05-02T06:16:31.941Z</time></trkpt><trkpt lat="42.4578487" lon="14.1198308"><ele>152.0</ele><time>2026-05-02T06:16:32.941Z</time></trkpt><trkpt lat="42.457797" lon="14.1197624"><ele>148.0</ele><time>2026-05-02T06:16:33.943Z</time></trkpt><trkpt lat="42.4577467" lon="14.1196944"><ele>144.0</ele><time>2026-05-02T06:16:34.941Z</time></trkpt><trkpt lat="42.457665" lon="14.1195743"><ele>140.0</ele><time>2026-05-02T06:16:36.942Z</time></trkpt><trkpt lat="42.4575948" lon="14.1194793"><ele>136.0</ele><time>2026-05-02T06:16:38.942Z</time></trkpt><trkpt lat="42.4575292" lon="14.119391"><ele>132.0</ele><time>2026-05-02T06:16:40.941Z</time></trkpt><trkpt lat="42.4574499" lon="14.1193187"><ele>132.0</ele><time>2026-05-02T06:16:42.942Z</time></trkpt><trkpt lat="42.4573716" lon="14.1192796"><ele>132.0</ele><time>2026-05-02T06:16:44.941Z</time></trkpt><trkpt lat="42.4572755" lon="14.1192587"><ele>132.0</ele><time>2026-05-02T06:16:46.942Z</time></trkpt><trkpt lat="42.4571684" lon="14.1192539"><ele>132.0</ele><time>2026-05-02T06:16:48.943Z</time></trkpt><trkpt lat="42.4570622" lon="14.1192479"><ele>132.0</ele><time>2026-05-02T06:16:50.942Z</time></trkpt><trkpt lat="42.4569392" lon="14.1192542"><ele>130.66666666666666</ele><time>2026-05-02T06:16:52.941Z</time></trkpt><trkpt lat="42.4568745" lon="14.1192655"><ele>129.33333333333334</ele><time>2026-05-02T06:16:53.942Z</time></trkpt><trkpt lat="42.4568111" lon="14.1192705"><ele>128.0</ele><time>2026-05-02T06:16:54.943Z</time></trkpt><trkpt lat="42.456697" lon="14.1193029"><ele>126.66666666666667</ele><time>2026-05-02T06:16:56.943Z</time></trkpt><trkpt lat="42.456578" lon="14.1193268"><ele>125.33333333333334</ele><time>2026-05-02T06:16:58.943Z</time></trkpt><trkpt lat="42.4565004" lon="14.1193163"><ele>124.0</ele><time>2026-05-02T06:17:00.941Z</time></trkpt><trkpt lat="42.4564211" lon="14.1193136"><ele>124.0</ele><time>2026-05-02T06:17:02.943Z</time></trkpt><trkpt lat="42.4563565" lon="14.11932"><ele>124.00000000000001</ele><time>2026-05-02T06:17:04.942Z</time></trkpt><trkpt lat="42.4562897" lon="14.1193224"><ele>124.0</ele><time>2026-05-02T06:17:07.942Z</time></trkpt><trkpt lat="42.4562162" lon="14.1193287"><ele>124.0</ele><time>2026-05-02T06:17:10.943Z</time></trkpt><trkpt lat="42.456151" lon="14.1193346"><ele>124.00000000000001</ele><time>2026-05-02T06:17:13.942Z</time></trkpt><trkpt lat="42.4560732" lon="14.1193126"><ele>124.0</ele><time>2026-05-02T06:17:17.943Z</time></trkpt><trkpt lat="42.4559919" lon="14.1193116"><ele>124.0</ele><time>2026-05-02T06:17:20.942Z</time></trkpt><trkpt lat="42.4559115" lon="14.119287"><ele>123.16666666666667</ele><time>2026-05-02T06:17:23.941Z</time></trkpt><trkpt lat="42.4558451" lon="14.1192553"><ele>122.33333333333334</ele><time>2026-05-02T06:17:25.942Z</time></trkpt><trkpt lat="42.4557566" lon="14.1192208"><ele>121.5</ele><time>2026-05-02T06:17:28.942Z</time></trkpt><trkpt lat="42.4556681" lon="14.1191972"><ele>120.66666666666666</ele><time>2026-05-02T06:17:31.941Z</time></trkpt><trkpt lat="42.4555862" lon="14.1191993"><ele>119.83333333333333</ele><time>2026-05-02T06:17:34.944Z</time></trkpt><trkpt lat="42.4555244" lon="14.1192182"><ele>119.0</ele><time>2026-05-02T06:17:39.944Z</time></trkpt><trkpt lat="42.455448" lon="14.1192034"><ele>118.16666666666666</ele><time>2026-05-02T06:17:44.942Z</time></trkpt><trkpt lat="42.455369" lon="14.1191975"><ele>117.33333333333333</ele><time>2026-05-02T06:17:49.943Z</time></trkpt><trkpt lat="42.4552822" lon="14.1192183"><ele>116.5</ele><time>2026-05-02T06:17:53.942Z</time></trkpt><trkpt lat="42.4552145" lon="14.1192264"><ele>115.66666666666666</ele><time>2026-05-02T06:17:58.943Z</time></trkpt><trkpt lat="42.4551239" lon="14.1192074"><ele>114.83333333333333</ele><time>2026-05-02T06:18:02.942Z</time></trkpt><trkpt lat="42.455038" lon="14.1192017"><ele>114.0</ele><time>2026-05-02T06:18:05.942Z</time></trkpt><trkpt lat="42.4549733" lon="14.1191942"><ele>114.0</ele><time>2026-05-02T06:18:09.944Z</time></trkpt><trkpt lat="42.4549061" lon="14.119176"><ele>114.0</ele><time>2026-05-02T06:18:14.942Z</time></trkpt><trkpt lat="42.4548365" lon="14.1191362"><ele>114.0</ele><time>2026-05-02T06:18:18.942Z</time></trkpt><trkpt lat="42.4547967" lon="14.1190397"><ele>114.0</ele><time>2026-05-02T06:18:23.942Z</time></trkpt><trkpt lat="42.4548061" lon="14.1189502"><ele>114.0</ele><time>2026-05-02T06:18:26.943Z</time></trkpt><trkpt lat="42.4548197" lon="14.1188668"><ele>114.0</ele><time>2026-05-02T06:18:28.942Z</time></trkpt><trkpt lat="42.4548405" lon="14.1187384"><ele>114.4</ele><time>2026-05-02T06:18:30.941Z</time></trkpt><trkpt lat="42.4548692" lon="14.1185915"><ele>114.80000000000001</ele><time>2026-05-02T06:18:32.942Z</time></trkpt><trkpt lat="42.4548762" lon="14.1184547"><ele>115.19999999999999</ele><time>2026-05-02T06:18:34.943Z</time></trkpt><trkpt lat="42.4548705" lon="14.1183411"><ele>115.6</ele><time>2026-05-02T06:18:36.941Z</time></trkpt><trkpt lat="42.4548823" lon="14.1182274"><ele>116.0</ele><time>2026-05-02T06:18:38.942Z</time></trkpt><trkpt lat="42.454909" lon="14.1180972"><ele>115.99999999999999</ele><time>2026-05-02T06:18:40.942Z</time></trkpt><trkpt lat="42.4549472" lon="14.1179274"><ele>116.0</ele><time>2026-05-02T06:18:42.941Z</time></trkpt><trkpt lat="42.454962" lon="14.1178201"><ele>116.0</ele><time>2026-05-02T06:18:43.941Z</time></trkpt><trkpt lat="42.4549743" lon="14.1177193"><ele>116.0</ele><time>2026-05-02T06:18:44.941Z</time></trkpt><trkpt lat="42.4549792" lon="14.11762"><ele>115.99999999999999</ele><time>2026-05-02T06:18:45.941Z</time></trkpt><trkpt lat="42.4549876" lon="14.1175286"><ele>116.0</ele><time>2026-05-02T06:18:46.943Z</time></trkpt><trkpt lat="42.45499" lon="14.1174392"><ele>117.16666666666666</ele><time>2026-05-02T06:18:47.943Z</time></trkpt><trkpt lat="42.4549941" lon="14.1173266"><ele>118.33333333333333</ele><time>2026-05-02T06:18:49.942Z</time></trkpt><trkpt lat="42.4549865" lon="14.117229"><ele>119.5</ele><time>2026-05-02T06:18:52.943Z</time></trkpt><trkpt lat="42.454899" lon="14.1171879"><ele>120.66666666666666</ele><time>2026-05-02T06:18:55.942Z</time></trkpt><trkpt lat="42.4547799" lon="14.117165"><ele>121.83333333333333</ele><time>2026-05-02T06:18:57.941Z</time></trkpt><trkpt lat="42.4547159" lon="14.1171526"><ele>123.0</ele><time>2026-05-02T06:18:58.942Z</time></trkpt><trkpt lat="42.4545917" lon="14.1171138"><ele>123.2857142857143</ele><time>2026-05-02T06:19:00.941Z</time></trkpt><trkpt lat="42.4545228" lon="14.1170991"><ele>123.57142857142858</ele><time>2026-05-02T06:19:01.941Z</time></trkpt><trkpt lat="42.4544601" lon="14.1170795"><ele>123.85714285714286</ele><time>2026-05-02T06:19:02.942Z</time></trkpt><trkpt lat="42.4543978" lon="14.1170646"><ele>124.14285714285715</ele><time>2026-05-02T06:19:03.941Z</time></trkpt><trkpt lat="42.4543318" lon="14.117049"><ele>124.42857142857144</ele><time>2026-05-02T06:19:04.942Z</time></trkpt><trkpt lat="42.4542592" lon="14.1170335"><ele>124.71428571428571</ele><time>2026-05-02T06:19:05.943Z</time></trkpt><trkpt lat="42.4541859" lon="14.1170126"><ele>125.0</ele><time>2026-05-02T06:19:06.943Z</time></trkpt><trkpt lat="42.4541054" lon="14.1169949"><ele>125.0</ele><time>2026-05-02T06:19:07.942Z</time></trkpt><trkpt lat="42.4540243" lon="14.1169808"><ele>125.0</ele><time>2026-05-02T06:19:08.943Z</time></trkpt><trkpt lat="42.4539517" lon="14.1169743"><ele>125.0</ele><time>2026-05-02T06:19:09.942Z</time></trkpt><trkpt lat="42.4538265" lon="14.1169486"><ele>125.0</ele><time>2026-05-02T06:19:11.943Z</time></trkpt><trkpt lat="42.4537137" lon="14.1169482"><ele>125.0</ele><time>2026-05-02T06:19:13.941Z</time></trkpt><trkpt lat="42.4536079" lon="14.1169701"><ele>125.28571428571428</ele><time>2026-05-02T06:19:15.943Z</time></trkpt><trkpt lat="42.4535569" lon="14.1170247"><ele>125.57142857142858</ele><time>2026-05-02T06:19:16.942Z</time></trkpt><trkpt lat="42.4534952" lon="14.1170724"><ele>125.85714285714286</ele><time>2026-05-02T06:19:17.943Z</time></trkpt><trkpt lat="42.4534293" lon="14.1171436"><ele>126.14285714285714</ele><time>2026-05-02T06:19:18.942Z</time></trkpt><trkpt lat="42.4533634" lon="14.1172097"><ele>126.42857142857142</ele><time>2026-05-02T06:19:19.942Z</time></trkpt><trkpt lat="42.4533011" lon="14.1172609"><ele>126.71428571428572</ele><time>2026-05-02T06:19:20.944Z</time></trkpt><trkpt lat="42.4532362" lon="14.1173041"><ele>127.0</ele><time>2026-05-02T06:19:21.942Z</time></trkpt><trkpt lat="42.4531704" lon="14.1173347"><ele>127.00000000000001</ele><time>2026-05-02T06:19:22.942Z</time></trkpt><trkpt lat="42.4530448" lon="14.1173649"><ele>127.0</ele><time>2026-05-02T06:19:24.942Z</time></trkpt><trkpt lat="42.4529697" lon="14.1173799"><ele>127.0</ele><time>2026-05-02T06:19:25.943Z</time></trkpt><trkpt lat="42.4528934" lon="14.1173912"><ele>127.0</ele><time>2026-05-02T06:19:26.943Z</time></trkpt><trkpt lat="42.452819" lon="14.1173948"><ele>127.00000000000001</ele><time>2026-05-02T06:19:27.942Z</time></trkpt><trkpt lat="42.4527541" lon="14.1173879"><ele>127.0</ele><time>2026-05-02T06:19:28.942Z</time></trkpt><trkpt lat="42.4526452" lon="14.1173602"><ele>127.50000000000001</ele><time>2026-05-02T06:19:30.943Z</time></trkpt><trkpt lat="42.4525864" lon="14.1172782"><ele>128.0</ele><time>2026-05-02T06:19:32.941Z</time></trkpt><trkpt lat="42.4525387" lon="14.1171455"><ele>128.5</ele><time>2026-05-02T06:19:34.942Z</time></trkpt><trkpt lat="42.4525008" lon="14.1170576"><ele>129.0</ele><time>2026-05-02T06:19:35.944Z</time></trkpt><trkpt lat="42.4524549" lon="14.1169561"><ele>129.5</ele><time>2026-05-02T06:19:36.942Z</time></trkpt><trkpt lat="42.4524081" lon="14.116849"><ele>130.0</ele><time>2026-05-02T06:19:37.942Z</time></trkpt><trkpt lat="42.4523611" lon="14.116745"><ele>130.0</ele><time>2026-05-02T06:19:38.943Z</time></trkpt><trkpt lat="42.4523114" lon="14.1166538"><ele>130.0</ele><time>2026-05-02T06:19:39.942Z</time></trkpt><trkpt lat="42.4522587" lon="14.11658"><ele>130.0</ele><time>2026-05-02T06:19:40.942Z</time></trkpt><trkpt lat="42.4521945" lon="14.1165058"><ele>130.0</ele><time>2026-05-02T06:19:41.943Z</time></trkpt><trkpt lat="42.4521295" lon="14.1164433"><ele>130.0</ele><time>2026-05-02T06:19:42.941Z</time></trkpt><trkpt lat="42.4520663" lon="14.116401"><ele>130.0</ele><time>2026-05-02T06:19:43.943Z</time></trkpt><trkpt lat="42.4519945" lon="14.116374"><ele>131.16666666666669</ele><time>2026-05-02T06:19:44.944Z</time></trkpt><trkpt lat="42.4519181" lon="14.11636"><ele>132.33333333333334</ele><time>2026-05-02T06:19:45.942Z</time></trkpt><trkpt lat="42.4518296" lon="14.11635"><ele>133.5</ele><time>2026-05-02T06:19:46.942Z</time></trkpt><trkpt lat="42.451736" lon="14.1163523"><ele>134.66666666666666</ele><time>2026-05-02T06:19:47.941Z</time></trkpt><trkpt lat="42.4516618" lon="14.1163571"><ele>135.83333333333331</ele><time>2026-05-02T06:19:48.942Z</time></trkpt><trkpt lat="42.4515905" lon="14.1163624"><ele>137.0</ele><time>2026-05-02T06:19:49.942Z</time></trkpt><trkpt lat="42.4515263" lon="14.1163646"><ele>137.0</ele><time>2026-05-02T06:19:50.942Z</time></trkpt><trkpt lat="42.4514007" lon="14.1163567"><ele>137.0</ele><time>2026-05-02T06:19:52.942Z</time></trkpt><trkpt lat="42.4513386" lon="14.1163368"><ele>137.0</ele><time>2026-05-02T06:19:53.942Z</time></trkpt><trkpt lat="42.4512323" lon="14.1162704"><ele>137.0</ele><time>2026-05-02T06:19:55.942Z</time></trkpt><trkpt lat="42.4511697" lon="14.1162167"><ele>137.0</ele><time>2026-05-02T06:19:57.942Z</time></trkpt><trkpt lat="42.4511096" lon="14.1161798"><ele>137.0</ele><time>2026-05-02T06:20:00.941Z</time></trkpt><trkpt lat="42.4510333" lon="14.1161833"><ele>133.2</ele><time>2026-05-02T06:20:02.943Z</time></trkpt><trkpt lat="42.4509395" lon="14.1162214"><ele>129.39999999999998</ele><time>2026-05-02T06:20:04.942Z</time></trkpt><trkpt lat="42.450841" lon="14.1162762"><ele>125.60000000000001</ele><time>2026-05-02T06:20:06.944Z</time></trkpt><trkpt lat="42.4507364" lon="14.116336"><ele>121.80000000000001</ele><time>2026-05-02T06:20:08.942Z</time></trkpt><trkpt lat="42.4506408" lon="14.1163984"><ele>118.0</ele><time>2026-05-02T06:20:10.943Z</time></trkpt><trkpt lat="42.4505495" lon="14.1164716"><ele>118.0</ele><time>2026-05-02T06:20:12.942Z</time></trkpt><trkpt lat="42.4504693" lon="14.1165486"><ele>118.00000000000001</ele><time>2026-05-02T06:20:14.943Z</time></trkpt><trkpt lat="42.4503952" lon="14.1166207"><ele>118.00000000000001</ele><time>2026-05-02T06:20:16.941Z</time></trkpt><trkpt lat="42.4503047" lon="14.1167032"><ele>118.0</ele><time>2026-05-02T06:20:18.942Z</time></trkpt><trkpt lat="42.4502149" lon="14.1167905"><ele>118.0</ele><time>2026-05-02T06:20:20.942Z</time></trkpt><trkpt lat="42.4501647" lon="14.1168422"><ele>115.80000000000001</ele><time>2026-05-02T06:20:21.942Z</time></trkpt><trkpt lat="42.4500684" lon="14.1169311"><ele>113.60000000000001</ele><time>2026-05-02T06:20:23.941Z</time></trkpt><trkpt lat="42.4499755" lon="14.1170046"><ele>111.39999999999999</ele><time>2026-05-02T06:20:25.941Z</time></trkpt><trkpt lat="42.4498789" lon="14.1170647"><ele>109.19999999999999</ele><time>2026-05-02T06:20:27.942Z</time></trkpt><trkpt lat="42.4498213" lon="14.1170993"><ele>107.0</ele><time>2026-05-02T06:20:28.942Z</time></trkpt><trkpt lat="42.4497621" lon="14.117132"><ele>106.99999999999999</ele><time>2026-05-02T06:20:29.943Z</time></trkpt><trkpt lat="42.4496951" lon="14.1171639"><ele>107.0</ele><time>2026-05-02T06:20:30.942Z</time></trkpt><trkpt lat="42.449629" lon="14.1171896"><ele>107.0</ele><time>2026-05-02T06:20:31.943Z</time></trkpt><trkpt lat="42.4495634" lon="14.1172068"><ele>107.0</ele><time>2026-05-02T06:20:32.941Z</time></trkpt><trkpt lat="42.4494984" lon="14.1172172"><ele>106.99999999999999</ele><time>2026-05-02T06:20:33.941Z</time></trkpt><trkpt lat="42.4493798" lon="14.1172143"><ele>107.0</ele><time>2026-05-02T06:20:35.941Z</time></trkpt><trkpt lat="42.4492859" lon="14.1171806"><ele>105.33333333333333</ele><time>2026-05-02T06:20:37.941Z</time></trkpt><trkpt lat="42.4492123" lon="14.117155"><ele>103.66666666666666</ele><time>2026-05-02T06:20:39.943Z</time></trkpt><trkpt lat="42.4491473" lon="14.1171338"><ele>102.0</ele><time>2026-05-02T06:20:41.944Z</time></trkpt><trkpt lat="42.4490666" lon="14.1171137"><ele>100.33333333333334</ele><time>2026-05-02T06:20:52.941Z</time></trkpt><trkpt lat="42.449" lon="14.1171047"><ele>98.66666666666667</ele><time>2026-05-02T06:20:55.942Z</time></trkpt><trkpt lat="42.448902" lon="14.1170827"><ele>97.0</ele><time>2026-05-02T06:20:57.941Z</time></trkpt><trkpt lat="42.4488398" lon="14.1170657"><ele>96.66666666666667</ele><time>2026-05-02T06:20:58.943Z</time></trkpt><trkpt lat="42.4487554" lon="14.1170562"><ele>96.33333333333334</ele><time>2026-05-02T06:21:00.942Z</time></trkpt><trkpt lat="42.4486816" lon="14.1170663"><ele>96.0</ele><time>2026-05-02T06:21:03.942Z</time></trkpt><trkpt lat="42.4486046" lon="14.1170846"><ele>95.66666666666667</ele><time>2026-05-02T06:21:06.942Z</time></trkpt><trkpt lat="42.448544" lon="14.1171641"><ele>95.33333333333334</ele><time>2026-05-02T06:21:10.941Z</time></trkpt><trkpt lat="42.4485235" lon="14.1172828"><ele>95.0</ele><time>2026-05-02T06:21:12.943Z</time></trkpt><trkpt lat="42.4485072" lon="14.1173714"><ele>94.0</ele><time>2026-05-02T06:21:14.942Z</time></trkpt><trkpt lat="42.4484884" lon="14.1174688"><ele>93.0</ele><time>2026-05-02T06:21:17.941Z</time></trkpt><trkpt lat="42.4484913" lon="14.1175836"><ele>92.0</ele><time>2026-05-02T06:21:21.943Z</time></trkpt><trkpt lat="42.4485041" lon="14.1177006"><ele>91.0</ele><time>2026-05-02T06:21:24.942Z</time></trkpt><trkpt lat="42.4485218" lon="14.1177982"><ele>90.0</ele><time>2026-05-02T06:21:27.942Z</time></trkpt><trkpt lat="42.4485426" lon="14.1178893"><ele>89.0</ele><time>2026-05-02T06:21:30.942Z</time></trkpt><trkpt lat="42.4485544" lon="14.1179934"><ele>89.0</ele><time>2026-05-02T06:21:33.943Z</time></trkpt><trkpt lat="42.4485417" lon="14.1181193"><ele>89.0</ele><time>2026-05-02T06:21:36.942Z</time></trkpt><trkpt lat="42.448532" lon="14.1182208"><ele>89.0</ele><time>2026-05-02T06:21:38.944Z</time></trkpt><trkpt lat="42.448547" lon="14.1183322"><ele>89.0</ele><time>2026-05-02T06:21:40.943Z</time></trkpt><trkpt lat="42.4485661" lon="14.1184755"><ele>89.0</ele><time>2026-05-02T06:21:42.942Z</time></trkpt><trkpt lat="42.4485773" lon="14.1185624"><ele>89.0</ele><time>2026-05-02T06:21:43.942Z</time></trkpt><trkpt lat="42.4485944" lon="14.1187124"><ele>89.0</ele><time>2026-05-02T06:21:45.941Z</time></trkpt><trkpt lat="42.4486096" lon="14.1188722"><ele>89.0</ele><time>2026-05-02T06:21:47.942Z</time></trkpt><trkpt lat="42.448622" lon="14.1190071"><ele>89.0</ele><time>2026-05-02T06:21:49.943Z</time></trkpt><trkpt lat="42.4486267" lon="14.1191112"><ele>89.0</ele><time>2026-05-02T06:21:51.943Z</time></trkpt><trkpt lat="42.448636" lon="14.1192079"><ele>89.0</ele><time>2026-05-02T06:22:15.941Z</time></trkpt><trkpt lat="42.4486408" lon="14.119335"><ele>90.16666666666667</ele><time>2026-05-02T06:22:18.942Z</time></trkpt><trkpt lat="42.44864" lon="14.1194336"><ele>91.33333333333334</ele><time>2026-05-02T06:22:21.942Z</time></trkpt><trkpt lat="42.4486411" lon="14.1195326"><ele>92.5</ele><time>2026-05-02T06:22:43.942Z</time></trkpt><trkpt lat="42.4486375" lon="14.119621"><ele>93.66666666666667</ele><time>2026-05-02T06:24:30.942Z</time></trkpt><trkpt lat="42.4486406" lon="14.1197577"><ele>94.83333333333333</ele><time>2026-05-02T06:24:33.942Z</time></trkpt><trkpt lat="42.4486429" lon="14.1198558"><ele>96.0</ele><time>2026-05-02T06:24:36.942Z</time></trkpt><trkpt lat="42.4486414" lon="14.1199678"><ele>97.42857142857142</ele><time>2026-05-02T06:24:40.942Z</time></trkpt><trkpt lat="42.4486378" lon="14.1200784"><ele>98.85714285714286</ele><time>2026-05-02T06:24:44.941Z</time></trkpt><trkpt lat="42.4486391" lon="14.1201724"><ele>100.28571428571428</ele><time>2026-05-02T06:24:47.942Z</time></trkpt><trkpt lat="42.4486477" lon="14.1202694"><ele>101.71428571428571</ele><time>2026-05-02T06:24:58.942Z</time></trkpt><trkpt lat="42.4486512" lon="14.1203557"><ele>103.14285714285714</ele><time>2026-05-02T06:25:01.943Z</time></trkpt><trkpt lat="42.4486501" lon="14.1204513"><ele>104.57142857142857</ele><time>2026-05-02T06:25:05.942Z</time></trkpt><trkpt lat="42.4486412" lon="14.1205663"><ele>106.0</ele><time>2026-05-02T06:25:08.943Z</time></trkpt><trkpt lat="42.4486364" lon="14.1206596"><ele>107.71428571428572</ele><time>2026-05-02T06:25:11.942Z</time></trkpt><trkpt lat="42.4486363" lon="14.1207458"><ele>109.42857142857142</ele><time>2026-05-02T06:25:13.941Z</time></trkpt><trkpt lat="42.4486401" lon="14.1208392"><ele>111.14285714285714</ele><time>2026-05-02T06:25:15.943Z</time></trkpt><trkpt lat="42.4486526" lon="14.1209543"><ele>112.85714285714286</ele><time>2026-05-02T06:25:17.942Z</time></trkpt><trkpt lat="42.4486645" lon="14.1210531"><ele>114.57142857142858</ele><time>2026-05-02T06:25:19.941Z</time></trkpt><trkpt lat="42.4486731" lon="14.1211501"><ele>116.28571428571428</ele><time>2026-05-02T06:25:21.942Z</time></trkpt><trkpt lat="42.4486763" lon="14.1212619"><ele>118.0</ele><time>2026-05-02T06:25:23.942Z</time></trkpt><trkpt lat="42.4486822" lon="14.1213625"><ele>118.0</ele><time>2026-05-02T06:25:25.942Z</time></trkpt><trkpt lat="42.4486827" lon="14.1214741"><ele>118.00000000000001</ele><time>2026-05-02T06:25:27.943Z</time></trkpt><trkpt lat="42.448689" lon="14.1216291"><ele>118.00000000000001</ele><time>2026-05-02T06:25:29.942Z</time></trkpt><trkpt lat="42.4487097" lon="14.1217936"><ele>118.0</ele><time>2026-05-02T06:25:31.942Z</time></trkpt><trkpt lat="42.4487089" lon="14.12189"><ele>118.0</ele><time>2026-05-02T06:25:32.941Z</time></trkpt><trkpt lat="42.4487312" lon="14.1219987"><ele>119.60000000000001</ele><time>2026-05-02T06:25:33.941Z</time></trkpt><trkpt lat="42.4487523" lon="14.1221051"><ele>121.20000000000002</ele><time>2026-05-02T06:25:34.941Z</time></trkpt><trkpt lat="42.4487754" lon="14.1221966"><ele>122.8</ele><time>2026-05-02T06:25:35.941Z</time></trkpt><trkpt lat="42.4488227" lon="14.1223452"><ele>124.4</ele><time>2026-05-02T06:25:37.942Z</time></trkpt><trkpt lat="42.448874" lon="14.1224869"><ele>126.0</ele><time>2026-05-02T06:25:39.943Z</time></trkpt><trkpt lat="42.44889" lon="14.1225822"><ele>126.8</ele><time>2026-05-02T06:25:41.942Z</time></trkpt><trkpt lat="42.448822" lon="14.1225996"><ele>127.6</ele><time>2026-05-02T06:25:48.942Z</time></trkpt><trkpt lat="42.4487549" lon="14.1225807"><ele>128.4</ele><time>2026-05-02T06:25:50.942Z</time></trkpt><trkpt lat="42.4486629" lon="14.1225688"><ele>129.2</ele><time>2026-05-02T06:26:02.943Z</time></trkpt><trkpt lat="42.4485771" lon="14.1225387"><ele>130.0</ele><time>2026-05-02T06:26:04.941Z</time></trkpt><trkpt lat="42.4484551" lon="14.1224635"><ele>130.0</ele><time>2026-05-02T06:26:06.942Z</time></trkpt><trkpt lat="42.4483842" lon="14.1224227"><ele>130.0</ele><time>2026-05-02T06:26:07.942Z</time></trkpt><trkpt lat="42.4483165" lon="14.1223771"><ele>130.0</ele><time>2026-05-02T06:26:08.941Z</time></trkpt><trkpt lat="42.448255" lon="14.1223355"><ele>130.0</ele><time>2026-05-02T06:26:09.942Z</time></trkpt><trkpt lat="42.4481884" lon="14.1222882"><ele>130.0</ele><time>2026-05-02T06:26:10.942Z</time></trkpt><trkpt lat="42.4481152" lon="14.122242"><ele>130.0</ele><time>2026-05-02T06:26:11.942Z</time></trkpt><trkpt lat="42.4480396" lon="14.1221935"><ele>129.5</ele><time>2026-05-02T06:26:12.942Z</time></trkpt><trkpt lat="42.4479689" lon="14.1221434"><ele>129.0</ele><time>2026-05-02T06:26:13.942Z</time></trkpt><trkpt lat="42.4478996" lon="14.1220962"><ele>128.5</ele><time>2026-05-02T06:26:14.942Z</time></trkpt><trkpt lat="42.4478286" lon="14.1220484"><ele>128.0</ele><time>2026-05-02T06:26:15.943Z</time></trkpt><trkpt lat="42.4477608" lon="14.1219956"><ele>127.50000000000001</ele><time>2026-05-02T06:26:16.942Z</time></trkpt><trkpt lat="42.4476963" lon="14.1219491"><ele>127.0</ele><time>2026-05-02T06:26:17.941Z</time></trkpt><trkpt lat="42.4476374" lon="14.1219059"><ele>128.33333333333334</ele><time>2026-05-02T06:26:18.941Z</time></trkpt><trkpt lat="42.4475765" lon="14.121867"><ele>129.66666666666669</ele><time>2026-05-02T06:26:19.942Z</time></trkpt><trkpt lat="42.4475059" lon="14.1218284"><ele>131.0</ele><time>2026-05-02T06:26:20.943Z</time></trkpt><trkpt lat="42.4474252" lon="14.1217948"><ele>132.33333333333334</ele><time>2026-05-02T06:26:21.942Z</time></trkpt><trkpt lat="42.4473372" lon="14.1217753"><ele>133.66666666666666</ele><time>2026-05-02T06:26:22.941Z</time></trkpt><trkpt lat="42.4472418" lon="14.1217629"><ele>135.0</ele><time>2026-05-02T06:26:23.942Z</time></trkpt><trkpt lat="42.4471383" lon="14.1217474"><ele>134.25</ele><time>2026-05-02T06:26:24.942Z</time></trkpt><trkpt lat="42.4470303" lon="14.1217358"><ele>133.5</ele><time>2026-05-02T06:26:25.942Z</time></trkpt><trkpt lat="42.4469173" lon="14.1217277"><ele>132.75</ele><time>2026-05-02T06:26:26.941Z</time></trkpt><trkpt lat="42.4468008" lon="14.1217063"><ele>132.0</ele><time>2026-05-02T06:26:27.941Z</time></trkpt><trkpt lat="42.4466839" lon="14.1217043"><ele>132.0</ele><time>2026-05-02T06:26:28.942Z</time></trkpt><trkpt lat="42.4465669" lon="14.1217101"><ele>132.0</ele><time>2026-05-02T06:26:29.94Z</time></trkpt><trkpt lat="42.4464622" lon="14.1217473"><ele>132.0</ele><time>2026-05-02T06:26:30.942Z</time></trkpt><trkpt lat="42.4463534" lon="14.1217836"><ele>132.0</ele><time>2026-05-02T06:26:31.941Z</time></trkpt><trkpt lat="42.4462443" lon="14.1218198"><ele>131.2</ele><time>2026-05-02T06:26:32.941Z</time></trkpt><trkpt lat="42.4461364" lon="14.1218423"><ele>130.39999999999998</ele><time>2026-05-02T06:26:33.943Z</time></trkpt><trkpt lat="42.4460311" lon="14.121861"><ele>129.60000000000002</ele><time>2026-05-02T06:26:34.942Z</time></trkpt><trkpt lat="42.4459438" lon="14.121887"><ele>128.8</ele><time>2026-05-02T06:26:35.942Z</time></trkpt><trkpt lat="42.4458661" lon="14.1219119"><ele>128.0</ele><time>2026-05-02T06:26:36.942Z</time></trkpt><trkpt lat="42.4457877" lon="14.121945"><ele>128.0</ele><time>2026-05-02T06:26:37.943Z</time></trkpt><trkpt lat="42.4457281" lon="14.1219964"><ele>128.0</ele><time>2026-05-02T06:26:38.942Z</time></trkpt><trkpt lat="42.4456543" lon="14.1220669"><ele>128.0</ele><time>2026-05-02T06:26:39.941Z</time></trkpt><trkpt lat="42.4455837" lon="14.1221524"><ele>128.0</ele><time>2026-05-02T06:26:40.943Z</time></trkpt><trkpt lat="42.445509" lon="14.1222478"><ele>128.0</ele><time>2026-05-02T06:26:41.94Z</time></trkpt><trkpt lat="42.445426" lon="14.1223459"><ele>127.5</ele><time>2026-05-02T06:26:42.942Z</time></trkpt><trkpt lat="42.4453318" lon="14.1224488"><ele>127.0</ele><time>2026-05-02T06:26:43.941Z</time></trkpt><trkpt lat="42.445236" lon="14.1225367"><ele>126.5</ele><time>2026-05-02T06:26:44.943Z</time></trkpt><trkpt lat="42.4451373" lon="14.1226054"><ele>126.0</ele><time>2026-05-02T06:26:45.942Z</time></trkpt><trkpt lat="42.4450318" lon="14.122664"><ele>126.0</ele><time>2026-05-02T06:26:46.942Z</time></trkpt><trkpt lat="42.4449318" lon="14.1227175"><ele>126.0</ele><time>2026-05-02T06:26:47.942Z</time></trkpt><trkpt lat="42.4448397" lon="14.1227789"><ele>126.0</ele><time>2026-05-02T06:26:48.942Z</time></trkpt><trkpt lat="42.4447555" lon="14.1228487"><ele>126.0</ele><time>2026-05-02T06:26:49.942Z</time></trkpt><trkpt lat="42.4446732" lon="14.1229424"><ele>126.0</ele><time>2026-05-02T06:26:50.943Z</time></trkpt><trkpt lat="42.444592" lon="14.1230503"><ele>124.6</ele><time>2026-05-02T06:26:51.943Z</time></trkpt><trkpt lat="42.444513" lon="14.123159"><ele>123.19999999999999</ele><time>2026-05-02T06:26:52.942Z</time></trkpt><trkpt lat="42.4444301" lon="14.1232585"><ele>121.80000000000001</ele><time>2026-05-02T06:26:53.942Z</time></trkpt><trkpt lat="42.4443438" lon="14.1233453"><ele>120.4</ele><time>2026-05-02T06:26:54.943Z</time></trkpt><trkpt lat="42.444254" lon="14.1234117"><ele>119.0</ele><time>2026-05-02T06:26:55.942Z</time></trkpt><trkpt lat="42.444161" lon="14.1234437"><ele>119.0</ele><time>2026-05-02T06:26:56.942Z</time></trkpt><trkpt lat="42.4440655" lon="14.1234415"><ele>119.0</ele><time>2026-05-02T06:26:57.941Z</time></trkpt><trkpt lat="42.4439574" lon="14.123428"><ele>119.0</ele><time>2026-05-02T06:26:58.942Z</time></trkpt><trkpt lat="42.4438473" lon="14.1234202"><ele>119.0</ele><time>2026-05-02T06:26:59.942Z</time></trkpt><trkpt lat="42.443738" lon="14.1234436"><ele>119.0</ele><time>2026-05-02T06:27:00.942Z</time></trkpt><trkpt lat="42.4436289" lon="14.1234798"><ele>117.0</ele><time>2026-05-02T06:27:01.942Z</time></trkpt><trkpt lat="42.4435163" lon="14.1235183"><ele>115.0</ele><time>2026-05-02T06:27:02.941Z</time></trkpt><trkpt lat="42.4433987" lon="14.1235614"><ele>113.0</ele><time>2026-05-02T06:27:03.943Z</time></trkpt><trkpt lat="42.4432757" lon="14.1236069"><ele>111.0</ele><time>2026-05-02T06:27:04.943Z</time></trkpt><trkpt lat="42.4431492" lon="14.1236489"><ele>111.0</ele><time>2026-05-02T06:27:05.942Z</time></trkpt><trkpt lat="42.443022" lon="14.1236873"><ele>111.0</ele><time>2026-05-02T06:27:06.943Z</time></trkpt><trkpt lat="42.4428976" lon="14.1237257"><ele>111.0</ele><time>2026-05-02T06:27:07.942Z</time></trkpt><trkpt lat="42.4427721" lon="14.1237679"><ele>111.0</ele><time>2026-05-02T06:27:08.943Z</time></trkpt><trkpt lat="42.4426357" lon="14.1238122"><ele>111.5</ele><time>2026-05-02T06:27:09.942Z</time></trkpt><trkpt lat="42.4424922" lon="14.1238521"><ele>112.0</ele><time>2026-05-02T06:27:10.942Z</time></trkpt><trkpt lat="42.4423455" lon="14.123888"><ele>112.5</ele><time>2026-05-02T06:27:11.942Z</time></trkpt><trkpt lat="42.4421974" lon="14.1239122"><ele>113.0</ele><time>2026-05-02T06:27:12.942Z</time></trkpt><trkpt lat="42.4420548" lon="14.1239258"><ele>113.0</ele><time>2026-05-02T06:27:13.941Z</time></trkpt><trkpt lat="42.4419147" lon="14.1239249"><ele>113.0</ele><time>2026-05-02T06:27:14.941Z</time></trkpt><trkpt lat="42.4417721" lon="14.1239112"><ele>113.0</ele><time>2026-05-02T06:27:15.943Z</time></trkpt><trkpt lat="42.4416382" lon="14.1238881"><ele>113.0</ele><time>2026-05-02T06:27:16.942Z</time></trkpt><trkpt lat="42.4415253" lon="14.1238654"><ele>113.0</ele><time>2026-05-02T06:27:17.943Z</time></trkpt><trkpt lat="42.4414295" lon="14.1238361"><ele>113.0</ele><time>2026-05-02T06:27:18.942Z</time></trkpt><trkpt lat="42.4413284" lon="14.1237911"><ele>113.0</ele><time>2026-05-02T06:27:19.942Z</time></trkpt><trkpt lat="42.4412137" lon="14.1237305"><ele>113.0</ele><time>2026-05-02T06:27:20.942Z</time></trkpt><trkpt lat="42.4410928" lon="14.1236532"><ele>111.25</ele><time>2026-05-02T06:27:21.942Z</time></trkpt><trkpt lat="42.4409711" lon="14.1235727"><ele>109.5</ele><time>2026-05-02T06:27:22.943Z</time></trkpt><trkpt lat="42.4408539" lon="14.1235011"><ele>107.75</ele><time>2026-05-02T06:27:23.942Z</time></trkpt><trkpt lat="42.4407418" lon="14.1234266"><ele>106.0</ele><time>2026-05-02T06:27:24.942Z</time></trkpt><trkpt lat="42.440632" lon="14.1233644"><ele>106.0</ele><time>2026-05-02T06:27:25.941Z</time></trkpt><trkpt lat="42.4405132" lon="14.1233208"><ele>106.0</ele><time>2026-05-02T06:27:26.943Z</time></trkpt><trkpt lat="42.4403947" lon="14.1232844"><ele>106.0</ele><time>2026-05-02T06:27:27.942Z</time></trkpt><trkpt lat="42.440278" lon="14.1232546"><ele>106.0</ele><time>2026-05-02T06:27:28.941Z</time></trkpt><trkpt lat="42.4401618" lon="14.1232337"><ele>106.25</ele><time>2026-05-02T06:27:29.943Z</time></trkpt><trkpt lat="42.4400477" lon="14.1232224"><ele>106.5</ele><time>2026-05-02T06:27:30.942Z</time></trkpt><trkpt lat="42.4399343" lon="14.1232134"><ele>106.75</ele><time>2026-05-02T06:27:31.942Z</time></trkpt><trkpt lat="42.4398194" lon="14.1232094"><ele>107.0</ele><time>2026-05-02T06:27:32.941Z</time></trkpt><trkpt lat="42.4397055" lon="14.1232178"><ele>100.25</ele><time>2026-05-02T06:27:33.943Z</time></trkpt><trkpt lat="42.4395944" lon="14.1232441"><ele>93.5</ele><time>2026-05-02T06:27:34.94Z</time></trkpt><trkpt lat="42.4394859" lon="14.1232878"><ele>86.75</ele><time>2026-05-02T06:27:35.942Z</time></trkpt><trkpt lat="42.4393748" lon="14.1233416"><ele>80.0</ele><time>2026-05-02T06:27:36.942Z</time></trkpt><trkpt lat="42.439252" lon="14.1233957"><ele>80.0</ele><time>2026-05-02T06:27:37.941Z</time></trkpt><trkpt lat="42.4391178" lon="14.1234419"><ele>80.0</ele><time>2026-05-02T06:27:38.942Z</time></trkpt><trkpt lat="42.4389795" lon="14.1234752"><ele>80.0</ele><time>2026-05-02T06:27:39.942Z</time></trkpt><trkpt lat="42.4388383" lon="14.123489"><ele>80.0</ele><time>2026-05-02T06:27:40.942Z</time></trkpt><trkpt lat="42.438699" lon="14.1235037"><ele>77.25</ele><time>2026-05-02T06:27:41.942Z</time></trkpt><trkpt lat="42.4385622" lon="14.1235267"><ele>74.5</ele><time>2026-05-02T06:27:42.941Z</time></trkpt><trkpt lat="42.4384282" lon="14.1235605"><ele>71.75</ele><time>2026-05-02T06:27:43.941Z</time></trkpt><trkpt lat="42.4382998" lon="14.1236051"><ele>69.0</ele><time>2026-05-02T06:27:44.942Z</time></trkpt><trkpt lat="42.4381731" lon="14.1236527"><ele>69.0</ele><time>2026-05-02T06:27:45.942Z</time></trkpt><trkpt lat="42.4380476" lon="14.1236906"><ele>69.0</ele><time>2026-05-02T06:27:46.942Z</time></trkpt><trkpt lat="42.437925" lon="14.123727"><ele>69.0</ele><time>2026-05-02T06:27:47.943Z</time></trkpt><trkpt lat="42.4378095" lon="14.1237575"><ele>69.0</ele><time>2026-05-02T06:27:48.942Z</time></trkpt><trkpt lat="42.4377075" lon="14.1237543"><ele>68.8</ele><time>2026-05-02T06:27:49.942Z</time></trkpt><trkpt lat="42.4376127" lon="14.1237357"><ele>68.60000000000001</ele><time>2026-05-02T06:27:50.942Z</time></trkpt><trkpt lat="42.4375202" lon="14.1236942"><ele>68.4</ele><time>2026-05-02T06:27:51.942Z</time></trkpt><trkpt lat="42.4374273" lon="14.1236653"><ele>68.2</ele><time>2026-05-02T06:27:52.942Z</time></trkpt><trkpt lat="42.4373439" lon="14.1236503"><ele>68.0</ele><time>2026-05-02T06:27:53.941Z</time></trkpt><trkpt lat="42.4372631" lon="14.1236257"><ele>68.0</ele><time>2026-05-02T06:27:54.941Z</time></trkpt><trkpt lat="42.4371821" lon="14.123581"><ele>68.0</ele><time>2026-05-02T06:27:55.943Z</time></trkpt><trkpt lat="42.4370908" lon="14.123517"><ele>68.0</ele><time>2026-05-02T06:27:56.942Z</time></trkpt><trkpt lat="42.4369869" lon="14.1234501"><ele>68.0</ele><time>2026-05-02T06:27:57.941Z</time></trkpt><trkpt lat="42.4368683" lon="14.1233851"><ele>68.0</ele><time>2026-05-02T06:27:58.942Z</time></trkpt><trkpt lat="42.4367431" lon="14.123332"><ele>67.0</ele><time>2026-05-02T06:27:59.941Z</time></trkpt><trkpt lat="42.436627" lon="14.1232788"><ele>66.0</ele><time>2026-05-02T06:28:00.941Z</time></trkpt><trkpt lat="42.4365082" lon="14.123241"><ele>65.0</ele><time>2026-05-02T06:28:01.941Z</time></trkpt><trkpt lat="42.4363928" lon="14.123207"><ele>64.0</ele><time>2026-05-02T06:28:02.94Z</time></trkpt><trkpt lat="42.4362736" lon="14.1231816"><ele>64.0</ele><time>2026-05-02T06:28:03.943Z</time></trkpt><trkpt lat="42.4361558" lon="14.123149"><ele>64.0</ele><time>2026-05-02T06:28:04.942Z</time></trkpt><trkpt lat="42.4360376" lon="14.1231172"><ele>64.0</ele><time>2026-05-02T06:28:05.942Z</time></trkpt><trkpt lat="42.4359395" lon="14.1230963"><ele>64.0</ele><time>2026-05-02T06:28:06.943Z</time></trkpt><trkpt lat="42.4358612" lon="14.1230813"><ele>64.0</ele><time>2026-05-02T06:28:07.941Z</time></trkpt><trkpt lat="42.4357907" lon="14.1230659"><ele>64.0</ele><time>2026-05-02T06:28:08.943Z</time></trkpt><trkpt lat="42.4356826" lon="14.1230594"><ele>64.0</ele><time>2026-05-02T06:28:10.942Z</time></trkpt><trkpt lat="42.4356197" lon="14.1230803"><ele>64.0</ele><time>2026-05-02T06:28:11.943Z</time></trkpt><trkpt lat="42.435535" lon="14.1231288"><ele>64.0</ele><time>2026-05-02T06:28:12.942Z</time></trkpt><trkpt lat="42.4354467" lon="14.1231988"><ele>64.0</ele><time>2026-05-02T06:28:13.942Z</time></trkpt><trkpt lat="42.4353332" lon="14.1233256"><ele>64.66666666666666</ele><time>2026-05-02T06:28:14.942Z</time></trkpt><trkpt lat="42.4352165" lon="14.1234513"><ele>65.33333333333333</ele><time>2026-05-02T06:28:15.941Z</time></trkpt><trkpt lat="42.4350785" lon="14.1236193"><ele>66.0</ele><time>2026-05-02T06:28:16.943Z</time></trkpt><trkpt lat="42.4349408" lon="14.1237951"><ele>66.0</ele><time>2026-05-02T06:28:17.942Z</time></trkpt><trkpt lat="42.4348104" lon="14.1239617"><ele>66.0</ele><time>2026-05-02T06:28:18.942Z</time></trkpt><trkpt lat="42.4346897" lon="14.1241246"><ele>66.0</ele><time>2026-05-02T06:28:19.942Z</time></trkpt><trkpt lat="42.4345761" lon="14.1242758"><ele>65.5</ele><time>2026-05-02T06:28:20.941Z</time></trkpt><trkpt lat="42.4344735" lon="14.1244166"><ele>65.0</ele><time>2026-05-02T06:28:21.943Z</time></trkpt><trkpt lat="42.4343702" lon="14.1245469"><ele>64.5</ele><time>2026-05-02T06:28:22.942Z</time></trkpt><trkpt lat="42.4342751" lon="14.1246794"><ele>64.0</ele><time>2026-05-02T06:28:23.942Z</time></trkpt><trkpt lat="42.4341712" lon="14.1248219"><ele>61.25</ele><time>2026-05-02T06:28:24.942Z</time></trkpt><trkpt lat="42.4340723" lon="14.1249567"><ele>58.5</ele><time>2026-05-02T06:28:25.942Z</time></trkpt><trkpt lat="42.4339892" lon="14.1250818"><ele>55.75</ele><time>2026-05-02T06:28:26.943Z</time></trkpt><trkpt lat="42.4339162" lon="14.1251978"><ele>53.0</ele><time>2026-05-02T06:28:27.942Z</time></trkpt><trkpt lat="42.4338509" lon="14.1252919"><ele>54.599999999999994</ele><time>2026-05-02T06:28:28.941Z</time></trkpt><trkpt lat="42.4337962" lon="14.1253611"><ele>56.199999999999996</ele><time>2026-05-02T06:28:29.942Z</time></trkpt><trkpt lat="42.4337017" lon="14.125399"><ele>57.8</ele><time>2026-05-02T06:28:31.941Z</time></trkpt><trkpt lat="42.4336091" lon="14.1253468"><ele>59.4</ele><time>2026-05-02T06:28:33.942Z</time></trkpt><trkpt lat="42.4335446" lon="14.1252532"><ele>61.0</ele><time>2026-05-02T06:28:35.942Z</time></trkpt><trkpt lat="42.4334796" lon="14.1251413"><ele>60.99999999999999</ele><time>2026-05-02T06:28:37.943Z</time></trkpt><trkpt lat="42.4334156" lon="14.1251072"><ele>61.0</ele><time>2026-05-02T06:28:39.943Z</time></trkpt><trkpt lat="42.4333477" lon="14.1251158"><ele>61.0</ele><time>2026-05-02T06:28:41.941Z</time></trkpt><trkpt lat="42.4332611" lon="14.1252063"><ele>61.0</ele><time>2026-05-02T06:28:43.941Z</time></trkpt><trkpt lat="42.4332054" lon="14.12527"><ele>60.99999999999999</ele><time>2026-05-02T06:28:44.942Z</time></trkpt><trkpt lat="42.4331449" lon="14.1253253"><ele>61.0</ele><time>2026-05-02T06:28:45.943Z</time></trkpt><trkpt lat="42.4330729" lon="14.1253782"><ele>60.99999999999999</ele><time>2026-05-02T06:28:46.941Z</time></trkpt><trkpt lat="42.4329998" lon="14.1254336"><ele>61.0</ele><time>2026-05-02T06:28:47.942Z</time></trkpt><trkpt lat="42.4329303" lon="14.1254923"><ele>61.0</ele><time>2026-05-02T06:28:48.942Z</time></trkpt><trkpt lat="42.4328689" lon="14.1255383"><ele>61.0</ele><time>2026-05-02T06:28:49.941Z</time></trkpt><trkpt lat="42.4328045" lon="14.1255916"><ele>60.99999999999999</ele><time>2026-05-02T06:28:50.942Z</time></trkpt><trkpt lat="42.4327443" lon="14.1256444"><ele>61.0</ele><time>2026-05-02T06:28:51.942Z</time></trkpt><trkpt lat="42.4326887" lon="14.1257017"><ele>61.28571428571428</ele><time>2026-05-02T06:28:52.942Z</time></trkpt><trkpt lat="42.4326346" lon="14.1257647"><ele>61.57142857142857</ele><time>2026-05-02T06:28:53.942Z</time></trkpt><trkpt lat="42.4325876" lon="14.125825"><ele>61.857142857142854</ele><time>2026-05-02T06:28:54.942Z</time></trkpt><trkpt lat="42.4325346" lon="14.125873"><ele>62.14285714285714</ele><time>2026-05-02T06:28:55.943Z</time></trkpt><trkpt lat="42.4324814" lon="14.1259205"><ele>62.42857142857143</ele><time>2026-05-02T06:28:56.942Z</time></trkpt><trkpt lat="42.432407" lon="14.1259684"><ele>62.714285714285715</ele><time>2026-05-02T06:28:57.94Z</time></trkpt><trkpt lat="42.4323371" lon="14.1260085"><ele>63.0</ele><time>2026-05-02T06:28:58.942Z</time></trkpt><trkpt lat="42.4322674" lon="14.1260505"><ele>63.0</ele><time>2026-05-02T06:28:59.942Z</time></trkpt><trkpt lat="42.432194" lon="14.1260943"><ele>63.0</ele><time>2026-05-02T06:29:00.942Z</time></trkpt><trkpt lat="42.4321164" lon="14.1261369"><ele>63.0</ele><time>2026-05-02T06:29:01.942Z</time></trkpt><trkpt lat="42.4320477" lon="14.1261788"><ele>63.0</ele><time>2026-05-02T06:29:02.943Z</time></trkpt><trkpt lat="42.4319894" lon="14.1262145"><ele>63.0</ele><time>2026-05-02T06:29:03.941Z</time></trkpt><trkpt lat="42.4319216" lon="14.1262518"><ele>63.0</ele><time>2026-05-02T06:29:04.943Z</time></trkpt><trkpt lat="42.4318604" lon="14.1262802"><ele>63.0</ele><time>2026-05-02T06:29:05.941Z</time></trkpt><trkpt lat="42.4317958" lon="14.1263007"><ele>64.5</ele><time>2026-05-02T06:29:06.941Z</time></trkpt><trkpt lat="42.4317189" lon="14.1263092"><ele>66.0</ele><time>2026-05-02T06:29:07.942Z</time></trkpt><trkpt lat="42.431635" lon="14.1263147"><ele>67.5</ele><time>2026-05-02T06:29:08.942Z</time></trkpt><trkpt lat="42.4315438" lon="14.1263215"><ele>69.0</ele><time>2026-05-02T06:29:09.941Z</time></trkpt><trkpt lat="42.4314547" lon="14.1263252"><ele>70.5</ele><time>2026-05-02T06:29:10.94Z</time></trkpt><trkpt lat="42.4313655" lon="14.126346"><ele>72.0</ele><time>2026-05-02T06:29:11.942Z</time></trkpt><trkpt lat="42.4312763" lon="14.1263666"><ele>72.66666666666667</ele><time>2026-05-02T06:29:12.941Z</time></trkpt><trkpt lat="42.4311865" lon="14.1263993"><ele>73.33333333333333</ele><time>2026-05-02T06:29:13.942Z</time></trkpt><trkpt lat="42.4311026" lon="14.12643"><ele>74.0</ele><time>2026-05-02T06:29:14.942Z</time></trkpt><trkpt lat="42.431026" lon="14.1264671"><ele>74.66666666666666</ele><time>2026-05-02T06:29:15.942Z</time></trkpt><trkpt lat="42.4309515" lon="14.1265092"><ele>75.33333333333333</ele><time>2026-05-02T06:29:16.942Z</time></trkpt><trkpt lat="42.4308741" lon="14.1265565"><ele>76.0</ele><time>2026-05-02T06:29:17.942Z</time></trkpt><trkpt lat="42.4308044" lon="14.1266169"><ele>76.0</ele><time>2026-05-02T06:29:18.942Z</time></trkpt><trkpt lat="42.430737" lon="14.1266849"><ele>76.0</ele><time>2026-05-02T06:29:19.941Z</time></trkpt><trkpt lat="42.430672" lon="14.126764"><ele>76.0</ele><time>2026-05-02T06:29:20.942Z</time></trkpt><trkpt lat="42.4306094" lon="14.1268224"><ele>76.0</ele><time>2026-05-02T06:29:21.942Z</time></trkpt><trkpt lat="42.4305427" lon="14.126875"><ele>76.0</ele><time>2026-05-02T06:29:22.941Z</time></trkpt><trkpt lat="42.4304789" lon="14.1268983"><ele>76.0</ele><time>2026-05-02T06:29:23.942Z</time></trkpt><trkpt lat="42.4304105" lon="14.1269004"><ele>76.71428571428571</ele><time>2026-05-02T06:29:24.941Z</time></trkpt><trkpt lat="42.4303449" lon="14.1268942"><ele>77.42857142857143</ele><time>2026-05-02T06:29:25.942Z</time></trkpt><trkpt lat="42.4302908" lon="14.1268445"><ele>78.14285714285714</ele><time>2026-05-02T06:29:27.942Z</time></trkpt><trkpt lat="42.4302849" lon="14.1267468"><ele>78.85714285714286</ele><time>2026-05-02T06:29:37.942Z</time></trkpt><trkpt lat="42.4302061" lon="14.1267319"><ele>79.57142857142857</ele><time>2026-05-02T06:29:41.941Z</time></trkpt><trkpt lat="42.430142" lon="14.1267306"><ele>80.28571428571429</ele><time>2026-05-02T06:29:43.942Z</time></trkpt><trkpt lat="42.43005" lon="14.1267366"><ele>81.0</ele><time>2026-05-02T06:29:45.941Z</time></trkpt><trkpt lat="42.4299425" lon="14.1267725"><ele>81.0</ele><time>2026-05-02T06:29:47.942Z</time></trkpt><trkpt lat="42.4298829" lon="14.1268036"><ele>81.0</ele><time>2026-05-02T06:29:48.941Z</time></trkpt><trkpt lat="42.4298214" lon="14.1268295"><ele>81.0</ele><time>2026-05-02T06:29:49.942Z</time></trkpt><trkpt lat="42.4297581" lon="14.1268603"><ele>81.0</ele><time>2026-05-02T06:29:50.942Z</time></trkpt><trkpt lat="42.4296875" lon="14.1268835"><ele>81.0</ele><time>2026-05-02T06:29:51.942Z</time></trkpt><trkpt lat="42.4296163" lon="14.1269015"><ele>81.0</ele><time>2026-05-02T06:29:52.943Z</time></trkpt><trkpt lat="42.429547" lon="14.1269094"><ele>81.0</ele><time>2026-05-02T06:29:53.942Z</time></trkpt><trkpt lat="42.4294711" lon="14.1269037"><ele>78.2</ele><time>2026-05-02T06:29:54.942Z</time></trkpt><trkpt lat="42.4293975" lon="14.1268999"><ele>75.39999999999999</ele><time>2026-05-02T06:29:55.941Z</time></trkpt><trkpt lat="42.4292897" lon="14.1268679"><ele>72.6</ele><time>2026-05-02T06:29:57.941Z</time></trkpt><trkpt lat="42.4292238" lon="14.1268502"><ele>69.8</ele><time>2026-05-02T06:29:58.94Z</time></trkpt><trkpt lat="42.4290916" lon="14.1268253"><ele>67.0</ele><time>2026-05-02T06:30:00.942Z</time></trkpt><trkpt lat="42.4290268" lon="14.1268078"><ele>67.0</ele><time>2026-05-02T06:30:01.942Z</time></trkpt><trkpt lat="42.428957" lon="14.126783"><ele>67.0</ele><time>2026-05-02T06:30:02.942Z</time></trkpt><trkpt lat="42.4288916" lon="14.126736"><ele>67.0</ele><time>2026-05-02T06:30:03.942Z</time></trkpt><trkpt lat="42.4288336" lon="14.1266826"><ele>67.0</ele><time>2026-05-02T06:30:04.942Z</time></trkpt><trkpt lat="42.4287791" lon="14.126612"><ele>67.0</ele><time>2026-05-02T06:30:05.942Z</time></trkpt><trkpt lat="42.4287305" lon="14.1265507"><ele>67.0</ele><time>2026-05-02T06:30:06.942Z</time></trkpt><trkpt lat="42.4286926" lon="14.126461"><ele>67.0</ele><time>2026-05-02T06:30:07.942Z</time></trkpt><trkpt lat="42.4286528" lon="14.126386"><ele>64.5</ele><time>2026-05-02T06:30:08.942Z</time></trkpt><trkpt lat="42.4286102" lon="14.1263052"><ele>62.0</ele><time>2026-05-02T06:30:09.942Z</time></trkpt><trkpt lat="42.4285652" lon="14.1262233"><ele>59.5</ele><time>2026-05-02T06:30:10.941Z</time></trkpt><trkpt lat="42.4285198" lon="14.1261574"><ele>57.0</ele><time>2026-05-02T06:30:11.94Z</time></trkpt><trkpt lat="42.4284209" lon="14.1260675"><ele>54.49999999999999</ele><time>2026-05-02T06:30:13.942Z</time></trkpt><trkpt lat="42.4283514" lon="14.1260334"><ele>52.0</ele><time>2026-05-02T06:30:14.942Z</time></trkpt><trkpt lat="42.4282889" lon="14.1260093"><ele>51.99999999999999</ele><time>2026-05-02T06:30:15.942Z</time></trkpt><trkpt lat="42.4282185" lon="14.1259966"><ele>52.0</ele><time>2026-05-02T06:30:16.942Z</time></trkpt><trkpt lat="42.4281487" lon="14.1260032"><ele>52.0</ele><time>2026-05-02T06:30:17.942Z</time></trkpt><trkpt lat="42.4280743" lon="14.1260099"><ele>52.0</ele><time>2026-05-02T06:30:18.943Z</time></trkpt><trkpt lat="42.4279925" lon="14.126027"><ele>51.99999999999999</ele><time>2026-05-02T06:30:19.943Z</time></trkpt><trkpt lat="42.4279102" lon="14.1260244"><ele>52.0</ele><time>2026-05-02T06:30:20.941Z</time></trkpt><trkpt lat="42.4278255" lon="14.1260063"><ele>50.83333333333333</ele><time>2026-05-02T06:30:21.943Z</time></trkpt><trkpt lat="42.4277453" lon="14.1259863"><ele>49.666666666666664</ele><time>2026-05-02T06:30:22.941Z</time></trkpt><trkpt lat="42.4276745" lon="14.1259591"><ele>48.5</ele><time>2026-05-02T06:30:23.942Z</time></trkpt><trkpt lat="42.4275948" lon="14.1259248"><ele>47.33333333333333</ele><time>2026-05-02T06:30:24.941Z</time></trkpt><trkpt lat="42.4275203" lon="14.1258764"><ele>46.166666666666664</ele><time>2026-05-02T06:30:25.942Z</time></trkpt><trkpt lat="42.4274524" lon="14.1258212"><ele>45.0</ele><time>2026-05-02T06:30:26.942Z</time></trkpt><trkpt lat="42.4273748" lon="14.1257857"><ele>45.0</ele><time>2026-05-02T06:30:27.943Z</time></trkpt><trkpt lat="42.4272974" lon="14.1257564"><ele>45.0</ele><time>2026-05-02T06:30:28.941Z</time></trkpt><trkpt lat="42.4272287" lon="14.1257303"><ele>45.0</ele><time>2026-05-02T06:30:29.942Z</time></trkpt><trkpt lat="42.4271123" lon="14.1257117"><ele>45.0</ele><time>2026-05-02T06:30:31.941Z</time></trkpt><trkpt lat="42.4270168" lon="14.1257083"><ele>45.0</ele><time>2026-05-02T06:30:33.942Z</time></trkpt><trkpt lat="42.426932" lon="14.1256781"><ele>43.5</ele><time>2026-05-02T06:30:35.943Z</time></trkpt><trkpt lat="42.4268543" lon="14.1256318"><ele>42.0</ele><time>2026-05-02T06:30:37.942Z</time></trkpt><trkpt lat="42.4267952" lon="14.1255789"><ele>40.5</ele><time>2026-05-02T06:30:40.942Z</time></trkpt><trkpt lat="42.4267469" lon="14.1254271"><ele>39.0</ele><time>2026-05-02T06:30:52.942Z</time></trkpt><trkpt lat="42.4267237" lon="14.1253232"><ele>37.5</ele><time>2026-05-02T06:30:53.942Z</time></trkpt><trkpt lat="42.4267068" lon="14.1252028"><ele>36.0</ele><time>2026-05-02T06:30:54.942Z</time></trkpt><trkpt lat="42.4266823" lon="14.1250568"><ele>36.75</ele><time>2026-05-02T06:30:55.942Z</time></trkpt><trkpt lat="42.4266521" lon="14.1248805"><ele>37.5</ele><time>2026-05-02T06:30:56.942Z</time></trkpt><trkpt lat="42.4266146" lon="14.1246891"><ele>38.25</ele><time>2026-05-02T06:30:57.941Z</time></trkpt><trkpt lat="42.4265698" lon="14.1244853"><ele>39.0</ele><time>2026-05-02T06:30:58.942Z</time></trkpt><trkpt lat="42.4265179" lon="14.1242743"><ele>40.666666666666664</ele><time>2026-05-02T06:30:59.941Z</time></trkpt><trkpt lat="42.4264538" lon="14.1240564"><ele>42.33333333333333</ele><time>2026-05-02T06:31:00.942Z</time></trkpt><trkpt lat="42.4263988" lon="14.1238488"><ele>44.0</ele><time>2026-05-02T06:31:01.942Z</time></trkpt><trkpt lat="42.4263579" lon="14.1236497"><ele>44.0</ele><time>2026-05-02T06:31:02.942Z</time></trkpt><trkpt lat="42.4263176" lon="14.1234409"><ele>44.0</ele><time>2026-05-02T06:31:03.941Z</time></trkpt><trkpt lat="42.4262798" lon="14.1232194"><ele>44.0</ele><time>2026-05-02T06:31:04.941Z</time></trkpt><trkpt lat="42.426244" lon="14.1230072"><ele>42.33333333333333</ele><time>2026-05-02T06:31:05.941Z</time></trkpt><trkpt lat="42.4262179" lon="14.1227748"><ele>40.666666666666664</ele><time>2026-05-02T06:31:06.942Z</time></trkpt><trkpt lat="42.4261835" lon="14.1225408"><ele>39.0</ele><time>2026-05-02T06:31:07.942Z</time></trkpt><trkpt lat="42.4261558" lon="14.1223211"><ele>39.0</ele><time>2026-05-02T06:31:08.942Z</time></trkpt><trkpt lat="42.4261264" lon="14.1221018"><ele>39.0</ele><time>2026-05-02T06:31:09.941Z</time></trkpt><trkpt lat="42.4261014" lon="14.1218848"><ele>39.0</ele><time>2026-05-02T06:31:10.942Z</time></trkpt><trkpt lat="42.426075" lon="14.1216684"><ele>39.666666666666664</ele><time>2026-05-02T06:31:11.942Z</time></trkpt><trkpt lat="42.4260514" lon="14.1214563"><ele>40.33333333333333</ele><time>2026-05-02T06:31:12.942Z</time></trkpt><trkpt lat="42.4260205" lon="14.1212504"><ele>41.0</ele><time>2026-05-02T06:31:13.942Z</time></trkpt><trkpt lat="42.4259673" lon="14.1210404"><ele>41.0</ele><time>2026-05-02T06:31:14.942Z</time></trkpt><trkpt lat="42.425913" lon="14.1208374"><ele>41.0</ele><time>2026-05-02T06:31:15.941Z</time></trkpt><trkpt lat="42.4258484" lon="14.1206395"><ele>41.0</ele><time>2026-05-02T06:31:16.942Z</time></trkpt><trkpt lat="42.425771" lon="14.1204398"><ele>42.33333333333333</ele><time>2026-05-02T06:31:17.942Z</time></trkpt><trkpt lat="42.4256944" lon="14.1202397"><ele>43.666666666666664</ele><time>2026-05-02T06:31:18.942Z</time></trkpt><trkpt lat="42.4256259" lon="14.1200505"><ele>45.0</ele><time>2026-05-02T06:31:19.942Z</time></trkpt><trkpt lat="42.4255641" lon="14.1198564"><ele>47.0</ele><time>2026-05-02T06:31:20.942Z</time></trkpt><trkpt lat="42.4255141" lon="14.1196554"><ele>49.0</ele><time>2026-05-02T06:31:21.942Z</time></trkpt><trkpt lat="42.4254702" lon="14.1194493"><ele>51.0</ele><time>2026-05-02T06:31:22.942Z</time></trkpt><trkpt lat="42.425436" lon="14.1192365"><ele>47.0</ele><time>2026-05-02T06:31:23.942Z</time></trkpt><trkpt lat="42.4254025" lon="14.11903"><ele>43.0</ele><time>2026-05-02T06:31:24.941Z</time></trkpt><trkpt lat="42.4253703" lon="14.1188212"><ele>39.0</ele><time>2026-05-02T06:31:25.943Z</time></trkpt><trkpt lat="42.4253367" lon="14.1186185"><ele>39.0</ele><time>2026-05-02T06:31:26.942Z</time></trkpt><trkpt lat="42.4253077" lon="14.118422"><ele>39.0</ele><time>2026-05-02T06:31:27.943Z</time></trkpt><trkpt lat="42.4252742" lon="14.1182186"><ele>39.0</ele><time>2026-05-02T06:31:28.941Z</time></trkpt><trkpt lat="42.4252421" lon="14.1180159"><ele>39.333333333333336</ele><time>2026-05-02T06:31:29.942Z</time></trkpt><trkpt lat="42.4252089" lon="14.1178059"><ele>39.66666666666667</ele><time>2026-05-02T06:31:30.943Z</time></trkpt><trkpt lat="42.4251788" lon="14.1175927"><ele>40.0</ele><time>2026-05-02T06:31:31.941Z</time></trkpt><trkpt lat="42.4251483" lon="14.1173795"><ele>41.333333333333336</ele><time>2026-05-02T06:31:32.941Z</time></trkpt><trkpt lat="42.4251234" lon="14.1171636"><ele>42.666666666666664</ele><time>2026-05-02T06:31:33.941Z</time></trkpt><trkpt lat="42.4251078" lon="14.1169452"><ele>44.0</ele><time>2026-05-02T06:31:34.941Z</time></trkpt><trkpt lat="42.4250951" lon="14.1167285"><ele>44.0</ele><time>2026-05-02T06:31:35.942Z</time></trkpt><trkpt lat="42.4250781" lon="14.1165097"><ele>44.0</ele><time>2026-05-02T06:31:36.942Z</time></trkpt><trkpt lat="42.4250645" lon="14.1162915"><ele>44.0</ele><time>2026-05-02T06:31:37.94Z</time></trkpt><trkpt lat="42.4250493" lon="14.1160728"><ele>44.0</ele><time>2026-05-02T06:31:38.941Z</time></trkpt><trkpt lat="42.4250379" lon="14.115851"><ele>44.0</ele><time>2026-05-02T06:31:39.942Z</time></trkpt><trkpt lat="42.4250256" lon="14.1156328"><ele>44.0</ele><time>2026-05-02T06:31:40.943Z</time></trkpt><trkpt lat="42.4250096" lon="14.1154181"><ele>44.33333333333333</ele><time>2026-05-02T06:31:41.941Z</time></trkpt><trkpt lat="42.4249949" lon="14.1151999"><ele>44.666666666666664</ele><time>2026-05-02T06:31:42.941Z</time></trkpt><trkpt lat="42.4249797" lon="14.1149827"><ele>45.0</ele><time>2026-05-02T06:31:43.942Z</time></trkpt><trkpt lat="42.4249638" lon="14.1147646"><ele>46.0</ele><time>2026-05-02T06:31:44.942Z</time></trkpt><trkpt lat="42.424944" lon="14.1145485"><ele>47.0</ele><time>2026-05-02T06:31:45.941Z</time></trkpt><trkpt lat="42.4249309" lon="14.1143306"><ele>48.0</ele><time>2026-05-02T06:31:46.943Z</time></trkpt><trkpt lat="42.4249171" lon="14.1141232"><ele>48.66666666666667</ele><time>2026-05-02T06:31:47.941Z</time></trkpt><trkpt lat="42.4248988" lon="14.1139149"><ele>49.333333333333336</ele><time>2026-05-02T06:31:48.942Z</time></trkpt><trkpt lat="42.4248877" lon="14.1137063"><ele>50.0</ele><time>2026-05-02T06:31:49.941Z</time></trkpt><trkpt lat="42.4248695" lon="14.1134963"><ele>50.0</ele><time>2026-05-02T06:31:50.942Z</time></trkpt><trkpt lat="42.4248588" lon="14.1132909"><ele>50.0</ele><time>2026-05-02T06:31:51.942Z</time></trkpt><trkpt lat="42.4248555" lon="14.1130897"><ele>50.0</ele><time>2026-05-02T06:31:52.942Z</time></trkpt><trkpt lat="42.4248597" lon="14.112896"><ele>50.0</ele><time>2026-05-02T06:31:53.942Z</time></trkpt><trkpt lat="42.4248789" lon="14.1127016"><ele>50.66666666666667</ele><time>2026-05-02T06:31:54.942Z</time></trkpt><trkpt lat="42.4249139" lon="14.1125023"><ele>51.33333333333333</ele><time>2026-05-02T06:31:55.942Z</time></trkpt><trkpt lat="42.4249548" lon="14.1122981"><ele>52.0</ele><time>2026-05-02T06:31:56.94Z</time></trkpt><trkpt lat="42.4250001" lon="14.112106"><ele>51.2</ele><time>2026-05-02T06:31:57.942Z</time></trkpt><trkpt lat="42.4250387" lon="14.1119297"><ele>50.400000000000006</ele><time>2026-05-02T06:31:58.942Z</time></trkpt><trkpt lat="42.4250785" lon="14.111779"><ele>49.599999999999994</ele><time>2026-05-02T06:31:59.942Z</time></trkpt><trkpt lat="42.4251164" lon="14.1116513"><ele>48.8</ele><time>2026-05-02T06:32:00.94Z</time></trkpt><trkpt lat="42.4251468" lon="14.111555"><ele>48.0</ele><time>2026-05-02T06:32:01.941Z</time></trkpt><trkpt lat="42.4251911" lon="14.1114482"><ele>48.0</ele><time>2026-05-02T06:32:03.941Z</time></trkpt><trkpt lat="42.4251637" lon="14.1113544"><ele>48.0</ele><time>2026-05-02T06:32:06.941Z</time></trkpt><trkpt lat="42.4250757" lon="14.1114268"><ele>48.0</ele><time>2026-05-02T06:32:08.941Z</time></trkpt><trkpt lat="42.4250188" lon="14.1114859"><ele>48.0</ele><time>2026-05-02T06:32:09.942Z</time></trkpt><trkpt lat="42.4249432" lon="14.111551"><ele>48.0</ele><time>2026-05-02T06:32:10.943Z</time></trkpt><trkpt lat="42.4248567" lon="14.1116134"><ele>48.0</ele><time>2026-05-02T06:32:11.94Z</time></trkpt><trkpt lat="42.4247596" lon="14.111675"><ele>48.0</ele><time>2026-05-02T06:32:12.941Z</time></trkpt><trkpt lat="42.424656" lon="14.1117343"><ele>48.0</ele><time>2026-05-02T06:32:13.942Z</time></trkpt><trkpt lat="42.4245532" lon="14.1117814"><ele>48.0</ele><time>2026-05-02T06:32:14.942Z</time></trkpt><trkpt lat="42.4244413" lon="14.1118182"><ele>48.0</ele><time>2026-05-02T06:32:15.941Z</time></trkpt><trkpt lat="42.424333" lon="14.1118466"><ele>48.0</ele><time>2026-05-02T06:32:16.942Z</time></trkpt><trkpt lat="42.4242338" lon="14.1118715"><ele>46.8</ele><time>2026-05-02T06:32:17.942Z</time></trkpt><trkpt lat="42.4241354" lon="14.1118991"><ele>45.599999999999994</ele><time>2026-05-02T06:32:18.941Z</time></trkpt><trkpt lat="42.4240461" lon="14.1119295"><ele>44.400000000000006</ele><time>2026-05-02T06:32:19.942Z</time></trkpt><trkpt lat="42.4239559" lon="14.1119621"><ele>43.2</ele><time>2026-05-02T06:32:20.943Z</time></trkpt><trkpt lat="42.4238683" lon="14.1119937"><ele>42.0</ele><time>2026-05-02T06:32:21.94Z</time></trkpt><trkpt lat="42.4237794" lon="14.112016"><ele>41.0</ele><time>2026-05-02T06:32:22.942Z</time></trkpt><trkpt lat="42.4236861" lon="14.1120189"><ele>40.0</ele><time>2026-05-02T06:32:23.941Z</time></trkpt><trkpt lat="42.4235925" lon="14.1120085"><ele>39.0</ele><time>2026-05-02T06:32:24.942Z</time></trkpt><trkpt lat="42.4234931" lon="14.1120007"><ele>38.0</ele><time>2026-05-02T06:32:25.942Z</time></trkpt><trkpt lat="42.4233917" lon="14.1119978"><ele>37.0</ele><time>2026-05-02T06:32:26.942Z</time></trkpt><trkpt lat="42.4233075" lon="14.1120353"><ele>37.0</ele><time>2026-05-02T06:32:27.94Z</time></trkpt><trkpt lat="42.4232228" lon="14.1120877"><ele>37.0</ele><time>2026-05-02T06:32:28.941Z</time></trkpt><trkpt lat="42.4231468" lon="14.1121572"><ele>37.0</ele><time>2026-05-02T06:32:29.941Z</time></trkpt><trkpt lat="42.4230769" lon="14.1122299"><ele>37.0</ele><time>2026-05-02T06:32:30.941Z</time></trkpt><trkpt lat="42.4230151" lon="14.112299"><ele>37.0</ele><time>2026-05-02T06:32:31.942Z</time></trkpt><trkpt lat="42.4229472" lon="14.1123836"><ele>37.0</ele><time>2026-05-02T06:32:32.942Z</time></trkpt><trkpt lat="42.4228657" lon="14.1124877"><ele>38.75</ele><time>2026-05-02T06:32:33.941Z</time></trkpt><trkpt lat="42.4227775" lon="14.1126006"><ele>40.5</ele><time>2026-05-02T06:32:34.942Z</time></trkpt><trkpt lat="42.4226723" lon="14.1127141"><ele>42.25</ele><time>2026-05-02T06:32:35.941Z</time></trkpt><trkpt lat="42.4225628" lon="14.1128251"><ele>44.0</ele><time>2026-05-02T06:32:36.942Z</time></trkpt><trkpt lat="42.4224449" lon="14.1129317"><ele>44.0</ele><time>2026-05-02T06:32:37.94Z</time></trkpt><trkpt lat="42.4223269" lon="14.1130383"><ele>44.0</ele><time>2026-05-02T06:32:38.941Z</time></trkpt><trkpt lat="42.4222124" lon="14.1131466"><ele>44.0</ele><time>2026-05-02T06:32:39.941Z</time></trkpt><trkpt lat="42.4221038" lon="14.1132597"><ele>44.0</ele><time>2026-05-02T06:32:40.942Z</time></trkpt><trkpt lat="42.4219977" lon="14.1133622"><ele>45.25</ele><time>2026-05-02T06:32:41.94Z</time></trkpt><trkpt lat="42.4218879" lon="14.1134434"><ele>46.5</ele><time>2026-05-02T06:32:42.943Z</time></trkpt><trkpt lat="42.4217735" lon="14.113507"><ele>47.75</ele><time>2026-05-02T06:32:43.943Z</time></trkpt><trkpt lat="42.4216447" lon="14.113557"><ele>49.0</ele><time>2026-05-02T06:32:44.943Z</time></trkpt><trkpt lat="42.421513" lon="14.1136033"><ele>49.0</ele><time>2026-05-02T06:32:45.943Z</time></trkpt><trkpt lat="42.4213855" lon="14.1136506"><ele>49.0</ele><time>2026-05-02T06:32:46.942Z</time></trkpt><trkpt lat="42.4212612" lon="14.1137135"><ele>49.0</ele><time>2026-05-02T06:32:47.942Z</time></trkpt><trkpt lat="42.4211449" lon="14.1137868"><ele>49.0</ele><time>2026-05-02T06:32:48.943Z</time></trkpt><trkpt lat="42.4210317" lon="14.1138705"><ele>50.0</ele><time>2026-05-02T06:32:49.941Z</time></trkpt><trkpt lat="42.4209233" lon="14.1139564"><ele>51.0</ele><time>2026-05-02T06:32:50.942Z</time></trkpt><trkpt lat="42.4208204" lon="14.1140298"><ele>52.0</ele><time>2026-05-02T06:32:51.94Z</time></trkpt><trkpt lat="42.4207148" lon="14.1141012"><ele>53.0</ele><time>2026-05-02T06:32:52.942Z</time></trkpt><trkpt lat="42.4206186" lon="14.1141756"><ele>55.5</ele><time>2026-05-02T06:32:53.942Z</time></trkpt><trkpt lat="42.4205349" lon="14.1142825"><ele>58.0</ele><time>2026-05-02T06:32:54.942Z</time></trkpt><trkpt lat="42.4204568" lon="14.1143997"><ele>60.5</ele><time>2026-05-02T06:32:55.942Z</time></trkpt><trkpt lat="42.4203813" lon="14.1145276"><ele>63.0</ele><time>2026-05-02T06:32:56.942Z</time></trkpt><trkpt lat="42.4203002" lon="14.1146383"><ele>63.0</ele><time>2026-05-02T06:32:57.942Z</time></trkpt><trkpt lat="42.4202091" lon="14.114724"><ele>63.0</ele><time>2026-05-02T06:32:58.941Z</time></trkpt><trkpt lat="42.4201076" lon="14.1147894"><ele>63.0</ele><time>2026-05-02T06:32:59.941Z</time></trkpt><trkpt lat="42.4199962" lon="14.1148431"><ele>63.0</ele><time>2026-05-02T06:33:00.941Z</time></trkpt><trkpt lat="42.4198816" lon="14.1148974"><ele>64.5</ele><time>2026-05-02T06:33:01.941Z</time></trkpt><trkpt lat="42.4197659" lon="14.1149755"><ele>66.0</ele><time>2026-05-02T06:33:02.94Z</time></trkpt><trkpt lat="42.4196577" lon="14.1150743"><ele>67.5</ele><time>2026-05-02T06:33:03.941Z</time></trkpt><trkpt lat="42.4195514" lon="14.1151942"><ele>69.0</ele><time>2026-05-02T06:33:04.942Z</time></trkpt><trkpt lat="42.4194397" lon="14.1153199"><ele>71.75</ele><time>2026-05-02T06:33:05.942Z</time></trkpt><trkpt lat="42.4193254" lon="14.1154343"><ele>74.5</ele><time>2026-05-02T06:33:06.941Z</time></trkpt><trkpt lat="42.4192117" lon="14.115536"><ele>77.25</ele><time>2026-05-02T06:33:07.942Z</time></trkpt><trkpt lat="42.4191159" lon="14.1156285"><ele>80.0</ele><time>2026-05-02T06:33:08.941Z</time></trkpt><trkpt lat="42.4190372" lon="14.1157207"><ele>81.2</ele><time>2026-05-02T06:33:09.941Z</time></trkpt><trkpt lat="42.4189771" lon="14.1157917"><ele>82.4</ele><time>2026-05-02T06:33:10.942Z</time></trkpt><trkpt lat="42.418905" lon="14.1158843"><ele>83.6</ele><time>2026-05-02T06:33:12.94Z</time></trkpt><trkpt lat="42.4188067" lon="14.115904"><ele>84.8</ele><time>2026-05-02T06:33:15.94Z</time></trkpt><trkpt lat="42.4186983" lon="14.1158163"><ele>86.0</ele><time>2026-05-02T06:33:17.942Z</time></trkpt><trkpt lat="42.4186275" lon="14.1157506"><ele>89.0</ele><time>2026-05-02T06:33:18.941Z</time></trkpt><trkpt lat="42.4185423" lon="14.1156702"><ele>92.0</ele><time>2026-05-02T06:33:19.941Z</time></trkpt><trkpt lat="42.418444" lon="14.1156008"><ele>95.0</ele><time>2026-05-02T06:33:20.942Z</time></trkpt><trkpt lat="42.4183256" lon="14.1155245"><ele>98.0</ele><time>2026-05-02T06:33:21.942Z</time></trkpt><trkpt lat="42.4182076" lon="14.1154499"><ele>98.0</ele><time>2026-05-02T06:33:22.942Z</time></trkpt><trkpt lat="42.4180876" lon="14.1153861"><ele>98.0</ele><time>2026-05-02T06:33:23.942Z</time></trkpt><trkpt lat="42.4179618" lon="14.1153302"><ele>98.0</ele><time>2026-05-02T06:33:24.941Z</time></trkpt><trkpt lat="42.4178384" lon="14.1152832"><ele>98.0</ele><time>2026-05-02T06:33:25.943Z</time></trkpt><trkpt lat="42.4177139" lon="14.1152402"><ele>100.0</ele><time>2026-05-02T06:33:26.942Z</time></trkpt><trkpt lat="42.4175912" lon="14.1151976"><ele>102.0</ele><time>2026-05-02T06:33:27.942Z</time></trkpt><trkpt lat="42.4174734" lon="14.1151719"><ele>104.0</ele><time>2026-05-02T06:33:28.94Z</time></trkpt><trkpt lat="42.4173349" lon="14.115165"><ele>106.0</ele><time>2026-05-02T06:33:29.941Z</time></trkpt><trkpt lat="42.417202" lon="14.115161"><ele>107.25</ele><time>2026-05-02T06:33:30.941Z</time></trkpt><trkpt lat="42.4170659" lon="14.1151471"><ele>108.5</ele><time>2026-05-02T06:33:31.941Z</time></trkpt><trkpt lat="42.4169342" lon="14.1151425"><ele>109.75</ele><time>2026-05-02T06:33:32.941Z</time></trkpt><trkpt lat="42.4168031" lon="14.1151508"><ele>111.0</ele><time>2026-05-02T06:33:33.941Z</time></trkpt><trkpt lat="42.4166642" lon="14.1151748"><ele>111.0</ele><time>2026-05-02T06:33:34.942Z</time></trkpt><trkpt lat="42.4165293" lon="14.1152041"><ele>111.0</ele><time>2026-05-02T06:33:35.942Z</time></trkpt><trkpt lat="42.4163899" lon="14.1152209"><ele>111.0</ele><time>2026-05-02T06:33:36.942Z</time></trkpt><trkpt lat="42.4162504" lon="14.1152384"><ele>111.0</ele><time>2026-05-02T06:33:37.941Z</time></trkpt><trkpt lat="42.4161133" lon="14.1152426"><ele>112.25</ele><time>2026-05-02T06:33:38.941Z</time></trkpt><trkpt lat="42.4159736" lon="14.1152441"><ele>113.5</ele><time>2026-05-02T06:33:39.941Z</time></trkpt><trkpt lat="42.4158292" lon="14.1152491"><ele>114.75</ele><time>2026-05-02T06:33:40.942Z</time></trkpt><trkpt lat="42.4156926" lon="14.1152762"><ele>116.0</ele><time>2026-05-02T06:33:41.942Z</time></trkpt><trkpt lat="42.4155795" lon="14.1153051"><ele>116.19999999999999</ele><time>2026-05-02T06:33:42.941Z</time></trkpt><trkpt lat="42.4154856" lon="14.1153334"><ele>116.39999999999999</ele><time>2026-05-02T06:33:43.941Z</time></trkpt><trkpt lat="42.4154096" lon="14.1153559"><ele>116.6</ele><time>2026-05-02T06:33:44.941Z</time></trkpt><trkpt lat="42.4153296" lon="14.1153911"><ele>116.8</ele><time>2026-05-02T06:33:46.942Z</time></trkpt><trkpt lat="42.4152274" lon="14.1154996"><ele>117.0</ele><time>2026-05-02T06:33:49.942Z</time></trkpt><trkpt lat="42.4151718" lon="14.11558"><ele>117.0</ele><time>2026-05-02T06:33:50.942Z</time></trkpt><trkpt lat="42.4151069" lon="14.1156618"><ele>116.99999999999999</ele><time>2026-05-02T06:33:51.942Z</time></trkpt><trkpt lat="42.4150327" lon="14.115758"><ele>116.99999999999999</ele><time>2026-05-02T06:33:52.941Z</time></trkpt><trkpt lat="42.4149539" lon="14.1158611"><ele>117.0</ele><time>2026-05-02T06:33:53.942Z</time></trkpt><trkpt lat="42.4148734" lon="14.1159583"><ele>117.0</ele><time>2026-05-02T06:33:54.942Z</time></trkpt><trkpt lat="42.4147907" lon="14.1160478"><ele>116.75</ele><time>2026-05-02T06:33:55.941Z</time></trkpt><trkpt lat="42.4147009" lon="14.1161366"><ele>116.5</ele><time>2026-05-02T06:33:56.942Z</time></trkpt><trkpt lat="42.4145978" lon="14.1162278"><ele>116.25</ele><time>2026-05-02T06:33:57.942Z</time></trkpt><trkpt lat="42.4144866" lon="14.1163202"><ele>116.0</ele><time>2026-05-02T06:33:58.942Z</time></trkpt><trkpt lat="42.4143681" lon="14.1164105"><ele>114.75</ele><time>2026-05-02T06:33:59.942Z</time></trkpt><trkpt lat="42.4142489" lon="14.1164948"><ele>113.5</ele><time>2026-05-02T06:34:00.943Z</time></trkpt><trkpt lat="42.4141277" lon="14.1165705"><ele>112.25</ele><time>2026-05-02T06:34:01.942Z</time></trkpt><trkpt lat="42.4140028" lon="14.1166448"><ele>111.0</ele><time>2026-05-02T06:34:02.941Z</time></trkpt><trkpt lat="42.413884" lon="14.1167137"><ele>110.0</ele><time>2026-05-02T06:34:03.942Z</time></trkpt><trkpt lat="42.4137795" lon="14.1167925"><ele>109.0</ele><time>2026-05-02T06:34:04.942Z</time></trkpt><trkpt lat="42.4136835" lon="14.1169012"><ele>108.0</ele><time>2026-05-02T06:34:05.943Z</time></trkpt><trkpt lat="42.4135948" lon="14.1170263"><ele>107.0</ele><time>2026-05-02T06:34:06.942Z</time></trkpt><trkpt lat="42.4135121" lon="14.1171637"><ele>107.0</ele><time>2026-05-02T06:34:07.943Z</time></trkpt><trkpt lat="42.4134276" lon="14.1173038"><ele>107.0</ele><time>2026-05-02T06:34:08.942Z</time></trkpt><trkpt lat="42.4133479" lon="14.1174394"><ele>107.0</ele><time>2026-05-02T06:34:09.941Z</time></trkpt><trkpt lat="42.4132682" lon="14.1175787"><ele>107.0</ele><time>2026-05-02T06:34:10.941Z</time></trkpt><trkpt lat="42.4131976" lon="14.1177141"><ele>107.0</ele><time>2026-05-02T06:34:11.94Z</time></trkpt><trkpt lat="42.4131219" lon="14.1178516"><ele>107.0</ele><time>2026-05-02T06:34:12.941Z</time></trkpt><trkpt lat="42.4130404" lon="14.1179979"><ele>107.0</ele><time>2026-05-02T06:34:13.941Z</time></trkpt><trkpt lat="42.4129491" lon="14.1181386"><ele>107.0</ele><time>2026-05-02T06:34:14.941Z</time></trkpt><trkpt lat="42.4128552" lon="14.1182771"><ele>107.0</ele><time>2026-05-02T06:34:15.941Z</time></trkpt><trkpt lat="42.4127522" lon="14.1184019"><ele>107.0</ele><time>2026-05-02T06:34:16.942Z</time></trkpt><trkpt lat="42.4126496" lon="14.1185099"><ele>107.0</ele><time>2026-05-02T06:34:17.942Z</time></trkpt><trkpt lat="42.4125452" lon="14.1186103"><ele>107.0</ele><time>2026-05-02T06:34:18.942Z</time></trkpt><trkpt lat="42.412445" lon="14.1186916"><ele>107.0</ele><time>2026-05-02T06:34:19.942Z</time></trkpt><trkpt lat="42.4123446" lon="14.1187635"><ele>106.99999999999999</ele><time>2026-05-02T06:34:20.942Z</time></trkpt><trkpt lat="42.4122441" lon="14.1188313"><ele>106.99999999999999</ele><time>2026-05-02T06:34:21.943Z</time></trkpt><trkpt lat="42.4121458" lon="14.1188935"><ele>107.0</ele><time>2026-05-02T06:34:22.942Z</time></trkpt><trkpt lat="42.4120487" lon="14.1189627"><ele>107.0</ele><time>2026-05-02T06:34:23.941Z</time></trkpt><trkpt lat="42.4119468" lon="14.1190317"><ele>105.75</ele><time>2026-05-02T06:34:24.942Z</time></trkpt><trkpt lat="42.4118438" lon="14.1191034"><ele>104.5</ele><time>2026-05-02T06:34:25.942Z</time></trkpt><trkpt lat="42.4117386" lon="14.1191677"><ele>103.25</ele><time>2026-05-02T06:34:26.94Z</time></trkpt><trkpt lat="42.4116319" lon="14.1192342"><ele>102.0</ele><time>2026-05-02T06:34:27.941Z</time></trkpt><trkpt lat="42.4115248" lon="14.1193005"><ele>102.0</ele><time>2026-05-02T06:34:28.94Z</time></trkpt><trkpt lat="42.4114159" lon="14.1193642"><ele>102.0</ele><time>2026-05-02T06:34:29.942Z</time></trkpt><trkpt lat="42.4113086" lon="14.1194317"><ele>102.0</ele><time>2026-05-02T06:34:30.943Z</time></trkpt><trkpt lat="42.4112101" lon="14.119508"><ele>102.0</ele><time>2026-05-02T06:34:31.942Z</time></trkpt><trkpt lat="42.4111116" lon="14.1195903"><ele>102.19999999999999</ele><time>2026-05-02T06:34:32.941Z</time></trkpt><trkpt lat="42.4110187" lon="14.1196673"><ele>102.4</ele><time>2026-05-02T06:34:33.941Z</time></trkpt><trkpt lat="42.4109286" lon="14.1197565"><ele>102.6</ele><time>2026-05-02T06:34:34.942Z</time></trkpt><trkpt lat="42.4108373" lon="14.1198391"><ele>102.80000000000001</ele><time>2026-05-02T06:34:35.942Z</time></trkpt><trkpt lat="42.4107659" lon="14.1199006"><ele>103.0</ele><time>2026-05-02T06:34:36.942Z</time></trkpt><trkpt lat="42.4106855" lon="14.1199523"><ele>102.16666666666667</ele><time>2026-05-02T06:34:38.943Z</time></trkpt><trkpt lat="42.4106175" lon="14.1199932"><ele>101.33333333333334</ele><time>2026-05-02T06:34:41.94Z</time></trkpt><trkpt lat="42.4105531" lon="14.1199912"><ele>100.5</ele><time>2026-05-02T06:34:44.942Z</time></trkpt><trkpt lat="42.4104607" lon="14.1199146"><ele>99.66666666666666</ele><time>2026-05-02T06:34:47.941Z</time></trkpt><trkpt lat="42.4103827" lon="14.1198472"><ele>98.83333333333333</ele><time>2026-05-02T06:34:49.941Z</time></trkpt><trkpt lat="42.4103198" lon="14.1197581"><ele>98.0</ele><time>2026-05-02T06:34:51.942Z</time></trkpt><trkpt lat="42.4102594" lon="14.1196184"><ele>97.33333333333333</ele><time>2026-05-02T06:34:53.942Z</time></trkpt><trkpt lat="42.4102267" lon="14.1195448"><ele>96.66666666666666</ele><time>2026-05-02T06:34:54.942Z</time></trkpt><trkpt lat="42.410195" lon="14.1194706"><ele>96.0</ele><time>2026-05-02T06:34:55.943Z</time></trkpt><trkpt lat="42.4101561" lon="14.1194018"><ele>95.33333333333333</ele><time>2026-05-02T06:34:56.942Z</time></trkpt><trkpt lat="42.4100827" lon="14.1192812"><ele>94.66666666666666</ele><time>2026-05-02T06:34:58.941Z</time></trkpt><trkpt lat="42.4100151" lon="14.1191768"><ele>94.0</ele><time>2026-05-02T06:35:00.942Z</time></trkpt><trkpt lat="42.4099291" lon="14.1190687"><ele>94.5</ele><time>2026-05-02T06:35:02.942Z</time></trkpt><trkpt lat="42.4098404" lon="14.1189766"><ele>95.0</ele><time>2026-05-02T06:35:04.942Z</time></trkpt><trkpt lat="42.4097396" lon="14.1189201"><ele>95.5</ele><time>2026-05-02T06:35:06.943Z</time></trkpt><trkpt lat="42.4096396" lon="14.118837"><ele>96.0</ele><time>2026-05-02T06:35:08.942Z</time></trkpt><trkpt lat="42.4095348" lon="14.1187468"><ele>93.6</ele><time>2026-05-02T06:35:10.941Z</time></trkpt><trkpt lat="42.409477" lon="14.1187092"><ele>91.19999999999999</ele><time>2026-05-02T06:35:11.942Z</time></trkpt><trkpt lat="42.4093622" lon="14.118661"><ele>88.80000000000001</ele><time>2026-05-02T06:35:13.941Z</time></trkpt><trkpt lat="42.4092522" lon="14.1185801"><ele>86.4</ele><time>2026-05-02T06:35:15.942Z</time></trkpt><trkpt lat="42.4091553" lon="14.11848"><ele>84.0</ele><time>2026-05-02T06:35:17.941Z</time></trkpt><trkpt lat="42.4090575" lon="14.1183649"><ele>84.0</ele><time>2026-05-02T06:35:19.942Z</time></trkpt><trkpt lat="42.4089813" lon="14.1182427"><ele>84.0</ele><time>2026-05-02T06:35:21.942Z</time></trkpt><trkpt lat="42.4089287" lon="14.1180905"><ele>84.0</ele><time>2026-05-02T06:35:23.942Z</time></trkpt><trkpt lat="42.408897" lon="14.1180137"><ele>84.0</ele><time>2026-05-02T06:35:24.942Z</time></trkpt><trkpt lat="42.4088629" lon="14.1179327"><ele>84.0</ele><time>2026-05-02T06:35:25.942Z</time></trkpt><trkpt lat="42.4088341" lon="14.117854"><ele>84.0</ele><time>2026-05-02T06:35:26.941Z</time></trkpt><trkpt lat="42.4088045" lon="14.1177724"><ele>83.4</ele><time>2026-05-02T06:35:27.942Z</time></trkpt><trkpt lat="42.4087528" lon="14.1176273"><ele>82.80000000000001</ele><time>2026-05-02T06:35:29.942Z</time></trkpt><trkpt lat="42.4087071" lon="14.1175157"><ele>82.19999999999999</ele><time>2026-05-02T06:35:31.942Z</time></trkpt><trkpt lat="42.4086625" lon="14.1174041"><ele>81.6</ele><time>2026-05-02T06:35:34.942Z</time></trkpt><trkpt lat="42.4086182" lon="14.1172936"><ele>81.0</ele><time>2026-05-02T06:35:37.942Z</time></trkpt><trkpt lat="42.4085463" lon="14.1172142"><ele>81.0</ele><time>2026-05-02T06:35:39.942Z</time></trkpt><trkpt lat="42.408443" lon="14.1171184"><ele>81.0</ele><time>2026-05-02T06:35:41.941Z</time></trkpt><trkpt lat="42.4083428" lon="14.1170251"><ele>81.0</ele><time>2026-05-02T06:35:43.942Z</time></trkpt><trkpt lat="42.4082915" lon="14.1169692"><ele>81.0</ele><time>2026-05-02T06:35:44.942Z</time></trkpt><trkpt lat="42.4082431" lon="14.1169131"><ele>81.0</ele><time>2026-05-02T06:35:45.941Z</time></trkpt><trkpt lat="42.4081864" lon="14.1168465"><ele>81.0</ele><time>2026-05-02T06:35:46.943Z</time></trkpt><trkpt lat="42.4081194" lon="14.1167816"><ele>81.0</ele><time>2026-05-02T06:35:47.942Z</time></trkpt><trkpt lat="42.4080451" lon="14.116732"><ele>81.0</ele><time>2026-05-02T06:35:48.94Z</time></trkpt><trkpt lat="42.4079703" lon="14.1166863"><ele>81.0</ele><time>2026-05-02T06:35:49.941Z</time></trkpt><trkpt lat="42.4078999" lon="14.1166506"><ele>81.0</ele><time>2026-05-02T06:35:50.94Z</time></trkpt><trkpt lat="42.4078253" lon="14.1166052"><ele>81.0</ele><time>2026-05-02T06:35:51.942Z</time></trkpt><trkpt lat="42.4077463" lon="14.1165646"><ele>83.8</ele><time>2026-05-02T06:35:52.942Z</time></trkpt><trkpt lat="42.4076528" lon="14.1165248"><ele>86.6</ele><time>2026-05-02T06:35:53.942Z</time></trkpt><trkpt lat="42.4075485" lon="14.1164895"><ele>89.4</ele><time>2026-05-02T06:35:54.942Z</time></trkpt><trkpt lat="42.4074367" lon="14.1164499"><ele>92.2</ele><time>2026-05-02T06:35:55.942Z</time></trkpt><trkpt lat="42.4073362" lon="14.1164082"><ele>95.0</ele><time>2026-05-02T06:35:56.942Z</time></trkpt><trkpt lat="42.4072427" lon="14.1163752"><ele>95.0</ele><time>2026-05-02T06:35:57.941Z</time></trkpt><trkpt lat="42.4071697" lon="14.1163583"><ele>95.0</ele><time>2026-05-02T06:35:58.941Z</time></trkpt><trkpt lat="42.4071063" lon="14.1163421"><ele>95.0</ele><time>2026-05-02T06:35:59.941Z</time></trkpt><trkpt lat="42.4069955" lon="14.1162994"><ele>95.0</ele><time>2026-05-02T06:36:01.94Z</time></trkpt><trkpt lat="42.4068806" lon="14.116222"><ele>95.0</ele><time>2026-05-02T06:36:03.94Z</time></trkpt><trkpt lat="42.4068124" lon="14.1161746"><ele>96.33333333333334</ele><time>2026-05-02T06:36:04.941Z</time></trkpt><trkpt lat="42.4067457" lon="14.1161192"><ele>97.66666666666667</ele><time>2026-05-02T06:36:05.941Z</time></trkpt><trkpt lat="42.4066709" lon="14.1160616"><ele>99.0</ele><time>2026-05-02T06:36:06.943Z</time></trkpt><trkpt lat="42.4065896" lon="14.1160017"><ele>100.33333333333334</ele><time>2026-05-02T06:36:07.941Z</time></trkpt><trkpt lat="42.4065045" lon="14.1159346"><ele>101.66666666666667</ele><time>2026-05-02T06:36:08.942Z</time></trkpt><trkpt lat="42.4064238" lon="14.1158757"><ele>103.0</ele><time>2026-05-02T06:36:09.941Z</time></trkpt><trkpt lat="42.4063378" lon="14.1158191"><ele>103.60000000000001</ele><time>2026-05-02T06:36:10.942Z</time></trkpt><trkpt lat="42.4062502" lon="14.1157634"><ele>104.2</ele><time>2026-05-02T06:36:11.943Z</time></trkpt><trkpt lat="42.4061569" lon="14.1156988"><ele>104.8</ele><time>2026-05-02T06:36:12.941Z</time></trkpt><trkpt lat="42.4060675" lon="14.1156307"><ele>105.4</ele><time>2026-05-02T06:36:13.941Z</time></trkpt><trkpt lat="42.4059884" lon="14.1155709"><ele>106.0</ele><time>2026-05-02T06:36:14.94Z</time></trkpt><trkpt lat="42.405886" lon="14.1154757"><ele>106.6</ele><time>2026-05-02T06:36:16.941Z</time></trkpt><trkpt lat="42.4058037" lon="14.1154005"><ele>107.19999999999999</ele><time>2026-05-02T06:36:18.941Z</time></trkpt><trkpt lat="42.4057176" lon="14.1154184"><ele>107.80000000000001</ele><time>2026-05-02T06:36:20.941Z</time></trkpt><trkpt lat="42.4056584" lon="14.1154505"><ele>108.4</ele><time>2026-05-02T06:36:21.941Z</time></trkpt><trkpt lat="42.4055234" lon="14.115479"><ele>109.0</ele><time>2026-05-02T06:36:23.941Z</time></trkpt><trkpt lat="42.4054236" lon="14.1154876"><ele>107.25</ele><time>2026-05-02T06:36:24.941Z</time></trkpt><trkpt lat="42.4053086" lon="14.1154833"><ele>105.5</ele><time>2026-05-02T06:36:25.943Z</time></trkpt><trkpt lat="42.4051787" lon="14.115478"><ele>103.75</ele><time>2026-05-02T06:36:26.941Z</time></trkpt><trkpt lat="42.4050545" lon="14.1154667"><ele>102.0</ele><time>2026-05-02T06:36:27.942Z</time></trkpt><trkpt lat="42.4049344" lon="14.1154478"><ele>102.0</ele><time>2026-05-02T06:36:28.942Z</time></trkpt><trkpt lat="42.4048183" lon="14.1153784"><ele>102.0</ele><time>2026-05-02T06:36:29.942Z</time></trkpt><trkpt lat="42.4046924" lon="14.1152882"><ele>102.0</ele><time>2026-05-02T06:36:30.942Z</time></trkpt><trkpt lat="42.4045669" lon="14.1151866"><ele>102.0</ele><time>2026-05-02T06:36:31.942Z</time></trkpt><trkpt lat="42.4044444" lon="14.1150789"><ele>101.0</ele><time>2026-05-02T06:36:32.942Z</time></trkpt><trkpt lat="42.4043391" lon="14.1149715"><ele>100.0</ele><time>2026-05-02T06:36:33.941Z</time></trkpt><trkpt lat="42.4042297" lon="14.1148719"><ele>99.0</ele><time>2026-05-02T06:36:34.942Z</time></trkpt><trkpt lat="42.4041317" lon="14.1147842"><ele>98.0</ele><time>2026-05-02T06:36:35.941Z</time></trkpt><trkpt lat="42.4040379" lon="14.1146962"><ele>98.0</ele><time>2026-05-02T06:36:36.942Z</time></trkpt><trkpt lat="42.403959" lon="14.1146068"><ele>98.0</ele><time>2026-05-02T06:36:37.941Z</time></trkpt><trkpt lat="42.4038784" lon="14.1145282"><ele>98.0</ele><time>2026-05-02T06:36:38.941Z</time></trkpt><trkpt lat="42.4038155" lon="14.1144505"><ele>98.0</ele><time>2026-05-02T06:36:39.941Z</time></trkpt><trkpt lat="42.40374" lon="14.1143476"><ele>98.0</ele><time>2026-05-02T06:36:41.942Z</time></trkpt><trkpt lat="42.4036661" lon="14.1142258"><ele>97.99999999999999</ele><time>2026-05-02T06:36:43.941Z</time></trkpt><trkpt lat="42.4036214" lon="14.1141477"><ele>98.0</ele><time>2026-05-02T06:36:44.94Z</time></trkpt><trkpt lat="42.4035872" lon="14.1140644"><ele>98.0</ele><time>2026-05-02T06:36:45.941Z</time></trkpt><trkpt lat="42.4035405" lon="14.113937"><ele>98.0</ele><time>2026-05-02T06:36:47.942Z</time></trkpt><trkpt lat="42.403564" lon="14.114053"><ele>97.99999999999999</ele><time>2026-05-02T06:36:53.941Z</time></trkpt><trkpt lat="42.4036189" lon="14.1141535"><ele>98.0</ele><time>2026-05-02T06:36:54.941Z</time></trkpt><trkpt lat="42.4036869" lon="14.11428"><ele>98.0</ele><time>2026-05-02T06:36:55.94Z</time></trkpt><trkpt lat="42.4037806" lon="14.1144235"><ele>98.0</ele><time>2026-05-02T06:36:56.942Z</time></trkpt><trkpt lat="42.4038948" lon="14.1145722"><ele>98.0</ele><time>2026-05-02T06:36:57.942Z</time></trkpt><trkpt lat="42.4040467" lon="14.1147205"><ele>98.0</ele><time>2026-05-02T06:36:58.941Z</time></trkpt><trkpt lat="42.404192" lon="14.1148579"><ele>98.0</ele><time>2026-05-02T06:36:59.942Z</time></trkpt><trkpt lat="42.4043329" lon="14.1149841"><ele>98.0</ele><time>2026-05-02T06:37:00.941Z</time></trkpt><trkpt lat="42.4044639" lon="14.1150973"><ele>98.0</ele><time>2026-05-02T06:37:01.942Z</time></trkpt><trkpt lat="42.4045857" lon="14.115206"><ele>98.0</ele><time>2026-05-02T06:37:02.941Z</time></trkpt><trkpt lat="42.4046998" lon="14.1152996"><ele>98.0</ele><time>2026-05-02T06:37:03.942Z</time></trkpt><trkpt lat="42.4048222" lon="14.1153848"><ele>98.0</ele><time>2026-05-02T06:37:04.942Z</time></trkpt><trkpt lat="42.4049402" lon="14.1154482"><ele>98.80000000000001</ele><time>2026-05-02T06:37:05.941Z</time></trkpt><trkpt lat="42.4050616" lon="14.1154873"><ele>99.6</ele><time>2026-05-02T06:37:06.941Z</time></trkpt><trkpt lat="42.4051834" lon="14.1155108"><ele>100.4</ele><time>2026-05-02T06:37:07.941Z</time></trkpt><trkpt lat="42.4052787" lon="14.1155063"><ele>101.19999999999999</ele><time>2026-05-02T06:37:08.942Z</time></trkpt><trkpt lat="42.4053563" lon="14.1155112"><ele>102.0</ele><time>2026-05-02T06:37:09.942Z</time></trkpt><trkpt lat="42.4054336" lon="14.1155436"><ele>102.0</ele><time>2026-05-02T06:37:11.942Z</time></trkpt><trkpt lat="42.4054481" lon="14.1156438"><ele>102.0</ele><time>2026-05-02T06:37:13.943Z</time></trkpt><trkpt lat="42.405406" lon="14.1157361"><ele>102.0</ele><time>2026-05-02T06:37:14.941Z</time></trkpt><trkpt lat="42.4053739" lon="14.1158255"><ele>102.0</ele><time>2026-05-02T06:37:15.942Z</time></trkpt><trkpt lat="42.4053096" lon="14.1159357"><ele>102.0</ele><time>2026-05-02T06:37:16.942Z</time></trkpt><trkpt lat="42.4052481" lon="14.1160389"><ele>102.0</ele><time>2026-05-02T06:37:17.942Z</time></trkpt><trkpt lat="42.4051708" lon="14.1161352"><ele>102.0</ele><time>2026-05-02T06:37:18.942Z</time></trkpt><trkpt lat="42.4050932" lon="14.1162369"><ele>102.0</ele><time>2026-05-02T06:37:19.942Z</time></trkpt><trkpt lat="42.4049976" lon="14.1163545"><ele>102.0</ele><time>2026-05-02T06:37:20.94Z</time></trkpt><trkpt lat="42.4049043" lon="14.1164655"><ele>102.0</ele><time>2026-05-02T06:37:21.942Z</time></trkpt><trkpt lat="42.404805" lon="14.1165817"><ele>100.0</ele><time>2026-05-02T06:37:22.942Z</time></trkpt><trkpt lat="42.4047183" lon="14.1166909"><ele>98.0</ele><time>2026-05-02T06:37:23.942Z</time></trkpt><trkpt lat="42.4046249" lon="14.1168112"><ele>96.0</ele><time>2026-05-02T06:37:24.943Z</time></trkpt><trkpt lat="42.4045278" lon="14.1169339"><ele>94.0</ele><time>2026-05-02T06:37:25.942Z</time></trkpt><trkpt lat="42.4044278" lon="14.1170521"><ele>93.0</ele><time>2026-05-02T06:37:26.942Z</time></trkpt><trkpt lat="42.4043306" lon="14.1171674"><ele>92.0</ele><time>2026-05-02T06:37:27.943Z</time></trkpt><trkpt lat="42.4042403" lon="14.117275"><ele>91.0</ele><time>2026-05-02T06:37:28.942Z</time></trkpt><trkpt lat="42.4041491" lon="14.1173845"><ele>90.0</ele><time>2026-05-02T06:37:29.942Z</time></trkpt><trkpt lat="42.4040591" lon="14.1174955"><ele>88.75</ele><time>2026-05-02T06:37:30.942Z</time></trkpt><trkpt lat="42.4039696" lon="14.1176048"><ele>87.5</ele><time>2026-05-02T06:37:31.941Z</time></trkpt><trkpt lat="42.4038805" lon="14.1177163"><ele>86.25</ele><time>2026-05-02T06:37:32.941Z</time></trkpt><trkpt lat="42.4038007" lon="14.1178318"><ele>85.0</ele><time>2026-05-02T06:37:33.941Z</time></trkpt><trkpt lat="42.4037133" lon="14.1179435"><ele>84.25</ele><time>2026-05-02T06:37:34.942Z</time></trkpt><trkpt lat="42.403619" lon="14.1180557"><ele>83.5</ele><time>2026-05-02T06:37:35.942Z</time></trkpt><trkpt lat="42.4035296" lon="14.118163"><ele>82.75</ele><time>2026-05-02T06:37:36.941Z</time></trkpt><trkpt lat="42.4034416" lon="14.1182642"><ele>82.0</ele><time>2026-05-02T06:37:37.941Z</time></trkpt><trkpt lat="42.4033585" lon="14.1183699"><ele>81.5</ele><time>2026-05-02T06:37:38.941Z</time></trkpt><trkpt lat="42.4032787" lon="14.1184773"><ele>81.0</ele><time>2026-05-02T06:37:39.94Z</time></trkpt><trkpt lat="42.4031846" lon="14.1185921"><ele>80.5</ele><time>2026-05-02T06:37:40.942Z</time></trkpt><trkpt lat="42.4030955" lon="14.1187097"><ele>80.0</ele><time>2026-05-02T06:37:41.94Z</time></trkpt><trkpt lat="42.4030123" lon="14.1188171"><ele>79.8</ele><time>2026-05-02T06:37:42.941Z</time></trkpt><trkpt lat="42.4029249" lon="14.1189228"><ele>79.6</ele><time>2026-05-02T06:37:43.941Z</time></trkpt><trkpt lat="42.4028489" lon="14.1190235"><ele>79.4</ele><time>2026-05-02T06:37:44.941Z</time></trkpt><trkpt lat="42.402776" lon="14.1191162"><ele>79.2</ele><time>2026-05-02T06:37:45.941Z</time></trkpt><trkpt lat="42.4026897" lon="14.1192215"><ele>79.0</ele><time>2026-05-02T06:37:46.941Z</time></trkpt><trkpt lat="42.40261" lon="14.1193213"><ele>78.2</ele><time>2026-05-02T06:37:47.941Z</time></trkpt><trkpt lat="42.4025238" lon="14.1194068"><ele>77.4</ele><time>2026-05-02T06:37:48.941Z</time></trkpt><trkpt lat="42.4024338" lon="14.1194915"><ele>76.6</ele><time>2026-05-02T06:37:49.942Z</time></trkpt><trkpt lat="42.4023508" lon="14.1195664"><ele>75.8</ele><time>2026-05-02T06:37:50.941Z</time></trkpt><trkpt lat="42.4022533" lon="14.1196667"><ele>75.0</ele><time>2026-05-02T06:37:51.942Z</time></trkpt><trkpt lat="42.4021502" lon="14.1197628"><ele>74.5</ele><time>2026-05-02T06:37:52.942Z</time></trkpt><trkpt lat="42.4020393" lon="14.1198649"><ele>74.0</ele><time>2026-05-02T06:37:53.942Z</time></trkpt><trkpt lat="42.4019188" lon="14.1199662"><ele>73.5</ele><time>2026-05-02T06:37:54.943Z</time></trkpt><trkpt lat="42.4018124" lon="14.1200568"><ele>73.0</ele><time>2026-05-02T06:37:55.942Z</time></trkpt><trkpt lat="42.4017026" lon="14.1201592"><ele>71.5</ele><time>2026-05-02T06:37:56.943Z</time></trkpt><trkpt lat="42.4015857" lon="14.1202648"><ele>70.0</ele><time>2026-05-02T06:37:57.941Z</time></trkpt><trkpt lat="42.4014718" lon="14.1203732"><ele>68.5</ele><time>2026-05-02T06:37:58.942Z</time></trkpt><trkpt lat="42.4013583" lon="14.1204656"><ele>67.0</ele><time>2026-05-02T06:37:59.942Z</time></trkpt><trkpt lat="42.4012494" lon="14.1205648"><ele>66.5</ele><time>2026-05-02T06:38:00.941Z</time></trkpt><trkpt lat="42.4011442" lon="14.120663"><ele>66.0</ele><time>2026-05-02T06:38:01.941Z</time></trkpt><trkpt lat="42.4010404" lon="14.1207629"><ele>65.5</ele><time>2026-05-02T06:38:02.941Z</time></trkpt><trkpt lat="42.4009503" lon="14.120851"><ele>65.0</ele><time>2026-05-02T06:38:03.941Z</time></trkpt><trkpt lat="42.4008501" lon="14.1209469"><ele>64.75</ele><time>2026-05-02T06:38:04.941Z</time></trkpt><trkpt lat="42.400751" lon="14.1210359"><ele>64.5</ele><time>2026-05-02T06:38:05.942Z</time></trkpt><trkpt lat="42.4006548" lon="14.1211301"><ele>64.25</ele><time>2026-05-02T06:38:06.941Z</time></trkpt><trkpt lat="42.400563" lon="14.1212278"><ele>64.0</ele><time>2026-05-02T06:38:07.942Z</time></trkpt><trkpt lat="42.4004678" lon="14.1213094"><ele>63.400000000000006</ele><time>2026-05-02T06:38:08.942Z</time></trkpt><trkpt lat="42.4003663" lon="14.1213913"><ele>62.800000000000004</ele><time>2026-05-02T06:38:09.941Z</time></trkpt><trkpt lat="42.4002692" lon="14.1214688"><ele>62.199999999999996</ele><time>2026-05-02T06:38:10.942Z</time></trkpt><trkpt lat="42.4001762" lon="14.1215587"><ele>61.599999999999994</ele><time>2026-05-02T06:38:11.942Z</time></trkpt><trkpt lat="42.4001076" lon="14.1216635"><ele>61.0</ele><time>2026-05-02T06:38:12.941Z</time></trkpt><trkpt lat="42.4000409" lon="14.1217792"><ele>61.0</ele><time>2026-05-02T06:38:13.943Z</time></trkpt><trkpt lat="42.3999823" lon="14.1219224"><ele>61.0</ele><time>2026-05-02T06:38:14.942Z</time></trkpt><trkpt lat="42.3999252" lon="14.1220855"><ele>61.0</ele><time>2026-05-02T06:38:15.941Z</time></trkpt><trkpt lat="42.399868" lon="14.122248"><ele>61.0</ele><time>2026-05-02T06:38:16.942Z</time></trkpt><trkpt lat="42.3998122" lon="14.1223891"><ele>61.0</ele><time>2026-05-02T06:38:17.941Z</time></trkpt><trkpt lat="42.3997647" lon="14.1225248"><ele>60.99999999999999</ele><time>2026-05-02T06:38:18.942Z</time></trkpt><trkpt lat="42.3997356" lon="14.1226523"><ele>60.99999999999999</ele><time>2026-05-02T06:38:19.941Z</time></trkpt><trkpt lat="42.3997203" lon="14.1227863"><ele>61.0</ele><time>2026-05-02T06:38:20.941Z</time></trkpt><trkpt lat="42.3997266" lon="14.1229371"><ele>61.0</ele><time>2026-05-02T06:38:21.942Z</time></trkpt><trkpt lat="42.3997403" lon="14.1230922"><ele>61.0</ele><time>2026-05-02T06:38:22.942Z</time></trkpt><trkpt lat="42.3997519" lon="14.1232303"><ele>61.0</ele><time>2026-05-02T06:38:23.943Z</time></trkpt><trkpt lat="42.3997415" lon="14.1233623"><ele>61.0</ele><time>2026-05-02T06:38:24.941Z</time></trkpt><trkpt lat="42.3997013" lon="14.123512"><ele>61.0</ele><time>2026-05-02T06:38:25.941Z</time></trkpt><trkpt lat="42.3996402" lon="14.1236793"><ele>58.666666666666664</ele><time>2026-05-02T06:38:26.942Z</time></trkpt><trkpt lat="42.3995658" lon="14.1238587"><ele>56.33333333333333</ele><time>2026-05-02T06:38:27.942Z</time></trkpt><trkpt lat="42.3994923" lon="14.1240447"><ele>54.0</ele><time>2026-05-02T06:38:28.942Z</time></trkpt><trkpt lat="42.3994163" lon="14.1242168"><ele>53.33333333333333</ele><time>2026-05-02T06:38:29.941Z</time></trkpt><trkpt lat="42.3993327" lon="14.1243969"><ele>52.666666666666664</ele><time>2026-05-02T06:38:30.941Z</time></trkpt><trkpt lat="42.3992466" lon="14.1245701"><ele>52.0</ele><time>2026-05-02T06:38:31.942Z</time></trkpt><trkpt lat="42.3991584" lon="14.1247352"><ele>52.0</ele><time>2026-05-02T06:38:32.943Z</time></trkpt><trkpt lat="42.3990678" lon="14.1248941"><ele>52.0</ele><time>2026-05-02T06:38:33.942Z</time></trkpt><trkpt lat="42.3989834" lon="14.1250391"><ele>52.0</ele><time>2026-05-02T06:38:34.941Z</time></trkpt><trkpt lat="42.3988953" lon="14.1251604"><ele>52.0</ele><time>2026-05-02T06:38:35.942Z</time></trkpt><trkpt lat="42.3987938" lon="14.1252564"><ele>50.25</ele><time>2026-05-02T06:38:36.942Z</time></trkpt><trkpt lat="42.3986871" lon="14.1253108"><ele>48.5</ele><time>2026-05-02T06:38:37.942Z</time></trkpt><trkpt lat="42.3985691" lon="14.1253371"><ele>46.75</ele><time>2026-05-02T06:38:38.941Z</time></trkpt><trkpt lat="42.3984439" lon="14.125338"><ele>45.0</ele><time>2026-05-02T06:38:39.942Z</time></trkpt><trkpt lat="42.3983161" lon="14.125317"><ele>45.0</ele><time>2026-05-02T06:38:40.941Z</time></trkpt><trkpt lat="42.3981891" lon="14.1252819"><ele>45.0</ele><time>2026-05-02T06:38:41.941Z</time></trkpt><trkpt lat="42.3980719" lon="14.1252697"><ele>45.0</ele><time>2026-05-02T06:38:42.943Z</time></trkpt><trkpt lat="42.3979571" lon="14.1252846"><ele>45.0</ele><time>2026-05-02T06:38:43.942Z</time></trkpt><trkpt lat="42.3978557" lon="14.1253414"><ele>45.2</ele><time>2026-05-02T06:38:44.94Z</time></trkpt><trkpt lat="42.3977741" lon="14.1254318"><ele>45.4</ele><time>2026-05-02T06:38:45.942Z</time></trkpt><trkpt lat="42.3977094" lon="14.1255577"><ele>45.599999999999994</ele><time>2026-05-02T06:38:46.942Z</time></trkpt><trkpt lat="42.3976469" lon="14.1256958"><ele>45.8</ele><time>2026-05-02T06:38:47.942Z</time></trkpt><trkpt lat="42.3975854" lon="14.1258091"><ele>46.0</ele><time>2026-05-02T06:38:48.941Z</time></trkpt><trkpt lat="42.3975182" lon="14.1259122"><ele>46.8</ele><time>2026-05-02T06:38:49.941Z</time></trkpt><trkpt lat="42.3974376" lon="14.1259988"><ele>47.599999999999994</ele><time>2026-05-02T06:38:50.942Z</time></trkpt><trkpt lat="42.3973422" lon="14.1260656"><ele>48.4</ele><time>2026-05-02T06:38:51.942Z</time></trkpt><trkpt lat="42.3972397" lon="14.1261206"><ele>49.2</ele><time>2026-05-02T06:38:52.942Z</time></trkpt><trkpt lat="42.397143" lon="14.1261636"><ele>50.0</ele><time>2026-05-02T06:38:53.942Z</time></trkpt><trkpt lat="42.3970424" lon="14.1262103"><ele>51.0</ele><time>2026-05-02T06:38:54.941Z</time></trkpt><trkpt lat="42.396937" lon="14.1262484"><ele>52.0</ele><time>2026-05-02T06:38:55.942Z</time></trkpt><trkpt lat="42.3968278" lon="14.1262994"><ele>53.0</ele><time>2026-05-02T06:38:56.941Z</time></trkpt><trkpt lat="42.3967124" lon="14.126353"><ele>54.0</ele><time>2026-05-02T06:38:57.942Z</time></trkpt><trkpt lat="42.3965906" lon="14.1264022"><ele>54.0</ele><time>2026-05-02T06:38:58.941Z</time></trkpt><trkpt lat="42.3964652" lon="14.1264536"><ele>54.0</ele><time>2026-05-02T06:38:59.942Z</time></trkpt><trkpt lat="42.3963357" lon="14.1264987"><ele>54.0</ele><time>2026-05-02T06:39:00.943Z</time></trkpt><trkpt lat="42.3962051" lon="14.1265331"><ele>54.0</ele><time>2026-05-02T06:39:01.941Z</time></trkpt><trkpt lat="42.3960608" lon="14.1265556"><ele>54.0</ele><time>2026-05-02T06:39:02.941Z</time></trkpt><trkpt lat="42.3959177" lon="14.1265866"><ele>54.0</ele><time>2026-05-02T06:39:03.941Z</time></trkpt><trkpt lat="42.3957732" lon="14.1266267"><ele>54.0</ele><time>2026-05-02T06:39:04.94Z</time></trkpt><trkpt lat="42.3956242" lon="14.1266578"><ele>54.0</ele><time>2026-05-02T06:39:05.941Z</time></trkpt><trkpt lat="42.3954711" lon="14.1266903"><ele>54.0</ele><time>2026-05-02T06:39:06.942Z</time></trkpt><trkpt lat="42.3953198" lon="14.1267179"><ele>54.0</ele><time>2026-05-02T06:39:07.941Z</time></trkpt><trkpt lat="42.3951666" lon="14.1267455"><ele>54.0</ele><time>2026-05-02T06:39:08.941Z</time></trkpt><trkpt lat="42.3950134" lon="14.1267766"><ele>54.0</ele><time>2026-05-02T06:39:09.941Z</time></trkpt><trkpt lat="42.3948614" lon="14.1268071"><ele>54.0</ele><time>2026-05-02T06:39:10.943Z</time></trkpt><trkpt lat="42.3947073" lon="14.1268457"><ele>54.0</ele><time>2026-05-02T06:39:11.941Z</time></trkpt><trkpt lat="42.3945541" lon="14.1268784"><ele>55.0</ele><time>2026-05-02T06:39:12.943Z</time></trkpt><trkpt lat="42.3944034" lon="14.1269083"><ele>56.0</ele><time>2026-05-02T06:39:13.943Z</time></trkpt><trkpt lat="42.3942489" lon="14.1269329"><ele>57.0</ele><time>2026-05-02T06:39:14.94Z</time></trkpt><trkpt lat="42.3940985" lon="14.1269626"><ele>57.0</ele><time>2026-05-02T06:39:15.94Z</time></trkpt><trkpt lat="42.3939457" lon="14.126996"><ele>57.0</ele><time>2026-05-02T06:39:16.942Z</time></trkpt><trkpt lat="42.3937966" lon="14.1270486"><ele>57.0</ele><time>2026-05-02T06:39:17.942Z</time></trkpt><trkpt lat="42.3936537" lon="14.1271253"><ele>56.33333333333333</ele><time>2026-05-02T06:39:18.943Z</time></trkpt><trkpt lat="42.3935166" lon="14.1272254"><ele>55.666666666666664</ele><time>2026-05-02T06:39:19.942Z</time></trkpt><trkpt lat="42.3933861" lon="14.1273542"><ele>55.0</ele><time>2026-05-02T06:39:20.942Z</time></trkpt><trkpt lat="42.3932574" lon="14.1274937"><ele>54.666666666666664</ele><time>2026-05-02T06:39:21.941Z</time></trkpt><trkpt lat="42.3931308" lon="14.1276417"><ele>54.33333333333333</ele><time>2026-05-02T06:39:22.942Z</time></trkpt><trkpt lat="42.393003" lon="14.1277929"><ele>54.0</ele><time>2026-05-02T06:39:23.942Z</time></trkpt><trkpt lat="42.3928777" lon="14.1279449"><ele>54.0</ele><time>2026-05-02T06:39:24.941Z</time></trkpt><trkpt lat="42.3927511" lon="14.1281047"><ele>54.0</ele><time>2026-05-02T06:39:25.943Z</time></trkpt><trkpt lat="42.3926284" lon="14.1282687"><ele>54.0</ele><time>2026-05-02T06:39:26.942Z</time></trkpt><trkpt lat="42.3925118" lon="14.12843"><ele>54.0</ele><time>2026-05-02T06:39:27.941Z</time></trkpt><trkpt lat="42.3923997" lon="14.1285915"><ele>54.0</ele><time>2026-05-02T06:39:28.941Z</time></trkpt><trkpt lat="42.3922926" lon="14.1287486"><ele>54.0</ele><time>2026-05-02T06:39:29.942Z</time></trkpt><trkpt lat="42.3921935" lon="14.1288975"><ele>54.25</ele><time>2026-05-02T06:39:30.942Z</time></trkpt><trkpt lat="42.3920935" lon="14.1290441"><ele>54.5</ele><time>2026-05-02T06:39:31.94Z</time></trkpt><trkpt lat="42.3920018" lon="14.1291769"><ele>54.75</ele><time>2026-05-02T06:39:32.941Z</time></trkpt><trkpt lat="42.3919183" lon="14.1292925"><ele>55.0</ele><time>2026-05-02T06:39:33.941Z</time></trkpt><trkpt lat="42.391838" lon="14.1293836"><ele>55.0</ele><time>2026-05-02T06:39:34.941Z</time></trkpt><trkpt lat="42.3917612" lon="14.1294585"><ele>55.0</ele><time>2026-05-02T06:39:35.942Z</time></trkpt><trkpt lat="42.3916802" lon="14.1295102"><ele>55.0</ele><time>2026-05-02T06:39:36.942Z</time></trkpt><trkpt lat="42.3915914" lon="14.1295293"><ele>55.0</ele><time>2026-05-02T06:39:37.941Z</time></trkpt><trkpt lat="42.3914915" lon="14.1295178"><ele>55.0</ele><time>2026-05-02T06:39:38.942Z</time></trkpt><trkpt lat="42.3913813" lon="14.1294855"><ele>51.75</ele><time>2026-05-02T06:39:39.941Z</time></trkpt><trkpt lat="42.3912618" lon="14.1294503"><ele>48.5</ele><time>2026-05-02T06:39:40.941Z</time></trkpt><trkpt lat="42.3911293" lon="14.1294174"><ele>45.25</ele><time>2026-05-02T06:39:41.941Z</time></trkpt><trkpt lat="42.3909955" lon="14.1294085"><ele>42.0</ele><time>2026-05-02T06:39:42.941Z</time></trkpt><trkpt lat="42.3908537" lon="14.129424"><ele>42.0</ele><time>2026-05-02T06:39:43.943Z</time></trkpt><trkpt lat="42.3907079" lon="14.1294676"><ele>42.0</ele><time>2026-05-02T06:39:44.941Z</time></trkpt><trkpt lat="42.3905642" lon="14.1295189"><ele>42.0</ele><time>2026-05-02T06:39:45.942Z</time></trkpt><trkpt lat="42.3904228" lon="14.1295748"><ele>42.0</ele><time>2026-05-02T06:39:46.941Z</time></trkpt><trkpt lat="42.3902774" lon="14.1296348"><ele>39.0</ele><time>2026-05-02T06:39:47.941Z</time></trkpt><trkpt lat="42.3901423" lon="14.1296871"><ele>36.0</ele><time>2026-05-02T06:39:48.941Z</time></trkpt><trkpt lat="42.3900149" lon="14.1297448"><ele>33.0</ele><time>2026-05-02T06:39:49.942Z</time></trkpt><trkpt lat="42.3899067" lon="14.1297988"><ele>30.0</ele><time>2026-05-02T06:39:50.941Z</time></trkpt><trkpt lat="42.389809" lon="14.1298346"><ele>30.0</ele><time>2026-05-02T06:39:51.941Z</time></trkpt><trkpt lat="42.3897272" lon="14.1298563"><ele>30.0</ele><time>2026-05-02T06:39:52.943Z</time></trkpt><trkpt lat="42.3896634" lon="14.1298667"><ele>30.0</ele><time>2026-05-02T06:39:53.941Z</time></trkpt><trkpt lat="42.3895941" lon="14.1298705"><ele>30.0</ele><time>2026-05-02T06:39:55.942Z</time></trkpt><trkpt lat="42.3895029" lon="14.129869"><ele>30.0</ele><time>2026-05-02T06:40:00.942Z</time></trkpt><trkpt lat="42.3894314" lon="14.1299509"><ele>30.0</ele><time>2026-05-02T06:40:02.941Z</time></trkpt><trkpt lat="42.3893807" lon="14.1300206"><ele>30.0</ele><time>2026-05-02T06:40:03.943Z</time></trkpt><trkpt lat="42.3893158" lon="14.1300935"><ele>30.0</ele><time>2026-05-02T06:40:04.942Z</time></trkpt><trkpt lat="42.3892394" lon="14.1301646"><ele>30.0</ele><time>2026-05-02T06:40:05.941Z</time></trkpt><trkpt lat="42.3891455" lon="14.1302262"><ele>30.0</ele><time>2026-05-02T06:40:06.94Z</time></trkpt><trkpt lat="42.3890618" lon="14.1302949"><ele>30.0</ele><time>2026-05-02T06:40:07.942Z</time></trkpt><trkpt lat="42.3889818" lon="14.1303603"><ele>30.0</ele><time>2026-05-02T06:40:08.941Z</time></trkpt><trkpt lat="42.3888957" lon="14.1304318"><ele>30.0</ele><time>2026-05-02T06:40:09.943Z</time></trkpt><trkpt lat="42.3888171" lon="14.1304963"><ele>30.0</ele><time>2026-05-02T06:40:10.941Z</time></trkpt><trkpt lat="42.3887459" lon="14.1305503"><ele>30.0</ele><time>2026-05-02T06:40:11.942Z</time></trkpt><trkpt lat="42.3886828" lon="14.1305957"><ele>30.0</ele><time>2026-05-02T06:40:12.941Z</time></trkpt><trkpt lat="42.3885972" lon="14.1306492"><ele>30.0</ele><time>2026-05-02T06:40:14.943Z</time></trkpt><trkpt lat="42.3885192" lon="14.1306652"><ele>30.0</ele><time>2026-05-02T06:40:16.942Z</time></trkpt><trkpt lat="42.388446" lon="14.1306501"><ele>30.0</ele><time>2026-05-02T06:40:17.942Z</time></trkpt><trkpt lat="42.3883676" lon="14.1306053"><ele>30.0</ele><time>2026-05-02T06:40:18.942Z</time></trkpt><trkpt lat="42.388291" lon="14.1305505"><ele>30.0</ele><time>2026-05-02T06:40:19.94Z</time></trkpt><trkpt lat="42.3882209" lon="14.1304975"><ele>30.0</ele><time>2026-05-02T06:40:20.941Z</time></trkpt><trkpt lat="42.3881459" lon="14.1304386"><ele>30.0</ele><time>2026-05-02T06:40:21.942Z</time></trkpt><trkpt lat="42.3880754" lon="14.1303942"><ele>30.4</ele><time>2026-05-02T06:40:22.941Z</time></trkpt><trkpt lat="42.3879881" lon="14.1303701"><ele>30.8</ele><time>2026-05-02T06:40:23.943Z</time></trkpt><trkpt lat="42.3878855" lon="14.1303313"><ele>31.200000000000003</ele><time>2026-05-02T06:40:24.941Z</time></trkpt><trkpt lat="42.3877819" lon="14.1302641"><ele>31.6</ele><time>2026-05-02T06:40:25.941Z</time></trkpt><trkpt lat="42.3876663" lon="14.1301602"><ele>32.0</ele><time>2026-05-02T06:40:26.942Z</time></trkpt><trkpt lat="42.3875499" lon="14.1300507"><ele>32.0</ele><time>2026-05-02T06:40:27.94Z</time></trkpt><trkpt lat="42.3874379" lon="14.1299418"><ele>32.0</ele><time>2026-05-02T06:40:28.941Z</time></trkpt><trkpt lat="42.3873218" lon="14.1298371"><ele>32.0</ele><time>2026-05-02T06:40:29.943Z</time></trkpt><trkpt lat="42.3872028" lon="14.1297248"><ele>32.0</ele><time>2026-05-02T06:40:30.941Z</time></trkpt><trkpt lat="42.3870837" lon="14.1296023"><ele>32.33333333333333</ele><time>2026-05-02T06:40:31.942Z</time></trkpt><trkpt lat="42.3869692" lon="14.1294775"><ele>32.666666666666664</ele><time>2026-05-02T06:40:32.942Z</time></trkpt><trkpt lat="42.386858" lon="14.1293403"><ele>33.0</ele><time>2026-05-02T06:40:33.941Z</time></trkpt><trkpt lat="42.3867529" lon="14.1291855"><ele>34.333333333333336</ele><time>2026-05-02T06:40:34.941Z</time></trkpt><trkpt lat="42.3866578" lon="14.1290288"><ele>35.66666666666667</ele><time>2026-05-02T06:40:35.941Z</time></trkpt><trkpt lat="42.3865588" lon="14.1288707"><ele>37.0</ele><time>2026-05-02T06:40:36.941Z</time></trkpt><trkpt lat="42.3864629" lon="14.1287118"><ele>37.0</ele><time>2026-05-02T06:40:37.942Z</time></trkpt><trkpt lat="42.3863659" lon="14.1285589"><ele>37.0</ele><time>2026-05-02T06:40:38.942Z</time></trkpt><trkpt lat="42.3862577" lon="14.1284159"><ele>37.0</ele><time>2026-05-02T06:40:39.941Z</time></trkpt><trkpt lat="42.3861439" lon="14.1282862"><ele>37.0</ele><time>2026-05-02T06:40:40.941Z</time></trkpt><trkpt lat="42.3860165" lon="14.128164"><ele>36.66666666666667</ele><time>2026-05-02T06:40:41.941Z</time></trkpt><trkpt lat="42.3858944" lon="14.1280429"><ele>36.333333333333336</ele><time>2026-05-02T06:40:42.941Z</time></trkpt><trkpt lat="42.3857636" lon="14.1279172"><ele>36.0</ele><time>2026-05-02T06:40:43.942Z</time></trkpt><trkpt lat="42.3856388" lon="14.1277913"><ele>36.0</ele><time>2026-05-02T06:40:44.941Z</time></trkpt><trkpt lat="42.3855149" lon="14.1276622"><ele>36.0</ele><time>2026-05-02T06:40:45.943Z</time></trkpt><trkpt lat="42.3853923" lon="14.1275317"><ele>36.0</ele><time>2026-05-02T06:40:46.941Z</time></trkpt><trkpt lat="42.3852664" lon="14.1274028"><ele>39.0</ele><time>2026-05-02T06:40:47.942Z</time></trkpt><trkpt lat="42.3851403" lon="14.1272881"><ele>42.0</ele><time>2026-05-02T06:40:48.942Z</time></trkpt><trkpt lat="42.3850134" lon="14.127186"><ele>45.0</ele><time>2026-05-02T06:40:49.942Z</time></trkpt><trkpt lat="42.384869" lon="14.1271069"><ele>45.0</ele><time>2026-05-02T06:40:50.943Z</time></trkpt><trkpt lat="42.3847123" lon="14.1270402"><ele>45.0</ele><time>2026-05-02T06:40:51.941Z</time></trkpt><trkpt lat="42.3845605" lon="14.1269816"><ele>45.0</ele><time>2026-05-02T06:40:52.942Z</time></trkpt><trkpt lat="42.3844066" lon="14.126921"><ele>44.0</ele><time>2026-05-02T06:40:53.942Z</time></trkpt><trkpt lat="42.3842565" lon="14.126858"><ele>43.0</ele><time>2026-05-02T06:40:54.941Z</time></trkpt><trkpt lat="42.3841043" lon="14.1267885"><ele>42.0</ele><time>2026-05-02T06:40:55.941Z</time></trkpt><trkpt lat="42.3839608" lon="14.1267085"><ele>41.666666666666664</ele><time>2026-05-02T06:40:56.942Z</time></trkpt><trkpt lat="42.3838185" lon="14.1266297"><ele>41.33333333333333</ele><time>2026-05-02T06:40:57.941Z</time></trkpt><trkpt lat="42.3836806" lon="14.1265376"><ele>41.0</ele><time>2026-05-02T06:40:58.94Z</time></trkpt><trkpt lat="42.3835392" lon="14.126462"><ele>44.0</ele><time>2026-05-02T06:40:59.942Z</time></trkpt><trkpt lat="42.383403" lon="14.1264117"><ele>47.0</ele><time>2026-05-02T06:41:00.942Z</time></trkpt><trkpt lat="42.3832674" lon="14.1263867"><ele>50.0</ele><time>2026-05-02T06:41:01.94Z</time></trkpt><trkpt lat="42.3831297" lon="14.1263799"><ele>53.0</ele><time>2026-05-02T06:41:02.941Z</time></trkpt><trkpt lat="42.3829876" lon="14.1263754"><ele>53.0</ele><time>2026-05-02T06:41:03.941Z</time></trkpt><trkpt lat="42.3828475" lon="14.1263595"><ele>53.0</ele><time>2026-05-02T06:41:04.942Z</time></trkpt><trkpt lat="42.3827132" lon="14.1263271"><ele>53.0</ele><time>2026-05-02T06:41:05.941Z</time></trkpt><trkpt lat="42.3825809" lon="14.1262712"><ele>53.0</ele><time>2026-05-02T06:41:06.941Z</time></trkpt><trkpt lat="42.3824534" lon="14.1261903"><ele>53.0</ele><time>2026-05-02T06:41:07.942Z</time></trkpt><trkpt lat="42.3823235" lon="14.1260966"><ele>53.0</ele><time>2026-05-02T06:41:08.942Z</time></trkpt><trkpt lat="42.3821952" lon="14.1259848"><ele>53.0</ele><time>2026-05-02T06:41:09.942Z</time></trkpt><trkpt lat="42.3820665" lon="14.1258662"><ele>53.0</ele><time>2026-05-02T06:41:10.941Z</time></trkpt><trkpt lat="42.3819362" lon="14.1257485"><ele>53.0</ele><time>2026-05-02T06:41:11.941Z</time></trkpt><trkpt lat="42.381801" lon="14.1256342"><ele>53.0</ele><time>2026-05-02T06:41:12.943Z</time></trkpt><trkpt lat="42.3816637" lon="14.1255233"><ele>53.0</ele><time>2026-05-02T06:41:13.942Z</time></trkpt><trkpt lat="42.3815216" lon="14.1254205"><ele>53.0</ele><time>2026-05-02T06:41:14.941Z</time></trkpt><trkpt lat="42.381373" lon="14.1253181"><ele>53.0</ele><time>2026-05-02T06:41:15.941Z</time></trkpt><trkpt lat="42.3812248" lon="14.1252164"><ele>51.333333333333336</ele><time>2026-05-02T06:41:16.941Z</time></trkpt><trkpt lat="42.3810796" lon="14.1251148"><ele>49.66666666666667</ele><time>2026-05-02T06:41:17.94Z</time></trkpt><trkpt lat="42.3809372" lon="14.1250144"><ele>48.0</ele><time>2026-05-02T06:41:18.942Z</time></trkpt><trkpt lat="42.3807961" lon="14.1249137"><ele>49.33333333333333</ele><time>2026-05-02T06:41:19.941Z</time></trkpt><trkpt lat="42.3806599" lon="14.1248133"><ele>50.666666666666664</ele><time>2026-05-02T06:41:20.942Z</time></trkpt><trkpt lat="42.3805237" lon="14.1246989"><ele>52.0</ele><time>2026-05-02T06:41:21.943Z</time></trkpt><trkpt lat="42.3803919" lon="14.1246009"><ele>52.0</ele><time>2026-05-02T06:41:22.941Z</time></trkpt><trkpt lat="42.3802674" lon="14.1245093"><ele>52.0</ele><time>2026-05-02T06:41:23.942Z</time></trkpt><trkpt lat="42.3801481" lon="14.1244223"><ele>52.0</ele><time>2026-05-02T06:41:24.941Z</time></trkpt><trkpt lat="42.3800396" lon="14.1243428"><ele>52.0</ele><time>2026-05-02T06:41:25.941Z</time></trkpt><trkpt lat="42.3799431" lon="14.1242657"><ele>51.99999999999999</ele><time>2026-05-02T06:41:26.943Z</time></trkpt><trkpt lat="42.3798743" lon="14.1241798"><ele>52.0</ele><time>2026-05-02T06:41:27.941Z</time></trkpt><trkpt lat="42.3798307" lon="14.1240859"><ele>52.0</ele><time>2026-05-02T06:41:28.942Z</time></trkpt><trkpt lat="42.3798075" lon="14.1239799"><ele>52.0</ele><time>2026-05-02T06:41:29.941Z</time></trkpt><trkpt lat="42.379774" lon="14.1238829"><ele>51.99999999999999</ele><time>2026-05-02T06:41:30.942Z</time></trkpt><trkpt lat="42.3797208" lon="14.1238058"><ele>52.0</ele><time>2026-05-02T06:41:31.943Z</time></trkpt><trkpt lat="42.3796544" lon="14.1237609"><ele>53.400000000000006</ele><time>2026-05-02T06:41:32.942Z</time></trkpt><trkpt lat="42.3795685" lon="14.1237457"><ele>54.800000000000004</ele><time>2026-05-02T06:41:33.94Z</time></trkpt><trkpt lat="42.3794667" lon="14.1237266"><ele>56.2</ele><time>2026-05-02T06:41:34.942Z</time></trkpt><trkpt lat="42.3793485" lon="14.1236928"><ele>57.6</ele><time>2026-05-02T06:41:35.941Z</time></trkpt><trkpt lat="42.379222" lon="14.1236502"><ele>59.0</ele><time>2026-05-02T06:41:36.941Z</time></trkpt><trkpt lat="42.3790822" lon="14.1236144"><ele>59.0</ele><time>2026-05-02T06:41:37.941Z</time></trkpt><trkpt lat="42.3789331" lon="14.1235867"><ele>59.0</ele><time>2026-05-02T06:41:38.941Z</time></trkpt><trkpt lat="42.3787849" lon="14.1235591"><ele>59.0</ele><time>2026-05-02T06:41:39.94Z</time></trkpt><trkpt lat="42.3786342" lon="14.1235331"><ele>58.0</ele><time>2026-05-02T06:41:40.942Z</time></trkpt><trkpt lat="42.3784855" lon="14.1235082"><ele>57.0</ele><time>2026-05-02T06:41:41.942Z</time></trkpt><trkpt lat="42.3783437" lon="14.1234844"><ele>56.0</ele><time>2026-05-02T06:41:42.94Z</time></trkpt><trkpt lat="42.3782075" lon="14.1234642"><ele>55.0</ele><time>2026-05-02T06:41:43.941Z</time></trkpt><trkpt lat="42.3780761" lon="14.1234438"><ele>52.75</ele><time>2026-05-02T06:41:44.94Z</time></trkpt><trkpt lat="42.377948" lon="14.1234238"><ele>50.5</ele><time>2026-05-02T06:41:45.941Z</time></trkpt><trkpt lat="42.3778173" lon="14.1234058"><ele>48.25</ele><time>2026-05-02T06:41:46.942Z</time></trkpt><trkpt lat="42.3776915" lon="14.1233827"><ele>46.0</ele><time>2026-05-02T06:41:47.941Z</time></trkpt><trkpt lat="42.3775758" lon="14.1233612"><ele>46.0</ele><time>2026-05-02T06:41:48.942Z</time></trkpt><trkpt lat="42.3774615" lon="14.123352"><ele>46.0</ele><time>2026-05-02T06:41:49.942Z</time></trkpt><trkpt lat="42.3773508" lon="14.1233659"><ele>46.0</ele><time>2026-05-02T06:41:50.941Z</time></trkpt><trkpt lat="42.3772546" lon="14.1234227"><ele>46.0</ele><time>2026-05-02T06:41:51.942Z</time></trkpt><trkpt lat="42.3771726" lon="14.1234942"><ele>46.0</ele><time>2026-05-02T06:41:52.942Z</time></trkpt><trkpt lat="42.3771062" lon="14.1235904"><ele>45.599999999999994</ele><time>2026-05-02T06:41:53.942Z</time></trkpt><trkpt lat="42.3770428" lon="14.1237081"><ele>45.2</ele><time>2026-05-02T06:41:54.942Z</time></trkpt><trkpt lat="42.3769738" lon="14.1238217"><ele>44.8</ele><time>2026-05-02T06:41:55.941Z</time></trkpt><trkpt lat="42.3769044" lon="14.1239297"><ele>44.400000000000006</ele><time>2026-05-02T06:41:56.941Z</time></trkpt><trkpt lat="42.3768304" lon="14.1240164"><ele>44.0</ele><time>2026-05-02T06:41:57.941Z</time></trkpt><trkpt lat="42.3767544" lon="14.1240906"><ele>42.800000000000004</ele><time>2026-05-02T06:41:58.941Z</time></trkpt><trkpt lat="42.3766755" lon="14.1241462"><ele>41.6</ele><time>2026-05-02T06:41:59.942Z</time></trkpt><trkpt lat="42.3765946" lon="14.1241885"><ele>40.4</ele><time>2026-05-02T06:42:00.942Z</time></trkpt><trkpt lat="42.3765004" lon="14.1241875"><ele>39.2</ele><time>2026-05-02T06:42:01.941Z</time></trkpt><trkpt lat="42.3763939" lon="14.1241682"><ele>38.0</ele><time>2026-05-02T06:42:02.943Z</time></trkpt><trkpt lat="42.376285" lon="14.1241192"><ele>38.0</ele><time>2026-05-02T06:42:03.941Z</time></trkpt><trkpt lat="42.3761676" lon="14.1240634"><ele>38.0</ele><time>2026-05-02T06:42:04.942Z</time></trkpt><trkpt lat="42.3760371" lon="14.1240207"><ele>38.0</ele><time>2026-05-02T06:42:05.941Z</time></trkpt><trkpt lat="42.3759126" lon="14.1239757"><ele>38.0</ele><time>2026-05-02T06:42:06.94Z</time></trkpt><trkpt lat="42.3757892" lon="14.1239246"><ele>38.25</ele><time>2026-05-02T06:42:07.941Z</time></trkpt><trkpt lat="42.3756715" lon="14.1238662"><ele>38.5</ele><time>2026-05-02T06:42:08.942Z</time></trkpt><trkpt lat="42.3755593" lon="14.1237975"><ele>38.75</ele><time>2026-05-02T06:42:09.941Z</time></trkpt><trkpt lat="42.3754526" lon="14.1237242"><ele>39.0</ele><time>2026-05-02T06:42:10.941Z</time></trkpt><trkpt lat="42.3753488" lon="14.1236473"><ele>39.0</ele><time>2026-05-02T06:42:11.941Z</time></trkpt><trkpt lat="42.3752493" lon="14.1235701"><ele>39.0</ele><time>2026-05-02T06:42:12.942Z</time></trkpt><trkpt lat="42.3751539" lon="14.1234919"><ele>39.0</ele><time>2026-05-02T06:42:13.941Z</time></trkpt><trkpt lat="42.3750668" lon="14.1234211"><ele>39.0</ele><time>2026-05-02T06:42:14.941Z</time></trkpt><trkpt lat="42.3749853" lon="14.1233513"><ele>39.0</ele><time>2026-05-02T06:42:15.943Z</time></trkpt><trkpt lat="42.3749105" lon="14.1232895"><ele>39.333333333333336</ele><time>2026-05-02T06:42:16.94Z</time></trkpt><trkpt lat="42.3748436" lon="14.1232303"><ele>39.666666666666664</ele><time>2026-05-02T06:42:17.94Z</time></trkpt><trkpt lat="42.3747823" lon="14.1231758"><ele>40.0</ele><time>2026-05-02T06:42:18.94Z</time></trkpt><trkpt lat="42.3747267" lon="14.1231244"><ele>40.33333333333333</ele><time>2026-05-02T06:42:19.942Z</time></trkpt><trkpt lat="42.3746407" lon="14.1230566"><ele>40.666666666666664</ele><time>2026-05-02T06:42:21.942Z</time></trkpt><trkpt lat="42.3745717" lon="14.1230169"><ele>41.0</ele><time>2026-05-02T06:42:23.941Z</time></trkpt><trkpt lat="42.37451" lon="14.1229642"><ele>41.0</ele><time>2026-05-02T06:42:31.941Z</time></trkpt><trkpt lat="42.3744125" lon="14.1228653"><ele>41.0</ele><time>2026-05-02T06:42:33.941Z</time></trkpt><trkpt lat="42.3743566" lon="14.122806"><ele>41.0</ele><time>2026-05-02T06:42:34.942Z</time></trkpt><trkpt lat="42.3742993" lon="14.1227432"><ele>41.0</ele><time>2026-05-02T06:42:35.942Z</time></trkpt><trkpt lat="42.374241" lon="14.1226779"><ele>41.0</ele><time>2026-05-02T06:42:36.941Z</time></trkpt><trkpt lat="42.3741667" lon="14.122612"><ele>41.0</ele><time>2026-05-02T06:42:37.94Z</time></trkpt><trkpt lat="42.3740772" lon="14.1225689"><ele>41.0</ele><time>2026-05-02T06:42:38.941Z</time></trkpt><trkpt lat="42.3739687" lon="14.1225245"><ele>41.0</ele><time>2026-05-02T06:42:39.94Z</time></trkpt><trkpt lat="42.3738678" lon="14.1224598"><ele>41.0</ele><time>2026-05-02T06:42:40.94Z</time></trkpt><trkpt lat="42.3737602" lon="14.1223865"><ele>41.0</ele><time>2026-05-02T06:42:41.94Z</time></trkpt><trkpt lat="42.3736465" lon="14.1223049"><ele>41.0</ele><time>2026-05-02T06:42:42.942Z</time></trkpt><trkpt lat="42.3735295" lon="14.1222156"><ele>41.0</ele><time>2026-05-02T06:42:43.942Z</time></trkpt><trkpt lat="42.3734163" lon="14.1221244"><ele>41.0</ele><time>2026-05-02T06:42:44.942Z</time></trkpt><trkpt lat="42.3733046" lon="14.1220297"><ele>41.0</ele><time>2026-05-02T06:42:45.942Z</time></trkpt><trkpt lat="42.3731891" lon="14.1219409"><ele>41.0</ele><time>2026-05-02T06:42:46.941Z</time></trkpt><trkpt lat="42.373076" lon="14.1218513"><ele>41.0</ele><time>2026-05-02T06:42:47.941Z</time></trkpt><trkpt lat="42.3729627" lon="14.121765"><ele>41.0</ele><time>2026-05-02T06:42:48.942Z</time></trkpt><trkpt lat="42.3728466" lon="14.1216729"><ele>41.0</ele><time>2026-05-02T06:42:49.941Z</time></trkpt><trkpt lat="42.3727246" lon="14.1215811"><ele>41.5</ele><time>2026-05-02T06:42:50.942Z</time></trkpt><trkpt lat="42.3726081" lon="14.1214899"><ele>42.0</ele><time>2026-05-02T06:42:51.942Z</time></trkpt><trkpt lat="42.3724902" lon="14.1213947"><ele>42.5</ele><time>2026-05-02T06:42:52.942Z</time></trkpt><trkpt lat="42.3723719" lon="14.1212998"><ele>43.0</ele><time>2026-05-02T06:42:53.942Z</time></trkpt><trkpt lat="42.3722498" lon="14.121208"><ele>40.5</ele><time>2026-05-02T06:42:54.942Z</time></trkpt><trkpt lat="42.3721269" lon="14.1211203"><ele>38.0</ele><time>2026-05-02T06:42:55.941Z</time></trkpt><trkpt lat="42.3719973" lon="14.1210374"><ele>35.5</ele><time>2026-05-02T06:42:56.941Z</time></trkpt><trkpt lat="42.3718549" lon="14.1209611"><ele>33.0</ele><time>2026-05-02T06:42:57.943Z</time></trkpt><trkpt lat="42.3717074" lon="14.1208911"><ele>33.0</ele><time>2026-05-02T06:42:58.941Z</time></trkpt><trkpt lat="42.3715613" lon="14.1208214"><ele>33.0</ele><time>2026-05-02T06:42:59.941Z</time></trkpt><trkpt lat="42.3714081" lon="14.1207492"><ele>33.0</ele><time>2026-05-02T06:43:00.942Z</time></trkpt><trkpt lat="42.3712536" lon="14.1206798"><ele>34.666666666666664</ele><time>2026-05-02T06:43:01.942Z</time></trkpt><trkpt lat="42.3710933" lon="14.1206184"><ele>36.33333333333333</ele><time>2026-05-02T06:43:02.943Z</time></trkpt><trkpt lat="42.3709341" lon="14.1205669"><ele>38.0</ele><time>2026-05-02T06:43:03.941Z</time></trkpt><trkpt lat="42.3707734" lon="14.1205298"><ele>38.0</ele><time>2026-05-02T06:43:04.942Z</time></trkpt><trkpt lat="42.3706082" lon="14.1204963"><ele>38.0</ele><time>2026-05-02T06:43:05.941Z</time></trkpt><trkpt lat="42.3704413" lon="14.1204632"><ele>38.0</ele><time>2026-05-02T06:43:06.94Z</time></trkpt><trkpt lat="42.3702764" lon="14.1204388"><ele>37.666666666666664</ele><time>2026-05-02T06:43:07.94Z</time></trkpt><trkpt lat="42.3701082" lon="14.1204164"><ele>37.333333333333336</ele><time>2026-05-02T06:43:08.94Z</time></trkpt><trkpt lat="42.3699424" lon="14.1203929"><ele>37.0</ele><time>2026-05-02T06:43:09.942Z</time></trkpt><trkpt lat="42.3697802" lon="14.120372"><ele>37.0</ele><time>2026-05-02T06:43:10.941Z</time></trkpt><trkpt lat="42.3696191" lon="14.120355"><ele>37.0</ele><time>2026-05-02T06:43:11.94Z</time></trkpt><trkpt lat="42.3694572" lon="14.1203342"><ele>37.0</ele><time>2026-05-02T06:43:12.941Z</time></trkpt><trkpt lat="42.3692936" lon="14.1203125"><ele>37.0</ele><time>2026-05-02T06:43:13.941Z</time></trkpt><trkpt lat="42.3691338" lon="14.1202839"><ele>37.0</ele><time>2026-05-02T06:43:14.941Z</time></trkpt><trkpt lat="42.3689697" lon="14.1202649"><ele>37.0</ele><time>2026-05-02T06:43:15.942Z</time></trkpt><trkpt lat="42.3688065" lon="14.1202463"><ele>34.333333333333336</ele><time>2026-05-02T06:43:16.94Z</time></trkpt><trkpt lat="42.3686433" lon="14.1202252"><ele>31.666666666666664</ele><time>2026-05-02T06:43:17.941Z</time></trkpt><trkpt lat="42.3684857" lon="14.1201874"><ele>29.0</ele><time>2026-05-02T06:43:18.943Z</time></trkpt><trkpt lat="42.3683329" lon="14.1201265"><ele>29.0</ele><time>2026-05-02T06:43:19.942Z</time></trkpt><trkpt lat="42.3681797" lon="14.1200522"><ele>29.0</ele><time>2026-05-02T06:43:20.942Z</time></trkpt><trkpt lat="42.368028" lon="14.1199582"><ele>29.0</ele><time>2026-05-02T06:43:21.941Z</time></trkpt><trkpt lat="42.3678721" lon="14.1198623"><ele>28.666666666666664</ele><time>2026-05-02T06:43:22.94Z</time></trkpt><trkpt lat="42.3677175" lon="14.1197563"><ele>28.333333333333336</ele><time>2026-05-02T06:43:23.941Z</time></trkpt><trkpt lat="42.3675582" lon="14.1196482"><ele>28.0</ele><time>2026-05-02T06:43:24.94Z</time></trkpt><trkpt lat="42.367395" lon="14.1195372"><ele>28.0</ele><time>2026-05-02T06:43:25.941Z</time></trkpt><trkpt lat="42.3672313" lon="14.1194267"><ele>28.0</ele><time>2026-05-02T06:43:26.941Z</time></trkpt><trkpt lat="42.3670709" lon="14.1193145"><ele>28.0</ele><time>2026-05-02T06:43:27.941Z</time></trkpt><trkpt lat="42.3669158" lon="14.1192011"><ele>28.0</ele><time>2026-05-02T06:43:28.941Z</time></trkpt><trkpt lat="42.3667532" lon="14.119089"><ele>28.0</ele><time>2026-05-02T06:43:29.942Z</time></trkpt><trkpt lat="42.3665944" lon="14.1189791"><ele>28.0</ele><time>2026-05-02T06:43:30.941Z</time></trkpt><trkpt lat="42.3664303" lon="14.1188611"><ele>28.0</ele><time>2026-05-02T06:43:31.942Z</time></trkpt><trkpt lat="42.366265" lon="14.1187471"><ele>28.0</ele><time>2026-05-02T06:43:32.94Z</time></trkpt><trkpt lat="42.366096" lon="14.1186255"><ele>28.0</ele><time>2026-05-02T06:43:33.942Z</time></trkpt><trkpt lat="42.3659244" lon="14.1185093"><ele>28.0</ele><time>2026-05-02T06:43:34.942Z</time></trkpt><trkpt lat="42.3657508" lon="14.1183919"><ele>28.0</ele><time>2026-05-02T06:43:35.941Z</time></trkpt><trkpt lat="42.365582" lon="14.1182756"><ele>28.0</ele><time>2026-05-02T06:43:36.942Z</time></trkpt><trkpt lat="42.3654145" lon="14.1181578"><ele>29.333333333333336</ele><time>2026-05-02T06:43:37.942Z</time></trkpt><trkpt lat="42.3652461" lon="14.1180343"><ele>30.666666666666664</ele><time>2026-05-02T06:43:38.942Z</time></trkpt><trkpt lat="42.36508" lon="14.1179237"><ele>32.0</ele><time>2026-05-02T06:43:39.942Z</time></trkpt><trkpt lat="42.3649144" lon="14.1178114"><ele>32.0</ele><time>2026-05-02T06:43:40.941Z</time></trkpt><trkpt lat="42.3647477" lon="14.1177013"><ele>32.0</ele><time>2026-05-02T06:43:41.941Z</time></trkpt><trkpt lat="42.3645804" lon="14.1176065"><ele>32.0</ele><time>2026-05-02T06:43:42.942Z</time></trkpt><trkpt lat="42.3644092" lon="14.1175268"><ele>32.33333333333333</ele><time>2026-05-02T06:43:43.942Z</time></trkpt><trkpt lat="42.3642306" lon="14.1174694"><ele>32.666666666666664</ele><time>2026-05-02T06:43:44.94Z</time></trkpt><trkpt lat="42.3640462" lon="14.1174338"><ele>33.0</ele><time>2026-05-02T06:43:45.941Z</time></trkpt><trkpt lat="42.3638629" lon="14.1174155"><ele>32.333333333333336</ele><time>2026-05-02T06:43:46.941Z</time></trkpt><trkpt lat="42.3636801" lon="14.1174156"><ele>31.666666666666668</ele><time>2026-05-02T06:43:47.941Z</time></trkpt><trkpt lat="42.3634974" lon="14.1174207"><ele>31.0</ele><time>2026-05-02T06:43:48.941Z</time></trkpt><trkpt lat="42.363315" lon="14.1174219"><ele>31.0</ele><time>2026-05-02T06:43:49.942Z</time></trkpt><trkpt lat="42.3631317" lon="14.1174158"><ele>31.0</ele><time>2026-05-02T06:43:50.941Z</time></trkpt><trkpt lat="42.3629509" lon="14.1174"><ele>31.0</ele><time>2026-05-02T06:43:51.941Z</time></trkpt><trkpt lat="42.3627707" lon="14.1173728"><ele>35.66666666666667</ele><time>2026-05-02T06:43:52.94Z</time></trkpt><trkpt lat="42.3625888" lon="14.1173252"><ele>40.333333333333336</ele><time>2026-05-02T06:43:53.941Z</time></trkpt><trkpt lat="42.3624069" lon="14.1172606"><ele>45.0</ele><time>2026-05-02T06:43:54.942Z</time></trkpt><trkpt lat="42.3622263" lon="14.117181"><ele>42.0</ele><time>2026-05-02T06:43:55.943Z</time></trkpt><trkpt lat="42.3620503" lon="14.1170955"><ele>39.0</ele><time>2026-05-02T06:43:56.941Z</time></trkpt><trkpt lat="42.3618707" lon="14.1170079"><ele>36.0</ele><time>2026-05-02T06:43:57.941Z</time></trkpt><trkpt lat="42.3616933" lon="14.1169218"><ele>36.0</ele><time>2026-05-02T06:43:58.941Z</time></trkpt><trkpt lat="42.3615174" lon="14.1168428"><ele>36.0</ele><time>2026-05-02T06:43:59.941Z</time></trkpt><trkpt lat="42.3613392" lon="14.1167614"><ele>36.0</ele><time>2026-05-02T06:44:00.941Z</time></trkpt><trkpt lat="42.3611598" lon="14.1166812"><ele>34.0</ele><time>2026-05-02T06:44:01.943Z</time></trkpt><trkpt lat="42.3609811" lon="14.1165987"><ele>32.0</ele><time>2026-05-02T06:44:02.942Z</time></trkpt><trkpt lat="42.3608046" lon="14.1165144"><ele>30.0</ele><time>2026-05-02T06:44:03.941Z</time></trkpt><trkpt lat="42.3606241" lon="14.116432"><ele>32.333333333333336</ele><time>2026-05-02T06:44:04.942Z</time></trkpt><trkpt lat="42.3604432" lon="14.1163531"><ele>34.66666666666667</ele><time>2026-05-02T06:44:05.941Z</time></trkpt><trkpt lat="42.3602611" lon="14.1162724"><ele>37.0</ele><time>2026-05-02T06:44:06.94Z</time></trkpt><trkpt lat="42.3600788" lon="14.1161887"><ele>37.0</ele><time>2026-05-02T06:44:07.94Z</time></trkpt><trkpt lat="42.3599012" lon="14.1161081"><ele>37.0</ele><time>2026-05-02T06:44:08.941Z</time></trkpt><trkpt lat="42.3597189" lon="14.116027"><ele>37.0</ele><time>2026-05-02T06:44:09.942Z</time></trkpt><trkpt lat="42.3595371" lon="14.1159466"><ele>36.66666666666667</ele><time>2026-05-02T06:44:10.942Z</time></trkpt><trkpt lat="42.3593549" lon="14.1158685"><ele>36.333333333333336</ele><time>2026-05-02T06:44:11.942Z</time></trkpt><trkpt lat="42.3591708" lon="14.1157921"><ele>36.0</ele><time>2026-05-02T06:44:12.941Z</time></trkpt><trkpt lat="42.3589885" lon="14.11572"><ele>37.666666666666664</ele><time>2026-05-02T06:44:13.942Z</time></trkpt><trkpt lat="42.358805" lon="14.1156483"><ele>39.33333333333333</ele><time>2026-05-02T06:44:14.941Z</time></trkpt><trkpt lat="42.3586275" lon="14.1155752"><ele>41.0</ele><time>2026-05-02T06:44:15.942Z</time></trkpt><trkpt lat="42.3584483" lon="14.1155002"><ele>41.0</ele><time>2026-05-02T06:44:16.942Z</time></trkpt><trkpt lat="42.35827" lon="14.1154267"><ele>41.0</ele><time>2026-05-02T06:44:17.941Z</time></trkpt><trkpt lat="42.3580872" lon="14.1153561"><ele>41.0</ele><time>2026-05-02T06:44:18.942Z</time></trkpt><trkpt lat="42.3579006" lon="14.1152855"><ele>41.0</ele><time>2026-05-02T06:44:19.941Z</time></trkpt><trkpt lat="42.3577176" lon="14.1152204"><ele>41.0</ele><time>2026-05-02T06:44:20.942Z</time></trkpt><trkpt lat="42.3575327" lon="14.1151494"><ele>41.0</ele><time>2026-05-02T06:44:21.941Z</time></trkpt><trkpt lat="42.3573433" lon="14.115074"><ele>40.33333333333333</ele><time>2026-05-02T06:44:22.942Z</time></trkpt><trkpt lat="42.3571502" lon="14.1150008"><ele>39.666666666666664</ele><time>2026-05-02T06:44:23.941Z</time></trkpt><trkpt lat="42.3569619" lon="14.1149228"><ele>39.0</ele><time>2026-05-02T06:44:24.941Z</time></trkpt><trkpt lat="42.3567724" lon="14.1148457"><ele>41.666666666666664</ele><time>2026-05-02T06:44:25.941Z</time></trkpt><trkpt lat="42.3565819" lon="14.1147683"><ele>44.33333333333333</ele><time>2026-05-02T06:44:26.942Z</time></trkpt><trkpt lat="42.3563935" lon="14.1146909"><ele>47.0</ele><time>2026-05-02T06:44:27.941Z</time></trkpt><trkpt lat="42.3562037" lon="14.1146162"><ele>47.0</ele><time>2026-05-02T06:44:28.942Z</time></trkpt><trkpt lat="42.3560165" lon="14.1145431"><ele>47.0</ele><time>2026-05-02T06:44:29.941Z</time></trkpt><trkpt lat="42.3558284" lon="14.11447"><ele>47.0</ele><time>2026-05-02T06:44:30.942Z</time></trkpt><trkpt lat="42.3556395" lon="14.1143936"><ele>43.666666666666664</ele><time>2026-05-02T06:44:31.942Z</time></trkpt><trkpt lat="42.3554493" lon="14.1143167"><ele>40.333333333333336</ele><time>2026-05-02T06:44:32.943Z</time></trkpt><trkpt lat="42.3552616" lon="14.1142379"><ele>37.0</ele><time>2026-05-02T06:44:33.942Z</time></trkpt><trkpt lat="42.355071" lon="14.1141581"><ele>37.0</ele><time>2026-05-02T06:44:34.943Z</time></trkpt><trkpt lat="42.3548823" lon="14.1140793"><ele>37.0</ele><time>2026-05-02T06:44:35.941Z</time></trkpt><trkpt lat="42.3546931" lon="14.1140004"><ele>37.0</ele><time>2026-05-02T06:44:36.942Z</time></trkpt><trkpt lat="42.3545048" lon="14.1139258"><ele>36.66666666666667</ele><time>2026-05-02T06:44:37.942Z</time></trkpt><trkpt lat="42.3543164" lon="14.1138573"><ele>36.333333333333336</ele><time>2026-05-02T06:44:38.941Z</time></trkpt><trkpt lat="42.3541333" lon="14.1137858"><ele>36.0</ele><time>2026-05-02T06:44:39.941Z</time></trkpt><trkpt lat="42.3539513" lon="14.1137143"><ele>35.666666666666664</ele><time>2026-05-02T06:44:40.941Z</time></trkpt><trkpt lat="42.3537658" lon="14.113643"><ele>35.33333333333333</ele><time>2026-05-02T06:44:41.942Z</time></trkpt><trkpt lat="42.3535839" lon="14.1135715"><ele>35.0</ele><time>2026-05-02T06:44:42.942Z</time></trkpt><trkpt lat="42.3534024" lon="14.113497"><ele>35.0</ele><time>2026-05-02T06:44:43.941Z</time></trkpt><trkpt lat="42.3532222" lon="14.1134258"><ele>35.0</ele><time>2026-05-02T06:44:44.943Z</time></trkpt><trkpt lat="42.3530416" lon="14.1133507"><ele>35.0</ele><time>2026-05-02T06:44:45.942Z</time></trkpt><trkpt lat="42.3528618" lon="14.1132746"><ele>35.0</ele><time>2026-05-02T06:44:46.941Z</time></trkpt><trkpt lat="42.3526823" lon="14.1131995"><ele>35.0</ele><time>2026-05-02T06:44:47.941Z</time></trkpt><trkpt lat="42.3525029" lon="14.1131318"><ele>35.0</ele><time>2026-05-02T06:44:48.942Z</time></trkpt><trkpt lat="42.3523271" lon="14.1130623"><ele>36.666666666666664</ele><time>2026-05-02T06:44:49.943Z</time></trkpt><trkpt lat="42.3521467" lon="14.1129902"><ele>38.333333333333336</ele><time>2026-05-02T06:44:50.941Z</time></trkpt><trkpt lat="42.3519632" lon="14.1129163"><ele>40.0</ele><time>2026-05-02T06:44:51.943Z</time></trkpt><trkpt lat="42.351779" lon="14.1128389"><ele>40.0</ele><time>2026-05-02T06:44:52.942Z</time></trkpt><trkpt lat="42.3515986" lon="14.1127611"><ele>40.0</ele><time>2026-05-02T06:44:53.942Z</time></trkpt><trkpt lat="42.3514211" lon="14.1126861"><ele>40.0</ele><time>2026-05-02T06:44:54.941Z</time></trkpt><trkpt lat="42.3512402" lon="14.1126137"><ele>41.333333333333336</ele><time>2026-05-02T06:44:55.941Z</time></trkpt><trkpt lat="42.351059" lon="14.1125545"><ele>42.666666666666664</ele><time>2026-05-02T06:44:56.942Z</time></trkpt><trkpt lat="42.3508784" lon="14.1125048"><ele>44.0</ele><time>2026-05-02T06:44:57.941Z</time></trkpt><trkpt lat="42.3507142" lon="14.1124611"><ele>44.0</ele><time>2026-05-02T06:44:58.942Z</time></trkpt><trkpt lat="42.3505608" lon="14.1124352"><ele>44.0</ele><time>2026-05-02T06:44:59.941Z</time></trkpt><trkpt lat="42.3504253" lon="14.1124082"><ele>44.0</ele><time>2026-05-02T06:45:00.941Z</time></trkpt><trkpt lat="42.350306" lon="14.112386"><ele>44.0</ele><time>2026-05-02T06:45:01.94Z</time></trkpt><trkpt lat="42.3502062" lon="14.112367"><ele>44.0</ele><time>2026-05-02T06:45:02.94Z</time></trkpt><trkpt lat="42.3501402" lon="14.1123513"><ele>44.0</ele><time>2026-05-02T06:45:03.941Z</time></trkpt><trkpt lat="42.3500473" lon="14.1123449"><ele>44.0</ele><time>2026-05-02T06:45:08.941Z</time></trkpt><trkpt lat="42.3499819" lon="14.1123472"><ele>44.0</ele><time>2026-05-02T06:45:09.943Z</time></trkpt><trkpt lat="42.3499197" lon="14.1123722"><ele>44.0</ele><time>2026-05-02T06:45:10.941Z</time></trkpt><trkpt lat="42.3498692" lon="14.1124265"><ele>44.0</ele><time>2026-05-02T06:45:11.941Z</time></trkpt><trkpt lat="42.3498206" lon="14.1124932"><ele>44.0</ele><time>2026-05-02T06:45:12.942Z</time></trkpt><trkpt lat="42.349772" lon="14.1125723"><ele>44.0</ele><time>2026-05-02T06:45:13.942Z</time></trkpt><trkpt lat="42.349731" lon="14.1126395"><ele>44.0</ele><time>2026-05-02T06:45:14.943Z</time></trkpt><trkpt lat="42.3496847" lon="14.1127005"><ele>44.0</ele><time>2026-05-02T06:45:16.941Z</time></trkpt><trkpt lat="42.3497151" lon="14.1127926"><ele>44.0</ele><time>2026-05-02T06:45:25.942Z</time></trkpt><trkpt lat="42.349763" lon="14.1126866"><ele>44.0</ele><time>2026-05-02T06:45:28.941Z</time></trkpt><trkpt lat="42.3497329" lon="14.1125945"><ele>44.0</ele><time>2026-05-02T06:45:30.942Z</time></trkpt><trkpt lat="42.3496693" lon="14.1125996"><ele>44.0</ele><time>2026-05-02T06:45:32.943Z</time></trkpt><trkpt lat="42.34963" lon="14.112686"><ele>43.83333333333333</ele><time>2026-05-02T06:45:35.942Z</time></trkpt><trkpt lat="42.349573" lon="14.1127444"><ele>43.666666666666664</ele><time>2026-05-02T06:45:37.941Z</time></trkpt><trkpt lat="42.3494955" lon="14.1126986"><ele>43.5</ele><time>2026-05-02T06:45:39.941Z</time></trkpt><trkpt lat="42.3494568" lon="14.1125798"><ele>43.333333333333336</ele><time>2026-05-02T06:45:41.941Z</time></trkpt><trkpt lat="42.3494265" lon="14.1125034"><ele>43.16666666666667</ele><time>2026-05-02T06:45:42.94Z</time></trkpt><trkpt lat="42.3493669" lon="14.1123842"><ele>43.0</ele><time>2026-05-02T06:45:44.943Z</time></trkpt><trkpt lat="42.349288" lon="14.1123"><ele>43.0</ele><time>2026-05-02T06:45:46.941Z</time></trkpt><trkpt lat="42.3491993" lon="14.1122691"><ele>43.0</ele><time>2026-05-02T06:45:48.94Z</time></trkpt><trkpt lat="42.3491107" lon="14.1122277"><ele>43.0</ele><time>2026-05-02T06:45:50.941Z</time></trkpt><trkpt lat="42.3490423" lon="14.112146"><ele>43.0</ele><time>2026-05-02T06:45:52.941Z</time></trkpt><trkpt lat="42.3490134" lon="14.1120325"><ele>43.0</ele><time>2026-05-02T06:45:54.94Z</time></trkpt><trkpt lat="42.3489964" lon="14.1118651"><ele>43.0</ele><time>2026-05-02T06:45:56.942Z</time></trkpt><trkpt lat="42.3489831" lon="14.1117052"><ele>43.0</ele><time>2026-05-02T06:45:58.941Z</time></trkpt><trkpt lat="42.3489746" lon="14.1115997"><ele>43.0</ele><time>2026-05-02T06:45:59.942Z</time></trkpt><trkpt lat="42.3489686" lon="14.1115031"><ele>43.0</ele><time>2026-05-02T06:46:00.94Z</time></trkpt><trkpt lat="42.3489546" lon="14.1113998"><ele>43.0</ele><time>2026-05-02T06:46:01.942Z</time></trkpt><trkpt lat="42.3489385" lon="14.1112974"><ele>43.0</ele><time>2026-05-02T06:46:02.941Z</time></trkpt><trkpt lat="42.3489234" lon="14.1111821"><ele>43.00000000000001</ele><time>2026-05-02T06:46:03.941Z</time></trkpt><trkpt lat="42.3489084" lon="14.1110748"><ele>43.0</ele><time>2026-05-02T06:46:04.94Z</time></trkpt><trkpt lat="42.3488963" lon="14.1109896"><ele>43.0</ele><time>2026-05-02T06:46:05.94Z</time></trkpt><trkpt lat="42.3488897" lon="14.1109029"><ele>43.0</ele><time>2026-05-02T06:46:06.941Z</time></trkpt><trkpt lat="42.3488981" lon="14.1108087"><ele>43.0</ele><time>2026-05-02T06:46:07.941Z</time></trkpt><trkpt lat="42.3489086" lon="14.1107206"><ele>43.00000000000001</ele><time>2026-05-02T06:46:08.94Z</time></trkpt><trkpt lat="42.3489113" lon="14.1105858"><ele>43.0</ele><time>2026-05-02T06:46:10.941Z</time></trkpt><trkpt lat="42.3488974" lon="14.1104866"><ele>43.333333333333336</ele><time>2026-05-02T06:46:12.941Z</time></trkpt><trkpt lat="42.348893" lon="14.1103988"><ele>43.66666666666667</ele><time>2026-05-02T06:46:15.941Z</time></trkpt><trkpt lat="42.3488479" lon="14.1103123"><ele>44.0</ele><time>2026-05-02T06:46:19.941Z</time></trkpt><trkpt lat="42.3487637" lon="14.1103234"><ele>44.333333333333336</ele><time>2026-05-02T06:46:22.941Z</time></trkpt><trkpt lat="42.3487185" lon="14.1104098"><ele>44.666666666666664</ele><time>2026-05-02T06:46:25.943Z</time></trkpt><trkpt lat="42.348677" lon="14.1105015"><ele>45.0</ele><time>2026-05-02T06:46:28.942Z</time></trkpt><trkpt lat="42.3486307" lon="14.1105755"><ele>44.333333333333336</ele><time>2026-05-02T06:46:30.942Z</time></trkpt><trkpt lat="42.3485583" lon="14.1106059"><ele>43.666666666666664</ele><time>2026-05-02T06:46:33.942Z</time></trkpt><trkpt lat="42.3486377" lon="14.1106069"><ele>43.0</ele><time>2026-05-02T06:47:27.941Z</time></trkpt><trkpt lat="42.3486995" lon="14.1104949"><ele>42.33333333333333</ele><time>2026-05-02T06:47:30.94Z</time></trkpt><trkpt lat="42.3487303" lon="14.110405"><ele>41.666666666666664</ele><time>2026-05-02T06:47:33.941Z</time></trkpt><trkpt lat="42.3487774" lon="14.1103349"><ele>41.0</ele><time>2026-05-02T06:47:35.942Z</time></trkpt><trkpt lat="42.3488285" lon="14.1102367"><ele>41.0</ele><time>2026-05-02T06:47:53.941Z</time></trkpt><trkpt lat="42.3488452" lon="14.1101544"><ele>41.0</ele><time>2026-05-02T06:47:55.94Z</time></trkpt><trkpt lat="42.3488023" lon="14.1100585"><ele>41.0</ele><time>2026-05-02T06:47:57.941Z</time></trkpt><trkpt lat="42.3487479" lon="14.1099866"><ele>41.0</ele><time>2026-05-02T06:47:59.94Z</time></trkpt><trkpt lat="42.3486833" lon="14.1099159"><ele>41.0</ele><time>2026-05-02T06:48:02.942Z</time></trkpt><trkpt lat="42.34862" lon="14.1098584"><ele>41.0</ele><time>2026-05-02T06:48:17.943Z</time></trkpt><trkpt lat="42.3485496" lon="14.1098005"><ele>42.0</ele><time>2026-05-02T06:48:42.941Z</time></trkpt><trkpt lat="42.3484913" lon="14.109751"><ele>43.0</ele><time>2026-05-02T06:48:47.942Z</time></trkpt><trkpt lat="42.3484267" lon="14.1096853"><ele>44.0</ele><time>2026-05-02T06:48:50.941Z</time></trkpt><trkpt lat="42.3483659" lon="14.1096308"><ele>45.0</ele><time>2026-05-02T06:48:52.942Z</time></trkpt><trkpt lat="42.3482846" lon="14.1095638"><ele>46.0</ele><time>2026-05-02T06:48:54.942Z</time></trkpt><trkpt lat="42.3482142" lon="14.1094529"><ele>47.0</ele><time>2026-05-02T06:48:56.941Z</time></trkpt><trkpt lat="42.3481405" lon="14.109326"><ele>47.0</ele><time>2026-05-02T06:48:58.94Z</time></trkpt><trkpt lat="42.3481021" lon="14.1092546"><ele>47.0</ele><time>2026-05-02T06:48:59.94Z</time></trkpt><trkpt lat="42.348026" lon="14.1091446"><ele>47.0</ele><time>2026-05-02T06:49:01.942Z</time></trkpt><trkpt lat="42.3479543" lon="14.1090424"><ele>47.0</ele><time>2026-05-02T06:49:03.94Z</time></trkpt><trkpt lat="42.3478958" lon="14.1088892"><ele>47.0</ele><time>2026-05-02T06:49:05.94Z</time></trkpt><trkpt lat="42.3478678" lon="14.1087951"><ele>46.400000000000006</ele><time>2026-05-02T06:49:06.941Z</time></trkpt><trkpt lat="42.3478207" lon="14.1086817"><ele>45.800000000000004</ele><time>2026-05-02T06:49:07.941Z</time></trkpt><trkpt lat="42.3477732" lon="14.1085836"><ele>45.2</ele><time>2026-05-02T06:49:08.941Z</time></trkpt><trkpt lat="42.347725" lon="14.1084847"><ele>44.6</ele><time>2026-05-02T06:49:09.943Z</time></trkpt><trkpt lat="42.3476702" lon="14.10839"><ele>44.0</ele><time>2026-05-02T06:49:10.941Z</time></trkpt><trkpt lat="42.3476175" lon="14.1082874"><ele>44.33333333333333</ele><time>2026-05-02T06:49:11.943Z</time></trkpt><trkpt lat="42.3475674" lon="14.1081882"><ele>44.666666666666664</ele><time>2026-05-02T06:49:12.941Z</time></trkpt><trkpt lat="42.3475179" lon="14.1080961"><ele>45.0</ele><time>2026-05-02T06:49:13.942Z</time></trkpt><trkpt lat="42.3474764" lon="14.1080095"><ele>45.333333333333336</ele><time>2026-05-02T06:49:14.94Z</time></trkpt><trkpt lat="42.3474492" lon="14.1079211"><ele>45.66666666666667</ele><time>2026-05-02T06:49:15.942Z</time></trkpt><trkpt lat="42.3474341" lon="14.1078235"><ele>46.0</ele><time>2026-05-02T06:49:16.94Z</time></trkpt><trkpt lat="42.3474119" lon="14.1077131"><ele>46.0</ele><time>2026-05-02T06:49:17.941Z</time></trkpt><trkpt lat="42.347388" lon="14.1076056"><ele>46.0</ele><time>2026-05-02T06:49:18.941Z</time></trkpt><trkpt lat="42.3473641" lon="14.1075068"><ele>46.0</ele><time>2026-05-02T06:49:19.943Z</time></trkpt><trkpt lat="42.3473358" lon="14.1074082"><ele>46.0</ele><time>2026-05-02T06:49:20.94Z</time></trkpt><trkpt lat="42.3472979" lon="14.1073064"><ele>46.0</ele><time>2026-05-02T06:49:21.942Z</time></trkpt><trkpt lat="42.3472564" lon="14.1072175"><ele>46.0</ele><time>2026-05-02T06:49:22.941Z</time></trkpt><trkpt lat="42.3472183" lon="14.1071313"><ele>46.0</ele><time>2026-05-02T06:49:23.941Z</time></trkpt><trkpt lat="42.3471799" lon="14.1069857"><ele>46.0</ele><time>2026-05-02T06:49:25.941Z</time></trkpt><trkpt lat="42.3471784" lon="14.1069004"><ele>46.0</ele><time>2026-05-02T06:49:26.94Z</time></trkpt><trkpt lat="42.347196" lon="14.106814"><ele>46.0</ele><time>2026-05-02T06:49:27.941Z</time></trkpt><trkpt lat="42.3472258" lon="14.1067216"><ele>46.0</ele><time>2026-05-02T06:49:28.942Z</time></trkpt><trkpt lat="42.3472647" lon="14.10662"><ele>46.0</ele><time>2026-05-02T06:49:29.94Z</time></trkpt><trkpt lat="42.3473024" lon="14.1065143"><ele>46.0</ele><time>2026-05-02T06:49:30.94Z</time></trkpt><trkpt lat="42.3473256" lon="14.1064083"><ele>46.0</ele><time>2026-05-02T06:49:31.941Z</time></trkpt><trkpt lat="42.347352" lon="14.1062972"><ele>46.0</ele><time>2026-05-02T06:49:32.942Z</time></trkpt><trkpt lat="42.347387" lon="14.1061935"><ele>46.0</ele><time>2026-05-02T06:49:33.94Z</time></trkpt><trkpt lat="42.3474187" lon="14.1060893"><ele>46.0</ele><time>2026-05-02T06:49:34.941Z</time></trkpt><trkpt lat="42.3474395" lon="14.1059754"><ele>46.0</ele><time>2026-05-02T06:49:35.941Z</time></trkpt><trkpt lat="42.3474592" lon="14.1058782"><ele>46.0</ele><time>2026-05-02T06:49:36.942Z</time></trkpt><trkpt lat="42.3474989" lon="14.1057996"><ele>46.0</ele><time>2026-05-02T06:49:37.941Z</time></trkpt><trkpt lat="42.3475551" lon="14.1057207"><ele>46.0</ele><time>2026-05-02T06:49:38.941Z</time></trkpt><trkpt lat="42.3476113" lon="14.1056283"><ele>46.0</ele><time>2026-05-02T06:49:39.942Z</time></trkpt><trkpt lat="42.3476666" lon="14.1055256"><ele>46.0</ele><time>2026-05-02T06:49:40.941Z</time></trkpt><trkpt lat="42.3477224" lon="14.1054082"><ele>46.0</ele><time>2026-05-02T06:49:41.942Z</time></trkpt><trkpt lat="42.3477863" lon="14.1052919"><ele>45.8</ele><time>2026-05-02T06:49:42.942Z</time></trkpt><trkpt lat="42.3478517" lon="14.1051777"><ele>45.599999999999994</ele><time>2026-05-02T06:49:43.941Z</time></trkpt><trkpt lat="42.347916" lon="14.1050695"><ele>45.4</ele><time>2026-05-02T06:49:44.941Z</time></trkpt><trkpt lat="42.3479756" lon="14.1049586"><ele>45.2</ele><time>2026-05-02T06:49:45.94Z</time></trkpt><trkpt lat="42.3480298" lon="14.1048609"><ele>45.0</ele><time>2026-05-02T06:49:46.941Z</time></trkpt><trkpt lat="42.34809" lon="14.1047798"><ele>46.0</ele><time>2026-05-02T06:49:47.94Z</time></trkpt><trkpt lat="42.3481452" lon="14.1047072"><ele>47.0</ele><time>2026-05-02T06:49:48.942Z</time></trkpt><trkpt lat="42.3481912" lon="14.1046265"><ele>48.0</ele><time>2026-05-02T06:49:49.942Z</time></trkpt><trkpt lat="42.3482322" lon="14.1045356"><ele>49.0</ele><time>2026-05-02T06:49:50.941Z</time></trkpt><trkpt lat="42.3482715" lon="14.1044392"><ele>50.0</ele><time>2026-05-02T06:49:51.942Z</time></trkpt><trkpt lat="42.3483001" lon="14.1043358"><ele>51.0</ele><time>2026-05-02T06:49:52.942Z</time></trkpt><trkpt lat="42.3483281" lon="14.1042261"><ele>51.0</ele><time>2026-05-02T06:49:53.941Z</time></trkpt><trkpt lat="42.3483617" lon="14.1041094"><ele>51.0</ele><time>2026-05-02T06:49:54.943Z</time></trkpt><trkpt lat="42.3483962" lon="14.1039969"><ele>51.0</ele><time>2026-05-02T06:49:55.941Z</time></trkpt><trkpt lat="42.3484272" lon="14.1038855"><ele>51.0</ele><time>2026-05-02T06:49:56.941Z</time></trkpt><trkpt lat="42.3484519" lon="14.1037613"><ele>51.0</ele><time>2026-05-02T06:49:57.942Z</time></trkpt><trkpt lat="42.3484703" lon="14.1036316"><ele>50.4</ele><time>2026-05-02T06:49:58.941Z</time></trkpt><trkpt lat="42.3484827" lon="14.1035049"><ele>49.8</ele><time>2026-05-02T06:49:59.941Z</time></trkpt><trkpt lat="42.3484972" lon="14.1033734"><ele>49.199999999999996</ele><time>2026-05-02T06:50:00.942Z</time></trkpt><trkpt lat="42.3485083" lon="14.1032322"><ele>48.599999999999994</ele><time>2026-05-02T06:50:01.941Z</time></trkpt><trkpt lat="42.3485168" lon="14.1030872"><ele>48.0</ele><time>2026-05-02T06:50:02.941Z</time></trkpt><trkpt lat="42.348525" lon="14.1029374"><ele>48.0</ele><time>2026-05-02T06:50:03.941Z</time></trkpt><trkpt lat="42.3485373" lon="14.1027815"><ele>48.0</ele><time>2026-05-02T06:50:04.941Z</time></trkpt><trkpt lat="42.3485537" lon="14.1026288"><ele>48.0</ele><time>2026-05-02T06:50:05.94Z</time></trkpt><trkpt lat="42.3485776" lon="14.1024855"><ele>48.0</ele><time>2026-05-02T06:50:06.941Z</time></trkpt><trkpt lat="42.348604" lon="14.1023461"><ele>48.0</ele><time>2026-05-02T06:50:07.941Z</time></trkpt><trkpt lat="42.3486308" lon="14.1022141"><ele>48.0</ele><time>2026-05-02T06:50:08.941Z</time></trkpt><trkpt lat="42.3486577" lon="14.1020838"><ele>48.0</ele><time>2026-05-02T06:50:09.94Z</time></trkpt><trkpt lat="42.3486873" lon="14.1019498"><ele>48.0</ele><time>2026-05-02T06:50:10.941Z</time></trkpt><trkpt lat="42.3487152" lon="14.1018092"><ele>48.0</ele><time>2026-05-02T06:50:11.941Z</time></trkpt><trkpt lat="42.3487448" lon="14.101668"><ele>48.0</ele><time>2026-05-02T06:50:12.941Z</time></trkpt><trkpt lat="42.3487767" lon="14.101536"><ele>48.333333333333336</ele><time>2026-05-02T06:50:13.941Z</time></trkpt><trkpt lat="42.3488063" lon="14.1014197"><ele>48.66666666666667</ele><time>2026-05-02T06:50:14.941Z</time></trkpt><trkpt lat="42.3488357" lon="14.1013122"><ele>49.0</ele><time>2026-05-02T06:50:15.941Z</time></trkpt><trkpt lat="42.3488619" lon="14.1012276"><ele>49.333333333333336</ele><time>2026-05-02T06:50:16.941Z</time></trkpt><trkpt lat="42.348891" lon="14.1011448"><ele>49.66666666666667</ele><time>2026-05-02T06:50:17.942Z</time></trkpt><trkpt lat="42.3489714" lon="14.1010476"><ele>50.0</ele><time>2026-05-02T06:50:19.941Z</time></trkpt><trkpt lat="42.3490718" lon="14.1009661"><ele>50.333333333333336</ele><time>2026-05-02T06:50:21.942Z</time></trkpt><trkpt lat="42.3491119" lon="14.1008923"><ele>50.66666666666667</ele><time>2026-05-02T06:50:22.941Z</time></trkpt><trkpt lat="42.3491449" lon="14.1008181"><ele>51.0</ele><time>2026-05-02T06:50:23.941Z</time></trkpt><trkpt lat="42.3491702" lon="14.1007388"><ele>51.33333333333333</ele><time>2026-05-02T06:50:24.941Z</time></trkpt><trkpt lat="42.3492506" lon="14.1006163"><ele>51.666666666666664</ele><time>2026-05-02T06:50:26.941Z</time></trkpt><trkpt lat="42.3493417" lon="14.1005045"><ele>52.0</ele><time>2026-05-02T06:50:28.941Z</time></trkpt><trkpt lat="42.3493715" lon="14.1004226"><ele>51.99999999999999</ele><time>2026-05-02T06:50:29.941Z</time></trkpt><trkpt lat="42.3494109" lon="14.1003116"><ele>52.0</ele><time>2026-05-02T06:50:30.94Z</time></trkpt><trkpt lat="42.3494477" lon="14.1002105"><ele>52.0</ele><time>2026-05-02T06:50:31.94Z</time></trkpt><trkpt lat="42.3494809" lon="14.1001041"><ele>52.0</ele><time>2026-05-02T06:50:32.94Z</time></trkpt><trkpt lat="42.3495119" lon="14.1000107"><ele>51.99999999999999</ele><time>2026-05-02T06:50:33.941Z</time></trkpt><trkpt lat="42.3495645" lon="14.099876"><ele>52.0</ele><time>2026-05-02T06:50:35.941Z</time></trkpt><trkpt lat="42.3495912" lon="14.0997516"><ele>51.33333333333333</ele><time>2026-05-02T06:50:37.942Z</time></trkpt><trkpt lat="42.3495688" lon="14.099617"><ele>50.666666666666664</ele><time>2026-05-02T06:50:39.942Z</time></trkpt><trkpt lat="42.349541" lon="14.0995405"><ele>50.0</ele><time>2026-05-02T06:50:40.941Z</time></trkpt><trkpt lat="42.3494991" lon="14.0994547"><ele>49.33333333333333</ele><time>2026-05-02T06:50:41.94Z</time></trkpt><trkpt lat="42.3494672" lon="14.0993728"><ele>48.666666666666664</ele><time>2026-05-02T06:50:42.941Z</time></trkpt><trkpt lat="42.3494452" lon="14.0992902"><ele>48.0</ele><time>2026-05-02T06:50:43.941Z</time></trkpt><trkpt lat="42.3494311" lon="14.0991141"><ele>48.333333333333336</ele><time>2026-05-02T06:50:45.941Z</time></trkpt><trkpt lat="42.3494358" lon="14.099022"><ele>48.66666666666667</ele><time>2026-05-02T06:50:46.94Z</time></trkpt><trkpt lat="42.3494493" lon="14.0989256"><ele>49.0</ele><time>2026-05-02T06:50:47.942Z</time></trkpt><trkpt lat="42.349475" lon="14.0988243"><ele>49.333333333333336</ele><time>2026-05-02T06:50:48.941Z</time></trkpt><trkpt lat="42.3495011" lon="14.0987195"><ele>49.66666666666667</ele><time>2026-05-02T06:50:49.941Z</time></trkpt><trkpt lat="42.3495313" lon="14.0986106"><ele>50.0</ele><time>2026-05-02T06:50:50.941Z</time></trkpt><trkpt lat="42.3495588" lon="14.0984947"><ele>50.0</ele><time>2026-05-02T06:50:51.941Z</time></trkpt><trkpt lat="42.3495859" lon="14.0983723"><ele>50.0</ele><time>2026-05-02T06:50:52.942Z</time></trkpt><trkpt lat="42.3496125" lon="14.0982358"><ele>50.0</ele><time>2026-05-02T06:50:53.941Z</time></trkpt><trkpt lat="42.3496336" lon="14.0981008"><ele>50.0</ele><time>2026-05-02T06:50:54.942Z</time></trkpt><trkpt lat="42.3496545" lon="14.0979839"><ele>50.0</ele><time>2026-05-02T06:50:55.941Z</time></trkpt><trkpt lat="42.3496909" lon="14.097864"><ele>50.2</ele><time>2026-05-02T06:50:56.941Z</time></trkpt><trkpt lat="42.3497288" lon="14.0977425"><ele>50.4</ele><time>2026-05-02T06:50:57.94Z</time></trkpt><trkpt lat="42.3497624" lon="14.0976069"><ele>50.599999999999994</ele><time>2026-05-02T06:50:58.941Z</time></trkpt><trkpt lat="42.3498009" lon="14.097455"><ele>50.8</ele><time>2026-05-02T06:50:59.94Z</time></trkpt><trkpt lat="42.3498351" lon="14.097304"><ele>51.0</ele><time>2026-05-02T06:51:00.94Z</time></trkpt><trkpt lat="42.3498652" lon="14.0971537"><ele>51.0</ele><time>2026-05-02T06:51:01.941Z</time></trkpt><trkpt lat="42.3498909" lon="14.0970107"><ele>51.0</ele><time>2026-05-02T06:51:02.941Z</time></trkpt><trkpt lat="42.3499102" lon="14.0968712"><ele>51.0</ele><time>2026-05-02T06:51:03.941Z</time></trkpt><trkpt lat="42.3499237" lon="14.0967324"><ele>51.0</ele><time>2026-05-02T06:51:04.941Z</time></trkpt><trkpt lat="42.3499324" lon="14.0966018"><ele>51.0</ele><time>2026-05-02T06:51:05.941Z</time></trkpt><trkpt lat="42.3499388" lon="14.0964766"><ele>51.199999999999996</ele><time>2026-05-02T06:51:06.941Z</time></trkpt><trkpt lat="42.3499522" lon="14.0963425"><ele>51.4</ele><time>2026-05-02T06:51:07.94Z</time></trkpt><trkpt lat="42.3499653" lon="14.0961981"><ele>51.6</ele><time>2026-05-02T06:51:08.94Z</time></trkpt><trkpt lat="42.3499719" lon="14.0960492"><ele>51.8</ele><time>2026-05-02T06:51:09.941Z</time></trkpt><trkpt lat="42.3499807" lon="14.0958983"><ele>52.0</ele><time>2026-05-02T06:51:10.941Z</time></trkpt><trkpt lat="42.3499883" lon="14.0957495"><ele>52.0</ele><time>2026-05-02T06:51:11.941Z</time></trkpt><trkpt lat="42.3499988" lon="14.0956008"><ele>52.0</ele><time>2026-05-02T06:51:12.942Z</time></trkpt><trkpt lat="42.3500133" lon="14.0954492"><ele>52.0</ele><time>2026-05-02T06:51:13.942Z</time></trkpt><trkpt lat="42.3500232" lon="14.0952951"><ele>52.0</ele><time>2026-05-02T06:51:14.942Z</time></trkpt><trkpt lat="42.3500246" lon="14.0951379"><ele>52.0</ele><time>2026-05-02T06:51:15.941Z</time></trkpt><trkpt lat="42.3500145" lon="14.0949724"><ele>52.0</ele><time>2026-05-02T06:51:16.941Z</time></trkpt><trkpt lat="42.3499948" lon="14.0948105"><ele>52.0</ele><time>2026-05-02T06:51:17.941Z</time></trkpt><trkpt lat="42.3499724" lon="14.0946572"><ele>52.0</ele><time>2026-05-02T06:51:18.941Z</time></trkpt><trkpt lat="42.3499496" lon="14.0945035"><ele>52.0</ele><time>2026-05-02T06:51:19.94Z</time></trkpt><trkpt lat="42.3499231" lon="14.0943571"><ele>52.0</ele><time>2026-05-02T06:51:20.941Z</time></trkpt><trkpt lat="42.349893" lon="14.0942154"><ele>52.0</ele><time>2026-05-02T06:51:21.941Z</time></trkpt><trkpt lat="42.3498612" lon="14.0940739"><ele>52.0</ele><time>2026-05-02T06:51:22.941Z</time></trkpt><trkpt lat="42.3498339" lon="14.0939309"><ele>52.0</ele><time>2026-05-02T06:51:23.94Z</time></trkpt><trkpt lat="42.3498081" lon="14.0937868"><ele>51.8</ele><time>2026-05-02T06:51:24.941Z</time></trkpt><trkpt lat="42.3497806" lon="14.0936675"><ele>51.6</ele><time>2026-05-02T06:51:25.942Z</time></trkpt><trkpt lat="42.3497405" lon="14.093561"><ele>51.4</ele><time>2026-05-02T06:51:26.942Z</time></trkpt><trkpt lat="42.3497039" lon="14.0934784"><ele>51.199999999999996</ele><time>2026-05-02T06:51:27.942Z</time></trkpt><trkpt lat="42.3496526" lon="14.093333"><ele>51.0</ele><time>2026-05-02T06:51:29.94Z</time></trkpt><trkpt lat="42.3496336" lon="14.0931817"><ele>51.833333333333336</ele><time>2026-05-02T06:51:31.941Z</time></trkpt><trkpt lat="42.3496272" lon="14.0930865"><ele>52.66666666666667</ele><time>2026-05-02T06:51:32.942Z</time></trkpt><trkpt lat="42.3496124" lon="14.0929801"><ele>53.5</ele><time>2026-05-02T06:51:33.94Z</time></trkpt><trkpt lat="42.3495898" lon="14.092885"><ele>54.333333333333336</ele><time>2026-05-02T06:51:34.941Z</time></trkpt><trkpt lat="42.3495603" lon="14.0927868"><ele>55.16666666666667</ele><time>2026-05-02T06:51:35.942Z</time></trkpt><trkpt lat="42.3495214" lon="14.0926976"><ele>56.0</ele><time>2026-05-02T06:51:36.941Z</time></trkpt><trkpt lat="42.3494697" lon="14.0926122"><ele>56.00000000000001</ele><time>2026-05-02T06:51:37.941Z</time></trkpt><trkpt lat="42.3494186" lon="14.0925297"><ele>56.0</ele><time>2026-05-02T06:51:38.941Z</time></trkpt><trkpt lat="42.3493773" lon="14.0924473"><ele>56.0</ele><time>2026-05-02T06:51:39.942Z</time></trkpt><trkpt lat="42.3493397" lon="14.0923411"><ele>56.0</ele><time>2026-05-02T06:51:40.941Z</time></trkpt><trkpt lat="42.3493132" lon="14.0922222"><ele>56.00000000000001</ele><time>2026-05-02T06:51:41.941Z</time></trkpt><trkpt lat="42.3492789" lon="14.0920909"><ele>56.0</ele><time>2026-05-02T06:51:42.941Z</time></trkpt><trkpt lat="42.3492449" lon="14.0919584"><ele>56.199999999999996</ele><time>2026-05-02T06:51:43.941Z</time></trkpt><trkpt lat="42.349213" lon="14.0918192"><ele>56.39999999999999</ele><time>2026-05-02T06:51:44.94Z</time></trkpt><trkpt lat="42.349185" lon="14.0916821"><ele>56.6</ele><time>2026-05-02T06:51:45.941Z</time></trkpt><trkpt lat="42.3491638" lon="14.0915477"><ele>56.8</ele><time>2026-05-02T06:51:46.942Z</time></trkpt><trkpt lat="42.3491439" lon="14.0914114"><ele>57.0</ele><time>2026-05-02T06:51:47.941Z</time></trkpt><trkpt lat="42.3491276" lon="14.0912728"><ele>57.0</ele><time>2026-05-02T06:51:48.941Z</time></trkpt><trkpt lat="42.3491169" lon="14.0911387"><ele>57.0</ele><time>2026-05-02T06:51:49.941Z</time></trkpt><trkpt lat="42.3491184" lon="14.0910199"><ele>57.0</ele><time>2026-05-02T06:51:50.94Z</time></trkpt><trkpt lat="42.3491069" lon="14.0908958"><ele>57.0</ele><time>2026-05-02T06:51:51.941Z</time></trkpt><trkpt lat="42.3490911" lon="14.090766"><ele>57.0</ele><time>2026-05-02T06:51:52.941Z</time></trkpt><trkpt lat="42.3490616" lon="14.0906395"><ele>56.8</ele><time>2026-05-02T06:51:53.941Z</time></trkpt><trkpt lat="42.3490321" lon="14.0905076"><ele>56.6</ele><time>2026-05-02T06:51:54.941Z</time></trkpt><trkpt lat="42.3490048" lon="14.0903724"><ele>56.39999999999999</ele><time>2026-05-02T06:51:55.942Z</time></trkpt><trkpt lat="42.3489778" lon="14.0902321"><ele>56.199999999999996</ele><time>2026-05-02T06:51:56.941Z</time></trkpt><trkpt lat="42.3489536" lon="14.0900938"><ele>56.0</ele><time>2026-05-02T06:51:57.942Z</time></trkpt><trkpt lat="42.348934" lon="14.0899513"><ele>56.199999999999996</ele><time>2026-05-02T06:51:58.941Z</time></trkpt><trkpt lat="42.3489149" lon="14.0898165"><ele>56.39999999999999</ele><time>2026-05-02T06:51:59.94Z</time></trkpt><trkpt lat="42.3488979" lon="14.0896835"><ele>56.6</ele><time>2026-05-02T06:52:00.941Z</time></trkpt><trkpt lat="42.348888" lon="14.0895624"><ele>56.8</ele><time>2026-05-02T06:52:01.941Z</time></trkpt><trkpt lat="42.3488711" lon="14.0894475"><ele>57.0</ele><time>2026-05-02T06:52:02.941Z</time></trkpt><trkpt lat="42.3488548" lon="14.0893425"><ele>58.6</ele><time>2026-05-02T06:52:03.941Z</time></trkpt><trkpt lat="42.3488352" lon="14.0892252"><ele>60.2</ele><time>2026-05-02T06:52:04.94Z</time></trkpt><trkpt lat="42.3488116" lon="14.0891013"><ele>61.8</ele><time>2026-05-02T06:52:05.942Z</time></trkpt><trkpt lat="42.348795" lon="14.0889694"><ele>63.4</ele><time>2026-05-02T06:52:06.94Z</time></trkpt><trkpt lat="42.3487845" lon="14.0888297"><ele>65.0</ele><time>2026-05-02T06:52:07.941Z</time></trkpt><trkpt lat="42.3487832" lon="14.088688"><ele>65.0</ele><time>2026-05-02T06:52:08.941Z</time></trkpt><trkpt lat="42.3487852" lon="14.0885459"><ele>65.0</ele><time>2026-05-02T06:52:09.941Z</time></trkpt><trkpt lat="42.3487794" lon="14.0884103"><ele>65.0</ele><time>2026-05-02T06:52:10.942Z</time></trkpt><trkpt lat="42.3487725" lon="14.0882785"><ele>65.0</ele><time>2026-05-02T06:52:11.942Z</time></trkpt><trkpt lat="42.3487662" lon="14.0881539"><ele>65.0</ele><time>2026-05-02T06:52:12.941Z</time></trkpt><trkpt lat="42.3487523" lon="14.0880424"><ele>64.5</ele><time>2026-05-02T06:52:13.94Z</time></trkpt><trkpt lat="42.348729" lon="14.0879402"><ele>64.0</ele><time>2026-05-02T06:52:14.941Z</time></trkpt><trkpt lat="42.3487061" lon="14.0878446"><ele>63.5</ele><time>2026-05-02T06:52:15.94Z</time></trkpt><trkpt lat="42.3486862" lon="14.0877526"><ele>63.0</ele><time>2026-05-02T06:52:16.941Z</time></trkpt><trkpt lat="42.3486719" lon="14.0876599"><ele>62.50000000000001</ele><time>2026-05-02T06:52:17.941Z</time></trkpt><trkpt lat="42.3486651" lon="14.0875502"><ele>62.0</ele><time>2026-05-02T06:52:18.941Z</time></trkpt><trkpt lat="42.3486645" lon="14.0874335"><ele>62.142857142857146</ele><time>2026-05-02T06:52:19.942Z</time></trkpt><trkpt lat="42.348651" lon="14.0873295"><ele>62.28571428571429</ele><time>2026-05-02T06:52:20.94Z</time></trkpt><trkpt lat="42.3486325" lon="14.0872297"><ele>62.42857142857143</ele><time>2026-05-02T06:52:21.941Z</time></trkpt><trkpt lat="42.3485968" lon="14.0871484"><ele>62.57142857142857</ele><time>2026-05-02T06:52:22.941Z</time></trkpt><trkpt lat="42.348547" lon="14.0870724"><ele>62.714285714285715</ele><time>2026-05-02T06:52:23.941Z</time></trkpt><trkpt lat="42.3484902" lon="14.0870037"><ele>62.85714285714286</ele><time>2026-05-02T06:52:24.941Z</time></trkpt><trkpt lat="42.3484366" lon="14.0869527"><ele>63.0</ele><time>2026-05-02T06:52:25.941Z</time></trkpt><trkpt lat="42.3483356" lon="14.086863"><ele>63.0</ele><time>2026-05-02T06:52:27.941Z</time></trkpt><trkpt lat="42.3482447" lon="14.0867887"><ele>63.0</ele><time>2026-05-02T06:52:29.941Z</time></trkpt><trkpt lat="42.3481844" lon="14.0866915"><ele>63.0</ele><time>2026-05-02T06:52:31.941Z</time></trkpt><trkpt lat="42.3481506" lon="14.0865615"><ele>63.0</ele><time>2026-05-02T06:52:33.942Z</time></trkpt><trkpt lat="42.3481048" lon="14.0864101"><ele>63.0</ele><time>2026-05-02T06:52:35.941Z</time></trkpt><trkpt lat="42.34809" lon="14.0863261"><ele>63.0</ele><time>2026-05-02T06:52:36.942Z</time></trkpt><trkpt lat="42.3480854" lon="14.0862389"><ele>63.0</ele><time>2026-05-02T06:52:37.941Z</time></trkpt><trkpt lat="42.3480863" lon="14.0860815"><ele>63.0</ele><time>2026-05-02T06:52:39.941Z</time></trkpt><trkpt lat="42.3480686" lon="14.0859452"><ele>63.0</ele><time>2026-05-02T06:52:41.941Z</time></trkpt><trkpt lat="42.3480332" lon="14.085837"><ele>63.0</ele><time>2026-05-02T06:52:43.941Z</time></trkpt><trkpt lat="42.3480113" lon="14.0857184"><ele>64.0</ele><time>2026-05-02T06:52:45.941Z</time></trkpt><trkpt lat="42.3479929" lon="14.085536"><ele>65.0</ele><time>2026-05-02T06:52:47.941Z</time></trkpt><trkpt lat="42.3479859" lon="14.0854386"><ele>66.0</ele><time>2026-05-02T06:52:48.942Z</time></trkpt><trkpt lat="42.347975" lon="14.0853516"><ele>67.0</ele><time>2026-05-02T06:52:49.941Z</time></trkpt><trkpt lat="42.3479362" lon="14.0852669"><ele>68.0</ele><time>2026-05-02T06:52:50.941Z</time></trkpt><trkpt lat="42.3479029" lon="14.0851906"><ele>69.0</ele><time>2026-05-02T06:52:51.941Z</time></trkpt><trkpt lat="42.3478382" lon="14.085055"><ele>69.0</ele><time>2026-05-02T06:52:53.941Z</time></trkpt><trkpt lat="42.3478172" lon="14.0849578"><ele>69.0</ele><time>2026-05-02T06:52:54.943Z</time></trkpt><trkpt lat="42.3478148" lon="14.0848408"><ele>69.0</ele><time>2026-05-02T06:52:55.941Z</time></trkpt><trkpt lat="42.3478016" lon="14.0847321"><ele>69.0</ele><time>2026-05-02T06:52:56.941Z</time></trkpt><trkpt lat="42.347783" lon="14.0846344"><ele>69.0</ele><time>2026-05-02T06:52:57.943Z</time></trkpt><trkpt lat="42.3477518" lon="14.084527"><ele>69.0</ele><time>2026-05-02T06:52:58.94Z</time></trkpt><trkpt lat="42.347718" lon="14.0844262"><ele>68.83333333333333</ele><time>2026-05-02T06:52:59.94Z</time></trkpt><trkpt lat="42.347691" lon="14.0843334"><ele>68.66666666666667</ele><time>2026-05-02T06:53:00.941Z</time></trkpt><trkpt lat="42.3476623" lon="14.0842346"><ele>68.5</ele><time>2026-05-02T06:53:01.941Z</time></trkpt><trkpt lat="42.3476369" lon="14.0841386"><ele>68.33333333333334</ele><time>2026-05-02T06:53:02.941Z</time></trkpt><trkpt lat="42.3476213" lon="14.084034"><ele>68.16666666666667</ele><time>2026-05-02T06:53:03.942Z</time></trkpt><trkpt lat="42.3476111" lon="14.0839238"><ele>68.0</ele><time>2026-05-02T06:53:04.941Z</time></trkpt><trkpt lat="42.3476056" lon="14.0838171"><ele>68.0</ele><time>2026-05-02T06:53:05.941Z</time></trkpt><trkpt lat="42.3475988" lon="14.0837143"><ele>68.0</ele><time>2026-05-02T06:53:06.941Z</time></trkpt><trkpt lat="42.3475938" lon="14.0836131"><ele>68.0</ele><time>2026-05-02T06:53:07.941Z</time></trkpt><trkpt lat="42.3475887" lon="14.0835094"><ele>68.0</ele><time>2026-05-02T06:53:08.941Z</time></trkpt><trkpt lat="42.3475876" lon="14.0833977"><ele>68.0</ele><time>2026-05-02T06:53:09.941Z</time></trkpt><trkpt lat="42.3475934" lon="14.0832836"><ele>68.0</ele><time>2026-05-02T06:53:10.94Z</time></trkpt><trkpt lat="42.3476327" lon="14.0831736"><ele>68.0</ele><time>2026-05-02T06:53:11.941Z</time></trkpt><trkpt lat="42.3476659" lon="14.0830752"><ele>68.0</ele><time>2026-05-02T06:53:12.941Z</time></trkpt><trkpt lat="42.3477048" lon="14.0829927"><ele>68.0</ele><time>2026-05-02T06:53:13.941Z</time></trkpt><trkpt lat="42.3477602" lon="14.0829209"><ele>68.0</ele><time>2026-05-02T06:53:14.94Z</time></trkpt><trkpt lat="42.3478243" lon="14.0828549"><ele>68.0</ele><time>2026-05-02T06:53:15.941Z</time></trkpt><trkpt lat="42.3478883" lon="14.0827813"><ele>68.0</ele><time>2026-05-02T06:53:16.941Z</time></trkpt><trkpt lat="42.3479493" lon="14.0826936"><ele>68.0</ele><time>2026-05-02T06:53:17.941Z</time></trkpt><trkpt lat="42.3480045" lon="14.0825786"><ele>68.0</ele><time>2026-05-02T06:53:18.94Z</time></trkpt><trkpt lat="42.3480523" lon="14.0824599"><ele>68.0</ele><time>2026-05-02T06:53:19.942Z</time></trkpt><trkpt lat="42.348097" lon="14.082351"><ele>68.0</ele><time>2026-05-02T06:53:20.942Z</time></trkpt><trkpt lat="42.3481377" lon="14.0822455"><ele>68.0</ele><time>2026-05-02T06:53:21.94Z</time></trkpt><trkpt lat="42.3481803" lon="14.0821598"><ele>67.83333333333334</ele><time>2026-05-02T06:53:22.942Z</time></trkpt><trkpt lat="42.3482247" lon="14.0820704"><ele>67.66666666666667</ele><time>2026-05-02T06:53:23.942Z</time></trkpt><trkpt lat="42.3482628" lon="14.0819865"><ele>67.5</ele><time>2026-05-02T06:53:24.941Z</time></trkpt><trkpt lat="42.3483045" lon="14.0818522"><ele>67.33333333333333</ele><time>2026-05-02T06:53:26.941Z</time></trkpt><trkpt lat="42.3483225" lon="14.0817676"><ele>67.16666666666666</ele><time>2026-05-02T06:53:28.941Z</time></trkpt><trkpt lat="42.348335" lon="14.0816788"><ele>67.0</ele><time>2026-05-02T06:53:31.94Z</time></trkpt><trkpt lat="42.3483487" lon="14.0815811"><ele>66.66666666666666</ele><time>2026-05-02T06:53:52.941Z</time></trkpt><trkpt lat="42.348346" lon="14.0816791"><ele>66.33333333333333</ele><time>2026-05-02T06:54:10.942Z</time></trkpt><trkpt lat="42.3483257" lon="14.0817632"><ele>66.0</ele><time>2026-05-02T06:54:12.941Z</time></trkpt><trkpt lat="42.3483139" lon="14.0818771"><ele>65.66666666666667</ele><time>2026-05-02T06:54:15.94Z</time></trkpt><trkpt lat="42.3483661" lon="14.0819499"><ele>65.33333333333334</ele><time>2026-05-02T06:54:18.941Z</time></trkpt><trkpt lat="42.3484457" lon="14.0819987"><ele>65.0</ele><time>2026-05-02T06:54:20.941Z</time></trkpt><trkpt lat="42.3485212" lon="14.0819321"><ele>65.0</ele><time>2026-05-02T06:54:23.94Z</time></trkpt><trkpt lat="42.3485694" lon="14.0817913"><ele>65.0</ele><time>2026-05-02T06:54:25.941Z</time></trkpt><trkpt lat="42.3485844" lon="14.0816598"><ele>65.0</ele><time>2026-05-02T06:54:27.941Z</time></trkpt><trkpt lat="42.3486339" lon="14.0815488"><ele>65.0</ele><time>2026-05-02T06:54:29.941Z</time></trkpt><trkpt lat="42.3486891" lon="14.0815023"><ele>65.0</ele><time>2026-05-02T06:54:30.941Z</time></trkpt><trkpt lat="42.3487494" lon="14.0814557"><ele>65.0</ele><time>2026-05-02T06:54:31.941Z</time></trkpt><trkpt lat="42.3488131" lon="14.0814044"><ele>65.4</ele><time>2026-05-02T06:54:32.941Z</time></trkpt><trkpt lat="42.3488714" lon="14.0813591"><ele>65.8</ele><time>2026-05-02T06:54:33.94Z</time></trkpt><trkpt lat="42.3489298" lon="14.0813178"><ele>66.2</ele><time>2026-05-02T06:54:34.94Z</time></trkpt><trkpt lat="42.3490413" lon="14.0812518"><ele>66.6</ele><time>2026-05-02T06:54:36.941Z</time></trkpt><trkpt lat="42.3491548" lon="14.0812304"><ele>67.0</ele><time>2026-05-02T06:54:38.942Z</time></trkpt><trkpt lat="42.3492734" lon="14.0812444"><ele>67.0</ele><time>2026-05-02T06:54:40.941Z</time></trkpt><trkpt lat="42.3493409" lon="14.0812613"><ele>67.0</ele><time>2026-05-02T06:54:41.941Z</time></trkpt><trkpt lat="42.349453" lon="14.0812926"><ele>67.0</ele><time>2026-05-02T06:54:43.942Z</time></trkpt><trkpt lat="42.3495523" lon="14.0812847"><ele>67.0</ele><time>2026-05-02T06:54:45.941Z</time></trkpt><trkpt lat="42.3496253" lon="14.0812249"><ele>67.0</ele><time>2026-05-02T06:54:47.94Z</time></trkpt><trkpt lat="42.3496816" lon="14.0811384"><ele>67.0</ele><time>2026-05-02T06:54:49.941Z</time></trkpt><trkpt lat="42.3496944" lon="14.0810139"><ele>67.0</ele><time>2026-05-02T06:54:51.941Z</time></trkpt><trkpt lat="42.3496314" lon="14.080875"><ele>67.0</ele><time>2026-05-02T06:54:53.94Z</time></trkpt><trkpt lat="42.3495699" lon="14.0807413"><ele>67.0</ele><time>2026-05-02T06:54:55.941Z</time></trkpt><trkpt lat="42.3495451" lon="14.0806277"><ele>67.0</ele><time>2026-05-02T06:54:57.942Z</time></trkpt><trkpt lat="42.3495919" lon="14.0805464"><ele>66.8</ele><time>2026-05-02T06:54:59.943Z</time></trkpt><trkpt lat="42.3497065" lon="14.0804135"><ele>66.6</ele><time>2026-05-02T06:55:01.941Z</time></trkpt><trkpt lat="42.3497656" lon="14.0803421"><ele>66.39999999999999</ele><time>2026-05-02T06:55:02.941Z</time></trkpt><trkpt lat="42.3498279" lon="14.0802694"><ele>66.2</ele><time>2026-05-02T06:55:03.941Z</time></trkpt><trkpt lat="42.3498897" lon="14.080207"><ele>66.0</ele><time>2026-05-02T06:55:04.941Z</time></trkpt><trkpt lat="42.3499605" lon="14.0801456"><ele>66.0</ele><time>2026-05-02T06:55:05.941Z</time></trkpt><trkpt lat="42.3500334" lon="14.0800901"><ele>66.0</ele><time>2026-05-02T06:55:06.941Z</time></trkpt><trkpt lat="42.3501078" lon="14.0800248"><ele>66.0</ele><time>2026-05-02T06:55:07.941Z</time></trkpt><trkpt lat="42.3501773" lon="14.0799505"><ele>66.0</ele><time>2026-05-02T06:55:08.94Z</time></trkpt><trkpt lat="42.3502241" lon="14.0798494"><ele>66.0</ele><time>2026-05-02T06:55:09.94Z</time></trkpt><trkpt lat="42.3502773" lon="14.0797491"><ele>66.0</ele><time>2026-05-02T06:55:10.941Z</time></trkpt><trkpt lat="42.3503148" lon="14.0796284"><ele>66.0</ele><time>2026-05-02T06:55:11.941Z</time></trkpt><trkpt lat="42.3503453" lon="14.0795075"><ele>66.0</ele><time>2026-05-02T06:55:12.941Z</time></trkpt><trkpt lat="42.350366" lon="14.0793908"><ele>66.0</ele><time>2026-05-02T06:55:13.942Z</time></trkpt><trkpt lat="42.3503811" lon="14.0792837"><ele>66.0</ele><time>2026-05-02T06:55:14.942Z</time></trkpt><trkpt lat="42.3504048" lon="14.0791786"><ele>66.0</ele><time>2026-05-02T06:55:15.941Z</time></trkpt><trkpt lat="42.3504314" lon="14.0790813"><ele>66.0</ele><time>2026-05-02T06:55:16.94Z</time></trkpt><trkpt lat="42.3504563" lon="14.0789787"><ele>66.0</ele><time>2026-05-02T06:55:17.942Z</time></trkpt><trkpt lat="42.3504845" lon="14.0788842"><ele>66.0</ele><time>2026-05-02T06:55:18.942Z</time></trkpt><trkpt lat="42.3505201" lon="14.0787865"><ele>66.0</ele><time>2026-05-02T06:55:19.942Z</time></trkpt><trkpt lat="42.3505514" lon="14.0786941"><ele>66.0</ele><time>2026-05-02T06:55:20.942Z</time></trkpt><trkpt lat="42.3505673" lon="14.0785998"><ele>66.0</ele><time>2026-05-02T06:55:21.941Z</time></trkpt><trkpt lat="42.3505736" lon="14.0785097"><ele>66.0</ele><time>2026-05-02T06:55:22.942Z</time></trkpt><trkpt lat="42.350572" lon="14.0784129"><ele>66.0</ele><time>2026-05-02T06:55:23.942Z</time></trkpt><trkpt lat="42.3505628" lon="14.0783126"><ele>66.16666666666667</ele><time>2026-05-02T06:55:24.941Z</time></trkpt><trkpt lat="42.350545" lon="14.0782111"><ele>66.33333333333333</ele><time>2026-05-02T06:55:25.942Z</time></trkpt><trkpt lat="42.3505202" lon="14.0781043"><ele>66.5</ele><time>2026-05-02T06:55:26.941Z</time></trkpt><trkpt lat="42.3505011" lon="14.078002"><ele>66.66666666666666</ele><time>2026-05-02T06:55:27.941Z</time></trkpt><trkpt lat="42.3504887" lon="14.0778959"><ele>66.83333333333333</ele><time>2026-05-02T06:55:28.941Z</time></trkpt><trkpt lat="42.3504814" lon="14.0777891"><ele>67.0</ele><time>2026-05-02T06:55:29.94Z</time></trkpt><trkpt lat="42.3504671" lon="14.0776794"><ele>67.0</ele><time>2026-05-02T06:55:30.941Z</time></trkpt><trkpt lat="42.3504576" lon="14.07757"><ele>67.0</ele><time>2026-05-02T06:55:31.941Z</time></trkpt><trkpt lat="42.3504536" lon="14.0774575"><ele>67.0</ele><time>2026-05-02T06:55:32.942Z</time></trkpt><trkpt lat="42.3504516" lon="14.0773419"><ele>67.0</ele><time>2026-05-02T06:55:33.941Z</time></trkpt><trkpt lat="42.3504557" lon="14.0772235"><ele>67.0</ele><time>2026-05-02T06:55:34.941Z</time></trkpt><trkpt lat="42.3504602" lon="14.0770967"><ele>67.0</ele><time>2026-05-02T06:55:35.941Z</time></trkpt><trkpt lat="42.3504567" lon="14.0769719"><ele>67.16666666666666</ele><time>2026-05-02T06:55:36.941Z</time></trkpt><trkpt lat="42.3504528" lon="14.076854"><ele>67.33333333333333</ele><time>2026-05-02T06:55:37.942Z</time></trkpt><trkpt lat="42.3504501" lon="14.0767343"><ele>67.5</ele><time>2026-05-02T06:55:38.941Z</time></trkpt><trkpt lat="42.3504609" lon="14.0766133"><ele>67.66666666666667</ele><time>2026-05-02T06:55:39.941Z</time></trkpt><trkpt lat="42.3504831" lon="14.0765036"><ele>67.83333333333334</ele><time>2026-05-02T06:55:40.942Z</time></trkpt><trkpt lat="42.3504944" lon="14.0763986"><ele>68.0</ele><time>2026-05-02T06:55:41.941Z</time></trkpt><trkpt lat="42.3504997" lon="14.0762964"><ele>68.33333333333334</ele><time>2026-05-02T06:55:42.941Z</time></trkpt><trkpt lat="42.3504955" lon="14.076189"><ele>68.66666666666667</ele><time>2026-05-02T06:55:43.941Z</time></trkpt><trkpt lat="42.3504783" lon="14.0760779"><ele>69.0</ele><time>2026-05-02T06:55:44.94Z</time></trkpt><trkpt lat="42.3504521" lon="14.0759579"><ele>69.33333333333333</ele><time>2026-05-02T06:55:45.941Z</time></trkpt><trkpt lat="42.3504303" lon="14.0758412"><ele>69.66666666666666</ele><time>2026-05-02T06:55:46.941Z</time></trkpt><trkpt lat="42.3504205" lon="14.0757366"><ele>70.0</ele><time>2026-05-02T06:55:47.94Z</time></trkpt><trkpt lat="42.3504136" lon="14.0756487"><ele>70.2</ele><time>2026-05-02T06:55:48.94Z</time></trkpt><trkpt lat="42.3504076" lon="14.0755144"><ele>70.4</ele><time>2026-05-02T06:55:50.94Z</time></trkpt><trkpt lat="42.350447" lon="14.0754173"><ele>70.6</ele><time>2026-05-02T06:55:52.941Z</time></trkpt><trkpt lat="42.3505543" lon="14.0753596"><ele>70.8</ele><time>2026-05-02T06:55:54.941Z</time></trkpt><trkpt lat="42.3506261" lon="14.075346"><ele>71.0</ele><time>2026-05-02T06:55:55.941Z</time></trkpt><trkpt lat="42.3507082" lon="14.0753259"><ele>71.0</ele><time>2026-05-02T06:55:56.94Z</time></trkpt><trkpt lat="42.3507985" lon="14.0752917"><ele>71.0</ele><time>2026-05-02T06:55:57.941Z</time></trkpt><trkpt lat="42.3508942" lon="14.0752619"><ele>71.0</ele><time>2026-05-02T06:55:58.941Z</time></trkpt><trkpt lat="42.3510005" lon="14.0752237"><ele>71.0</ele><time>2026-05-02T06:55:59.94Z</time></trkpt><trkpt lat="42.3511072" lon="14.0751881"><ele>71.0</ele><time>2026-05-02T06:56:00.94Z</time></trkpt><trkpt lat="42.3511991" lon="14.0751677"><ele>71.0</ele><time>2026-05-02T06:56:01.941Z</time></trkpt><trkpt lat="42.351287" lon="14.0751332"><ele>71.0</ele><time>2026-05-02T06:56:02.942Z</time></trkpt><trkpt lat="42.3513726" lon="14.0751049"><ele>71.0</ele><time>2026-05-02T06:56:03.941Z</time></trkpt><trkpt lat="42.351452" lon="14.0750846"><ele>71.0</ele><time>2026-05-02T06:56:04.942Z</time></trkpt><trkpt lat="42.3515456" lon="14.0750798"><ele>71.0</ele><time>2026-05-02T06:56:05.941Z</time></trkpt><trkpt lat="42.3516463" lon="14.0750779"><ele>71.5</ele><time>2026-05-02T06:56:06.94Z</time></trkpt><trkpt lat="42.3517539" lon="14.0750926"><ele>72.0</ele><time>2026-05-02T06:56:07.941Z</time></trkpt><trkpt lat="42.3518681" lon="14.0751094"><ele>72.5</ele><time>2026-05-02T06:56:08.94Z</time></trkpt><trkpt lat="42.3519903" lon="14.0751262"><ele>73.0</ele><time>2026-05-02T06:56:09.941Z</time></trkpt><trkpt lat="42.3521141" lon="14.075146"><ele>74.0</ele><time>2026-05-02T06:56:10.941Z</time></trkpt><trkpt lat="42.352238" lon="14.0751705"><ele>75.0</ele><time>2026-05-02T06:56:11.942Z</time></trkpt><trkpt lat="42.3523689" lon="14.0751909"><ele>76.0</ele><time>2026-05-02T06:56:12.942Z</time></trkpt><trkpt lat="42.352504" lon="14.0752038"><ele>77.0</ele><time>2026-05-02T06:56:13.941Z</time></trkpt><trkpt lat="42.3526334" lon="14.0752171"><ele>77.0</ele><time>2026-05-02T06:56:14.942Z</time></trkpt><trkpt lat="42.3527501" lon="14.0752317"><ele>77.0</ele><time>2026-05-02T06:56:15.941Z</time></trkpt><trkpt lat="42.3528586" lon="14.0752601"><ele>77.0</ele><time>2026-05-02T06:56:16.942Z</time></trkpt><trkpt lat="42.3529467" lon="14.0752761"><ele>77.0</ele><time>2026-05-02T06:56:17.941Z</time></trkpt><trkpt lat="42.3530356" lon="14.0752986"><ele>77.0</ele><time>2026-05-02T06:56:18.941Z</time></trkpt><trkpt lat="42.3531303" lon="14.0753278"><ele>79.8</ele><time>2026-05-02T06:56:19.941Z</time></trkpt><trkpt lat="42.3532229" lon="14.0753567"><ele>82.6</ele><time>2026-05-02T06:56:20.948Z</time></trkpt><trkpt lat="42.3533224" lon="14.0753711"><ele>85.39999999999999</ele><time>2026-05-02T06:56:21.941Z</time></trkpt><trkpt lat="42.3534251" lon="14.0753638"><ele>88.2</ele><time>2026-05-02T06:56:22.94Z</time></trkpt><trkpt lat="42.3535353" lon="14.0753472"><ele>91.0</ele><time>2026-05-02T06:56:23.944Z</time></trkpt><trkpt lat="42.3536486" lon="14.0753239"><ele>91.0</ele><time>2026-05-02T06:56:24.947Z</time></trkpt><trkpt lat="42.3537629" lon="14.0752979"><ele>91.0</ele><time>2026-05-02T06:56:25.941Z</time></trkpt><trkpt lat="42.3538772" lon="14.0752704"><ele>91.0</ele><time>2026-05-02T06:56:26.941Z</time></trkpt><trkpt lat="42.3539931" lon="14.0752387"><ele>91.0</ele><time>2026-05-02T06:56:27.941Z</time></trkpt><trkpt lat="42.3541046" lon="14.0752104"><ele>92.5</ele><time>2026-05-02T06:56:28.942Z</time></trkpt><trkpt lat="42.3542249" lon="14.0751796"><ele>94.0</ele><time>2026-05-02T06:56:29.94Z</time></trkpt><trkpt lat="42.3543468" lon="14.0751509"><ele>95.5</ele><time>2026-05-02T06:56:30.94Z</time></trkpt><trkpt lat="42.3544699" lon="14.0751194"><ele>97.0</ele><time>2026-05-02T06:56:31.94Z</time></trkpt><trkpt lat="42.3545914" lon="14.0750864"><ele>100.25</ele><time>2026-05-02T06:56:32.94Z</time></trkpt><trkpt lat="42.3547106" lon="14.0750525"><ele>103.5</ele><time>2026-05-02T06:56:33.941Z</time></trkpt><trkpt lat="42.3548344" lon="14.0750234"><ele>106.75</ele><time>2026-05-02T06:56:34.941Z</time></trkpt><trkpt lat="42.3549551" lon="14.0750003"><ele>110.0</ele><time>2026-05-02T06:56:35.94Z</time></trkpt><trkpt lat="42.3550757" lon="14.0749764"><ele>110.0</ele><time>2026-05-02T06:56:36.942Z</time></trkpt><trkpt lat="42.3551949" lon="14.0749537"><ele>110.0</ele><time>2026-05-02T06:56:37.941Z</time></trkpt><trkpt lat="42.3553119" lon="14.0749352"><ele>110.0</ele><time>2026-05-02T06:56:38.94Z</time></trkpt><trkpt lat="42.3554297" lon="14.0749187"><ele>110.0</ele><time>2026-05-02T06:56:39.941Z</time></trkpt><trkpt lat="42.3555515" lon="14.0749058"><ele>112.5</ele><time>2026-05-02T06:56:40.94Z</time></trkpt><trkpt lat="42.3556759" lon="14.0748893"><ele>115.0</ele><time>2026-05-02T06:56:41.942Z</time></trkpt><trkpt lat="42.3557949" lon="14.0748759"><ele>117.5</ele><time>2026-05-02T06:56:42.941Z</time></trkpt><trkpt lat="42.3559065" lon="14.0748747"><ele>120.0</ele><time>2026-05-02T06:56:43.94Z</time></trkpt><trkpt lat="42.3560082" lon="14.0748757"><ele>120.0</ele><time>2026-05-02T06:56:44.94Z</time></trkpt><trkpt lat="42.3561026" lon="14.0748781"><ele>120.0</ele><time>2026-05-02T06:56:45.941Z</time></trkpt><trkpt lat="42.3561858" lon="14.0748823"><ele>120.0</ele><time>2026-05-02T06:56:46.94Z</time></trkpt><trkpt lat="42.3562584" lon="14.0748936"><ele>120.0</ele><time>2026-05-02T06:56:47.941Z</time></trkpt><trkpt lat="42.35633" lon="14.0749021"><ele>120.0</ele><time>2026-05-02T06:56:48.941Z</time></trkpt><trkpt lat="42.3564497" lon="14.074926"><ele>120.0</ele><time>2026-05-02T06:56:50.941Z</time></trkpt><trkpt lat="42.3565744" lon="14.0749474"><ele>120.6</ele><time>2026-05-02T06:56:52.94Z</time></trkpt><trkpt lat="42.3566507" lon="14.0749592"><ele>121.2</ele><time>2026-05-02T06:56:53.941Z</time></trkpt><trkpt lat="42.3567376" lon="14.0749733"><ele>121.80000000000001</ele><time>2026-05-02T06:56:54.941Z</time></trkpt><trkpt lat="42.3568318" lon="14.0749842"><ele>122.4</ele><time>2026-05-02T06:56:55.942Z</time></trkpt><trkpt lat="42.3569265" lon="14.0750023"><ele>123.0</ele><time>2026-05-02T06:56:56.942Z</time></trkpt><trkpt lat="42.3570368" lon="14.0750287"><ele>123.0</ele><time>2026-05-02T06:56:57.943Z</time></trkpt><trkpt lat="42.3571444" lon="14.0750521"><ele>123.00000000000001</ele><time>2026-05-02T06:56:58.94Z</time></trkpt><trkpt lat="42.3572502" lon="14.0750752"><ele>123.00000000000001</ele><time>2026-05-02T06:56:59.94Z</time></trkpt><trkpt lat="42.3573589" lon="14.0750977"><ele>123.0</ele><time>2026-05-02T06:57:00.942Z</time></trkpt><trkpt lat="42.3574729" lon="14.0751205"><ele>123.0</ele><time>2026-05-02T06:57:01.941Z</time></trkpt><trkpt lat="42.3575904" lon="14.0751452"><ele>122.75</ele><time>2026-05-02T06:57:02.941Z</time></trkpt><trkpt lat="42.3577112" lon="14.0751782"><ele>122.5</ele><time>2026-05-02T06:57:03.941Z</time></trkpt><trkpt lat="42.3578324" lon="14.0752113"><ele>122.25</ele><time>2026-05-02T06:57:04.94Z</time></trkpt><trkpt lat="42.3579449" lon="14.0752494"><ele>122.0</ele><time>2026-05-02T06:57:05.942Z</time></trkpt><trkpt lat="42.3580494" lon="14.0752876"><ele>121.8</ele><time>2026-05-02T06:57:06.941Z</time></trkpt><trkpt lat="42.3581494" lon="14.0753286"><ele>121.6</ele><time>2026-05-02T06:57:07.94Z</time></trkpt><trkpt lat="42.3582407" lon="14.0753693"><ele>121.39999999999999</ele><time>2026-05-02T06:57:08.941Z</time></trkpt><trkpt lat="42.3583413" lon="14.0754033"><ele>121.19999999999999</ele><time>2026-05-02T06:57:09.941Z</time></trkpt><trkpt lat="42.3584328" lon="14.0754383"><ele>121.0</ele><time>2026-05-02T06:57:10.941Z</time></trkpt><trkpt lat="42.358516" lon="14.0754729"><ele>121.0</ele><time>2026-05-02T06:57:11.941Z</time></trkpt><trkpt lat="42.3585893" lon="14.0755072"><ele>121.0</ele><time>2026-05-02T06:57:12.941Z</time></trkpt><trkpt lat="42.3586803" lon="14.0755525"><ele>121.0</ele><time>2026-05-02T06:57:14.941Z</time></trkpt><trkpt lat="42.3587977" lon="14.0755339"><ele>121.0</ele><time>2026-05-02T06:57:16.941Z</time></trkpt><trkpt lat="42.3588687" lon="14.0754935"><ele>121.0</ele><time>2026-05-02T06:57:17.941Z</time></trkpt><trkpt lat="42.3589524" lon="14.0754369"><ele>121.8</ele><time>2026-05-02T06:57:18.941Z</time></trkpt><trkpt lat="42.359043" lon="14.0753781"><ele>122.6</ele><time>2026-05-02T06:57:19.941Z</time></trkpt><trkpt lat="42.3591315" lon="14.0753225"><ele>123.4</ele><time>2026-05-02T06:57:20.941Z</time></trkpt><trkpt lat="42.3592213" lon="14.0752585"><ele>124.2</ele><time>2026-05-02T06:57:21.942Z</time></trkpt><trkpt lat="42.3593207" lon="14.0751863"><ele>125.0</ele><time>2026-05-02T06:57:22.94Z</time></trkpt><trkpt lat="42.3594307" lon="14.0751066"><ele>125.0</ele><time>2026-05-02T06:57:23.941Z</time></trkpt><trkpt lat="42.3595471" lon="14.0750234"><ele>125.0</ele><time>2026-05-02T06:57:24.942Z</time></trkpt><trkpt lat="42.3596596" lon="14.0749401"><ele>125.0</ele><time>2026-05-02T06:57:25.941Z</time></trkpt><trkpt lat="42.3597722" lon="14.0748579"><ele>125.0</ele><time>2026-05-02T06:57:26.942Z</time></trkpt><trkpt lat="42.3598836" lon="14.074777"><ele>125.75</ele><time>2026-05-02T06:57:27.942Z</time></trkpt><trkpt lat="42.3599857" lon="14.0747015"><ele>126.5</ele><time>2026-05-02T06:57:28.942Z</time></trkpt><trkpt lat="42.360089" lon="14.0746296"><ele>127.25</ele><time>2026-05-02T06:57:29.94Z</time></trkpt><trkpt lat="42.3601912" lon="14.0745609"><ele>128.0</ele><time>2026-05-02T06:57:30.94Z</time></trkpt><trkpt lat="42.3602941" lon="14.0744878"><ele>128.0</ele><time>2026-05-02T06:57:31.941Z</time></trkpt><trkpt lat="42.360417" lon="14.0744088"><ele>128.0</ele><time>2026-05-02T06:57:32.941Z</time></trkpt><trkpt lat="42.3605369" lon="14.0743314"><ele>128.0</ele><time>2026-05-02T06:57:33.94Z</time></trkpt><trkpt lat="42.3606522" lon="14.0742557"><ele>128.0</ele><time>2026-05-02T06:57:34.941Z</time></trkpt><trkpt lat="42.3607726" lon="14.0741676"><ele>129.5</ele><time>2026-05-02T06:57:35.941Z</time></trkpt><trkpt lat="42.360888" lon="14.0740884"><ele>131.0</ele><time>2026-05-02T06:57:36.941Z</time></trkpt><trkpt lat="42.3609927" lon="14.0740211"><ele>132.5</ele><time>2026-05-02T06:57:37.941Z</time></trkpt><trkpt lat="42.3610883" lon="14.0739544"><ele>134.0</ele><time>2026-05-02T06:57:38.94Z</time></trkpt><trkpt lat="42.3611847" lon="14.0738862"><ele>134.0</ele><time>2026-05-02T06:57:39.94Z</time></trkpt><trkpt lat="42.361289" lon="14.0738163"><ele>134.0</ele><time>2026-05-02T06:57:40.94Z</time></trkpt><trkpt lat="42.3613913" lon="14.0737418"><ele>134.0</ele><time>2026-05-02T06:57:41.941Z</time></trkpt><trkpt lat="42.3614854" lon="14.0736715"><ele>134.0</ele><time>2026-05-02T06:57:42.942Z</time></trkpt><trkpt lat="42.3615695" lon="14.0736091"><ele>134.0</ele><time>2026-05-02T06:57:43.94Z</time></trkpt><trkpt lat="42.3616413" lon="14.0735632"><ele>134.6</ele><time>2026-05-02T06:57:44.941Z</time></trkpt><trkpt lat="42.3617292" lon="14.0735227"><ele>135.2</ele><time>2026-05-02T06:57:46.941Z</time></trkpt><trkpt lat="42.3617554" lon="14.0734212"><ele>135.79999999999998</ele><time>2026-05-02T06:57:49.94Z</time></trkpt><trkpt lat="42.3616842" lon="14.0732864"><ele>136.4</ele><time>2026-05-02T06:57:51.942Z</time></trkpt><trkpt lat="42.3616253" lon="14.0731885"><ele>137.0</ele><time>2026-05-02T06:57:52.941Z</time></trkpt><trkpt lat="42.3615536" lon="14.0730852"><ele>137.0</ele><time>2026-05-02T06:57:53.94Z</time></trkpt><trkpt lat="42.3614703" lon="14.0729578"><ele>137.0</ele><time>2026-05-02T06:57:54.94Z</time></trkpt><trkpt lat="42.361385" lon="14.0728182"><ele>137.0</ele><time>2026-05-02T06:57:55.94Z</time></trkpt><trkpt lat="42.3612937" lon="14.0726771"><ele>137.0</ele><time>2026-05-02T06:57:56.941Z</time></trkpt><trkpt lat="42.3611988" lon="14.0725383"><ele>135.66666666666666</ele><time>2026-05-02T06:57:57.94Z</time></trkpt><trkpt lat="42.3611018" lon="14.0723849"><ele>134.33333333333334</ele><time>2026-05-02T06:57:58.941Z</time></trkpt><trkpt lat="42.3609957" lon="14.0722214"><ele>133.0</ele><time>2026-05-02T06:57:59.941Z</time></trkpt><trkpt lat="42.3608841" lon="14.0720631"><ele>133.0</ele><time>2026-05-02T06:58:00.941Z</time></trkpt><trkpt lat="42.3607795" lon="14.0718934"><ele>133.0</ele><time>2026-05-02T06:58:01.941Z</time></trkpt><trkpt lat="42.3606954" lon="14.0717179"><ele>133.0</ele><time>2026-05-02T06:58:02.941Z</time></trkpt><trkpt lat="42.3606237" lon="14.0715249"><ele>133.0</ele><time>2026-05-02T06:58:03.94Z</time></trkpt><trkpt lat="42.360568" lon="14.0713213"><ele>133.0</ele><time>2026-05-02T06:58:04.941Z</time></trkpt><trkpt lat="42.3605199" lon="14.0711031"><ele>133.0</ele><time>2026-05-02T06:58:05.941Z</time></trkpt><trkpt lat="42.3604719" lon="14.0708815"><ele>133.66666666666669</ele><time>2026-05-02T06:58:06.941Z</time></trkpt><trkpt lat="42.3604249" lon="14.0706453"><ele>134.33333333333334</ele><time>2026-05-02T06:58:07.941Z</time></trkpt><trkpt lat="42.3603754" lon="14.0704083"><ele>135.0</ele><time>2026-05-02T06:58:08.942Z</time></trkpt><trkpt lat="42.3603273" lon="14.0701704"><ele>135.0</ele><time>2026-05-02T06:58:09.942Z</time></trkpt><trkpt lat="42.3602789" lon="14.0699434"><ele>135.0</ele><time>2026-05-02T06:58:10.941Z</time></trkpt><trkpt lat="42.36024" lon="14.0697156"><ele>135.0</ele><time>2026-05-02T06:58:11.941Z</time></trkpt><trkpt lat="42.3602182" lon="14.0694915"><ele>136.0</ele><time>2026-05-02T06:58:12.94Z</time></trkpt><trkpt lat="42.3602156" lon="14.0692691"><ele>137.0</ele><time>2026-05-02T06:58:13.941Z</time></trkpt><trkpt lat="42.3602355" lon="14.0690513"><ele>138.0</ele><time>2026-05-02T06:58:14.941Z</time></trkpt><trkpt lat="42.3602749" lon="14.0688561"><ele>138.5</ele><time>2026-05-02T06:58:15.942Z</time></trkpt><trkpt lat="42.3603326" lon="14.06868"><ele>139.0</ele><time>2026-05-02T06:58:16.941Z</time></trkpt><trkpt lat="42.3604059" lon="14.0685196"><ele>139.5</ele><time>2026-05-02T06:58:17.941Z</time></trkpt><trkpt lat="42.3604775" lon="14.0684001"><ele>140.0</ele><time>2026-05-02T06:58:18.94Z</time></trkpt><trkpt lat="42.3605346" lon="14.0683089"><ele>140.0</ele><time>2026-05-02T06:58:19.942Z</time></trkpt><trkpt lat="42.3605886" lon="14.0682106"><ele>140.0</ele><time>2026-05-02T06:58:20.941Z</time></trkpt><trkpt lat="42.3606384" lon="14.0680869"><ele>140.0</ele><time>2026-05-02T06:58:21.94Z</time></trkpt><trkpt lat="42.3606785" lon="14.0679459"><ele>140.0</ele><time>2026-05-02T06:58:22.941Z</time></trkpt><trkpt lat="42.3606946" lon="14.0678"><ele>140.0</ele><time>2026-05-02T06:58:23.94Z</time></trkpt><trkpt lat="42.3606888" lon="14.0676598"><ele>140.0</ele><time>2026-05-02T06:58:24.94Z</time></trkpt><trkpt lat="42.3606591" lon="14.0675153"><ele>140.0</ele><time>2026-05-02T06:58:25.94Z</time></trkpt><trkpt lat="42.3606082" lon="14.0673907"><ele>140.0</ele><time>2026-05-02T06:58:26.94Z</time></trkpt><trkpt lat="42.360547" lon="14.0672649"><ele>140.0</ele><time>2026-05-02T06:58:27.94Z</time></trkpt><trkpt lat="42.3604864" lon="14.0671438"><ele>140.0</ele><time>2026-05-02T06:58:28.942Z</time></trkpt><trkpt lat="42.3604333" lon="14.0670303"><ele>138.2</ele><time>2026-05-02T06:58:29.941Z</time></trkpt><trkpt lat="42.3603938" lon="14.0669159"><ele>136.4</ele><time>2026-05-02T06:58:30.941Z</time></trkpt><trkpt lat="42.3603781" lon="14.0668133"><ele>134.6</ele><time>2026-05-02T06:58:31.94Z</time></trkpt><trkpt lat="42.3603539" lon="14.0666739"><ele>132.8</ele><time>2026-05-02T06:58:33.941Z</time></trkpt><trkpt lat="42.3602841" lon="14.0665917"><ele>131.0</ele><time>2026-05-02T06:58:35.941Z</time></trkpt><trkpt lat="42.3601487" lon="14.0665748"><ele>131.0</ele><time>2026-05-02T06:58:37.939Z</time></trkpt><trkpt lat="42.3600699" lon="14.0665338"><ele>131.0</ele><time>2026-05-02T06:58:38.94Z</time></trkpt><trkpt lat="42.3599878" lon="14.066459"><ele>131.0</ele><time>2026-05-02T06:58:39.94Z</time></trkpt><trkpt lat="42.3599052" lon="14.0663562"><ele>131.0</ele><time>2026-05-02T06:58:40.941Z</time></trkpt><trkpt lat="42.3598137" lon="14.0662233"><ele>131.0</ele><time>2026-05-02T06:58:41.941Z</time></trkpt><trkpt lat="42.3597254" lon="14.0660565"><ele>131.66666666666666</ele><time>2026-05-02T06:58:42.94Z</time></trkpt><trkpt lat="42.3596365" lon="14.0658602"><ele>132.33333333333334</ele><time>2026-05-02T06:58:43.941Z</time></trkpt><trkpt lat="42.3595476" lon="14.0656589"><ele>133.0</ele><time>2026-05-02T06:58:44.941Z</time></trkpt><trkpt lat="42.3594503" lon="14.0654733"><ele>130.0</ele><time>2026-05-02T06:58:45.941Z</time></trkpt><trkpt lat="42.3593416" lon="14.0653113"><ele>127.0</ele><time>2026-05-02T06:58:46.941Z</time></trkpt><trkpt lat="42.359218" lon="14.0651725"><ele>124.0</ele><time>2026-05-02T06:58:47.941Z</time></trkpt><trkpt lat="42.3590849" lon="14.0650363"><ele>123.33333333333334</ele><time>2026-05-02T06:58:48.941Z</time></trkpt><trkpt lat="42.3589719" lon="14.0648874"><ele>122.66666666666666</ele><time>2026-05-02T06:58:49.941Z</time></trkpt><trkpt lat="42.3588697" lon="14.0647231"><ele>122.0</ele><time>2026-05-02T06:58:50.94Z</time></trkpt><trkpt lat="42.3587705" lon="14.0645459"><ele>121.5</ele><time>2026-05-02T06:58:51.94Z</time></trkpt><trkpt lat="42.3586755" lon="14.0643738"><ele>121.0</ele><time>2026-05-02T06:58:52.94Z</time></trkpt><trkpt lat="42.3585827" lon="14.0642228"><ele>120.5</ele><time>2026-05-02T06:58:53.942Z</time></trkpt><trkpt lat="42.358489" lon="14.0641139"><ele>120.0</ele><time>2026-05-02T06:58:54.94Z</time></trkpt><trkpt lat="42.3583864" lon="14.0640276"><ele>117.25</ele><time>2026-05-02T06:58:55.941Z</time></trkpt><trkpt lat="42.3582724" lon="14.0639793"><ele>114.5</ele><time>2026-05-02T06:58:56.94Z</time></trkpt><trkpt lat="42.3581486" lon="14.0639675"><ele>111.75</ele><time>2026-05-02T06:58:57.94Z</time></trkpt><trkpt lat="42.358018" lon="14.0639814"><ele>109.0</ele><time>2026-05-02T06:58:58.941Z</time></trkpt><trkpt lat="42.3578848" lon="14.0639918"><ele>108.0</ele><time>2026-05-02T06:58:59.941Z</time></trkpt><trkpt lat="42.3577664" lon="14.0639825"><ele>107.0</ele><time>2026-05-02T06:59:00.942Z</time></trkpt><trkpt lat="42.3576542" lon="14.063938"><ele>106.0</ele><time>2026-05-02T06:59:01.941Z</time></trkpt><trkpt lat="42.3575492" lon="14.0638649"><ele>105.0</ele><time>2026-05-02T06:59:02.941Z</time></trkpt><trkpt lat="42.357434" lon="14.0637763"><ele>105.0</ele><time>2026-05-02T06:59:03.942Z</time></trkpt><trkpt lat="42.357314" lon="14.0636949"><ele>105.0</ele><time>2026-05-02T06:59:04.941Z</time></trkpt><trkpt lat="42.3571886" lon="14.063642"><ele>105.0</ele><time>2026-05-02T06:59:05.941Z</time></trkpt><trkpt lat="42.357067" lon="14.0635939"><ele>105.0</ele><time>2026-05-02T06:59:06.94Z</time></trkpt><trkpt lat="42.3569473" lon="14.0635546"><ele>103.75</ele><time>2026-05-02T06:59:07.941Z</time></trkpt><trkpt lat="42.3568304" lon="14.0635432"><ele>102.5</ele><time>2026-05-02T06:59:08.941Z</time></trkpt><trkpt lat="42.3567064" lon="14.0635519"><ele>101.25</ele><time>2026-05-02T06:59:09.941Z</time></trkpt><trkpt lat="42.3565955" lon="14.0635799"><ele>100.0</ele><time>2026-05-02T06:59:10.94Z</time></trkpt><trkpt lat="42.3564802" lon="14.0636161"><ele>98.4</ele><time>2026-05-02T06:59:11.941Z</time></trkpt><trkpt lat="42.3563676" lon="14.0636676"><ele>96.8</ele><time>2026-05-02T06:59:12.941Z</time></trkpt><trkpt lat="42.3562642" lon="14.0637328"><ele>95.19999999999999</ele><time>2026-05-02T06:59:13.942Z</time></trkpt><trkpt lat="42.3561675" lon="14.0637934"><ele>93.6</ele><time>2026-05-02T06:59:14.942Z</time></trkpt><trkpt lat="42.3560707" lon="14.0638405"><ele>92.0</ele><time>2026-05-02T06:59:15.94Z</time></trkpt><trkpt lat="42.3559778" lon="14.0638606"><ele>92.0</ele><time>2026-05-02T06:59:16.941Z</time></trkpt><trkpt lat="42.3558855" lon="14.0638518"><ele>92.0</ele><time>2026-05-02T06:59:17.94Z</time></trkpt><trkpt lat="42.3557992" lon="14.0638095"><ele>92.0</ele><time>2026-05-02T06:59:18.939Z</time></trkpt><trkpt lat="42.3557256" lon="14.0637367"><ele>92.0</ele><time>2026-05-02T06:59:19.941Z</time></trkpt><trkpt lat="42.3556682" lon="14.0636422"><ele>92.0</ele><time>2026-05-02T06:59:20.941Z</time></trkpt><trkpt lat="42.3556205" lon="14.0635266"><ele>92.0</ele><time>2026-05-02T06:59:21.941Z</time></trkpt><trkpt lat="42.3555804" lon="14.0633997"><ele>92.0</ele><time>2026-05-02T06:59:22.941Z</time></trkpt><trkpt lat="42.3555464" lon="14.0632425"><ele>92.0</ele><time>2026-05-02T06:59:23.941Z</time></trkpt><trkpt lat="42.3555054" lon="14.0630877"><ele>92.0</ele><time>2026-05-02T06:59:24.94Z</time></trkpt><trkpt lat="42.3554514" lon="14.0629273"><ele>91.5</ele><time>2026-05-02T06:59:25.941Z</time></trkpt><trkpt lat="42.3553796" lon="14.0627706"><ele>91.0</ele><time>2026-05-02T06:59:26.941Z</time></trkpt><trkpt lat="42.355295" lon="14.0626166"><ele>90.5</ele><time>2026-05-02T06:59:27.941Z</time></trkpt><trkpt lat="42.3552007" lon="14.062457"><ele>90.0</ele><time>2026-05-02T06:59:28.941Z</time></trkpt><trkpt lat="42.3550994" lon="14.0622978"><ele>90.0</ele><time>2026-05-02T06:59:29.942Z</time></trkpt><trkpt lat="42.3549897" lon="14.0621317"><ele>90.0</ele><time>2026-05-02T06:59:30.941Z</time></trkpt><trkpt lat="42.3548759" lon="14.0619602"><ele>90.0</ele><time>2026-05-02T06:59:31.94Z</time></trkpt><trkpt lat="42.3547632" lon="14.0618032"><ele>89.0</ele><time>2026-05-02T06:59:32.942Z</time></trkpt><trkpt lat="42.3546539" lon="14.0616281"><ele>88.0</ele><time>2026-05-02T06:59:33.941Z</time></trkpt><trkpt lat="42.3545473" lon="14.0614447"><ele>87.0</ele><time>2026-05-02T06:59:34.941Z</time></trkpt><trkpt lat="42.3544423" lon="14.0612591"><ele>89.33333333333333</ele><time>2026-05-02T06:59:35.94Z</time></trkpt><trkpt lat="42.3543342" lon="14.0610684"><ele>91.66666666666666</ele><time>2026-05-02T06:59:36.941Z</time></trkpt><trkpt lat="42.3542253" lon="14.0608811"><ele>94.0</ele><time>2026-05-02T06:59:37.939Z</time></trkpt><trkpt lat="42.3541163" lon="14.0606928"><ele>93.33333333333333</ele><time>2026-05-02T06:59:38.941Z</time></trkpt><trkpt lat="42.3540083" lon="14.0605074"><ele>92.66666666666667</ele><time>2026-05-02T06:59:39.941Z</time></trkpt><trkpt lat="42.3539021" lon="14.0603194"><ele>92.0</ele><time>2026-05-02T06:59:40.941Z</time></trkpt><trkpt lat="42.3537943" lon="14.0601351"><ele>92.66666666666667</ele><time>2026-05-02T06:59:41.941Z</time></trkpt><trkpt lat="42.3536908" lon="14.0599493"><ele>93.33333333333333</ele><time>2026-05-02T06:59:42.941Z</time></trkpt><trkpt lat="42.3536027" lon="14.0597532"><ele>94.0</ele><time>2026-05-02T06:59:43.941Z</time></trkpt><trkpt lat="42.353537" lon="14.0595567"><ele>94.0</ele><time>2026-05-02T06:59:44.942Z</time></trkpt><trkpt lat="42.3534926" lon="14.0593413"><ele>94.0</ele><time>2026-05-02T06:59:45.942Z</time></trkpt><trkpt lat="42.3534584" lon="14.0591073"><ele>94.0</ele><time>2026-05-02T06:59:46.941Z</time></trkpt><trkpt lat="42.3534331" lon="14.058865"><ele>93.66666666666666</ele><time>2026-05-02T06:59:47.941Z</time></trkpt><trkpt lat="42.3534064" lon="14.0586183"><ele>93.33333333333333</ele><time>2026-05-02T06:59:48.941Z</time></trkpt><trkpt lat="42.3533818" lon="14.0583644"><ele>93.0</ele><time>2026-05-02T06:59:49.94Z</time></trkpt><trkpt lat="42.3533557" lon="14.0581108"><ele>92.66666666666667</ele><time>2026-05-02T06:59:50.94Z</time></trkpt><trkpt lat="42.353331" lon="14.0578561"><ele>92.33333333333334</ele><time>2026-05-02T06:59:51.942Z</time></trkpt><trkpt lat="42.353305" lon="14.0576003"><ele>92.0</ele><time>2026-05-02T06:59:52.941Z</time></trkpt><trkpt lat="42.3532751" lon="14.0573352"><ele>91.33333333333334</ele><time>2026-05-02T06:59:53.94Z</time></trkpt><trkpt lat="42.3532467" lon="14.057074"><ele>90.66666666666667</ele><time>2026-05-02T06:59:54.94Z</time></trkpt><trkpt lat="42.3532196" lon="14.0568136"><ele>90.0</ele><time>2026-05-02T06:59:55.941Z</time></trkpt><trkpt lat="42.3531901" lon="14.056552"><ele>89.66666666666667</ele><time>2026-05-02T06:59:56.942Z</time></trkpt><trkpt lat="42.3531623" lon="14.0562883"><ele>89.33333333333334</ele><time>2026-05-02T06:59:57.942Z</time></trkpt><trkpt lat="42.3531354" lon="14.0560252"><ele>89.0</ele><time>2026-05-02T06:59:58.941Z</time></trkpt><trkpt lat="42.353111" lon="14.0557605"><ele>89.66666666666667</ele><time>2026-05-02T06:59:59.939Z</time></trkpt><trkpt lat="42.3530807" lon="14.0555"><ele>90.33333333333333</ele><time>2026-05-02T07:00:00.942Z</time></trkpt><trkpt lat="42.3530531" lon="14.0552356"><ele>91.0</ele><time>2026-05-02T07:00:01.94Z</time></trkpt><trkpt lat="42.3530421" lon="14.0549789"><ele>92.0</ele><time>2026-05-02T07:00:02.94Z</time></trkpt><trkpt lat="42.353043" lon="14.0547301"><ele>93.0</ele><time>2026-05-02T07:00:03.941Z</time></trkpt><trkpt lat="42.3530631" lon="14.0544864"><ele>94.0</ele><time>2026-05-02T07:00:04.94Z</time></trkpt><trkpt lat="42.3531008" lon="14.0542525"><ele>96.66666666666666</ele><time>2026-05-02T07:00:05.942Z</time></trkpt><trkpt lat="42.3531415" lon="14.0540269"><ele>99.33333333333333</ele><time>2026-05-02T07:00:06.941Z</time></trkpt><trkpt lat="42.3531711" lon="14.0538205"><ele>102.0</ele><time>2026-05-02T07:00:07.942Z</time></trkpt><trkpt lat="42.3531832" lon="14.0536238"><ele>102.0</ele><time>2026-05-02T07:00:08.94Z</time></trkpt><trkpt lat="42.3531651" lon="14.0534447"><ele>102.0</ele><time>2026-05-02T07:00:09.94Z</time></trkpt><trkpt lat="42.3531183" lon="14.0532804"><ele>102.0</ele><time>2026-05-02T07:00:10.94Z</time></trkpt><trkpt lat="42.3530512" lon="14.053131"><ele>102.0</ele><time>2026-05-02T07:00:11.942Z</time></trkpt><trkpt lat="42.3529806" lon="14.0529759"><ele>102.0</ele><time>2026-05-02T07:00:12.941Z</time></trkpt><trkpt lat="42.3529272" lon="14.0528125"><ele>102.0</ele><time>2026-05-02T07:00:13.941Z</time></trkpt><trkpt lat="42.3528891" lon="14.0526393"><ele>102.0</ele><time>2026-05-02T07:00:14.941Z</time></trkpt><trkpt lat="42.352888" lon="14.0524604"><ele>102.0</ele><time>2026-05-02T07:00:15.941Z</time></trkpt><trkpt lat="42.3528995" lon="14.0522791"><ele>103.25</ele><time>2026-05-02T07:00:16.942Z</time></trkpt><trkpt lat="42.3529308" lon="14.0520936"><ele>104.5</ele><time>2026-05-02T07:00:17.94Z</time></trkpt><trkpt lat="42.3529758" lon="14.0519044"><ele>105.75</ele><time>2026-05-02T07:00:18.941Z</time></trkpt><trkpt lat="42.3530319" lon="14.0517083"><ele>107.0</ele><time>2026-05-02T07:00:19.941Z</time></trkpt><trkpt lat="42.353076" lon="14.0515031"><ele>108.33333333333333</ele><time>2026-05-02T07:00:20.941Z</time></trkpt><trkpt lat="42.3530978" lon="14.0512902"><ele>109.66666666666666</ele><time>2026-05-02T07:00:21.94Z</time></trkpt><trkpt lat="42.3531136" lon="14.0510713"><ele>111.0</ele><time>2026-05-02T07:00:22.94Z</time></trkpt><trkpt lat="42.3531356" lon="14.0508477"><ele>111.66666666666666</ele><time>2026-05-02T07:00:23.941Z</time></trkpt><trkpt lat="42.3531662" lon="14.0506233"><ele>112.33333333333333</ele><time>2026-05-02T07:00:24.941Z</time></trkpt><trkpt lat="42.3532064" lon="14.0504069"><ele>113.0</ele><time>2026-05-02T07:00:25.941Z</time></trkpt><trkpt lat="42.3532318" lon="14.0501923"><ele>113.0</ele><time>2026-05-02T07:00:26.941Z</time></trkpt><trkpt lat="42.3532313" lon="14.0499726"><ele>113.0</ele><time>2026-05-02T07:00:27.942Z</time></trkpt><trkpt lat="42.353201" lon="14.0497549"><ele>113.0</ele><time>2026-05-02T07:00:28.94Z</time></trkpt><trkpt lat="42.3531564" lon="14.0495373"><ele>114.66666666666666</ele><time>2026-05-02T07:00:29.942Z</time></trkpt><trkpt lat="42.353111" lon="14.0493168"><ele>116.33333333333334</ele><time>2026-05-02T07:00:30.941Z</time></trkpt><trkpt lat="42.3530941" lon="14.0490977"><ele>118.0</ele><time>2026-05-02T07:00:31.942Z</time></trkpt><trkpt lat="42.3531032" lon="14.0488813"><ele>118.33333333333334</ele><time>2026-05-02T07:00:32.94Z</time></trkpt><trkpt lat="42.3531046" lon="14.0486706"><ele>118.66666666666666</ele><time>2026-05-02T07:00:33.942Z</time></trkpt><trkpt lat="42.3530722" lon="14.0484652"><ele>119.0</ele><time>2026-05-02T07:00:34.94Z</time></trkpt><trkpt lat="42.3530237" lon="14.0482614"><ele>119.0</ele><time>2026-05-02T07:00:35.94Z</time></trkpt><trkpt lat="42.3529894" lon="14.0480762"><ele>119.0</ele><time>2026-05-02T07:00:36.94Z</time></trkpt><trkpt lat="42.3529802" lon="14.0479112"><ele>119.0</ele><time>2026-05-02T07:00:37.942Z</time></trkpt><trkpt lat="42.3530042" lon="14.0477588"><ele>119.0</ele><time>2026-05-02T07:00:38.94Z</time></trkpt><trkpt lat="42.3530599" lon="14.0476037"><ele>119.0</ele><time>2026-05-02T07:00:39.941Z</time></trkpt><trkpt lat="42.3531444" lon="14.0474517"><ele>119.0</ele><time>2026-05-02T07:00:40.94Z</time></trkpt><trkpt lat="42.3532397" lon="14.0472926"><ele>119.0</ele><time>2026-05-02T07:00:41.94Z</time></trkpt><trkpt lat="42.3533163" lon="14.0471136"><ele>119.0</ele><time>2026-05-02T07:00:42.941Z</time></trkpt><trkpt lat="42.3533869" lon="14.0469098"><ele>119.0</ele><time>2026-05-02T07:00:43.942Z</time></trkpt><trkpt lat="42.3534534" lon="14.0466949"><ele>119.0</ele><time>2026-05-02T07:00:44.941Z</time></trkpt><trkpt lat="42.3535157" lon="14.0464735"><ele>119.0</ele><time>2026-05-02T07:00:45.941Z</time></trkpt><trkpt lat="42.3535644" lon="14.0462439"><ele>119.33333333333333</ele><time>2026-05-02T07:00:46.941Z</time></trkpt><trkpt lat="42.3536018" lon="14.0460102"><ele>119.66666666666666</ele><time>2026-05-02T07:00:47.941Z</time></trkpt><trkpt lat="42.353637" lon="14.0457744"><ele>120.0</ele><time>2026-05-02T07:00:48.94Z</time></trkpt><trkpt lat="42.3536506" lon="14.0455456"><ele>120.0</ele><time>2026-05-02T07:00:49.941Z</time></trkpt><trkpt lat="42.3536486" lon="14.0453139"><ele>120.0</ele><time>2026-05-02T07:00:50.94Z</time></trkpt><trkpt lat="42.3536431" lon="14.0450804"><ele>120.0</ele><time>2026-05-02T07:00:51.942Z</time></trkpt><trkpt lat="42.3536345" lon="14.0448485"><ele>121.66666666666666</ele><time>2026-05-02T07:00:52.942Z</time></trkpt><trkpt lat="42.3536237" lon="14.0446306"><ele>123.33333333333333</ele><time>2026-05-02T07:00:53.94Z</time></trkpt><trkpt lat="42.3536213" lon="14.0444141"><ele>125.0</ele><time>2026-05-02T07:00:54.941Z</time></trkpt><trkpt lat="42.353641" lon="14.0442082"><ele>126.33333333333333</ele><time>2026-05-02T07:00:55.94Z</time></trkpt><trkpt lat="42.3536806" lon="14.0440038"><ele>127.66666666666666</ele><time>2026-05-02T07:00:56.941Z</time></trkpt><trkpt lat="42.3537303" lon="14.0438022"><ele>129.0</ele><time>2026-05-02T07:00:57.941Z</time></trkpt><trkpt lat="42.3537801" lon="14.043602"><ele>129.0</ele><time>2026-05-02T07:00:58.94Z</time></trkpt><trkpt lat="42.3538308" lon="14.0434031"><ele>129.0</ele><time>2026-05-02T07:00:59.94Z</time></trkpt><trkpt lat="42.3538788" lon="14.0432039"><ele>129.0</ele><time>2026-05-02T07:01:00.94Z</time></trkpt><trkpt lat="42.3539218" lon="14.0429986"><ele>130.0</ele><time>2026-05-02T07:01:01.939Z</time></trkpt><trkpt lat="42.3539632" lon="14.0427944"><ele>131.0</ele><time>2026-05-02T07:01:02.941Z</time></trkpt><trkpt lat="42.3540018" lon="14.0425798"><ele>132.0</ele><time>2026-05-02T07:01:03.941Z</time></trkpt><trkpt lat="42.3540352" lon="14.0423635"><ele>132.0</ele><time>2026-05-02T07:01:04.941Z</time></trkpt><trkpt lat="42.3540677" lon="14.0421409"><ele>132.0</ele><time>2026-05-02T07:01:05.941Z</time></trkpt><trkpt lat="42.3541056" lon="14.0419206"><ele>132.0</ele><time>2026-05-02T07:01:06.941Z</time></trkpt><trkpt lat="42.354143" lon="14.0417051"><ele>133.0</ele><time>2026-05-02T07:01:07.941Z</time></trkpt><trkpt lat="42.3541803" lon="14.0414914"><ele>134.0</ele><time>2026-05-02T07:01:08.94Z</time></trkpt><trkpt lat="42.3542147" lon="14.0412748"><ele>135.0</ele><time>2026-05-02T07:01:09.941Z</time></trkpt><trkpt lat="42.354253" lon="14.0410559"><ele>135.0</ele><time>2026-05-02T07:01:10.941Z</time></trkpt><trkpt lat="42.3542896" lon="14.0408407"><ele>135.0</ele><time>2026-05-02T07:01:11.94Z</time></trkpt><trkpt lat="42.3543252" lon="14.0406235"><ele>135.0</ele><time>2026-05-02T07:01:12.941Z</time></trkpt><trkpt lat="42.3543603" lon="14.0404088"><ele>136.66666666666666</ele><time>2026-05-02T07:01:13.94Z</time></trkpt><trkpt lat="42.3543964" lon="14.0401972"><ele>138.33333333333331</ele><time>2026-05-02T07:01:14.942Z</time></trkpt><trkpt lat="42.354429" lon="14.0399848"><ele>140.0</ele><time>2026-05-02T07:01:15.941Z</time></trkpt><trkpt lat="42.3544659" lon="14.0397743"><ele>140.33333333333331</ele><time>2026-05-02T07:01:16.939Z</time></trkpt><trkpt lat="42.3545002" lon="14.0395612"><ele>140.66666666666666</ele><time>2026-05-02T07:01:17.939Z</time></trkpt><trkpt lat="42.3545336" lon="14.0393531"><ele>141.0</ele><time>2026-05-02T07:01:18.942Z</time></trkpt><trkpt lat="42.3545646" lon="14.0391472"><ele>140.0</ele><time>2026-05-02T07:01:19.941Z</time></trkpt><trkpt lat="42.3545971" lon="14.0389447"><ele>139.0</ele><time>2026-05-02T07:01:20.941Z</time></trkpt><trkpt lat="42.3546257" lon="14.0387454"><ele>138.0</ele><time>2026-05-02T07:01:21.941Z</time></trkpt><trkpt lat="42.3546568" lon="14.0385418"><ele>138.0</ele><time>2026-05-02T07:01:22.941Z</time></trkpt><trkpt lat="42.3546903" lon="14.038336"><ele>138.0</ele><time>2026-05-02T07:01:23.94Z</time></trkpt><trkpt lat="42.3547218" lon="14.0381258"><ele>138.0</ele><time>2026-05-02T07:01:24.94Z</time></trkpt><trkpt lat="42.3547552" lon="14.0379162"><ele>136.33333333333334</ele><time>2026-05-02T07:01:25.941Z</time></trkpt><trkpt lat="42.3547883" lon="14.0377038"><ele>134.66666666666669</ele><time>2026-05-02T07:01:26.941Z</time></trkpt><trkpt lat="42.3548211" lon="14.0374919"><ele>133.0</ele><time>2026-05-02T07:01:27.941Z</time></trkpt><trkpt lat="42.3548509" lon="14.0372749"><ele>133.0</ele><time>2026-05-02T07:01:28.941Z</time></trkpt><trkpt lat="42.3548702" lon="14.0370479"><ele>133.0</ele><time>2026-05-02T07:01:29.939Z</time></trkpt><trkpt lat="42.3548821" lon="14.036824"><ele>133.0</ele><time>2026-05-02T07:01:30.941Z</time></trkpt><trkpt lat="42.3548828" lon="14.0365968"><ele>133.33333333333334</ele><time>2026-05-02T07:01:31.94Z</time></trkpt><trkpt lat="42.3548864" lon="14.0363683"><ele>133.66666666666666</ele><time>2026-05-02T07:01:32.939Z</time></trkpt><trkpt lat="42.3548859" lon="14.036139"><ele>134.0</ele><time>2026-05-02T07:01:33.941Z</time></trkpt><trkpt lat="42.3548837" lon="14.0359099"><ele>135.0</ele><time>2026-05-02T07:01:34.941Z</time></trkpt><trkpt lat="42.354879" lon="14.0356815"><ele>136.0</ele><time>2026-05-02T07:01:35.94Z</time></trkpt><trkpt lat="42.3548746" lon="14.0354511"><ele>137.0</ele><time>2026-05-02T07:01:36.941Z</time></trkpt><trkpt lat="42.3548722" lon="14.0352149"><ele>137.0</ele><time>2026-05-02T07:01:37.942Z</time></trkpt><trkpt lat="42.3548728" lon="14.0349809"><ele>137.0</ele><time>2026-05-02T07:01:38.941Z</time></trkpt><trkpt lat="42.3548702" lon="14.0347505"><ele>137.0</ele><time>2026-05-02T07:01:39.941Z</time></trkpt><trkpt lat="42.3548674" lon="14.0345209"><ele>137.33333333333331</ele><time>2026-05-02T07:01:40.942Z</time></trkpt><trkpt lat="42.3548659" lon="14.0342966"><ele>137.66666666666666</ele><time>2026-05-02T07:01:41.941Z</time></trkpt><trkpt lat="42.3548635" lon="14.0340715"><ele>138.0</ele><time>2026-05-02T07:01:42.94Z</time></trkpt><trkpt lat="42.3548578" lon="14.0336262"><ele>138.0</ele><time>2026-05-02T07:01:44.941Z</time></trkpt><trkpt lat="42.3548541" lon="14.0333995"><ele>138.0</ele><time>2026-05-02T07:01:45.94Z</time></trkpt><trkpt lat="42.3548533" lon="14.0331717"><ele>138.0</ele><time>2026-05-02T07:01:46.941Z</time></trkpt><trkpt lat="42.3548483" lon="14.0329414"><ele>138.33333333333334</ele><time>2026-05-02T07:01:47.941Z</time></trkpt><trkpt lat="42.3548465" lon="14.0327136"><ele>138.66666666666669</ele><time>2026-05-02T07:01:48.94Z</time></trkpt><trkpt lat="42.3548426" lon="14.0324842"><ele>139.0</ele><time>2026-05-02T07:01:49.94Z</time></trkpt><trkpt lat="42.3548376" lon="14.0322539"><ele>139.0</ele><time>2026-05-02T07:01:50.94Z</time></trkpt><trkpt lat="42.3548343" lon="14.0320219"><ele>139.0</ele><time>2026-05-02T07:01:51.941Z</time></trkpt><trkpt lat="42.3548349" lon="14.0317899"><ele>139.0</ele><time>2026-05-02T07:01:52.941Z</time></trkpt><trkpt lat="42.3548331" lon="14.0315563"><ele>139.0</ele><time>2026-05-02T07:01:53.94Z</time></trkpt><trkpt lat="42.3548311" lon="14.0313245"><ele>139.0</ele><time>2026-05-02T07:01:54.941Z</time></trkpt><trkpt lat="42.3548264" lon="14.0310919"><ele>139.0</ele><time>2026-05-02T07:01:55.94Z</time></trkpt><trkpt lat="42.3548245" lon="14.0308646"><ele>139.66666666666669</ele><time>2026-05-02T07:01:56.941Z</time></trkpt><trkpt lat="42.354822" lon="14.0306332"><ele>140.33333333333334</ele><time>2026-05-02T07:01:57.939Z</time></trkpt><trkpt lat="42.3548206" lon="14.030401"><ele>141.0</ele><time>2026-05-02T07:01:58.941Z</time></trkpt><trkpt lat="42.3548198" lon="14.0301662"><ele>142.33333333333334</ele><time>2026-05-02T07:01:59.941Z</time></trkpt><trkpt lat="42.3548187" lon="14.029933"><ele>143.66666666666669</ele><time>2026-05-02T07:02:00.941Z</time></trkpt><trkpt lat="42.3548157" lon="14.0296983"><ele>145.0</ele><time>2026-05-02T07:02:01.942Z</time></trkpt><trkpt lat="42.3548158" lon="14.0294687"><ele>145.0</ele><time>2026-05-02T07:02:02.941Z</time></trkpt><trkpt lat="42.3548151" lon="14.0292347"><ele>145.0</ele><time>2026-05-02T07:02:03.939Z</time></trkpt><trkpt lat="42.3548135" lon="14.0290017"><ele>145.0</ele><time>2026-05-02T07:02:04.941Z</time></trkpt><trkpt lat="42.354814" lon="14.0287691"><ele>145.0</ele><time>2026-05-02T07:02:05.941Z</time></trkpt><trkpt lat="42.354811" lon="14.0285336"><ele>145.0</ele><time>2026-05-02T07:02:06.941Z</time></trkpt><trkpt lat="42.354812" lon="14.0283014"><ele>145.0</ele><time>2026-05-02T07:02:07.941Z</time></trkpt><trkpt lat="42.3548068" lon="14.0280613"><ele>145.0</ele><time>2026-05-02T07:02:08.94Z</time></trkpt><trkpt lat="42.354803" lon="14.0278248"><ele>145.0</ele><time>2026-05-02T07:02:09.942Z</time></trkpt><trkpt lat="42.3548025" lon="14.0275845"><ele>145.0</ele><time>2026-05-02T07:02:10.941Z</time></trkpt><trkpt lat="42.354801" lon="14.0273446"><ele>145.66666666666669</ele><time>2026-05-02T07:02:11.941Z</time></trkpt><trkpt lat="42.3548004" lon="14.0271091"><ele>146.33333333333334</ele><time>2026-05-02T07:02:12.941Z</time></trkpt><trkpt lat="42.3547987" lon="14.026871"><ele>147.0</ele><time>2026-05-02T07:02:13.942Z</time></trkpt><trkpt lat="42.3547972" lon="14.0266315"><ele>147.0</ele><time>2026-05-02T07:02:14.941Z</time></trkpt><trkpt lat="42.3547972" lon="14.026396"><ele>147.0</ele><time>2026-05-02T07:02:15.941Z</time></trkpt><trkpt lat="42.3547971" lon="14.0261578"><ele>147.0</ele><time>2026-05-02T07:02:16.942Z</time></trkpt><trkpt lat="42.3547931" lon="14.0259217"><ele>147.66666666666666</ele><time>2026-05-02T07:02:17.94Z</time></trkpt><trkpt lat="42.3547928" lon="14.0256925"><ele>148.33333333333331</ele><time>2026-05-02T07:02:18.941Z</time></trkpt><trkpt lat="42.3547903" lon="14.0254698"><ele>149.0</ele><time>2026-05-02T07:02:19.941Z</time></trkpt><trkpt lat="42.3547933" lon="14.0252455"><ele>149.0</ele><time>2026-05-02T07:02:20.939Z</time></trkpt><trkpt lat="42.3548" lon="14.025017"><ele>149.0</ele><time>2026-05-02T07:02:21.939Z</time></trkpt><trkpt lat="42.3548123" lon="14.0247891"><ele>149.0</ele><time>2026-05-02T07:02:22.941Z</time></trkpt><trkpt lat="42.3548259" lon="14.0245735"><ele>149.25</ele><time>2026-05-02T07:02:23.94Z</time></trkpt><trkpt lat="42.3548404" lon="14.0243737"><ele>149.5</ele><time>2026-05-02T07:02:24.941Z</time></trkpt><trkpt lat="42.3548527" lon="14.0241843"><ele>149.75</ele><time>2026-05-02T07:02:25.941Z</time></trkpt><trkpt lat="42.3548642" lon="14.0240187"><ele>150.0</ele><time>2026-05-02T07:02:26.94Z</time></trkpt><trkpt lat="42.3548763" lon="14.0238817"><ele>150.33333333333334</ele><time>2026-05-02T07:02:27.94Z</time></trkpt><trkpt lat="42.354885" lon="14.0237652"><ele>150.66666666666666</ele><time>2026-05-02T07:02:28.941Z</time></trkpt><trkpt lat="42.3548884" lon="14.0236625"><ele>151.0</ele><time>2026-05-02T07:02:29.94Z</time></trkpt><trkpt lat="42.3548936" lon="14.0235671"><ele>151.33333333333331</ele><time>2026-05-02T07:02:30.941Z</time></trkpt><trkpt lat="42.3549107" lon="14.0234711"><ele>151.66666666666666</ele><time>2026-05-02T07:02:31.942Z</time></trkpt><trkpt lat="42.3549413" lon="14.0233208"><ele>152.0</ele><time>2026-05-02T07:02:33.941Z</time></trkpt><trkpt lat="42.3549641" lon="14.0232181"><ele>152.0</ele><time>2026-05-02T07:02:35.94Z</time></trkpt><trkpt lat="42.3549149" lon="14.0231643"><ele>152.0</ele><time>2026-05-02T07:02:38.941Z</time></trkpt><trkpt lat="42.3548753" lon="14.023241"><ele>152.0</ele><time>2026-05-02T07:02:40.941Z</time></trkpt><trkpt lat="42.3548781" lon="14.0233501"><ele>152.0</ele><time>2026-05-02T07:02:41.94Z</time></trkpt><trkpt lat="42.3548681" lon="14.0234479"><ele>152.0</ele><time>2026-05-02T07:02:42.941Z</time></trkpt><trkpt lat="42.3548354" lon="14.023536"><ele>152.0</ele><time>2026-05-02T07:02:43.94Z</time></trkpt><trkpt lat="42.3547814" lon="14.0236097"><ele>152.0</ele><time>2026-05-02T07:02:44.941Z</time></trkpt><trkpt lat="42.3547208" lon="14.0236738"><ele>152.6</ele><time>2026-05-02T07:02:45.94Z</time></trkpt><trkpt lat="42.3546534" lon="14.0237513"><ele>153.2</ele><time>2026-05-02T07:02:46.941Z</time></trkpt><trkpt lat="42.3545756" lon="14.0238414"><ele>153.8</ele><time>2026-05-02T07:02:47.94Z</time></trkpt><trkpt lat="42.3544928" lon="14.0239454"><ele>154.4</ele><time>2026-05-02T07:02:48.941Z</time></trkpt><trkpt lat="42.354415" lon="14.0240403"><ele>155.0</ele><time>2026-05-02T07:02:49.94Z</time></trkpt><trkpt lat="42.3543467" lon="14.0241249"><ele>154.83333333333331</ele><time>2026-05-02T07:02:50.94Z</time></trkpt><trkpt lat="42.3542827" lon="14.0242026"><ele>154.66666666666666</ele><time>2026-05-02T07:02:51.94Z</time></trkpt><trkpt lat="42.3542281" lon="14.0242645"><ele>154.5</ele><time>2026-05-02T07:02:52.941Z</time></trkpt><trkpt lat="42.3541321" lon="14.0243226"><ele>154.33333333333334</ele><time>2026-05-02T07:02:54.941Z</time></trkpt><trkpt lat="42.3540252" lon="14.0242959"><ele>154.16666666666669</ele><time>2026-05-02T07:02:56.941Z</time></trkpt><trkpt lat="42.3539584" lon="14.0242507"><ele>154.0</ele><time>2026-05-02T07:02:57.941Z</time></trkpt><trkpt lat="42.3538883" lon="14.0242047"><ele>154.66666666666669</ele><time>2026-05-02T07:02:58.939Z</time></trkpt><trkpt lat="42.3538136" lon="14.0241568"><ele>155.33333333333334</ele><time>2026-05-02T07:02:59.942Z</time></trkpt><trkpt lat="42.3537392" lon="14.0241191"><ele>156.0</ele><time>2026-05-02T07:03:00.94Z</time></trkpt><trkpt lat="42.3536656" lon="14.0240974"><ele>156.66666666666666</ele><time>2026-05-02T07:03:01.941Z</time></trkpt><trkpt lat="42.3535871" lon="14.024077"><ele>157.33333333333331</ele><time>2026-05-02T07:03:02.94Z</time></trkpt><trkpt lat="42.3534982" lon="14.0240564"><ele>158.0</ele><time>2026-05-02T07:03:03.941Z</time></trkpt><trkpt lat="42.3534023" lon="14.0240567"><ele>158.0</ele><time>2026-05-02T07:03:04.941Z</time></trkpt><trkpt lat="42.3533132" lon="14.0240464"><ele>158.0</ele><time>2026-05-02T07:03:05.942Z</time></trkpt><trkpt lat="42.3532183" lon="14.0240314"><ele>158.0</ele><time>2026-05-02T07:03:06.94Z</time></trkpt><trkpt lat="42.3531194" lon="14.0240089"><ele>158.0</ele><time>2026-05-02T07:03:07.942Z</time></trkpt><trkpt lat="42.3530278" lon="14.0239916"><ele>158.0</ele><time>2026-05-02T07:03:08.941Z</time></trkpt><trkpt lat="42.352927" lon="14.0239715"><ele>159.60000000000002</ele><time>2026-05-02T07:03:09.94Z</time></trkpt><trkpt lat="42.3528325" lon="14.0239518"><ele>161.20000000000002</ele><time>2026-05-02T07:03:10.94Z</time></trkpt><trkpt lat="42.3527329" lon="14.0239333"><ele>162.8</ele><time>2026-05-02T07:03:11.941Z</time></trkpt><trkpt lat="42.3526381" lon="14.0239189"><ele>164.4</ele><time>2026-05-02T07:03:12.941Z</time></trkpt><trkpt lat="42.3525506" lon="14.023901"><ele>166.0</ele><time>2026-05-02T07:03:13.94Z</time></trkpt><trkpt lat="42.3524578" lon="14.0238896"><ele>166.0</ele><time>2026-05-02T07:03:14.941Z</time></trkpt><trkpt lat="42.3523669" lon="14.0238761"><ele>166.0</ele><time>2026-05-02T07:03:15.941Z</time></trkpt><trkpt lat="42.3522724" lon="14.0238697"><ele>166.0</ele><time>2026-05-02T07:03:16.939Z</time></trkpt><trkpt lat="42.3521794" lon="14.0238688"><ele>166.0</ele><time>2026-05-02T07:03:17.942Z</time></trkpt><trkpt lat="42.3520927" lon="14.0238847"><ele>166.0</ele><time>2026-05-02T07:03:18.941Z</time></trkpt><trkpt lat="42.3520051" lon="14.0239027"><ele>167.16666666666669</ele><time>2026-05-02T07:03:19.941Z</time></trkpt><trkpt lat="42.3519209" lon="14.0239264"><ele>168.33333333333334</ele><time>2026-05-02T07:03:20.94Z</time></trkpt><trkpt lat="42.3518383" lon="14.0239628"><ele>169.5</ele><time>2026-05-02T07:03:21.94Z</time></trkpt><trkpt lat="42.3517472" lon="14.0239985"><ele>170.66666666666666</ele><time>2026-05-02T07:03:22.94Z</time></trkpt><trkpt lat="42.3516607" lon="14.0240294"><ele>171.83333333333331</ele><time>2026-05-02T07:03:23.94Z</time></trkpt><trkpt lat="42.3515866" lon="14.0240543"><ele>173.0</ele><time>2026-05-02T07:03:24.94Z</time></trkpt><trkpt lat="42.3515215" lon="14.0240617"><ele>173.0</ele><time>2026-05-02T07:03:25.941Z</time></trkpt><trkpt lat="42.3514498" lon="14.024061"><ele>173.0</ele><time>2026-05-02T07:03:26.94Z</time></trkpt><trkpt lat="42.351383" lon="14.0240429"><ele>173.0</ele><time>2026-05-02T07:03:27.941Z</time></trkpt><trkpt lat="42.3513244" lon="14.02401"><ele>173.0</ele><time>2026-05-02T07:03:28.94Z</time></trkpt><trkpt lat="42.351242" lon="14.0239026"><ele>173.0</ele><time>2026-05-02T07:03:30.94Z</time></trkpt><trkpt lat="42.3512135" lon="14.0238172"><ele>173.0</ele><time>2026-05-02T07:03:31.941Z</time></trkpt><trkpt lat="42.3511876" lon="14.0237219"><ele>174.33333333333331</ele><time>2026-05-02T07:03:32.942Z</time></trkpt><trkpt lat="42.3511617" lon="14.023618"><ele>175.66666666666666</ele><time>2026-05-02T07:03:33.94Z</time></trkpt><trkpt lat="42.3511289" lon="14.0235094"><ele>177.0</ele><time>2026-05-02T07:03:34.94Z</time></trkpt><trkpt lat="42.3510925" lon="14.02341"><ele>178.33333333333334</ele><time>2026-05-02T07:03:35.942Z</time></trkpt><trkpt lat="42.3510479" lon="14.0233137"><ele>179.66666666666669</ele><time>2026-05-02T07:03:36.941Z</time></trkpt><trkpt lat="42.3509917" lon="14.0232212"><ele>181.0</ele><time>2026-05-02T07:03:37.941Z</time></trkpt><trkpt lat="42.3509343" lon="14.0231396"><ele>181.83333333333334</ele><time>2026-05-02T07:03:38.941Z</time></trkpt><trkpt lat="42.3508726" lon="14.0230709"><ele>182.66666666666669</ele><time>2026-05-02T07:03:39.939Z</time></trkpt><trkpt lat="42.3508178" lon="14.0230008"><ele>183.5</ele><time>2026-05-02T07:03:40.941Z</time></trkpt><trkpt lat="42.3507664" lon="14.0229235"><ele>184.33333333333334</ele><time>2026-05-02T07:03:41.941Z</time></trkpt><trkpt lat="42.3507127" lon="14.022847"><ele>185.16666666666666</ele><time>2026-05-02T07:03:42.94Z</time></trkpt><trkpt lat="42.3506649" lon="14.0227725"><ele>186.0</ele><time>2026-05-02T07:03:43.941Z</time></trkpt><trkpt lat="42.3505881" lon="14.0226514"><ele>186.00000000000003</ele><time>2026-05-02T07:03:45.94Z</time></trkpt><trkpt lat="42.3505425" lon="14.0225847"><ele>186.0</ele><time>2026-05-02T07:03:46.942Z</time></trkpt><trkpt lat="42.3504972" lon="14.0225137"><ele>186.0</ele><time>2026-05-02T07:03:47.939Z</time></trkpt><trkpt lat="42.3504428" lon="14.0224317"><ele>186.0</ele><time>2026-05-02T07:03:48.94Z</time></trkpt><trkpt lat="42.350391" lon="14.0223619"><ele>186.0</ele><time>2026-05-02T07:03:49.941Z</time></trkpt><trkpt lat="42.3503352" lon="14.0223031"><ele>186.00000000000003</ele><time>2026-05-02T07:03:50.94Z</time></trkpt><trkpt lat="42.3502685" lon="14.0222579"><ele>186.0</ele><time>2026-05-02T07:03:51.942Z</time></trkpt><trkpt lat="42.350166" lon="14.0222537"><ele>186.60000000000002</ele><time>2026-05-02T07:03:53.94Z</time></trkpt><trkpt lat="42.3501093" lon="14.0222914"><ele>187.2</ele><time>2026-05-02T07:03:54.941Z</time></trkpt><trkpt lat="42.3500338" lon="14.0223506"><ele>187.8</ele><time>2026-05-02T07:03:55.94Z</time></trkpt><trkpt lat="42.349955" lon="14.0224171"><ele>188.39999999999998</ele><time>2026-05-02T07:03:56.942Z</time></trkpt><trkpt lat="42.3498685" lon="14.0224975"><ele>189.0</ele><time>2026-05-02T07:03:57.942Z</time></trkpt><trkpt lat="42.3497808" lon="14.0225753"><ele>189.25</ele><time>2026-05-02T07:03:58.94Z</time></trkpt><trkpt lat="42.3496895" lon="14.0226579"><ele>189.5</ele><time>2026-05-02T07:03:59.941Z</time></trkpt><trkpt lat="42.3495871" lon="14.0227514"><ele>189.75</ele><time>2026-05-02T07:04:00.94Z</time></trkpt><trkpt lat="42.3494773" lon="14.022851"><ele>190.0</ele><time>2026-05-02T07:04:01.941Z</time></trkpt><trkpt lat="42.3493722" lon="14.022946"><ele>190.0</ele><time>2026-05-02T07:04:02.94Z</time></trkpt><trkpt lat="42.3492752" lon="14.0230373"><ele>190.0</ele><time>2026-05-02T07:04:03.94Z</time></trkpt><trkpt lat="42.349176" lon="14.0231301"><ele>190.0</ele><time>2026-05-02T07:04:04.941Z</time></trkpt><trkpt lat="42.349079" lon="14.0232194"><ele>190.0</ele><time>2026-05-02T07:04:05.941Z</time></trkpt><trkpt lat="42.3490049" lon="14.0232836"><ele>190.0</ele><time>2026-05-02T07:04:06.94Z</time></trkpt><trkpt lat="42.3489027" lon="14.023319"><ele>191.0</ele><time>2026-05-02T07:04:08.941Z</time></trkpt><trkpt lat="42.3488306" lon="14.0232447"><ele>192.0</ele><time>2026-05-02T07:04:10.942Z</time></trkpt><trkpt lat="42.3487595" lon="14.0231124"><ele>193.0</ele><time>2026-05-02T07:04:12.94Z</time></trkpt><trkpt lat="42.3486958" lon="14.0230022"><ele>194.0</ele><time>2026-05-02T07:04:14.94Z</time></trkpt><trkpt lat="42.3486386" lon="14.0228906"><ele>195.0</ele><time>2026-05-02T07:04:16.94Z</time></trkpt><trkpt lat="42.3486054" lon="14.0228099"><ele>195.0</ele><time>2026-05-02T07:04:17.939Z</time></trkpt><trkpt lat="42.3485639" lon="14.0227171"><ele>195.0</ele><time>2026-05-02T07:04:18.941Z</time></trkpt><trkpt lat="42.3485157" lon="14.0226172"><ele>195.0</ele><time>2026-05-02T07:04:19.941Z</time></trkpt><trkpt lat="42.348455" lon="14.0225066"><ele>195.0</ele><time>2026-05-02T07:04:20.941Z</time></trkpt><trkpt lat="42.3483902" lon="14.0224038"><ele>195.0</ele><time>2026-05-02T07:04:21.941Z</time></trkpt><trkpt lat="42.3483238" lon="14.0223017"><ele>195.0</ele><time>2026-05-02T07:04:22.941Z</time></trkpt><trkpt lat="42.3482587" lon="14.0222037"><ele>195.0</ele><time>2026-05-02T07:04:23.941Z</time></trkpt><trkpt lat="42.3481903" lon="14.0221052"><ele>195.0</ele><time>2026-05-02T07:04:24.941Z</time></trkpt><trkpt lat="42.3481235" lon="14.0219994"><ele>195.0</ele><time>2026-05-02T07:04:25.94Z</time></trkpt><trkpt lat="42.3480525" lon="14.0218993"><ele>195.0</ele><time>2026-05-02T07:04:26.941Z</time></trkpt><trkpt lat="42.3479828" lon="14.0217953"><ele>195.2</ele><time>2026-05-02T07:04:27.941Z</time></trkpt><trkpt lat="42.3479134" lon="14.0216984"><ele>195.4</ele><time>2026-05-02T07:04:28.939Z</time></trkpt><trkpt lat="42.3478395" lon="14.021591"><ele>195.60000000000002</ele><time>2026-05-02T07:04:29.942Z</time></trkpt><trkpt lat="42.3477693" lon="14.0214874"><ele>195.8</ele><time>2026-05-02T07:04:30.941Z</time></trkpt><trkpt lat="42.3476969" lon="14.0213862"><ele>196.0</ele><time>2026-05-02T07:04:31.941Z</time></trkpt><trkpt lat="42.3476156" lon="14.0212935"><ele>196.0</ele><time>2026-05-02T07:04:32.94Z</time></trkpt><trkpt lat="42.3475361" lon="14.0211959"><ele>196.0</ele><time>2026-05-02T07:04:33.939Z</time></trkpt><trkpt lat="42.3474623" lon="14.0210819"><ele>196.0</ele><time>2026-05-02T07:04:34.941Z</time></trkpt><trkpt lat="42.3473914" lon="14.020976"><ele>196.0</ele><time>2026-05-02T07:04:35.941Z</time></trkpt><trkpt lat="42.3473262" lon="14.0208655"><ele>196.0</ele><time>2026-05-02T07:04:36.94Z</time></trkpt><trkpt lat="42.3472657" lon="14.0207544"><ele>196.4</ele><time>2026-05-02T07:04:37.941Z</time></trkpt><trkpt lat="42.3472129" lon="14.0206542"><ele>196.8</ele><time>2026-05-02T07:04:38.942Z</time></trkpt><trkpt lat="42.347156" lon="14.0205541"><ele>197.20000000000002</ele><time>2026-05-02T07:04:39.942Z</time></trkpt><trkpt lat="42.3470969" lon="14.0204402"><ele>197.60000000000002</ele><time>2026-05-02T07:04:40.941Z</time></trkpt><trkpt lat="42.3470314" lon="14.0203198"><ele>198.0</ele><time>2026-05-02T07:04:41.941Z</time></trkpt><trkpt lat="42.34697" lon="14.0202049"><ele>198.0</ele><time>2026-05-02T07:04:42.939Z</time></trkpt><trkpt lat="42.3469047" lon="14.0200872"><ele>198.0</ele><time>2026-05-02T07:04:43.941Z</time></trkpt><trkpt lat="42.3468359" lon="14.019962"><ele>198.0</ele><time>2026-05-02T07:04:44.941Z</time></trkpt><trkpt lat="42.3467807" lon="14.0198492"><ele>198.0</ele><time>2026-05-02T07:04:45.94Z</time></trkpt><trkpt lat="42.3467265" lon="14.0197444"><ele>198.0</ele><time>2026-05-02T07:04:46.94Z</time></trkpt><trkpt lat="42.3466814" lon="14.0196446"><ele>197.8</ele><time>2026-05-02T07:04:47.941Z</time></trkpt><trkpt lat="42.3466333" lon="14.0195379"><ele>197.60000000000002</ele><time>2026-05-02T07:04:48.94Z</time></trkpt><trkpt lat="42.346583" lon="14.0194277"><ele>197.39999999999998</ele><time>2026-05-02T07:04:49.941Z</time></trkpt><trkpt lat="42.3465335" lon="14.0193152"><ele>197.2</ele><time>2026-05-02T07:04:50.94Z</time></trkpt><trkpt lat="42.3464866" lon="14.0192015"><ele>197.0</ele><time>2026-05-02T07:04:51.941Z</time></trkpt><trkpt lat="42.3464379" lon="14.019088"><ele>197.39999999999998</ele><time>2026-05-02T07:04:52.94Z</time></trkpt><trkpt lat="42.3463951" lon="14.0189867"><ele>197.79999999999998</ele><time>2026-05-02T07:04:53.941Z</time></trkpt><trkpt lat="42.3463489" lon="14.0188826"><ele>198.2</ele><time>2026-05-02T07:04:54.941Z</time></trkpt><trkpt lat="42.3462992" lon="14.0187626"><ele>198.6</ele><time>2026-05-02T07:04:55.941Z</time></trkpt><trkpt lat="42.3462481" lon="14.0186522"><ele>199.0</ele><time>2026-05-02T07:04:56.94Z</time></trkpt><trkpt lat="42.3461937" lon="14.0185346"><ele>199.39999999999998</ele><time>2026-05-02T07:04:57.939Z</time></trkpt><trkpt lat="42.3461305" lon="14.0184207"><ele>199.8</ele><time>2026-05-02T07:04:58.941Z</time></trkpt><trkpt lat="42.3460684" lon="14.0183054"><ele>200.2</ele><time>2026-05-02T07:04:59.94Z</time></trkpt><trkpt lat="42.3460136" lon="14.0181905"><ele>200.60000000000002</ele><time>2026-05-02T07:05:00.941Z</time></trkpt><trkpt lat="42.3459534" lon="14.0180739"><ele>201.0</ele><time>2026-05-02T07:05:01.94Z</time></trkpt><trkpt lat="42.3458962" lon="14.0179633"><ele>201.4</ele><time>2026-05-02T07:05:02.941Z</time></trkpt><trkpt lat="42.3458344" lon="14.0178498"><ele>201.8</ele><time>2026-05-02T07:05:03.94Z</time></trkpt><trkpt lat="42.3457753" lon="14.017739"><ele>202.20000000000002</ele><time>2026-05-02T07:05:04.941Z</time></trkpt><trkpt lat="42.3457203" lon="14.0176301"><ele>202.60000000000002</ele><time>2026-05-02T07:05:05.942Z</time></trkpt><trkpt lat="42.3456605" lon="14.017527"><ele>203.0</ele><time>2026-05-02T07:05:06.941Z</time></trkpt><trkpt lat="42.3456042" lon="14.0174207"><ele>203.4</ele><time>2026-05-02T07:05:07.94Z</time></trkpt><trkpt lat="42.3455405" lon="14.017307"><ele>203.8</ele><time>2026-05-02T07:05:08.94Z</time></trkpt><trkpt lat="42.3454758" lon="14.0171977"><ele>204.2</ele><time>2026-05-02T07:05:09.941Z</time></trkpt><trkpt lat="42.3454051" lon="14.0170734"><ele>204.6</ele><time>2026-05-02T07:05:10.94Z</time></trkpt><trkpt lat="42.3453423" lon="14.016953"><ele>205.0</ele><time>2026-05-02T07:05:11.94Z</time></trkpt><trkpt lat="42.3452862" lon="14.0168332"><ele>205.0</ele><time>2026-05-02T07:05:12.941Z</time></trkpt><trkpt lat="42.3452304" lon="14.0167143"><ele>205.0</ele><time>2026-05-02T07:05:13.942Z</time></trkpt><trkpt lat="42.3451764" lon="14.0165891"><ele>205.0</ele><time>2026-05-02T07:05:14.942Z</time></trkpt><trkpt lat="42.3451387" lon="14.0164682"><ele>205.0</ele><time>2026-05-02T07:05:15.941Z</time></trkpt><trkpt lat="42.3451081" lon="14.01636"><ele>205.0</ele><time>2026-05-02T07:05:16.941Z</time></trkpt><trkpt lat="42.3450814" lon="14.0162658"><ele>205.4</ele><time>2026-05-02T07:05:17.941Z</time></trkpt><trkpt lat="42.3450314" lon="14.0161482"><ele>205.8</ele><time>2026-05-02T07:05:19.939Z</time></trkpt><trkpt lat="42.344947" lon="14.016127"><ele>206.2</ele><time>2026-05-02T07:05:21.941Z</time></trkpt><trkpt lat="42.3448819" lon="14.016145"><ele>206.6</ele><time>2026-05-02T07:05:22.941Z</time></trkpt><trkpt lat="42.3447796" lon="14.0161622"><ele>207.0</ele><time>2026-05-02T07:05:23.939Z</time></trkpt><trkpt lat="42.3446727" lon="14.016193"><ele>207.0</ele><time>2026-05-02T07:05:24.941Z</time></trkpt><trkpt lat="42.344564" lon="14.0162176"><ele>207.0</ele><time>2026-05-02T07:05:25.94Z</time></trkpt><trkpt lat="42.3444621" lon="14.0162406"><ele>207.0</ele><time>2026-05-02T07:05:26.942Z</time></trkpt><trkpt lat="42.344359" lon="14.0162624"><ele>207.0</ele><time>2026-05-02T07:05:27.941Z</time></trkpt><trkpt lat="42.3442619" lon="14.0162812"><ele>207.0</ele><time>2026-05-02T07:05:28.94Z</time></trkpt><trkpt lat="42.3441671" lon="14.0163007"><ele>207.00000000000003</ele><time>2026-05-02T07:05:29.94Z</time></trkpt><trkpt lat="42.3440825" lon="14.0163266"><ele>207.0</ele><time>2026-05-02T07:05:30.941Z</time></trkpt><trkpt lat="42.3440076" lon="14.0163485"><ele>207.0</ele><time>2026-05-02T07:05:31.94Z</time></trkpt><trkpt lat="42.3439364" lon="14.016364"><ele>207.0</ele><time>2026-05-02T07:05:32.942Z</time></trkpt><trkpt lat="42.3438686" lon="14.0163627"><ele>207.0</ele><time>2026-05-02T07:05:33.94Z</time></trkpt><trkpt lat="42.343805" lon="14.0163511"><ele>207.00000000000003</ele><time>2026-05-02T07:05:34.94Z</time></trkpt><trkpt lat="42.3437378" lon="14.0163359"><ele>207.0</ele><time>2026-05-02T07:05:35.94Z</time></trkpt><trkpt lat="42.3436674" lon="14.0163232"><ele>206.5</ele><time>2026-05-02T07:05:36.941Z</time></trkpt><trkpt lat="42.3435959" lon="14.0163138"><ele>206.0</ele><time>2026-05-02T07:05:37.939Z</time></trkpt><trkpt lat="42.3435183" lon="14.0163042"><ele>205.5</ele><time>2026-05-02T07:05:38.94Z</time></trkpt><trkpt lat="42.3434431" lon="14.0162875"><ele>205.0</ele><time>2026-05-02T07:05:39.941Z</time></trkpt><trkpt lat="42.3433692" lon="14.0162569"><ele>204.5</ele><time>2026-05-02T07:05:40.941Z</time></trkpt><trkpt lat="42.343286" lon="14.016233"><ele>204.0</ele><time>2026-05-02T07:05:41.94Z</time></trkpt><trkpt lat="42.3432059" lon="14.0162058"><ele>204.0</ele><time>2026-05-02T07:05:42.94Z</time></trkpt><trkpt lat="42.3431199" lon="14.0161788"><ele>204.0</ele><time>2026-05-02T07:05:43.942Z</time></trkpt><trkpt lat="42.3430366" lon="14.0161456"><ele>204.0</ele><time>2026-05-02T07:05:44.941Z</time></trkpt><trkpt lat="42.3429516" lon="14.0161156"><ele>204.0</ele><time>2026-05-02T07:05:45.941Z</time></trkpt><trkpt lat="42.3428786" lon="14.0160906"><ele>204.0</ele><time>2026-05-02T07:05:46.941Z</time></trkpt><trkpt lat="42.3428077" lon="14.0160929"><ele>204.0</ele><time>2026-05-02T07:05:47.941Z</time></trkpt><trkpt lat="42.3427483" lon="14.0161312"><ele>202.16666666666666</ele><time>2026-05-02T07:05:48.941Z</time></trkpt><trkpt lat="42.3427038" lon="14.0162005"><ele>200.33333333333331</ele><time>2026-05-02T07:05:49.94Z</time></trkpt><trkpt lat="42.3426683" lon="14.0162961"><ele>198.5</ele><time>2026-05-02T07:05:50.941Z</time></trkpt><trkpt lat="42.3426341" lon="14.0164102"><ele>196.66666666666666</ele><time>2026-05-02T07:05:51.941Z</time></trkpt><trkpt lat="42.3425957" lon="14.0165263"><ele>194.83333333333331</ele><time>2026-05-02T07:05:52.941Z</time></trkpt><trkpt lat="42.3425602" lon="14.0166402"><ele>193.0</ele><time>2026-05-02T07:05:53.941Z</time></trkpt><trkpt lat="42.3425325" lon="14.0167571"><ele>192.66666666666666</ele><time>2026-05-02T07:05:54.941Z</time></trkpt><trkpt lat="42.3425117" lon="14.0168523"><ele>192.33333333333331</ele><time>2026-05-02T07:05:55.94Z</time></trkpt><trkpt lat="42.3424711" lon="14.0169643"><ele>192.0</ele><time>2026-05-02T07:05:57.94Z</time></trkpt><trkpt lat="42.3423876" lon="14.0170184"><ele>191.66666666666666</ele><time>2026-05-02T07:05:59.94Z</time></trkpt><trkpt lat="42.3423067" lon="14.0170723"><ele>191.33333333333331</ele><time>2026-05-02T07:06:02.94Z</time></trkpt><trkpt lat="42.3422416" lon="14.017098"><ele>191.0</ele><time>2026-05-02T07:06:12.941Z</time></trkpt><trkpt lat="42.3421692" lon="14.017155"><ele>189.16666666666666</ele><time>2026-05-02T07:06:14.94Z</time></trkpt><trkpt lat="42.3420656" lon="14.0172346"><ele>187.33333333333331</ele><time>2026-05-02T07:06:16.941Z</time></trkpt><trkpt lat="42.3420128" lon="14.0172847"><ele>185.5</ele><time>2026-05-02T07:06:17.939Z</time></trkpt><trkpt lat="42.3419622" lon="14.0173365"><ele>183.66666666666666</ele><time>2026-05-02T07:06:18.941Z</time></trkpt><trkpt lat="42.3419135" lon="14.0173907"><ele>181.83333333333334</ele><time>2026-05-02T07:06:19.939Z</time></trkpt><trkpt lat="42.3418302" lon="14.0174551"><ele>180.0</ele><time>2026-05-02T07:06:21.941Z</time></trkpt><trkpt lat="42.341771" lon="14.0174884"><ele>180.0</ele><time>2026-05-02T07:06:23.941Z</time></trkpt><trkpt lat="42.341708" lon="14.0174976"><ele>180.0</ele><time>2026-05-02T07:06:35.941Z</time></trkpt><trkpt lat="42.3417023" lon="14.017586"><ele>180.0</ele><time>2026-05-02T07:06:39.94Z</time></trkpt><trkpt lat="42.3417762" lon="14.0175167"><ele>180.0</ele><time>2026-05-02T07:06:43.942Z</time></trkpt><trkpt lat="42.341867" lon="14.0174282"><ele>180.0</ele><time>2026-05-02T07:06:45.941Z</time></trkpt><trkpt lat="42.3419449" lon="14.0173777"><ele>180.0</ele><time>2026-05-02T07:06:47.941Z</time></trkpt><trkpt lat="42.3420177" lon="14.0173026"><ele>180.0</ele><time>2026-05-02T07:06:50.942Z</time></trkpt><trkpt lat="42.3421238" lon="14.017216"><ele>180.0</ele><time>2026-05-02T07:06:52.939Z</time></trkpt><trkpt lat="42.3422131" lon="14.0171257"><ele>180.0</ele><time>2026-05-02T07:06:54.94Z</time></trkpt><trkpt lat="42.342167" lon="14.0170004"><ele>180.0</ele><time>2026-05-02T07:06:57.941Z</time></trkpt><trkpt lat="42.3421045" lon="14.0169535"><ele>180.0</ele><time>2026-05-02T07:06:58.94Z</time></trkpt><trkpt lat="42.3420312" lon="14.0168954"><ele>180.0</ele><time>2026-05-02T07:06:59.939Z</time></trkpt><trkpt lat="42.3419512" lon="14.0168334"><ele>180.0</ele><time>2026-05-02T07:07:00.94Z</time></trkpt><trkpt lat="42.3418712" lon="14.0167719"><ele>180.0</ele><time>2026-05-02T07:07:01.941Z</time></trkpt><trkpt lat="42.3417919" lon="14.0167112"><ele>180.0</ele><time>2026-05-02T07:07:02.94Z</time></trkpt><trkpt lat="42.3417117" lon="14.0166487"><ele>180.0</ele><time>2026-05-02T07:07:03.94Z</time></trkpt><trkpt lat="42.3416297" lon="14.0165864"><ele>179.66666666666666</ele><time>2026-05-02T07:07:04.941Z</time></trkpt><trkpt lat="42.3415583" lon="14.0165281"><ele>179.33333333333334</ele><time>2026-05-02T07:07:05.942Z</time></trkpt><trkpt lat="42.3414819" lon="14.0164733"><ele>179.0</ele><time>2026-05-02T07:07:06.94Z</time></trkpt><trkpt lat="42.3414085" lon="14.0164176"><ele>178.66666666666669</ele><time>2026-05-02T07:07:07.942Z</time></trkpt><trkpt lat="42.3413325" lon="14.0163632"><ele>178.33333333333334</ele><time>2026-05-02T07:07:08.94Z</time></trkpt><trkpt lat="42.3412589" lon="14.0163161"><ele>178.0</ele><time>2026-05-02T07:07:09.94Z</time></trkpt><trkpt lat="42.3411815" lon="14.016255"><ele>178.33333333333334</ele><time>2026-05-02T07:07:10.942Z</time></trkpt><trkpt lat="42.3411159" lon="14.0161928"><ele>178.66666666666669</ele><time>2026-05-02T07:07:11.939Z</time></trkpt><trkpt lat="42.341049" lon="14.0161221"><ele>179.0</ele><time>2026-05-02T07:07:12.94Z</time></trkpt><trkpt lat="42.3409869" lon="14.0160399"><ele>179.33333333333334</ele><time>2026-05-02T07:07:13.941Z</time></trkpt><trkpt lat="42.3409272" lon="14.0159585"><ele>179.66666666666666</ele><time>2026-05-02T07:07:14.94Z</time></trkpt><trkpt lat="42.3408795" lon="14.0158827"><ele>180.0</ele><time>2026-05-02T07:07:15.942Z</time></trkpt><trkpt lat="42.3408248" lon="14.0158105"><ele>180.0</ele><time>2026-05-02T07:07:16.941Z</time></trkpt><trkpt lat="42.3407844" lon="14.0157279"><ele>180.0</ele><time>2026-05-02T07:07:17.941Z</time></trkpt><trkpt lat="42.3407392" lon="14.0156391"><ele>180.0</ele><time>2026-05-02T07:07:18.941Z</time></trkpt><trkpt lat="42.3407059" lon="14.0155495"><ele>180.0</ele><time>2026-05-02T07:07:19.94Z</time></trkpt><trkpt lat="42.3406744" lon="14.0154587"><ele>180.0</ele><time>2026-05-02T07:07:20.94Z</time></trkpt><trkpt lat="42.3406149" lon="14.0153059"><ele>180.0</ele><time>2026-05-02T07:07:22.94Z</time></trkpt><trkpt lat="42.3405369" lon="14.0152128"><ele>180.66666666666666</ele><time>2026-05-02T07:07:24.939Z</time></trkpt><trkpt lat="42.3404351" lon="14.0151821"><ele>181.33333333333334</ele><time>2026-05-02T07:07:26.941Z</time></trkpt><trkpt lat="42.3403729" lon="14.0152042"><ele>182.0</ele><time>2026-05-02T07:07:27.942Z</time></trkpt><trkpt lat="42.3402964" lon="14.0152517"><ele>182.66666666666669</ele><time>2026-05-02T07:07:28.94Z</time></trkpt><trkpt lat="42.3402108" lon="14.0153086"><ele>183.33333333333334</ele><time>2026-05-02T07:07:29.941Z</time></trkpt><trkpt lat="42.3401413" lon="14.0153569"><ele>184.0</ele><time>2026-05-02T07:07:30.94Z</time></trkpt><trkpt lat="42.3400762" lon="14.0153952"><ele>184.0</ele><time>2026-05-02T07:07:31.94Z</time></trkpt><trkpt lat="42.3400228" lon="14.0154549"><ele>184.0</ele><time>2026-05-02T07:07:32.94Z</time></trkpt><trkpt lat="42.3399222" lon="14.0155381"><ele>184.0</ele><time>2026-05-02T07:07:34.941Z</time></trkpt><trkpt lat="42.3398203" lon="14.0156198"><ele>184.0</ele><time>2026-05-02T07:07:36.94Z</time></trkpt><trkpt lat="42.3397085" lon="14.0156398"><ele>184.0</ele><time>2026-05-02T07:07:38.941Z</time></trkpt><trkpt lat="42.3395829" lon="14.0156004"><ele>183.16666666666669</ele><time>2026-05-02T07:07:40.94Z</time></trkpt><trkpt lat="42.3395267" lon="14.0155605"><ele>182.33333333333334</ele><time>2026-05-02T07:07:41.94Z</time></trkpt><trkpt lat="42.3394666" lon="14.0155295"><ele>181.5</ele><time>2026-05-02T07:07:42.942Z</time></trkpt><trkpt lat="42.3394042" lon="14.015491"><ele>180.66666666666666</ele><time>2026-05-02T07:07:43.941Z</time></trkpt><trkpt lat="42.3393092" lon="14.015399"><ele>179.83333333333331</ele><time>2026-05-02T07:07:45.94Z</time></trkpt><trkpt lat="42.3392432" lon="14.0152614"><ele>179.0</ele><time>2026-05-02T07:07:47.941Z</time></trkpt><trkpt lat="42.3392004" lon="14.015108"><ele>179.0</ele><time>2026-05-02T07:07:49.941Z</time></trkpt><trkpt lat="42.3391742" lon="14.0150264"><ele>179.0</ele><time>2026-05-02T07:07:50.939Z</time></trkpt><trkpt lat="42.3391463" lon="14.0149378"><ele>179.0</ele><time>2026-05-02T07:07:51.941Z</time></trkpt><trkpt lat="42.3391094" lon="14.0148401"><ele>179.0</ele><time>2026-05-02T07:07:52.941Z</time></trkpt><trkpt lat="42.3390683" lon="14.0147437"><ele>179.0</ele><time>2026-05-02T07:07:53.94Z</time></trkpt><trkpt lat="42.3390281" lon="14.014647"><ele>179.0</ele><time>2026-05-02T07:07:54.941Z</time></trkpt><trkpt lat="42.3389925" lon="14.0145531"><ele>178.5</ele><time>2026-05-02T07:07:55.94Z</time></trkpt><trkpt lat="42.3389582" lon="14.0144639"><ele>178.0</ele><time>2026-05-02T07:07:56.942Z</time></trkpt><trkpt lat="42.3389165" lon="14.0143739"><ele>177.5</ele><time>2026-05-02T07:07:57.941Z</time></trkpt><trkpt lat="42.3388772" lon="14.0142803"><ele>177.0</ele><time>2026-05-02T07:07:58.941Z</time></trkpt><trkpt lat="42.3388371" lon="14.0141882"><ele>176.5</ele><time>2026-05-02T07:07:59.94Z</time></trkpt><trkpt lat="42.338794" lon="14.0140872"><ele>176.0</ele><time>2026-05-02T07:08:00.942Z</time></trkpt><trkpt lat="42.3387523" lon="14.0139824"><ele>177.60000000000002</ele><time>2026-05-02T07:08:01.941Z</time></trkpt><trkpt lat="42.3387176" lon="14.0138804"><ele>179.2</ele><time>2026-05-02T07:08:02.94Z</time></trkpt><trkpt lat="42.3386662" lon="14.013746"><ele>180.8</ele><time>2026-05-02T07:08:03.942Z</time></trkpt><trkpt lat="42.3386262" lon="14.0136331"><ele>182.39999999999998</ele><time>2026-05-02T07:08:04.941Z</time></trkpt><trkpt lat="42.3385882" lon="14.0135163"><ele>184.0</ele><time>2026-05-02T07:08:05.94Z</time></trkpt><trkpt lat="42.3385451" lon="14.0133984"><ele>185.39999999999998</ele><time>2026-05-02T07:08:06.941Z</time></trkpt><trkpt lat="42.3385109" lon="14.0132815"><ele>186.8</ele><time>2026-05-02T07:08:07.942Z</time></trkpt><trkpt lat="42.3384742" lon="14.0131646"><ele>188.2</ele><time>2026-05-02T07:08:08.94Z</time></trkpt><trkpt lat="42.3384375" lon="14.0130554"><ele>189.60000000000002</ele><time>2026-05-02T07:08:09.94Z</time></trkpt><trkpt lat="42.338407" lon="14.0129615"><ele>191.0</ele><time>2026-05-02T07:08:10.939Z</time></trkpt><trkpt lat="42.3383627" lon="14.0128226"><ele>191.0</ele><time>2026-05-02T07:08:12.94Z</time></trkpt><trkpt lat="42.3383849" lon="14.012714"><ele>191.0</ele><time>2026-05-02T07:08:15.94Z</time></trkpt><trkpt lat="42.3384664" lon="14.0126535"><ele>191.0</ele><time>2026-05-02T07:08:17.941Z</time></trkpt><trkpt lat="42.3385424" lon="14.0126093"><ele>191.0</ele><time>2026-05-02T07:08:18.939Z</time></trkpt><trkpt lat="42.3386064" lon="14.0125743"><ele>191.0</ele><time>2026-05-02T07:08:19.941Z</time></trkpt><trkpt lat="42.3386661" lon="14.0125393"><ele>191.0</ele><time>2026-05-02T07:08:20.939Z</time></trkpt><trkpt lat="42.3387512" lon="14.0124757"><ele>192.4</ele><time>2026-05-02T07:08:22.94Z</time></trkpt><trkpt lat="42.3388252" lon="14.0124296"><ele>193.8</ele><time>2026-05-02T07:08:24.941Z</time></trkpt><trkpt lat="42.3388185" lon="14.0123343"><ele>195.20000000000002</ele><time>2026-05-02T07:08:27.94Z</time></trkpt><trkpt lat="42.3386871" lon="14.0123048"><ele>196.60000000000002</ele><time>2026-05-02T07:08:29.939Z</time></trkpt><trkpt lat="42.3385809" lon="14.0122435"><ele>198.0</ele><time>2026-05-02T07:08:30.94Z</time></trkpt><trkpt lat="42.3384689" lon="14.0121765"><ele>198.0</ele><time>2026-05-02T07:08:31.941Z</time></trkpt><trkpt lat="42.3383432" lon="14.012124"><ele>198.0</ele><time>2026-05-02T07:08:32.939Z</time></trkpt><trkpt lat="42.3382019" lon="14.0120796"><ele>198.0</ele><time>2026-05-02T07:08:33.941Z</time></trkpt><trkpt lat="42.3380643" lon="14.0120313"><ele>198.0</ele><time>2026-05-02T07:08:34.94Z</time></trkpt><trkpt lat="42.3379409" lon="14.0119673"><ele>197.25</ele><time>2026-05-02T07:08:35.941Z</time></trkpt><trkpt lat="42.3378222" lon="14.0118956"><ele>196.5</ele><time>2026-05-02T07:08:36.94Z</time></trkpt><trkpt lat="42.3377077" lon="14.0118062"><ele>195.75</ele><time>2026-05-02T07:08:37.941Z</time></trkpt><trkpt lat="42.3376003" lon="14.0117111"><ele>195.0</ele><time>2026-05-02T07:08:38.941Z</time></trkpt><trkpt lat="42.3374987" lon="14.011607"><ele>195.0</ele><time>2026-05-02T07:08:39.94Z</time></trkpt><trkpt lat="42.3374059" lon="14.0114907"><ele>195.0</ele><time>2026-05-02T07:08:40.941Z</time></trkpt><trkpt lat="42.3373206" lon="14.0113582"><ele>195.0</ele><time>2026-05-02T07:08:41.941Z</time></trkpt><trkpt lat="42.3372451" lon="14.0112193"><ele>195.0</ele><time>2026-05-02T07:08:42.941Z</time></trkpt><trkpt lat="42.3371735" lon="14.0110916"><ele>192.2</ele><time>2026-05-02T07:08:43.94Z</time></trkpt><trkpt lat="42.3371041" lon="14.0109883"><ele>189.4</ele><time>2026-05-02T07:08:44.94Z</time></trkpt><trkpt lat="42.3370263" lon="14.0109199"><ele>186.60000000000002</ele><time>2026-05-02T07:08:45.94Z</time></trkpt><trkpt lat="42.3369403" lon="14.0109036"><ele>183.8</ele><time>2026-05-02T07:08:46.941Z</time></trkpt><trkpt lat="42.3368455" lon="14.0109268"><ele>181.0</ele><time>2026-05-02T07:08:47.941Z</time></trkpt><trkpt lat="42.3367479" lon="14.0109583"><ele>181.0</ele><time>2026-05-02T07:08:48.94Z</time></trkpt><trkpt lat="42.3366413" lon="14.0110166"><ele>181.0</ele><time>2026-05-02T07:08:49.94Z</time></trkpt><trkpt lat="42.3365341" lon="14.0110881"><ele>181.0</ele><time>2026-05-02T07:08:50.94Z</time></trkpt><trkpt lat="42.3364432" lon="14.0111786"><ele>181.0</ele><time>2026-05-02T07:08:51.941Z</time></trkpt><trkpt lat="42.3363678" lon="14.0112867"><ele>183.75</ele><time>2026-05-02T07:08:52.941Z</time></trkpt><trkpt lat="42.3363031" lon="14.011416"><ele>186.5</ele><time>2026-05-02T07:08:53.941Z</time></trkpt><trkpt lat="42.3362464" lon="14.0115629"><ele>189.25</ele><time>2026-05-02T07:08:54.941Z</time></trkpt><trkpt lat="42.3361874" lon="14.0117191"><ele>192.0</ele><time>2026-05-02T07:08:55.942Z</time></trkpt><trkpt lat="42.3361314" lon="14.0118683"><ele>192.5</ele><time>2026-05-02T07:08:56.94Z</time></trkpt><trkpt lat="42.3360816" lon="14.012021"><ele>193.0</ele><time>2026-05-02T07:08:57.94Z</time></trkpt><trkpt lat="42.3360411" lon="14.0121739"><ele>193.5</ele><time>2026-05-02T07:08:58.94Z</time></trkpt><trkpt lat="42.3360204" lon="14.0123382"><ele>194.0</ele><time>2026-05-02T07:08:59.941Z</time></trkpt><trkpt lat="42.3360062" lon="14.0125058"><ele>195.25</ele><time>2026-05-02T07:09:00.94Z</time></trkpt><trkpt lat="42.3359939" lon="14.0126742"><ele>196.5</ele><time>2026-05-02T07:09:01.941Z</time></trkpt><trkpt lat="42.3360134" lon="14.0128487"><ele>197.75</ele><time>2026-05-02T07:09:02.941Z</time></trkpt><trkpt lat="42.3360235" lon="14.0130299"><ele>199.0</ele><time>2026-05-02T07:09:03.94Z</time></trkpt><trkpt lat="42.3360283" lon="14.0132125"><ele>200.0</ele><time>2026-05-02T07:09:04.94Z</time></trkpt><trkpt lat="42.3360354" lon="14.0133917"><ele>201.0</ele><time>2026-05-02T07:09:05.939Z</time></trkpt><trkpt lat="42.3360412" lon="14.0135677"><ele>202.0</ele><time>2026-05-02T07:09:06.941Z</time></trkpt><trkpt lat="42.3360432" lon="14.0137405"><ele>203.0</ele><time>2026-05-02T07:09:07.94Z</time></trkpt><trkpt lat="42.3360435" lon="14.0139067"><ele>203.0</ele><time>2026-05-02T07:09:08.941Z</time></trkpt><trkpt lat="42.3360451" lon="14.0140664"><ele>203.0</ele><time>2026-05-02T07:09:09.94Z</time></trkpt><trkpt lat="42.3360455" lon="14.0142253"><ele>203.0</ele><time>2026-05-02T07:09:10.941Z</time></trkpt><trkpt lat="42.3360476" lon="14.0143823"><ele>203.0</ele><time>2026-05-02T07:09:11.941Z</time></trkpt><trkpt lat="42.336052" lon="14.0145232"><ele>203.2</ele><time>2026-05-02T07:09:12.94Z</time></trkpt><trkpt lat="42.3360732" lon="14.014648"><ele>203.4</ele><time>2026-05-02T07:09:13.942Z</time></trkpt><trkpt lat="42.3360976" lon="14.0147519"><ele>203.6</ele><time>2026-05-02T07:09:14.94Z</time></trkpt><trkpt lat="42.3361234" lon="14.0148488"><ele>203.79999999999998</ele><time>2026-05-02T07:09:15.94Z</time></trkpt><trkpt lat="42.3361719" lon="14.0149919"><ele>204.0</ele><time>2026-05-02T07:09:17.94Z</time></trkpt><trkpt lat="42.3361394" lon="14.0151176"><ele>204.0</ele><time>2026-05-02T07:09:19.941Z</time></trkpt><trkpt lat="42.3360376" lon="14.0151192"><ele>204.0</ele><time>2026-05-02T07:09:21.941Z</time></trkpt><trkpt lat="42.3359379" lon="14.0150415"><ele>204.0</ele><time>2026-05-02T07:09:23.94Z</time></trkpt><trkpt lat="42.3358447" lon="14.0149666"><ele>204.0</ele><time>2026-05-02T07:09:25.94Z</time></trkpt><trkpt lat="42.3357822" lon="14.0149031"><ele>204.0</ele><time>2026-05-02T07:09:27.939Z</time></trkpt><trkpt lat="42.3357265" lon="14.0147906"><ele>204.0</ele><time>2026-05-02T07:09:29.941Z</time></trkpt><trkpt lat="42.3356958" lon="14.0147086"><ele>204.0</ele><time>2026-05-02T07:09:30.94Z</time></trkpt><trkpt lat="42.3356232" lon="14.0145932"><ele>204.0</ele><time>2026-05-02T07:09:32.94Z</time></trkpt><trkpt lat="42.3355613" lon="14.0145656"><ele>204.0</ele><time>2026-05-02T07:09:33.941Z</time></trkpt><trkpt lat="42.335482" lon="14.0145551"><ele>204.0</ele><time>2026-05-02T07:09:34.94Z</time></trkpt><trkpt lat="42.3353852" lon="14.0145513"><ele>204.0</ele><time>2026-05-02T07:09:35.94Z</time></trkpt><trkpt lat="42.3352561" lon="14.0145486"><ele>205.0</ele><time>2026-05-02T07:09:36.94Z</time></trkpt><trkpt lat="42.3351087" lon="14.01454"><ele>206.0</ele><time>2026-05-02T07:09:37.94Z</time></trkpt><trkpt lat="42.33495" lon="14.0145292"><ele>207.0</ele><time>2026-05-02T07:09:38.941Z</time></trkpt><trkpt lat="42.3347783" lon="14.0145201"><ele>204.66666666666669</ele><time>2026-05-02T07:09:39.941Z</time></trkpt><trkpt lat="42.3345855" lon="14.0145047"><ele>202.33333333333334</ele><time>2026-05-02T07:09:40.941Z</time></trkpt><trkpt lat="42.3343792" lon="14.0144808"><ele>200.0</ele><time>2026-05-02T07:09:41.942Z</time></trkpt><trkpt lat="42.3341641" lon="14.0144464"><ele>200.0</ele><time>2026-05-02T07:09:42.941Z</time></trkpt><trkpt lat="42.333949" lon="14.0144126"><ele>200.0</ele><time>2026-05-02T07:09:43.94Z</time></trkpt><trkpt lat="42.333757" lon="14.0143841"><ele>200.0</ele><time>2026-05-02T07:09:44.94Z</time></trkpt><trkpt lat="42.333594" lon="14.0143642"><ele>199.0</ele><time>2026-05-02T07:09:45.94Z</time></trkpt><trkpt lat="42.3334611" lon="14.0143441"><ele>198.0</ele><time>2026-05-02T07:09:46.941Z</time></trkpt><trkpt lat="42.3333512" lon="14.0143285"><ele>197.0</ele><time>2026-05-02T07:09:47.94Z</time></trkpt><trkpt lat="42.3332383" lon="14.0143123"><ele>196.0</ele><time>2026-05-02T07:09:48.94Z</time></trkpt><trkpt lat="42.3331013" lon="14.0142927"><ele>195.25</ele><time>2026-05-02T07:09:49.941Z</time></trkpt><trkpt lat="42.3329554" lon="14.0142713"><ele>194.5</ele><time>2026-05-02T07:09:50.94Z</time></trkpt><trkpt lat="42.3328014" lon="14.0142454"><ele>193.75</ele><time>2026-05-02T07:09:51.939Z</time></trkpt><trkpt lat="42.3326565" lon="14.0142243"><ele>193.0</ele><time>2026-05-02T07:09:52.941Z</time></trkpt><trkpt lat="42.3325164" lon="14.0142044"><ele>193.0</ele><time>2026-05-02T07:09:53.941Z</time></trkpt><trkpt lat="42.3323771" lon="14.0141922"><ele>193.0</ele><time>2026-05-02T07:09:54.942Z</time></trkpt><trkpt lat="42.3322373" lon="14.01419"><ele>193.0</ele><time>2026-05-02T07:09:55.94Z</time></trkpt><trkpt lat="42.3321" lon="14.0142086"><ele>193.0</ele><time>2026-05-02T07:09:56.942Z</time></trkpt><trkpt lat="42.3319674" lon="14.0142497"><ele>190.0</ele><time>2026-05-02T07:09:57.94Z</time></trkpt><trkpt lat="42.3318232" lon="14.0143285"><ele>187.0</ele><time>2026-05-02T07:09:58.94Z</time></trkpt><trkpt lat="42.3316834" lon="14.0144239"><ele>184.0</ele><time>2026-05-02T07:09:59.94Z</time></trkpt><trkpt lat="42.3315484" lon="14.0145185"><ele>184.0</ele><time>2026-05-02T07:10:00.939Z</time></trkpt><trkpt lat="42.3314169" lon="14.0146184"><ele>184.0</ele><time>2026-05-02T07:10:01.94Z</time></trkpt><trkpt lat="42.3312913" lon="14.0147176"><ele>184.0</ele><time>2026-05-02T07:10:02.94Z</time></trkpt><trkpt lat="42.3311719" lon="14.0148085"><ele>184.0</ele><time>2026-05-02T07:10:03.94Z</time></trkpt><trkpt lat="42.3310548" lon="14.0148885"><ele>182.25</ele><time>2026-05-02T07:10:04.942Z</time></trkpt><trkpt lat="42.3309413" lon="14.0149524"><ele>180.5</ele><time>2026-05-02T07:10:05.94Z</time></trkpt><trkpt lat="42.3308286" lon="14.0149977"><ele>178.75</ele><time>2026-05-02T07:10:06.94Z</time></trkpt><trkpt lat="42.3307156" lon="14.0150186"><ele>177.0</ele><time>2026-05-02T07:10:07.94Z</time></trkpt><trkpt lat="42.3306055" lon="14.0150125"><ele>175.25</ele><time>2026-05-02T07:10:08.94Z</time></trkpt><trkpt lat="42.330499" lon="14.014983"><ele>173.5</ele><time>2026-05-02T07:10:09.941Z</time></trkpt><trkpt lat="42.3303938" lon="14.0149263"><ele>171.75</ele><time>2026-05-02T07:10:10.94Z</time></trkpt><trkpt lat="42.3302968" lon="14.0148427"><ele>170.0</ele><time>2026-05-02T07:10:11.94Z</time></trkpt><trkpt lat="42.3301955" lon="14.0147316"><ele>170.0</ele><time>2026-05-02T07:10:12.94Z</time></trkpt><trkpt lat="42.330093" lon="14.0145922"><ele>170.0</ele><time>2026-05-02T07:10:13.939Z</time></trkpt><trkpt lat="42.329986" lon="14.0144423"><ele>170.0</ele><time>2026-05-02T07:10:14.94Z</time></trkpt><trkpt lat="42.3298751" lon="14.0142779"><ele>168.0</ele><time>2026-05-02T07:10:15.94Z</time></trkpt><trkpt lat="42.3297678" lon="14.0141155"><ele>166.0</ele><time>2026-05-02T07:10:16.939Z</time></trkpt><trkpt lat="42.3296633" lon="14.0139511"><ele>164.0</ele><time>2026-05-02T07:10:17.941Z</time></trkpt><trkpt lat="42.3295566" lon="14.0137883"><ele>163.66666666666666</ele><time>2026-05-02T07:10:18.941Z</time></trkpt><trkpt lat="42.3294528" lon="14.0136236"><ele>163.33333333333334</ele><time>2026-05-02T07:10:19.939Z</time></trkpt><trkpt lat="42.3293554" lon="14.0134642"><ele>163.0</ele><time>2026-05-02T07:10:20.942Z</time></trkpt><trkpt lat="42.3292589" lon="14.0132998"><ele>161.75</ele><time>2026-05-02T07:10:21.942Z</time></trkpt><trkpt lat="42.3291662" lon="14.0131313"><ele>160.5</ele><time>2026-05-02T07:10:22.941Z</time></trkpt><trkpt lat="42.3290787" lon="14.0129699"><ele>159.25</ele><time>2026-05-02T07:10:23.94Z</time></trkpt><trkpt lat="42.3289885" lon="14.0128149"><ele>158.0</ele><time>2026-05-02T07:10:24.941Z</time></trkpt><trkpt lat="42.3288978" lon="14.0126706"><ele>158.0</ele><time>2026-05-02T07:10:25.94Z</time></trkpt><trkpt lat="42.3287991" lon="14.0125432"><ele>158.0</ele><time>2026-05-02T07:10:26.94Z</time></trkpt><trkpt lat="42.328682" lon="14.0124295"><ele>158.0</ele><time>2026-05-02T07:10:27.941Z</time></trkpt><trkpt lat="42.3285527" lon="14.012342"><ele>158.0</ele><time>2026-05-02T07:10:28.94Z</time></trkpt><trkpt lat="42.328422" lon="14.012263"><ele>158.0</ele><time>2026-05-02T07:10:29.941Z</time></trkpt><trkpt lat="42.3282853" lon="14.0122085"><ele>158.0</ele><time>2026-05-02T07:10:30.94Z</time></trkpt><trkpt lat="42.3281504" lon="14.0121494"><ele>158.0</ele><time>2026-05-02T07:10:31.941Z</time></trkpt><trkpt lat="42.3280191" lon="14.0120945"><ele>158.0</ele><time>2026-05-02T07:10:32.941Z</time></trkpt><trkpt lat="42.3278846" lon="14.0120385"><ele>157.0</ele><time>2026-05-02T07:10:33.939Z</time></trkpt><trkpt lat="42.3277512" lon="14.0119834"><ele>156.0</ele><time>2026-05-02T07:10:34.941Z</time></trkpt><trkpt lat="42.3276225" lon="14.0119297"><ele>155.0</ele><time>2026-05-02T07:10:35.941Z</time></trkpt><trkpt lat="42.3274987" lon="14.0118817"><ele>154.0</ele><time>2026-05-02T07:10:36.939Z</time></trkpt><trkpt lat="42.3273798" lon="14.0118395"><ele>154.0</ele><time>2026-05-02T07:10:37.941Z</time></trkpt><trkpt lat="42.3272658" lon="14.0118041"><ele>154.0</ele><time>2026-05-02T07:10:38.939Z</time></trkpt><trkpt lat="42.3271549" lon="14.0117722"><ele>154.0</ele><time>2026-05-02T07:10:39.94Z</time></trkpt><trkpt lat="42.3270479" lon="14.0117398"><ele>154.0</ele><time>2026-05-02T07:10:40.939Z</time></trkpt><trkpt lat="42.3269458" lon="14.0117052"><ele>154.0</ele><time>2026-05-02T07:10:41.94Z</time></trkpt><trkpt lat="42.3268664" lon="14.0116428"><ele>153.2</ele><time>2026-05-02T07:10:42.94Z</time></trkpt><trkpt lat="42.3267961" lon="14.0115642"><ele>152.4</ele><time>2026-05-02T07:10:43.941Z</time></trkpt><trkpt lat="42.3267325" lon="14.0114559"><ele>151.6</ele><time>2026-05-02T07:10:44.939Z</time></trkpt><trkpt lat="42.3266757" lon="14.0113233"><ele>150.8</ele><time>2026-05-02T07:10:45.94Z</time></trkpt><trkpt lat="42.3266133" lon="14.0111584"><ele>150.0</ele><time>2026-05-02T07:10:46.941Z</time></trkpt><trkpt lat="42.3265454" lon="14.0109758"><ele>149.66666666666666</ele><time>2026-05-02T07:10:47.942Z</time></trkpt><trkpt lat="42.3264824" lon="14.0107844"><ele>149.33333333333331</ele><time>2026-05-02T07:10:48.939Z</time></trkpt><trkpt lat="42.3264175" lon="14.0105858"><ele>149.0</ele><time>2026-05-02T07:10:49.94Z</time></trkpt><trkpt lat="42.3263522" lon="14.0103876"><ele>147.66666666666666</ele><time>2026-05-02T07:10:50.941Z</time></trkpt><trkpt lat="42.3262845" lon="14.0101883"><ele>146.33333333333334</ele><time>2026-05-02T07:10:51.94Z</time></trkpt><trkpt lat="42.3262204" lon="14.0099917"><ele>145.0</ele><time>2026-05-02T07:10:52.94Z</time></trkpt><trkpt lat="42.3261529" lon="14.009791"><ele>145.0</ele><time>2026-05-02T07:10:53.942Z</time></trkpt><trkpt lat="42.3260812" lon="14.0095897"><ele>145.0</ele><time>2026-05-02T07:10:54.94Z</time></trkpt><trkpt lat="42.3260113" lon="14.0093938"><ele>145.0</ele><time>2026-05-02T07:10:55.939Z</time></trkpt><trkpt lat="42.3259461" lon="14.009192"><ele>144.33333333333334</ele><time>2026-05-02T07:10:56.942Z</time></trkpt><trkpt lat="42.3258834" lon="14.0089897"><ele>143.66666666666666</ele><time>2026-05-02T07:10:57.941Z</time></trkpt><trkpt lat="42.3258207" lon="14.0087858"><ele>143.0</ele><time>2026-05-02T07:10:58.941Z</time></trkpt><trkpt lat="42.3257545" lon="14.008582"><ele>143.0</ele><time>2026-05-02T07:10:59.941Z</time></trkpt><trkpt lat="42.3256883" lon="14.008391"><ele>143.0</ele><time>2026-05-02T07:11:00.94Z</time></trkpt><trkpt lat="42.3256174" lon="14.0082029"><ele>143.0</ele><time>2026-05-02T07:11:01.941Z</time></trkpt><trkpt lat="42.3255397" lon="14.0080172"><ele>141.66666666666666</ele><time>2026-05-02T07:11:02.939Z</time></trkpt><trkpt lat="42.3254557" lon="14.0078329"><ele>140.33333333333334</ele><time>2026-05-02T07:11:03.941Z</time></trkpt><trkpt lat="42.3253632" lon="14.0076457"><ele>139.0</ele><time>2026-05-02T07:11:04.939Z</time></trkpt><trkpt lat="42.3252643" lon="14.0074416"><ele>138.0</ele><time>2026-05-02T07:11:05.941Z</time></trkpt><trkpt lat="42.3251735" lon="14.007223"><ele>137.0</ele><time>2026-05-02T07:11:06.94Z</time></trkpt><trkpt lat="42.325096" lon="14.0069893"><ele>136.0</ele><time>2026-05-02T07:11:07.939Z</time></trkpt><trkpt lat="42.3250317" lon="14.0067524"><ele>135.66666666666669</ele><time>2026-05-02T07:11:08.94Z</time></trkpt><trkpt lat="42.3249736" lon="14.0065158"><ele>135.33333333333334</ele><time>2026-05-02T07:11:09.941Z</time></trkpt><trkpt lat="42.3249186" lon="14.0062803"><ele>135.0</ele><time>2026-05-02T07:11:10.941Z</time></trkpt><trkpt lat="42.3248621" lon="14.0060469"><ele>133.33333333333334</ele><time>2026-05-02T07:11:11.94Z</time></trkpt><trkpt lat="42.3248072" lon="14.0058082"><ele>131.66666666666669</ele><time>2026-05-02T07:11:12.939Z</time></trkpt><trkpt lat="42.3247484" lon="14.0055607"><ele>130.0</ele><time>2026-05-02T07:11:13.94Z</time></trkpt><trkpt lat="42.3246859" lon="14.0053125"><ele>130.0</ele><time>2026-05-02T07:11:14.94Z</time></trkpt><trkpt lat="42.3246163" lon="14.0050656"><ele>130.0</ele><time>2026-05-02T07:11:15.941Z</time></trkpt><trkpt lat="42.3245381" lon="14.004816"><ele>130.0</ele><time>2026-05-02T07:11:16.941Z</time></trkpt><trkpt lat="42.3244514" lon="14.004569"><ele>131.66666666666669</ele><time>2026-05-02T07:11:17.939Z</time></trkpt><trkpt lat="42.3243605" lon="14.0043277"><ele>133.33333333333334</ele><time>2026-05-02T07:11:18.94Z</time></trkpt><trkpt lat="42.3242697" lon="14.0040984"><ele>135.0</ele><time>2026-05-02T07:11:19.941Z</time></trkpt><trkpt lat="42.3241765" lon="14.0038731"><ele>136.33333333333334</ele><time>2026-05-02T07:11:20.941Z</time></trkpt><trkpt lat="42.3240835" lon="14.0036422"><ele>137.66666666666669</ele><time>2026-05-02T07:11:21.941Z</time></trkpt><trkpt lat="42.3239905" lon="14.0034042"><ele>139.0</ele><time>2026-05-02T07:11:22.94Z</time></trkpt><trkpt lat="42.3238988" lon="14.0031607"><ele>138.66666666666669</ele><time>2026-05-02T07:11:23.939Z</time></trkpt><trkpt lat="42.3238118" lon="14.0029157"><ele>138.33333333333334</ele><time>2026-05-02T07:11:24.94Z</time></trkpt><trkpt lat="42.3237285" lon="14.0026739"><ele>138.0</ele><time>2026-05-02T07:11:25.94Z</time></trkpt><trkpt lat="42.3236482" lon="14.0024319"><ele>138.0</ele><time>2026-05-02T07:11:26.939Z</time></trkpt><trkpt lat="42.3235707" lon="14.0021977"><ele>138.0</ele><time>2026-05-02T07:11:27.941Z</time></trkpt><trkpt lat="42.3234967" lon="14.0019748"><ele>138.0</ele><time>2026-05-02T07:11:28.941Z</time></trkpt><trkpt lat="42.3234246" lon="14.0017613"><ele>138.66666666666666</ele><time>2026-05-02T07:11:29.94Z</time></trkpt><trkpt lat="42.3233536" lon="14.0015448"><ele>139.33333333333331</ele><time>2026-05-02T07:11:30.94Z</time></trkpt><trkpt lat="42.3232852" lon="14.0013272"><ele>140.0</ele><time>2026-05-02T07:11:31.94Z</time></trkpt><trkpt lat="42.3232159" lon="14.0011084"><ele>140.0</ele><time>2026-05-02T07:11:32.94Z</time></trkpt><trkpt lat="42.3231467" lon="14.0008946"><ele>140.0</ele><time>2026-05-02T07:11:33.941Z</time></trkpt><trkpt lat="42.3230748" lon="14.0006858"><ele>140.0</ele><time>2026-05-02T07:11:34.941Z</time></trkpt><trkpt lat="42.3230053" lon="14.0004741"><ele>138.33333333333331</ele><time>2026-05-02T07:11:35.94Z</time></trkpt><trkpt lat="42.3229344" lon="14.0002623"><ele>136.66666666666666</ele><time>2026-05-02T07:11:36.941Z</time></trkpt><trkpt lat="42.3228664" lon="14.0000562"><ele>135.0</ele><time>2026-05-02T07:11:37.94Z</time></trkpt><trkpt lat="42.322797" lon="13.9998437"><ele>135.0</ele><time>2026-05-02T07:11:38.941Z</time></trkpt><trkpt lat="42.3227272" lon="13.999633"><ele>135.0</ele><time>2026-05-02T07:11:39.94Z</time></trkpt><trkpt lat="42.3226623" lon="13.9994291"><ele>135.0</ele><time>2026-05-02T07:11:40.94Z</time></trkpt><trkpt lat="42.3226" lon="13.9992356"><ele>136.33333333333334</ele><time>2026-05-02T07:11:41.941Z</time></trkpt><trkpt lat="42.3225374" lon="13.9990424"><ele>137.66666666666669</ele><time>2026-05-02T07:11:42.942Z</time></trkpt><trkpt lat="42.3224755" lon="13.9988487"><ele>139.0</ele><time>2026-05-02T07:11:43.94Z</time></trkpt><trkpt lat="42.3224128" lon="13.9986622"><ele>139.0</ele><time>2026-05-02T07:11:44.94Z</time></trkpt><trkpt lat="42.3223524" lon="13.9984738"><ele>139.0</ele><time>2026-05-02T07:11:45.941Z</time></trkpt><trkpt lat="42.3222924" lon="13.9982872"><ele>139.0</ele><time>2026-05-02T07:11:46.94Z</time></trkpt><trkpt lat="42.3222332" lon="13.9980922"><ele>137.33333333333334</ele><time>2026-05-02T07:11:47.94Z</time></trkpt><trkpt lat="42.322175" lon="13.9978935"><ele>135.66666666666666</ele><time>2026-05-02T07:11:48.939Z</time></trkpt><trkpt lat="42.3221164" lon="13.9976966"><ele>134.0</ele><time>2026-05-02T07:11:49.94Z</time></trkpt><trkpt lat="42.3220534" lon="13.9974967"><ele>134.0</ele><time>2026-05-02T07:11:50.942Z</time></trkpt><trkpt lat="42.3219912" lon="13.9972927"><ele>134.0</ele><time>2026-05-02T07:11:51.94Z</time></trkpt><trkpt lat="42.3219257" lon="13.9970844"><ele>134.0</ele><time>2026-05-02T07:11:52.94Z</time></trkpt><trkpt lat="42.321859" lon="13.996877"><ele>133.66666666666666</ele><time>2026-05-02T07:11:53.94Z</time></trkpt><trkpt lat="42.321794" lon="13.9966649"><ele>133.33333333333334</ele><time>2026-05-02T07:11:54.941Z</time></trkpt><trkpt lat="42.3217266" lon="13.9964495"><ele>133.0</ele><time>2026-05-02T07:11:55.942Z</time></trkpt><trkpt lat="42.32166" lon="13.99623"><ele>133.0</ele><time>2026-05-02T07:11:56.94Z</time></trkpt><trkpt lat="42.3215924" lon="13.9960159"><ele>133.0</ele><time>2026-05-02T07:11:57.939Z</time></trkpt><trkpt lat="42.3215256" lon="13.9957997"><ele>133.0</ele><time>2026-05-02T07:11:58.941Z</time></trkpt><trkpt lat="42.321452" lon="13.995587"><ele>133.0</ele><time>2026-05-02T07:11:59.94Z</time></trkpt><trkpt lat="42.3213799" lon="13.9953773"><ele>133.0</ele><time>2026-05-02T07:12:00.94Z</time></trkpt><trkpt lat="42.3213089" lon="13.9951836"><ele>133.0</ele><time>2026-05-02T07:12:01.94Z</time></trkpt><trkpt lat="42.3212428" lon="13.9950026"><ele>133.0</ele><time>2026-05-02T07:12:02.942Z</time></trkpt><trkpt lat="42.3211805" lon="13.9948287"><ele>133.0</ele><time>2026-05-02T07:12:03.94Z</time></trkpt><trkpt lat="42.3211171" lon="13.9946595"><ele>133.0</ele><time>2026-05-02T07:12:04.941Z</time></trkpt><trkpt lat="42.3210502" lon="13.9944891"><ele>133.0</ele><time>2026-05-02T07:12:05.94Z</time></trkpt><trkpt lat="42.3209835" lon="13.9943208"><ele>133.20000000000002</ele><time>2026-05-02T07:12:06.94Z</time></trkpt><trkpt lat="42.3209232" lon="13.9941678"><ele>133.4</ele><time>2026-05-02T07:12:07.941Z</time></trkpt><trkpt lat="42.3208682" lon="13.9940338"><ele>133.60000000000002</ele><time>2026-05-02T07:12:08.941Z</time></trkpt><trkpt lat="42.3208223" lon="13.9939272"><ele>133.8</ele><time>2026-05-02T07:12:09.941Z</time></trkpt><trkpt lat="42.3207851" lon="13.993843"><ele>134.0</ele><time>2026-05-02T07:12:10.94Z</time></trkpt><trkpt lat="42.3207461" lon="13.993771"><ele>134.0</ele><time>2026-05-02T07:12:11.939Z</time></trkpt><trkpt lat="42.3206945" lon="13.9936547"><ele>134.0</ele><time>2026-05-02T07:12:13.94Z</time></trkpt><trkpt lat="42.320647" lon="13.9935644"><ele>134.0</ele><time>2026-05-02T07:12:15.941Z</time></trkpt><trkpt lat="42.3205617" lon="13.9935357"><ele>134.0</ele><time>2026-05-02T07:12:17.94Z</time></trkpt><trkpt lat="42.3204863" lon="13.9936096"><ele>134.0</ele><time>2026-05-02T07:12:19.941Z</time></trkpt><trkpt lat="42.3204018" lon="13.9937254"><ele>135.0</ele><time>2026-05-02T07:12:21.941Z</time></trkpt><trkpt lat="42.3203365" lon="13.9937833"><ele>136.0</ele><time>2026-05-02T07:12:22.942Z</time></trkpt><trkpt lat="42.3202638" lon="13.9938453"><ele>137.0</ele><time>2026-05-02T07:12:23.941Z</time></trkpt><trkpt lat="42.3201904" lon="13.993918"><ele>138.0</ele><time>2026-05-02T07:12:24.94Z</time></trkpt><trkpt lat="42.320119" lon="13.9939997"><ele>139.0</ele><time>2026-05-02T07:12:25.94Z</time></trkpt><trkpt lat="42.3200568" lon="13.9941155"><ele>138.75</ele><time>2026-05-02T07:12:26.94Z</time></trkpt><trkpt lat="42.3199894" lon="13.9942457"><ele>138.5</ele><time>2026-05-02T07:12:27.941Z</time></trkpt><trkpt lat="42.3199177" lon="13.9943739"><ele>138.25</ele><time>2026-05-02T07:12:28.941Z</time></trkpt><trkpt lat="42.3198419" lon="13.9944939"><ele>138.0</ele><time>2026-05-02T07:12:29.939Z</time></trkpt><trkpt lat="42.3197671" lon="13.9946055"><ele>137.6</ele><time>2026-05-02T07:12:30.94Z</time></trkpt><trkpt lat="42.3196888" lon="13.9947195"><ele>137.20000000000002</ele><time>2026-05-02T07:12:31.939Z</time></trkpt><trkpt lat="42.319617" lon="13.9948318"><ele>136.8</ele><time>2026-05-02T07:12:32.939Z</time></trkpt><trkpt lat="42.3195519" lon="13.9949409"><ele>136.4</ele><time>2026-05-02T07:12:33.941Z</time></trkpt><trkpt lat="42.3194948" lon="13.9950541"><ele>136.0</ele><time>2026-05-02T07:12:34.94Z</time></trkpt><trkpt lat="42.3194425" lon="13.9951642"><ele>137.0</ele><time>2026-05-02T07:12:35.942Z</time></trkpt><trkpt lat="42.3193895" lon="13.9952748"><ele>138.0</ele><time>2026-05-02T07:12:36.939Z</time></trkpt><trkpt lat="42.3193427" lon="13.9953695"><ele>139.0</ele><time>2026-05-02T07:12:37.94Z</time></trkpt><trkpt lat="42.3193007" lon="13.9954725"><ele>140.0</ele><time>2026-05-02T07:12:38.94Z</time></trkpt><trkpt lat="42.3192526" lon="13.9955734"><ele>141.0</ele><time>2026-05-02T07:12:39.939Z</time></trkpt><trkpt lat="42.3192046" lon="13.9956815"><ele>141.0</ele><time>2026-05-02T07:12:40.942Z</time></trkpt><trkpt lat="42.3191619" lon="13.9957787"><ele>141.0</ele><time>2026-05-02T07:12:41.942Z</time></trkpt><trkpt lat="42.3191133" lon="13.9958829"><ele>141.0</ele><time>2026-05-02T07:12:42.941Z</time></trkpt><trkpt lat="42.3190678" lon="13.9959923"><ele>141.0</ele><time>2026-05-02T07:12:43.941Z</time></trkpt><trkpt lat="42.3190195" lon="13.9960987"><ele>141.0</ele><time>2026-05-02T07:12:44.94Z</time></trkpt><trkpt lat="42.3189699" lon="13.9962138"><ele>140.8</ele><time>2026-05-02T07:12:45.94Z</time></trkpt><trkpt lat="42.318919" lon="13.9963336"><ele>140.6</ele><time>2026-05-02T07:12:46.94Z</time></trkpt><trkpt lat="42.3188695" lon="13.9964433"><ele>140.4</ele><time>2026-05-02T07:12:47.94Z</time></trkpt><trkpt lat="42.3188154" lon="13.9965666"><ele>140.2</ele><time>2026-05-02T07:12:48.94Z</time></trkpt><trkpt lat="42.3187664" lon="13.996677"><ele>140.0</ele><time>2026-05-02T07:12:49.942Z</time></trkpt><trkpt lat="42.3187208" lon="13.9967844"><ele>141.6</ele><time>2026-05-02T07:12:50.94Z</time></trkpt><trkpt lat="42.3186818" lon="13.9969034"><ele>143.2</ele><time>2026-05-02T07:12:51.94Z</time></trkpt><trkpt lat="42.3186512" lon="13.9970254"><ele>144.8</ele><time>2026-05-02T07:12:52.94Z</time></trkpt><trkpt lat="42.3186268" lon="13.9971564"><ele>146.4</ele><time>2026-05-02T07:12:53.939Z</time></trkpt><trkpt lat="42.3186114" lon="13.9972905"><ele>148.0</ele><time>2026-05-02T07:12:54.94Z</time></trkpt><trkpt lat="42.3185964" lon="13.9974239"><ele>147.8</ele><time>2026-05-02T07:12:55.939Z</time></trkpt><trkpt lat="42.3185795" lon="13.9975607"><ele>147.60000000000002</ele><time>2026-05-02T07:12:56.94Z</time></trkpt><trkpt lat="42.3185627" lon="13.9976965"><ele>147.39999999999998</ele><time>2026-05-02T07:12:57.939Z</time></trkpt><trkpt lat="42.3185461" lon="13.9978325"><ele>147.2</ele><time>2026-05-02T07:12:58.94Z</time></trkpt><trkpt lat="42.3185277" lon="13.997972"><ele>147.0</ele><time>2026-05-02T07:12:59.941Z</time></trkpt><trkpt lat="42.3185095" lon="13.9981184"><ele>147.0</ele><time>2026-05-02T07:13:00.939Z</time></trkpt><trkpt lat="42.3184945" lon="13.9982649"><ele>147.0</ele><time>2026-05-02T07:13:01.94Z</time></trkpt><trkpt lat="42.3184765" lon="13.9984092"><ele>147.0</ele><time>2026-05-02T07:13:02.942Z</time></trkpt><trkpt lat="42.318465" lon="13.9985676"><ele>147.0</ele><time>2026-05-02T07:13:03.94Z</time></trkpt><trkpt lat="42.3184549" lon="13.9987213"><ele>147.0</ele><time>2026-05-02T07:13:04.942Z</time></trkpt><trkpt lat="42.3184393" lon="13.9988865"><ele>146.5</ele><time>2026-05-02T07:13:05.942Z</time></trkpt><trkpt lat="42.3184261" lon="13.9990472"><ele>146.0</ele><time>2026-05-02T07:13:06.941Z</time></trkpt><trkpt lat="42.3184161" lon="13.999204"><ele>145.5</ele><time>2026-05-02T07:13:07.94Z</time></trkpt><trkpt lat="42.3184066" lon="13.9993632"><ele>145.0</ele><time>2026-05-02T07:13:08.941Z</time></trkpt><trkpt lat="42.3183969" lon="13.9995125"><ele>143.5</ele><time>2026-05-02T07:13:09.939Z</time></trkpt><trkpt lat="42.3183878" lon="13.999667"><ele>142.0</ele><time>2026-05-02T07:13:10.94Z</time></trkpt><trkpt lat="42.3183831" lon="13.9998163"><ele>140.5</ele><time>2026-05-02T07:13:11.941Z</time></trkpt><trkpt lat="42.3183779" lon="13.9999741"><ele>139.0</ele><time>2026-05-02T07:13:12.939Z</time></trkpt><trkpt lat="42.3183694" lon="14.0001357"><ele>139.0</ele><time>2026-05-02T07:13:13.94Z</time></trkpt><trkpt lat="42.3183619" lon="14.000298"><ele>139.0</ele><time>2026-05-02T07:13:14.94Z</time></trkpt><trkpt lat="42.3183522" lon="14.0004576"><ele>139.0</ele><time>2026-05-02T07:13:15.94Z</time></trkpt><trkpt lat="42.3183425" lon="14.0006059"><ele>139.0</ele><time>2026-05-02T07:13:16.94Z</time></trkpt><trkpt lat="42.3183327" lon="14.0007677"><ele>138.2</ele><time>2026-05-02T07:13:17.941Z</time></trkpt><trkpt lat="42.318322" lon="14.0009263"><ele>137.4</ele><time>2026-05-02T07:13:18.941Z</time></trkpt><trkpt lat="42.3183086" lon="14.0010752"><ele>136.6</ele><time>2026-05-02T07:13:19.941Z</time></trkpt><trkpt lat="42.3182914" lon="14.0012101"><ele>135.8</ele><time>2026-05-02T07:13:20.94Z</time></trkpt><trkpt lat="42.3182651" lon="14.0013359"><ele>135.0</ele><time>2026-05-02T07:13:21.94Z</time></trkpt><trkpt lat="42.3182342" lon="14.0014542"><ele>135.0</ele><time>2026-05-02T07:13:22.94Z</time></trkpt><trkpt lat="42.3182064" lon="14.0015692"><ele>135.0</ele><time>2026-05-02T07:13:23.941Z</time></trkpt><trkpt lat="42.31819" lon="14.0016845"><ele>135.0</ele><time>2026-05-02T07:13:24.941Z</time></trkpt><trkpt lat="42.3181892" lon="14.0017982"><ele>135.0</ele><time>2026-05-02T07:13:25.94Z</time></trkpt><trkpt lat="42.3182135" lon="14.0019131"><ele>135.0</ele><time>2026-05-02T07:13:26.941Z</time></trkpt><trkpt lat="42.3182494" lon="14.0020384"><ele>135.0</ele><time>2026-05-02T07:13:27.941Z</time></trkpt><trkpt lat="42.3182848" lon="14.002163"><ele>134.2</ele><time>2026-05-02T07:13:28.94Z</time></trkpt><trkpt lat="42.3183159" lon="14.0022934"><ele>133.4</ele><time>2026-05-02T07:13:29.94Z</time></trkpt><trkpt lat="42.3183438" lon="14.0024322"><ele>132.6</ele><time>2026-05-02T07:13:30.94Z</time></trkpt><trkpt lat="42.3183645" lon="14.0025807"><ele>131.8</ele><time>2026-05-02T07:13:31.941Z</time></trkpt><trkpt lat="42.3183837" lon="14.0027374"><ele>131.0</ele><time>2026-05-02T07:13:32.94Z</time></trkpt><trkpt lat="42.3183987" lon="14.0028957"><ele>129.25</ele><time>2026-05-02T07:13:33.941Z</time></trkpt><trkpt lat="42.318411" lon="14.003055"><ele>127.5</ele><time>2026-05-02T07:13:34.94Z</time></trkpt><trkpt lat="42.3184232" lon="14.0032096"><ele>125.75</ele><time>2026-05-02T07:13:35.94Z</time></trkpt><trkpt lat="42.3184296" lon="14.0033605"><ele>124.0</ele><time>2026-05-02T07:13:36.941Z</time></trkpt><trkpt lat="42.318423" lon="14.0035022"><ele>123.2</ele><time>2026-05-02T07:13:37.941Z</time></trkpt><trkpt lat="42.3184076" lon="14.0036439"><ele>122.4</ele><time>2026-05-02T07:13:38.94Z</time></trkpt><trkpt lat="42.3183758" lon="14.0037878"><ele>121.6</ele><time>2026-05-02T07:13:39.941Z</time></trkpt><trkpt lat="42.3183319" lon="14.0039261"><ele>120.8</ele><time>2026-05-02T07:13:40.941Z</time></trkpt><trkpt lat="42.3182841" lon="14.0040536"><ele>120.0</ele><time>2026-05-02T07:13:41.94Z</time></trkpt><trkpt lat="42.3182315" lon="14.0041783"><ele>119.4</ele><time>2026-05-02T07:13:42.941Z</time></trkpt><trkpt lat="42.3181876" lon="14.0042973"><ele>118.8</ele><time>2026-05-02T07:13:43.941Z</time></trkpt><trkpt lat="42.318143" lon="14.004421"><ele>118.19999999999999</ele><time>2026-05-02T07:13:44.94Z</time></trkpt><trkpt lat="42.3180948" lon="14.0045589"><ele>117.6</ele><time>2026-05-02T07:13:45.939Z</time></trkpt><trkpt lat="42.3180468" lon="14.0046893"><ele>117.0</ele><time>2026-05-02T07:13:46.941Z</time></trkpt><trkpt lat="42.3179931" lon="14.0048311"><ele>117.0</ele><time>2026-05-02T07:13:47.941Z</time></trkpt><trkpt lat="42.3179413" lon="14.0049754"><ele>117.0</ele><time>2026-05-02T07:13:48.941Z</time></trkpt><trkpt lat="42.3178928" lon="14.0051268"><ele>117.0</ele><time>2026-05-02T07:13:49.941Z</time></trkpt><trkpt lat="42.3178446" lon="14.0052683"><ele>117.0</ele><time>2026-05-02T07:13:50.941Z</time></trkpt><trkpt lat="42.3177969" lon="14.0054145"><ele>117.0</ele><time>2026-05-02T07:13:51.939Z</time></trkpt><trkpt lat="42.3177485" lon="14.0055535"><ele>116.99999999999999</ele><time>2026-05-02T07:13:52.94Z</time></trkpt><trkpt lat="42.3177035" lon="14.0056758"><ele>116.99999999999999</ele><time>2026-05-02T07:13:53.94Z</time></trkpt><trkpt lat="42.3176645" lon="14.0057889"><ele>117.0</ele><time>2026-05-02T07:13:54.941Z</time></trkpt><trkpt lat="42.3176202" lon="14.0059031"><ele>117.0</ele><time>2026-05-02T07:13:55.94Z</time></trkpt><trkpt lat="42.3175736" lon="14.0060191"><ele>117.6</ele><time>2026-05-02T07:13:56.941Z</time></trkpt><trkpt lat="42.3175314" lon="14.0061387"><ele>118.19999999999999</ele><time>2026-05-02T07:13:57.941Z</time></trkpt><trkpt lat="42.3175023" lon="14.0062738"><ele>118.8</ele><time>2026-05-02T07:13:58.94Z</time></trkpt><trkpt lat="42.3174753" lon="14.0064109"><ele>119.4</ele><time>2026-05-02T07:13:59.941Z</time></trkpt><trkpt lat="42.3174259" lon="14.006559"><ele>120.0</ele><time>2026-05-02T07:14:00.94Z</time></trkpt><trkpt lat="42.3173805" lon="14.0067057"><ele>120.0</ele><time>2026-05-02T07:14:01.94Z</time></trkpt><trkpt lat="42.3173311" lon="14.0068507"><ele>120.0</ele><time>2026-05-02T07:14:02.939Z</time></trkpt><trkpt lat="42.3172807" lon="14.0069951"><ele>120.0</ele><time>2026-05-02T07:14:03.941Z</time></trkpt><trkpt lat="42.3172371" lon="14.0071181"><ele>120.0</ele><time>2026-05-02T07:14:04.941Z</time></trkpt><trkpt lat="42.3171992" lon="14.0072346"><ele>120.0</ele><time>2026-05-02T07:14:05.939Z</time></trkpt><trkpt lat="42.3171652" lon="14.0073467"><ele>120.0</ele><time>2026-05-02T07:14:06.939Z</time></trkpt><trkpt lat="42.3171366" lon="14.0074761"><ele>120.0</ele><time>2026-05-02T07:14:07.94Z</time></trkpt><trkpt lat="42.317108" lon="14.0076106"><ele>120.0</ele><time>2026-05-02T07:14:08.939Z</time></trkpt><trkpt lat="42.3170641" lon="14.0077421"><ele>120.0</ele><time>2026-05-02T07:14:09.942Z</time></trkpt><trkpt lat="42.316997" lon="14.0078732"><ele>120.0</ele><time>2026-05-02T07:14:10.941Z</time></trkpt><trkpt lat="42.3169092" lon="14.0079898"><ele>120.0</ele><time>2026-05-02T07:14:11.942Z</time></trkpt><trkpt lat="42.3168128" lon="14.0080974"><ele>120.0</ele><time>2026-05-02T07:14:12.941Z</time></trkpt><trkpt lat="42.3167129" lon="14.0081995"><ele>120.0</ele><time>2026-05-02T07:14:13.94Z</time></trkpt><trkpt lat="42.3166161" lon="14.0082974"><ele>120.0</ele><time>2026-05-02T07:14:14.941Z</time></trkpt><trkpt lat="42.3165247" lon="14.0083894"><ele>118.83333333333333</ele><time>2026-05-02T07:14:15.94Z</time></trkpt><trkpt lat="42.3164424" lon="14.0084703"><ele>117.66666666666666</ele><time>2026-05-02T07:14:16.94Z</time></trkpt><trkpt lat="42.3163692" lon="14.0085416"><ele>116.5</ele><time>2026-05-02T07:14:17.94Z</time></trkpt><trkpt lat="42.3163129" lon="14.008604"><ele>115.33333333333333</ele><time>2026-05-02T07:14:18.94Z</time></trkpt><trkpt lat="42.3162705" lon="14.0086732"><ele>114.16666666666666</ele><time>2026-05-02T07:14:19.939Z</time></trkpt><trkpt lat="42.3162223" lon="14.0087498"><ele>113.0</ele><time>2026-05-02T07:14:20.941Z</time></trkpt><trkpt lat="42.3161576" lon="14.0088174"><ele>112.5</ele><time>2026-05-02T07:14:21.939Z</time></trkpt><trkpt lat="42.3160643" lon="14.0088713"><ele>112.0</ele><time>2026-05-02T07:14:22.941Z</time></trkpt><trkpt lat="42.3159511" lon="14.0089352"><ele>111.5</ele><time>2026-05-02T07:14:23.939Z</time></trkpt><trkpt lat="42.3158219" lon="14.0090112"><ele>111.0</ele><time>2026-05-02T07:14:24.941Z</time></trkpt><trkpt lat="42.3156885" lon="14.0091102"><ele>109.66666666666666</ele><time>2026-05-02T07:14:25.939Z</time></trkpt><trkpt lat="42.315549" lon="14.0092172"><ele>108.33333333333333</ele><time>2026-05-02T07:14:26.94Z</time></trkpt><trkpt lat="42.3154105" lon="14.0093288"><ele>107.0</ele><time>2026-05-02T07:14:27.94Z</time></trkpt><trkpt lat="42.315275" lon="14.0094439"><ele>107.0</ele><time>2026-05-02T07:14:28.94Z</time></trkpt><trkpt lat="42.3151365" lon="14.0095595"><ele>107.0</ele><time>2026-05-02T07:14:29.94Z</time></trkpt><trkpt lat="42.3149958" lon="14.0096783"><ele>107.0</ele><time>2026-05-02T07:14:30.94Z</time></trkpt><trkpt lat="42.3148515" lon="14.0097985"><ele>106.33333333333333</ele><time>2026-05-02T07:14:31.941Z</time></trkpt><trkpt lat="42.3147102" lon="14.0099154"><ele>105.66666666666666</ele><time>2026-05-02T07:14:32.94Z</time></trkpt><trkpt lat="42.3145738" lon="14.0100281"><ele>105.0</ele><time>2026-05-02T07:14:33.941Z</time></trkpt><trkpt lat="42.3144406" lon="14.0101401"><ele>104.66666666666666</ele><time>2026-05-02T07:14:34.94Z</time></trkpt><trkpt lat="42.3143075" lon="14.010249"><ele>104.33333333333333</ele><time>2026-05-02T07:14:35.941Z</time></trkpt><trkpt lat="42.3141736" lon="14.0103577"><ele>104.0</ele><time>2026-05-02T07:14:36.94Z</time></trkpt><trkpt lat="42.3140428" lon="14.0104623"><ele>104.0</ele><time>2026-05-02T07:14:37.941Z</time></trkpt><trkpt lat="42.3139169" lon="14.0105675"><ele>104.0</ele><time>2026-05-02T07:14:38.941Z</time></trkpt><trkpt lat="42.3137873" lon="14.0106719"><ele>104.0</ele><time>2026-05-02T07:14:39.939Z</time></trkpt><trkpt lat="42.3136582" lon="14.0107732"><ele>104.0</ele><time>2026-05-02T07:14:40.94Z</time></trkpt><trkpt lat="42.3135272" lon="14.0108668"><ele>103.33333333333333</ele><time>2026-05-02T07:14:41.94Z</time></trkpt><trkpt lat="42.3133857" lon="14.010942"><ele>102.66666666666666</ele><time>2026-05-02T07:14:42.941Z</time></trkpt><trkpt lat="42.3132359" lon="14.0110003"><ele>102.0</ele><time>2026-05-02T07:14:43.941Z</time></trkpt><trkpt lat="42.3130791" lon="14.0110414"><ele>102.0</ele><time>2026-05-02T07:14:44.94Z</time></trkpt><trkpt lat="42.3129173" lon="14.0110751"><ele>102.0</ele><time>2026-05-02T07:14:45.939Z</time></trkpt><trkpt lat="42.3127567" lon="14.0111051"><ele>102.0</ele><time>2026-05-02T07:14:46.94Z</time></trkpt><trkpt lat="42.312599" lon="14.011127"><ele>102.0</ele><time>2026-05-02T07:14:47.939Z</time></trkpt><trkpt lat="42.312444" lon="14.0111422"><ele>102.0</ele><time>2026-05-02T07:14:48.94Z</time></trkpt><trkpt lat="42.3122894" lon="14.0111508"><ele>102.0</ele><time>2026-05-02T07:14:49.94Z</time></trkpt><trkpt lat="42.3121281" lon="14.0111446"><ele>102.33333333333334</ele><time>2026-05-02T07:14:50.94Z</time></trkpt><trkpt lat="42.3119654" lon="14.011135"><ele>102.66666666666667</ele><time>2026-05-02T07:14:51.94Z</time></trkpt><trkpt lat="42.3117966" lon="14.0111083"><ele>103.0</ele><time>2026-05-02T07:14:52.94Z</time></trkpt><trkpt lat="42.3116251" lon="14.011079"><ele>103.0</ele><time>2026-05-02T07:14:53.941Z</time></trkpt><trkpt lat="42.3114575" lon="14.0110488"><ele>103.0</ele><time>2026-05-02T07:14:54.94Z</time></trkpt><trkpt lat="42.3112833" lon="14.0110263"><ele>103.0</ele><time>2026-05-02T07:14:55.94Z</time></trkpt><trkpt lat="42.3111071" lon="14.0110017"><ele>102.33333333333334</ele><time>2026-05-02T07:14:56.939Z</time></trkpt><trkpt lat="42.3109336" lon="14.0109645"><ele>101.66666666666666</ele><time>2026-05-02T07:14:57.94Z</time></trkpt><trkpt lat="42.3107559" lon="14.0109233"><ele>101.0</ele><time>2026-05-02T07:14:58.941Z</time></trkpt><trkpt lat="42.3105762" lon="14.0108782"><ele>101.0</ele><time>2026-05-02T07:14:59.94Z</time></trkpt><trkpt lat="42.3103951" lon="14.0108348"><ele>101.0</ele><time>2026-05-02T07:15:00.939Z</time></trkpt><trkpt lat="42.3102174" lon="14.0107988"><ele>101.0</ele><time>2026-05-02T07:15:01.94Z</time></trkpt><trkpt lat="42.310043" lon="14.0107678"><ele>101.33333333333333</ele><time>2026-05-02T07:15:02.94Z</time></trkpt><trkpt lat="42.309868" lon="14.0107401"><ele>101.66666666666666</ele><time>2026-05-02T07:15:03.94Z</time></trkpt><trkpt lat="42.3096941" lon="14.0107121"><ele>102.0</ele><time>2026-05-02T07:15:04.941Z</time></trkpt><trkpt lat="42.3095179" lon="14.0106786"><ele>102.33333333333334</ele><time>2026-05-02T07:15:05.939Z</time></trkpt><trkpt lat="42.3093448" lon="14.0106472"><ele>102.66666666666667</ele><time>2026-05-02T07:15:06.94Z</time></trkpt><trkpt lat="42.3091729" lon="14.010614"><ele>103.0</ele><time>2026-05-02T07:15:07.941Z</time></trkpt><trkpt lat="42.3090044" lon="14.0105779"><ele>105.33333333333334</ele><time>2026-05-02T07:15:08.94Z</time></trkpt><trkpt lat="42.3088372" lon="14.0105404"><ele>107.66666666666666</ele><time>2026-05-02T07:15:09.942Z</time></trkpt><trkpt lat="42.3086731" lon="14.0105116"><ele>110.0</ele><time>2026-05-02T07:15:10.941Z</time></trkpt><trkpt lat="42.308524" lon="14.0104949"><ele>110.0</ele><time>2026-05-02T07:15:11.94Z</time></trkpt><trkpt lat="42.308392" lon="14.0105078"><ele>110.0</ele><time>2026-05-02T07:15:12.941Z</time></trkpt><trkpt lat="42.3082688" lon="14.0105672"><ele>110.0</ele><time>2026-05-02T07:15:13.939Z</time></trkpt><trkpt lat="42.3081537" lon="14.0106518"><ele>110.0</ele><time>2026-05-02T07:15:14.94Z</time></trkpt><trkpt lat="42.308038" lon="14.0107504"><ele>111.0</ele><time>2026-05-02T07:15:15.94Z</time></trkpt><trkpt lat="42.3079358" lon="14.010831"><ele>112.0</ele><time>2026-05-02T07:15:16.941Z</time></trkpt><trkpt lat="42.3078261" lon="14.0108867"><ele>113.0</ele><time>2026-05-02T07:15:17.94Z</time></trkpt><trkpt lat="42.3077194" lon="14.0109202"><ele>114.0</ele><time>2026-05-02T07:15:18.94Z</time></trkpt><trkpt lat="42.3076073" lon="14.0109025"><ele>114.0</ele><time>2026-05-02T07:15:19.942Z</time></trkpt><trkpt lat="42.3074969" lon="14.0108734"><ele>114.0</ele><time>2026-05-02T07:15:20.94Z</time></trkpt><trkpt lat="42.3073816" lon="14.0108267"><ele>114.0</ele><time>2026-05-02T07:15:21.94Z</time></trkpt><trkpt lat="42.3072697" lon="14.0107685"><ele>114.0</ele><time>2026-05-02T07:15:22.94Z</time></trkpt><trkpt lat="42.3071579" lon="14.0107119"><ele>116.75</ele><time>2026-05-02T07:15:23.94Z</time></trkpt><trkpt lat="42.3070503" lon="14.0106404"><ele>119.5</ele><time>2026-05-02T07:15:24.94Z</time></trkpt><trkpt lat="42.3069621" lon="14.0105355"><ele>122.25</ele><time>2026-05-02T07:15:25.939Z</time></trkpt><trkpt lat="42.3068931" lon="14.010408"><ele>125.0</ele><time>2026-05-02T07:15:26.94Z</time></trkpt><trkpt lat="42.3068379" lon="14.0102535"><ele>125.0</ele><time>2026-05-02T07:15:27.94Z</time></trkpt><trkpt lat="42.3067883" lon="14.0100739"><ele>125.0</ele><time>2026-05-02T07:15:28.94Z</time></trkpt><trkpt lat="42.3067371" lon="14.0098879"><ele>125.0</ele><time>2026-05-02T07:15:29.94Z</time></trkpt><trkpt lat="42.3066808" lon="14.0096966"><ele>125.0</ele><time>2026-05-02T07:15:30.941Z</time></trkpt><trkpt lat="42.3066282" lon="14.0095054"><ele>125.75</ele><time>2026-05-02T07:15:31.94Z</time></trkpt><trkpt lat="42.3065833" lon="14.009328"><ele>126.5</ele><time>2026-05-02T07:15:32.94Z</time></trkpt><trkpt lat="42.3065386" lon="14.0091508"><ele>127.25</ele><time>2026-05-02T07:15:33.94Z</time></trkpt><trkpt lat="42.3064931" lon="14.0089819"><ele>128.0</ele><time>2026-05-02T07:15:34.94Z</time></trkpt><trkpt lat="42.3064448" lon="14.0088146"><ele>132.0</ele><time>2026-05-02T07:15:35.94Z</time></trkpt><trkpt lat="42.3064026" lon="14.0086404"><ele>136.0</ele><time>2026-05-02T07:15:36.939Z</time></trkpt><trkpt lat="42.3063531" lon="14.0084634"><ele>140.0</ele><time>2026-05-02T07:15:37.939Z</time></trkpt><trkpt lat="42.3063058" lon="14.0082823"><ele>144.0</ele><time>2026-05-02T07:15:38.939Z</time></trkpt><trkpt lat="42.3062579" lon="14.0080958"><ele>144.5</ele><time>2026-05-02T07:15:39.939Z</time></trkpt><trkpt lat="42.3062086" lon="14.0079075"><ele>145.0</ele><time>2026-05-02T07:15:40.94Z</time></trkpt><trkpt lat="42.3061595" lon="14.0077224"><ele>145.5</ele><time>2026-05-02T07:15:41.939Z</time></trkpt><trkpt lat="42.3061112" lon="14.0075418"><ele>146.0</ele><time>2026-05-02T07:15:42.94Z</time></trkpt><trkpt lat="42.3060637" lon="14.0073694"><ele>146.75</ele><time>2026-05-02T07:15:43.94Z</time></trkpt><trkpt lat="42.3060128" lon="14.0072074"><ele>147.5</ele><time>2026-05-02T07:15:44.94Z</time></trkpt><trkpt lat="42.3059586" lon="14.0070495"><ele>148.25</ele><time>2026-05-02T07:15:45.939Z</time></trkpt><trkpt lat="42.3058982" lon="14.0068939"><ele>149.0</ele><time>2026-05-02T07:15:46.94Z</time></trkpt><trkpt lat="42.3058367" lon="14.0067354"><ele>148.75</ele><time>2026-05-02T07:15:47.94Z</time></trkpt><trkpt lat="42.3057689" lon="14.0065834"><ele>148.5</ele><time>2026-05-02T07:15:48.94Z</time></trkpt><trkpt lat="42.3056785" lon="14.006421"><ele>148.25</ele><time>2026-05-02T07:15:49.94Z</time></trkpt><trkpt lat="42.3056002" lon="14.006265"><ele>148.0</ele><time>2026-05-02T07:15:50.939Z</time></trkpt><trkpt lat="42.305511" lon="14.0061105"><ele>151.75</ele><time>2026-05-02T07:15:51.941Z</time></trkpt><trkpt lat="42.3054197" lon="14.0059534"><ele>155.5</ele><time>2026-05-02T07:15:52.94Z</time></trkpt><trkpt lat="42.305328" lon="14.0057971"><ele>159.25</ele><time>2026-05-02T07:15:53.941Z</time></trkpt><trkpt lat="42.3052352" lon="14.0056367"><ele>163.0</ele><time>2026-05-02T07:15:54.939Z</time></trkpt><trkpt lat="42.305146" lon="14.0054665"><ele>163.0</ele><time>2026-05-02T07:15:55.939Z</time></trkpt><trkpt lat="42.3050674" lon="14.0052949"><ele>163.0</ele><time>2026-05-02T07:15:56.94Z</time></trkpt><trkpt lat="42.3049926" lon="14.0051221"><ele>163.0</ele><time>2026-05-02T07:15:57.94Z</time></trkpt><trkpt lat="42.3049208" lon="14.0049491"><ele>163.0</ele><time>2026-05-02T07:15:58.94Z</time></trkpt><trkpt lat="42.3048456" lon="14.0047793"><ele>162.75</ele><time>2026-05-02T07:15:59.941Z</time></trkpt><trkpt lat="42.3047743" lon="14.004612"><ele>162.5</ele><time>2026-05-02T07:16:00.94Z</time></trkpt><trkpt lat="42.3047013" lon="14.0044495"><ele>162.25</ele><time>2026-05-02T07:16:01.941Z</time></trkpt><trkpt lat="42.304627" lon="14.0042906"><ele>162.0</ele><time>2026-05-02T07:16:02.941Z</time></trkpt><trkpt lat="42.3045483" lon="14.0041423"><ele>164.0</ele><time>2026-05-02T07:16:03.942Z</time></trkpt><trkpt lat="42.3044652" lon="14.0040167"><ele>166.0</ele><time>2026-05-02T07:16:04.941Z</time></trkpt><trkpt lat="42.3043727" lon="14.0039179"><ele>168.0</ele><time>2026-05-02T07:16:05.94Z</time></trkpt><trkpt lat="42.3042686" lon="14.0038492"><ele>170.0</ele><time>2026-05-02T07:16:06.941Z</time></trkpt><trkpt lat="42.3041471" lon="14.0037998"><ele>170.0</ele><time>2026-05-02T07:16:07.941Z</time></trkpt><trkpt lat="42.3040156" lon="14.0037516"><ele>170.0</ele><time>2026-05-02T07:16:08.94Z</time></trkpt><trkpt lat="42.3038782" lon="14.0036985"><ele>170.0</ele><time>2026-05-02T07:16:09.941Z</time></trkpt><trkpt lat="42.3037341" lon="14.0036227"><ele>170.0</ele><time>2026-05-02T07:16:10.939Z</time></trkpt><trkpt lat="42.3035817" lon="14.0035046"><ele>168.66666666666666</ele><time>2026-05-02T07:16:11.94Z</time></trkpt><trkpt lat="42.3034402" lon="14.003403"><ele>167.33333333333334</ele><time>2026-05-02T07:16:12.941Z</time></trkpt><trkpt lat="42.3032991" lon="14.0033093"><ele>166.0</ele><time>2026-05-02T07:16:13.939Z</time></trkpt><trkpt lat="42.3031612" lon="14.0032304"><ele>167.0</ele><time>2026-05-02T07:16:14.94Z</time></trkpt><trkpt lat="42.3030217" lon="14.0031634"><ele>168.0</ele><time>2026-05-02T07:16:15.939Z</time></trkpt><trkpt lat="42.3028708" lon="14.0031188"><ele>169.0</ele><time>2026-05-02T07:16:16.941Z</time></trkpt><trkpt lat="42.3027197" lon="14.0030902"><ele>169.0</ele><time>2026-05-02T07:16:17.94Z</time></trkpt><trkpt lat="42.3025662" lon="14.0030687"><ele>169.0</ele><time>2026-05-02T07:16:18.942Z</time></trkpt><trkpt lat="42.3024095" lon="14.0030625"><ele>169.0</ele><time>2026-05-02T07:16:19.94Z</time></trkpt><trkpt lat="42.3022564" lon="14.0030615"><ele>166.5</ele><time>2026-05-02T07:16:20.941Z</time></trkpt><trkpt lat="42.3021099" lon="14.003055"><ele>164.0</ele><time>2026-05-02T07:16:21.94Z</time></trkpt><trkpt lat="42.3019713" lon="14.0030337"><ele>161.5</ele><time>2026-05-02T07:16:22.94Z</time></trkpt><trkpt lat="42.3018403" lon="14.0029885"><ele>159.0</ele><time>2026-05-02T07:16:23.94Z</time></trkpt><trkpt lat="42.3017247" lon="14.0029178"><ele>159.0</ele><time>2026-05-02T07:16:24.94Z</time></trkpt><trkpt lat="42.3016269" lon="14.0028484"><ele>159.0</ele><time>2026-05-02T07:16:25.94Z</time></trkpt><trkpt lat="42.301581" lon="14.0027869"><ele>159.0</ele><time>2026-05-02T07:16:26.94Z</time></trkpt><trkpt lat="42.3015298" lon="14.0027242"><ele>159.0</ele><time>2026-05-02T07:16:27.941Z</time></trkpt><trkpt lat="42.3014903" lon="14.0026524"><ele>159.0</ele><time>2026-05-02T07:16:28.939Z</time></trkpt><trkpt lat="42.3014607" lon="14.0025688"><ele>159.0</ele><time>2026-05-02T07:16:29.94Z</time></trkpt><trkpt lat="42.3014365" lon="14.0024803"><ele>159.0</ele><time>2026-05-02T07:16:30.939Z</time></trkpt><trkpt lat="42.3014121" lon="14.0023854"><ele>158.2</ele><time>2026-05-02T07:16:31.94Z</time></trkpt><trkpt lat="42.3013944" lon="14.0022819"><ele>157.4</ele><time>2026-05-02T07:16:32.941Z</time></trkpt><trkpt lat="42.3013823" lon="14.0021638"><ele>156.6</ele><time>2026-05-02T07:16:33.94Z</time></trkpt><trkpt lat="42.3013664" lon="14.0020421"><ele>155.8</ele><time>2026-05-02T07:16:34.94Z</time></trkpt><trkpt lat="42.3013416" lon="14.0019106"><ele>155.0</ele><time>2026-05-02T07:16:35.94Z</time></trkpt><trkpt lat="42.3013033" lon="14.0017772"><ele>156.5</ele><time>2026-05-02T07:16:36.94Z</time></trkpt><trkpt lat="42.3012607" lon="14.0016393"><ele>158.0</ele><time>2026-05-02T07:16:37.94Z</time></trkpt><trkpt lat="42.3012134" lon="14.0014976"><ele>159.5</ele><time>2026-05-02T07:16:38.94Z</time></trkpt><trkpt lat="42.30116" lon="14.0013489"><ele>161.0</ele><time>2026-05-02T07:16:39.94Z</time></trkpt><trkpt lat="42.301102" lon="14.0011984"><ele>161.0</ele><time>2026-05-02T07:16:40.939Z</time></trkpt><trkpt lat="42.3010381" lon="14.0010509"><ele>161.0</ele><time>2026-05-02T07:16:41.941Z</time></trkpt><trkpt lat="42.3009749" lon="14.0009065"><ele>161.0</ele><time>2026-05-02T07:16:42.94Z</time></trkpt><trkpt lat="42.3009072" lon="14.0007629"><ele>161.0</ele><time>2026-05-02T07:16:43.94Z</time></trkpt><trkpt lat="42.3008336" lon="14.000622"><ele>160.25</ele><time>2026-05-02T07:16:44.939Z</time></trkpt><trkpt lat="42.3007502" lon="14.0004887"><ele>159.5</ele><time>2026-05-02T07:16:45.941Z</time></trkpt><trkpt lat="42.300665" lon="14.0003608"><ele>158.75</ele><time>2026-05-02T07:16:46.94Z</time></trkpt><trkpt lat="42.3005673" lon="14.0002344"><ele>158.0</ele><time>2026-05-02T07:16:47.94Z</time></trkpt><trkpt lat="42.3004619" lon="14.0001112"><ele>158.0</ele><time>2026-05-02T07:16:48.94Z</time></trkpt><trkpt lat="42.3003695" lon="13.9999767"><ele>158.0</ele><time>2026-05-02T07:16:49.94Z</time></trkpt><trkpt lat="42.3002843" lon="13.9998287"><ele>158.0</ele><time>2026-05-02T07:16:50.939Z</time></trkpt><trkpt lat="42.3002112" lon="13.9996681"><ele>158.0</ele><time>2026-05-02T07:16:51.94Z</time></trkpt><trkpt lat="42.3001421" lon="13.999505"><ele>158.0</ele><time>2026-05-02T07:16:52.939Z</time></trkpt><trkpt lat="42.3000706" lon="13.9993458"><ele>158.0</ele><time>2026-05-02T07:16:53.941Z</time></trkpt><trkpt lat="42.2999989" lon="13.9992034"><ele>158.0</ele><time>2026-05-02T07:16:54.94Z</time></trkpt><trkpt lat="42.2999285" lon="13.9990722"><ele>158.0</ele><time>2026-05-02T07:16:55.94Z</time></trkpt><trkpt lat="42.2998603" lon="13.9989432"><ele>158.5</ele><time>2026-05-02T07:16:56.941Z</time></trkpt><trkpt lat="42.2997944" lon="13.9988142"><ele>159.0</ele><time>2026-05-02T07:16:57.94Z</time></trkpt><trkpt lat="42.2997238" lon="13.9986734"><ele>159.5</ele><time>2026-05-02T07:16:58.94Z</time></trkpt><trkpt lat="42.2996457" lon="13.9985254"><ele>160.0</ele><time>2026-05-02T07:16:59.94Z</time></trkpt><trkpt lat="42.2995645" lon="13.9983721"><ele>159.5</ele><time>2026-05-02T07:17:00.942Z</time></trkpt><trkpt lat="42.2994822" lon="13.9982254"><ele>159.0</ele><time>2026-05-02T07:17:01.941Z</time></trkpt><trkpt lat="42.2994" lon="13.9980806"><ele>158.5</ele><time>2026-05-02T07:17:02.94Z</time></trkpt><trkpt lat="42.2993253" lon="13.9979342"><ele>158.0</ele><time>2026-05-02T07:17:03.94Z</time></trkpt><trkpt lat="42.2992668" lon="13.9977806"><ele>158.0</ele><time>2026-05-02T07:17:04.94Z</time></trkpt><trkpt lat="42.2992244" lon="13.9976128"><ele>158.0</ele><time>2026-05-02T07:17:05.941Z</time></trkpt><trkpt lat="42.2991938" lon="13.9974339"><ele>158.0</ele><time>2026-05-02T07:17:06.94Z</time></trkpt><trkpt lat="42.299177" lon="13.9972378"><ele>158.0</ele><time>2026-05-02T07:17:07.941Z</time></trkpt><trkpt lat="42.2991667" lon="13.9970462"><ele>158.0</ele><time>2026-05-02T07:17:08.94Z</time></trkpt><trkpt lat="42.2991611" lon="13.9968613"><ele>158.0</ele><time>2026-05-02T07:17:09.941Z</time></trkpt><trkpt lat="42.2991294" lon="13.9966885"><ele>158.0</ele><time>2026-05-02T07:17:10.94Z</time></trkpt><trkpt lat="42.2990775" lon="13.9965363"><ele>158.0</ele><time>2026-05-02T07:17:11.94Z</time></trkpt><trkpt lat="42.2990022" lon="13.9963952"><ele>157.5</ele><time>2026-05-02T07:17:12.941Z</time></trkpt><trkpt lat="42.2989193" lon="13.9962663"><ele>157.0</ele><time>2026-05-02T07:17:13.94Z</time></trkpt><trkpt lat="42.2988286" lon="13.9961456"><ele>156.5</ele><time>2026-05-02T07:17:14.941Z</time></trkpt><trkpt lat="42.2987485" lon="13.9960198"><ele>156.0</ele><time>2026-05-02T07:17:15.94Z</time></trkpt><trkpt lat="42.2986828" lon="13.9959016"><ele>155.0</ele><time>2026-05-02T07:17:16.942Z</time></trkpt><trkpt lat="42.2986366" lon="13.9957958"><ele>154.0</ele><time>2026-05-02T07:17:17.941Z</time></trkpt><trkpt lat="42.2986053" lon="13.995707"><ele>153.0</ele><time>2026-05-02T07:17:18.94Z</time></trkpt><trkpt lat="42.2985625" lon="13.995624"><ele>152.0</ele><time>2026-05-02T07:17:19.94Z</time></trkpt><trkpt lat="42.2985217" lon="13.9955374"><ele>151.0</ele><time>2026-05-02T07:17:20.94Z</time></trkpt><trkpt lat="42.2984759" lon="13.995446"><ele>150.0</ele><time>2026-05-02T07:17:21.94Z</time></trkpt><trkpt lat="42.2984208" lon="13.9953454"><ele>150.0</ele><time>2026-05-02T07:17:22.941Z</time></trkpt><trkpt lat="42.2983635" lon="13.9952412"><ele>150.0</ele><time>2026-05-02T07:17:23.941Z</time></trkpt><trkpt lat="42.2982958" lon="13.9951061"><ele>150.0</ele><time>2026-05-02T07:17:24.939Z</time></trkpt><trkpt lat="42.2982291" lon="13.9949674"><ele>150.0</ele><time>2026-05-02T07:17:25.94Z</time></trkpt><trkpt lat="42.2981563" lon="13.994835"><ele>147.5</ele><time>2026-05-02T07:17:26.94Z</time></trkpt><trkpt lat="42.2980717" lon="13.9947128"><ele>145.0</ele><time>2026-05-02T07:17:27.939Z</time></trkpt><trkpt lat="42.2979913" lon="13.9945885"><ele>142.5</ele><time>2026-05-02T07:17:28.94Z</time></trkpt><trkpt lat="42.2979219" lon="13.9944512"><ele>140.0</ele><time>2026-05-02T07:17:29.939Z</time></trkpt><trkpt lat="42.2978545" lon="13.9943012"><ele>140.25</ele><time>2026-05-02T07:17:30.941Z</time></trkpt><trkpt lat="42.2977872" lon="13.9941483"><ele>140.5</ele><time>2026-05-02T07:17:31.941Z</time></trkpt><trkpt lat="42.2977221" lon="13.9939901"><ele>140.75</ele><time>2026-05-02T07:17:32.939Z</time></trkpt><trkpt lat="42.2976553" lon="13.9938329"><ele>141.0</ele><time>2026-05-02T07:17:33.94Z</time></trkpt><trkpt lat="42.2975877" lon="13.9936828"><ele>141.0</ele><time>2026-05-02T07:17:34.94Z</time></trkpt><trkpt lat="42.2975133" lon="13.9935381"><ele>141.0</ele><time>2026-05-02T07:17:35.941Z</time></trkpt><trkpt lat="42.2974403" lon="13.9934005"><ele>141.0</ele><time>2026-05-02T07:17:36.94Z</time></trkpt><trkpt lat="42.2973666" lon="13.9932615"><ele>141.0</ele><time>2026-05-02T07:17:37.939Z</time></trkpt><trkpt lat="42.2972994" lon="13.9931253"><ele>139.25</ele><time>2026-05-02T07:17:38.94Z</time></trkpt><trkpt lat="42.297234" lon="13.9929824"><ele>137.5</ele><time>2026-05-02T07:17:39.941Z</time></trkpt><trkpt lat="42.2971655" lon="13.9928388"><ele>135.75</ele><time>2026-05-02T07:17:40.94Z</time></trkpt><trkpt lat="42.2970937" lon="13.9926995"><ele>134.0</ele><time>2026-05-02T07:17:41.941Z</time></trkpt><trkpt lat="42.2970203" lon="13.9925584"><ele>134.75</ele><time>2026-05-02T07:17:42.94Z</time></trkpt><trkpt lat="42.2969535" lon="13.9923962"><ele>135.5</ele><time>2026-05-02T07:17:43.941Z</time></trkpt><trkpt lat="42.2968959" lon="13.992221"><ele>136.25</ele><time>2026-05-02T07:17:44.94Z</time></trkpt><trkpt lat="42.2968433" lon="13.9920423"><ele>137.0</ele><time>2026-05-02T07:17:45.939Z</time></trkpt><trkpt lat="42.2967928" lon="13.9918655"><ele>137.0</ele><time>2026-05-02T07:17:46.94Z</time></trkpt><trkpt lat="42.2967497" lon="13.9916969"><ele>137.0</ele><time>2026-05-02T07:17:47.94Z</time></trkpt><trkpt lat="42.2967169" lon="13.9915322"><ele>137.0</ele><time>2026-05-02T07:17:48.94Z</time></trkpt><trkpt lat="42.2966964" lon="13.9913731"><ele>137.0</ele><time>2026-05-02T07:17:49.94Z</time></trkpt><trkpt lat="42.2966752" lon="13.9912124"><ele>137.2</ele><time>2026-05-02T07:17:50.94Z</time></trkpt><trkpt lat="42.2966639" lon="13.9910595"><ele>137.39999999999998</ele><time>2026-05-02T07:17:51.939Z</time></trkpt><trkpt lat="42.2966492" lon="13.9909094"><ele>137.60000000000002</ele><time>2026-05-02T07:17:52.94Z</time></trkpt><trkpt lat="42.2966488" lon="13.9907572"><ele>137.8</ele><time>2026-05-02T07:17:53.94Z</time></trkpt><trkpt lat="42.296639" lon="13.9906075"><ele>138.0</ele><time>2026-05-02T07:17:54.939Z</time></trkpt><trkpt lat="42.2966157" lon="13.9904503"><ele>138.0</ele><time>2026-05-02T07:17:55.939Z</time></trkpt><trkpt lat="42.2965758" lon="13.9902993"><ele>138.0</ele><time>2026-05-02T07:17:56.94Z</time></trkpt><trkpt lat="42.2965154" lon="13.9901619"><ele>138.0</ele><time>2026-05-02T07:17:57.94Z</time></trkpt><trkpt lat="42.2964437" lon="13.9900457"><ele>138.0</ele><time>2026-05-02T07:17:58.94Z</time></trkpt><trkpt lat="42.2963597" lon="13.9899609"><ele>136.0</ele><time>2026-05-02T07:17:59.94Z</time></trkpt><trkpt lat="42.2962685" lon="13.9899072"><ele>134.0</ele><time>2026-05-02T07:18:00.94Z</time></trkpt><trkpt lat="42.2961721" lon="13.9898712"><ele>132.0</ele><time>2026-05-02T07:18:01.941Z</time></trkpt><trkpt lat="42.2960689" lon="13.9898284"><ele>130.0</ele><time>2026-05-02T07:18:02.94Z</time></trkpt><trkpt lat="42.2959631" lon="13.9897845"><ele>128.0</ele><time>2026-05-02T07:18:03.94Z</time></trkpt><trkpt lat="42.2958603" lon="13.9897138"><ele>128.0</ele><time>2026-05-02T07:18:04.941Z</time></trkpt><trkpt lat="42.2957571" lon="13.9896341"><ele>128.0</ele><time>2026-05-02T07:18:05.94Z</time></trkpt><trkpt lat="42.2956581" lon="13.9895525"><ele>128.0</ele><time>2026-05-02T07:18:06.941Z</time></trkpt><trkpt lat="42.2955679" lon="13.9894771"><ele>128.0</ele><time>2026-05-02T07:18:07.94Z</time></trkpt><trkpt lat="42.2954856" lon="13.9894155"><ele>128.0</ele><time>2026-05-02T07:18:08.94Z</time></trkpt><trkpt lat="42.2954274" lon="13.9893774"><ele>127.66666666666666</ele><time>2026-05-02T07:18:09.94Z</time></trkpt><trkpt lat="42.2953569" lon="13.9893279"><ele>127.33333333333333</ele><time>2026-05-02T07:18:11.94Z</time></trkpt><trkpt lat="42.2952851" lon="13.9892794"><ele>127.0</ele><time>2026-05-02T07:18:13.94Z</time></trkpt><trkpt lat="42.2952182" lon="13.9892369"><ele>126.66666666666666</ele><time>2026-05-02T07:18:16.941Z</time></trkpt><trkpt lat="42.2951304" lon="13.989281"><ele>126.33333333333333</ele><time>2026-05-02T07:18:18.941Z</time></trkpt><trkpt lat="42.2950219" lon="13.9893"><ele>126.0</ele><time>2026-05-02T07:18:20.939Z</time></trkpt><trkpt lat="42.2949743" lon="13.9892273"><ele>127.0</ele><time>2026-05-02T07:18:22.94Z</time></trkpt><trkpt lat="42.2949512" lon="13.9890526"><ele>128.0</ele><time>2026-05-02T07:18:24.94Z</time></trkpt><trkpt lat="42.2949264" lon="13.988925"><ele>129.0</ele><time>2026-05-02T07:18:25.941Z</time></trkpt><trkpt lat="42.2948913" lon="13.9887682"><ele>130.0</ele><time>2026-05-02T07:18:26.94Z</time></trkpt><trkpt lat="42.2948483" lon="13.9885964"><ele>130.0</ele><time>2026-05-02T07:18:27.94Z</time></trkpt><trkpt lat="42.2948008" lon="13.9884118"><ele>130.0</ele><time>2026-05-02T07:18:28.939Z</time></trkpt><trkpt lat="42.2947499" lon="13.9882172"><ele>130.0</ele><time>2026-05-02T07:18:29.94Z</time></trkpt><trkpt lat="42.294696" lon="13.9880173"><ele>131.0</ele><time>2026-05-02T07:18:30.94Z</time></trkpt><trkpt lat="42.2946388" lon="13.9878175"><ele>132.0</ele><time>2026-05-02T07:18:31.94Z</time></trkpt><trkpt lat="42.2945774" lon="13.98761"><ele>133.0</ele><time>2026-05-02T07:18:32.941Z</time></trkpt><trkpt lat="42.2945184" lon="13.9874052"><ele>133.4</ele><time>2026-05-02T07:18:33.939Z</time></trkpt><trkpt lat="42.2944654" lon="13.9872279"><ele>133.8</ele><time>2026-05-02T07:18:34.94Z</time></trkpt><trkpt lat="42.2944252" lon="13.98709"><ele>134.2</ele><time>2026-05-02T07:18:35.941Z</time></trkpt><trkpt lat="42.2943968" lon="13.9869721"><ele>134.6</ele><time>2026-05-02T07:18:36.941Z</time></trkpt><trkpt lat="42.2943845" lon="13.9868692"><ele>135.0</ele><time>2026-05-02T07:18:37.94Z</time></trkpt><trkpt lat="42.2944086" lon="13.9867358"><ele>135.6</ele><time>2026-05-02T07:18:39.94Z</time></trkpt><trkpt lat="42.2943837" lon="13.9866237"><ele>136.2</ele><time>2026-05-02T07:18:41.941Z</time></trkpt><trkpt lat="42.2943189" lon="13.9864545"><ele>136.8</ele><time>2026-05-02T07:18:43.941Z</time></trkpt><trkpt lat="42.2942822" lon="13.9863444"><ele>137.4</ele><time>2026-05-02T07:18:44.941Z</time></trkpt><trkpt lat="42.2942463" lon="13.9862262"><ele>138.0</ele><time>2026-05-02T07:18:45.94Z</time></trkpt><trkpt lat="42.2942127" lon="13.9861072"><ele>138.0</ele><time>2026-05-02T07:18:46.94Z</time></trkpt><trkpt lat="42.2941764" lon="13.9859766"><ele>138.0</ele><time>2026-05-02T07:18:47.94Z</time></trkpt><trkpt lat="42.2941398" lon="13.9858436"><ele>138.0</ele><time>2026-05-02T07:18:48.94Z</time></trkpt><trkpt lat="42.294109" lon="13.9857212"><ele>138.0</ele><time>2026-05-02T07:18:49.939Z</time></trkpt><trkpt lat="42.2940787" lon="13.9856055"><ele>138.0</ele><time>2026-05-02T07:18:50.941Z</time></trkpt><trkpt lat="42.2940447" lon="13.9854914"><ele>138.6</ele><time>2026-05-02T07:18:51.94Z</time></trkpt><trkpt lat="42.2940098" lon="13.9853762"><ele>139.20000000000002</ele><time>2026-05-02T07:18:52.939Z</time></trkpt><trkpt lat="42.2939715" lon="13.9852545"><ele>139.8</ele><time>2026-05-02T07:18:53.941Z</time></trkpt><trkpt lat="42.2939364" lon="13.9851302"><ele>140.4</ele><time>2026-05-02T07:18:54.94Z</time></trkpt><trkpt lat="42.2939012" lon="13.9849974"><ele>141.0</ele><time>2026-05-02T07:18:55.941Z</time></trkpt><trkpt lat="42.2938678" lon="13.9848757"><ele>142.4</ele><time>2026-05-02T07:18:56.94Z</time></trkpt><trkpt lat="42.2938163" lon="13.9847614"><ele>143.8</ele><time>2026-05-02T07:18:57.941Z</time></trkpt><trkpt lat="42.2937702" lon="13.9846414"><ele>145.20000000000002</ele><time>2026-05-02T07:18:58.941Z</time></trkpt><trkpt lat="42.2937069" lon="13.984533"><ele>146.6</ele><time>2026-05-02T07:18:59.941Z</time></trkpt><trkpt lat="42.2936465" lon="13.9844306"><ele>148.0</ele><time>2026-05-02T07:19:00.94Z</time></trkpt><trkpt lat="42.2935838" lon="13.9843303"><ele>148.0</ele><time>2026-05-02T07:19:01.939Z</time></trkpt><trkpt lat="42.2935258" lon="13.9842278"><ele>148.0</ele><time>2026-05-02T07:19:02.94Z</time></trkpt><trkpt lat="42.2934596" lon="13.9841315"><ele>148.0</ele><time>2026-05-02T07:19:03.939Z</time></trkpt><trkpt lat="42.2933879" lon="13.9840402"><ele>148.0</ele><time>2026-05-02T07:19:04.941Z</time></trkpt><trkpt lat="42.2933119" lon="13.9839563"><ele>148.0</ele><time>2026-05-02T07:19:05.939Z</time></trkpt><trkpt lat="42.2932284" lon="13.9838892"><ele>148.4</ele><time>2026-05-02T07:19:06.941Z</time></trkpt><trkpt lat="42.2931445" lon="13.9838179"><ele>148.8</ele><time>2026-05-02T07:19:07.941Z</time></trkpt><trkpt lat="42.2930571" lon="13.9837401"><ele>149.2</ele><time>2026-05-02T07:19:08.941Z</time></trkpt><trkpt lat="42.2929819" lon="13.9836321"><ele>149.6</ele><time>2026-05-02T07:19:09.94Z</time></trkpt><trkpt lat="42.2929123" lon="13.9835188"><ele>150.0</ele><time>2026-05-02T07:19:10.941Z</time></trkpt><trkpt lat="42.2928452" lon="13.9833913"><ele>152.0</ele><time>2026-05-02T07:19:11.941Z</time></trkpt><trkpt lat="42.2927819" lon="13.9832657"><ele>154.0</ele><time>2026-05-02T07:19:12.941Z</time></trkpt><trkpt lat="42.2927227" lon="13.9831392"><ele>156.0</ele><time>2026-05-02T07:19:13.94Z</time></trkpt><trkpt lat="42.2926624" lon="13.9830136"><ele>158.0</ele><time>2026-05-02T07:19:14.94Z</time></trkpt><trkpt lat="42.2926017" lon="13.9828937"><ele>160.0</ele><time>2026-05-02T07:19:15.94Z</time></trkpt><trkpt lat="42.2925389" lon="13.9827809"><ele>160.0</ele><time>2026-05-02T07:19:16.94Z</time></trkpt><trkpt lat="42.2924757" lon="13.9826689"><ele>160.0</ele><time>2026-05-02T07:19:17.94Z</time></trkpt><trkpt lat="42.2924099" lon="13.9825553"><ele>160.0</ele><time>2026-05-02T07:19:18.941Z</time></trkpt><trkpt lat="42.2923436" lon="13.9824471"><ele>160.0</ele><time>2026-05-02T07:19:19.941Z</time></trkpt><trkpt lat="42.2922826" lon="13.9823489"><ele>160.0</ele><time>2026-05-02T07:19:20.939Z</time></trkpt><trkpt lat="42.2922268" lon="13.9822562"><ele>161.5</ele><time>2026-05-02T07:19:21.941Z</time></trkpt><trkpt lat="42.2921762" lon="13.9821676"><ele>163.0</ele><time>2026-05-02T07:19:22.941Z</time></trkpt><trkpt lat="42.292124" lon="13.9820848"><ele>164.5</ele><time>2026-05-02T07:19:23.941Z</time></trkpt><trkpt lat="42.2920765" lon="13.9820125"><ele>166.0</ele><time>2026-05-02T07:19:24.94Z</time></trkpt><trkpt lat="42.2920242" lon="13.9819405"><ele>167.5</ele><time>2026-05-02T07:19:25.941Z</time></trkpt><trkpt lat="42.2919687" lon="13.9818585"><ele>169.0</ele><time>2026-05-02T07:19:26.941Z</time></trkpt><trkpt lat="42.2919164" lon="13.9817752"><ele>169.0</ele><time>2026-05-02T07:19:27.94Z</time></trkpt><trkpt lat="42.2918611" lon="13.9816975"><ele>169.0</ele><time>2026-05-02T07:19:28.939Z</time></trkpt><trkpt lat="42.2918041" lon="13.9816185"><ele>169.0</ele><time>2026-05-02T07:19:29.94Z</time></trkpt><trkpt lat="42.291744" lon="13.9815364"><ele>169.0</ele><time>2026-05-02T07:19:30.941Z</time></trkpt><trkpt lat="42.2916787" lon="13.9814456"><ele>169.0</ele><time>2026-05-02T07:19:31.939Z</time></trkpt><trkpt lat="42.2916172" lon="13.9813551"><ele>169.0</ele><time>2026-05-02T07:19:32.94Z</time></trkpt><trkpt lat="42.2915642" lon="13.9812771"><ele>168.6</ele><time>2026-05-02T07:19:33.939Z</time></trkpt><trkpt lat="42.2915153" lon="13.9812104"><ele>168.2</ele><time>2026-05-02T07:19:34.941Z</time></trkpt><trkpt lat="42.2914181" lon="13.9811322"><ele>167.79999999999998</ele><time>2026-05-02T07:19:36.94Z</time></trkpt><trkpt lat="42.291308" lon="13.9811097"><ele>167.39999999999998</ele><time>2026-05-02T07:19:38.941Z</time></trkpt><trkpt lat="42.2911858" lon="13.9810793"><ele>167.0</ele><time>2026-05-02T07:19:40.941Z</time></trkpt><trkpt lat="42.2910699" lon="13.9810608"><ele>167.33333333333331</ele><time>2026-05-02T07:19:42.94Z</time></trkpt><trkpt lat="42.2910121" lon="13.981027"><ele>167.66666666666666</ele><time>2026-05-02T07:19:43.94Z</time></trkpt><trkpt lat="42.2909578" lon="13.9809636"><ele>168.0</ele><time>2026-05-02T07:19:44.939Z</time></trkpt><trkpt lat="42.2909193" lon="13.9808773"><ele>168.33333333333334</ele><time>2026-05-02T07:19:45.94Z</time></trkpt><trkpt lat="42.2908958" lon="13.980766"><ele>168.66666666666669</ele><time>2026-05-02T07:19:46.941Z</time></trkpt><trkpt lat="42.2908873" lon="13.9806277"><ele>169.0</ele><time>2026-05-02T07:19:47.941Z</time></trkpt><trkpt lat="42.2908839" lon="13.9804684"><ele>169.0</ele><time>2026-05-02T07:19:48.941Z</time></trkpt><trkpt lat="42.2908733" lon="13.9802999"><ele>169.0</ele><time>2026-05-02T07:19:49.94Z</time></trkpt><trkpt lat="42.2908437" lon="13.9801368"><ele>169.0</ele><time>2026-05-02T07:19:50.94Z</time></trkpt><trkpt lat="42.2907863" lon="13.9799845"><ele>169.0</ele><time>2026-05-02T07:19:51.94Z</time></trkpt><trkpt lat="42.2907123" lon="13.9798457"><ele>169.39999999999998</ele><time>2026-05-02T07:19:52.941Z</time></trkpt><trkpt lat="42.2906277" lon="13.9797328"><ele>169.8</ele><time>2026-05-02T07:19:53.941Z</time></trkpt><trkpt lat="42.2905346" lon="13.9796454"><ele>170.2</ele><time>2026-05-02T07:19:54.939Z</time></trkpt><trkpt lat="42.2904391" lon="13.9795734"><ele>170.60000000000002</ele><time>2026-05-02T07:19:55.941Z</time></trkpt><trkpt lat="42.2903641" lon="13.9795021"><ele>171.0</ele><time>2026-05-02T07:19:56.939Z</time></trkpt><trkpt lat="42.2903195" lon="13.9794207"><ele>173.33333333333334</ele><time>2026-05-02T07:19:57.941Z</time></trkpt><trkpt lat="42.2903024" lon="13.9793375"><ele>175.66666666666666</ele><time>2026-05-02T07:19:58.94Z</time></trkpt><trkpt lat="42.2903047" lon="13.9792471"><ele>178.0</ele><time>2026-05-02T07:19:59.939Z</time></trkpt><trkpt lat="42.2903225" lon="13.9791459"><ele>180.33333333333331</ele><time>2026-05-02T07:20:00.94Z</time></trkpt><trkpt lat="42.2903572" lon="13.9790404"><ele>182.66666666666666</ele><time>2026-05-02T07:20:01.94Z</time></trkpt><trkpt lat="42.2903942" lon="13.9789302"><ele>185.0</ele><time>2026-05-02T07:20:02.94Z</time></trkpt><trkpt lat="42.2904185" lon="13.978828"><ele>184.99999999999997</ele><time>2026-05-02T07:20:03.94Z</time></trkpt><trkpt lat="42.2904319" lon="13.9787308"><ele>185.0</ele><time>2026-05-02T07:20:04.94Z</time></trkpt><trkpt lat="42.2904086" lon="13.9786512"><ele>185.0</ele><time>2026-05-02T07:20:05.94Z</time></trkpt><trkpt lat="42.2903577" lon="13.9785945"><ele>185.0</ele><time>2026-05-02T07:20:06.94Z</time></trkpt><trkpt lat="42.2902927" lon="13.9785819"><ele>185.0</ele><time>2026-05-02T07:20:07.939Z</time></trkpt><trkpt lat="42.2902256" lon="13.978603"><ele>184.99999999999997</ele><time>2026-05-02T07:20:08.94Z</time></trkpt><trkpt lat="42.2901573" lon="13.9786569"><ele>185.0</ele><time>2026-05-02T07:20:09.939Z</time></trkpt><trkpt lat="42.2900873" lon="13.9787244"><ele>184.99999999999997</ele><time>2026-05-02T07:20:10.94Z</time></trkpt><trkpt lat="42.2900108" lon="13.9787805"><ele>185.0</ele><time>2026-05-02T07:20:11.939Z</time></trkpt><trkpt lat="42.2899405" lon="13.9788211"><ele>185.0</ele><time>2026-05-02T07:20:12.939Z</time></trkpt><trkpt lat="42.2898769" lon="13.9788508"><ele>185.0</ele><time>2026-05-02T07:20:13.94Z</time></trkpt><trkpt lat="42.2898178" lon="13.9788854"><ele>185.0</ele><time>2026-05-02T07:20:14.94Z</time></trkpt><trkpt lat="42.2897569" lon="13.97891"><ele>184.99999999999997</ele><time>2026-05-02T07:20:15.94Z</time></trkpt><trkpt lat="42.289691" lon="13.9789104"><ele>185.0</ele><time>2026-05-02T07:20:16.939Z</time></trkpt><trkpt lat="42.289631" lon="13.9788644"><ele>187.16666666666666</ele><time>2026-05-02T07:20:17.94Z</time></trkpt><trkpt lat="42.2895834" lon="13.9787824"><ele>189.33333333333331</ele><time>2026-05-02T07:20:18.94Z</time></trkpt><trkpt lat="42.2895428" lon="13.9786894"><ele>191.5</ele><time>2026-05-02T07:20:19.94Z</time></trkpt><trkpt lat="42.289517" lon="13.9785766"><ele>193.66666666666666</ele><time>2026-05-02T07:20:20.94Z</time></trkpt><trkpt lat="42.2895031" lon="13.9784623"><ele>195.83333333333334</ele><time>2026-05-02T07:20:21.939Z</time></trkpt><trkpt lat="42.2894956" lon="13.9783623"><ele>198.0</ele><time>2026-05-02T07:20:22.941Z</time></trkpt><trkpt lat="42.2894848" lon="13.9782625"><ele>198.5</ele><time>2026-05-02T07:20:23.941Z</time></trkpt><trkpt lat="42.289476" lon="13.9781745"><ele>199.0</ele><time>2026-05-02T07:20:24.94Z</time></trkpt><trkpt lat="42.2894429" lon="13.9780228"><ele>199.5</ele><time>2026-05-02T07:20:26.939Z</time></trkpt><trkpt lat="42.2893942" lon="13.9779217"><ele>200.0</ele><time>2026-05-02T07:20:28.94Z</time></trkpt><trkpt lat="42.28933" lon="13.9778789"><ele>200.5</ele><time>2026-05-02T07:20:30.94Z</time></trkpt><trkpt lat="42.289251" lon="13.9778673"><ele>201.0</ele><time>2026-05-02T07:20:32.94Z</time></trkpt><trkpt lat="42.2891823" lon="13.977872"><ele>201.0</ele><time>2026-05-02T07:20:34.941Z</time></trkpt><trkpt lat="42.2890791" lon="13.9779281"><ele>201.0</ele><time>2026-05-02T07:20:36.941Z</time></trkpt><trkpt lat="42.289018" lon="13.9779607"><ele>201.0</ele><time>2026-05-02T07:20:37.941Z</time></trkpt><trkpt lat="42.2889526" lon="13.9780021"><ele>201.0</ele><time>2026-05-02T07:20:38.94Z</time></trkpt><trkpt lat="42.2888936" lon="13.9780586"><ele>201.0</ele><time>2026-05-02T07:20:39.939Z</time></trkpt><trkpt lat="42.288844" lon="13.9781282"><ele>201.0</ele><time>2026-05-02T07:20:40.94Z</time></trkpt><trkpt lat="42.2888002" lon="13.9782026"><ele>203.16666666666666</ele><time>2026-05-02T07:20:41.94Z</time></trkpt><trkpt lat="42.2887617" lon="13.9782799"><ele>205.33333333333331</ele><time>2026-05-02T07:20:42.94Z</time></trkpt><trkpt lat="42.2887347" lon="13.9783589"><ele>207.5</ele><time>2026-05-02T07:20:43.94Z</time></trkpt><trkpt lat="42.2886835" lon="13.9785169"><ele>209.66666666666666</ele><time>2026-05-02T07:20:45.94Z</time></trkpt><trkpt lat="42.2886313" lon="13.9786187"><ele>211.83333333333331</ele><time>2026-05-02T07:20:46.94Z</time></trkpt><trkpt lat="42.288574" lon="13.978718"><ele>214.0</ele><time>2026-05-02T07:20:47.94Z</time></trkpt><trkpt lat="42.2885242" lon="13.9788039"><ele>213.99999999999997</ele><time>2026-05-02T07:20:48.94Z</time></trkpt><trkpt lat="42.2884757" lon="13.9788876"><ele>214.0</ele><time>2026-05-02T07:20:49.94Z</time></trkpt><trkpt lat="42.2884127" lon="13.9790196"><ele>214.0</ele><time>2026-05-02T07:20:51.939Z</time></trkpt><trkpt lat="42.2883966" lon="13.9791736"><ele>214.0</ele><time>2026-05-02T07:20:53.94Z</time></trkpt><trkpt lat="42.2883947" lon="13.9792671"><ele>213.99999999999997</ele><time>2026-05-02T07:20:54.939Z</time></trkpt><trkpt lat="42.2883862" lon="13.9793576"><ele>214.0</ele><time>2026-05-02T07:20:55.94Z</time></trkpt><trkpt lat="42.2883747" lon="13.9794468"><ele>214.79999999999998</ele><time>2026-05-02T07:20:56.94Z</time></trkpt><trkpt lat="42.2883658" lon="13.9795395"><ele>215.59999999999997</ele><time>2026-05-02T07:20:57.94Z</time></trkpt><trkpt lat="42.2883576" lon="13.9796883"><ele>216.4</ele><time>2026-05-02T07:20:59.94Z</time></trkpt><trkpt lat="42.2883537" lon="13.9798451"><ele>217.2</ele><time>2026-05-02T07:21:01.941Z</time></trkpt><trkpt lat="42.2883451" lon="13.9799907"><ele>218.0</ele><time>2026-05-02T07:21:03.94Z</time></trkpt><trkpt lat="42.2883434" lon="13.9801457"><ele>218.50000000000003</ele><time>2026-05-02T07:21:05.94Z</time></trkpt><trkpt lat="42.2883688" lon="13.9802241"><ele>219.0</ele><time>2026-05-02T07:21:06.94Z</time></trkpt><trkpt lat="42.2883988" lon="13.980304"><ele>219.5</ele><time>2026-05-02T07:21:07.94Z</time></trkpt><trkpt lat="42.2884319" lon="13.9803921"><ele>220.0</ele><time>2026-05-02T07:21:08.939Z</time></trkpt><trkpt lat="42.2884622" lon="13.980477"><ele>220.50000000000003</ele><time>2026-05-02T07:21:09.939Z</time></trkpt><trkpt lat="42.288482" lon="13.9805613"><ele>221.0</ele><time>2026-05-02T07:21:10.941Z</time></trkpt><trkpt lat="42.2884631" lon="13.980721"><ele>221.0</ele><time>2026-05-02T07:21:12.94Z</time></trkpt><trkpt lat="42.2883681" lon="13.980816"><ele>221.00000000000003</ele><time>2026-05-02T07:21:14.941Z</time></trkpt><trkpt lat="42.2883044" lon="13.9808251"><ele>221.00000000000003</ele><time>2026-05-02T07:21:15.94Z</time></trkpt><trkpt lat="42.2882442" lon="13.9807989"><ele>221.0</ele><time>2026-05-02T07:21:16.939Z</time></trkpt><trkpt lat="42.2881593" lon="13.9806747"><ele>221.0</ele><time>2026-05-02T07:21:18.94Z</time></trkpt><trkpt lat="42.2881133" lon="13.9805481"><ele>225.00000000000003</ele><time>2026-05-02T07:21:20.94Z</time></trkpt><trkpt lat="42.2880427" lon="13.9804988"><ele>229.0</ele><time>2026-05-02T07:21:22.94Z</time></trkpt><trkpt lat="42.2879477" lon="13.9805441"><ele>233.0</ele><time>2026-05-02T07:21:24.94Z</time></trkpt><trkpt lat="42.2878976" lon="13.9806588"><ele>237.0</ele><time>2026-05-02T07:21:26.939Z</time></trkpt><trkpt lat="42.2879112" lon="13.9807468"><ele>241.00000000000003</ele><time>2026-05-02T07:21:27.94Z</time></trkpt><trkpt lat="42.2879316" lon="13.9808362"><ele>245.0</ele><time>2026-05-02T07:21:28.94Z</time></trkpt><trkpt lat="42.2879501" lon="13.9809221"><ele>246.33333333333334</ele><time>2026-05-02T07:21:29.94Z</time></trkpt><trkpt lat="42.2879644" lon="13.9810169"><ele>247.66666666666669</ele><time>2026-05-02T07:21:30.939Z</time></trkpt><trkpt lat="42.2879772" lon="13.9811036"><ele>249.0</ele><time>2026-05-02T07:21:31.939Z</time></trkpt><trkpt lat="42.2880087" lon="13.9812389"><ele>250.33333333333331</ele><time>2026-05-02T07:21:33.941Z</time></trkpt><trkpt lat="42.2880183" lon="13.9813566"><ele>251.66666666666666</ele><time>2026-05-02T07:21:35.94Z</time></trkpt><trkpt lat="42.287964" lon="13.9814666"><ele>253.0</ele><time>2026-05-02T07:21:37.94Z</time></trkpt><trkpt lat="42.2878651" lon="13.9814623"><ele>253.0</ele><time>2026-05-02T07:21:39.939Z</time></trkpt><trkpt lat="42.2877924" lon="13.9813377"><ele>253.0</ele><time>2026-05-02T07:21:41.94Z</time></trkpt><trkpt lat="42.2877707" lon="13.9812486"><ele>253.0</ele><time>2026-05-02T07:21:42.94Z</time></trkpt><trkpt lat="42.2877192" lon="13.9811161"><ele>253.0</ele><time>2026-05-02T07:21:44.94Z</time></trkpt><trkpt lat="42.2876253" lon="13.981046"><ele>253.0</ele><time>2026-05-02T07:21:46.94Z</time></trkpt><trkpt lat="42.2875602" lon="13.9810202"><ele>252.99999999999997</ele><time>2026-05-02T07:21:47.94Z</time></trkpt><trkpt lat="42.2874901" lon="13.980999"><ele>253.0</ele><time>2026-05-02T07:21:48.94Z</time></trkpt><trkpt lat="42.287416" lon="13.9809903"><ele>253.0</ele><time>2026-05-02T07:21:49.94Z</time></trkpt><trkpt lat="42.2873468" lon="13.9809879"><ele>253.0</ele><time>2026-05-02T07:21:50.94Z</time></trkpt><trkpt lat="42.287269" lon="13.9809691"><ele>252.99999999999997</ele><time>2026-05-02T07:21:51.94Z</time></trkpt><trkpt lat="42.2871851" lon="13.98094"><ele>253.0</ele><time>2026-05-02T07:21:52.94Z</time></trkpt><trkpt lat="42.2871171" lon="13.9809178"><ele>253.66666666666666</ele><time>2026-05-02T07:21:53.94Z</time></trkpt><trkpt lat="42.2870173" lon="13.9808462"><ele>254.33333333333331</ele><time>2026-05-02T07:21:55.94Z</time></trkpt><trkpt lat="42.2869604" lon="13.9807078"><ele>255.0</ele><time>2026-05-02T07:21:57.94Z</time></trkpt><trkpt lat="42.2869543" lon="13.9806145"><ele>255.66666666666669</ele><time>2026-05-02T07:21:58.941Z</time></trkpt><trkpt lat="42.2869567" lon="13.9805151"><ele>256.33333333333337</ele><time>2026-05-02T07:21:59.941Z</time></trkpt><trkpt lat="42.2869649" lon="13.9804159"><ele>257.0</ele><time>2026-05-02T07:22:00.94Z</time></trkpt><trkpt lat="42.2869762" lon="13.9803219"><ele>257.0</ele><time>2026-05-02T07:22:01.94Z</time></trkpt><trkpt lat="42.2869848" lon="13.9802244"><ele>257.0</ele><time>2026-05-02T07:22:02.941Z</time></trkpt><trkpt lat="42.2869834" lon="13.9801231"><ele>257.0</ele><time>2026-05-02T07:22:03.94Z</time></trkpt><trkpt lat="42.28698" lon="13.9800199"><ele>257.0</ele><time>2026-05-02T07:22:04.94Z</time></trkpt><trkpt lat="42.2869702" lon="13.979927"><ele>257.0</ele><time>2026-05-02T07:22:05.94Z</time></trkpt><trkpt lat="42.2869527" lon="13.9798395"><ele>257.0</ele><time>2026-05-02T07:22:06.94Z</time></trkpt><trkpt lat="42.2869258" lon="13.9797574"><ele>257.0</ele><time>2026-05-02T07:22:07.94Z</time></trkpt><trkpt lat="42.2868914" lon="13.9796807"><ele>257.1428571428571</ele><time>2026-05-02T07:22:08.939Z</time></trkpt><trkpt lat="42.2868613" lon="13.9795932"><ele>257.2857142857143</ele><time>2026-05-02T07:22:09.94Z</time></trkpt><trkpt lat="42.2868461" lon="13.979497"><ele>257.42857142857144</ele><time>2026-05-02T07:22:10.941Z</time></trkpt><trkpt lat="42.2868393" lon="13.9793987"><ele>257.57142857142856</ele><time>2026-05-02T07:22:11.94Z</time></trkpt><trkpt lat="42.2868301" lon="13.9792935"><ele>257.7142857142857</ele><time>2026-05-02T07:22:12.939Z</time></trkpt><trkpt lat="42.2868249" lon="13.9791957"><ele>257.85714285714283</ele><time>2026-05-02T07:22:13.94Z</time></trkpt><trkpt lat="42.2868139" lon="13.9790956"><ele>258.0</ele><time>2026-05-02T07:22:14.941Z</time></trkpt><trkpt lat="42.2868021" lon="13.9789942"><ele>257.6666666666667</ele><time>2026-05-02T07:22:15.941Z</time></trkpt><trkpt lat="42.2867907" lon="13.9788927"><ele>257.3333333333333</ele><time>2026-05-02T07:22:16.941Z</time></trkpt><trkpt lat="42.2867748" lon="13.9787994"><ele>257.0</ele><time>2026-05-02T07:22:17.94Z</time></trkpt><trkpt lat="42.2867532" lon="13.9787006"><ele>256.66666666666663</ele><time>2026-05-02T07:22:18.939Z</time></trkpt><trkpt lat="42.2867243" lon="13.9785987"><ele>256.3333333333333</ele><time>2026-05-02T07:22:19.939Z</time></trkpt><trkpt lat="42.286686" lon="13.9785015"><ele>256.0</ele><time>2026-05-02T07:22:20.94Z</time></trkpt><trkpt lat="42.2866476" lon="13.9784013"><ele>256.2</ele><time>2026-05-02T07:22:21.94Z</time></trkpt><trkpt lat="42.2865971" lon="13.9783142"><ele>256.40000000000003</ele><time>2026-05-02T07:22:22.939Z</time></trkpt><trkpt lat="42.2865379" lon="13.978223"><ele>256.6</ele><time>2026-05-02T07:22:23.939Z</time></trkpt><trkpt lat="42.2864633" lon="13.9781405"><ele>256.8</ele><time>2026-05-02T07:22:24.939Z</time></trkpt><trkpt lat="42.2863899" lon="13.9780608"><ele>257.0</ele><time>2026-05-02T07:22:25.94Z</time></trkpt><trkpt lat="42.2863109" lon="13.9779735"><ele>258.4</ele><time>2026-05-02T07:22:26.94Z</time></trkpt><trkpt lat="42.2862367" lon="13.9778799"><ele>259.79999999999995</ele><time>2026-05-02T07:22:27.94Z</time></trkpt><trkpt lat="42.286173" lon="13.9777856"><ele>261.2</ele><time>2026-05-02T07:22:28.94Z</time></trkpt><trkpt lat="42.2861151" lon="13.9776774"><ele>262.59999999999997</ele><time>2026-05-02T07:22:29.94Z</time></trkpt><trkpt lat="42.2860614" lon="13.9775561"><ele>264.0</ele><time>2026-05-02T07:22:30.939Z</time></trkpt><trkpt lat="42.286009" lon="13.9774478"><ele>264.0</ele><time>2026-05-02T07:22:31.941Z</time></trkpt><trkpt lat="42.2859451" lon="13.9773489"><ele>264.0</ele><time>2026-05-02T07:22:32.94Z</time></trkpt><trkpt lat="42.2858802" lon="13.9772498"><ele>264.0</ele><time>2026-05-02T07:22:33.94Z</time></trkpt><trkpt lat="42.2857937" lon="13.9771429"><ele>264.0</ele><time>2026-05-02T07:22:34.94Z</time></trkpt><trkpt lat="42.2857058" lon="13.9770793"><ele>264.0</ele><time>2026-05-02T07:22:35.94Z</time></trkpt><trkpt lat="42.2856173" lon="13.9770161"><ele>265.0</ele><time>2026-05-02T07:22:36.939Z</time></trkpt><trkpt lat="42.2855288" lon="13.976947"><ele>266.0</ele><time>2026-05-02T07:22:37.939Z</time></trkpt><trkpt lat="42.28545" lon="13.9768742"><ele>267.0</ele><time>2026-05-02T07:22:38.94Z</time></trkpt><trkpt lat="42.2853969" lon="13.9767849"><ele>268.0</ele><time>2026-05-02T07:22:39.939Z</time></trkpt><trkpt lat="42.2853547" lon="13.9767041"><ele>269.0</ele><time>2026-05-02T07:22:40.94Z</time></trkpt><trkpt lat="42.2853428" lon="13.9765205"><ele>269.0</ele><time>2026-05-02T07:22:42.94Z</time></trkpt><trkpt lat="42.2853655" lon="13.9764017"><ele>269.0</ele><time>2026-05-02T07:22:43.94Z</time></trkpt><trkpt lat="42.2853919" lon="13.9762805"><ele>269.0</ele><time>2026-05-02T07:22:44.939Z</time></trkpt><trkpt lat="42.2854133" lon="13.9761429"><ele>269.0</ele><time>2026-05-02T07:22:45.939Z</time></trkpt><trkpt lat="42.2854243" lon="13.9760133"><ele>269.0</ele><time>2026-05-02T07:22:46.939Z</time></trkpt><trkpt lat="42.2854285" lon="13.9758739"><ele>270.25</ele><time>2026-05-02T07:22:47.94Z</time></trkpt><trkpt lat="42.2854094" lon="13.9757188"><ele>271.5</ele><time>2026-05-02T07:22:48.941Z</time></trkpt><trkpt lat="42.2853921" lon="13.9755588"><ele>272.75</ele><time>2026-05-02T07:22:49.94Z</time></trkpt><trkpt lat="42.2853679" lon="13.9753935"><ele>274.0</ele><time>2026-05-02T07:22:50.939Z</time></trkpt><trkpt lat="42.2853412" lon="13.9752464"><ele>274.0</ele><time>2026-05-02T07:22:51.939Z</time></trkpt><trkpt lat="42.2853092" lon="13.9750946"><ele>274.0</ele><time>2026-05-02T07:22:52.94Z</time></trkpt><trkpt lat="42.2852712" lon="13.974954"><ele>274.0</ele><time>2026-05-02T07:22:53.939Z</time></trkpt><trkpt lat="42.2852153" lon="13.974817"><ele>274.0</ele><time>2026-05-02T07:22:54.94Z</time></trkpt><trkpt lat="42.2851566" lon="13.974682"><ele>274.4</ele><time>2026-05-02T07:22:55.94Z</time></trkpt><trkpt lat="42.2850955" lon="13.9745575"><ele>274.79999999999995</ele><time>2026-05-02T07:22:56.941Z</time></trkpt><trkpt lat="42.2850431" lon="13.9744393"><ele>275.20000000000005</ele><time>2026-05-02T07:22:57.94Z</time></trkpt><trkpt lat="42.2849868" lon="13.9743199"><ele>275.6</ele><time>2026-05-02T07:22:58.94Z</time></trkpt><trkpt lat="42.2849358" lon="13.9742057"><ele>276.0</ele><time>2026-05-02T07:22:59.94Z</time></trkpt><trkpt lat="42.2848829" lon="13.9740887"><ele>276.1666666666667</ele><time>2026-05-02T07:23:00.939Z</time></trkpt><trkpt lat="42.2848382" lon="13.9739805"><ele>276.3333333333333</ele><time>2026-05-02T07:23:01.94Z</time></trkpt><trkpt lat="42.284798" lon="13.9738906"><ele>276.5</ele><time>2026-05-02T07:23:02.94Z</time></trkpt><trkpt lat="42.2847576" lon="13.9738034"><ele>276.66666666666663</ele><time>2026-05-02T07:23:03.94Z</time></trkpt><trkpt lat="42.2847274" lon="13.9737112"><ele>276.8333333333333</ele><time>2026-05-02T07:23:04.94Z</time></trkpt><trkpt lat="42.2846964" lon="13.9736207"><ele>277.0</ele><time>2026-05-02T07:23:05.94Z</time></trkpt><trkpt lat="42.2846599" lon="13.9735223"><ele>278.8333333333333</ele><time>2026-05-02T07:23:06.94Z</time></trkpt><trkpt lat="42.2846208" lon="13.9734274"><ele>280.66666666666663</ele><time>2026-05-02T07:23:07.94Z</time></trkpt><trkpt lat="42.2845776" lon="13.9733245"><ele>282.5</ele><time>2026-05-02T07:23:08.94Z</time></trkpt><trkpt lat="42.2845275" lon="13.9732316"><ele>284.3333333333333</ele><time>2026-05-02T07:23:09.94Z</time></trkpt><trkpt lat="42.2844614" lon="13.9731429"><ele>286.1666666666667</ele><time>2026-05-02T07:23:10.939Z</time></trkpt><trkpt lat="42.2843924" lon="13.9730693"><ele>288.0</ele><time>2026-05-02T07:23:11.94Z</time></trkpt><trkpt lat="42.2843164" lon="13.9730039"><ele>288.6</ele><time>2026-05-02T07:23:12.94Z</time></trkpt><trkpt lat="42.2842278" lon="13.9729397"><ele>289.20000000000005</ele><time>2026-05-02T07:23:13.939Z</time></trkpt><trkpt lat="42.2841469" lon="13.9728843"><ele>289.8</ele><time>2026-05-02T07:23:14.94Z</time></trkpt><trkpt lat="42.2840641" lon="13.9728293"><ele>290.40000000000003</ele><time>2026-05-02T07:23:15.941Z</time></trkpt><trkpt lat="42.283978" lon="13.9727759"><ele>291.0</ele><time>2026-05-02T07:23:16.94Z</time></trkpt><trkpt lat="42.2838914" lon="13.9727261"><ele>291.40000000000003</ele><time>2026-05-02T07:23:17.938Z</time></trkpt><trkpt lat="42.2838062" lon="13.9726787"><ele>291.8</ele><time>2026-05-02T07:23:18.94Z</time></trkpt><trkpt lat="42.2837132" lon="13.97264"><ele>292.20000000000005</ele><time>2026-05-02T07:23:19.94Z</time></trkpt><trkpt lat="42.2836296" lon="13.972592"><ele>292.6</ele><time>2026-05-02T07:23:20.94Z</time></trkpt><trkpt lat="42.2835413" lon="13.9725474"><ele>293.0</ele><time>2026-05-02T07:23:21.939Z</time></trkpt><trkpt lat="42.2834499" lon="13.9725168"><ele>293.0</ele><time>2026-05-02T07:23:22.94Z</time></trkpt><trkpt lat="42.283352" lon="13.972508"><ele>293.0</ele><time>2026-05-02T07:23:23.94Z</time></trkpt><trkpt lat="42.2832627" lon="13.972505"><ele>293.0</ele><time>2026-05-02T07:23:24.94Z</time></trkpt><trkpt lat="42.2831877" lon="13.9724795"><ele>293.0</ele><time>2026-05-02T07:23:25.94Z</time></trkpt><trkpt lat="42.2831283" lon="13.9724264"><ele>293.0</ele><time>2026-05-02T07:23:26.94Z</time></trkpt><trkpt lat="42.2830825" lon="13.9723579"><ele>293.0</ele><time>2026-05-02T07:23:27.939Z</time></trkpt><trkpt lat="42.2830172" lon="13.972237"><ele>294.6</ele><time>2026-05-02T07:23:29.94Z</time></trkpt><trkpt lat="42.2829744" lon="13.97216"><ele>296.20000000000005</ele><time>2026-05-02T07:23:31.939Z</time></trkpt><trkpt lat="42.2829274" lon="13.9720784"><ele>297.8</ele><time>2026-05-02T07:23:39.941Z</time></trkpt><trkpt lat="42.282912" lon="13.9719627"><ele>299.40000000000003</ele><time>2026-05-02T07:23:42.941Z</time></trkpt><trkpt lat="42.2829727" lon="13.9718315"><ele>301.0</ele><time>2026-05-02T07:23:44.94Z</time></trkpt><trkpt lat="42.2830331" lon="13.9717183"><ele>301.2</ele><time>2026-05-02T07:23:45.94Z</time></trkpt><trkpt lat="42.2830773" lon="13.9716068"><ele>301.40000000000003</ele><time>2026-05-02T07:23:46.939Z</time></trkpt><trkpt lat="42.2831139" lon="13.9714868"><ele>301.6</ele><time>2026-05-02T07:23:47.94Z</time></trkpt><trkpt lat="42.2831479" lon="13.9713533"><ele>301.8</ele><time>2026-05-02T07:23:48.94Z</time></trkpt><trkpt lat="42.2831956" lon="13.9712279"><ele>302.0</ele><time>2026-05-02T07:23:49.941Z</time></trkpt><trkpt lat="42.283247" lon="13.9711252"><ele>299.8</ele><time>2026-05-02T07:23:50.939Z</time></trkpt><trkpt lat="42.2833227" lon="13.9710366"><ele>297.6</ele><time>2026-05-02T07:23:51.94Z</time></trkpt><trkpt lat="42.2833996" lon="13.970949"><ele>295.40000000000003</ele><time>2026-05-02T07:23:52.94Z</time></trkpt><trkpt lat="42.2834872" lon="13.970844"><ele>293.2</ele><time>2026-05-02T07:23:53.94Z</time></trkpt><trkpt lat="42.2835783" lon="13.9707433"><ele>291.0</ele><time>2026-05-02T07:23:54.94Z</time></trkpt><trkpt lat="42.2836655" lon="13.9706508"><ele>290.8</ele><time>2026-05-02T07:23:55.939Z</time></trkpt><trkpt lat="42.2837548" lon="13.9705789"><ele>290.6</ele><time>2026-05-02T07:23:56.94Z</time></trkpt><trkpt lat="42.283848" lon="13.9705457"><ele>290.4</ele><time>2026-05-02T07:23:57.941Z</time></trkpt><trkpt lat="42.2839484" lon="13.9705368"><ele>290.2</ele><time>2026-05-02T07:23:58.94Z</time></trkpt><trkpt lat="42.2840556" lon="13.9705281"><ele>290.0</ele><time>2026-05-02T07:23:59.94Z</time></trkpt><trkpt lat="42.2841735" lon="13.9705226"><ele>289.25</ele><time>2026-05-02T07:24:00.94Z</time></trkpt><trkpt lat="42.2843025" lon="13.9705003"><ele>288.5</ele><time>2026-05-02T07:24:01.94Z</time></trkpt><trkpt lat="42.2844336" lon="13.9704731"><ele>287.75</ele><time>2026-05-02T07:24:02.94Z</time></trkpt><trkpt lat="42.284566" lon="13.9704406"><ele>287.0</ele><time>2026-05-02T07:24:03.939Z</time></trkpt><trkpt lat="42.2847023" lon="13.9704065"><ele>287.25</ele><time>2026-05-02T07:24:04.939Z</time></trkpt><trkpt lat="42.2848313" lon="13.9703642"><ele>287.5</ele><time>2026-05-02T07:24:05.939Z</time></trkpt><trkpt lat="42.2849461" lon="13.9703174"><ele>287.75</ele><time>2026-05-02T07:24:06.941Z</time></trkpt><trkpt lat="42.285066" lon="13.970273"><ele>288.0</ele><time>2026-05-02T07:24:07.939Z</time></trkpt><trkpt lat="42.2851609" lon="13.9702339"><ele>288.0</ele><time>2026-05-02T07:24:08.941Z</time></trkpt><trkpt lat="42.2852464" lon="13.9701827"><ele>288.0</ele><time>2026-05-02T07:24:09.94Z</time></trkpt><trkpt lat="42.2853121" lon="13.9701096"><ele>288.0</ele><time>2026-05-02T07:24:10.939Z</time></trkpt><trkpt lat="42.2853744" lon="13.9700213"><ele>288.0</ele><time>2026-05-02T07:24:11.94Z</time></trkpt><trkpt lat="42.2854338" lon="13.9698969"><ele>288.0</ele><time>2026-05-02T07:24:12.94Z</time></trkpt><trkpt lat="42.2854925" lon="13.9697685"><ele>288.0</ele><time>2026-05-02T07:24:13.94Z</time></trkpt><trkpt lat="42.2855566" lon="13.9696277"><ele>288.0</ele><time>2026-05-02T07:24:14.939Z</time></trkpt><trkpt lat="42.2856104" lon="13.9694888"><ele>288.0</ele><time>2026-05-02T07:24:15.941Z</time></trkpt><trkpt lat="42.2856624" lon="13.9693548"><ele>288.0</ele><time>2026-05-02T07:24:16.94Z</time></trkpt><trkpt lat="42.2857106" lon="13.9692261"><ele>289.3333333333333</ele><time>2026-05-02T07:24:17.94Z</time></trkpt><trkpt lat="42.2857455" lon="13.9691172"><ele>290.6666666666667</ele><time>2026-05-02T07:24:18.939Z</time></trkpt><trkpt lat="42.28578" lon="13.9690005"><ele>292.0</ele><time>2026-05-02T07:24:19.939Z</time></trkpt><trkpt lat="42.2858194" lon="13.9688899"><ele>293.33333333333337</ele><time>2026-05-02T07:24:20.94Z</time></trkpt><trkpt lat="42.2858595" lon="13.9687853"><ele>294.6666666666667</ele><time>2026-05-02T07:24:21.94Z</time></trkpt><trkpt lat="42.2859116" lon="13.9686911"><ele>296.0</ele><time>2026-05-02T07:24:22.94Z</time></trkpt><trkpt lat="42.2859835" lon="13.9686042"><ele>296.0</ele><time>2026-05-02T07:24:23.941Z</time></trkpt><trkpt lat="42.2860693" lon="13.9685047"><ele>296.0</ele><time>2026-05-02T07:24:24.94Z</time></trkpt><trkpt lat="42.2861476" lon="13.9683935"><ele>296.0</ele><time>2026-05-02T07:24:25.939Z</time></trkpt><trkpt lat="42.2862196" lon="13.9682797"><ele>296.0</ele><time>2026-05-02T07:24:26.94Z</time></trkpt><trkpt lat="42.2862917" lon="13.9681552"><ele>297.2</ele><time>2026-05-02T07:24:27.94Z</time></trkpt><trkpt lat="42.2863616" lon="13.9680326"><ele>298.40000000000003</ele><time>2026-05-02T07:24:28.94Z</time></trkpt><trkpt lat="42.2864257" lon="13.9679092"><ele>299.6</ele><time>2026-05-02T07:24:29.94Z</time></trkpt><trkpt lat="42.2864879" lon="13.9677903"><ele>300.8</ele><time>2026-05-02T07:24:30.94Z</time></trkpt><trkpt lat="42.2865446" lon="13.9676754"><ele>302.0</ele><time>2026-05-02T07:24:31.94Z</time></trkpt><trkpt lat="42.2866107" lon="13.9675581"><ele>300.8</ele><time>2026-05-02T07:24:32.939Z</time></trkpt><trkpt lat="42.2866756" lon="13.9674448"><ele>299.6</ele><time>2026-05-02T07:24:33.94Z</time></trkpt><trkpt lat="42.2867461" lon="13.9673283"><ele>298.40000000000003</ele><time>2026-05-02T07:24:34.94Z</time></trkpt><trkpt lat="42.2868128" lon="13.9672337"><ele>297.2</ele><time>2026-05-02T07:24:35.941Z</time></trkpt><trkpt lat="42.286872" lon="13.9671391"><ele>296.0</ele><time>2026-05-02T07:24:36.939Z</time></trkpt><trkpt lat="42.2869231" lon="13.9670371"><ele>296.0</ele><time>2026-05-02T07:24:37.94Z</time></trkpt><trkpt lat="42.2869649" lon="13.9669319"><ele>296.0</ele><time>2026-05-02T07:24:38.939Z</time></trkpt><trkpt lat="42.2869884" lon="13.9668145"><ele>296.0</ele><time>2026-05-02T07:24:39.939Z</time></trkpt><trkpt lat="42.2869901" lon="13.9666873"><ele>296.0</ele><time>2026-05-02T07:24:40.94Z</time></trkpt><trkpt lat="42.2869692" lon="13.9665525"><ele>296.0</ele><time>2026-05-02T07:24:41.94Z</time></trkpt><trkpt lat="42.2869335" lon="13.9664189"><ele>298.75</ele><time>2026-05-02T07:24:42.94Z</time></trkpt><trkpt lat="42.2868932" lon="13.9662808"><ele>301.5</ele><time>2026-05-02T07:24:43.94Z</time></trkpt><trkpt lat="42.28685" lon="13.9661332"><ele>304.25</ele><time>2026-05-02T07:24:44.94Z</time></trkpt><trkpt lat="42.2868071" lon="13.9659882"><ele>307.0</ele><time>2026-05-02T07:24:45.94Z</time></trkpt><trkpt lat="42.2867631" lon="13.9658436"><ele>308.25</ele><time>2026-05-02T07:24:46.941Z</time></trkpt><trkpt lat="42.2867171" lon="13.965688"><ele>309.5</ele><time>2026-05-02T07:24:47.939Z</time></trkpt><trkpt lat="42.2866665" lon="13.9655245"><ele>310.75</ele><time>2026-05-02T07:24:48.94Z</time></trkpt><trkpt lat="42.2866228" lon="13.9653629"><ele>312.0</ele><time>2026-05-02T07:24:49.939Z</time></trkpt><trkpt lat="42.2865872" lon="13.9652204"><ele>312.0</ele><time>2026-05-02T07:24:50.94Z</time></trkpt><trkpt lat="42.2865612" lon="13.9650723"><ele>312.0</ele><time>2026-05-02T07:24:51.94Z</time></trkpt><trkpt lat="42.2865535" lon="13.9649107"><ele>312.0</ele><time>2026-05-02T07:24:52.94Z</time></trkpt><trkpt lat="42.2865548" lon="13.9647414"><ele>312.0</ele><time>2026-05-02T07:24:53.94Z</time></trkpt><trkpt lat="42.2865616" lon="13.964583"><ele>312.2</ele><time>2026-05-02T07:24:54.94Z</time></trkpt><trkpt lat="42.286573" lon="13.9644325"><ele>312.4</ele><time>2026-05-02T07:24:55.94Z</time></trkpt><trkpt lat="42.2866047" lon="13.964317"><ele>312.6</ele><time>2026-05-02T07:24:56.94Z</time></trkpt><trkpt lat="42.2866431" lon="13.9641876"><ele>312.8</ele><time>2026-05-02T07:24:57.939Z</time></trkpt><trkpt lat="42.2867061" lon="13.9640712"><ele>313.0</ele><time>2026-05-02T07:24:58.94Z</time></trkpt><trkpt lat="42.2867725" lon="13.9639757"><ele>313.3333333333333</ele><time>2026-05-02T07:24:59.939Z</time></trkpt><trkpt lat="42.2868321" lon="13.9638842"><ele>313.66666666666663</ele><time>2026-05-02T07:25:00.94Z</time></trkpt><trkpt lat="42.2868741" lon="13.9637908"><ele>314.0</ele><time>2026-05-02T07:25:01.939Z</time></trkpt><trkpt lat="42.2869047" lon="13.9636853"><ele>314.3333333333333</ele><time>2026-05-02T07:25:02.94Z</time></trkpt><trkpt lat="42.2869178" lon="13.9635677"><ele>314.6666666666667</ele><time>2026-05-02T07:25:03.941Z</time></trkpt><trkpt lat="42.2869033" lon="13.9634556"><ele>315.0</ele><time>2026-05-02T07:25:04.94Z</time></trkpt><trkpt lat="42.2868705" lon="13.9633469"><ele>314.0</ele><time>2026-05-02T07:25:05.94Z</time></trkpt><trkpt lat="42.2868222" lon="13.9632428"><ele>313.0</ele><time>2026-05-02T07:25:06.94Z</time></trkpt><trkpt lat="42.2867665" lon="13.9631209"><ele>312.0</ele><time>2026-05-02T07:25:07.941Z</time></trkpt><trkpt lat="42.2867105" lon="13.9629875"><ele>311.0</ele><time>2026-05-02T07:25:08.941Z</time></trkpt><trkpt lat="42.2866579" lon="13.9628396"><ele>310.0</ele><time>2026-05-02T07:25:09.94Z</time></trkpt><trkpt lat="42.2866038" lon="13.9626824"><ele>310.0</ele><time>2026-05-02T07:25:10.94Z</time></trkpt><trkpt lat="42.2865509" lon="13.9625252"><ele>310.0</ele><time>2026-05-02T07:25:11.94Z</time></trkpt><trkpt lat="42.2864991" lon="13.9623744"><ele>310.0</ele><time>2026-05-02T07:25:12.938Z</time></trkpt><trkpt lat="42.2864526" lon="13.9622284"><ele>310.0</ele><time>2026-05-02T07:25:13.94Z</time></trkpt><trkpt lat="42.2864042" lon="13.9620815"><ele>310.0</ele><time>2026-05-02T07:25:14.94Z</time></trkpt><trkpt lat="42.2863554" lon="13.9619361"><ele>310.0</ele><time>2026-05-02T07:25:15.94Z</time></trkpt><trkpt lat="42.2863089" lon="13.9617913"><ele>310.0</ele><time>2026-05-02T07:25:16.939Z</time></trkpt><trkpt lat="42.2862569" lon="13.9616496"><ele>310.0</ele><time>2026-05-02T07:25:17.939Z</time></trkpt><trkpt lat="42.2862119" lon="13.961514"><ele>309.2</ele><time>2026-05-02T07:25:18.939Z</time></trkpt><trkpt lat="42.2861726" lon="13.9613846"><ele>308.4</ele><time>2026-05-02T07:25:19.939Z</time></trkpt><trkpt lat="42.2861525" lon="13.9612416"><ele>307.6</ele><time>2026-05-02T07:25:20.94Z</time></trkpt><trkpt lat="42.2861309" lon="13.9610893"><ele>306.8</ele><time>2026-05-02T07:25:21.94Z</time></trkpt><trkpt lat="42.2861182" lon="13.960941"><ele>306.0</ele><time>2026-05-02T07:25:22.94Z</time></trkpt><trkpt lat="42.286122" lon="13.960779"><ele>305.5</ele><time>2026-05-02T07:25:23.94Z</time></trkpt><trkpt lat="42.2861388" lon="13.9606147"><ele>305.0</ele><time>2026-05-02T07:25:24.94Z</time></trkpt><trkpt lat="42.2861625" lon="13.9604517"><ele>304.5</ele><time>2026-05-02T07:25:25.939Z</time></trkpt><trkpt lat="42.2861917" lon="13.9603032"><ele>304.0</ele><time>2026-05-02T07:25:26.939Z</time></trkpt><trkpt lat="42.2862121" lon="13.9601738"><ele>304.0</ele><time>2026-05-02T07:25:27.938Z</time></trkpt><trkpt lat="42.2862276" lon="13.96008"><ele>304.0</ele><time>2026-05-02T07:25:28.94Z</time></trkpt><trkpt lat="42.2862427" lon="13.9599618"><ele>304.0</ele><time>2026-05-02T07:25:30.94Z</time></trkpt><trkpt lat="42.286238" lon="13.9598619"><ele>304.0</ele><time>2026-05-02T07:25:34.94Z</time></trkpt><trkpt lat="42.2862438" lon="13.9597771"><ele>304.0</ele><time>2026-05-02T07:25:50.94Z</time></trkpt><trkpt lat="42.2862645" lon="13.9596594"><ele>304.0</ele><time>2026-05-02T07:25:53.938Z</time></trkpt><trkpt lat="42.2862618" lon="13.9595045"><ele>304.0</ele><time>2026-05-02T07:25:55.939Z</time></trkpt><trkpt lat="42.2862531" lon="13.9594183"><ele>304.0</ele><time>2026-05-02T07:25:56.941Z</time></trkpt><trkpt lat="42.2862263" lon="13.9593147"><ele>304.0</ele><time>2026-05-02T07:25:57.939Z</time></trkpt><trkpt lat="42.286191" lon="13.9592142"><ele>304.0</ele><time>2026-05-02T07:25:58.939Z</time></trkpt><trkpt lat="42.2861468" lon="13.9591205"><ele>304.0</ele><time>2026-05-02T07:25:59.939Z</time></trkpt><trkpt lat="42.286094" lon="13.959042"><ele>304.0</ele><time>2026-05-02T07:26:00.94Z</time></trkpt><trkpt lat="42.2860448" lon="13.9589686"><ele>302.66666666666663</ele><time>2026-05-02T07:26:01.94Z</time></trkpt><trkpt lat="42.2860001" lon="13.9589053"><ele>301.3333333333333</ele><time>2026-05-02T07:26:02.94Z</time></trkpt><trkpt lat="42.2859505" lon="13.9588409"><ele>300.0</ele><time>2026-05-02T07:26:03.94Z</time></trkpt><trkpt lat="42.2858996" lon="13.9587786"><ele>298.6666666666667</ele><time>2026-05-02T07:26:04.939Z</time></trkpt><trkpt lat="42.2858517" lon="13.9587228"><ele>297.33333333333337</ele><time>2026-05-02T07:26:05.94Z</time></trkpt><trkpt lat="42.2857707" lon="13.958605"><ele>296.0</ele><time>2026-05-02T07:26:07.94Z</time></trkpt><trkpt lat="42.2856915" lon="13.9584922"><ele>296.0</ele><time>2026-05-02T07:26:09.94Z</time></trkpt><trkpt lat="42.2856455" lon="13.9583828"><ele>296.0</ele><time>2026-05-02T07:26:11.939Z</time></trkpt><trkpt lat="42.2856126" lon="13.9582717"><ele>296.0</ele><time>2026-05-02T07:26:13.939Z</time></trkpt><trkpt lat="42.2855531" lon="13.9582085"><ele>296.0</ele><time>2026-05-02T07:26:14.94Z</time></trkpt><trkpt lat="42.2854895" lon="13.958151"><ele>296.0</ele><time>2026-05-02T07:26:15.94Z</time></trkpt><trkpt lat="42.2854053" lon="13.9581086"><ele>296.0</ele><time>2026-05-02T07:26:16.939Z</time></trkpt><trkpt lat="42.2853303" lon="13.9580794"><ele>295.40000000000003</ele><time>2026-05-02T07:26:17.94Z</time></trkpt><trkpt lat="42.2852473" lon="13.9580491"><ele>294.8</ele><time>2026-05-02T07:26:18.94Z</time></trkpt><trkpt lat="42.2851723" lon="13.9579916"><ele>294.20000000000005</ele><time>2026-05-02T07:26:19.94Z</time></trkpt><trkpt lat="42.2850885" lon="13.9579397"><ele>293.6</ele><time>2026-05-02T07:26:20.939Z</time></trkpt><trkpt lat="42.2850029" lon="13.9578811"><ele>293.0</ele><time>2026-05-02T07:26:21.941Z</time></trkpt><trkpt lat="42.2849193" lon="13.9578322"><ele>293.0</ele><time>2026-05-02T07:26:22.939Z</time></trkpt><trkpt lat="42.2848296" lon="13.9577822"><ele>293.0</ele><time>2026-05-02T07:26:23.94Z</time></trkpt><trkpt lat="42.2847319" lon="13.9577249"><ele>293.0</ele><time>2026-05-02T07:26:24.939Z</time></trkpt><trkpt lat="42.2846317" lon="13.9576628"><ele>293.0</ele><time>2026-05-02T07:26:25.939Z</time></trkpt><trkpt lat="42.2845307" lon="13.9575936"><ele>293.0</ele><time>2026-05-02T07:26:26.94Z</time></trkpt><trkpt lat="42.2844276" lon="13.9575221"><ele>291.0</ele><time>2026-05-02T07:26:27.94Z</time></trkpt><trkpt lat="42.284328" lon="13.9574399"><ele>289.0</ele><time>2026-05-02T07:26:28.94Z</time></trkpt><trkpt lat="42.2842345" lon="13.9573536"><ele>287.0</ele><time>2026-05-02T07:26:29.941Z</time></trkpt><trkpt lat="42.2841459" lon="13.9572529"><ele>285.0</ele><time>2026-05-02T07:26:30.94Z</time></trkpt><trkpt lat="42.2840647" lon="13.9571448"><ele>285.0</ele><time>2026-05-02T07:26:31.941Z</time></trkpt><trkpt lat="42.2839807" lon="13.9570313"><ele>285.0</ele><time>2026-05-02T07:26:32.94Z</time></trkpt><trkpt lat="42.283896" lon="13.9569197"><ele>285.0</ele><time>2026-05-02T07:26:33.94Z</time></trkpt><trkpt lat="42.2838069" lon="13.9568066"><ele>285.0</ele><time>2026-05-02T07:26:34.94Z</time></trkpt><trkpt lat="42.2837186" lon="13.9566928"><ele>283.0</ele><time>2026-05-02T07:26:35.94Z</time></trkpt><trkpt lat="42.283634" lon="13.9565725"><ele>281.0</ele><time>2026-05-02T07:26:36.94Z</time></trkpt><trkpt lat="42.2835512" lon="13.9564494"><ele>279.0</ele><time>2026-05-02T07:26:37.94Z</time></trkpt><trkpt lat="42.2834706" lon="13.9563251"><ele>277.0</ele><time>2026-05-02T07:26:38.939Z</time></trkpt><trkpt lat="42.2833894" lon="13.9561984"><ele>277.0</ele><time>2026-05-02T07:26:39.941Z</time></trkpt><trkpt lat="42.2833032" lon="13.9560794"><ele>277.0</ele><time>2026-05-02T07:26:40.939Z</time></trkpt><trkpt lat="42.2832087" lon="13.9559634"><ele>277.0</ele><time>2026-05-02T07:26:41.94Z</time></trkpt><trkpt lat="42.2831125" lon="13.9558485"><ele>277.0</ele><time>2026-05-02T07:26:42.939Z</time></trkpt><trkpt lat="42.2830148" lon="13.9557335"><ele>275.0</ele><time>2026-05-02T07:26:43.939Z</time></trkpt><trkpt lat="42.2829149" lon="13.9556134"><ele>273.0</ele><time>2026-05-02T07:26:44.939Z</time></trkpt><trkpt lat="42.2828111" lon="13.9554957"><ele>271.0</ele><time>2026-05-02T07:26:45.938Z</time></trkpt><trkpt lat="42.2827113" lon="13.9553771"><ele>269.0</ele><time>2026-05-02T07:26:46.94Z</time></trkpt><trkpt lat="42.2826161" lon="13.9552573"><ele>269.0</ele><time>2026-05-02T07:26:47.94Z</time></trkpt><trkpt lat="42.282525" lon="13.9551461"><ele>269.0</ele><time>2026-05-02T07:26:48.94Z</time></trkpt><trkpt lat="42.2824328" lon="13.9550497"><ele>269.0</ele><time>2026-05-02T07:26:49.939Z</time></trkpt><trkpt lat="42.2823343" lon="13.9549769"><ele>269.0</ele><time>2026-05-02T07:26:50.939Z</time></trkpt><trkpt lat="42.2822223" lon="13.9549311"><ele>267.0</ele><time>2026-05-02T07:26:51.941Z</time></trkpt><trkpt lat="42.2820987" lon="13.9549129"><ele>265.0</ele><time>2026-05-02T07:26:52.94Z</time></trkpt><trkpt lat="42.281974" lon="13.9549139"><ele>263.0</ele><time>2026-05-02T07:26:53.939Z</time></trkpt><trkpt lat="42.2818532" lon="13.9549206"><ele>261.0</ele><time>2026-05-02T07:26:54.938Z</time></trkpt><trkpt lat="42.2817371" lon="13.9549237"><ele>261.0</ele><time>2026-05-02T07:26:55.94Z</time></trkpt><trkpt lat="42.2816274" lon="13.9549112"><ele>261.0</ele><time>2026-05-02T07:26:56.94Z</time></trkpt><trkpt lat="42.281527" lon="13.9548819"><ele>261.0</ele><time>2026-05-02T07:26:57.94Z</time></trkpt><trkpt lat="42.2814223" lon="13.954819"><ele>261.0</ele><time>2026-05-02T07:26:58.941Z</time></trkpt><trkpt lat="42.2813198" lon="13.954731"><ele>261.0</ele><time>2026-05-02T07:26:59.94Z</time></trkpt><trkpt lat="42.2812218" lon="13.9546259"><ele>260.25</ele><time>2026-05-02T07:27:00.94Z</time></trkpt><trkpt lat="42.2811202" lon="13.954526"><ele>259.5</ele><time>2026-05-02T07:27:01.94Z</time></trkpt><trkpt lat="42.2810131" lon="13.9544399"><ele>258.75</ele><time>2026-05-02T07:27:02.94Z</time></trkpt><trkpt lat="42.280893" lon="13.9543705"><ele>258.0</ele><time>2026-05-02T07:27:03.94Z</time></trkpt><trkpt lat="42.2807694" lon="13.9543085"><ele>258.0</ele><time>2026-05-02T07:27:04.938Z</time></trkpt><trkpt lat="42.280645" lon="13.9542358"><ele>258.0</ele><time>2026-05-02T07:27:05.941Z</time></trkpt><trkpt lat="42.2805268" lon="13.9541507"><ele>258.0</ele><time>2026-05-02T07:27:06.94Z</time></trkpt><trkpt lat="42.2804181" lon="13.9540703"><ele>258.0</ele><time>2026-05-02T07:27:07.94Z</time></trkpt><trkpt lat="42.2803077" lon="13.9540003"><ele>255.2</ele><time>2026-05-02T07:27:08.94Z</time></trkpt><trkpt lat="42.2802032" lon="13.9539506"><ele>252.4</ele><time>2026-05-02T07:27:09.94Z</time></trkpt><trkpt lat="42.2800962" lon="13.953919"><ele>249.59999999999997</ele><time>2026-05-02T07:27:10.941Z</time></trkpt><trkpt lat="42.2799913" lon="13.9539137"><ele>246.79999999999998</ele><time>2026-05-02T07:27:11.94Z</time></trkpt><trkpt lat="42.2798872" lon="13.9539065"><ele>244.0</ele><time>2026-05-02T07:27:12.94Z</time></trkpt><trkpt lat="42.2797796" lon="13.9538869"><ele>243.79999999999998</ele><time>2026-05-02T07:27:13.94Z</time></trkpt><trkpt lat="42.2796741" lon="13.9538522"><ele>243.59999999999997</ele><time>2026-05-02T07:27:14.94Z</time></trkpt><trkpt lat="42.2795715" lon="13.953809"><ele>243.4</ele><time>2026-05-02T07:27:15.939Z</time></trkpt><trkpt lat="42.2794702" lon="13.9537703"><ele>243.2</ele><time>2026-05-02T07:27:16.94Z</time></trkpt><trkpt lat="42.2793691" lon="13.9537293"><ele>243.0</ele><time>2026-05-02T07:27:17.94Z</time></trkpt><trkpt lat="42.2792725" lon="13.9536948"><ele>243.0</ele><time>2026-05-02T07:27:18.939Z</time></trkpt><trkpt lat="42.2791727" lon="13.9536608"><ele>243.0</ele><time>2026-05-02T07:27:19.94Z</time></trkpt><trkpt lat="42.2790699" lon="13.9536282"><ele>243.0</ele><time>2026-05-02T07:27:20.94Z</time></trkpt><trkpt lat="42.2789575" lon="13.9535973"><ele>243.0</ele><time>2026-05-02T07:27:21.94Z</time></trkpt><trkpt lat="42.2788429" lon="13.9535588"><ele>243.0</ele><time>2026-05-02T07:27:22.94Z</time></trkpt><trkpt lat="42.2787452" lon="13.9535204"><ele>244.0</ele><time>2026-05-02T07:27:23.94Z</time></trkpt><trkpt lat="42.2786486" lon="13.9534881"><ele>245.0</ele><time>2026-05-02T07:27:24.939Z</time></trkpt><trkpt lat="42.2785438" lon="13.9534533"><ele>246.0</ele><time>2026-05-02T07:27:25.94Z</time></trkpt><trkpt lat="42.2784437" lon="13.9534199"><ele>247.0</ele><time>2026-05-02T07:27:26.938Z</time></trkpt><trkpt lat="42.2783526" lon="13.9533956"><ele>248.0</ele><time>2026-05-02T07:27:27.94Z</time></trkpt><trkpt lat="42.2782625" lon="13.9533745"><ele>246.16666666666669</ele><time>2026-05-02T07:27:28.94Z</time></trkpt><trkpt lat="42.2781831" lon="13.9533507"><ele>244.33333333333334</ele><time>2026-05-02T07:27:29.94Z</time></trkpt><trkpt lat="42.278113" lon="13.953324"><ele>242.5</ele><time>2026-05-02T07:27:30.939Z</time></trkpt><trkpt lat="42.2780366" lon="13.9533024"><ele>240.66666666666669</ele><time>2026-05-02T07:27:31.939Z</time></trkpt><trkpt lat="42.2779582" lon="13.9532825"><ele>238.83333333333334</ele><time>2026-05-02T07:27:32.94Z</time></trkpt><trkpt lat="42.2778807" lon="13.9532604"><ele>237.0</ele><time>2026-05-02T07:27:33.941Z</time></trkpt><trkpt lat="42.2777714" lon="13.9532426"><ele>237.0</ele><time>2026-05-02T07:27:34.939Z</time></trkpt><trkpt lat="42.2776564" lon="13.9532099"><ele>237.0</ele><time>2026-05-02T07:27:35.939Z</time></trkpt><trkpt lat="42.2775469" lon="13.95318"><ele>237.0</ele><time>2026-05-02T07:27:36.94Z</time></trkpt><trkpt lat="42.2774313" lon="13.9531468"><ele>237.0</ele><time>2026-05-02T07:27:37.94Z</time></trkpt><trkpt lat="42.2773527" lon="13.9531211"><ele>237.0</ele><time>2026-05-02T07:27:38.939Z</time></trkpt><trkpt lat="42.277278" lon="13.9530858"><ele>237.0</ele><time>2026-05-02T07:27:40.939Z</time></trkpt><trkpt lat="42.2772162" lon="13.9530527"><ele>237.0</ele><time>2026-05-02T07:28:09.939Z</time></trkpt><trkpt lat="42.2771765" lon="13.9529796"><ele>237.0</ele><time>2026-05-02T07:28:14.94Z</time></trkpt><trkpt lat="42.277227" lon="13.9529244"><ele>237.0</ele><time>2026-05-02T07:28:17.94Z</time></trkpt><trkpt lat="42.2772994" lon="13.9529406"><ele>237.0</ele><time>2026-05-02T07:28:19.941Z</time></trkpt><trkpt lat="42.2773997" lon="13.9529683"><ele>237.0</ele><time>2026-05-02T07:28:21.938Z</time></trkpt><trkpt lat="42.2774793" lon="13.9529964"><ele>237.0</ele><time>2026-05-02T07:28:23.94Z</time></trkpt><trkpt lat="42.2775454" lon="13.9530102"><ele>237.0</ele><time>2026-05-02T07:28:25.94Z</time></trkpt><trkpt lat="42.2776159" lon="13.9530018"><ele>237.0</ele><time>2026-05-02T07:28:27.94Z</time></trkpt><trkpt lat="42.2776913" lon="13.9529809"><ele>237.0</ele><time>2026-05-02T07:28:29.94Z</time></trkpt><trkpt lat="42.2777674" lon="13.9529166"><ele>237.0</ele><time>2026-05-02T07:28:31.94Z</time></trkpt><trkpt lat="42.277836" lon="13.9527944"><ele>237.0</ele><time>2026-05-02T07:28:33.941Z</time></trkpt><trkpt lat="42.2778567" lon="13.9526526"><ele>234.6</ele><time>2026-05-02T07:28:35.939Z</time></trkpt><trkpt lat="42.2778166" lon="13.9525023"><ele>232.2</ele><time>2026-05-02T07:28:37.94Z</time></trkpt><trkpt lat="42.2777432" lon="13.952377"><ele>229.8</ele><time>2026-05-02T07:28:39.94Z</time></trkpt><trkpt lat="42.2776473" lon="13.9522955"><ele>227.4</ele><time>2026-05-02T07:28:41.941Z</time></trkpt><trkpt lat="42.2775894" lon="13.9522516"><ele>225.0</ele><time>2026-05-02T07:28:42.94Z</time></trkpt><trkpt lat="42.2775299" lon="13.9522086"><ele>225.0</ele><time>2026-05-02T07:28:43.94Z</time></trkpt><trkpt lat="42.2774299" lon="13.9521463"><ele>225.0</ele><time>2026-05-02T07:28:45.94Z</time></trkpt><trkpt lat="42.2773629" lon="13.9520691"><ele>225.0</ele><time>2026-05-02T07:28:47.94Z</time></trkpt><trkpt lat="42.2773359" lon="13.9519855"><ele>225.0</ele><time>2026-05-02T07:28:49.941Z</time></trkpt><trkpt lat="42.2773357" lon="13.951888"><ele>225.0</ele><time>2026-05-02T07:28:51.939Z</time></trkpt><trkpt lat="42.2773259" lon="13.9518009"><ele>225.0</ele><time>2026-05-02T07:28:53.941Z</time></trkpt><trkpt lat="42.2773516" lon="13.9517047"><ele>223.0</ele><time>2026-05-02T07:28:56.863Z</time></trkpt><trkpt lat="42.2773789" lon="13.9516164"><ele>221.0</ele><time>2026-05-02T07:28:58.94Z</time></trkpt><trkpt lat="42.277413" lon="13.9515127"><ele>219.0</ele><time>2026-05-02T07:29:01.94Z</time></trkpt><trkpt lat="42.277487" lon="13.9514539"><ele>217.0</ele><time>2026-05-02T07:29:04.939Z</time></trkpt><trkpt lat="42.2775576" lon="13.951465"><ele>215.0</ele><time>2026-05-02T07:29:06.941Z</time></trkpt><trkpt lat="42.2776186" lon="13.951495"><ele>213.0</ele><time>2026-05-02T07:29:08.865Z</time></trkpt><trkpt lat="42.2776938" lon="13.9515334"><ele>213.0</ele><time>2026-05-02T07:29:10.939Z</time></trkpt><trkpt lat="42.2777809" lon="13.9514903"><ele>213.0</ele><time>2026-05-02T07:29:13.938Z</time></trkpt><trkpt lat="42.2777812" lon="13.9513941"><ele>213.0</ele><time>2026-05-02T07:29:15.922Z</time></trkpt><trkpt lat="42.2777371" lon="13.9513257"><ele>213.0</ele><time>2026-05-02T07:29:16.939Z</time></trkpt><trkpt lat="42.2776868" lon="13.951256"><ele>213.0</ele><time>2026-05-02T07:29:17.941Z</time></trkpt><trkpt lat="42.2776375" lon="13.9511764"><ele>213.0</ele><time>2026-05-02T07:29:18.94Z</time></trkpt><trkpt lat="42.277576" lon="13.9510404"><ele>213.0</ele><time>2026-05-02T07:29:20.939Z</time></trkpt><trkpt lat="42.2775404" lon="13.9509432"><ele>213.0</ele><time>2026-05-02T07:29:22.938Z</time></trkpt><trkpt lat="42.2774972" lon="13.9508502"><ele>213.0</ele><time>2026-05-02T07:29:24.94Z</time></trkpt><trkpt lat="42.2774622" lon="13.9507756"><ele>213.0</ele><time>2026-05-02T07:29:25.94Z</time></trkpt><trkpt lat="42.2773957" lon="13.9506359"><ele>213.0</ele><time>2026-05-02T07:29:27.939Z</time></trkpt><trkpt lat="42.2773602" lon="13.9505541"><ele>213.0</ele><time>2026-05-02T07:29:28.94Z</time></trkpt><trkpt lat="42.2773181" lon="13.9504659"><ele>211.0</ele><time>2026-05-02T07:29:29.94Z</time></trkpt><trkpt lat="42.2772773" lon="13.9503826"><ele>209.0</ele><time>2026-05-02T07:29:30.94Z</time></trkpt><trkpt lat="42.277235" lon="13.950302"><ele>207.0</ele><time>2026-05-02T07:29:31.94Z</time></trkpt><trkpt lat="42.2771828" lon="13.9502245"><ele>205.0</ele><time>2026-05-02T07:29:32.94Z</time></trkpt><trkpt lat="42.2771263" lon="13.9501563"><ele>203.0</ele><time>2026-05-02T07:29:33.939Z</time></trkpt><trkpt lat="42.277028" lon="13.9500576"><ele>201.0</ele><time>2026-05-02T07:29:35.939Z</time></trkpt><trkpt lat="42.276966" lon="13.9500025"><ele>199.4</ele><time>2026-05-02T07:29:37.939Z</time></trkpt><trkpt lat="42.2769287" lon="13.9499278"><ele>197.8</ele><time>2026-05-02T07:29:40.939Z</time></trkpt><trkpt lat="42.2770085" lon="13.949858"><ele>196.20000000000002</ele><time>2026-05-02T07:29:44.941Z</time></trkpt><trkpt lat="42.2771151" lon="13.949857"><ele>194.60000000000002</ele><time>2026-05-02T07:29:46.94Z</time></trkpt><trkpt lat="42.2772231" lon="13.9498608"><ele>193.0</ele><time>2026-05-02T07:29:48.94Z</time></trkpt><trkpt lat="42.277317" lon="13.9498193"><ele>193.0</ele><time>2026-05-02T07:29:50.94Z</time></trkpt><trkpt lat="42.2773756" lon="13.9497047"><ele>193.0</ele><time>2026-05-02T07:29:52.939Z</time></trkpt><trkpt lat="42.2773909" lon="13.9496104"><ele>193.0</ele><time>2026-05-02T07:29:53.94Z</time></trkpt><trkpt lat="42.2773705" lon="13.9494556"><ele>193.0</ele><time>2026-05-02T07:29:55.94Z</time></trkpt><trkpt lat="42.2772727" lon="13.9493441"><ele>193.0</ele><time>2026-05-02T07:29:57.939Z</time></trkpt><trkpt lat="42.2771969" lon="13.9493081"><ele>192.99999999999997</ele><time>2026-05-02T07:29:58.94Z</time></trkpt><trkpt lat="42.2771212" lon="13.9492823"><ele>193.0</ele><time>2026-05-02T07:29:59.94Z</time></trkpt><trkpt lat="42.2770621" lon="13.9492511"><ele>193.0</ele><time>2026-05-02T07:30:00.939Z</time></trkpt><trkpt lat="42.2769933" lon="13.9491958"><ele>193.0</ele><time>2026-05-02T07:30:01.94Z</time></trkpt><trkpt lat="42.2769247" lon="13.9491246"><ele>192.99999999999997</ele><time>2026-05-02T07:30:02.941Z</time></trkpt><trkpt lat="42.276853" lon="13.9490429"><ele>193.0</ele><time>2026-05-02T07:30:03.941Z</time></trkpt><trkpt lat="42.2767873" lon="13.9489673"><ele>192.60000000000002</ele><time>2026-05-02T07:30:04.939Z</time></trkpt><trkpt lat="42.2767306" lon="13.9488825"><ele>192.20000000000002</ele><time>2026-05-02T07:30:05.94Z</time></trkpt><trkpt lat="42.2766837" lon="13.9487803"><ele>191.8</ele><time>2026-05-02T07:30:06.94Z</time></trkpt><trkpt lat="42.2766388" lon="13.9486521"><ele>191.4</ele><time>2026-05-02T07:30:07.94Z</time></trkpt><trkpt lat="42.2765985" lon="13.9485019"><ele>191.0</ele><time>2026-05-02T07:30:08.94Z</time></trkpt><trkpt lat="42.2765658" lon="13.9483361"><ele>191.0</ele><time>2026-05-02T07:30:09.94Z</time></trkpt><trkpt lat="42.2765361" lon="13.948159"><ele>191.0</ele><time>2026-05-02T07:30:10.94Z</time></trkpt><trkpt lat="42.2765058" lon="13.9479905"><ele>191.0</ele><time>2026-05-02T07:30:11.939Z</time></trkpt><trkpt lat="42.2764803" lon="13.9478275"><ele>191.0</ele><time>2026-05-02T07:30:12.94Z</time></trkpt><trkpt lat="42.2764589" lon="13.9476688"><ele>192.25</ele><time>2026-05-02T07:30:13.94Z</time></trkpt><trkpt lat="42.2764414" lon="13.9475248"><ele>193.5</ele><time>2026-05-02T07:30:14.938Z</time></trkpt><trkpt lat="42.2764134" lon="13.9473666"><ele>194.75</ele><time>2026-05-02T07:30:15.939Z</time></trkpt><trkpt lat="42.2763909" lon="13.9472114"><ele>196.0</ele><time>2026-05-02T07:30:16.939Z</time></trkpt><trkpt lat="42.276365" lon="13.9470434"><ele>195.5</ele><time>2026-05-02T07:30:17.939Z</time></trkpt><trkpt lat="42.2763388" lon="13.9468694"><ele>195.0</ele><time>2026-05-02T07:30:18.939Z</time></trkpt><trkpt lat="42.2763114" lon="13.9467016"><ele>194.5</ele><time>2026-05-02T07:30:19.94Z</time></trkpt><trkpt lat="42.2762899" lon="13.9465423"><ele>194.0</ele><time>2026-05-02T07:30:20.94Z</time></trkpt><trkpt lat="42.2762629" lon="13.946412"><ele>194.00000000000003</ele><time>2026-05-02T07:30:21.939Z</time></trkpt><trkpt lat="42.276223" lon="13.9463045"><ele>194.0</ele><time>2026-05-02T07:30:22.939Z</time></trkpt><trkpt lat="42.2761703" lon="13.9462163"><ele>194.0</ele><time>2026-05-02T07:30:23.939Z</time></trkpt><trkpt lat="42.2761041" lon="13.9461405"><ele>194.0</ele><time>2026-05-02T07:30:24.94Z</time></trkpt><trkpt lat="42.276028" lon="13.9460827"><ele>194.00000000000003</ele><time>2026-05-02T07:30:25.938Z</time></trkpt><trkpt lat="42.2759452" lon="13.9460302"><ele>194.0</ele><time>2026-05-02T07:30:26.939Z</time></trkpt><trkpt lat="42.2758646" lon="13.9459839"><ele>194.0</ele><time>2026-05-02T07:30:27.94Z</time></trkpt><trkpt lat="42.2757847" lon="13.9459311"><ele>194.0</ele><time>2026-05-02T07:30:28.938Z</time></trkpt><trkpt lat="42.2756943" lon="13.9458694"><ele>194.0</ele><time>2026-05-02T07:30:29.94Z</time></trkpt><trkpt lat="42.2756091" lon="13.9457984"><ele>194.0</ele><time>2026-05-02T07:30:30.94Z</time></trkpt><trkpt lat="42.2755364" lon="13.945722"><ele>194.0</ele><time>2026-05-02T07:30:31.94Z</time></trkpt><trkpt lat="42.2754927" lon="13.9456437"><ele>193.83333333333334</ele><time>2026-05-02T07:30:32.94Z</time></trkpt><trkpt lat="42.2754708" lon="13.9455581"><ele>193.66666666666669</ele><time>2026-05-02T07:30:33.938Z</time></trkpt><trkpt lat="42.2754829" lon="13.9454116"><ele>193.5</ele><time>2026-05-02T07:30:35.938Z</time></trkpt><trkpt lat="42.2755775" lon="13.9453419"><ele>193.33333333333331</ele><time>2026-05-02T07:30:37.941Z</time></trkpt><trkpt lat="42.2756495" lon="13.9453393"><ele>193.16666666666666</ele><time>2026-05-02T07:30:38.938Z</time></trkpt><trkpt lat="42.2757381" lon="13.9453358"><ele>193.0</ele><time>2026-05-02T07:30:39.94Z</time></trkpt><trkpt lat="42.275841" lon="13.945314"><ele>197.0</ele><time>2026-05-02T07:30:40.939Z</time></trkpt><trkpt lat="42.275959" lon="13.9452786"><ele>201.0</ele><time>2026-05-02T07:30:41.939Z</time></trkpt><trkpt lat="42.2760749" lon="13.9452479"><ele>205.0</ele><time>2026-05-02T07:30:42.94Z</time></trkpt><trkpt lat="42.2762151" lon="13.9452247"><ele>209.0</ele><time>2026-05-02T07:30:43.94Z</time></trkpt><trkpt lat="42.2763388" lon="13.9452044"><ele>211.0</ele><time>2026-05-02T07:30:44.94Z</time></trkpt><trkpt lat="42.276467" lon="13.9451735"><ele>213.0</ele><time>2026-05-02T07:30:45.938Z</time></trkpt><trkpt lat="42.2765877" lon="13.9451467"><ele>215.0</ele><time>2026-05-02T07:30:46.94Z</time></trkpt><trkpt lat="42.2766943" lon="13.945124"><ele>217.0</ele><time>2026-05-02T07:30:47.939Z</time></trkpt><trkpt lat="42.2767892" lon="13.9450972"><ele>216.99999999999997</ele><time>2026-05-02T07:30:48.94Z</time></trkpt><trkpt lat="42.2768793" lon="13.9450575"><ele>217.0</ele><time>2026-05-02T07:30:49.939Z</time></trkpt><trkpt lat="42.2769426" lon="13.945004"><ele>217.0</ele><time>2026-05-02T07:30:50.94Z</time></trkpt><trkpt lat="42.2769884" lon="13.9449247"><ele>217.0</ele><time>2026-05-02T07:30:51.939Z</time></trkpt><trkpt lat="42.2770205" lon="13.9448163"><ele>216.99999999999997</ele><time>2026-05-02T07:30:52.94Z</time></trkpt><trkpt lat="42.2770507" lon="13.9446938"><ele>217.0</ele><time>2026-05-02T07:30:53.94Z</time></trkpt><trkpt lat="42.2770632" lon="13.9445925"><ele>218.0</ele><time>2026-05-02T07:30:54.939Z</time></trkpt><trkpt lat="42.2770802" lon="13.9445006"><ele>219.0</ele><time>2026-05-02T07:30:55.941Z</time></trkpt><trkpt lat="42.2771223" lon="13.9443185"><ele>220.0</ele><time>2026-05-02T07:30:57.941Z</time></trkpt><trkpt lat="42.2771462" lon="13.9441915"><ele>221.0</ele><time>2026-05-02T07:30:58.941Z</time></trkpt><trkpt lat="42.2771663" lon="13.9440383"><ele>222.0</ele><time>2026-05-02T07:30:59.939Z</time></trkpt><trkpt lat="42.2771825" lon="13.9438949"><ele>222.2</ele><time>2026-05-02T07:31:00.94Z</time></trkpt><trkpt lat="42.2771851" lon="13.9437516"><ele>222.39999999999998</ele><time>2026-05-02T07:31:01.94Z</time></trkpt><trkpt lat="42.2771762" lon="13.9436077"><ele>222.60000000000002</ele><time>2026-05-02T07:31:02.94Z</time></trkpt><trkpt lat="42.2771547" lon="13.9434677"><ele>222.8</ele><time>2026-05-02T07:31:03.939Z</time></trkpt><trkpt lat="42.2771256" lon="13.9433442"><ele>223.0</ele><time>2026-05-02T07:31:04.94Z</time></trkpt><trkpt lat="42.2770793" lon="13.9432473"><ele>223.99999999999997</ele><time>2026-05-02T07:31:05.939Z</time></trkpt><trkpt lat="42.277029" lon="13.9431693"><ele>225.0</ele><time>2026-05-02T07:31:06.94Z</time></trkpt><trkpt lat="42.2769784" lon="13.9431119"><ele>226.0</ele><time>2026-05-02T07:31:07.94Z</time></trkpt><trkpt lat="42.2769218" lon="13.943066"><ele>227.0</ele><time>2026-05-02T07:31:08.939Z</time></trkpt><trkpt lat="42.2768598" lon="13.9430292"><ele>227.99999999999997</ele><time>2026-05-02T07:31:09.94Z</time></trkpt><trkpt lat="42.2767635" lon="13.9429837"><ele>229.0</ele><time>2026-05-02T07:31:11.939Z</time></trkpt><trkpt lat="42.276676" lon="13.942954"><ele>228.99999999999997</ele><time>2026-05-02T07:31:13.941Z</time></trkpt><trkpt lat="42.2765569" lon="13.9429369"><ele>229.0</ele><time>2026-05-02T07:31:15.941Z</time></trkpt><trkpt lat="42.2764876" lon="13.9429292"><ele>229.0</ele><time>2026-05-02T07:31:16.94Z</time></trkpt><trkpt lat="42.2764149" lon="13.9429151"><ele>229.0</ele><time>2026-05-02T07:31:17.938Z</time></trkpt><trkpt lat="42.2763277" lon="13.9428917"><ele>228.99999999999997</ele><time>2026-05-02T07:31:18.938Z</time></trkpt><trkpt lat="42.2762524" lon="13.9428636"><ele>229.0</ele><time>2026-05-02T07:31:19.941Z</time></trkpt><trkpt lat="42.2761905" lon="13.9428242"><ele>229.6</ele><time>2026-05-02T07:31:20.94Z</time></trkpt><trkpt lat="42.2761015" lon="13.9427033"><ele>230.2</ele><time>2026-05-02T07:31:22.939Z</time></trkpt><trkpt lat="42.276078" lon="13.9426121"><ele>230.79999999999998</ele><time>2026-05-02T07:31:23.94Z</time></trkpt><trkpt lat="42.2760445" lon="13.9425068"><ele>231.39999999999998</ele><time>2026-05-02T07:31:24.941Z</time></trkpt><trkpt lat="42.2760044" lon="13.9423695"><ele>232.0</ele><time>2026-05-02T07:31:25.941Z</time></trkpt><trkpt lat="42.275961" lon="13.942223"><ele>232.0</ele><time>2026-05-02T07:31:26.939Z</time></trkpt><trkpt lat="42.2759173" lon="13.9420864"><ele>232.0</ele><time>2026-05-02T07:31:27.94Z</time></trkpt><trkpt lat="42.2758742" lon="13.9419636"><ele>232.0</ele><time>2026-05-02T07:31:28.94Z</time></trkpt><trkpt lat="42.27584" lon="13.9418437"><ele>232.0</ele><time>2026-05-02T07:31:29.939Z</time></trkpt><trkpt lat="42.2758035" lon="13.9417435"><ele>232.0</ele><time>2026-05-02T07:31:30.94Z</time></trkpt><trkpt lat="42.2757639" lon="13.9416506"><ele>234.16666666666666</ele><time>2026-05-02T07:31:31.94Z</time></trkpt><trkpt lat="42.2757333" lon="13.9415753"><ele>236.33333333333331</ele><time>2026-05-02T07:31:32.94Z</time></trkpt><trkpt lat="42.2757046" lon="13.9414451"><ele>238.5</ele><time>2026-05-02T07:31:34.941Z</time></trkpt><trkpt lat="42.2756913" lon="13.9413551"><ele>240.66666666666669</ele><time>2026-05-02T07:31:35.94Z</time></trkpt><trkpt lat="42.2756728" lon="13.9412629"><ele>242.83333333333334</ele><time>2026-05-02T07:31:36.94Z</time></trkpt><trkpt lat="42.2756418" lon="13.9411394"><ele>245.0</ele><time>2026-05-02T07:31:37.94Z</time></trkpt><trkpt lat="42.2756111" lon="13.9410105"><ele>242.83333333333334</ele><time>2026-05-02T07:31:38.94Z</time></trkpt><trkpt lat="42.2755931" lon="13.9408876"><ele>240.66666666666669</ele><time>2026-05-02T07:31:39.94Z</time></trkpt><trkpt lat="42.2755823" lon="13.9407665"><ele>238.5</ele><time>2026-05-02T07:31:40.94Z</time></trkpt><trkpt lat="42.2755795" lon="13.9406494"><ele>236.33333333333331</ele><time>2026-05-02T07:31:41.94Z</time></trkpt><trkpt lat="42.2755817" lon="13.9405338"><ele>234.16666666666666</ele><time>2026-05-02T07:31:42.941Z</time></trkpt><trkpt lat="42.2755916" lon="13.940427"><ele>232.0</ele><time>2026-05-02T07:31:43.939Z</time></trkpt><trkpt lat="42.2755978" lon="13.9403172"><ele>232.0</ele><time>2026-05-02T07:31:44.94Z</time></trkpt><trkpt lat="42.2756264" lon="13.9401667"><ele>232.0</ele><time>2026-05-02T07:31:46.94Z</time></trkpt><trkpt lat="42.2756315" lon="13.9400796"><ele>232.0</ele><time>2026-05-02T07:31:48.94Z</time></trkpt><trkpt lat="42.2755456" lon="13.9400825"><ele>232.0</ele><time>2026-05-02T07:31:51.939Z</time></trkpt><trkpt lat="42.2754036" lon="13.940148"><ele>232.0</ele><time>2026-05-02T07:31:53.939Z</time></trkpt><trkpt lat="42.2753065" lon="13.9402018"><ele>232.0</ele><time>2026-05-02T07:31:54.939Z</time></trkpt><trkpt lat="42.2752051" lon="13.9402635"><ele>232.0</ele><time>2026-05-02T07:31:55.939Z</time></trkpt><trkpt lat="42.2750943" lon="13.9403318"><ele>232.0</ele><time>2026-05-02T07:31:56.94Z</time></trkpt><trkpt lat="42.2749921" lon="13.9404048"><ele>232.0</ele><time>2026-05-02T07:31:57.94Z</time></trkpt><trkpt lat="42.2748931" lon="13.9404714"><ele>232.0</ele><time>2026-05-02T07:31:58.939Z</time></trkpt><trkpt lat="42.2748028" lon="13.9405206"><ele>232.0</ele><time>2026-05-02T07:31:59.94Z</time></trkpt><trkpt lat="42.2747123" lon="13.9405781"><ele>232.0</ele><time>2026-05-02T07:32:00.94Z</time></trkpt><trkpt lat="42.2746199" lon="13.9406304"><ele>232.0</ele><time>2026-05-02T07:32:01.939Z</time></trkpt><trkpt lat="42.2745283" lon="13.9406793"><ele>232.0</ele><time>2026-05-02T07:32:02.938Z</time></trkpt><trkpt lat="42.2744355" lon="13.9407186"><ele>230.0</ele><time>2026-05-02T07:32:03.939Z</time></trkpt><trkpt lat="42.2743437" lon="13.9407511"><ele>228.0</ele><time>2026-05-02T07:32:04.938Z</time></trkpt><trkpt lat="42.2742521" lon="13.9407817"><ele>226.0</ele><time>2026-05-02T07:32:05.939Z</time></trkpt><trkpt lat="42.2741682" lon="13.9407957"><ele>224.0</ele><time>2026-05-02T07:32:06.941Z</time></trkpt><trkpt lat="42.2740744" lon="13.9408007"><ele>222.0</ele><time>2026-05-02T07:32:07.94Z</time></trkpt><trkpt lat="42.2739642" lon="13.9407832"><ele>219.2</ele><time>2026-05-02T07:32:08.94Z</time></trkpt><trkpt lat="42.2738617" lon="13.9407576"><ele>216.39999999999998</ele><time>2026-05-02T07:32:09.939Z</time></trkpt><trkpt lat="42.2737574" lon="13.9407291"><ele>213.60000000000002</ele><time>2026-05-02T07:32:10.94Z</time></trkpt><trkpt lat="42.2736547" lon="13.9407057"><ele>210.8</ele><time>2026-05-02T07:32:11.939Z</time></trkpt><trkpt lat="42.2735537" lon="13.9406794"><ele>208.0</ele><time>2026-05-02T07:32:12.939Z</time></trkpt><trkpt lat="42.2734394" lon="13.9406488"><ele>208.0</ele><time>2026-05-02T07:32:13.94Z</time></trkpt><trkpt lat="42.273329" lon="13.9406295"><ele>208.0</ele><time>2026-05-02T07:32:14.94Z</time></trkpt><trkpt lat="42.2732217" lon="13.9406082"><ele>208.0</ele><time>2026-05-02T07:32:15.939Z</time></trkpt><trkpt lat="42.2731169" lon="13.9405795"><ele>208.0</ele><time>2026-05-02T07:32:16.939Z</time></trkpt><trkpt lat="42.2730121" lon="13.9405594"><ele>208.0</ele><time>2026-05-02T07:32:17.94Z</time></trkpt><trkpt lat="42.2729035" lon="13.9405379"><ele>205.8</ele><time>2026-05-02T07:32:18.94Z</time></trkpt><trkpt lat="42.2727982" lon="13.9405154"><ele>203.60000000000002</ele><time>2026-05-02T07:32:19.939Z</time></trkpt><trkpt lat="42.272691" lon="13.9405009"><ele>201.39999999999998</ele><time>2026-05-02T07:32:20.938Z</time></trkpt><trkpt lat="42.2725962" lon="13.940487"><ele>199.2</ele><time>2026-05-02T07:32:21.939Z</time></trkpt><trkpt lat="42.2725155" lon="13.9404714"><ele>197.0</ele><time>2026-05-02T07:32:22.939Z</time></trkpt><trkpt lat="42.2724549" lon="13.9404441"><ele>197.0</ele><time>2026-05-02T07:32:23.94Z</time></trkpt><trkpt lat="42.2724071" lon="13.940363"><ele>197.0</ele><time>2026-05-02T07:32:25.939Z</time></trkpt><trkpt lat="42.2724404" lon="13.9402243"><ele>197.0</ele><time>2026-05-02T07:32:27.94Z</time></trkpt><trkpt lat="42.2725122" lon="13.940114"><ele>197.0</ele><time>2026-05-02T07:32:28.939Z</time></trkpt><trkpt lat="42.2726036" lon="13.9399938"><ele>197.0</ele><time>2026-05-02T07:32:29.939Z</time></trkpt><trkpt lat="42.2726889" lon="13.9398941"><ele>196.83333333333334</ele><time>2026-05-02T07:32:30.94Z</time></trkpt><trkpt lat="42.2727662" lon="13.9398044"><ele>196.66666666666669</ele><time>2026-05-02T07:32:31.941Z</time></trkpt><trkpt lat="42.2728352" lon="13.9397193"><ele>196.5</ele><time>2026-05-02T07:32:32.939Z</time></trkpt><trkpt lat="42.2728962" lon="13.939635"><ele>196.33333333333331</ele><time>2026-05-02T07:32:33.939Z</time></trkpt><trkpt lat="42.2729373" lon="13.9395467"><ele>196.16666666666666</ele><time>2026-05-02T07:32:34.94Z</time></trkpt><trkpt lat="42.2729547" lon="13.9394554"><ele>196.0</ele><time>2026-05-02T07:32:35.94Z</time></trkpt><trkpt lat="42.2729506" lon="13.9393565"><ele>195.99999999999997</ele><time>2026-05-02T07:32:36.94Z</time></trkpt><trkpt lat="42.2729288" lon="13.9392634"><ele>196.0</ele><time>2026-05-02T07:32:37.94Z</time></trkpt><trkpt lat="42.272895" lon="13.9391771"><ele>196.0</ele><time>2026-05-02T07:32:38.94Z</time></trkpt><trkpt lat="42.2728411" lon="13.9390774"><ele>196.0</ele><time>2026-05-02T07:32:39.94Z</time></trkpt><trkpt lat="42.2727784" lon="13.938978"><ele>195.99999999999997</ele><time>2026-05-02T07:32:40.939Z</time></trkpt><trkpt lat="42.2727189" lon="13.9388865"><ele>196.0</ele><time>2026-05-02T07:32:41.94Z</time></trkpt><trkpt lat="42.2726612" lon="13.9388006"><ele>194.60000000000002</ele><time>2026-05-02T07:32:42.94Z</time></trkpt><trkpt lat="42.2726014" lon="13.9387233"><ele>193.2</ele><time>2026-05-02T07:32:43.94Z</time></trkpt><trkpt lat="42.2725351" lon="13.9386487"><ele>191.8</ele><time>2026-05-02T07:32:44.939Z</time></trkpt><trkpt lat="42.2724526" lon="13.9385862"><ele>190.39999999999998</ele><time>2026-05-02T07:32:45.94Z</time></trkpt><trkpt lat="42.2723649" lon="13.9385392"><ele>189.0</ele><time>2026-05-02T07:32:46.939Z</time></trkpt><trkpt lat="42.2722778" lon="13.938498"><ele>188.0</ele><time>2026-05-02T07:32:47.94Z</time></trkpt><trkpt lat="42.2721937" lon="13.9384611"><ele>187.0</ele><time>2026-05-02T07:32:48.94Z</time></trkpt><trkpt lat="42.2721103" lon="13.9384261"><ele>186.0</ele><time>2026-05-02T07:32:49.939Z</time></trkpt><trkpt lat="42.2720292" lon="13.938401"><ele>185.0</ele><time>2026-05-02T07:32:50.94Z</time></trkpt><trkpt lat="42.2719521" lon="13.9383847"><ele>184.0</ele><time>2026-05-02T07:32:51.939Z</time></trkpt><trkpt lat="42.2718425" lon="13.9383597"><ele>183.0</ele><time>2026-05-02T07:32:53.94Z</time></trkpt><trkpt lat="42.2717706" lon="13.9382925"><ele>181.5</ele><time>2026-05-02T07:32:55.939Z</time></trkpt><trkpt lat="42.2717278" lon="13.93811"><ele>180.0</ele><time>2026-05-02T07:32:57.939Z</time></trkpt><trkpt lat="42.2717048" lon="13.9380046"><ele>178.5</ele><time>2026-05-02T07:32:58.939Z</time></trkpt><trkpt lat="42.2716619" lon="13.9379264"><ele>177.0</ele><time>2026-05-02T07:32:59.94Z</time></trkpt><trkpt lat="42.2716001" lon="13.9378628"><ele>175.5</ele><time>2026-05-02T07:33:00.94Z</time></trkpt><trkpt lat="42.2715326" lon="13.9378143"><ele>174.0</ele><time>2026-05-02T07:33:01.939Z</time></trkpt><trkpt lat="42.271421" lon="13.9378176"><ele>173.16666666666666</ele><time>2026-05-02T07:33:02.94Z</time></trkpt><trkpt lat="42.2713291" lon="13.9378138"><ele>172.33333333333334</ele><time>2026-05-02T07:33:03.939Z</time></trkpt><trkpt lat="42.2712473" lon="13.9378326"><ele>171.5</ele><time>2026-05-02T07:33:04.94Z</time></trkpt><trkpt lat="42.2711855" lon="13.9378738"><ele>170.66666666666669</ele><time>2026-05-02T07:33:05.939Z</time></trkpt><trkpt lat="42.2711216" lon="13.9379231"><ele>169.83333333333334</ele><time>2026-05-02T07:33:06.94Z</time></trkpt><trkpt lat="42.2710714" lon="13.937988"><ele>169.0</ele><time>2026-05-02T07:33:07.94Z</time></trkpt><trkpt lat="42.2710215" lon="13.9380552"><ele>169.0</ele><time>2026-05-02T07:33:08.939Z</time></trkpt><trkpt lat="42.2709793" lon="13.9381294"><ele>169.0</ele><time>2026-05-02T07:33:09.94Z</time></trkpt><trkpt lat="42.2709466" lon="13.9382123"><ele>169.0</ele><time>2026-05-02T07:33:10.94Z</time></trkpt><trkpt lat="42.2709194" lon="13.9382912"><ele>169.0</ele><time>2026-05-02T07:33:11.939Z</time></trkpt><trkpt lat="42.2708787" lon="13.9384431"><ele>169.0</ele><time>2026-05-02T07:33:13.939Z</time></trkpt><trkpt lat="42.2708554" lon="13.9385313"><ele>169.0</ele><time>2026-05-02T07:33:14.94Z</time></trkpt><trkpt lat="42.2708346" lon="13.9386176"><ele>169.33333333333334</ele><time>2026-05-02T07:33:15.939Z</time></trkpt><trkpt lat="42.2708189" lon="13.9387115"><ele>169.66666666666669</ele><time>2026-05-02T07:33:16.939Z</time></trkpt><trkpt lat="42.2707971" lon="13.9388079"><ele>170.0</ele><time>2026-05-02T07:33:17.94Z</time></trkpt><trkpt lat="42.2707638" lon="13.9389144"><ele>170.33333333333334</ele><time>2026-05-02T07:33:18.94Z</time></trkpt><trkpt lat="42.2707299" lon="13.9390376"><ele>170.66666666666666</ele><time>2026-05-02T07:33:19.94Z</time></trkpt><trkpt lat="42.2707005" lon="13.9391688"><ele>171.0</ele><time>2026-05-02T07:33:20.939Z</time></trkpt><trkpt lat="42.2706771" lon="13.9392978"><ele>171.20000000000002</ele><time>2026-05-02T07:33:21.938Z</time></trkpt><trkpt lat="42.2706539" lon="13.9394399"><ele>171.4</ele><time>2026-05-02T07:33:22.939Z</time></trkpt><trkpt lat="42.2706277" lon="13.9395827"><ele>171.6</ele><time>2026-05-02T07:33:23.939Z</time></trkpt><trkpt lat="42.2705958" lon="13.9397237"><ele>171.8</ele><time>2026-05-02T07:33:24.94Z</time></trkpt><trkpt lat="42.2705515" lon="13.9398626"><ele>172.0</ele><time>2026-05-02T07:33:25.94Z</time></trkpt><trkpt lat="42.2705023" lon="13.9399995"><ele>169.0</ele><time>2026-05-02T07:33:26.94Z</time></trkpt><trkpt lat="42.27046" lon="13.9401261"><ele>166.0</ele><time>2026-05-02T07:33:27.938Z</time></trkpt><trkpt lat="42.2704055" lon="13.9402671"><ele>163.0</ele><time>2026-05-02T07:33:28.94Z</time></trkpt><trkpt lat="42.2703547" lon="13.9404054"><ele>160.0</ele><time>2026-05-02T07:33:29.94Z</time></trkpt><trkpt lat="42.2703054" lon="13.9405357"><ele>157.0</ele><time>2026-05-02T07:33:30.94Z</time></trkpt><trkpt lat="42.2702619" lon="13.9406719"><ele>157.0</ele><time>2026-05-02T07:33:31.939Z</time></trkpt><trkpt lat="42.2702181" lon="13.9408005"><ele>157.0</ele><time>2026-05-02T07:33:32.938Z</time></trkpt><trkpt lat="42.270181" lon="13.9409157"><ele>157.0</ele><time>2026-05-02T07:33:33.94Z</time></trkpt><trkpt lat="42.2701494" lon="13.9410214"><ele>157.0</ele><time>2026-05-02T07:33:34.939Z</time></trkpt><trkpt lat="42.2701133" lon="13.9411215"><ele>157.0</ele><time>2026-05-02T07:33:35.94Z</time></trkpt><trkpt lat="42.2700738" lon="13.9412121"><ele>157.0</ele><time>2026-05-02T07:33:36.939Z</time></trkpt><trkpt lat="42.2700176" lon="13.9412849"><ele>157.0</ele><time>2026-05-02T07:33:37.939Z</time></trkpt><trkpt lat="42.2699733" lon="13.9413603"><ele>157.0</ele><time>2026-05-02T07:33:38.94Z</time></trkpt><trkpt lat="42.2699358" lon="13.9414549"><ele>157.0</ele><time>2026-05-02T07:33:39.938Z</time></trkpt><trkpt lat="42.2699117" lon="13.9415606"><ele>157.0</ele><time>2026-05-02T07:33:40.94Z</time></trkpt><trkpt lat="42.2699048" lon="13.9416891"><ele>157.0</ele><time>2026-05-02T07:33:41.94Z</time></trkpt><trkpt lat="42.269912" lon="13.9418145"><ele>157.0</ele><time>2026-05-02T07:33:42.939Z</time></trkpt><trkpt lat="42.2699249" lon="13.9419186"><ele>156.33333333333334</ele><time>2026-05-02T07:33:43.94Z</time></trkpt><trkpt lat="42.2699356" lon="13.9420174"><ele>155.66666666666669</ele><time>2026-05-02T07:33:44.94Z</time></trkpt><trkpt lat="42.2699343" lon="13.9421104"><ele>155.0</ele><time>2026-05-02T07:33:45.939Z</time></trkpt><trkpt lat="42.2698913" lon="13.9421986"><ele>154.33333333333334</ele><time>2026-05-02T07:33:46.941Z</time></trkpt><trkpt lat="42.269858" lon="13.9422779"><ele>153.66666666666666</ele><time>2026-05-02T07:33:47.94Z</time></trkpt><trkpt lat="42.2697809" lon="13.9423217"><ele>153.0</ele><time>2026-05-02T07:33:48.94Z</time></trkpt><trkpt lat="42.2697098" lon="13.9423669"><ele>152.0</ele><time>2026-05-02T07:33:49.94Z</time></trkpt><trkpt lat="42.2696339" lon="13.9423957"><ele>151.0</ele><time>2026-05-02T07:33:50.94Z</time></trkpt><trkpt lat="42.2695351" lon="13.942433"><ele>150.0</ele><time>2026-05-02T07:33:51.939Z</time></trkpt><trkpt lat="42.2694387" lon="13.9424648"><ele>149.0</ele><time>2026-05-02T07:33:52.94Z</time></trkpt><trkpt lat="42.2693347" lon="13.9424982"><ele>148.0</ele><time>2026-05-02T07:33:53.938Z</time></trkpt><trkpt lat="42.2692372" lon="13.9425238"><ele>148.20000000000002</ele><time>2026-05-02T07:33:54.939Z</time></trkpt><trkpt lat="42.2691496" lon="13.9425517"><ele>148.4</ele><time>2026-05-02T07:33:55.941Z</time></trkpt><trkpt lat="42.2690684" lon="13.9425755"><ele>148.60000000000002</ele><time>2026-05-02T07:33:56.94Z</time></trkpt><trkpt lat="42.2689871" lon="13.9426008"><ele>148.8</ele><time>2026-05-02T07:33:57.94Z</time></trkpt><trkpt lat="42.2689086" lon="13.9426247"><ele>149.0</ele><time>2026-05-02T07:33:58.939Z</time></trkpt><trkpt lat="42.2687995" lon="13.9426636"><ele>148.5</ele><time>2026-05-02T07:34:00.938Z</time></trkpt><trkpt lat="42.2687008" lon="13.942676"><ele>148.0</ele><time>2026-05-02T07:34:02.939Z</time></trkpt><trkpt lat="42.2686338" lon="13.9426718"><ele>147.5</ele><time>2026-05-02T07:34:03.939Z</time></trkpt><trkpt lat="42.2685573" lon="13.9426586"><ele>147.0</ele><time>2026-05-02T07:34:04.94Z</time></trkpt><trkpt lat="42.2684814" lon="13.9426366"><ele>146.5</ele><time>2026-05-02T07:34:05.94Z</time></trkpt><trkpt lat="42.2684087" lon="13.9426056"><ele>146.0</ele><time>2026-05-02T07:34:06.938Z</time></trkpt><trkpt lat="42.2683306" lon="13.9425575"><ele>146.33333333333331</ele><time>2026-05-02T07:34:07.939Z</time></trkpt><trkpt lat="42.2682554" lon="13.9424845"><ele>146.66666666666666</ele><time>2026-05-02T07:34:08.939Z</time></trkpt><trkpt lat="42.2681951" lon="13.9424055"><ele>147.0</ele><time>2026-05-02T07:34:09.94Z</time></trkpt><trkpt lat="42.2681364" lon="13.9423496"><ele>147.33333333333334</ele><time>2026-05-02T07:34:10.941Z</time></trkpt><trkpt lat="42.2680724" lon="13.9423167"><ele>147.66666666666669</ele><time>2026-05-02T07:34:11.938Z</time></trkpt><trkpt lat="42.2680001" lon="13.9423066"><ele>148.0</ele><time>2026-05-02T07:34:12.939Z</time></trkpt><trkpt lat="42.26793" lon="13.9423149"><ele>150.20000000000002</ele><time>2026-05-02T07:34:13.94Z</time></trkpt><trkpt lat="42.2678668" lon="13.9423153"><ele>152.4</ele><time>2026-05-02T07:34:14.94Z</time></trkpt><trkpt lat="42.2677656" lon="13.9422765"><ele>154.60000000000002</ele><time>2026-05-02T07:34:16.939Z</time></trkpt><trkpt lat="42.2677045" lon="13.9421595"><ele>156.8</ele><time>2026-05-02T07:34:18.94Z</time></trkpt><trkpt lat="42.2677034" lon="13.9420677"><ele>159.0</ele><time>2026-05-02T07:34:19.939Z</time></trkpt><trkpt lat="42.2676856" lon="13.9419095"><ele>159.0</ele><time>2026-05-02T07:34:21.938Z</time></trkpt><trkpt lat="42.2676757" lon="13.9418243"><ele>159.0</ele><time>2026-05-02T07:34:22.94Z</time></trkpt><trkpt lat="42.2676458" lon="13.9417443"><ele>159.0</ele><time>2026-05-02T07:34:23.939Z</time></trkpt><trkpt lat="42.2676151" lon="13.9416569"><ele>159.0</ele><time>2026-05-02T07:34:24.94Z</time></trkpt><trkpt lat="42.2675901" lon="13.9415695"><ele>159.0</ele><time>2026-05-02T07:34:25.939Z</time></trkpt><trkpt lat="42.2675377" lon="13.9414134"><ele>159.0</ele><time>2026-05-02T07:34:27.94Z</time></trkpt><trkpt lat="42.2674954" lon="13.9413386"><ele>158.83333333333334</ele><time>2026-05-02T07:34:28.94Z</time></trkpt><trkpt lat="42.2674503" lon="13.9412651"><ele>158.66666666666666</ele><time>2026-05-02T07:34:29.94Z</time></trkpt><trkpt lat="42.2673548" lon="13.9411363"><ele>158.5</ele><time>2026-05-02T07:34:31.939Z</time></trkpt><trkpt lat="42.2673117" lon="13.9410611"><ele>158.33333333333331</ele><time>2026-05-02T07:34:32.939Z</time></trkpt><trkpt lat="42.2672764" lon="13.9409876"><ele>158.16666666666666</ele><time>2026-05-02T07:34:33.939Z</time></trkpt><trkpt lat="42.2672409" lon="13.9409117"><ele>158.0</ele><time>2026-05-02T07:34:34.939Z</time></trkpt><trkpt lat="42.267202" lon="13.9408413"><ele>160.66666666666666</ele><time>2026-05-02T07:34:35.94Z</time></trkpt><trkpt lat="42.2671657" lon="13.9407668"><ele>163.33333333333331</ele><time>2026-05-02T07:34:36.939Z</time></trkpt><trkpt lat="42.2671279" lon="13.9406848"><ele>166.0</ele><time>2026-05-02T07:34:37.94Z</time></trkpt><trkpt lat="42.2670907" lon="13.9406052"><ele>168.66666666666666</ele><time>2026-05-02T07:34:38.94Z</time></trkpt><trkpt lat="42.2670424" lon="13.9405168"><ele>171.33333333333334</ele><time>2026-05-02T07:34:39.94Z</time></trkpt><trkpt lat="42.2669987" lon="13.9404256"><ele>174.0</ele><time>2026-05-02T07:34:40.939Z</time></trkpt><trkpt lat="42.2669597" lon="13.9403214"><ele>174.0</ele><time>2026-05-02T07:34:41.94Z</time></trkpt><trkpt lat="42.2669321" lon="13.9402342"><ele>174.0</ele><time>2026-05-02T07:34:42.938Z</time></trkpt><trkpt lat="42.2668503" lon="13.9401418"><ele>174.0</ele><time>2026-05-02T07:34:44.941Z</time></trkpt><trkpt lat="42.2667581" lon="13.9401669"><ele>174.0</ele><time>2026-05-02T07:34:46.94Z</time></trkpt><trkpt lat="42.2666977" lon="13.940313"><ele>174.0</ele><time>2026-05-02T07:34:48.939Z</time></trkpt><trkpt lat="42.2666744" lon="13.9404153"><ele>174.0</ele><time>2026-05-02T07:34:49.94Z</time></trkpt><trkpt lat="42.2666466" lon="13.9405255"><ele>174.0</ele><time>2026-05-02T07:34:50.939Z</time></trkpt><trkpt lat="42.2666004" lon="13.9406459"><ele>174.0</ele><time>2026-05-02T07:34:51.94Z</time></trkpt><trkpt lat="42.2665537" lon="13.9407655"><ele>174.0</ele><time>2026-05-02T07:34:52.94Z</time></trkpt><trkpt lat="42.2665163" lon="13.9408897"><ele>174.0</ele><time>2026-05-02T07:34:53.941Z</time></trkpt><trkpt lat="42.2664792" lon="13.9410132"><ele>177.79999999999998</ele><time>2026-05-02T07:34:54.94Z</time></trkpt><trkpt lat="42.266442" lon="13.9411399"><ele>181.6</ele><time>2026-05-02T07:34:55.94Z</time></trkpt><trkpt lat="42.2663997" lon="13.941269"><ele>185.4</ele><time>2026-05-02T07:34:56.939Z</time></trkpt><trkpt lat="42.2663676" lon="13.941389"><ele>189.2</ele><time>2026-05-02T07:34:57.94Z</time></trkpt><trkpt lat="42.2663454" lon="13.9415117"><ele>193.0</ele><time>2026-05-02T07:34:58.94Z</time></trkpt><trkpt lat="42.2663349" lon="13.9416305"><ele>193.8</ele><time>2026-05-02T07:34:59.939Z</time></trkpt><trkpt lat="42.2663564" lon="13.9417652"><ele>194.60000000000002</ele><time>2026-05-02T07:35:00.941Z</time></trkpt><trkpt lat="42.2663725" lon="13.9419071"><ele>195.39999999999998</ele><time>2026-05-02T07:35:01.94Z</time></trkpt><trkpt lat="42.2663942" lon="13.9420452"><ele>196.2</ele><time>2026-05-02T07:35:02.94Z</time></trkpt><trkpt lat="42.26641" lon="13.9421908"><ele>197.0</ele><time>2026-05-02T07:35:03.94Z</time></trkpt><trkpt lat="42.2664259" lon="13.9423388"><ele>193.39999999999998</ele><time>2026-05-02T07:35:04.94Z</time></trkpt><trkpt lat="42.2664461" lon="13.9424863"><ele>189.79999999999998</ele><time>2026-05-02T07:35:05.94Z</time></trkpt><trkpt lat="42.2664644" lon="13.9426229"><ele>186.2</ele><time>2026-05-02T07:35:06.941Z</time></trkpt><trkpt lat="42.2664844" lon="13.9427608"><ele>182.6</ele><time>2026-05-02T07:35:07.94Z</time></trkpt><trkpt lat="42.2665018" lon="13.9428891"><ele>179.0</ele><time>2026-05-02T07:35:08.94Z</time></trkpt><trkpt lat="42.2665131" lon="13.9429972"><ele>179.0</ele><time>2026-05-02T07:35:09.939Z</time></trkpt><trkpt lat="42.2665271" lon="13.9430905"><ele>179.0</ele><time>2026-05-02T07:35:10.938Z</time></trkpt><trkpt lat="42.2665228" lon="13.9432278"><ele>179.0</ele><time>2026-05-02T07:35:12.94Z</time></trkpt><trkpt lat="42.2664694" lon="13.9432999"><ele>179.0</ele><time>2026-05-02T07:35:14.94Z</time></trkpt><trkpt lat="42.2663593" lon="13.9433034"><ele>179.0</ele><time>2026-05-02T07:35:16.938Z</time></trkpt><trkpt lat="42.266232" lon="13.9433004"><ele>181.42857142857144</ele><time>2026-05-02T07:35:18.94Z</time></trkpt><trkpt lat="42.2661655" lon="13.9433067"><ele>183.85714285714286</ele><time>2026-05-02T07:35:19.939Z</time></trkpt><trkpt lat="42.266094" lon="13.9433189"><ele>186.28571428571428</ele><time>2026-05-02T07:35:20.94Z</time></trkpt><trkpt lat="42.2660214" lon="13.9433344"><ele>188.71428571428572</ele><time>2026-05-02T07:35:21.941Z</time></trkpt><trkpt lat="42.2659505" lon="13.9433461"><ele>191.14285714285714</ele><time>2026-05-02T07:35:22.94Z</time></trkpt><trkpt lat="42.2658709" lon="13.943346"><ele>193.57142857142858</ele><time>2026-05-02T07:35:23.94Z</time></trkpt><trkpt lat="42.2657919" lon="13.9433328"><ele>196.0</ele><time>2026-05-02T07:35:24.938Z</time></trkpt><trkpt lat="42.2657108" lon="13.9433134"><ele>196.0</ele><time>2026-05-02T07:35:25.939Z</time></trkpt><trkpt lat="42.265631" lon="13.9432466"><ele>196.0</ele><time>2026-05-02T07:35:26.941Z</time></trkpt><trkpt lat="42.2655478" lon="13.9431716"><ele>196.0</ele><time>2026-05-02T07:35:27.939Z</time></trkpt><trkpt lat="42.2654703" lon="13.9430878"><ele>196.0</ele><time>2026-05-02T07:35:28.938Z</time></trkpt><trkpt lat="42.2653999" lon="13.9430066"><ele>196.0</ele><time>2026-05-02T07:35:29.94Z</time></trkpt><trkpt lat="42.2653416" lon="13.9429166"><ele>195.33333333333331</ele><time>2026-05-02T07:35:30.94Z</time></trkpt><trkpt lat="42.2653089" lon="13.9428258"><ele>194.66666666666666</ele><time>2026-05-02T07:35:31.938Z</time></trkpt><trkpt lat="42.2652819" lon="13.9427215"><ele>194.0</ele><time>2026-05-02T07:35:32.938Z</time></trkpt><trkpt lat="42.2652503" lon="13.9426242"><ele>193.33333333333331</ele><time>2026-05-02T07:35:33.939Z</time></trkpt><trkpt lat="42.2652173" lon="13.9425422"><ele>192.66666666666666</ele><time>2026-05-02T07:35:34.94Z</time></trkpt><trkpt lat="42.2651781" lon="13.9424531"><ele>192.0</ele><time>2026-05-02T07:35:35.94Z</time></trkpt><trkpt lat="42.265137" lon="13.9423635"><ele>194.5</ele><time>2026-05-02T07:35:36.939Z</time></trkpt><trkpt lat="42.2651004" lon="13.9422686"><ele>197.0</ele><time>2026-05-02T07:35:37.939Z</time></trkpt><trkpt lat="42.2650629" lon="13.9421704"><ele>199.5</ele><time>2026-05-02T07:35:38.939Z</time></trkpt><trkpt lat="42.2650249" lon="13.942068"><ele>202.0</ele><time>2026-05-02T07:35:39.938Z</time></trkpt><trkpt lat="42.2649841" lon="13.9419658"><ele>204.5</ele><time>2026-05-02T07:35:40.94Z</time></trkpt><trkpt lat="42.2649411" lon="13.94187"><ele>207.0</ele><time>2026-05-02T07:35:41.939Z</time></trkpt><trkpt lat="42.2649034" lon="13.9417834"><ele>207.5</ele><time>2026-05-02T07:35:42.939Z</time></trkpt><trkpt lat="42.2648634" lon="13.9416986"><ele>208.0</ele><time>2026-05-02T07:35:43.939Z</time></trkpt><trkpt lat="42.2648235" lon="13.9415996"><ele>208.5</ele><time>2026-05-02T07:35:44.94Z</time></trkpt><trkpt lat="42.2647982" lon="13.9414934"><ele>209.0</ele><time>2026-05-02T07:35:45.94Z</time></trkpt><trkpt lat="42.2647794" lon="13.9414003"><ele>209.5</ele><time>2026-05-02T07:35:46.939Z</time></trkpt><trkpt lat="42.2647641" lon="13.9413024"><ele>210.0</ele><time>2026-05-02T07:35:47.939Z</time></trkpt><trkpt lat="42.264758" lon="13.9412122"><ele>210.0</ele><time>2026-05-02T07:35:48.939Z</time></trkpt><trkpt lat="42.2647536" lon="13.9411137"><ele>210.0</ele><time>2026-05-02T07:35:49.94Z</time></trkpt><trkpt lat="42.2647521" lon="13.9410155"><ele>210.0</ele><time>2026-05-02T07:35:50.939Z</time></trkpt><trkpt lat="42.2647453" lon="13.9409085"><ele>210.0</ele><time>2026-05-02T07:35:51.939Z</time></trkpt><trkpt lat="42.264729" lon="13.9407995"><ele>210.0</ele><time>2026-05-02T07:35:52.94Z</time></trkpt><trkpt lat="42.2647002" lon="13.9406778"><ele>210.0</ele><time>2026-05-02T07:35:53.94Z</time></trkpt><trkpt lat="42.2646739" lon="13.9405616"><ele>212.4</ele><time>2026-05-02T07:35:54.94Z</time></trkpt><trkpt lat="42.2646471" lon="13.9404438"><ele>214.8</ele><time>2026-05-02T07:35:55.94Z</time></trkpt><trkpt lat="42.2646268" lon="13.940325"><ele>217.2</ele><time>2026-05-02T07:35:56.94Z</time></trkpt><trkpt lat="42.2646066" lon="13.9402049"><ele>219.6</ele><time>2026-05-02T07:35:57.94Z</time></trkpt><trkpt lat="42.2645803" lon="13.9400861"><ele>222.0</ele><time>2026-05-02T07:35:58.938Z</time></trkpt><trkpt lat="42.2645675" lon="13.9399577"><ele>222.83333333333334</ele><time>2026-05-02T07:35:59.939Z</time></trkpt><trkpt lat="42.2645458" lon="13.9398312"><ele>223.66666666666669</ele><time>2026-05-02T07:36:00.94Z</time></trkpt><trkpt lat="42.26453" lon="13.9397028"><ele>224.5</ele><time>2026-05-02T07:36:01.94Z</time></trkpt><trkpt lat="42.2645134" lon="13.939581"><ele>225.33333333333334</ele><time>2026-05-02T07:36:02.94Z</time></trkpt><trkpt lat="42.2644882" lon="13.93947"><ele>226.16666666666669</ele><time>2026-05-02T07:36:03.939Z</time></trkpt><trkpt lat="42.264461" lon="13.9393825"><ele>227.0</ele><time>2026-05-02T07:36:04.939Z</time></trkpt><trkpt lat="42.264431" lon="13.9392928"><ele>228.66666666666669</ele><time>2026-05-02T07:36:05.939Z</time></trkpt><trkpt lat="42.2643955" lon="13.9391948"><ele>230.33333333333334</ele><time>2026-05-02T07:36:06.939Z</time></trkpt><trkpt lat="42.264363" lon="13.9390976"><ele>232.0</ele><time>2026-05-02T07:36:07.939Z</time></trkpt><trkpt lat="42.2643039" lon="13.9390006"><ele>233.66666666666669</ele><time>2026-05-02T07:36:08.941Z</time></trkpt><trkpt lat="42.2642472" lon="13.9389188"><ele>235.33333333333334</ele><time>2026-05-02T07:36:09.939Z</time></trkpt><trkpt lat="42.2641839" lon="13.9388321"><ele>237.0</ele><time>2026-05-02T07:36:10.94Z</time></trkpt><trkpt lat="42.2641186" lon="13.9387401"><ele>237.0</ele><time>2026-05-02T07:36:11.939Z</time></trkpt><trkpt lat="42.2640558" lon="13.9386462"><ele>237.0</ele><time>2026-05-02T07:36:12.94Z</time></trkpt><trkpt lat="42.263991" lon="13.9385608"><ele>237.0</ele><time>2026-05-02T07:36:13.938Z</time></trkpt><trkpt lat="42.2639184" lon="13.9384777"><ele>237.0</ele><time>2026-05-02T07:36:14.938Z</time></trkpt><trkpt lat="42.2638451" lon="13.9383814"><ele>237.0</ele><time>2026-05-02T07:36:15.938Z</time></trkpt><trkpt lat="42.2637721" lon="13.9382846"><ele>237.39999999999998</ele><time>2026-05-02T07:36:16.939Z</time></trkpt><trkpt lat="42.2636997" lon="13.9381874"><ele>237.79999999999998</ele><time>2026-05-02T07:36:17.941Z</time></trkpt><trkpt lat="42.263634" lon="13.9380867"><ele>238.2</ele><time>2026-05-02T07:36:18.94Z</time></trkpt><trkpt lat="42.2635738" lon="13.9379789"><ele>238.6</ele><time>2026-05-02T07:36:19.939Z</time></trkpt><trkpt lat="42.2635315" lon="13.9378638"><ele>239.0</ele><time>2026-05-02T07:36:20.94Z</time></trkpt><trkpt lat="42.2634843" lon="13.9377567"><ele>239.0</ele><time>2026-05-02T07:36:21.939Z</time></trkpt><trkpt lat="42.2634412" lon="13.9376458"><ele>238.99999999999997</ele><time>2026-05-02T07:36:22.939Z</time></trkpt><trkpt lat="42.263401" lon="13.9375309"><ele>238.99999999999997</ele><time>2026-05-02T07:36:23.939Z</time></trkpt><trkpt lat="42.2633671" lon="13.9374125"><ele>239.0</ele><time>2026-05-02T07:36:24.94Z</time></trkpt><trkpt lat="42.2633394" lon="13.9372959"><ele>239.0</ele><time>2026-05-02T07:36:25.939Z</time></trkpt><trkpt lat="42.2633174" lon="13.9371729"><ele>242.79999999999998</ele><time>2026-05-02T07:36:26.94Z</time></trkpt><trkpt lat="42.2632986" lon="13.9370403"><ele>246.59999999999997</ele><time>2026-05-02T07:36:27.94Z</time></trkpt><trkpt lat="42.2632796" lon="13.93691"><ele>250.4</ele><time>2026-05-02T07:36:28.939Z</time></trkpt><trkpt lat="42.2632559" lon="13.9367848"><ele>254.2</ele><time>2026-05-02T07:36:29.94Z</time></trkpt><trkpt lat="42.2632252" lon="13.9366729"><ele>258.0</ele><time>2026-05-02T07:36:30.939Z</time></trkpt><trkpt lat="42.2631845" lon="13.9365795"><ele>258.99999999999994</ele><time>2026-05-02T07:36:31.939Z</time></trkpt><trkpt lat="42.2631374" lon="13.9365127"><ele>260.0</ele><time>2026-05-02T07:36:32.939Z</time></trkpt><trkpt lat="42.2630809" lon="13.9364643"><ele>261.0</ele><time>2026-05-02T07:36:33.94Z</time></trkpt><trkpt lat="42.2630163" lon="13.9364363"><ele>262.0</ele><time>2026-05-02T07:36:34.94Z</time></trkpt><trkpt lat="42.2629453" lon="13.9364324"><ele>263.0</ele><time>2026-05-02T07:36:35.939Z</time></trkpt><trkpt lat="42.2628626" lon="13.9364247"><ele>263.99999999999994</ele><time>2026-05-02T07:36:36.941Z</time></trkpt><trkpt lat="42.2627786" lon="13.9364018"><ele>265.0</ele><time>2026-05-02T07:36:37.939Z</time></trkpt><trkpt lat="42.2627058" lon="13.9363566"><ele>265.0</ele><time>2026-05-02T07:36:38.939Z</time></trkpt><trkpt lat="42.2626434" lon="13.9363019"><ele>265.0</ele><time>2026-05-02T07:36:39.94Z</time></trkpt><trkpt lat="42.2625871" lon="13.9362413"><ele>265.0</ele><time>2026-05-02T07:36:40.94Z</time></trkpt><trkpt lat="42.2625384" lon="13.936174"><ele>265.0</ele><time>2026-05-02T07:36:41.94Z</time></trkpt><trkpt lat="42.2624924" lon="13.9360983"><ele>265.0</ele><time>2026-05-02T07:36:42.939Z</time></trkpt><trkpt lat="42.2624346" lon="13.9360171"><ele>265.0</ele><time>2026-05-02T07:36:43.939Z</time></trkpt><trkpt lat="42.2623677" lon="13.9359378"><ele>266.66666666666663</ele><time>2026-05-02T07:36:44.94Z</time></trkpt><trkpt lat="42.2622998" lon="13.9358574"><ele>268.3333333333333</ele><time>2026-05-02T07:36:45.939Z</time></trkpt><trkpt lat="42.2622363" lon="13.9357822"><ele>270.0</ele><time>2026-05-02T07:36:46.94Z</time></trkpt><trkpt lat="42.2621773" lon="13.9357098"><ele>271.6666666666667</ele><time>2026-05-02T07:36:47.94Z</time></trkpt><trkpt lat="42.2621235" lon="13.935622"><ele>273.33333333333337</ele><time>2026-05-02T07:36:48.939Z</time></trkpt><trkpt lat="42.2620929" lon="13.9355397"><ele>275.0</ele><time>2026-05-02T07:36:49.939Z</time></trkpt><trkpt lat="42.2620866" lon="13.9353521"><ele>275.0</ele><time>2026-05-02T07:36:51.939Z</time></trkpt><trkpt lat="42.2620945" lon="13.9352287"><ele>275.0</ele><time>2026-05-02T07:36:52.939Z</time></trkpt><trkpt lat="42.2620978" lon="13.935096"><ele>275.0</ele><time>2026-05-02T07:36:53.939Z</time></trkpt><trkpt lat="42.2620982" lon="13.9349704"><ele>275.0</ele><time>2026-05-02T07:36:54.939Z</time></trkpt><trkpt lat="42.2620966" lon="13.9348685"><ele>275.0</ele><time>2026-05-02T07:36:55.939Z</time></trkpt><trkpt lat="42.2620994" lon="13.9347802"><ele>275.0</ele><time>2026-05-02T07:36:56.939Z</time></trkpt><trkpt lat="42.2621" lon="13.9346278"><ele>276.1666666666667</ele><time>2026-05-02T07:36:58.94Z</time></trkpt><trkpt lat="42.2620976" lon="13.9345415"><ele>277.33333333333337</ele><time>2026-05-02T07:36:59.94Z</time></trkpt><trkpt lat="42.2620974" lon="13.9344433"><ele>278.5</ele><time>2026-05-02T07:37:00.939Z</time></trkpt><trkpt lat="42.2621002" lon="13.9343382"><ele>279.6666666666667</ele><time>2026-05-02T07:37:01.94Z</time></trkpt><trkpt lat="42.2620988" lon="13.9342476"><ele>280.8333333333333</ele><time>2026-05-02T07:37:02.939Z</time></trkpt><trkpt lat="42.2620806" lon="13.9341359"><ele>282.0</ele><time>2026-05-02T07:37:04.94Z</time></trkpt><trkpt lat="42.2619985" lon="13.9340968"><ele>283.1666666666667</ele><time>2026-05-02T07:37:07.94Z</time></trkpt><trkpt lat="42.2618962" lon="13.9341014"><ele>284.3333333333333</ele><time>2026-05-02T07:37:09.939Z</time></trkpt><trkpt lat="42.261832" lon="13.9340955"><ele>285.5</ele><time>2026-05-02T07:37:10.939Z</time></trkpt><trkpt lat="42.261767" lon="13.9340918"><ele>286.66666666666663</ele><time>2026-05-02T07:37:11.939Z</time></trkpt><trkpt lat="42.2616886" lon="13.9340764"><ele>287.8333333333333</ele><time>2026-05-02T07:37:12.939Z</time></trkpt><trkpt lat="42.2615974" lon="13.9340442"><ele>289.0</ele><time>2026-05-02T07:37:13.939Z</time></trkpt><trkpt lat="42.2614958" lon="13.9339994"><ele>287.25</ele><time>2026-05-02T07:37:14.94Z</time></trkpt><trkpt lat="42.2613824" lon="13.9339488"><ele>285.5</ele><time>2026-05-02T07:37:15.939Z</time></trkpt><trkpt lat="42.2612601" lon="13.9338885"><ele>283.75</ele><time>2026-05-02T07:37:16.94Z</time></trkpt><trkpt lat="42.2611451" lon="13.9338343"><ele>282.0</ele><time>2026-05-02T07:37:17.939Z</time></trkpt><trkpt lat="42.2610352" lon="13.933779"><ele>282.0</ele><time>2026-05-02T07:37:18.941Z</time></trkpt><trkpt lat="42.2609378" lon="13.9337276"><ele>282.0</ele><time>2026-05-02T07:37:19.939Z</time></trkpt><trkpt lat="42.2608489" lon="13.9336848"><ele>282.0</ele><time>2026-05-02T07:37:20.938Z</time></trkpt><trkpt lat="42.2607526" lon="13.9336369"><ele>282.0</ele><time>2026-05-02T07:37:21.94Z</time></trkpt><trkpt lat="42.2606507" lon="13.9335891"><ele>282.0</ele><time>2026-05-02T07:37:22.939Z</time></trkpt><trkpt lat="42.2605414" lon="13.9335421"><ele>282.4</ele><time>2026-05-02T07:37:23.939Z</time></trkpt><trkpt lat="42.260432" lon="13.9335065"><ele>282.79999999999995</ele><time>2026-05-02T07:37:24.94Z</time></trkpt><trkpt lat="42.2603254" lon="13.9335075"><ele>283.2</ele><time>2026-05-02T07:37:25.939Z</time></trkpt><trkpt lat="42.2602156" lon="13.9335237"><ele>283.59999999999997</ele><time>2026-05-02T07:37:26.938Z</time></trkpt><trkpt lat="42.2601038" lon="13.9335407"><ele>284.0</ele><time>2026-05-02T07:37:27.939Z</time></trkpt><trkpt lat="42.2600037" lon="13.9335515"><ele>284.0</ele><time>2026-05-02T07:37:28.94Z</time></trkpt><trkpt lat="42.2599148" lon="13.9335586"><ele>284.0</ele><time>2026-05-02T07:37:29.939Z</time></trkpt><trkpt lat="42.2598301" lon="13.9335663"><ele>284.0</ele><time>2026-05-02T07:37:30.94Z</time></trkpt><trkpt lat="42.2597435" lon="13.9335681"><ele>284.0</ele><time>2026-05-02T07:37:31.94Z</time></trkpt><trkpt lat="42.2596581" lon="13.9335609"><ele>284.0</ele><time>2026-05-02T07:37:32.939Z</time></trkpt><trkpt lat="42.2595672" lon="13.9335443"><ele>284.0</ele><time>2026-05-02T07:37:33.939Z</time></trkpt><trkpt lat="42.2594775" lon="13.9334962"><ele>283.0</ele><time>2026-05-02T07:37:34.941Z</time></trkpt><trkpt lat="42.2593913" lon="13.9334417"><ele>282.0</ele><time>2026-05-02T07:37:35.939Z</time></trkpt><trkpt lat="42.2593061" lon="13.9333809"><ele>281.0</ele><time>2026-05-02T07:37:36.94Z</time></trkpt><trkpt lat="42.2592169" lon="13.933311"><ele>280.0</ele><time>2026-05-02T07:37:37.939Z</time></trkpt><trkpt lat="42.2591161" lon="13.9332405"><ele>279.0</ele><time>2026-05-02T07:37:38.94Z</time></trkpt><trkpt lat="42.2590112" lon="13.9331773"><ele>282.75</ele><time>2026-05-02T07:37:39.938Z</time></trkpt><trkpt lat="42.2589017" lon="13.9331214"><ele>286.5</ele><time>2026-05-02T07:37:40.939Z</time></trkpt><trkpt lat="42.258784" lon="13.9330827"><ele>290.25</ele><time>2026-05-02T07:37:41.939Z</time></trkpt><trkpt lat="42.2586611" lon="13.933065"><ele>294.0</ele><time>2026-05-02T07:37:42.939Z</time></trkpt><trkpt lat="42.2585397" lon="13.9330677"><ele>294.0</ele><time>2026-05-02T07:37:43.938Z</time></trkpt><trkpt lat="42.2584321" lon="13.9330856"><ele>294.0</ele><time>2026-05-02T07:37:44.94Z</time></trkpt><trkpt lat="42.2583294" lon="13.933104"><ele>294.0</ele><time>2026-05-02T07:37:45.939Z</time></trkpt><trkpt lat="42.2582164" lon="13.9331218"><ele>294.0</ele><time>2026-05-02T07:37:46.94Z</time></trkpt><trkpt lat="42.2581106" lon="13.9331326"><ele>294.0</ele><time>2026-05-02T07:37:47.941Z</time></trkpt><trkpt lat="42.2579968" lon="13.9331255"><ele>295.25</ele><time>2026-05-02T07:37:48.939Z</time></trkpt><trkpt lat="42.257882" lon="13.9331042"><ele>296.5</ele><time>2026-05-02T07:37:49.939Z</time></trkpt><trkpt lat="42.2577646" lon="13.9330881"><ele>297.75</ele><time>2026-05-02T07:37:50.939Z</time></trkpt><trkpt lat="42.2576521" lon="13.9330956"><ele>299.0</ele><time>2026-05-02T07:37:51.939Z</time></trkpt><trkpt lat="42.2575374" lon="13.9331146"><ele>299.0</ele><time>2026-05-02T07:37:52.939Z</time></trkpt><trkpt lat="42.2574229" lon="13.9331434"><ele>299.0</ele><time>2026-05-02T07:37:53.939Z</time></trkpt><trkpt lat="42.2573055" lon="13.9331683"><ele>299.0</ele><time>2026-05-02T07:37:54.94Z</time></trkpt><trkpt lat="42.2571912" lon="13.933193"><ele>299.0</ele><time>2026-05-02T07:37:55.939Z</time></trkpt><trkpt lat="42.2570765" lon="13.9332336"><ele>300.0</ele><time>2026-05-02T07:37:56.94Z</time></trkpt><trkpt lat="42.2569702" lon="13.9332804"><ele>301.0</ele><time>2026-05-02T07:37:57.941Z</time></trkpt><trkpt lat="42.2568602" lon="13.9333146"><ele>302.0</ele><time>2026-05-02T07:37:58.939Z</time></trkpt><trkpt lat="42.2567553" lon="13.9333264"><ele>303.0</ele><time>2026-05-02T07:37:59.94Z</time></trkpt><trkpt lat="42.2566467" lon="13.9333218"><ele>304.0</ele><time>2026-05-02T07:38:00.939Z</time></trkpt><trkpt lat="42.2565338" lon="13.9333029"><ele>303.75</ele><time>2026-05-02T07:38:01.939Z</time></trkpt><trkpt lat="42.2564158" lon="13.9332687"><ele>303.5</ele><time>2026-05-02T07:38:02.941Z</time></trkpt><trkpt lat="42.2562967" lon="13.9332296"><ele>303.25</ele><time>2026-05-02T07:38:03.94Z</time></trkpt><trkpt lat="42.2561854" lon="13.9331799"><ele>303.0</ele><time>2026-05-02T07:38:04.939Z</time></trkpt><trkpt lat="42.2560867" lon="13.9331364"><ele>303.0</ele><time>2026-05-02T07:38:05.939Z</time></trkpt><trkpt lat="42.2559965" lon="13.9331013"><ele>303.0</ele><time>2026-05-02T07:38:06.939Z</time></trkpt><trkpt lat="42.2559045" lon="13.9330761"><ele>303.0</ele><time>2026-05-02T07:38:07.939Z</time></trkpt><trkpt lat="42.255823" lon="13.9330326"><ele>303.0</ele><time>2026-05-02T07:38:08.94Z</time></trkpt><trkpt lat="42.2557518" lon="13.9329728"><ele>303.0</ele><time>2026-05-02T07:38:09.938Z</time></trkpt><trkpt lat="42.2557004" lon="13.9329033"><ele>303.0</ele><time>2026-05-02T07:38:10.939Z</time></trkpt><trkpt lat="42.2556682" lon="13.9327951"><ele>303.0</ele><time>2026-05-02T07:38:11.939Z</time></trkpt><trkpt lat="42.2556577" lon="13.93266"><ele>303.0</ele><time>2026-05-02T07:38:12.94Z</time></trkpt><trkpt lat="42.2556518" lon="13.9325059"><ele>303.0</ele><time>2026-05-02T07:38:13.94Z</time></trkpt><trkpt lat="42.2556388" lon="13.9323595"><ele>303.0</ele><time>2026-05-02T07:38:14.94Z</time></trkpt><trkpt lat="42.255591" lon="13.932235"><ele>303.0</ele><time>2026-05-02T07:38:15.94Z</time></trkpt><trkpt lat="42.2555316" lon="13.9321087"><ele>301.6</ele><time>2026-05-02T07:38:16.939Z</time></trkpt><trkpt lat="42.2554643" lon="13.9319962"><ele>300.20000000000005</ele><time>2026-05-02T07:38:17.939Z</time></trkpt><trkpt lat="42.2553876" lon="13.9318988"><ele>298.8</ele><time>2026-05-02T07:38:18.938Z</time></trkpt><trkpt lat="42.2553064" lon="13.9318164"><ele>297.40000000000003</ele><time>2026-05-02T07:38:19.938Z</time></trkpt><trkpt lat="42.2552128" lon="13.9317546"><ele>296.0</ele><time>2026-05-02T07:38:20.94Z</time></trkpt><trkpt lat="42.2551" lon="13.9317216"><ele>296.0</ele><time>2026-05-02T07:38:21.939Z</time></trkpt><trkpt lat="42.2549934" lon="13.9316923"><ele>296.0</ele><time>2026-05-02T07:38:22.939Z</time></trkpt><trkpt lat="42.2549011" lon="13.9316373"><ele>296.0</ele><time>2026-05-02T07:38:23.941Z</time></trkpt><trkpt lat="42.2548222" lon="13.9315614"><ele>296.0</ele><time>2026-05-02T07:38:24.941Z</time></trkpt><trkpt lat="42.2547581" lon="13.9314947"><ele>296.0</ele><time>2026-05-02T07:38:25.939Z</time></trkpt><trkpt lat="42.2546921" lon="13.9314484"><ele>295.0</ele><time>2026-05-02T07:38:26.94Z</time></trkpt><trkpt lat="42.2546105" lon="13.9314483"><ele>294.0</ele><time>2026-05-02T07:38:27.939Z</time></trkpt><trkpt lat="42.2545228" lon="13.9314742"><ele>293.0</ele><time>2026-05-02T07:38:28.941Z</time></trkpt><trkpt lat="42.2544298" lon="13.9315045"><ele>292.0</ele><time>2026-05-02T07:38:29.94Z</time></trkpt><trkpt lat="42.2543088" lon="13.9315459"><ele>291.0</ele><time>2026-05-02T07:38:30.939Z</time></trkpt><trkpt lat="42.2541902" lon="13.9315786"><ele>291.0</ele><time>2026-05-02T07:38:31.94Z</time></trkpt><trkpt lat="42.2540747" lon="13.931604"><ele>291.0</ele><time>2026-05-02T07:38:32.939Z</time></trkpt><trkpt lat="42.2539608" lon="13.9316205"><ele>291.0</ele><time>2026-05-02T07:38:33.939Z</time></trkpt><trkpt lat="42.2538527" lon="13.9316174"><ele>291.0</ele><time>2026-05-02T07:38:34.94Z</time></trkpt><trkpt lat="42.2537511" lon="13.9316066"><ele>291.0</ele><time>2026-05-02T07:38:35.94Z</time></trkpt><trkpt lat="42.2536572" lon="13.9315826"><ele>290.25</ele><time>2026-05-02T07:38:36.94Z</time></trkpt><trkpt lat="42.2535655" lon="13.931529"><ele>289.5</ele><time>2026-05-02T07:38:37.939Z</time></trkpt><trkpt lat="42.2534658" lon="13.9314576"><ele>288.75</ele><time>2026-05-02T07:38:38.94Z</time></trkpt><trkpt lat="42.2533619" lon="13.931384"><ele>288.0</ele><time>2026-05-02T07:38:39.939Z</time></trkpt><trkpt lat="42.2532507" lon="13.9313196"><ele>288.0</ele><time>2026-05-02T07:38:40.94Z</time></trkpt><trkpt lat="42.2531395" lon="13.9312621"><ele>288.0</ele><time>2026-05-02T07:38:41.938Z</time></trkpt><trkpt lat="42.2530198" lon="13.9312185"><ele>288.0</ele><time>2026-05-02T07:38:42.941Z</time></trkpt><trkpt lat="42.2529018" lon="13.9311783"><ele>288.0</ele><time>2026-05-02T07:38:43.939Z</time></trkpt><trkpt lat="42.2527862" lon="13.9311511"><ele>286.8</ele><time>2026-05-02T07:38:44.939Z</time></trkpt><trkpt lat="42.2526741" lon="13.9311293"><ele>285.6</ele><time>2026-05-02T07:38:45.94Z</time></trkpt><trkpt lat="42.2525767" lon="13.9311078"><ele>284.4</ele><time>2026-05-02T07:38:46.939Z</time></trkpt><trkpt lat="42.2524914" lon="13.9310765"><ele>283.2</ele><time>2026-05-02T07:38:47.94Z</time></trkpt><trkpt lat="42.2524181" lon="13.9310215"><ele>282.0</ele><time>2026-05-02T07:38:48.939Z</time></trkpt><trkpt lat="42.2523628" lon="13.9309514"><ele>280.6</ele><time>2026-05-02T07:38:49.939Z</time></trkpt><trkpt lat="42.252332" lon="13.9308556"><ele>279.2</ele><time>2026-05-02T07:38:50.939Z</time></trkpt><trkpt lat="42.2523098" lon="13.9307344"><ele>277.8</ele><time>2026-05-02T07:38:51.939Z</time></trkpt><trkpt lat="42.2522847" lon="13.9305917"><ele>276.4</ele><time>2026-05-02T07:38:52.939Z</time></trkpt><trkpt lat="42.2522532" lon="13.9304593"><ele>275.0</ele><time>2026-05-02T07:38:53.94Z</time></trkpt><trkpt lat="42.2522045" lon="13.9303379"><ele>275.0</ele><time>2026-05-02T07:38:54.941Z</time></trkpt><trkpt lat="42.2521505" lon="13.9302234"><ele>275.0</ele><time>2026-05-02T07:38:55.939Z</time></trkpt><trkpt lat="42.2520828" lon="13.9301166"><ele>275.0</ele><time>2026-05-02T07:38:56.94Z</time></trkpt><trkpt lat="42.2519978" lon="13.9300272"><ele>275.0</ele><time>2026-05-02T07:38:57.939Z</time></trkpt><trkpt lat="42.2519006" lon="13.9299612"><ele>275.0</ele><time>2026-05-02T07:38:58.939Z</time></trkpt><trkpt lat="42.2517854" lon="13.9299153"><ele>275.0</ele><time>2026-05-02T07:38:59.94Z</time></trkpt><trkpt lat="42.2516748" lon="13.9298884"><ele>275.0</ele><time>2026-05-02T07:39:00.941Z</time></trkpt><trkpt lat="42.2515691" lon="13.9298571"><ele>275.0</ele><time>2026-05-02T07:39:01.94Z</time></trkpt><trkpt lat="42.2514745" lon="13.9298133"><ele>275.0</ele><time>2026-05-02T07:39:02.941Z</time></trkpt><trkpt lat="42.2513964" lon="13.9297528"><ele>275.0</ele><time>2026-05-02T07:39:03.939Z</time></trkpt><trkpt lat="42.2513356" lon="13.9296967"><ele>271.83333333333337</ele><time>2026-05-02T07:39:04.94Z</time></trkpt><trkpt lat="42.2512667" lon="13.9296621"><ele>268.6666666666667</ele><time>2026-05-02T07:39:05.939Z</time></trkpt><trkpt lat="42.2511998" lon="13.9296668"><ele>265.5</ele><time>2026-05-02T07:39:06.938Z</time></trkpt><trkpt lat="42.2511378" lon="13.9297049"><ele>262.3333333333333</ele><time>2026-05-02T07:39:07.94Z</time></trkpt><trkpt lat="42.2510823" lon="13.9297722"><ele>259.16666666666663</ele><time>2026-05-02T07:39:08.94Z</time></trkpt><trkpt lat="42.2509889" lon="13.9298559"><ele>256.0</ele><time>2026-05-02T07:39:10.938Z</time></trkpt><trkpt lat="42.2509102" lon="13.9297971"><ele>255.99999999999997</ele><time>2026-05-02T07:39:12.938Z</time></trkpt><trkpt lat="42.2508999" lon="13.9296795"><ele>256.0</ele><time>2026-05-02T07:39:14.939Z</time></trkpt><trkpt lat="42.2509575" lon="13.9295969"><ele>256.0</ele><time>2026-05-02T07:39:15.939Z</time></trkpt><trkpt lat="42.2510045" lon="13.9294982"><ele>256.0</ele><time>2026-05-02T07:39:16.941Z</time></trkpt><trkpt lat="42.2510421" lon="13.9293996"><ele>255.99999999999997</ele><time>2026-05-02T07:39:17.94Z</time></trkpt><trkpt lat="42.2510745" lon="13.9292934"><ele>256.0</ele><time>2026-05-02T07:39:18.94Z</time></trkpt><trkpt lat="42.2511078" lon="13.9291885"><ele>255.99999999999997</ele><time>2026-05-02T07:39:19.938Z</time></trkpt><trkpt lat="42.2511359" lon="13.9290958"><ele>256.0</ele><time>2026-05-02T07:39:20.941Z</time></trkpt><trkpt lat="42.2511562" lon="13.9290133"><ele>256.0</ele><time>2026-05-02T07:39:21.94Z</time></trkpt><trkpt lat="42.2511613" lon="13.9288886"><ele>256.0</ele><time>2026-05-02T07:39:23.94Z</time></trkpt><trkpt lat="42.2510902" lon="13.9289004"><ele>255.99999999999997</ele><time>2026-05-02T07:39:25.939Z</time></trkpt><trkpt lat="42.2510221" lon="13.9290672"><ele>256.0</ele><time>2026-05-02T07:39:27.939Z</time></trkpt><trkpt lat="42.2509561" lon="13.9291695"><ele>256.0</ele><time>2026-05-02T07:39:28.938Z</time></trkpt><trkpt lat="42.2508749" lon="13.9292746"><ele>256.0</ele><time>2026-05-02T07:39:29.94Z</time></trkpt><trkpt lat="42.2507818" lon="13.9293651"><ele>256.0</ele><time>2026-05-02T07:39:30.939Z</time></trkpt><trkpt lat="42.2506854" lon="13.9294763"><ele>256.0</ele><time>2026-05-02T07:39:31.94Z</time></trkpt><trkpt lat="42.2506087" lon="13.9296078"><ele>250.25</ele><time>2026-05-02T07:39:32.938Z</time></trkpt><trkpt lat="42.2505546" lon="13.929755"><ele>244.5</ele><time>2026-05-02T07:39:33.939Z</time></trkpt><trkpt lat="42.2505322" lon="13.9299099"><ele>238.75</ele><time>2026-05-02T07:39:34.94Z</time></trkpt><trkpt lat="42.2505344" lon="13.9300637"><ele>233.0</ele><time>2026-05-02T07:39:35.939Z</time></trkpt><trkpt lat="42.250562" lon="13.9302195"><ele>232.25</ele><time>2026-05-02T07:39:36.939Z</time></trkpt><trkpt lat="42.2506161" lon="13.9303597"><ele>231.5</ele><time>2026-05-02T07:39:37.938Z</time></trkpt><trkpt lat="42.2506882" lon="13.9304921"><ele>230.75</ele><time>2026-05-02T07:39:38.941Z</time></trkpt><trkpt lat="42.2507441" lon="13.9306326"><ele>230.0</ele><time>2026-05-02T07:39:39.939Z</time></trkpt><trkpt lat="42.2507739" lon="13.9307804"><ele>235.0</ele><time>2026-05-02T07:39:40.939Z</time></trkpt><trkpt lat="42.2507875" lon="13.9309349"><ele>240.0</ele><time>2026-05-02T07:39:41.939Z</time></trkpt><trkpt lat="42.2507879" lon="13.9310959"><ele>245.0</ele><time>2026-05-02T07:39:42.94Z</time></trkpt><trkpt lat="42.2507465" lon="13.9312735"><ele>250.0</ele><time>2026-05-02T07:39:43.938Z</time></trkpt><trkpt lat="42.2507012" lon="13.9314442"><ele>250.0</ele><time>2026-05-02T07:39:44.939Z</time></trkpt><trkpt lat="42.2506494" lon="13.9316016"><ele>250.0</ele><time>2026-05-02T07:39:45.941Z</time></trkpt><trkpt lat="42.250588" lon="13.9317526"><ele>250.0</ele><time>2026-05-02T07:39:46.938Z</time></trkpt><trkpt lat="42.2505273" lon="13.9318925"><ele>250.0</ele><time>2026-05-02T07:39:47.941Z</time></trkpt><trkpt lat="42.250474" lon="13.9320342"><ele>245.0</ele><time>2026-05-02T07:39:48.938Z</time></trkpt><trkpt lat="42.2504225" lon="13.932174"><ele>240.0</ele><time>2026-05-02T07:39:49.939Z</time></trkpt><trkpt lat="42.2503864" lon="13.9323082"><ele>235.0</ele><time>2026-05-02T07:39:50.94Z</time></trkpt><trkpt lat="42.2503562" lon="13.9324309"><ele>230.0</ele><time>2026-05-02T07:39:51.938Z</time></trkpt><trkpt lat="42.2503338" lon="13.9325361"><ele>225.0</ele><time>2026-05-02T07:39:52.938Z</time></trkpt><trkpt lat="42.2503136" lon="13.9326294"><ele>223.8</ele><time>2026-05-02T07:39:53.939Z</time></trkpt><trkpt lat="42.2502923" lon="13.9327096"><ele>222.6</ele><time>2026-05-02T07:39:54.94Z</time></trkpt><trkpt lat="42.2502961" lon="13.9328528"><ele>221.39999999999998</ele><time>2026-05-02T07:39:56.939Z</time></trkpt><trkpt lat="42.2503915" lon="13.9329878"><ele>220.2</ele><time>2026-05-02T07:39:58.94Z</time></trkpt><trkpt lat="42.2504659" lon="13.9330624"><ele>219.0</ele><time>2026-05-02T07:39:59.938Z</time></trkpt><trkpt lat="42.2505539" lon="13.9331385"><ele>218.0</ele><time>2026-05-02T07:40:00.938Z</time></trkpt><trkpt lat="42.2506504" lon="13.9332217"><ele>216.99999999999997</ele><time>2026-05-02T07:40:01.939Z</time></trkpt><trkpt lat="42.2507409" lon="13.9332965"><ele>215.99999999999997</ele><time>2026-05-02T07:40:02.94Z</time></trkpt><trkpt lat="42.2508391" lon="13.9333557"><ele>215.0</ele><time>2026-05-02T07:40:03.94Z</time></trkpt><trkpt lat="42.2509503" lon="13.9334022"><ele>214.0</ele><time>2026-05-02T07:40:04.938Z</time></trkpt><trkpt lat="42.2510674" lon="13.9334485"><ele>214.0</ele><time>2026-05-02T07:40:05.939Z</time></trkpt><trkpt lat="42.2511908" lon="13.9335008"><ele>214.0</ele><time>2026-05-02T07:40:06.939Z</time></trkpt><trkpt lat="42.251315" lon="13.9335714"><ele>214.0</ele><time>2026-05-02T07:40:07.94Z</time></trkpt><trkpt lat="42.2514341" lon="13.9336526"><ele>214.0</ele><time>2026-05-02T07:40:08.939Z</time></trkpt><trkpt lat="42.2515479" lon="13.9337279"><ele>217.5</ele><time>2026-05-02T07:40:09.939Z</time></trkpt><trkpt lat="42.2516535" lon="13.9337871"><ele>221.0</ele><time>2026-05-02T07:40:10.939Z</time></trkpt><trkpt lat="42.2517654" lon="13.9338524"><ele>224.5</ele><time>2026-05-02T07:40:11.939Z</time></trkpt><trkpt lat="42.2518873" lon="13.9339229"><ele>228.0</ele><time>2026-05-02T07:40:12.94Z</time></trkpt><trkpt lat="42.2520015" lon="13.9339893"><ele>228.0</ele><time>2026-05-02T07:40:13.938Z</time></trkpt><trkpt lat="42.2521211" lon="13.934052"><ele>228.0</ele><time>2026-05-02T07:40:14.939Z</time></trkpt><trkpt lat="42.2522298" lon="13.9341131"><ele>228.0</ele><time>2026-05-02T07:40:15.939Z</time></trkpt><trkpt lat="42.2523289" lon="13.9341712"><ele>228.0</ele><time>2026-05-02T07:40:16.94Z</time></trkpt><trkpt lat="42.2524078" lon="13.9342282"><ele>228.0</ele><time>2026-05-02T07:40:17.939Z</time></trkpt><trkpt lat="42.2524655" lon="13.9343033"><ele>230.83333333333334</ele><time>2026-05-02T07:40:18.94Z</time></trkpt><trkpt lat="42.2525106" lon="13.9343832"><ele>233.66666666666669</ele><time>2026-05-02T07:40:19.94Z</time></trkpt><trkpt lat="42.2525011" lon="13.9344831"><ele>236.5</ele><time>2026-05-02T07:40:20.94Z</time></trkpt><trkpt lat="42.2524898" lon="13.9345918"><ele>239.33333333333334</ele><time>2026-05-02T07:40:21.939Z</time></trkpt><trkpt lat="42.2524717" lon="13.9347085"><ele>242.16666666666669</ele><time>2026-05-02T07:40:22.941Z</time></trkpt><trkpt lat="42.2524621" lon="13.9348348"><ele>245.0</ele><time>2026-05-02T07:40:23.939Z</time></trkpt><trkpt lat="42.2524434" lon="13.9349608"><ele>244.4</ele><time>2026-05-02T07:40:24.94Z</time></trkpt><trkpt lat="42.2524086" lon="13.9350898"><ele>243.8</ele><time>2026-05-02T07:40:25.941Z</time></trkpt><trkpt lat="42.2523431" lon="13.9352002"><ele>243.2</ele><time>2026-05-02T07:40:26.939Z</time></trkpt><trkpt lat="42.2522584" lon="13.9353019"><ele>242.6</ele><time>2026-05-02T07:40:27.94Z</time></trkpt><trkpt lat="42.2521623" lon="13.9354051"><ele>242.0</ele><time>2026-05-02T07:40:28.939Z</time></trkpt><trkpt lat="42.2520593" lon="13.9355077"><ele>242.0</ele><time>2026-05-02T07:40:29.939Z</time></trkpt><trkpt lat="42.2519475" lon="13.9356033"><ele>242.0</ele><time>2026-05-02T07:40:30.939Z</time></trkpt><trkpt lat="42.2518397" lon="13.9356996"><ele>242.0</ele><time>2026-05-02T07:40:31.939Z</time></trkpt><trkpt lat="42.251749" lon="13.9357808"><ele>242.0</ele><time>2026-05-02T07:40:32.939Z</time></trkpt><trkpt lat="42.2516564" lon="13.9358782"><ele>244.0</ele><time>2026-05-02T07:40:33.939Z</time></trkpt><trkpt lat="42.2515583" lon="13.9359759"><ele>246.0</ele><time>2026-05-02T07:40:34.939Z</time></trkpt><trkpt lat="42.2514563" lon="13.936072"><ele>248.0</ele><time>2026-05-02T07:40:35.94Z</time></trkpt><trkpt lat="42.2513581" lon="13.9361714"><ele>250.0</ele><time>2026-05-02T07:40:36.939Z</time></trkpt><trkpt lat="42.2512655" lon="13.9362755"><ele>250.0</ele><time>2026-05-02T07:40:37.939Z</time></trkpt><trkpt lat="42.2511736" lon="13.9363782"><ele>250.0</ele><time>2026-05-02T07:40:38.94Z</time></trkpt><trkpt lat="42.2510821" lon="13.936487"><ele>250.0</ele><time>2026-05-02T07:40:39.939Z</time></trkpt><trkpt lat="42.2509951" lon="13.9365939"><ele>250.0</ele><time>2026-05-02T07:40:40.94Z</time></trkpt><trkpt lat="42.2509048" lon="13.9367009"><ele>252.33333333333331</ele><time>2026-05-02T07:40:41.939Z</time></trkpt><trkpt lat="42.2508191" lon="13.9367936"><ele>254.66666666666666</ele><time>2026-05-02T07:40:42.94Z</time></trkpt><trkpt lat="42.2507465" lon="13.9368712"><ele>257.0</ele><time>2026-05-02T07:40:43.939Z</time></trkpt><trkpt lat="42.2506698" lon="13.9369513"><ele>259.3333333333333</ele><time>2026-05-02T07:40:44.939Z</time></trkpt><trkpt lat="42.2506123" lon="13.937024"><ele>261.6666666666667</ele><time>2026-05-02T07:40:45.94Z</time></trkpt><trkpt lat="42.2505733" lon="13.9370929"><ele>264.0</ele><time>2026-05-02T07:40:46.939Z</time></trkpt><trkpt lat="42.2505271" lon="13.9372444"><ele>262.3333333333333</ele><time>2026-05-02T07:40:48.939Z</time></trkpt><trkpt lat="42.250527" lon="13.9373454"><ele>260.6666666666667</ele><time>2026-05-02T07:40:49.939Z</time></trkpt><trkpt lat="42.2505491" lon="13.9374544"><ele>259.0</ele><time>2026-05-02T07:40:50.939Z</time></trkpt><trkpt lat="42.2505875" lon="13.9375572"><ele>257.33333333333337</ele><time>2026-05-02T07:40:51.939Z</time></trkpt><trkpt lat="42.2506358" lon="13.937663"><ele>255.66666666666669</ele><time>2026-05-02T07:40:52.938Z</time></trkpt><trkpt lat="42.2506824" lon="13.9377558"><ele>254.0</ele><time>2026-05-02T07:40:53.938Z</time></trkpt><trkpt lat="42.2507517" lon="13.9378576"><ele>254.00000000000003</ele><time>2026-05-02T07:40:55.94Z</time></trkpt><trkpt lat="42.2507143" lon="13.9377556"><ele>254.0</ele><time>2026-05-02T07:41:04.938Z</time></trkpt><trkpt lat="42.2506657" lon="13.937665"><ele>254.0</ele><time>2026-05-02T07:41:05.94Z</time></trkpt><trkpt lat="42.2506224" lon="13.9375692"><ele>254.0</ele><time>2026-05-02T07:41:06.94Z</time></trkpt><trkpt lat="42.2505846" lon="13.9374726"><ele>254.00000000000003</ele><time>2026-05-02T07:41:07.939Z</time></trkpt><trkpt lat="42.2505533" lon="13.9373804"><ele>254.0</ele><time>2026-05-02T07:41:08.939Z</time></trkpt><trkpt lat="42.2505592" lon="13.9372248"><ele>256.5</ele><time>2026-05-02T07:41:10.94Z</time></trkpt><trkpt lat="42.2506249" lon="13.9370694"><ele>259.0</ele><time>2026-05-02T07:41:12.939Z</time></trkpt><trkpt lat="42.2506943" lon="13.9369856"><ele>261.5</ele><time>2026-05-02T07:41:13.939Z</time></trkpt><trkpt lat="42.2507783" lon="13.9368872"><ele>264.0</ele><time>2026-05-02T07:41:14.939Z</time></trkpt><trkpt lat="42.2508792" lon="13.9367713"><ele>260.5</ele><time>2026-05-02T07:41:15.94Z</time></trkpt><trkpt lat="42.2509778" lon="13.93666"><ele>257.0</ele><time>2026-05-02T07:41:16.94Z</time></trkpt><trkpt lat="42.25107" lon="13.936545"><ele>253.5</ele><time>2026-05-02T07:41:17.94Z</time></trkpt><trkpt lat="42.2511598" lon="13.9364324"><ele>250.0</ele><time>2026-05-02T07:41:18.94Z</time></trkpt><trkpt lat="42.2512475" lon="13.9363271"><ele>250.0</ele><time>2026-05-02T07:41:19.939Z</time></trkpt><trkpt lat="42.2513385" lon="13.9362263"><ele>250.0</ele><time>2026-05-02T07:41:20.938Z</time></trkpt><trkpt lat="42.2514256" lon="13.9361285"><ele>250.0</ele><time>2026-05-02T07:41:21.939Z</time></trkpt><trkpt lat="42.2515085" lon="13.936026"><ele>250.0</ele><time>2026-05-02T07:41:22.939Z</time></trkpt><trkpt lat="42.2515926" lon="13.9359379"><ele>248.0</ele><time>2026-05-02T07:41:23.939Z</time></trkpt><trkpt lat="42.2516944" lon="13.9358461"><ele>246.0</ele><time>2026-05-02T07:41:24.939Z</time></trkpt><trkpt lat="42.2517931" lon="13.9357571"><ele>244.0</ele><time>2026-05-02T07:41:25.939Z</time></trkpt><trkpt lat="42.2518934" lon="13.9356775"><ele>242.0</ele><time>2026-05-02T07:41:26.94Z</time></trkpt><trkpt lat="42.2519829" lon="13.9355956"><ele>242.0</ele><time>2026-05-02T07:41:27.94Z</time></trkpt><trkpt lat="42.2520696" lon="13.9355146"><ele>242.0</ele><time>2026-05-02T07:41:28.941Z</time></trkpt><trkpt lat="42.2521437" lon="13.9354369"><ele>242.0</ele><time>2026-05-02T07:41:29.94Z</time></trkpt><trkpt lat="42.2522133" lon="13.9353656"><ele>242.0</ele><time>2026-05-02T07:41:30.94Z</time></trkpt><trkpt lat="42.252287" lon="13.9352833"><ele>242.0</ele><time>2026-05-02T07:41:31.939Z</time></trkpt><trkpt lat="42.2523542" lon="13.9351998"><ele>242.50000000000003</ele><time>2026-05-02T07:41:32.939Z</time></trkpt><trkpt lat="42.2524011" lon="13.9351126"><ele>243.0</ele><time>2026-05-02T07:41:33.939Z</time></trkpt><trkpt lat="42.2524297" lon="13.9350259"><ele>243.5</ele><time>2026-05-02T07:41:34.938Z</time></trkpt><trkpt lat="42.2524562" lon="13.9348898"><ele>244.0</ele><time>2026-05-02T07:41:36.941Z</time></trkpt><trkpt lat="42.2524575" lon="13.9347927"><ele>244.50000000000003</ele><time>2026-05-02T07:41:53.939Z</time></trkpt><trkpt lat="42.2524015" lon="13.9347371"><ele>245.0</ele><time>2026-05-02T07:42:07.939Z</time></trkpt><trkpt lat="42.2523287" lon="13.934741"><ele>241.83333333333334</ele><time>2026-05-02T07:42:10.939Z</time></trkpt><trkpt lat="42.2522479" lon="13.9347436"><ele>238.66666666666669</ele><time>2026-05-02T07:42:13.939Z</time></trkpt><trkpt lat="42.252173" lon="13.9347481"><ele>235.5</ele><time>2026-05-02T07:43:17.939Z</time></trkpt><trkpt lat="42.2521022" lon="13.93476"><ele>232.33333333333331</ele><time>2026-05-02T07:43:19.939Z</time></trkpt><trkpt lat="42.2520222" lon="13.9347776"><ele>229.16666666666666</ele><time>2026-05-02T07:43:21.939Z</time></trkpt><trkpt lat="42.2519353" lon="13.9347873"><ele>226.0</ele><time>2026-05-02T07:43:23.938Z</time></trkpt><trkpt lat="42.2518655" lon="13.9347876"><ele>225.99999999999997</ele><time>2026-05-02T07:43:25.939Z</time></trkpt><trkpt lat="42.2517785" lon="13.9347873"><ele>226.0</ele><time>2026-05-02T07:43:28.94Z</time></trkpt><trkpt lat="42.2517002" lon="13.9347856"><ele>226.0</ele><time>2026-05-02T07:43:31.94Z</time></trkpt><trkpt lat="42.2516138" lon="13.9347895"><ele>226.0</ele><time>2026-05-02T07:43:34.938Z</time></trkpt><trkpt lat="42.2515498" lon="13.9347949"><ele>225.99999999999997</ele><time>2026-05-02T07:43:36.939Z</time></trkpt><trkpt lat="42.2514773" lon="13.9348103"><ele>226.0</ele><time>2026-05-02T07:43:38.939Z</time></trkpt><trkpt lat="42.251414" lon="13.9348272"><ele>222.83333333333331</ele><time>2026-05-02T07:43:40.94Z</time></trkpt><trkpt lat="42.2513311" lon="13.9348309"><ele>219.66666666666666</ele><time>2026-05-02T07:43:43.939Z</time></trkpt><trkpt lat="42.2512471" lon="13.9348383"><ele>216.5</ele><time>2026-05-02T07:43:46.939Z</time></trkpt><trkpt lat="42.2511768" lon="13.9348563"><ele>213.33333333333331</ele><time>2026-05-02T07:43:49.939Z</time></trkpt><trkpt lat="42.2510965" lon="13.9348801"><ele>210.16666666666666</ele><time>2026-05-02T07:43:52.94Z</time></trkpt><trkpt lat="42.251023" lon="13.9349132"><ele>207.0</ele><time>2026-05-02T07:43:55.94Z</time></trkpt><trkpt lat="42.2509512" lon="13.934937"><ele>207.0</ele><time>2026-05-02T07:43:58.939Z</time></trkpt><trkpt lat="42.2508755" lon="13.9349352"><ele>207.0</ele><time>2026-05-02T07:44:01.939Z</time></trkpt><trkpt lat="42.2508113" lon="13.93493"><ele>207.0</ele><time>2026-05-02T07:44:03.938Z</time></trkpt><trkpt lat="42.2507355" lon="13.9349309"><ele>207.0</ele><time>2026-05-02T07:44:05.939Z</time></trkpt><trkpt lat="42.2506636" lon="13.9349212"><ele>207.0</ele><time>2026-05-02T07:44:07.938Z</time></trkpt><trkpt lat="42.2505741" lon="13.9348876"><ele>207.0</ele><time>2026-05-02T07:44:09.939Z</time></trkpt><trkpt lat="42.250468" lon="13.9348696"><ele>204.66666666666666</ele><time>2026-05-02T07:44:11.938Z</time></trkpt><trkpt lat="42.2503802" lon="13.9348717"><ele>202.33333333333331</ele><time>2026-05-02T07:44:13.939Z</time></trkpt><trkpt lat="42.2503046" lon="13.9348869"><ele>200.0</ele><time>2026-05-02T07:44:15.94Z</time></trkpt><trkpt lat="42.2502249" lon="13.9349181"><ele>197.66666666666666</ele><time>2026-05-02T07:44:17.938Z</time></trkpt><trkpt lat="42.2501432" lon="13.9349484"><ele>195.33333333333331</ele><time>2026-05-02T07:44:19.939Z</time></trkpt><trkpt lat="42.2500634" lon="13.9349495"><ele>193.0</ele><time>2026-05-02T07:44:21.939Z</time></trkpt><trkpt lat="42.2499719" lon="13.9349294"><ele>192.99999999999997</ele><time>2026-05-02T07:44:24.938Z</time></trkpt><trkpt lat="42.2499106" lon="13.9349099"><ele>193.0</ele><time>2026-05-02T07:44:26.938Z</time></trkpt><trkpt lat="42.2498471" lon="13.9348827"><ele>193.0</ele><time>2026-05-02T07:44:28.94Z</time></trkpt><trkpt lat="42.2497679" lon="13.9348537"><ele>193.0</ele><time>2026-05-02T07:44:31.939Z</time></trkpt><trkpt lat="42.2496923" lon="13.9348396"><ele>192.99999999999997</ele><time>2026-05-02T07:44:34.941Z</time></trkpt><trkpt lat="42.249597" lon="13.9348716"><ele>193.0</ele><time>2026-05-02T07:44:37.939Z</time></trkpt><trkpt lat="42.2495274" lon="13.9349055"><ele>191.14285714285717</ele><time>2026-05-02T07:44:39.94Z</time></trkpt><trkpt lat="42.2494655" lon="13.9349442"><ele>189.28571428571428</ele><time>2026-05-02T07:44:41.939Z</time></trkpt><trkpt lat="42.2493984" lon="13.9349738"><ele>187.42857142857144</ele><time>2026-05-02T07:44:43.939Z</time></trkpt><trkpt lat="42.2493242" lon="13.9349959"><ele>185.57142857142858</ele><time>2026-05-02T07:44:45.939Z</time></trkpt><trkpt lat="42.249251" lon="13.9350089"><ele>183.71428571428572</ele><time>2026-05-02T07:44:47.938Z</time></trkpt><trkpt lat="42.2491849" lon="13.9350214"><ele>181.85714285714286</ele><time>2026-05-02T07:44:49.939Z</time></trkpt><trkpt lat="42.2491215" lon="13.9350256"><ele>180.0</ele><time>2026-05-02T07:44:51.939Z</time></trkpt><trkpt lat="42.2490354" lon="13.934997"><ele>178.5</ele><time>2026-05-02T07:44:54.939Z</time></trkpt><trkpt lat="42.2489539" lon="13.9349457"><ele>177.0</ele><time>2026-05-02T07:44:57.938Z</time></trkpt><trkpt lat="42.248851" lon="13.9349594"><ele>175.5</ele><time>2026-05-02T07:45:00.939Z</time></trkpt><trkpt lat="42.2487739" lon="13.9349862"><ele>174.0</ele><time>2026-05-02T07:45:02.939Z</time></trkpt><trkpt lat="42.2486941" lon="13.9350308"><ele>172.5</ele><time>2026-05-02T07:45:04.94Z</time></trkpt><trkpt lat="42.2486303" lon="13.9351006"><ele>171.0</ele><time>2026-05-02T07:45:06.939Z</time></trkpt><trkpt lat="42.2485706" lon="13.9352064"><ele>169.16666666666666</ele><time>2026-05-02T07:45:08.939Z</time></trkpt><trkpt lat="42.2485311" lon="13.9352891"><ele>167.33333333333334</ele><time>2026-05-02T07:45:10.938Z</time></trkpt><trkpt lat="42.2484675" lon="13.9353415"><ele>165.5</ele><time>2026-05-02T07:45:12.94Z</time></trkpt><trkpt lat="42.2483982" lon="13.9354026"><ele>163.66666666666669</ele><time>2026-05-02T07:45:14.939Z</time></trkpt><trkpt lat="42.2482919" lon="13.9354391"><ele>161.83333333333334</ele><time>2026-05-02T07:45:16.938Z</time></trkpt><trkpt lat="42.2482009" lon="13.9355128"><ele>160.0</ele><time>2026-05-02T07:45:18.938Z</time></trkpt><trkpt lat="42.2481601" lon="13.9356307"><ele>160.0</ele><time>2026-05-02T07:45:20.941Z</time></trkpt><trkpt lat="42.2481726" lon="13.9357856"><ele>160.0</ele><time>2026-05-02T07:45:22.939Z</time></trkpt><trkpt lat="42.2481782" lon="13.9358754"><ele>160.0</ele><time>2026-05-02T07:45:23.94Z</time></trkpt><trkpt lat="42.2481916" lon="13.935964"><ele>160.0</ele><time>2026-05-02T07:45:24.938Z</time></trkpt><trkpt lat="42.2482061" lon="13.936051"><ele>160.0</ele><time>2026-05-02T07:45:25.939Z</time></trkpt><trkpt lat="42.2482227" lon="13.9362179"><ele>160.0</ele><time>2026-05-02T07:45:27.939Z</time></trkpt><trkpt lat="42.248221" lon="13.936303"><ele>159.5</ele><time>2026-05-02T07:45:28.938Z</time></trkpt><trkpt lat="42.2482086" lon="13.9363892"><ele>159.0</ele><time>2026-05-02T07:45:29.938Z</time></trkpt><trkpt lat="42.2481628" lon="13.93655"><ele>158.5</ele><time>2026-05-02T07:45:31.939Z</time></trkpt><trkpt lat="42.248107" lon="13.936694"><ele>158.0</ele><time>2026-05-02T07:45:33.939Z</time></trkpt><trkpt lat="42.2480714" lon="13.9367648"><ele>157.5</ele><time>2026-05-02T07:45:34.939Z</time></trkpt><trkpt lat="42.2480206" lon="13.9368206"><ele>157.0</ele><time>2026-05-02T07:45:35.938Z</time></trkpt><trkpt lat="42.247927" lon="13.9369245"><ele>153.79999999999998</ele><time>2026-05-02T07:45:37.94Z</time></trkpt><trkpt lat="42.2478434" lon="13.9370089"><ele>150.6</ele><time>2026-05-02T07:45:39.938Z</time></trkpt><trkpt lat="42.2477319" lon="13.9370917"><ele>147.39999999999998</ele><time>2026-05-02T07:45:41.938Z</time></trkpt><trkpt lat="42.2476762" lon="13.9371328"><ele>144.2</ele><time>2026-05-02T07:45:42.94Z</time></trkpt><trkpt lat="42.2476161" lon="13.937166"><ele>141.0</ele><time>2026-05-02T07:45:43.939Z</time></trkpt><trkpt lat="42.2475128" lon="13.9372396"><ele>141.0</ele><time>2026-05-02T07:45:45.938Z</time></trkpt><trkpt lat="42.2474017" lon="13.9372698"><ele>141.0</ele><time>2026-05-02T07:45:47.94Z</time></trkpt><trkpt lat="42.247334" lon="13.9372541"><ele>141.0</ele><time>2026-05-02T07:45:48.938Z</time></trkpt><trkpt lat="42.2472655" lon="13.9372238"><ele>141.0</ele><time>2026-05-02T07:45:49.939Z</time></trkpt><trkpt lat="42.2472042" lon="13.9371761"><ele>141.0</ele><time>2026-05-02T07:45:50.939Z</time></trkpt><trkpt lat="42.2471551" lon="13.9371226"><ele>141.0</ele><time>2026-05-02T07:45:51.938Z</time></trkpt><trkpt lat="42.2470711" lon="13.9370657"><ele>141.16666666666666</ele><time>2026-05-02T07:45:53.939Z</time></trkpt><trkpt lat="42.2469934" lon="13.9370483"><ele>141.33333333333334</ele><time>2026-05-02T07:45:56.939Z</time></trkpt><trkpt lat="42.2469286" lon="13.937005"><ele>141.5</ele><time>2026-05-02T07:46:06.939Z</time></trkpt><trkpt lat="42.2468526" lon="13.9369324"><ele>141.66666666666669</ele><time>2026-05-02T07:46:09.94Z</time></trkpt><trkpt lat="42.2468062" lon="13.9368528"><ele>141.83333333333334</ele><time>2026-05-02T07:46:29.938Z</time></trkpt><trkpt lat="42.2467847" lon="13.9367499"><ele>142.0</ele><time>2026-05-02T07:46:31.937Z</time></trkpt><trkpt lat="42.2467735" lon="13.9366478"><ele>142.0</ele><time>2026-05-02T07:46:32.938Z</time></trkpt><trkpt lat="42.2467252" lon="13.9365315"><ele>142.0</ele><time>2026-05-02T07:46:33.939Z</time></trkpt><trkpt lat="42.2466783" lon="13.9364284"><ele>142.0</ele><time>2026-05-02T07:46:34.939Z</time></trkpt><trkpt lat="42.2466285" lon="13.9363249"><ele>142.0</ele><time>2026-05-02T07:46:35.94Z</time></trkpt><trkpt lat="42.2465185" lon="13.9362528"><ele>142.0</ele><time>2026-05-02T07:46:37.94Z</time></trkpt><trkpt lat="42.2464257" lon="13.9363043"><ele>144.0</ele><time>2026-05-02T07:46:39.939Z</time></trkpt><trkpt lat="42.2463728" lon="13.9364321"><ele>146.0</ele><time>2026-05-02T07:46:41.939Z</time></trkpt><trkpt lat="42.2463058" lon="13.9365478"><ele>148.0</ele><time>2026-05-02T07:46:43.939Z</time></trkpt><trkpt lat="42.2462668" lon="13.9366159"><ele>150.0</ele><time>2026-05-02T07:46:45.939Z</time></trkpt><trkpt lat="42.2462092" lon="13.9367518"><ele>152.0</ele><time>2026-05-02T07:47:15.939Z</time></trkpt><trkpt lat="42.2462194" lon="13.9369258"><ele>152.33333333333331</ele><time>2026-05-02T07:47:17.939Z</time></trkpt><trkpt lat="42.2462369" lon="13.9370338"><ele>152.66666666666666</ele><time>2026-05-02T07:47:18.939Z</time></trkpt><trkpt lat="42.246242" lon="13.937134"><ele>153.0</ele><time>2026-05-02T07:47:19.939Z</time></trkpt><trkpt lat="42.2462331" lon="13.9372272"><ele>153.33333333333334</ele><time>2026-05-02T07:47:20.939Z</time></trkpt><trkpt lat="42.2462101" lon="13.9373216"><ele>153.66666666666669</ele><time>2026-05-02T07:47:21.939Z</time></trkpt><trkpt lat="42.2461352" lon="13.9374311"><ele>154.0</ele><time>2026-05-02T07:47:22.939Z</time></trkpt><trkpt lat="42.2460741" lon="13.9375164"><ele>154.0</ele><time>2026-05-02T07:47:23.938Z</time></trkpt><trkpt lat="42.2460151" lon="13.9375993"><ele>154.0</ele><time>2026-05-02T07:47:24.94Z</time></trkpt><trkpt lat="42.245972" lon="13.9376634"><ele>154.0</ele><time>2026-05-02T07:47:25.939Z</time></trkpt><trkpt lat="42.2458932" lon="13.9377529"><ele>154.0</ele><time>2026-05-02T07:47:27.939Z</time></trkpt><trkpt lat="42.2458127" lon="13.9377247"><ele>154.0</ele><time>2026-05-02T07:47:32.938Z</time></trkpt><trkpt lat="42.245761" lon="13.9375637"><ele>154.0</ele><time>2026-05-02T07:47:34.939Z</time></trkpt><trkpt lat="42.2457272" lon="13.9374541"><ele>154.0</ele><time>2026-05-02T07:47:35.939Z</time></trkpt><trkpt lat="42.2456954" lon="13.9373432"><ele>154.0</ele><time>2026-05-02T07:47:36.939Z</time></trkpt><trkpt lat="42.2456555" lon="13.9372239"><ele>154.0</ele><time>2026-05-02T07:47:37.939Z</time></trkpt><trkpt lat="42.2456085" lon="13.9371109"><ele>154.0</ele><time>2026-05-02T07:47:38.939Z</time></trkpt><trkpt lat="42.2455749" lon="13.937003"><ele>154.16666666666669</ele><time>2026-05-02T07:47:39.939Z</time></trkpt><trkpt lat="42.2455301" lon="13.9369144"><ele>154.33333333333334</ele><time>2026-05-02T07:47:40.939Z</time></trkpt><trkpt lat="42.2454912" lon="13.9368363"><ele>154.5</ele><time>2026-05-02T07:47:41.939Z</time></trkpt><trkpt lat="42.2454395" lon="13.9366957"><ele>154.66666666666666</ele><time>2026-05-02T07:47:43.938Z</time></trkpt><trkpt lat="42.2454008" lon="13.9366175"><ele>154.83333333333331</ele><time>2026-05-02T07:47:45.939Z</time></trkpt><trkpt lat="42.2454118" lon="13.9365173"><ele>155.0</ele><time>2026-05-02T07:50:06.939Z</time></trkpt><trkpt lat="42.2453658" lon="13.9363349"><ele>155.5</ele><time>2026-05-02T07:50:08.939Z</time></trkpt><trkpt lat="42.2453287" lon="13.9361988"><ele>156.0</ele><time>2026-05-02T07:50:09.938Z</time></trkpt><trkpt lat="42.245286" lon="13.9360569"><ele>156.5</ele><time>2026-05-02T07:50:10.938Z</time></trkpt><trkpt lat="42.2452319" lon="13.9359017"><ele>157.0</ele><time>2026-05-02T07:50:11.937Z</time></trkpt><trkpt lat="42.2451816" lon="13.9357541"><ele>157.5</ele><time>2026-05-02T07:50:12.938Z</time></trkpt><trkpt lat="42.2451301" lon="13.9356122"><ele>158.0</ele><time>2026-05-02T07:50:13.939Z</time></trkpt><trkpt lat="42.2450851" lon="13.9354908"><ele>158.5</ele><time>2026-05-02T07:50:14.938Z</time></trkpt><trkpt lat="42.2450481" lon="13.9353874"><ele>159.0</ele><time>2026-05-02T07:50:15.938Z</time></trkpt><trkpt lat="42.2450183" lon="13.9352975"><ele>159.5</ele><time>2026-05-02T07:50:16.939Z</time></trkpt><trkpt lat="42.2449894" lon="13.9352214"><ele>160.0</ele><time>2026-05-02T07:50:17.938Z</time></trkpt><trkpt lat="42.2449465" lon="13.9351546"><ele>160.0</ele><time>2026-05-02T07:50:18.939Z</time></trkpt><trkpt lat="42.2448298" lon="13.9351005"><ele>160.0</ele><time>2026-05-02T07:50:20.939Z</time></trkpt><trkpt lat="42.2447627" lon="13.9350962"><ele>160.0</ele><time>2026-05-02T07:50:21.94Z</time></trkpt><trkpt lat="42.2446988" lon="13.9350888"><ele>160.0</ele><time>2026-05-02T07:50:22.941Z</time></trkpt><trkpt lat="42.2445501" lon="13.9355941"><ele>160.4</ele><time>2026-05-02T07:50:26.939Z</time></trkpt><trkpt lat="42.2445118" lon="13.9357562"><ele>160.8</ele><time>2026-05-02T07:50:27.938Z</time></trkpt><trkpt lat="42.2444724" lon="13.9358938"><ele>161.2</ele><time>2026-05-02T07:50:28.94Z</time></trkpt><trkpt lat="42.2444362" lon="13.9360105"><ele>161.6</ele><time>2026-05-02T07:50:29.939Z</time></trkpt><trkpt lat="42.244402" lon="13.9361386"><ele>162.0</ele><time>2026-05-02T07:50:30.939Z</time></trkpt><trkpt lat="42.244354" lon="13.9362736"><ele>162.0</ele><time>2026-05-02T07:50:31.939Z</time></trkpt><trkpt lat="42.244297" lon="13.9364058"><ele>162.0</ele><time>2026-05-02T07:50:32.939Z</time></trkpt><trkpt lat="42.2442322" lon="13.9365359"><ele>162.0</ele><time>2026-05-02T07:50:33.937Z</time></trkpt><trkpt lat="42.2441768" lon="13.9366581"><ele>162.0</ele><time>2026-05-02T07:50:34.938Z</time></trkpt><trkpt lat="42.2441246" lon="13.9367716"><ele>162.0</ele><time>2026-05-02T07:50:35.94Z</time></trkpt><trkpt lat="42.2440721" lon="13.9368484"><ele>161.66666666666666</ele><time>2026-05-02T07:50:36.939Z</time></trkpt><trkpt lat="42.2440178" lon="13.9369184"><ele>161.33333333333334</ele><time>2026-05-02T07:50:37.939Z</time></trkpt><trkpt lat="42.243954" lon="13.9369144"><ele>161.0</ele><time>2026-05-02T07:50:38.939Z</time></trkpt><trkpt lat="42.2438588" lon="13.9368208"><ele>160.66666666666669</ele><time>2026-05-02T07:50:40.939Z</time></trkpt><trkpt lat="42.24383" lon="13.9367245"><ele>160.33333333333334</ele><time>2026-05-02T07:50:41.938Z</time></trkpt><trkpt lat="42.2437973" lon="13.9366063"><ele>160.0</ele><time>2026-05-02T07:50:42.938Z</time></trkpt><trkpt lat="42.243766" lon="13.936468"><ele>161.25</ele><time>2026-05-02T07:50:43.94Z</time></trkpt><trkpt lat="42.2437317" lon="13.936319"><ele>162.5</ele><time>2026-05-02T07:50:44.939Z</time></trkpt><trkpt lat="42.2436896" lon="13.9361628"><ele>163.75</ele><time>2026-05-02T07:50:45.938Z</time></trkpt><trkpt lat="42.2436502" lon="13.9360015"><ele>165.0</ele><time>2026-05-02T07:50:46.938Z</time></trkpt><trkpt lat="42.2436138" lon="13.935835"><ele>165.5</ele><time>2026-05-02T07:50:47.939Z</time></trkpt><trkpt lat="42.243571" lon="13.9356717"><ele>166.0</ele><time>2026-05-02T07:50:48.937Z</time></trkpt><trkpt lat="42.2435334" lon="13.9355048"><ele>166.5</ele><time>2026-05-02T07:50:49.938Z</time></trkpt><trkpt lat="42.2434927" lon="13.9353473"><ele>167.0</ele><time>2026-05-02T07:50:50.939Z</time></trkpt><trkpt lat="42.2434481" lon="13.9351892"><ele>167.5</ele><time>2026-05-02T07:50:51.938Z</time></trkpt><trkpt lat="42.2434096" lon="13.9350369"><ele>168.0</ele><time>2026-05-02T07:50:52.938Z</time></trkpt><trkpt lat="42.243373" lon="13.9348716"><ele>168.5</ele><time>2026-05-02T07:50:53.939Z</time></trkpt><trkpt lat="42.2433424" lon="13.9347063"><ele>169.0</ele><time>2026-05-02T07:50:54.94Z</time></trkpt><trkpt lat="42.2433082" lon="13.9345351"><ele>169.0</ele><time>2026-05-02T07:50:55.938Z</time></trkpt><trkpt lat="42.2432645" lon="13.9343783"><ele>169.0</ele><time>2026-05-02T07:50:56.939Z</time></trkpt><trkpt lat="42.24322" lon="13.9342201"><ele>169.0</ele><time>2026-05-02T07:50:57.939Z</time></trkpt><trkpt lat="42.2431851" lon="13.9340585"><ele>169.0</ele><time>2026-05-02T07:50:58.939Z</time></trkpt><trkpt lat="42.2431444" lon="13.9339087"><ele>170.5</ele><time>2026-05-02T07:50:59.938Z</time></trkpt><trkpt lat="42.2431077" lon="13.9337522"><ele>172.0</ele><time>2026-05-02T07:51:00.939Z</time></trkpt><trkpt lat="42.2430621" lon="13.9336034"><ele>173.5</ele><time>2026-05-02T07:51:01.939Z</time></trkpt><trkpt lat="42.243022" lon="13.9334406"><ele>175.0</ele><time>2026-05-02T07:51:02.94Z</time></trkpt><trkpt lat="42.2429804" lon="13.9332772"><ele>175.5</ele><time>2026-05-02T07:51:03.939Z</time></trkpt><trkpt lat="42.242943" lon="13.9331174"><ele>176.0</ele><time>2026-05-02T07:51:04.939Z</time></trkpt><trkpt lat="42.2429026" lon="13.9329607"><ele>176.5</ele><time>2026-05-02T07:51:05.938Z</time></trkpt><trkpt lat="42.2428644" lon="13.9327979"><ele>177.0</ele><time>2026-05-02T07:51:06.94Z</time></trkpt><trkpt lat="42.2428275" lon="13.9326409"><ele>177.5</ele><time>2026-05-02T07:51:07.939Z</time></trkpt><trkpt lat="42.2427881" lon="13.9324801"><ele>178.0</ele><time>2026-05-02T07:51:08.939Z</time></trkpt><trkpt lat="42.2427492" lon="13.932329"><ele>178.5</ele><time>2026-05-02T07:51:09.939Z</time></trkpt><trkpt lat="42.2427098" lon="13.9321911"><ele>179.0</ele><time>2026-05-02T07:51:10.937Z</time></trkpt><trkpt lat="42.242675" lon="13.932063"><ele>179.0</ele><time>2026-05-02T07:51:11.937Z</time></trkpt><trkpt lat="42.2426391" lon="13.9319397"><ele>179.0</ele><time>2026-05-02T07:51:12.939Z</time></trkpt><trkpt lat="42.2426053" lon="13.9318283"><ele>179.0</ele><time>2026-05-02T07:51:13.937Z</time></trkpt><trkpt lat="42.2425783" lon="13.9317255"><ele>179.0</ele><time>2026-05-02T07:51:14.937Z</time></trkpt><trkpt lat="42.2425515" lon="13.9315904"><ele>179.0</ele><time>2026-05-02T07:51:16.938Z</time></trkpt><trkpt lat="42.2425112" lon="13.9314668"><ele>179.39999999999998</ele><time>2026-05-02T07:51:18.938Z</time></trkpt><trkpt lat="42.2424662" lon="13.9313179"><ele>179.8</ele><time>2026-05-02T07:51:20.939Z</time></trkpt><trkpt lat="42.2424299" lon="13.931174"><ele>180.2</ele><time>2026-05-02T07:51:22.938Z</time></trkpt><trkpt lat="42.2423991" lon="13.9310841"><ele>180.60000000000002</ele><time>2026-05-02T07:51:23.939Z</time></trkpt><trkpt lat="42.242361" lon="13.9309635"><ele>181.0</ele><time>2026-05-02T07:51:24.939Z</time></trkpt><trkpt lat="42.2423232" lon="13.9308108"><ele>181.33333333333334</ele><time>2026-05-02T07:51:25.939Z</time></trkpt><trkpt lat="42.2422797" lon="13.930627"><ele>181.66666666666666</ele><time>2026-05-02T07:51:26.938Z</time></trkpt><trkpt lat="42.2422395" lon="13.9304149"><ele>182.0</ele><time>2026-05-02T07:51:27.938Z</time></trkpt><trkpt lat="42.2421922" lon="13.9302139"><ele>182.0</ele><time>2026-05-02T07:51:28.94Z</time></trkpt><trkpt lat="42.2421506" lon="13.930027"><ele>182.0</ele><time>2026-05-02T07:51:29.938Z</time></trkpt><trkpt lat="42.2421096" lon="13.929848"><ele>182.0</ele><time>2026-05-02T07:51:30.939Z</time></trkpt><trkpt lat="42.2420581" lon="13.9296609"><ele>182.0</ele><time>2026-05-02T07:51:31.938Z</time></trkpt><trkpt lat="42.2420148" lon="13.9294741"><ele>182.0</ele><time>2026-05-02T07:51:32.939Z</time></trkpt><trkpt lat="42.2419699" lon="13.9293064"><ele>182.0</ele><time>2026-05-02T07:51:33.94Z</time></trkpt><trkpt lat="42.2419271" lon="13.9291499"><ele>182.0</ele><time>2026-05-02T07:51:34.939Z</time></trkpt><trkpt lat="42.2418893" lon="13.9290087"><ele>182.0</ele><time>2026-05-02T07:51:35.938Z</time></trkpt><trkpt lat="42.2418594" lon="13.9288847"><ele>182.0</ele><time>2026-05-02T07:51:36.939Z</time></trkpt><trkpt lat="42.2418246" lon="13.9287631"><ele>182.0</ele><time>2026-05-02T07:51:37.939Z</time></trkpt><trkpt lat="42.2417936" lon="13.9286431"><ele>182.0</ele><time>2026-05-02T07:51:38.938Z</time></trkpt><trkpt lat="42.241764" lon="13.9285289"><ele>182.0</ele><time>2026-05-02T07:51:39.939Z</time></trkpt><trkpt lat="42.2417389" lon="13.9283975"><ele>182.0</ele><time>2026-05-02T07:51:40.938Z</time></trkpt><trkpt lat="42.2417068" lon="13.9282584"><ele>183.0</ele><time>2026-05-02T07:51:41.938Z</time></trkpt><trkpt lat="42.2416698" lon="13.9281082"><ele>184.0</ele><time>2026-05-02T07:51:42.939Z</time></trkpt><trkpt lat="42.2416338" lon="13.9279524"><ele>185.0</ele><time>2026-05-02T07:51:43.939Z</time></trkpt><trkpt lat="42.241597" lon="13.927793"><ele>186.0</ele><time>2026-05-02T07:51:44.939Z</time></trkpt><trkpt lat="42.24156" lon="13.9276319"><ele>186.0</ele><time>2026-05-02T07:51:45.939Z</time></trkpt><trkpt lat="42.2415246" lon="13.9274713"><ele>186.0</ele><time>2026-05-02T07:51:46.939Z</time></trkpt><trkpt lat="42.241485" lon="13.927319"><ele>186.0</ele><time>2026-05-02T07:51:47.937Z</time></trkpt><trkpt lat="42.2414557" lon="13.9271755"><ele>186.0</ele><time>2026-05-02T07:51:48.939Z</time></trkpt><trkpt lat="42.2414242" lon="13.9270472"><ele>186.0</ele><time>2026-05-02T07:51:49.938Z</time></trkpt><trkpt lat="42.2413976" lon="13.9269327"><ele>186.0</ele><time>2026-05-02T07:51:50.939Z</time></trkpt><trkpt lat="42.2413781" lon="13.9268327"><ele>186.0</ele><time>2026-05-02T07:51:51.938Z</time></trkpt><trkpt lat="42.2413573" lon="13.9267359"><ele>186.0</ele><time>2026-05-02T07:51:52.939Z</time></trkpt><trkpt lat="42.2413321" lon="13.9265946"><ele>186.0</ele><time>2026-05-02T07:51:54.939Z</time></trkpt><trkpt lat="42.2413084" lon="13.9265103"><ele>186.0</ele><time>2026-05-02T07:51:57.938Z</time></trkpt><trkpt lat="42.241318" lon="13.9264136"><ele>186.20000000000002</ele><time>2026-05-02T07:52:35.938Z</time></trkpt><trkpt lat="42.2414155" lon="13.9263747"><ele>186.4</ele><time>2026-05-02T07:52:37.938Z</time></trkpt><trkpt lat="42.2414947" lon="13.9263832"><ele>186.6</ele><time>2026-05-02T07:52:38.938Z</time></trkpt><trkpt lat="42.2415781" lon="13.9263974"><ele>186.8</ele><time>2026-05-02T07:52:39.939Z</time></trkpt><trkpt lat="42.2416959" lon="13.9264118"><ele>187.0</ele><time>2026-05-02T07:52:40.938Z</time></trkpt><trkpt lat="42.2418139" lon="13.926435"><ele>187.0</ele><time>2026-05-02T07:52:41.938Z</time></trkpt><trkpt lat="42.2419259" lon="13.9264554"><ele>187.0</ele><time>2026-05-02T07:52:42.937Z</time></trkpt><trkpt lat="42.2420186" lon="13.9264913"><ele>187.0</ele><time>2026-05-02T07:52:43.938Z</time></trkpt><trkpt lat="42.2421116" lon="13.9265269"><ele>187.0</ele><time>2026-05-02T07:52:44.938Z</time></trkpt><trkpt lat="42.2421817" lon="13.9265811"><ele>187.0</ele><time>2026-05-02T07:52:45.938Z</time></trkpt><trkpt lat="42.242255" lon="13.9266406"><ele>186.6</ele><time>2026-05-02T07:52:46.939Z</time></trkpt><trkpt lat="42.2423321" lon="13.9267158"><ele>186.2</ele><time>2026-05-02T07:52:47.938Z</time></trkpt><trkpt lat="42.2424072" lon="13.9268009"><ele>185.8</ele><time>2026-05-02T07:52:48.939Z</time></trkpt><trkpt lat="42.2424818" lon="13.9268852"><ele>185.4</ele><time>2026-05-02T07:52:49.938Z</time></trkpt><trkpt lat="42.2425535" lon="13.926968"><ele>185.0</ele><time>2026-05-02T07:52:50.938Z</time></trkpt><trkpt lat="42.242619" lon="13.9270457"><ele>185.0</ele><time>2026-05-02T07:52:51.94Z</time></trkpt><trkpt lat="42.2426775" lon="13.9271175"><ele>185.0</ele><time>2026-05-02T07:52:52.939Z</time></trkpt><trkpt lat="42.2427335" lon="13.9271955"><ele>185.0</ele><time>2026-05-02T07:52:53.938Z</time></trkpt><trkpt lat="42.2427842" lon="13.9272846"><ele>185.0</ele><time>2026-05-02T07:52:54.938Z</time></trkpt><trkpt lat="42.2428467" lon="13.9273776"><ele>185.0</ele><time>2026-05-02T07:52:55.938Z</time></trkpt><trkpt lat="42.2429145" lon="13.9274675"><ele>185.0</ele><time>2026-05-02T07:52:56.939Z</time></trkpt><trkpt lat="42.2429873" lon="13.9275679"><ele>184.6</ele><time>2026-05-02T07:52:57.938Z</time></trkpt><trkpt lat="42.2430578" lon="13.9276594"><ele>184.2</ele><time>2026-05-02T07:52:58.938Z</time></trkpt><trkpt lat="42.2431347" lon="13.9277586"><ele>183.8</ele><time>2026-05-02T07:52:59.939Z</time></trkpt><trkpt lat="42.2432064" lon="13.9278568"><ele>183.4</ele><time>2026-05-02T07:53:00.938Z</time></trkpt><trkpt lat="42.2432819" lon="13.9279512"><ele>183.0</ele><time>2026-05-02T07:53:01.939Z</time></trkpt><trkpt lat="42.2433604" lon="13.9280412"><ele>182.60000000000002</ele><time>2026-05-02T07:53:02.939Z</time></trkpt><trkpt lat="42.2434301" lon="13.9281304"><ele>182.20000000000002</ele><time>2026-05-02T07:53:03.939Z</time></trkpt><trkpt lat="42.2434969" lon="13.9282252"><ele>181.8</ele><time>2026-05-02T07:53:04.939Z</time></trkpt><trkpt lat="42.2435723" lon="13.9283109"><ele>181.4</ele><time>2026-05-02T07:53:05.939Z</time></trkpt><trkpt lat="42.2436526" lon="13.9283766"><ele>181.0</ele><time>2026-05-02T07:53:06.938Z</time></trkpt><trkpt lat="42.2437311" lon="13.9284234"><ele>180.83333333333334</ele><time>2026-05-02T07:53:07.938Z</time></trkpt><trkpt lat="42.2438224" lon="13.9284288"><ele>180.66666666666669</ele><time>2026-05-02T07:53:08.938Z</time></trkpt><trkpt lat="42.2439053" lon="13.9284169"><ele>180.5</ele><time>2026-05-02T07:53:09.938Z</time></trkpt><trkpt lat="42.2439914" lon="13.928393"><ele>180.33333333333334</ele><time>2026-05-02T07:53:10.939Z</time></trkpt><trkpt lat="42.2440703" lon="13.9283604"><ele>180.16666666666666</ele><time>2026-05-02T07:53:11.938Z</time></trkpt><trkpt lat="42.244152" lon="13.9283243"><ele>180.0</ele><time>2026-05-02T07:53:12.94Z</time></trkpt><trkpt lat="42.2442222" lon="13.9282894"><ele>179.66666666666666</ele><time>2026-05-02T07:53:13.939Z</time></trkpt><trkpt lat="42.2442853" lon="13.928229"><ele>179.33333333333334</ele><time>2026-05-02T07:53:14.938Z</time></trkpt><trkpt lat="42.2443303" lon="13.9281638"><ele>179.0</ele><time>2026-05-02T07:53:15.939Z</time></trkpt><trkpt lat="42.2443802" lon="13.9280686"><ele>178.66666666666669</ele><time>2026-05-02T07:53:17.939Z</time></trkpt><trkpt lat="42.2444245" lon="13.9280043"><ele>178.33333333333334</ele><time>2026-05-02T07:53:24.938Z</time></trkpt><trkpt lat="42.244442" lon="13.9279111"><ele>178.0</ele><time>2026-05-02T07:53:26.94Z</time></trkpt><trkpt lat="42.2444606" lon="13.9277787"><ele>178.0</ele><time>2026-05-02T07:53:28.937Z</time></trkpt><trkpt lat="42.2445093" lon="13.9277007"><ele>178.0</ele><time>2026-05-02T07:53:31.937Z</time></trkpt><trkpt lat="42.2444789" lon="13.9275287"><ele>178.0</ele><time>2026-05-02T07:53:45.938Z</time></trkpt><trkpt lat="42.2444937" lon="13.927438"><ele>178.0</ele><time>2026-05-02T07:53:46.938Z</time></trkpt><trkpt lat="42.2445109" lon="13.9273239"><ele>178.0</ele><time>2026-05-02T07:53:47.939Z</time></trkpt><trkpt lat="42.244532" lon="13.9272169"><ele>178.0</ele><time>2026-05-02T07:53:48.937Z</time></trkpt><trkpt lat="42.2445433" lon="13.9271299"><ele>179.4</ele><time>2026-05-02T07:53:49.939Z</time></trkpt><trkpt lat="42.2445759" lon="13.9270384"><ele>180.8</ele><time>2026-05-02T07:53:51.938Z</time></trkpt><trkpt lat="42.2446022" lon="13.9268898"><ele>182.2</ele><time>2026-05-02T07:53:53.939Z</time></trkpt><trkpt lat="42.2446422" lon="13.9267508"><ele>183.6</ele><time>2026-05-02T07:53:55.938Z</time></trkpt><trkpt lat="42.2446794" lon="13.9266235"><ele>185.0</ele><time>2026-05-02T07:53:57.938Z</time></trkpt><trkpt lat="42.2447061" lon="13.9265399"><ele>186.33333333333331</ele><time>2026-05-02T07:54:00.938Z</time></trkpt><trkpt lat="42.2447511" lon="13.9264441"><ele>187.66666666666666</ele><time>2026-05-02T07:54:02.938Z</time></trkpt><trkpt lat="42.2447608" lon="13.9263342"><ele>189.0</ele><time>2026-05-02T07:54:04.938Z</time></trkpt><trkpt lat="42.2447704" lon="13.9262447"><ele>190.33333333333331</ele><time>2026-05-02T07:54:06.94Z</time></trkpt><trkpt lat="42.2447554" lon="13.9261606"><ele>191.66666666666666</ele><time>2026-05-02T07:54:25.94Z</time></trkpt><trkpt lat="42.2446423" lon="13.9261921"><ele>193.0</ele><time>2026-05-02T08:14:38.633Z</time></trkpt><trkpt lat="42.2447244" lon="13.9261683"><ele>192.99999999999997</ele><time>2026-05-02T08:14:39.938Z</time></trkpt><trkpt lat="42.2447736" lon="13.9262245"><ele>193.0</ele><time>2026-05-02T08:17:48.937Z</time></trkpt><trkpt lat="42.244627" lon="13.9261869"><ele>193.0</ele><time>2026-05-02T08:17:51.938Z</time></trkpt><trkpt lat="42.2447166" lon="13.9261867"><ele>193.0</ele><time>2026-05-02T08:18:05.938Z</time></trkpt><trkpt lat="42.2447869" lon="13.9261679"><ele>192.99999999999997</ele><time>2026-05-02T08:21:00.938Z</time></trkpt><trkpt lat="42.2447946" lon="13.9262596"><ele>193.0</ele><time>2026-05-02T08:23:40.938Z</time></trkpt><trkpt lat="42.2447538" lon="13.9263646"><ele>193.00000000000003</ele><time>2026-05-02T08:23:45.939Z</time></trkpt><trkpt lat="42.2447294" lon="13.9264544"><ele>193.0</ele><time>2026-05-02T08:23:47.938Z</time></trkpt><trkpt lat="42.2447036" lon="13.9265374"><ele>193.0</ele><time>2026-05-02T08:23:50.938Z</time></trkpt><trkpt lat="42.2446673" lon="13.9266085"><ele>193.0</ele><time>2026-05-02T08:23:55.938Z</time></trkpt><trkpt lat="42.2446216" lon="13.9266938"><ele>193.0</ele><time>2026-05-02T08:23:57.938Z</time></trkpt><trkpt lat="42.2445916" lon="13.9267837"><ele>193.00000000000003</ele><time>2026-05-02T08:23:59.938Z</time></trkpt><trkpt lat="42.2445616" lon="13.9268849"><ele>193.0</ele><time>2026-05-02T08:24:02.938Z</time></trkpt><trkpt lat="42.2445685" lon="13.9269732"><ele>191.66666666666666</ele><time>2026-05-02T08:24:11.938Z</time></trkpt><trkpt lat="42.244673" lon="13.9269897"><ele>190.33333333333331</ele><time>2026-05-02T08:24:14.938Z</time></trkpt><trkpt lat="42.2447365" lon="13.9269696"><ele>189.0</ele><time>2026-05-02T08:24:15.937Z</time></trkpt><trkpt lat="42.2448121" lon="13.9269456"><ele>187.66666666666666</ele><time>2026-05-02T08:24:16.938Z</time></trkpt><trkpt lat="42.2448903" lon="13.9269214"><ele>186.33333333333331</ele><time>2026-05-02T08:24:17.937Z</time></trkpt><trkpt lat="42.2449697" lon="13.9268992"><ele>185.0</ele><time>2026-05-02T08:24:18.937Z</time></trkpt><trkpt lat="42.245045" lon="13.926885"><ele>182.0</ele><time>2026-05-02T08:24:19.937Z</time></trkpt><trkpt lat="42.2451138" lon="13.926885"><ele>179.0</ele><time>2026-05-02T08:24:20.938Z</time></trkpt><trkpt lat="42.2451802" lon="13.9268749"><ele>176.0</ele><time>2026-05-02T08:24:21.938Z</time></trkpt><trkpt lat="42.245294" lon="13.9268746"><ele>173.0</ele><time>2026-05-02T08:24:23.938Z</time></trkpt><trkpt lat="42.2453676" lon="13.9268696"><ele>170.0</ele><time>2026-05-02T08:24:24.936Z</time></trkpt><trkpt lat="42.2454414" lon="13.9268583"><ele>167.0</ele><time>2026-05-02T08:24:25.938Z</time></trkpt><trkpt lat="42.2455191" lon="13.9268548"><ele>167.0</ele><time>2026-05-02T08:24:26.937Z</time></trkpt><trkpt lat="42.2456009" lon="13.926852"><ele>167.0</ele><time>2026-05-02T08:24:27.937Z</time></trkpt><trkpt lat="42.2456772" lon="13.9268456"><ele>167.0</ele><time>2026-05-02T08:24:28.939Z</time></trkpt><trkpt lat="42.2457526" lon="13.9268372"><ele>167.0</ele><time>2026-05-02T08:24:29.938Z</time></trkpt><trkpt lat="42.2458272" lon="13.9268331"><ele>167.0</ele><time>2026-05-02T08:24:30.937Z</time></trkpt><trkpt lat="42.2458932" lon="13.926835"><ele>167.0</ele><time>2026-05-02T08:24:31.938Z</time></trkpt><trkpt lat="42.2459577" lon="13.9268374"><ele>167.0</ele><time>2026-05-02T08:24:32.937Z</time></trkpt><trkpt lat="42.246021" lon="13.9268414"><ele>166.0</ele><time>2026-05-02T08:24:33.938Z</time></trkpt><trkpt lat="42.2461019" lon="13.9268998"><ele>165.0</ele><time>2026-05-02T08:24:35.937Z</time></trkpt><trkpt lat="42.2461513" lon="13.9270385"><ele>164.0</ele><time>2026-05-02T08:24:37.938Z</time></trkpt><trkpt lat="42.246153" lon="13.9271391"><ele>163.0</ele><time>2026-05-02T08:24:38.938Z</time></trkpt><trkpt lat="42.2461545" lon="13.9272511"><ele>162.0</ele><time>2026-05-02T08:24:39.939Z</time></trkpt><trkpt lat="42.2461471" lon="13.9273663"><ele>161.0</ele><time>2026-05-02T08:24:40.938Z</time></trkpt><trkpt lat="42.2461485" lon="13.9274793"><ele>160.83333333333331</ele><time>2026-05-02T08:24:41.937Z</time></trkpt><trkpt lat="42.2461297" lon="13.9275937"><ele>160.66666666666666</ele><time>2026-05-02T08:24:42.937Z</time></trkpt><trkpt lat="42.2461196" lon="13.9276898"><ele>160.5</ele><time>2026-05-02T08:24:43.939Z</time></trkpt><trkpt lat="42.2461076" lon="13.9277924"><ele>160.33333333333334</ele><time>2026-05-02T08:24:44.938Z</time></trkpt><trkpt lat="42.2460954" lon="13.9278976"><ele>160.16666666666669</ele><time>2026-05-02T08:24:45.937Z</time></trkpt><trkpt lat="42.2460944" lon="13.9280249"><ele>160.0</ele><time>2026-05-02T08:24:47.937Z</time></trkpt><trkpt lat="42.2461807" lon="13.9279915"><ele>160.0</ele><time>2026-05-02T08:24:50.937Z</time></trkpt><trkpt lat="42.2461648" lon="13.9278679"><ele>160.0</ele><time>2026-05-02T08:24:52.939Z</time></trkpt><trkpt lat="42.2461507" lon="13.9277813"><ele>160.0</ele><time>2026-05-02T08:24:53.937Z</time></trkpt><trkpt lat="42.2461572" lon="13.9276783"><ele>160.0</ele><time>2026-05-02T08:24:54.938Z</time></trkpt><trkpt lat="42.246164" lon="13.9275597"><ele>160.0</ele><time>2026-05-02T08:24:55.938Z</time></trkpt><trkpt lat="42.2461641" lon="13.9274476"><ele>160.0</ele><time>2026-05-02T08:24:56.938Z</time></trkpt><trkpt lat="42.2461709" lon="13.9273428"><ele>160.0</ele><time>2026-05-02T08:24:57.937Z</time></trkpt><trkpt lat="42.2461755" lon="13.9272375"><ele>160.0</ele><time>2026-05-02T08:24:58.937Z</time></trkpt><trkpt lat="42.2461793" lon="13.9271502"><ele>160.0</ele><time>2026-05-02T08:24:59.938Z</time></trkpt><trkpt lat="42.2461785" lon="13.9270641"><ele>160.0</ele><time>2026-05-02T08:25:00.937Z</time></trkpt><trkpt lat="42.2461694" lon="13.9269746"><ele>160.0</ele><time>2026-05-02T08:25:01.938Z</time></trkpt><trkpt lat="42.2461601" lon="13.9268253"><ele>160.0</ele><time>2026-05-02T08:25:03.938Z</time></trkpt><trkpt lat="42.2461518" lon="13.9266957"><ele>160.0</ele><time>2026-05-02T08:25:05.937Z</time></trkpt><trkpt lat="42.2460983" lon="13.9266171"><ele>160.0</ele><time>2026-05-02T08:25:07.939Z</time></trkpt><trkpt lat="42.2460146" lon="13.9265951"><ele>160.0</ele><time>2026-05-02T08:25:09.939Z</time></trkpt><trkpt lat="42.2458783" lon="13.9265883"><ele>160.0</ele><time>2026-05-02T08:25:11.938Z</time></trkpt><trkpt lat="42.2458078" lon="13.9265833"><ele>160.0</ele><time>2026-05-02T08:25:12.937Z</time></trkpt><trkpt lat="42.2456952" lon="13.9265415"><ele>160.0</ele><time>2026-05-02T08:25:14.937Z</time></trkpt><trkpt lat="42.2456541" lon="13.9264142"><ele>160.0</ele><time>2026-05-02T08:25:16.938Z</time></trkpt><trkpt lat="42.2456301" lon="13.9262834"><ele>160.0</ele><time>2026-05-02T08:25:18.938Z</time></trkpt><trkpt lat="42.2456342" lon="13.9261779"><ele>160.0</ele><time>2026-05-02T08:25:20.938Z</time></trkpt><trkpt lat="42.2456142" lon="13.9260632"><ele>160.0</ele><time>2026-05-02T08:25:27.936Z</time></trkpt><trkpt lat="42.2455915" lon="13.9259004"><ele>162.0</ele><time>2026-05-02T08:25:29.938Z</time></trkpt><trkpt lat="42.2455893" lon="13.9257857"><ele>164.0</ele><time>2026-05-02T08:25:30.937Z</time></trkpt><trkpt lat="42.2455835" lon="13.9256632"><ele>166.0</ele><time>2026-05-02T08:25:31.938Z</time></trkpt><trkpt lat="42.2455761" lon="13.925544"><ele>168.0</ele><time>2026-05-02T08:25:32.939Z</time></trkpt><trkpt lat="42.2455713" lon="13.9254267"><ele>170.0</ele><time>2026-05-02T08:25:33.938Z</time></trkpt><trkpt lat="42.2455762" lon="13.9253178"><ele>172.0</ele><time>2026-05-02T08:25:34.937Z</time></trkpt><trkpt lat="42.2455874" lon="13.9252031"><ele>172.0</ele><time>2026-05-02T08:25:35.937Z</time></trkpt><trkpt lat="42.2456057" lon="13.9250806"><ele>172.0</ele><time>2026-05-02T08:25:36.938Z</time></trkpt><trkpt lat="42.2456319" lon="13.9249518"><ele>172.0</ele><time>2026-05-02T08:25:37.938Z</time></trkpt><trkpt lat="42.2456524" lon="13.9248357"><ele>172.0</ele><time>2026-05-02T08:25:38.937Z</time></trkpt><trkpt lat="42.2456781" lon="13.9247147"><ele>172.0</ele><time>2026-05-02T08:25:39.937Z</time></trkpt><trkpt lat="42.245712" lon="13.9245902"><ele>170.39999999999998</ele><time>2026-05-02T08:25:40.937Z</time></trkpt><trkpt lat="42.2457488" lon="13.9244793"><ele>168.79999999999998</ele><time>2026-05-02T08:25:41.937Z</time></trkpt><trkpt lat="42.2457934" lon="13.9243874"><ele>167.2</ele><time>2026-05-02T08:25:42.939Z</time></trkpt><trkpt lat="42.2458594" lon="13.9243053"><ele>165.6</ele><time>2026-05-02T08:25:43.938Z</time></trkpt><trkpt lat="42.245927" lon="13.9242149"><ele>164.0</ele><time>2026-05-02T08:25:44.937Z</time></trkpt><trkpt lat="42.2459899" lon="13.9241118"><ele>164.0</ele><time>2026-05-02T08:25:45.937Z</time></trkpt><trkpt lat="42.2460419" lon="13.9240027"><ele>164.0</ele><time>2026-05-02T08:25:46.937Z</time></trkpt><trkpt lat="42.2460809" lon="13.9238836"><ele>164.0</ele><time>2026-05-02T08:25:47.938Z</time></trkpt><trkpt lat="42.2461138" lon="13.9237479"><ele>164.0</ele><time>2026-05-02T08:25:48.938Z</time></trkpt><trkpt lat="42.2461315" lon="13.9235911"><ele>164.0</ele><time>2026-05-02T08:25:49.937Z</time></trkpt><trkpt lat="42.2461371" lon="13.9234347"><ele>164.5</ele><time>2026-05-02T08:25:50.938Z</time></trkpt><trkpt lat="42.246142" lon="13.9232815"><ele>165.0</ele><time>2026-05-02T08:25:51.937Z</time></trkpt><trkpt lat="42.2461458" lon="13.9231228"><ele>165.5</ele><time>2026-05-02T08:25:52.937Z</time></trkpt><trkpt lat="42.2461426" lon="13.9229705"><ele>166.0</ele><time>2026-05-02T08:25:53.938Z</time></trkpt><trkpt lat="42.2461347" lon="13.9228195"><ele>166.0</ele><time>2026-05-02T08:25:54.938Z</time></trkpt><trkpt lat="42.2461295" lon="13.9226716"><ele>166.0</ele><time>2026-05-02T08:25:55.937Z</time></trkpt><trkpt lat="42.246122" lon="13.9225278"><ele>166.0</ele><time>2026-05-02T08:25:56.938Z</time></trkpt><trkpt lat="42.2461158" lon="13.9223831"><ele>166.0</ele><time>2026-05-02T08:25:57.936Z</time></trkpt><trkpt lat="42.2461145" lon="13.9222464"><ele>166.0</ele><time>2026-05-02T08:25:58.936Z</time></trkpt><trkpt lat="42.2461026" lon="13.9221085"><ele>166.20000000000002</ele><time>2026-05-02T08:25:59.937Z</time></trkpt><trkpt lat="42.2460953" lon="13.9219819"><ele>166.4</ele><time>2026-05-02T08:26:00.937Z</time></trkpt><trkpt lat="42.2460631" lon="13.9218486"><ele>166.6</ele><time>2026-05-02T08:26:01.938Z</time></trkpt><trkpt lat="42.2460245" lon="13.9217244"><ele>166.8</ele><time>2026-05-02T08:26:02.936Z</time></trkpt><trkpt lat="42.2459894" lon="13.9216025"><ele>167.0</ele><time>2026-05-02T08:26:03.937Z</time></trkpt><trkpt lat="42.2459578" lon="13.9214803"><ele>167.39999999999998</ele><time>2026-05-02T08:26:04.939Z</time></trkpt><trkpt lat="42.2459288" lon="13.9213652"><ele>167.79999999999998</ele><time>2026-05-02T08:26:05.938Z</time></trkpt><trkpt lat="42.2459018" lon="13.9212405"><ele>168.2</ele><time>2026-05-02T08:26:06.937Z</time></trkpt><trkpt lat="42.2458736" lon="13.9211128"><ele>168.6</ele><time>2026-05-02T08:26:07.938Z</time></trkpt><trkpt lat="42.2458327" lon="13.9209976"><ele>169.0</ele><time>2026-05-02T08:26:08.938Z</time></trkpt><trkpt lat="42.2457871" lon="13.9208899"><ele>169.2</ele><time>2026-05-02T08:26:09.937Z</time></trkpt><trkpt lat="42.2457446" lon="13.9207812"><ele>169.39999999999998</ele><time>2026-05-02T08:26:10.937Z</time></trkpt><trkpt lat="42.2456958" lon="13.9206768"><ele>169.6</ele><time>2026-05-02T08:26:11.937Z</time></trkpt><trkpt lat="42.2456405" lon="13.9205776"><ele>169.8</ele><time>2026-05-02T08:26:12.939Z</time></trkpt><trkpt lat="42.2455838" lon="13.9204813"><ele>170.0</ele><time>2026-05-02T08:26:13.938Z</time></trkpt><trkpt lat="42.2455317" lon="13.920377"><ele>171.16666666666666</ele><time>2026-05-02T08:26:14.938Z</time></trkpt><trkpt lat="42.2454905" lon="13.9202662"><ele>172.33333333333331</ele><time>2026-05-02T08:26:15.937Z</time></trkpt><trkpt lat="42.2454764" lon="13.9201624"><ele>173.5</ele><time>2026-05-02T08:26:16.937Z</time></trkpt><trkpt lat="42.2454676" lon="13.9200572"><ele>174.66666666666666</ele><time>2026-05-02T08:26:17.937Z</time></trkpt><trkpt lat="42.2454576" lon="13.9199529"><ele>175.83333333333334</ele><time>2026-05-02T08:26:18.938Z</time></trkpt><trkpt lat="42.2454484" lon="13.9198617"><ele>177.0</ele><time>2026-05-02T08:26:19.937Z</time></trkpt><trkpt lat="42.2454194" lon="13.9197792"><ele>177.0</ele><time>2026-05-02T08:26:20.938Z</time></trkpt><trkpt lat="42.2453702" lon="13.9197046"><ele>177.0</ele><time>2026-05-02T08:26:21.936Z</time></trkpt><trkpt lat="42.2453173" lon="13.9196275"><ele>177.0</ele><time>2026-05-02T08:26:22.938Z</time></trkpt><trkpt lat="42.2452751" lon="13.9195326"><ele>177.0</ele><time>2026-05-02T08:26:23.937Z</time></trkpt><trkpt lat="42.245243" lon="13.9194129"><ele>177.0</ele><time>2026-05-02T08:26:24.937Z</time></trkpt><trkpt lat="42.2452218" lon="13.9192769"><ele>177.0</ele><time>2026-05-02T08:26:25.937Z</time></trkpt><trkpt lat="42.2452179" lon="13.9191465"><ele>176.6</ele><time>2026-05-02T08:26:26.936Z</time></trkpt><trkpt lat="42.2452289" lon="13.9190146"><ele>176.2</ele><time>2026-05-02T08:26:27.938Z</time></trkpt><trkpt lat="42.2452454" lon="13.9188751"><ele>175.8</ele><time>2026-05-02T08:26:28.937Z</time></trkpt><trkpt lat="42.2452642" lon="13.9187275"><ele>175.4</ele><time>2026-05-02T08:26:29.937Z</time></trkpt><trkpt lat="42.2452873" lon="13.9185836"><ele>175.0</ele><time>2026-05-02T08:26:30.938Z</time></trkpt><trkpt lat="42.2453154" lon="13.9184494"><ele>174.8</ele><time>2026-05-02T08:26:31.937Z</time></trkpt><trkpt lat="42.2453495" lon="13.9183206"><ele>174.6</ele><time>2026-05-02T08:26:32.939Z</time></trkpt><trkpt lat="42.2453768" lon="13.9181962"><ele>174.39999999999998</ele><time>2026-05-02T08:26:33.937Z</time></trkpt><trkpt lat="42.245399" lon="13.9180661"><ele>174.2</ele><time>2026-05-02T08:26:34.937Z</time></trkpt><trkpt lat="42.2454126" lon="13.9179408"><ele>174.0</ele><time>2026-05-02T08:26:35.939Z</time></trkpt><trkpt lat="42.2454075" lon="13.9178068"><ele>174.0</ele><time>2026-05-02T08:26:36.939Z</time></trkpt><trkpt lat="42.2453885" lon="13.9176651"><ele>174.0</ele><time>2026-05-02T08:26:37.938Z</time></trkpt><trkpt lat="42.2453375" lon="13.9175163"><ele>174.0</ele><time>2026-05-02T08:26:38.937Z</time></trkpt><trkpt lat="42.2452648" lon="13.9173769"><ele>174.0</ele><time>2026-05-02T08:26:39.936Z</time></trkpt><trkpt lat="42.2451812" lon="13.9172453"><ele>174.0</ele><time>2026-05-02T08:26:40.937Z</time></trkpt><trkpt lat="42.2450845" lon="13.9171242"><ele>174.0</ele><time>2026-05-02T08:26:41.937Z</time></trkpt><trkpt lat="42.245" lon="13.9170121"><ele>174.0</ele><time>2026-05-02T08:26:42.938Z</time></trkpt><trkpt lat="42.2449344" lon="13.9168955"><ele>174.0</ele><time>2026-05-02T08:26:43.937Z</time></trkpt><trkpt lat="42.2448862" lon="13.9167759"><ele>174.83333333333334</ele><time>2026-05-02T08:26:44.937Z</time></trkpt><trkpt lat="42.2448406" lon="13.9166579"><ele>175.66666666666666</ele><time>2026-05-02T08:26:45.938Z</time></trkpt><trkpt lat="42.2447946" lon="13.916548"><ele>176.5</ele><time>2026-05-02T08:26:46.939Z</time></trkpt><trkpt lat="42.244746" lon="13.9164657"><ele>177.33333333333331</ele><time>2026-05-02T08:26:47.937Z</time></trkpt><trkpt lat="42.2446867" lon="13.9164124"><ele>178.16666666666666</ele><time>2026-05-02T08:26:48.938Z</time></trkpt><trkpt lat="42.244614" lon="13.9163857"><ele>179.0</ele><time>2026-05-02T08:26:49.937Z</time></trkpt><trkpt lat="42.2445246" lon="13.9163755"><ele>179.00000000000003</ele><time>2026-05-02T08:26:50.937Z</time></trkpt><trkpt lat="42.2444528" lon="13.9163612"><ele>179.0</ele><time>2026-05-02T08:26:51.938Z</time></trkpt><trkpt lat="42.2443935" lon="13.9163232"><ele>179.0</ele><time>2026-05-02T08:26:52.938Z</time></trkpt><trkpt lat="42.2443398" lon="13.9162677"><ele>179.0</ele><time>2026-05-02T08:26:53.938Z</time></trkpt><trkpt lat="42.2442914" lon="13.9161949"><ele>179.0</ele><time>2026-05-02T08:26:54.937Z</time></trkpt><trkpt lat="42.2442569" lon="13.9161097"><ele>179.00000000000003</ele><time>2026-05-02T08:26:55.937Z</time></trkpt><trkpt lat="42.2442301" lon="13.9160159"><ele>179.0</ele><time>2026-05-02T08:26:56.938Z</time></trkpt><trkpt lat="42.2442116" lon="13.915905"><ele>179.16666666666666</ele><time>2026-05-02T08:26:57.936Z</time></trkpt><trkpt lat="42.2441828" lon="13.9157825"><ele>179.33333333333331</ele><time>2026-05-02T08:26:58.937Z</time></trkpt><trkpt lat="42.2441498" lon="13.9156773"><ele>179.5</ele><time>2026-05-02T08:26:59.936Z</time></trkpt><trkpt lat="42.2441145" lon="13.9155857"><ele>179.66666666666666</ele><time>2026-05-02T08:27:00.936Z</time></trkpt><trkpt lat="42.2440773" lon="13.9154925"><ele>179.83333333333334</ele><time>2026-05-02T08:27:01.936Z</time></trkpt><trkpt lat="42.2440398" lon="13.9154006"><ele>180.0</ele><time>2026-05-02T08:27:02.937Z</time></trkpt><trkpt lat="42.243997" lon="13.9153143"><ele>180.42857142857142</ele><time>2026-05-02T08:27:03.936Z</time></trkpt><trkpt lat="42.2439497" lon="13.9152476"><ele>180.85714285714286</ele><time>2026-05-02T08:27:04.937Z</time></trkpt><trkpt lat="42.2438823" lon="13.9152041"><ele>181.28571428571428</ele><time>2026-05-02T08:27:05.937Z</time></trkpt><trkpt lat="42.2438113" lon="13.9151689"><ele>181.71428571428572</ele><time>2026-05-02T08:27:06.938Z</time></trkpt><trkpt lat="42.2437452" lon="13.9151304"><ele>182.14285714285717</ele><time>2026-05-02T08:27:07.937Z</time></trkpt><trkpt lat="42.2436805" lon="13.9150827"><ele>182.57142857142858</ele><time>2026-05-02T08:27:08.938Z</time></trkpt><trkpt lat="42.243628" lon="13.9150322"><ele>183.0</ele><time>2026-05-02T08:27:09.937Z</time></trkpt><trkpt lat="42.2435429" lon="13.9149409"><ele>183.60000000000002</ele><time>2026-05-02T08:27:11.939Z</time></trkpt><trkpt lat="42.2434691" lon="13.9148133"><ele>184.20000000000002</ele><time>2026-05-02T08:27:13.937Z</time></trkpt><trkpt lat="42.2434234" lon="13.9147439"><ele>184.8</ele><time>2026-05-02T08:27:14.938Z</time></trkpt><trkpt lat="42.2433766" lon="13.9146786"><ele>185.4</ele><time>2026-05-02T08:27:15.938Z</time></trkpt><trkpt lat="42.2432968" lon="13.9145779"><ele>186.0</ele><time>2026-05-02T08:27:17.936Z</time></trkpt><trkpt lat="42.2432592" lon="13.9144355"><ele>186.0</ele><time>2026-05-02T08:27:19.937Z</time></trkpt><trkpt lat="42.2432459" lon="13.9143375"><ele>186.0</ele><time>2026-05-02T08:27:20.938Z</time></trkpt><trkpt lat="42.2432275" lon="13.9142265"><ele>186.0</ele><time>2026-05-02T08:27:21.937Z</time></trkpt><trkpt lat="42.2432098" lon="13.9141217"><ele>186.0</ele><time>2026-05-02T08:27:22.939Z</time></trkpt><trkpt lat="42.2431975" lon="13.9140226"><ele>186.0</ele><time>2026-05-02T08:27:23.937Z</time></trkpt><trkpt lat="42.2431844" lon="13.913863"><ele>186.0</ele><time>2026-05-02T08:27:25.938Z</time></trkpt><trkpt lat="42.2431682" lon="13.9136822"><ele>186.4</ele><time>2026-05-02T08:27:27.938Z</time></trkpt><trkpt lat="42.2431532" lon="13.9135567"><ele>186.8</ele><time>2026-05-02T08:27:28.936Z</time></trkpt><trkpt lat="42.2431276" lon="13.9134472"><ele>187.20000000000002</ele><time>2026-05-02T08:27:29.938Z</time></trkpt><trkpt lat="42.2431033" lon="13.9133359"><ele>187.60000000000002</ele><time>2026-05-02T08:27:30.938Z</time></trkpt><trkpt lat="42.2430704" lon="13.9132158"><ele>188.0</ele><time>2026-05-02T08:27:31.936Z</time></trkpt><trkpt lat="42.2430284" lon="13.9130974"><ele>188.60000000000002</ele><time>2026-05-02T08:27:32.938Z</time></trkpt><trkpt lat="42.2429692" lon="13.9129861"><ele>189.20000000000002</ele><time>2026-05-02T08:27:33.938Z</time></trkpt><trkpt lat="42.2429008" lon="13.9128739"><ele>189.8</ele><time>2026-05-02T08:27:34.937Z</time></trkpt><trkpt lat="42.2428406" lon="13.9127608"><ele>190.4</ele><time>2026-05-02T08:27:35.936Z</time></trkpt><trkpt lat="42.2427916" lon="13.9126408"><ele>191.0</ele><time>2026-05-02T08:27:36.938Z</time></trkpt><trkpt lat="42.2427548" lon="13.9125102"><ele>191.20000000000002</ele><time>2026-05-02T08:27:37.938Z</time></trkpt><trkpt lat="42.2427193" lon="13.9123835"><ele>191.4</ele><time>2026-05-02T08:27:38.937Z</time></trkpt><trkpt lat="42.2426755" lon="13.9122854"><ele>191.6</ele><time>2026-05-02T08:27:39.936Z</time></trkpt><trkpt lat="42.2426149" lon="13.9121561"><ele>191.8</ele><time>2026-05-02T08:27:41.938Z</time></trkpt><trkpt lat="42.242569" lon="13.9120707"><ele>192.0</ele><time>2026-05-02T08:27:43.938Z</time></trkpt><trkpt lat="42.2424715" lon="13.9121361"><ele>192.0</ele><time>2026-05-02T08:27:46.936Z</time></trkpt><trkpt lat="42.2424133" lon="13.9122038"><ele>192.0</ele><time>2026-05-02T08:27:47.936Z</time></trkpt><trkpt lat="42.2423452" lon="13.9122877"><ele>192.0</ele><time>2026-05-02T08:27:48.937Z</time></trkpt><trkpt lat="42.2422759" lon="13.9123787"><ele>192.0</ele><time>2026-05-02T08:27:49.937Z</time></trkpt><trkpt lat="42.2422082" lon="13.9124614"><ele>192.0</ele><time>2026-05-02T08:27:50.938Z</time></trkpt><trkpt lat="42.2421417" lon="13.9125512"><ele>194.8</ele><time>2026-05-02T08:27:51.938Z</time></trkpt><trkpt lat="42.2421036" lon="13.912661"><ele>197.6</ele><time>2026-05-02T08:27:52.937Z</time></trkpt><trkpt lat="42.2420781" lon="13.9127833"><ele>200.4</ele><time>2026-05-02T08:27:53.939Z</time></trkpt><trkpt lat="42.2420604" lon="13.912926"><ele>203.20000000000002</ele><time>2026-05-02T08:27:54.939Z</time></trkpt><trkpt lat="42.2420369" lon="13.9130669"><ele>206.0</ele><time>2026-05-02T08:27:55.938Z</time></trkpt><trkpt lat="42.2420115" lon="13.9132138"><ele>206.0</ele><time>2026-05-02T08:27:56.937Z</time></trkpt><trkpt lat="42.2419611" lon="13.9133993"><ele>206.0</ele><time>2026-05-02T08:27:57.938Z</time></trkpt><trkpt lat="42.2419284" lon="13.9135813"><ele>206.0</ele><time>2026-05-02T08:27:58.938Z</time></trkpt><trkpt lat="42.2418943" lon="13.9137614"><ele>206.0</ele><time>2026-05-02T08:27:59.938Z</time></trkpt><trkpt lat="42.2418688" lon="13.9139407"><ele>205.60000000000002</ele><time>2026-05-02T08:28:00.937Z</time></trkpt><trkpt lat="42.2418664" lon="13.914122"><ele>205.2</ele><time>2026-05-02T08:28:01.936Z</time></trkpt><trkpt lat="42.2418704" lon="13.9142901"><ele>204.8</ele><time>2026-05-02T08:28:02.938Z</time></trkpt><trkpt lat="42.2418715" lon="13.9144076"><ele>204.39999999999998</ele><time>2026-05-02T08:28:03.938Z</time></trkpt><trkpt lat="42.2418592" lon="13.9145148"><ele>204.0</ele><time>2026-05-02T08:28:04.936Z</time></trkpt><trkpt lat="42.2418286" lon="13.9146124"><ele>203.66666666666666</ele><time>2026-05-02T08:28:05.939Z</time></trkpt><trkpt lat="42.2417716" lon="13.9147183"><ele>203.33333333333331</ele><time>2026-05-02T08:28:06.937Z</time></trkpt><trkpt lat="42.241713" lon="13.9148165"><ele>203.0</ele><time>2026-05-02T08:28:07.937Z</time></trkpt><trkpt lat="42.2416533" lon="13.9148763"><ele>202.66666666666666</ele><time>2026-05-02T08:28:08.938Z</time></trkpt><trkpt lat="42.2415511" lon="13.9148819"><ele>202.33333333333331</ele><time>2026-05-02T08:28:10.937Z</time></trkpt><trkpt lat="42.2415083" lon="13.9148074"><ele>202.0</ele><time>2026-05-02T08:28:11.938Z</time></trkpt><trkpt lat="42.241466" lon="13.9147129"><ele>203.99999999999997</ele><time>2026-05-02T08:28:12.939Z</time></trkpt><trkpt lat="42.2413988" lon="13.9146053"><ele>206.0</ele><time>2026-05-02T08:28:13.936Z</time></trkpt><trkpt lat="42.2413469" lon="13.9145214"><ele>208.0</ele><time>2026-05-02T08:28:14.938Z</time></trkpt><trkpt lat="42.2412958" lon="13.9144486"><ele>210.0</ele><time>2026-05-02T08:28:15.938Z</time></trkpt><trkpt lat="42.2412424" lon="13.914381"><ele>211.99999999999997</ele><time>2026-05-02T08:28:16.937Z</time></trkpt><trkpt lat="42.2411993" lon="13.9143102"><ele>214.0</ele><time>2026-05-02T08:28:17.937Z</time></trkpt><trkpt lat="42.241157" lon="13.9142141"><ele>214.79999999999998</ele><time>2026-05-02T08:28:18.937Z</time></trkpt><trkpt lat="42.2411174" lon="13.9140872"><ele>215.59999999999997</ele><time>2026-05-02T08:28:19.938Z</time></trkpt><trkpt lat="42.2410802" lon="13.9139488"><ele>216.4</ele><time>2026-05-02T08:28:20.938Z</time></trkpt><trkpt lat="42.2410286" lon="13.9138061"><ele>217.2</ele><time>2026-05-02T08:28:21.937Z</time></trkpt><trkpt lat="42.2410074" lon="13.9136603"><ele>218.0</ele><time>2026-05-02T08:28:22.938Z</time></trkpt><trkpt lat="42.2409599" lon="13.9135235"><ele>219.8</ele><time>2026-05-02T08:28:23.938Z</time></trkpt><trkpt lat="42.2409229" lon="13.913396"><ele>221.60000000000002</ele><time>2026-05-02T08:28:24.938Z</time></trkpt><trkpt lat="42.240857" lon="13.9132829"><ele>223.39999999999998</ele><time>2026-05-02T08:28:25.936Z</time></trkpt><trkpt lat="42.2407913" lon="13.9131725"><ele>225.2</ele><time>2026-05-02T08:28:26.939Z</time></trkpt><trkpt lat="42.2407195" lon="13.9130486"><ele>227.0</ele><time>2026-05-02T08:28:27.938Z</time></trkpt><trkpt lat="42.2406565" lon="13.9129257"><ele>226.8</ele><time>2026-05-02T08:28:28.937Z</time></trkpt><trkpt lat="42.2405817" lon="13.9128134"><ele>226.6</ele><time>2026-05-02T08:28:29.938Z</time></trkpt><trkpt lat="42.2405066" lon="13.9127148"><ele>226.40000000000003</ele><time>2026-05-02T08:28:30.936Z</time></trkpt><trkpt lat="42.2404262" lon="13.9126399"><ele>226.20000000000002</ele><time>2026-05-02T08:28:31.938Z</time></trkpt><trkpt lat="42.2403515" lon="13.9125473"><ele>226.0</ele><time>2026-05-02T08:28:32.938Z</time></trkpt><trkpt lat="42.2402855" lon="13.9124447"><ele>228.4</ele><time>2026-05-02T08:28:33.938Z</time></trkpt><trkpt lat="42.2402143" lon="13.9123274"><ele>230.8</ele><time>2026-05-02T08:28:34.938Z</time></trkpt><trkpt lat="42.2401441" lon="13.9122175"><ele>233.20000000000002</ele><time>2026-05-02T08:28:35.938Z</time></trkpt><trkpt lat="42.240073" lon="13.9121126"><ele>235.60000000000002</ele><time>2026-05-02T08:28:36.937Z</time></trkpt><trkpt lat="42.2400057" lon="13.9120225"><ele>238.0</ele><time>2026-05-02T08:28:37.938Z</time></trkpt><trkpt lat="42.239944" lon="13.911954"><ele>237.99999999999997</ele><time>2026-05-02T08:28:38.937Z</time></trkpt><trkpt lat="42.2398972" lon="13.9118901"><ele>238.0</ele><time>2026-05-02T08:28:39.937Z</time></trkpt><trkpt lat="42.2398466" lon="13.9118177"><ele>238.0</ele><time>2026-05-02T08:28:42.936Z</time></trkpt><trkpt lat="42.2398188" lon="13.9117283"><ele>238.0</ele><time>2026-05-02T08:28:44.938Z</time></trkpt><trkpt lat="42.2397898" lon="13.911593"><ele>237.99999999999997</ele><time>2026-05-02T08:28:46.938Z</time></trkpt><trkpt lat="42.2397658" lon="13.9115089"><ele>238.0</ele><time>2026-05-02T08:28:47.936Z</time></trkpt><trkpt lat="42.239742" lon="13.9114237"><ele>239.83333333333331</ele><time>2026-05-02T08:28:48.936Z</time></trkpt><trkpt lat="42.2397074" lon="13.9113223"><ele>241.66666666666666</ele><time>2026-05-02T08:28:49.938Z</time></trkpt><trkpt lat="42.2396765" lon="13.9112179"><ele>243.5</ele><time>2026-05-02T08:28:50.938Z</time></trkpt><trkpt lat="42.2396365" lon="13.9111158"><ele>245.33333333333331</ele><time>2026-05-02T08:28:51.937Z</time></trkpt><trkpt lat="42.2395874" lon="13.9110031"><ele>247.16666666666666</ele><time>2026-05-02T08:28:52.936Z</time></trkpt><trkpt lat="42.2395479" lon="13.9109077"><ele>249.0</ele><time>2026-05-02T08:28:53.937Z</time></trkpt><trkpt lat="42.2395118" lon="13.9108175"><ele>249.16666666666666</ele><time>2026-05-02T08:28:54.937Z</time></trkpt><trkpt lat="42.2394696" lon="13.9107415"><ele>249.33333333333331</ele><time>2026-05-02T08:28:55.936Z</time></trkpt><trkpt lat="42.2394115" lon="13.9106767"><ele>249.5</ele><time>2026-05-02T08:28:56.937Z</time></trkpt><trkpt lat="42.2393596" lon="13.9106083"><ele>249.66666666666666</ele><time>2026-05-02T08:28:57.936Z</time></trkpt><trkpt lat="42.2392928" lon="13.9105471"><ele>249.83333333333331</ele><time>2026-05-02T08:28:58.938Z</time></trkpt><trkpt lat="42.239233" lon="13.9104689"><ele>250.0</ele><time>2026-05-02T08:28:59.938Z</time></trkpt><trkpt lat="42.2391735" lon="13.9103636"><ele>250.0</ele><time>2026-05-02T08:29:00.937Z</time></trkpt><trkpt lat="42.239087" lon="13.9102708"><ele>250.0</ele><time>2026-05-02T08:29:01.937Z</time></trkpt><trkpt lat="42.2390349" lon="13.9101713"><ele>250.0</ele><time>2026-05-02T08:29:02.937Z</time></trkpt><trkpt lat="42.2389755" lon="13.9100705"><ele>250.0</ele><time>2026-05-02T08:29:03.938Z</time></trkpt><trkpt lat="42.2389172" lon="13.9099856"><ele>250.0</ele><time>2026-05-02T08:29:04.937Z</time></trkpt><trkpt lat="42.238845" lon="13.9099089"><ele>252.49999999999997</ele><time>2026-05-02T08:29:05.937Z</time></trkpt><trkpt lat="42.2387943" lon="13.9098461"><ele>255.0</ele><time>2026-05-02T08:29:06.936Z</time></trkpt><trkpt lat="42.2387245" lon="13.9097788"><ele>257.5</ele><time>2026-05-02T08:29:07.938Z</time></trkpt><trkpt lat="42.2386421" lon="13.9097242"><ele>260.0</ele><time>2026-05-02T08:29:08.937Z</time></trkpt><trkpt lat="42.2385687" lon="13.9096714"><ele>262.5</ele><time>2026-05-02T08:29:09.937Z</time></trkpt><trkpt lat="42.2385043" lon="13.9096133"><ele>265.0</ele><time>2026-05-02T08:29:10.937Z</time></trkpt><trkpt lat="42.2384364" lon="13.9095463"><ele>265.0</ele><time>2026-05-02T08:29:11.938Z</time></trkpt><trkpt lat="42.2383576" lon="13.909475"><ele>265.0</ele><time>2026-05-02T08:29:12.936Z</time></trkpt><trkpt lat="42.2382934" lon="13.909386"><ele>265.0</ele><time>2026-05-02T08:29:13.937Z</time></trkpt><trkpt lat="42.2382276" lon="13.9093057"><ele>265.0</ele><time>2026-05-02T08:29:14.936Z</time></trkpt><trkpt lat="42.238167" lon="13.9092288"><ele>265.0</ele><time>2026-05-02T08:29:15.937Z</time></trkpt><trkpt lat="42.2381087" lon="13.9091538"><ele>265.0</ele><time>2026-05-02T08:29:16.936Z</time></trkpt><trkpt lat="42.2380411" lon="13.9091203"><ele>266.57142857142856</ele><time>2026-05-02T08:29:17.936Z</time></trkpt><trkpt lat="42.2379592" lon="13.9091217"><ele>268.1428571428571</ele><time>2026-05-02T08:29:18.937Z</time></trkpt><trkpt lat="42.2378848" lon="13.9091222"><ele>269.7142857142857</ele><time>2026-05-02T08:29:19.936Z</time></trkpt><trkpt lat="42.2378018" lon="13.9091273"><ele>271.2857142857143</ele><time>2026-05-02T08:29:20.938Z</time></trkpt><trkpt lat="42.2377378" lon="13.9091486"><ele>272.8571428571429</ele><time>2026-05-02T08:29:21.938Z</time></trkpt><trkpt lat="42.2376744" lon="13.909142"><ele>274.42857142857144</ele><time>2026-05-02T08:29:23.938Z</time></trkpt><trkpt lat="42.2376323" lon="13.9090517"><ele>276.0</ele><time>2026-05-02T08:29:25.937Z</time></trkpt><trkpt lat="42.2376075" lon="13.9089643"><ele>276.0</ele><time>2026-05-02T08:29:26.938Z</time></trkpt><trkpt lat="42.2375824" lon="13.9088738"><ele>276.0</ele><time>2026-05-02T08:29:27.937Z</time></trkpt><trkpt lat="42.2375353" lon="13.9087864"><ele>276.0</ele><time>2026-05-02T08:29:28.939Z</time></trkpt><trkpt lat="42.237504" lon="13.9087048"><ele>276.0</ele><time>2026-05-02T08:29:29.938Z</time></trkpt><trkpt lat="42.2374781" lon="13.9086264"><ele>276.0</ele><time>2026-05-02T08:29:30.938Z</time></trkpt><trkpt lat="42.237453" lon="13.9085388"><ele>276.0</ele><time>2026-05-02T08:29:31.939Z</time></trkpt><trkpt lat="42.2374298" lon="13.908448"><ele>276.0</ele><time>2026-05-02T08:29:32.938Z</time></trkpt><trkpt lat="42.2374044" lon="13.908366"><ele>276.42857142857144</ele><time>2026-05-02T08:29:33.937Z</time></trkpt><trkpt lat="42.2373684" lon="13.9082884"><ele>276.8571428571429</ele><time>2026-05-02T08:29:34.939Z</time></trkpt><trkpt lat="42.2373255" lon="13.9082098"><ele>277.2857142857143</ele><time>2026-05-02T08:29:35.938Z</time></trkpt><trkpt lat="42.2372878" lon="13.9081221"><ele>277.7142857142857</ele><time>2026-05-02T08:29:36.937Z</time></trkpt><trkpt lat="42.2372501" lon="13.9080374"><ele>278.1428571428571</ele><time>2026-05-02T08:29:37.937Z</time></trkpt><trkpt lat="42.2372026" lon="13.9079488"><ele>278.57142857142856</ele><time>2026-05-02T08:29:38.937Z</time></trkpt><trkpt lat="42.2371626" lon="13.9078719"><ele>279.0</ele><time>2026-05-02T08:29:39.938Z</time></trkpt><trkpt lat="42.2371162" lon="13.9077929"><ele>278.99999999999994</ele><time>2026-05-02T08:29:40.937Z</time></trkpt><trkpt lat="42.2370772" lon="13.9077093"><ele>279.0</ele><time>2026-05-02T08:29:41.938Z</time></trkpt><trkpt lat="42.2370398" lon="13.9076302"><ele>279.0</ele><time>2026-05-02T08:29:42.937Z</time></trkpt><trkpt lat="42.2370046" lon="13.9075558"><ele>279.0</ele><time>2026-05-02T08:29:43.938Z</time></trkpt><trkpt lat="42.2369696" lon="13.9074822"><ele>279.0</ele><time>2026-05-02T08:29:44.937Z</time></trkpt><trkpt lat="42.2369266" lon="13.9074196"><ele>278.99999999999994</ele><time>2026-05-02T08:29:45.937Z</time></trkpt><trkpt lat="42.2368792" lon="13.9073589"><ele>279.0</ele><time>2026-05-02T08:29:46.938Z</time></trkpt><trkpt lat="42.2368206" lon="13.9072339"><ele>279.0</ele><time>2026-05-02T08:29:48.938Z</time></trkpt><trkpt lat="42.2367793" lon="13.9070807"><ele>279.0</ele><time>2026-05-02T08:29:50.936Z</time></trkpt><trkpt lat="42.2367361" lon="13.9069275"><ele>279.0</ele><time>2026-05-02T08:29:52.936Z</time></trkpt><trkpt lat="42.236706" lon="13.9068502"><ele>279.0</ele><time>2026-05-02T08:29:53.937Z</time></trkpt><trkpt lat="42.2366677" lon="13.9067751"><ele>279.0</ele><time>2026-05-02T08:29:54.937Z</time></trkpt><trkpt lat="42.2366134" lon="13.9067094"><ele>279.0</ele><time>2026-05-02T08:29:55.937Z</time></trkpt><trkpt lat="42.2365664" lon="13.9066378"><ele>278.5</ele><time>2026-05-02T08:29:56.938Z</time></trkpt><trkpt lat="42.2365059" lon="13.906571"><ele>278.0</ele><time>2026-05-02T08:29:57.937Z</time></trkpt><trkpt lat="42.236456" lon="13.9065005"><ele>277.5</ele><time>2026-05-02T08:29:58.937Z</time></trkpt><trkpt lat="42.2364073" lon="13.9064273"><ele>277.0</ele><time>2026-05-02T08:29:59.937Z</time></trkpt><trkpt lat="42.2363409" lon="13.9063444"><ele>276.5</ele><time>2026-05-02T08:30:01.937Z</time></trkpt><trkpt lat="42.2362712" lon="13.9062411"><ele>276.0</ele><time>2026-05-02T08:30:04.938Z</time></trkpt><trkpt lat="42.2362461" lon="13.9061609"><ele>276.0</ele><time>2026-05-02T08:30:05.938Z</time></trkpt><trkpt lat="42.2362241" lon="13.9060508"><ele>276.0</ele><time>2026-05-02T08:30:06.936Z</time></trkpt><trkpt lat="42.2361963" lon="13.9059322"><ele>276.0</ele><time>2026-05-02T08:30:07.938Z</time></trkpt><trkpt lat="42.2361662" lon="13.905789"><ele>276.0</ele><time>2026-05-02T08:30:08.938Z</time></trkpt><trkpt lat="42.2361397" lon="13.9056459"><ele>276.0</ele><time>2026-05-02T08:30:09.937Z</time></trkpt><trkpt lat="42.2360825" lon="13.9054887"><ele>279.0</ele><time>2026-05-02T08:30:10.937Z</time></trkpt><trkpt lat="42.2360267" lon="13.9053345"><ele>282.0</ele><time>2026-05-02T08:30:11.937Z</time></trkpt><trkpt lat="42.2359647" lon="13.9051708"><ele>285.0</ele><time>2026-05-02T08:30:12.937Z</time></trkpt><trkpt lat="42.2358925" lon="13.9050114"><ele>288.0</ele><time>2026-05-02T08:30:13.938Z</time></trkpt><trkpt lat="42.235822" lon="13.9048542"><ele>287.5</ele><time>2026-05-02T08:30:14.938Z</time></trkpt><trkpt lat="42.2357486" lon="13.9046969"><ele>287.0</ele><time>2026-05-02T08:30:15.938Z</time></trkpt><trkpt lat="42.2356855" lon="13.9045398"><ele>286.5</ele><time>2026-05-02T08:30:16.937Z</time></trkpt><trkpt lat="42.2356164" lon="13.9043869"><ele>286.0</ele><time>2026-05-02T08:30:17.937Z</time></trkpt><trkpt lat="42.2355452" lon="13.9042329"><ele>287.75</ele><time>2026-05-02T08:30:18.937Z</time></trkpt><trkpt lat="42.2354804" lon="13.9040698"><ele>289.5</ele><time>2026-05-02T08:30:19.937Z</time></trkpt><trkpt lat="42.2354179" lon="13.9039093"><ele>291.25</ele><time>2026-05-02T08:30:20.937Z</time></trkpt><trkpt lat="42.235383" lon="13.9037102"><ele>293.0</ele><time>2026-05-02T08:30:21.938Z</time></trkpt><trkpt lat="42.2353427" lon="13.9035176"><ele>293.5</ele><time>2026-05-02T08:30:22.937Z</time></trkpt><trkpt lat="42.2353097" lon="13.9033085"><ele>294.0</ele><time>2026-05-02T08:30:23.937Z</time></trkpt><trkpt lat="42.2352813" lon="13.9031074"><ele>294.5</ele><time>2026-05-02T08:30:24.938Z</time></trkpt><trkpt lat="42.2352668" lon="13.9029439"><ele>295.0</ele><time>2026-05-02T08:30:25.936Z</time></trkpt><trkpt lat="42.235251" lon="13.9028305"><ele>295.0</ele><time>2026-05-02T08:30:26.938Z</time></trkpt><trkpt lat="42.2352601" lon="13.9027435"><ele>295.0</ele><time>2026-05-02T08:30:27.937Z</time></trkpt><trkpt lat="42.2353242" lon="13.9027416"><ele>295.0</ele><time>2026-05-02T08:30:29.939Z</time></trkpt><trkpt lat="42.2353566" lon="13.9028438"><ele>295.0</ele><time>2026-05-02T08:30:30.937Z</time></trkpt><trkpt lat="42.235381" lon="13.9029677"><ele>295.0</ele><time>2026-05-02T08:30:31.936Z</time></trkpt><trkpt lat="42.2354145" lon="13.9031091"><ele>295.0</ele><time>2026-05-02T08:30:32.937Z</time></trkpt><trkpt lat="42.2354589" lon="13.9032774"><ele>294.5</ele><time>2026-05-02T08:30:33.937Z</time></trkpt><trkpt lat="42.235509" lon="13.9034529"><ele>294.0</ele><time>2026-05-02T08:30:34.936Z</time></trkpt><trkpt lat="42.2355661" lon="13.9036138"><ele>293.5</ele><time>2026-05-02T08:30:35.938Z</time></trkpt><trkpt lat="42.23563" lon="13.9037351"><ele>293.0</ele><time>2026-05-02T08:30:36.937Z</time></trkpt><trkpt lat="42.2356956" lon="13.9038251"><ele>294.8</ele><time>2026-05-02T08:30:37.937Z</time></trkpt><trkpt lat="42.2357669" lon="13.903863"><ele>296.6</ele><time>2026-05-02T08:30:38.937Z</time></trkpt><trkpt lat="42.2358689" lon="13.9038336"><ele>298.4</ele><time>2026-05-02T08:30:40.937Z</time></trkpt><trkpt lat="42.2358772" lon="13.9037206"><ele>300.2</ele><time>2026-05-02T08:30:41.938Z</time></trkpt><trkpt lat="42.2358803" lon="13.9035972"><ele>302.0</ele><time>2026-05-02T08:30:42.936Z</time></trkpt><trkpt lat="42.2358731" lon="13.9034602"><ele>303.5</ele><time>2026-05-02T08:30:43.938Z</time></trkpt><trkpt lat="42.2358641" lon="13.9033019"><ele>305.0</ele><time>2026-05-02T08:30:44.938Z</time></trkpt><trkpt lat="42.2358537" lon="13.90314"><ele>306.5</ele><time>2026-05-02T08:30:45.937Z</time></trkpt><trkpt lat="42.2358445" lon="13.9029693"><ele>308.0</ele><time>2026-05-02T08:30:46.936Z</time></trkpt><trkpt lat="42.235835" lon="13.9027931"><ele>308.0</ele><time>2026-05-02T08:30:47.936Z</time></trkpt><trkpt lat="42.2358189" lon="13.9026193"><ele>308.0</ele><time>2026-05-02T08:30:48.937Z</time></trkpt><trkpt lat="42.2358065" lon="13.9024421"><ele>308.0</ele><time>2026-05-02T08:30:49.936Z</time></trkpt><trkpt lat="42.2357928" lon="13.9022636"><ele>308.0</ele><time>2026-05-02T08:30:50.937Z</time></trkpt><trkpt lat="42.2357826" lon="13.9020838"><ele>310.0</ele><time>2026-05-02T08:30:51.937Z</time></trkpt><trkpt lat="42.235771" lon="13.9019097"><ele>312.0</ele><time>2026-05-02T08:30:52.936Z</time></trkpt><trkpt lat="42.2357494" lon="13.9017324"><ele>314.0</ele><time>2026-05-02T08:30:53.938Z</time></trkpt><trkpt lat="42.2357314" lon="13.9015567"><ele>316.0</ele><time>2026-05-02T08:30:54.937Z</time></trkpt><trkpt lat="42.2357222" lon="13.9013705"><ele>317.5</ele><time>2026-05-02T08:30:55.937Z</time></trkpt><trkpt lat="42.2357113" lon="13.9011845"><ele>319.0</ele><time>2026-05-02T08:30:56.936Z</time></trkpt><trkpt lat="42.2357032" lon="13.9009935"><ele>320.5</ele><time>2026-05-02T08:30:57.937Z</time></trkpt><trkpt lat="42.2356962" lon="13.9008043"><ele>322.0</ele><time>2026-05-02T08:30:58.936Z</time></trkpt><trkpt lat="42.2356876" lon="13.9006133"><ele>323.75</ele><time>2026-05-02T08:30:59.938Z</time></trkpt><trkpt lat="42.2356805" lon="13.9004229"><ele>325.5</ele><time>2026-05-02T08:31:00.938Z</time></trkpt><trkpt lat="42.2356743" lon="13.9002499"><ele>327.25</ele><time>2026-05-02T08:31:01.938Z</time></trkpt><trkpt lat="42.2356662" lon="13.9000851"><ele>329.0</ele><time>2026-05-02T08:31:02.936Z</time></trkpt><trkpt lat="42.2356763" lon="13.8999308"><ele>329.75</ele><time>2026-05-02T08:31:03.938Z</time></trkpt><trkpt lat="42.2356926" lon="13.8997736"><ele>330.5</ele><time>2026-05-02T08:31:04.936Z</time></trkpt><trkpt lat="42.2357159" lon="13.8996207"><ele>331.25</ele><time>2026-05-02T08:31:05.939Z</time></trkpt><trkpt lat="42.2357468" lon="13.8994699"><ele>332.0</ele><time>2026-05-02T08:31:06.937Z</time></trkpt><trkpt lat="42.2357588" lon="13.8993228"><ele>333.6</ele><time>2026-05-02T08:31:07.938Z</time></trkpt><trkpt lat="42.23576" lon="13.8991811"><ele>335.20000000000005</ele><time>2026-05-02T08:31:08.937Z</time></trkpt><trkpt lat="42.2357502" lon="13.8990488"><ele>336.8</ele><time>2026-05-02T08:31:09.937Z</time></trkpt><trkpt lat="42.2357447" lon="13.8989164"><ele>338.4</ele><time>2026-05-02T08:31:10.937Z</time></trkpt><trkpt lat="42.2357419" lon="13.8987804"><ele>340.0</ele><time>2026-05-02T08:31:11.937Z</time></trkpt><trkpt lat="42.2357426" lon="13.8986388"><ele>340.0</ele><time>2026-05-02T08:31:12.937Z</time></trkpt><trkpt lat="42.2357471" lon="13.8984917"><ele>340.0</ele><time>2026-05-02T08:31:13.938Z</time></trkpt><trkpt lat="42.235729" lon="13.8983497"><ele>340.0</ele><time>2026-05-02T08:31:14.936Z</time></trkpt><trkpt lat="42.235714" lon="13.8982106"><ele>340.0</ele><time>2026-05-02T08:31:15.936Z</time></trkpt><trkpt lat="42.2356901" lon="13.8980916"><ele>340.0</ele><time>2026-05-02T08:31:16.938Z</time></trkpt><trkpt lat="42.235676" lon="13.8979786"><ele>341.6</ele><time>2026-05-02T08:31:17.937Z</time></trkpt><trkpt lat="42.2356694" lon="13.8978503"><ele>343.2</ele><time>2026-05-02T08:31:18.937Z</time></trkpt><trkpt lat="42.2356716" lon="13.8977073"><ele>344.79999999999995</ele><time>2026-05-02T08:31:19.937Z</time></trkpt><trkpt lat="42.2356867" lon="13.8975526"><ele>346.4</ele><time>2026-05-02T08:31:20.938Z</time></trkpt><trkpt lat="42.2357072" lon="13.8973939"><ele>348.0</ele><time>2026-05-02T08:31:21.937Z</time></trkpt><trkpt lat="42.2357344" lon="13.8972329"><ele>349.25</ele><time>2026-05-02T08:31:22.937Z</time></trkpt><trkpt lat="42.2357585" lon="13.8970732"><ele>350.5</ele><time>2026-05-02T08:31:23.937Z</time></trkpt><trkpt lat="42.2357878" lon="13.8969288"><ele>351.75</ele><time>2026-05-02T08:31:24.938Z</time></trkpt><trkpt lat="42.2358169" lon="13.8967847"><ele>353.0</ele><time>2026-05-02T08:31:25.937Z</time></trkpt><trkpt lat="42.2358455" lon="13.8966399"><ele>353.0</ele><time>2026-05-02T08:31:26.936Z</time></trkpt><trkpt lat="42.2358646" lon="13.8965009"><ele>353.0</ele><time>2026-05-02T08:31:27.938Z</time></trkpt><trkpt lat="42.2358987" lon="13.8963344"><ele>353.0</ele><time>2026-05-02T08:31:28.938Z</time></trkpt><trkpt lat="42.2359254" lon="13.8961847"><ele>353.0</ele><time>2026-05-02T08:31:29.936Z</time></trkpt><trkpt lat="42.2359408" lon="13.8960211"><ele>352.0</ele><time>2026-05-02T08:31:30.94Z</time></trkpt><trkpt lat="42.2359503" lon="13.8958578"><ele>351.0</ele><time>2026-05-02T08:31:31.936Z</time></trkpt><trkpt lat="42.2359731" lon="13.8956954"><ele>350.0</ele><time>2026-05-02T08:31:32.938Z</time></trkpt><trkpt lat="42.2360072" lon="13.8955559"><ele>349.0</ele><time>2026-05-02T08:31:33.936Z</time></trkpt><trkpt lat="42.236032" lon="13.89541"><ele>349.0</ele><time>2026-05-02T08:31:34.937Z</time></trkpt><trkpt lat="42.2360542" lon="13.8952499"><ele>349.0</ele><time>2026-05-02T08:31:35.937Z</time></trkpt><trkpt lat="42.2360715" lon="13.8950775"><ele>349.0</ele><time>2026-05-02T08:31:36.937Z</time></trkpt><trkpt lat="42.2360851" lon="13.8949116"><ele>349.0</ele><time>2026-05-02T08:31:37.936Z</time></trkpt><trkpt lat="42.2360958" lon="13.8947597"><ele>348.6</ele><time>2026-05-02T08:31:38.938Z</time></trkpt><trkpt lat="42.2361115" lon="13.8946137"><ele>348.2</ele><time>2026-05-02T08:31:39.937Z</time></trkpt><trkpt lat="42.2361233" lon="13.8944677"><ele>347.8</ele><time>2026-05-02T08:31:40.937Z</time></trkpt><trkpt lat="42.2361572" lon="13.8943606"><ele>347.40000000000003</ele><time>2026-05-02T08:31:41.938Z</time></trkpt><trkpt lat="42.2361929" lon="13.8942548"><ele>347.0</ele><time>2026-05-02T08:31:42.938Z</time></trkpt><trkpt lat="42.2362256" lon="13.8941361"><ele>346.8</ele><time>2026-05-02T08:31:43.939Z</time></trkpt><trkpt lat="42.2362426" lon="13.8940006"><ele>346.6</ele><time>2026-05-02T08:31:44.937Z</time></trkpt><trkpt lat="42.2362428" lon="13.8938452"><ele>346.40000000000003</ele><time>2026-05-02T08:31:45.936Z</time></trkpt><trkpt lat="42.236243" lon="13.8936926"><ele>346.20000000000005</ele><time>2026-05-02T08:31:46.938Z</time></trkpt><trkpt lat="42.2362423" lon="13.8935312"><ele>346.0</ele><time>2026-05-02T08:31:47.936Z</time></trkpt><trkpt lat="42.2362306" lon="13.8933638"><ele>346.0</ele><time>2026-05-02T08:31:48.936Z</time></trkpt><trkpt lat="42.2362231" lon="13.8931948"><ele>346.0</ele><time>2026-05-02T08:31:49.936Z</time></trkpt><trkpt lat="42.2362257" lon="13.8930327"><ele>346.0</ele><time>2026-05-02T08:31:50.936Z</time></trkpt><trkpt lat="42.2362261" lon="13.8928882"><ele>346.0</ele><time>2026-05-02T08:31:51.937Z</time></trkpt><trkpt lat="42.2362244" lon="13.8927522"><ele>346.0</ele><time>2026-05-02T08:31:52.937Z</time></trkpt><trkpt lat="42.2362239" lon="13.8926155"><ele>346.0</ele><time>2026-05-02T08:31:53.938Z</time></trkpt><trkpt lat="42.2362178" lon="13.8924803"><ele>346.0</ele><time>2026-05-02T08:31:54.938Z</time></trkpt><trkpt lat="42.236209" lon="13.8923377"><ele>346.0</ele><time>2026-05-02T08:31:55.938Z</time></trkpt><trkpt lat="42.2361957" lon="13.892197"><ele>346.0</ele><time>2026-05-02T08:31:56.937Z</time></trkpt><trkpt lat="42.2361737" lon="13.8920463"><ele>347.5</ele><time>2026-05-02T08:31:57.937Z</time></trkpt><trkpt lat="42.2361339" lon="13.8918978"><ele>349.0</ele><time>2026-05-02T08:31:58.937Z</time></trkpt><trkpt lat="42.2360876" lon="13.8917457"><ele>350.5</ele><time>2026-05-02T08:31:59.938Z</time></trkpt><trkpt lat="42.2360322" lon="13.8915917"><ele>352.0</ele><time>2026-05-02T08:32:00.938Z</time></trkpt><trkpt lat="42.2359619" lon="13.8914391"><ele>354.0</ele><time>2026-05-02T08:32:01.937Z</time></trkpt><trkpt lat="42.2358863" lon="13.8912834"><ele>356.0</ele><time>2026-05-02T08:32:02.938Z</time></trkpt><trkpt lat="42.2358196" lon="13.8911219"><ele>358.0</ele><time>2026-05-02T08:32:03.938Z</time></trkpt><trkpt lat="42.2357741" lon="13.8909429"><ele>360.0</ele><time>2026-05-02T08:32:04.939Z</time></trkpt><trkpt lat="42.2357386" lon="13.8907469"><ele>361.5</ele><time>2026-05-02T08:32:05.937Z</time></trkpt><trkpt lat="42.235709" lon="13.8905434"><ele>363.0</ele><time>2026-05-02T08:32:06.938Z</time></trkpt><trkpt lat="42.2356825" lon="13.8903405"><ele>364.5</ele><time>2026-05-02T08:32:07.937Z</time></trkpt><trkpt lat="42.2356453" lon="13.8901549"><ele>366.0</ele><time>2026-05-02T08:32:08.937Z</time></trkpt><trkpt lat="42.2356014" lon="13.8899749"><ele>366.0</ele><time>2026-05-02T08:32:09.937Z</time></trkpt><trkpt lat="42.2355349" lon="13.8897939"><ele>366.0</ele><time>2026-05-02T08:32:10.938Z</time></trkpt><trkpt lat="42.2354578" lon="13.8896239"><ele>366.0</ele><time>2026-05-02T08:32:11.937Z</time></trkpt><trkpt lat="42.2353698" lon="13.8894433"><ele>369.3333333333333</ele><time>2026-05-02T08:32:12.938Z</time></trkpt><trkpt lat="42.235277" lon="13.8892563"><ele>372.66666666666663</ele><time>2026-05-02T08:32:13.938Z</time></trkpt><trkpt lat="42.2351928" lon="13.8890579"><ele>376.0</ele><time>2026-05-02T08:32:14.936Z</time></trkpt><trkpt lat="42.2351047" lon="13.8888652"><ele>376.0</ele><time>2026-05-02T08:32:15.937Z</time></trkpt><trkpt lat="42.2350002" lon="13.8886768"><ele>376.0</ele><time>2026-05-02T08:32:16.939Z</time></trkpt><trkpt lat="42.2348911" lon="13.8884902"><ele>376.0</ele><time>2026-05-02T08:32:17.938Z</time></trkpt><trkpt lat="42.2347848" lon="13.8883081"><ele>378.0</ele><time>2026-05-02T08:32:18.938Z</time></trkpt><trkpt lat="42.2346689" lon="13.8881259"><ele>380.0</ele><time>2026-05-02T08:32:19.938Z</time></trkpt><trkpt lat="42.2345486" lon="13.887943"><ele>382.0</ele><time>2026-05-02T08:32:20.938Z</time></trkpt><trkpt lat="42.2344314" lon="13.8877568"><ele>388.3333333333333</ele><time>2026-05-02T08:32:21.938Z</time></trkpt><trkpt lat="42.2343236" lon="13.8875773"><ele>394.66666666666663</ele><time>2026-05-02T08:32:22.937Z</time></trkpt><trkpt lat="42.234214" lon="13.8873956"><ele>401.0</ele><time>2026-05-02T08:32:23.936Z</time></trkpt><trkpt lat="42.2341106" lon="13.8872215"><ele>401.0</ele><time>2026-05-02T08:32:24.936Z</time></trkpt><trkpt lat="42.2340026" lon="13.8870514"><ele>401.0</ele><time>2026-05-02T08:32:25.938Z</time></trkpt><trkpt lat="42.2339032" lon="13.8869048"><ele>401.0</ele><time>2026-05-02T08:32:26.937Z</time></trkpt><trkpt lat="42.2338055" lon="13.8867885"><ele>401.0</ele><time>2026-05-02T08:32:27.938Z</time></trkpt><trkpt lat="42.2337087" lon="13.8867043"><ele>401.16666666666663</ele><time>2026-05-02T08:32:28.936Z</time></trkpt><trkpt lat="42.2336127" lon="13.8866402"><ele>401.3333333333333</ele><time>2026-05-02T08:32:29.937Z</time></trkpt><trkpt lat="42.2335307" lon="13.8865697"><ele>401.5</ele><time>2026-05-02T08:32:30.937Z</time></trkpt><trkpt lat="42.2334735" lon="13.8864769"><ele>401.66666666666663</ele><time>2026-05-02T08:32:31.937Z</time></trkpt><trkpt lat="42.2334669" lon="13.8863789"><ele>401.8333333333333</ele><time>2026-05-02T08:32:32.937Z</time></trkpt><trkpt lat="42.2334904" lon="13.8862945"><ele>402.0</ele><time>2026-05-02T08:32:33.937Z</time></trkpt><trkpt lat="42.233551" lon="13.8862452"><ele>402.0</ele><time>2026-05-02T08:32:34.938Z</time></trkpt><trkpt lat="42.233625" lon="13.8862394"><ele>402.0</ele><time>2026-05-02T08:32:35.937Z</time></trkpt><trkpt lat="42.2337196" lon="13.8862778"><ele>402.0</ele><time>2026-05-02T08:32:36.938Z</time></trkpt><trkpt lat="42.2338216" lon="13.8863493"><ele>402.0</ele><time>2026-05-02T08:32:37.937Z</time></trkpt><trkpt lat="42.2339322" lon="13.8864377"><ele>402.0</ele><time>2026-05-02T08:32:38.938Z</time></trkpt><trkpt lat="42.2340486" lon="13.8865567"><ele>401.75</ele><time>2026-05-02T08:32:39.938Z</time></trkpt><trkpt lat="42.2341625" lon="13.8866867"><ele>401.5</ele><time>2026-05-02T08:32:40.937Z</time></trkpt><trkpt lat="42.2342661" lon="13.8868199"><ele>401.25</ele><time>2026-05-02T08:32:41.938Z</time></trkpt><trkpt lat="42.2343594" lon="13.8869381"><ele>401.0</ele><time>2026-05-02T08:32:42.937Z</time></trkpt><trkpt lat="42.23445" lon="13.8870081"><ele>400.99999999999994</ele><time>2026-05-02T08:32:43.937Z</time></trkpt><trkpt lat="42.2345342" lon="13.8870295"><ele>401.0</ele><time>2026-05-02T08:32:44.938Z</time></trkpt><trkpt lat="42.2346093" lon="13.8869979"><ele>401.0</ele><time>2026-05-02T08:32:45.937Z</time></trkpt><trkpt lat="42.2346609" lon="13.8869247"><ele>401.0</ele><time>2026-05-02T08:32:46.937Z</time></trkpt><trkpt lat="42.2346795" lon="13.8868274"><ele>400.99999999999994</ele><time>2026-05-02T08:32:47.938Z</time></trkpt><trkpt lat="42.2346536" lon="13.8867239"><ele>401.0</ele><time>2026-05-02T08:32:48.937Z</time></trkpt><trkpt lat="42.2345893" lon="13.8866228"><ele>405.0</ele><time>2026-05-02T08:32:49.937Z</time></trkpt><trkpt lat="42.2344991" lon="13.8865196"><ele>409.0</ele><time>2026-05-02T08:32:50.937Z</time></trkpt><trkpt lat="42.2344025" lon="13.8864134"><ele>413.0</ele><time>2026-05-02T08:32:51.937Z</time></trkpt><trkpt lat="42.2343095" lon="13.8862893"><ele>417.0</ele><time>2026-05-02T08:32:52.938Z</time></trkpt><trkpt lat="42.2342352" lon="13.8861372"><ele>417.0</ele><time>2026-05-02T08:32:53.938Z</time></trkpt><trkpt lat="42.2341664" lon="13.8859826"><ele>417.0</ele><time>2026-05-02T08:32:54.937Z</time></trkpt><trkpt lat="42.2341011" lon="13.8858133"><ele>417.0</ele><time>2026-05-02T08:32:55.936Z</time></trkpt><trkpt lat="42.2340393" lon="13.8856428"><ele>417.0</ele><time>2026-05-02T08:32:56.936Z</time></trkpt><trkpt lat="42.2339955" lon="13.8854573"><ele>416.25</ele><time>2026-05-02T08:32:57.936Z</time></trkpt><trkpt lat="42.2339595" lon="13.8852671"><ele>415.5</ele><time>2026-05-02T08:32:58.937Z</time></trkpt><trkpt lat="42.2339358" lon="13.8850673"><ele>414.75</ele><time>2026-05-02T08:32:59.938Z</time></trkpt><trkpt lat="42.2339085" lon="13.8848677"><ele>414.0</ele><time>2026-05-02T08:33:00.936Z</time></trkpt><trkpt lat="42.2338741" lon="13.8846594"><ele>417.5</ele><time>2026-05-02T08:33:01.937Z</time></trkpt><trkpt lat="42.2338395" lon="13.8844631"><ele>421.0</ele><time>2026-05-02T08:33:02.938Z</time></trkpt><trkpt lat="42.2338063" lon="13.8842707"><ele>424.5</ele><time>2026-05-02T08:33:03.936Z</time></trkpt><trkpt lat="42.2337737" lon="13.8840754"><ele>428.0</ele><time>2026-05-02T08:33:04.938Z</time></trkpt><trkpt lat="42.2337334" lon="13.8838866"><ele>432.25</ele><time>2026-05-02T08:33:05.937Z</time></trkpt><trkpt lat="42.2336929" lon="13.8837032"><ele>436.5</ele><time>2026-05-02T08:33:06.937Z</time></trkpt><trkpt lat="42.2336536" lon="13.8835184"><ele>440.75</ele><time>2026-05-02T08:33:07.937Z</time></trkpt><trkpt lat="42.2336183" lon="13.8833367"><ele>445.0</ele><time>2026-05-02T08:33:08.937Z</time></trkpt><trkpt lat="42.2335773" lon="13.8831573"><ele>449.0</ele><time>2026-05-02T08:33:09.937Z</time></trkpt><trkpt lat="42.2335552" lon="13.8829742"><ele>453.0</ele><time>2026-05-02T08:33:10.937Z</time></trkpt><trkpt lat="42.2335446" lon="13.8827822"><ele>457.0</ele><time>2026-05-02T08:33:11.937Z</time></trkpt><trkpt lat="42.233551" lon="13.8825809"><ele>461.0</ele><time>2026-05-02T08:33:12.936Z</time></trkpt><trkpt lat="42.2335683" lon="13.8823751"><ele>465.66666666666663</ele><time>2026-05-02T08:33:13.937Z</time></trkpt><trkpt lat="42.233593" lon="13.8821705"><ele>470.33333333333337</ele><time>2026-05-02T08:33:14.936Z</time></trkpt><trkpt lat="42.2336177" lon="13.88197"><ele>475.0</ele><time>2026-05-02T08:33:15.936Z</time></trkpt><trkpt lat="42.2336414" lon="13.8817661"><ele>476.33333333333337</ele><time>2026-05-02T08:33:16.937Z</time></trkpt><trkpt lat="42.2336605" lon="13.8815616"><ele>477.66666666666663</ele><time>2026-05-02T08:33:17.937Z</time></trkpt><trkpt lat="42.2337075" lon="13.8813516"><ele>479.0</ele><time>2026-05-02T08:33:18.937Z</time></trkpt><trkpt lat="42.2337511" lon="13.8811431"><ele>478.66666666666663</ele><time>2026-05-02T08:33:19.937Z</time></trkpt><trkpt lat="42.2337911" lon="13.880927"><ele>478.33333333333337</ele><time>2026-05-02T08:33:20.937Z</time></trkpt><trkpt lat="42.2338203" lon="13.8807142"><ele>478.0</ele><time>2026-05-02T08:33:21.937Z</time></trkpt><trkpt lat="42.2338345" lon="13.8804974"><ele>478.0</ele><time>2026-05-02T08:33:22.937Z</time></trkpt><trkpt lat="42.2338105" lon="13.8802888"><ele>478.0</ele><time>2026-05-02T08:33:23.937Z</time></trkpt><trkpt lat="42.2337692" lon="13.8800909"><ele>478.0</ele><time>2026-05-02T08:33:24.938Z</time></trkpt><trkpt lat="42.2337282" lon="13.8799005"><ele>477.5</ele><time>2026-05-02T08:33:25.936Z</time></trkpt><trkpt lat="42.2337023" lon="13.8797159"><ele>477.0</ele><time>2026-05-02T08:33:26.939Z</time></trkpt><trkpt lat="42.2336958" lon="13.8795231"><ele>476.5</ele><time>2026-05-02T08:33:27.937Z</time></trkpt><trkpt lat="42.2337005" lon="13.8793338"><ele>476.0</ele><time>2026-05-02T08:33:28.937Z</time></trkpt><trkpt lat="42.233737" lon="13.879142"><ele>475.66666666666663</ele><time>2026-05-02T08:33:29.937Z</time></trkpt><trkpt lat="42.2337803" lon="13.8789433"><ele>475.33333333333337</ele><time>2026-05-02T08:33:30.937Z</time></trkpt><trkpt lat="42.2338318" lon="13.8787396"><ele>475.0</ele><time>2026-05-02T08:33:31.937Z</time></trkpt><trkpt lat="42.2338861" lon="13.8785239"><ele>474.6666666666667</ele><time>2026-05-02T08:33:32.936Z</time></trkpt><trkpt lat="42.2339315" lon="13.8783071"><ele>474.33333333333337</ele><time>2026-05-02T08:33:33.937Z</time></trkpt><trkpt lat="42.2339716" lon="13.8780876"><ele>474.0</ele><time>2026-05-02T08:33:34.938Z</time></trkpt><trkpt lat="42.2340127" lon="13.8778635"><ele>470.66666666666663</ele><time>2026-05-02T08:33:35.937Z</time></trkpt><trkpt lat="42.234047" lon="13.877642"><ele>467.3333333333333</ele><time>2026-05-02T08:33:36.937Z</time></trkpt><trkpt lat="42.2340759" lon="13.8774161"><ele>464.0</ele><time>2026-05-02T08:33:37.937Z</time></trkpt><trkpt lat="42.2340976" lon="13.8771937"><ele>464.0</ele><time>2026-05-02T08:33:38.937Z</time></trkpt><trkpt lat="42.2341116" lon="13.8769848"><ele>464.0</ele><time>2026-05-02T08:33:39.938Z</time></trkpt><trkpt lat="42.2341304" lon="13.8767819"><ele>464.0</ele><time>2026-05-02T08:33:40.937Z</time></trkpt><trkpt lat="42.234161" lon="13.8765811"><ele>464.66666666666663</ele><time>2026-05-02T08:33:41.937Z</time></trkpt><trkpt lat="42.2342158" lon="13.876389"><ele>465.33333333333337</ele><time>2026-05-02T08:33:42.938Z</time></trkpt><trkpt lat="42.2342888" lon="13.8762057"><ele>466.0</ele><time>2026-05-02T08:33:43.937Z</time></trkpt><trkpt lat="42.2343733" lon="13.8760215"><ele>469.33333333333337</ele><time>2026-05-02T08:33:44.936Z</time></trkpt><trkpt lat="42.234471" lon="13.8758437"><ele>472.66666666666663</ele><time>2026-05-02T08:33:45.942Z</time></trkpt><trkpt lat="42.2345871" lon="13.8756723"><ele>476.0</ele><time>2026-05-02T08:33:46.936Z</time></trkpt><trkpt lat="42.2347041" lon="13.875498"><ele>473.0</ele><time>2026-05-02T08:33:47.938Z</time></trkpt><trkpt lat="42.2348309" lon="13.8753446"><ele>470.0</ele><time>2026-05-02T08:33:48.937Z</time></trkpt><trkpt lat="42.2349624" lon="13.8752048"><ele>467.0</ele><time>2026-05-02T08:33:49.938Z</time></trkpt><trkpt lat="42.2350963" lon="13.8750708"><ele>467.0</ele><time>2026-05-02T08:33:50.938Z</time></trkpt><trkpt lat="42.2352327" lon="13.8749513"><ele>467.0</ele><time>2026-05-02T08:33:51.938Z</time></trkpt><trkpt lat="42.2353685" lon="13.8748284"><ele>467.0</ele><time>2026-05-02T08:33:52.936Z</time></trkpt><trkpt lat="42.235494" lon="13.8746932"><ele>467.0</ele><time>2026-05-02T08:33:53.938Z</time></trkpt><trkpt lat="42.235591" lon="13.8745729"><ele>467.00000000000006</ele><time>2026-05-02T08:33:54.937Z</time></trkpt><trkpt lat="42.235658" lon="13.8744545"><ele>467.00000000000006</ele><time>2026-05-02T08:33:55.937Z</time></trkpt><trkpt lat="42.2356897" lon="13.8743354"><ele>467.0</ele><time>2026-05-02T08:33:56.937Z</time></trkpt><trkpt lat="42.2356706" lon="13.874221"><ele>467.0</ele><time>2026-05-02T08:33:57.937Z</time></trkpt><trkpt lat="42.2356184" lon="13.8741166"><ele>470.0</ele><time>2026-05-02T08:33:58.937Z</time></trkpt><trkpt lat="42.2355461" lon="13.8740177"><ele>473.00000000000006</ele><time>2026-05-02T08:33:59.937Z</time></trkpt><trkpt lat="42.23547" lon="13.8739191"><ele>476.00000000000006</ele><time>2026-05-02T08:34:00.938Z</time></trkpt><trkpt lat="42.2354068" lon="13.8738128"><ele>479.0</ele><time>2026-05-02T08:34:01.938Z</time></trkpt><trkpt lat="42.2353672" lon="13.8737095"><ele>482.0</ele><time>2026-05-02T08:34:02.937Z</time></trkpt><trkpt lat="42.235354" lon="13.8736043"><ele>482.0</ele><time>2026-05-02T08:34:03.937Z</time></trkpt><trkpt lat="42.2353862" lon="13.8735144"><ele>482.00000000000006</ele><time>2026-05-02T08:34:04.936Z</time></trkpt><trkpt lat="42.2354299" lon="13.8734125"><ele>482.00000000000006</ele><time>2026-05-02T08:34:05.937Z</time></trkpt><trkpt lat="42.2354839" lon="13.8733041"><ele>482.0</ele><time>2026-05-02T08:34:06.936Z</time></trkpt><trkpt lat="42.2355921" lon="13.8732464"><ele>482.0</ele><time>2026-05-02T08:34:07.937Z</time></trkpt><trkpt lat="42.2357007" lon="13.8732159"><ele>476.75</ele><time>2026-05-02T08:34:08.937Z</time></trkpt><trkpt lat="42.235822" lon="13.8732149"><ele>471.5</ele><time>2026-05-02T08:34:09.937Z</time></trkpt><trkpt lat="42.2359605" lon="13.8732404"><ele>466.25</ele><time>2026-05-02T08:34:10.937Z</time></trkpt><trkpt lat="42.2361023" lon="13.8732845"><ele>461.0</ele><time>2026-05-02T08:34:11.936Z</time></trkpt><trkpt lat="42.2362539" lon="13.8733316"><ele>461.0</ele><time>2026-05-02T08:34:12.936Z</time></trkpt><trkpt lat="42.2364068" lon="13.873374"><ele>461.0</ele><time>2026-05-02T08:34:13.937Z</time></trkpt><trkpt lat="42.2365623" lon="13.8733947"><ele>461.0</ele><time>2026-05-02T08:34:14.937Z</time></trkpt><trkpt lat="42.2367106" lon="13.8733918"><ele>461.25</ele><time>2026-05-02T08:34:15.938Z</time></trkpt><trkpt lat="42.2368541" lon="13.873375"><ele>461.5</ele><time>2026-05-02T08:34:16.936Z</time></trkpt><trkpt lat="42.2369838" lon="13.8733307"><ele>461.75</ele><time>2026-05-02T08:34:17.937Z</time></trkpt><trkpt lat="42.2370952" lon="13.873265"><ele>462.0</ele><time>2026-05-02T08:34:18.938Z</time></trkpt><trkpt lat="42.2372008" lon="13.8732018"><ele>460.75</ele><time>2026-05-02T08:34:19.938Z</time></trkpt><trkpt lat="42.2373193" lon="13.8731358"><ele>459.5</ele><time>2026-05-02T08:34:20.938Z</time></trkpt><trkpt lat="42.2374369" lon="13.8730642"><ele>458.25</ele><time>2026-05-02T08:34:21.937Z</time></trkpt><trkpt lat="42.2375523" lon="13.8729721"><ele>457.0</ele><time>2026-05-02T08:34:22.937Z</time></trkpt><trkpt lat="42.2376491" lon="13.8728591"><ele>457.0</ele><time>2026-05-02T08:34:23.936Z</time></trkpt><trkpt lat="42.2377297" lon="13.8727239"><ele>457.0</ele><time>2026-05-02T08:34:24.936Z</time></trkpt><trkpt lat="42.237808" lon="13.8725715"><ele>457.0</ele><time>2026-05-02T08:34:25.937Z</time></trkpt><trkpt lat="42.2378559" lon="13.8723925"><ele>457.0</ele><time>2026-05-02T08:34:26.937Z</time></trkpt><trkpt lat="42.2379029" lon="13.8722157"><ele>461.0</ele><time>2026-05-02T08:34:27.937Z</time></trkpt><trkpt lat="42.2379567" lon="13.8720473"><ele>465.0</ele><time>2026-05-02T08:34:28.937Z</time></trkpt><trkpt lat="42.2380171" lon="13.8718848"><ele>469.0</ele><time>2026-05-02T08:34:29.937Z</time></trkpt><trkpt lat="42.2380804" lon="13.871729"><ele>473.0</ele><time>2026-05-02T08:34:30.937Z</time></trkpt><trkpt lat="42.2381561" lon="13.8715738"><ele>473.25</ele><time>2026-05-02T08:34:31.937Z</time></trkpt><trkpt lat="42.2382366" lon="13.871422"><ele>473.5</ele><time>2026-05-02T08:34:32.936Z</time></trkpt><trkpt lat="42.2383256" lon="13.8712847"><ele>473.75</ele><time>2026-05-02T08:34:33.937Z</time></trkpt><trkpt lat="42.2384181" lon="13.871142"><ele>474.0</ele><time>2026-05-02T08:34:34.937Z</time></trkpt><trkpt lat="42.2384977" lon="13.871016"><ele>476.6666666666667</ele><time>2026-05-02T08:34:35.937Z</time></trkpt><trkpt lat="42.2385759" lon="13.8709001"><ele>479.33333333333337</ele><time>2026-05-02T08:34:36.936Z</time></trkpt><trkpt lat="42.238639" lon="13.8708132"><ele>482.0</ele><time>2026-05-02T08:34:37.937Z</time></trkpt><trkpt lat="42.2386911" lon="13.8707417"><ele>484.6666666666667</ele><time>2026-05-02T08:34:38.937Z</time></trkpt><trkpt lat="42.2387373" lon="13.8706767"><ele>487.33333333333337</ele><time>2026-05-02T08:34:39.937Z</time></trkpt><trkpt lat="42.2386799" lon="13.8705862"><ele>490.0</ele><time>2026-05-02T08:34:41.937Z</time></trkpt><trkpt lat="42.2386163" lon="13.8705893"><ele>490.0</ele><time>2026-05-02T08:34:42.937Z</time></trkpt><trkpt lat="42.2385301" lon="13.8706093"><ele>490.0</ele><time>2026-05-02T08:34:43.937Z</time></trkpt><trkpt lat="42.2384265" lon="13.8706362"><ele>490.0</ele><time>2026-05-02T08:34:44.937Z</time></trkpt><trkpt lat="42.2383215" lon="13.8706546"><ele>490.0</ele><time>2026-05-02T08:34:45.938Z</time></trkpt><trkpt lat="42.2382027" lon="13.8706747"><ele>490.0</ele><time>2026-05-02T08:34:46.937Z</time></trkpt><trkpt lat="42.2380776" lon="13.8707062"><ele>489.2</ele><time>2026-05-02T08:34:47.937Z</time></trkpt><trkpt lat="42.2379692" lon="13.8707456"><ele>488.4</ele><time>2026-05-02T08:34:48.937Z</time></trkpt><trkpt lat="42.2378663" lon="13.8708231"><ele>487.6</ele><time>2026-05-02T08:34:49.937Z</time></trkpt><trkpt lat="42.2377843" lon="13.8708992"><ele>486.8</ele><time>2026-05-02T08:34:50.937Z</time></trkpt><trkpt lat="42.2377053" lon="13.8709464"><ele>486.0</ele><time>2026-05-02T08:34:51.936Z</time></trkpt><trkpt lat="42.2376232" lon="13.870976"><ele>486.0</ele><time>2026-05-02T08:34:52.937Z</time></trkpt><trkpt lat="42.2375572" lon="13.8709662"><ele>486.0</ele><time>2026-05-02T08:34:53.936Z</time></trkpt><trkpt lat="42.2375192" lon="13.8708593"><ele>486.0</ele><time>2026-05-02T08:34:55.936Z</time></trkpt><trkpt lat="42.2375415" lon="13.8707767"><ele>486.0</ele><time>2026-05-02T08:34:56.937Z</time></trkpt><trkpt lat="42.2375957" lon="13.87068"><ele>486.0</ele><time>2026-05-02T08:34:57.936Z</time></trkpt><trkpt lat="42.2376658" lon="13.8705731"><ele>486.0</ele><time>2026-05-02T08:34:58.936Z</time></trkpt><trkpt lat="42.2377375" lon="13.8704685"><ele>488.8</ele><time>2026-05-02T08:34:59.936Z</time></trkpt><trkpt lat="42.2378192" lon="13.8703563"><ele>491.6</ele><time>2026-05-02T08:35:00.937Z</time></trkpt><trkpt lat="42.2378973" lon="13.8702357"><ele>494.4</ele><time>2026-05-02T08:35:01.937Z</time></trkpt><trkpt lat="42.2379601" lon="13.8701264"><ele>497.2</ele><time>2026-05-02T08:35:02.938Z</time></trkpt><trkpt lat="42.2380013" lon="13.8700333"><ele>500.0</ele><time>2026-05-02T08:35:03.938Z</time></trkpt><trkpt lat="42.2379851" lon="13.8698673"><ele>503.0</ele><time>2026-05-02T08:35:05.937Z</time></trkpt><trkpt lat="42.2379246" lon="13.8697993"><ele>506.0</ele><time>2026-05-02T08:35:06.937Z</time></trkpt><trkpt lat="42.2378469" lon="13.8697463"><ele>509.0</ele><time>2026-05-02T08:35:07.937Z</time></trkpt><trkpt lat="42.2377483" lon="13.8697095"><ele>512.0</ele><time>2026-05-02T08:35:08.937Z</time></trkpt><trkpt lat="42.2376473" lon="13.869671"><ele>515.0</ele><time>2026-05-02T08:35:09.937Z</time></trkpt><trkpt lat="42.2375372" lon="13.869617"><ele>515.0</ele><time>2026-05-02T08:35:10.936Z</time></trkpt><trkpt lat="42.2374273" lon="13.8695342"><ele>515.0</ele><time>2026-05-02T08:35:11.937Z</time></trkpt><trkpt lat="42.2373122" lon="13.8694576"><ele>515.0</ele><time>2026-05-02T08:35:12.936Z</time></trkpt><trkpt lat="42.2371883" lon="13.8693864"><ele>515.0</ele><time>2026-05-02T08:35:13.936Z</time></trkpt><trkpt lat="42.2370632" lon="13.869317"><ele>519.75</ele><time>2026-05-02T08:35:14.937Z</time></trkpt><trkpt lat="42.2369427" lon="13.8692464"><ele>524.5</ele><time>2026-05-02T08:35:15.936Z</time></trkpt><trkpt lat="42.2368273" lon="13.8691775"><ele>529.25</ele><time>2026-05-02T08:35:16.938Z</time></trkpt><trkpt lat="42.2367144" lon="13.8690964"><ele>534.0</ele><time>2026-05-02T08:35:17.938Z</time></trkpt><trkpt lat="42.2365983" lon="13.8690134"><ele>534.0</ele><time>2026-05-02T08:35:18.937Z</time></trkpt><trkpt lat="42.2364908" lon="13.8689275"><ele>534.0</ele><time>2026-05-02T08:35:19.938Z</time></trkpt><trkpt lat="42.2363818" lon="13.8688538"><ele>534.0</ele><time>2026-05-02T08:35:20.937Z</time></trkpt><trkpt lat="42.2362951" lon="13.8687929"><ele>534.0</ele><time>2026-05-02T08:35:21.937Z</time></trkpt><trkpt lat="42.2362368" lon="13.8687288"><ele>534.0</ele><time>2026-05-02T08:35:22.936Z</time></trkpt><trkpt lat="42.236203" lon="13.8686391"><ele>534.8</ele><time>2026-05-02T08:35:23.937Z</time></trkpt><trkpt lat="42.2362242" lon="13.8684969"><ele>535.5999999999999</ele><time>2026-05-02T08:35:25.937Z</time></trkpt><trkpt lat="42.2363229" lon="13.8684528"><ele>536.4</ele><time>2026-05-02T08:35:26.938Z</time></trkpt><trkpt lat="42.2364188" lon="13.8683987"><ele>537.1999999999999</ele><time>2026-05-02T08:35:27.937Z</time></trkpt><trkpt lat="42.2365232" lon="13.8683455"><ele>538.0</ele><time>2026-05-02T08:35:28.936Z</time></trkpt><trkpt lat="42.236635" lon="13.8682903"><ele>540.4</ele><time>2026-05-02T08:35:29.938Z</time></trkpt><trkpt lat="42.2367496" lon="13.868223"><ele>542.8</ele><time>2026-05-02T08:35:30.937Z</time></trkpt><trkpt lat="42.236845" lon="13.8681766"><ele>545.2</ele><time>2026-05-02T08:35:31.937Z</time></trkpt><trkpt lat="42.2369319" lon="13.8681363"><ele>547.6</ele><time>2026-05-02T08:35:32.937Z</time></trkpt><trkpt lat="42.2370072" lon="13.8680986"><ele>550.0</ele><time>2026-05-02T08:35:33.938Z</time></trkpt><trkpt lat="42.2370632" lon="13.8680183"><ele>550.0</ele><time>2026-05-02T08:35:35.937Z</time></trkpt><trkpt lat="42.2370143" lon="13.8678923"><ele>550.0</ele><time>2026-05-02T08:35:37.937Z</time></trkpt><trkpt lat="42.2369491" lon="13.8678511"><ele>550.0</ele><time>2026-05-02T08:35:38.937Z</time></trkpt><trkpt lat="42.2368821" lon="13.8678058"><ele>550.0</ele><time>2026-05-02T08:35:39.936Z</time></trkpt><trkpt lat="42.2368001" lon="13.8677393"><ele>550.0</ele><time>2026-05-02T08:35:40.937Z</time></trkpt><trkpt lat="42.2367032" lon="13.8676746"><ele>551.75</ele><time>2026-05-02T08:35:41.938Z</time></trkpt><trkpt lat="42.236612" lon="13.8675892"><ele>553.5</ele><time>2026-05-02T08:35:42.937Z</time></trkpt><trkpt lat="42.2365252" lon="13.8674951"><ele>555.25</ele><time>2026-05-02T08:35:43.937Z</time></trkpt><trkpt lat="42.2364549" lon="13.8673741"><ele>557.0</ele><time>2026-05-02T08:35:44.937Z</time></trkpt><trkpt lat="42.2363873" lon="13.8672392"><ele>557.0</ele><time>2026-05-02T08:35:45.936Z</time></trkpt><trkpt lat="42.2363296" lon="13.8670957"><ele>557.0</ele><time>2026-05-02T08:35:46.936Z</time></trkpt><trkpt lat="42.236269" lon="13.8669697"><ele>557.0</ele><time>2026-05-02T08:35:47.937Z</time></trkpt><trkpt lat="42.2362107" lon="13.8668683"><ele>557.0</ele><time>2026-05-02T08:35:48.937Z</time></trkpt><trkpt lat="42.2361342" lon="13.8667958"><ele>557.0</ele><time>2026-05-02T08:35:49.937Z</time></trkpt><trkpt lat="42.2360548" lon="13.8667369"><ele>557.0</ele><time>2026-05-02T08:35:50.936Z</time></trkpt><trkpt lat="42.235931" lon="13.8667674"><ele>557.0</ele><time>2026-05-02T08:35:51.936Z</time></trkpt><trkpt lat="42.2358118" lon="13.8667871"><ele>557.0</ele><time>2026-05-02T08:35:52.938Z</time></trkpt><trkpt lat="42.2357087" lon="13.8668296"><ele>557.0</ele><time>2026-05-02T08:35:53.937Z</time></trkpt><trkpt lat="42.2356159" lon="13.866859"><ele>557.0</ele><time>2026-05-02T08:35:54.937Z</time></trkpt><trkpt lat="42.2355445" lon="13.8668606"><ele>556.0</ele><time>2026-05-02T08:35:55.938Z</time></trkpt><trkpt lat="42.2354266" lon="13.866839"><ele>555.0</ele><time>2026-05-02T08:35:57.937Z</time></trkpt><trkpt lat="42.2354178" lon="13.8667484"><ele>554.0</ele><time>2026-05-02T08:35:59.938Z</time></trkpt><trkpt lat="42.2354895" lon="13.8666614"><ele>553.0</ele><time>2026-05-02T08:36:01.938Z</time></trkpt><trkpt lat="42.2355753" lon="13.8666075"><ele>552.0</ele><time>2026-05-02T08:36:03.939Z</time></trkpt><trkpt lat="42.2356328" lon="13.8665431"><ele>552.0</ele><time>2026-05-02T08:36:05.937Z</time></trkpt><trkpt lat="42.2356233" lon="13.8664575"><ele>552.0</ele><time>2026-05-02T08:36:08.936Z</time></trkpt><trkpt lat="42.2355991" lon="13.8665681"><ele>552.0</ele><time>2026-05-02T08:36:12.937Z</time></trkpt><trkpt lat="42.2355064" lon="13.866632"><ele>552.0</ele><time>2026-05-02T08:36:15.937Z</time></trkpt><trkpt lat="42.2354408" lon="13.8666659"><ele>552.0</ele><time>2026-05-02T08:36:16.937Z</time></trkpt><trkpt lat="42.2353861" lon="13.8667419"><ele>552.0</ele><time>2026-05-02T08:36:18.936Z</time></trkpt><trkpt lat="42.2354239" lon="13.8668581"><ele>552.0</ele><time>2026-05-02T08:36:23.937Z</time></trkpt><trkpt lat="42.2355092" lon="13.8669019"><ele>552.0</ele><time>2026-05-02T08:36:25.936Z</time></trkpt><trkpt lat="42.2355796" lon="13.8668837"><ele>552.0</ele><time>2026-05-02T08:36:26.936Z</time></trkpt><trkpt lat="42.235654" lon="13.8668607"><ele>552.0</ele><time>2026-05-02T08:36:27.938Z</time></trkpt><trkpt lat="42.2357258" lon="13.866834"><ele>552.0</ele><time>2026-05-02T08:36:28.937Z</time></trkpt><trkpt lat="42.2357981" lon="13.8668068"><ele>552.0</ele><time>2026-05-02T08:36:29.936Z</time></trkpt><trkpt lat="42.2358604" lon="13.8667893"><ele>552.0</ele><time>2026-05-02T08:36:30.939Z</time></trkpt><trkpt lat="42.2359294" lon="13.8667704"><ele>552.0</ele><time>2026-05-02T08:36:33.937Z</time></trkpt><trkpt lat="42.2359498" lon="13.866853"><ele>552.0</ele><time>2026-05-02T08:36:52.938Z</time></trkpt><trkpt lat="42.2358995" lon="13.8667721"><ele>552.0</ele><time>2026-05-02T08:36:59.937Z</time></trkpt><trkpt lat="42.2358351" lon="13.8667814"><ele>552.0</ele><time>2026-05-02T08:37:00.937Z</time></trkpt><trkpt lat="42.235705" lon="13.8668324"><ele>552.0</ele><time>2026-05-02T08:37:02.937Z</time></trkpt><trkpt lat="42.2356158" lon="13.8668654"><ele>552.0</ele><time>2026-05-02T08:37:03.936Z</time></trkpt><trkpt lat="42.2355259" lon="13.8668796"><ele>552.0</ele><time>2026-05-02T08:37:04.937Z</time></trkpt><trkpt lat="42.2354549" lon="13.8668692"><ele>552.0</ele><time>2026-05-02T08:37:05.937Z</time></trkpt><trkpt lat="42.2353838" lon="13.8667999"><ele>552.0</ele><time>2026-05-02T08:37:07.936Z</time></trkpt><trkpt lat="42.2354528" lon="13.8666895"><ele>552.0</ele><time>2026-05-02T08:37:09.937Z</time></trkpt><trkpt lat="42.2355691" lon="13.8666078"><ele>556.8000000000001</ele><time>2026-05-02T08:37:11.938Z</time></trkpt><trkpt lat="42.2356242" lon="13.8664946"><ele>561.6</ele><time>2026-05-02T08:37:13.937Z</time></trkpt><trkpt lat="42.235555" lon="13.8664194"><ele>566.4000000000001</ele><time>2026-05-02T08:37:15.937Z</time></trkpt><trkpt lat="42.2354513" lon="13.8664229"><ele>571.2</ele><time>2026-05-02T08:37:16.936Z</time></trkpt><trkpt lat="42.2353724" lon="13.8663997"><ele>576.0</ele><time>2026-05-02T08:37:17.937Z</time></trkpt><trkpt lat="42.2353027" lon="13.8663488"><ele>576.0</ele><time>2026-05-02T08:37:18.937Z</time></trkpt><trkpt lat="42.2352419" lon="13.8662593"><ele>576.0</ele><time>2026-05-02T08:37:19.936Z</time></trkpt><trkpt lat="42.2351751" lon="13.8661571"><ele>576.0</ele><time>2026-05-02T08:37:20.936Z</time></trkpt><trkpt lat="42.2351049" lon="13.8660376"><ele>576.0</ele><time>2026-05-02T08:37:21.937Z</time></trkpt><trkpt lat="42.2350345" lon="13.8658958"><ele>576.0</ele><time>2026-05-02T08:37:22.936Z</time></trkpt><trkpt lat="42.2349623" lon="13.8657443"><ele>574.75</ele><time>2026-05-02T08:37:23.937Z</time></trkpt><trkpt lat="42.2348884" lon="13.8656093"><ele>573.5</ele><time>2026-05-02T08:37:24.937Z</time></trkpt><trkpt lat="42.2348114" lon="13.8654985"><ele>572.25</ele><time>2026-05-02T08:37:25.936Z</time></trkpt><trkpt lat="42.2347216" lon="13.8653922"><ele>571.0</ele><time>2026-05-02T08:37:26.937Z</time></trkpt><trkpt lat="42.2346289" lon="13.8652947"><ele>571.0</ele><time>2026-05-02T08:37:27.937Z</time></trkpt><trkpt lat="42.2345399" lon="13.8651996"><ele>571.0</ele><time>2026-05-02T08:37:28.937Z</time></trkpt><trkpt lat="42.2344577" lon="13.8650863"><ele>571.0</ele><time>2026-05-02T08:37:29.936Z</time></trkpt><trkpt lat="42.2343961" lon="13.8649464"><ele>571.0</ele><time>2026-05-02T08:37:30.937Z</time></trkpt><trkpt lat="42.2343386" lon="13.8648053"><ele>575.5</ele><time>2026-05-02T08:37:31.936Z</time></trkpt><trkpt lat="42.2342615" lon="13.8646661"><ele>580.0</ele><time>2026-05-02T08:37:32.935Z</time></trkpt><trkpt lat="42.2341982" lon="13.8645271"><ele>584.5</ele><time>2026-05-02T08:37:33.937Z</time></trkpt><trkpt lat="42.2341348" lon="13.8644136"><ele>589.0</ele><time>2026-05-02T08:37:34.937Z</time></trkpt><trkpt lat="42.2340714" lon="13.8642865"><ele>588.8</ele><time>2026-05-02T08:37:35.937Z</time></trkpt><trkpt lat="42.2340308" lon="13.8641497"><ele>588.5999999999999</ele><time>2026-05-02T08:37:36.937Z</time></trkpt><trkpt lat="42.233981" lon="13.8640132"><ele>588.4</ele><time>2026-05-02T08:37:37.938Z</time></trkpt><trkpt lat="42.2339408" lon="13.8638873"><ele>588.1999999999999</ele><time>2026-05-02T08:37:38.937Z</time></trkpt><trkpt lat="42.233892" lon="13.8637646"><ele>588.0</ele><time>2026-05-02T08:37:39.937Z</time></trkpt><trkpt lat="42.2338465" lon="13.8636507"><ele>588.0</ele><time>2026-05-02T08:37:40.936Z</time></trkpt><trkpt lat="42.2338103" lon="13.8635415"><ele>588.0</ele><time>2026-05-02T08:37:41.937Z</time></trkpt><trkpt lat="42.2337592" lon="13.8634467"><ele>588.0</ele><time>2026-05-02T08:37:42.938Z</time></trkpt><trkpt lat="42.2337039" lon="13.8633664"><ele>588.0</ele><time>2026-05-02T08:37:43.937Z</time></trkpt><trkpt lat="42.2336497" lon="13.863286"><ele>588.0</ele><time>2026-05-02T08:37:44.938Z</time></trkpt><trkpt lat="42.2335916" lon="13.863208"><ele>588.0</ele><time>2026-05-02T08:37:45.937Z</time></trkpt><trkpt lat="42.2335463" lon="13.8631253"><ele>590.0</ele><time>2026-05-02T08:37:46.938Z</time></trkpt><trkpt lat="42.2334963" lon="13.8630455"><ele>592.0</ele><time>2026-05-02T08:37:47.937Z</time></trkpt><trkpt lat="42.2334512" lon="13.8629777"><ele>594.0</ele><time>2026-05-02T08:37:48.937Z</time></trkpt><trkpt lat="42.2333906" lon="13.8629086"><ele>596.0</ele><time>2026-05-02T08:37:49.937Z</time></trkpt><trkpt lat="42.2333368" lon="13.8628436"><ele>598.0</ele><time>2026-05-02T08:37:50.937Z</time></trkpt><trkpt lat="42.2332839" lon="13.862775"><ele>600.0</ele><time>2026-05-02T08:37:51.938Z</time></trkpt><trkpt lat="42.233231" lon="13.8627161"><ele>602.0</ele><time>2026-05-02T08:37:52.937Z</time></trkpt><trkpt lat="42.2331826" lon="13.8626513"><ele>602.0</ele><time>2026-05-02T08:37:53.936Z</time></trkpt><trkpt lat="42.2331235" lon="13.8625916"><ele>602.0</ele><time>2026-05-02T08:37:54.936Z</time></trkpt><trkpt lat="42.2330748" lon="13.862525"><ele>602.0</ele><time>2026-05-02T08:37:55.936Z</time></trkpt><trkpt lat="42.2330193" lon="13.8624607"><ele>602.0</ele><time>2026-05-02T08:37:56.937Z</time></trkpt><trkpt lat="42.2329712" lon="13.8623805"><ele>602.0</ele><time>2026-05-02T08:37:57.936Z</time></trkpt><trkpt lat="42.232922" lon="13.8622869"><ele>602.0</ele><time>2026-05-02T08:37:58.936Z</time></trkpt><trkpt lat="42.2328771" lon="13.8621617"><ele>602.0</ele><time>2026-05-02T08:37:59.937Z</time></trkpt><trkpt lat="42.2328251" lon="13.8620364"><ele>602.0</ele><time>2026-05-02T08:38:00.937Z</time></trkpt><trkpt lat="42.2327885" lon="13.8619031"><ele>602.0</ele><time>2026-05-02T08:38:01.937Z</time></trkpt><trkpt lat="42.2327542" lon="13.861773"><ele>602.0</ele><time>2026-05-02T08:38:02.938Z</time></trkpt><trkpt lat="42.232714" lon="13.8616351"><ele>602.0</ele><time>2026-05-02T08:38:03.936Z</time></trkpt><trkpt lat="42.2326487" lon="13.861488"><ele>605.75</ele><time>2026-05-02T08:38:04.937Z</time></trkpt><trkpt lat="42.232589" lon="13.8613414"><ele>609.5</ele><time>2026-05-02T08:38:05.937Z</time></trkpt><trkpt lat="42.2325254" lon="13.8611936"><ele>613.25</ele><time>2026-05-02T08:38:06.937Z</time></trkpt><trkpt lat="42.2324668" lon="13.8610543"><ele>617.0</ele><time>2026-05-02T08:38:07.937Z</time></trkpt><trkpt lat="42.2324247" lon="13.8609108"><ele>618.6</ele><time>2026-05-02T08:38:08.937Z</time></trkpt><trkpt lat="42.2323966" lon="13.8607654"><ele>620.2</ele><time>2026-05-02T08:38:09.938Z</time></trkpt><trkpt lat="42.2323816" lon="13.8606306"><ele>621.8</ele><time>2026-05-02T08:38:10.936Z</time></trkpt><trkpt lat="42.2323777" lon="13.8604903"><ele>623.4</ele><time>2026-05-02T08:38:11.937Z</time></trkpt><trkpt lat="42.2323812" lon="13.8603533"><ele>625.0</ele><time>2026-05-02T08:38:12.936Z</time></trkpt><trkpt lat="42.2323925" lon="13.8602183"><ele>626.0</ele><time>2026-05-02T08:38:13.937Z</time></trkpt><trkpt lat="42.2323977" lon="13.8600945"><ele>627.0</ele><time>2026-05-02T08:38:14.936Z</time></trkpt><trkpt lat="42.2323758" lon="13.8599922"><ele>628.0</ele><time>2026-05-02T08:38:15.937Z</time></trkpt><trkpt lat="42.2323279" lon="13.8599127"><ele>629.0</ele><time>2026-05-02T08:38:16.937Z</time></trkpt><trkpt lat="42.2322625" lon="13.8598686"><ele>630.0</ele><time>2026-05-02T08:38:17.936Z</time></trkpt><trkpt lat="42.2321834" lon="13.8598615"><ele>631.0</ele><time>2026-05-02T08:38:18.936Z</time></trkpt><trkpt lat="42.2321013" lon="13.8598635"><ele>631.6</ele><time>2026-05-02T08:38:19.936Z</time></trkpt><trkpt lat="42.2320131" lon="13.8598532"><ele>632.2</ele><time>2026-05-02T08:38:20.937Z</time></trkpt><trkpt lat="42.2319201" lon="13.8598237"><ele>632.8</ele><time>2026-05-02T08:38:21.937Z</time></trkpt><trkpt lat="42.2318345" lon="13.8597775"><ele>633.4</ele><time>2026-05-02T08:38:22.937Z</time></trkpt><trkpt lat="42.2317398" lon="13.8597558"><ele>634.0</ele><time>2026-05-02T08:38:23.938Z</time></trkpt><trkpt lat="42.2316427" lon="13.8597733"><ele>634.0</ele><time>2026-05-02T08:38:24.936Z</time></trkpt><trkpt lat="42.2315403" lon="13.8597972"><ele>634.0</ele><time>2026-05-02T08:38:25.937Z</time></trkpt><trkpt lat="42.2314359" lon="13.8598517"><ele>634.0</ele><time>2026-05-02T08:38:26.937Z</time></trkpt><trkpt lat="42.2313416" lon="13.8599083"><ele>634.0</ele><time>2026-05-02T08:38:27.936Z</time></trkpt><trkpt lat="42.2312512" lon="13.8599614"><ele>634.0</ele><time>2026-05-02T08:38:28.936Z</time></trkpt><trkpt lat="42.2311766" lon="13.8599849"><ele>635.4285714285714</ele><time>2026-05-02T08:38:29.936Z</time></trkpt><trkpt lat="42.2311044" lon="13.8599948"><ele>636.8571428571429</ele><time>2026-05-02T08:38:30.937Z</time></trkpt><trkpt lat="42.2310335" lon="13.8599866"><ele>638.2857142857142</ele><time>2026-05-02T08:38:31.937Z</time></trkpt><trkpt lat="42.230983" lon="13.8599323"><ele>639.7142857142858</ele><time>2026-05-02T08:38:32.937Z</time></trkpt><trkpt lat="42.2309622" lon="13.8598471"><ele>641.1428571428571</ele><time>2026-05-02T08:38:33.937Z</time></trkpt><trkpt lat="42.2309197" lon="13.8597826"><ele>642.5714285714286</ele><time>2026-05-02T08:38:34.938Z</time></trkpt><trkpt lat="42.2308766" lon="13.8596854"><ele>644.0</ele><time>2026-05-02T08:38:36.936Z</time></trkpt><trkpt lat="42.2308101" lon="13.8596064"><ele>644.0</ele><time>2026-05-02T08:38:38.937Z</time></trkpt><trkpt lat="42.2307132" lon="13.8595506"><ele>644.0</ele><time>2026-05-02T08:38:40.936Z</time></trkpt><trkpt lat="42.230613" lon="13.8594985"><ele>644.0</ele><time>2026-05-02T08:38:42.937Z</time></trkpt><trkpt lat="42.2305087" lon="13.8594424"><ele>644.0</ele><time>2026-05-02T08:38:44.937Z</time></trkpt><trkpt lat="42.2304279" lon="13.8593746"><ele>644.0</ele><time>2026-05-02T08:38:46.938Z</time></trkpt><trkpt lat="42.2303436" lon="13.8592765"><ele>647.0</ele><time>2026-05-02T08:38:48.936Z</time></trkpt><trkpt lat="42.2302408" lon="13.8591962"><ele>650.0</ele><time>2026-05-02T08:38:50.937Z</time></trkpt><trkpt lat="42.2301797" lon="13.8591549"><ele>653.0</ele><time>2026-05-02T08:38:51.937Z</time></trkpt><trkpt lat="42.23012" lon="13.8591026"><ele>656.0</ele><time>2026-05-02T08:38:52.937Z</time></trkpt><trkpt lat="42.2300585" lon="13.8590531"><ele>659.0</ele><time>2026-05-02T08:38:53.937Z</time></trkpt><trkpt lat="42.2299961" lon="13.8590206"><ele>662.0</ele><time>2026-05-02T08:38:54.937Z</time></trkpt><trkpt lat="42.2299005" lon="13.8589452"><ele>662.0</ele><time>2026-05-02T08:38:56.937Z</time></trkpt><trkpt lat="42.229817" lon="13.8589155"><ele>662.0</ele><time>2026-05-02T08:38:58.937Z</time></trkpt><trkpt lat="42.2297459" lon="13.8589168"><ele>662.0</ele><time>2026-05-02T08:38:59.937Z</time></trkpt><trkpt lat="42.2296525" lon="13.8589034"><ele>662.0</ele><time>2026-05-02T08:39:00.937Z</time></trkpt><trkpt lat="42.2295642" lon="13.8588697"><ele>662.0</ele><time>2026-05-02T08:39:01.937Z</time></trkpt><trkpt lat="42.229478" lon="13.8588376"><ele>662.0</ele><time>2026-05-02T08:39:02.936Z</time></trkpt><trkpt lat="42.2294123" lon="13.8588055"><ele>663.8333333333333</ele><time>2026-05-02T08:39:03.938Z</time></trkpt><trkpt lat="42.2293439" lon="13.8587497"><ele>665.6666666666666</ele><time>2026-05-02T08:39:05.938Z</time></trkpt><trkpt lat="42.2292865" lon="13.8586889"><ele>667.5</ele><time>2026-05-02T08:39:07.937Z</time></trkpt><trkpt lat="42.2292222" lon="13.8585978"><ele>669.3333333333334</ele><time>2026-05-02T08:39:09.937Z</time></trkpt><trkpt lat="42.2291839" lon="13.8585023"><ele>671.1666666666667</ele><time>2026-05-02T08:39:11.937Z</time></trkpt><trkpt lat="42.2291276" lon="13.8583713"><ele>673.0</ele><time>2026-05-02T08:39:13.937Z</time></trkpt><trkpt lat="42.2290456" lon="13.858243"><ele>675.5</ele><time>2026-05-02T08:39:15.936Z</time></trkpt><trkpt lat="42.2289979" lon="13.8581644"><ele>678.0</ele><time>2026-05-02T08:39:16.937Z</time></trkpt><trkpt lat="42.22895" lon="13.8580797"><ele>680.5</ele><time>2026-05-02T08:39:17.936Z</time></trkpt><trkpt lat="42.2289005" lon="13.8579967"><ele>683.0</ele><time>2026-05-02T08:39:18.937Z</time></trkpt><trkpt lat="42.2288556" lon="13.857927"><ele>685.5</ele><time>2026-05-02T08:39:19.936Z</time></trkpt><trkpt lat="42.2287914" lon="13.8578676"><ele>688.0</ele><time>2026-05-02T08:39:20.935Z</time></trkpt><trkpt lat="42.2287183" lon="13.8578084"><ele>689.2</ele><time>2026-05-02T08:39:21.938Z</time></trkpt><trkpt lat="42.2286396" lon="13.857744"><ele>690.4</ele><time>2026-05-02T08:39:22.938Z</time></trkpt><trkpt lat="42.2285659" lon="13.8576888"><ele>691.6</ele><time>2026-05-02T08:39:23.936Z</time></trkpt><trkpt lat="42.2284452" lon="13.857679"><ele>692.8000000000001</ele><time>2026-05-02T08:39:25.936Z</time></trkpt><trkpt lat="42.2283283" lon="13.8577303"><ele>694.0</ele><time>2026-05-02T08:39:27.936Z</time></trkpt><trkpt lat="42.2282565" lon="13.8577494"><ele>698.6666666666667</ele><time>2026-05-02T08:39:28.937Z</time></trkpt><trkpt lat="42.2281416" lon="13.8577014"><ele>703.3333333333334</ele><time>2026-05-02T08:39:30.937Z</time></trkpt><trkpt lat="42.2280788" lon="13.8576389"><ele>708.0</ele><time>2026-05-02T08:39:31.936Z</time></trkpt><trkpt lat="42.2280151" lon="13.8575739"><ele>712.6666666666666</ele><time>2026-05-02T08:39:32.937Z</time></trkpt><trkpt lat="42.2279493" lon="13.8575169"><ele>717.3333333333333</ele><time>2026-05-02T08:39:33.937Z</time></trkpt><trkpt lat="42.2278945" lon="13.857475"><ele>722.0</ele><time>2026-05-02T08:39:34.937Z</time></trkpt><trkpt lat="42.2278083" lon="13.8573462"><ele>722.8333333333333</ele><time>2026-05-02T08:39:36.937Z</time></trkpt><trkpt lat="42.2277613" lon="13.8572667"><ele>723.6666666666666</ele><time>2026-05-02T08:39:37.937Z</time></trkpt><trkpt lat="42.2277124" lon="13.8571953"><ele>724.5</ele><time>2026-05-02T08:39:38.937Z</time></trkpt><trkpt lat="42.2276634" lon="13.8571048"><ele>725.3333333333334</ele><time>2026-05-02T08:39:39.936Z</time></trkpt><trkpt lat="42.2276223" lon="13.8570104"><ele>726.1666666666667</ele><time>2026-05-02T08:39:40.936Z</time></trkpt><trkpt lat="42.2275904" lon="13.8569006"><ele>727.0</ele><time>2026-05-02T08:39:41.938Z</time></trkpt><trkpt lat="42.2275512" lon="13.8568138"><ele>727.8333333333334</ele><time>2026-05-02T08:39:42.937Z</time></trkpt><trkpt lat="42.2275087" lon="13.8567417"><ele>728.6666666666667</ele><time>2026-05-02T08:39:43.937Z</time></trkpt><trkpt lat="42.2274297" lon="13.85672"><ele>729.5</ele><time>2026-05-02T08:39:44.937Z</time></trkpt><trkpt lat="42.2273471" lon="13.8566997"><ele>730.3333333333334</ele><time>2026-05-02T08:39:45.937Z</time></trkpt><trkpt lat="42.22725" lon="13.856696"><ele>731.1666666666666</ele><time>2026-05-02T08:39:46.936Z</time></trkpt><trkpt lat="42.2271604" lon="13.8566947"><ele>732.0</ele><time>2026-05-02T08:39:47.936Z</time></trkpt><trkpt lat="42.2270877" lon="13.8566937"><ele>735.5</ele><time>2026-05-02T08:39:48.937Z</time></trkpt><trkpt lat="42.2270194" lon="13.8566762"><ele>739.0</ele><time>2026-05-02T08:39:49.937Z</time></trkpt><trkpt lat="42.2269573" lon="13.8566416"><ele>742.5</ele><time>2026-05-02T08:39:50.936Z</time></trkpt><trkpt lat="42.2268858" lon="13.8565775"><ele>746.0</ele><time>2026-05-02T08:39:51.937Z</time></trkpt><trkpt lat="42.2268043" lon="13.8564984"><ele>749.5</ele><time>2026-05-02T08:39:52.938Z</time></trkpt><trkpt lat="42.2267188" lon="13.8564248"><ele>753.0</ele><time>2026-05-02T08:39:53.937Z</time></trkpt><trkpt lat="42.226649" lon="13.8563607"><ele>753.0</ele><time>2026-05-02T08:39:54.936Z</time></trkpt><trkpt lat="42.2266026" lon="13.8562844"><ele>753.0</ele><time>2026-05-02T08:39:55.937Z</time></trkpt><trkpt lat="42.2265563" lon="13.8561874"><ele>753.0</ele><time>2026-05-02T08:39:56.936Z</time></trkpt><trkpt lat="42.2265148" lon="13.8560767"><ele>753.0</ele><time>2026-05-02T08:39:57.936Z</time></trkpt><trkpt lat="42.2264652" lon="13.8559693"><ele>753.0</ele><time>2026-05-02T08:39:58.936Z</time></trkpt><trkpt lat="42.2263991" lon="13.8558734"><ele>753.0</ele><time>2026-05-02T08:39:59.937Z</time></trkpt><trkpt lat="42.2263313" lon="13.8557852"><ele>755.6666666666666</ele><time>2026-05-02T08:40:00.937Z</time></trkpt><trkpt lat="42.2262722" lon="13.8556963"><ele>758.3333333333333</ele><time>2026-05-02T08:40:01.938Z</time></trkpt><trkpt lat="42.2262159" lon="13.8556079"><ele>761.0</ele><time>2026-05-02T08:40:02.937Z</time></trkpt><trkpt lat="42.2261639" lon="13.8555371"><ele>763.6666666666666</ele><time>2026-05-02T08:40:03.937Z</time></trkpt><trkpt lat="42.2260991" lon="13.8554614"><ele>766.3333333333333</ele><time>2026-05-02T08:40:04.936Z</time></trkpt><trkpt lat="42.2260048" lon="13.8553848"><ele>769.0</ele><time>2026-05-02T08:40:05.937Z</time></trkpt><trkpt lat="42.225906" lon="13.8553214"><ele>768.9999999999999</ele><time>2026-05-02T08:40:06.937Z</time></trkpt><trkpt lat="42.225818" lon="13.8552733"><ele>769.0</ele><time>2026-05-02T08:40:07.938Z</time></trkpt><trkpt lat="42.225735" lon="13.8552509"><ele>769.0</ele><time>2026-05-02T08:40:08.936Z</time></trkpt><trkpt lat="42.225646" lon="13.855236"><ele>769.0</ele><time>2026-05-02T08:40:09.937Z</time></trkpt><trkpt lat="42.2255585" lon="13.8552222"><ele>768.9999999999999</ele><time>2026-05-02T08:40:10.938Z</time></trkpt><trkpt lat="42.2254923" lon="13.8552115"><ele>769.0</ele><time>2026-05-02T08:40:11.937Z</time></trkpt><trkpt lat="42.2254344" lon="13.8551474"><ele>771.3333333333333</ele><time>2026-05-02T08:40:13.937Z</time></trkpt><trkpt lat="42.2253991" lon="13.8550738"><ele>773.6666666666666</ele><time>2026-05-02T08:40:15.937Z</time></trkpt><trkpt lat="42.22536" lon="13.8549526"><ele>776.0</ele><time>2026-05-02T08:40:17.937Z</time></trkpt><trkpt lat="42.2253246" lon="13.8548488"><ele>778.3333333333333</ele><time>2026-05-02T08:40:19.937Z</time></trkpt><trkpt lat="42.2252842" lon="13.8547639"><ele>780.6666666666666</ele><time>2026-05-02T08:40:21.935Z</time></trkpt><trkpt lat="42.2252718" lon="13.8546733"><ele>783.0</ele><time>2026-05-02T08:40:24.937Z</time></trkpt><trkpt lat="42.2252837" lon="13.8545881"><ele>783.0</ele><time>2026-05-02T08:40:31.87Z</time></trkpt><trkpt lat="42.2252297" lon="13.8545172"><ele>783.0</ele><time>2026-05-02T08:40:40.937Z</time></trkpt><trkpt lat="42.2252021" lon="13.8544295"><ele>783.0</ele><time>2026-05-02T08:40:45.937Z</time></trkpt><trkpt lat="42.22517" lon="13.8543316"><ele>783.0</ele><time>2026-05-02T08:40:48.938Z</time></trkpt><trkpt lat="42.2251159" lon="13.8541875"><ele>783.0</ele><time>2026-05-02T08:40:50.937Z</time></trkpt><trkpt lat="42.2250776" lon="13.8540649"><ele>783.0</ele><time>2026-05-02T08:40:52.936Z</time></trkpt><trkpt lat="42.2250517" lon="13.8539874"><ele>784.0</ele><time>2026-05-02T08:40:54.938Z</time></trkpt><trkpt lat="42.2250126" lon="13.8539107"><ele>785.0</ele><time>2026-05-02T08:44:20.936Z</time></trkpt><trkpt lat="42.2250145" lon="13.8538181"><ele>786.0</ele><time>2026-05-02T08:44:23.937Z</time></trkpt><trkpt lat="42.2250113" lon="13.8537327"><ele>787.0</ele><time>2026-05-02T08:44:31.937Z</time></trkpt><trkpt lat="42.2249959" lon="13.8536237"><ele>788.0</ele><time>2026-05-02T08:44:33.937Z</time></trkpt><trkpt lat="42.2249927" lon="13.8535167"><ele>789.0</ele><time>2026-05-02T08:44:34.936Z</time></trkpt><trkpt lat="42.2250045" lon="13.8533932"><ele>789.2</ele><time>2026-05-02T08:44:35.937Z</time></trkpt><trkpt lat="42.2250282" lon="13.8532745"><ele>789.4000000000001</ele><time>2026-05-02T08:44:36.936Z</time></trkpt><trkpt lat="42.2250666" lon="13.8531529"><ele>789.6</ele><time>2026-05-02T08:44:37.937Z</time></trkpt><trkpt lat="42.2251188" lon="13.8530294"><ele>789.8</ele><time>2026-05-02T08:44:38.937Z</time></trkpt><trkpt lat="42.2251806" lon="13.852893"><ele>790.0</ele><time>2026-05-02T08:44:39.936Z</time></trkpt><trkpt lat="42.2252384" lon="13.8527865"><ele>790.0</ele><time>2026-05-02T08:44:40.936Z</time></trkpt><trkpt lat="42.2253034" lon="13.8526824"><ele>790.0</ele><time>2026-05-02T08:44:41.937Z</time></trkpt><trkpt lat="42.2253696" lon="13.8525921"><ele>790.0</ele><time>2026-05-02T08:44:42.935Z</time></trkpt><trkpt lat="42.2254384" lon="13.8524914"><ele>790.0</ele><time>2026-05-02T08:44:43.937Z</time></trkpt><trkpt lat="42.2254868" lon="13.852403"><ele>790.0</ele><time>2026-05-02T08:44:44.937Z</time></trkpt><trkpt lat="42.2255263" lon="13.8523089"><ele>790.3333333333333</ele><time>2026-05-02T08:44:45.937Z</time></trkpt><trkpt lat="42.2255524" lon="13.8522155"><ele>790.6666666666666</ele><time>2026-05-02T08:44:46.936Z</time></trkpt><trkpt lat="42.2255742" lon="13.8521142"><ele>791.0</ele><time>2026-05-02T08:44:47.937Z</time></trkpt><trkpt lat="42.2255935" lon="13.852005"><ele>791.3333333333333</ele><time>2026-05-02T08:44:48.935Z</time></trkpt><trkpt lat="42.2256049" lon="13.8518798"><ele>791.6666666666666</ele><time>2026-05-02T08:44:49.937Z</time></trkpt><trkpt lat="42.2256153" lon="13.8517583"><ele>792.0</ele><time>2026-05-02T08:44:50.935Z</time></trkpt><trkpt lat="42.2256267" lon="13.8516584"><ele>794.1666666666666</ele><time>2026-05-02T08:44:51.936Z</time></trkpt><trkpt lat="42.2256299" lon="13.851553"><ele>796.3333333333333</ele><time>2026-05-02T08:44:52.936Z</time></trkpt><trkpt lat="42.2256338" lon="13.8514417"><ele>798.5</ele><time>2026-05-02T08:44:53.937Z</time></trkpt><trkpt lat="42.2256469" lon="13.8513312"><ele>800.6666666666666</ele><time>2026-05-02T08:44:54.936Z</time></trkpt><trkpt lat="42.2256507" lon="13.8512022"><ele>802.8333333333333</ele><time>2026-05-02T08:44:55.936Z</time></trkpt><trkpt lat="42.2256524" lon="13.8510785"><ele>805.0</ele><time>2026-05-02T08:44:56.936Z</time></trkpt><trkpt lat="42.2256476" lon="13.8509607"><ele>807.6666666666666</ele><time>2026-05-02T08:44:57.936Z</time></trkpt><trkpt lat="42.2256357" lon="13.8508563"><ele>810.3333333333333</ele><time>2026-05-02T08:44:58.936Z</time></trkpt><trkpt lat="42.2256241" lon="13.8507455"><ele>813.0</ele><time>2026-05-02T08:44:59.937Z</time></trkpt><trkpt lat="42.2256162" lon="13.8506385"><ele>815.6666666666667</ele><time>2026-05-02T08:45:00.937Z</time></trkpt><trkpt lat="42.2256082" lon="13.8505201"><ele>818.3333333333334</ele><time>2026-05-02T08:45:01.938Z</time></trkpt><trkpt lat="42.2255925" lon="13.850406"><ele>821.0</ele><time>2026-05-02T08:45:02.936Z</time></trkpt><trkpt lat="42.2255805" lon="13.8502722"><ele>821.0</ele><time>2026-05-02T08:45:03.938Z</time></trkpt><trkpt lat="42.2255752" lon="13.8501282"><ele>821.0</ele><time>2026-05-02T08:45:04.935Z</time></trkpt><trkpt lat="42.2255647" lon="13.8499725"><ele>821.0</ele><time>2026-05-02T08:45:05.936Z</time></trkpt><trkpt lat="42.2255467" lon="13.8498413"><ele>821.0</ele><time>2026-05-02T08:45:06.937Z</time></trkpt><trkpt lat="42.2255152" lon="13.8497019"><ele>821.0</ele><time>2026-05-02T08:45:07.936Z</time></trkpt><trkpt lat="42.2254952" lon="13.8495887"><ele>823.8333333333334</ele><time>2026-05-02T08:45:08.937Z</time></trkpt><trkpt lat="42.2254962" lon="13.849501"><ele>826.6666666666667</ele><time>2026-05-02T08:45:09.936Z</time></trkpt><trkpt lat="42.2255483" lon="13.849373"><ele>829.5</ele><time>2026-05-02T08:45:11.936Z</time></trkpt><trkpt lat="42.2256004" lon="13.8493235"><ele>832.3333333333333</ele><time>2026-05-02T08:45:12.936Z</time></trkpt><trkpt lat="42.2256666" lon="13.8493077"><ele>835.1666666666666</ele><time>2026-05-02T08:45:13.937Z</time></trkpt><trkpt lat="42.2257598" lon="13.8492833"><ele>838.0</ele><time>2026-05-02T08:45:14.937Z</time></trkpt><trkpt lat="42.225864" lon="13.849257"><ele>845.4</ele><time>2026-05-02T08:45:15.938Z</time></trkpt><trkpt lat="42.2259831" lon="13.8491919"><ele>852.8</ele><time>2026-05-02T08:45:16.936Z</time></trkpt><trkpt lat="42.2260809" lon="13.8491425"><ele>860.2</ele><time>2026-05-02T08:45:17.938Z</time></trkpt><trkpt lat="42.226187" lon="13.8491122"><ele>867.6</ele><time>2026-05-02T08:45:18.937Z</time></trkpt><trkpt lat="42.2262783" lon="13.8490964"><ele>875.0</ele><time>2026-05-02T08:45:19.936Z</time></trkpt><trkpt lat="42.2263717" lon="13.8490813"><ele>875.0000000000001</ele><time>2026-05-02T08:45:20.937Z</time></trkpt><trkpt lat="42.2264604" lon="13.8490696"><ele>875.0</ele><time>2026-05-02T08:45:21.937Z</time></trkpt><trkpt lat="42.2265496" lon="13.8490474"><ele>875.0</ele><time>2026-05-02T08:45:22.937Z</time></trkpt><trkpt lat="42.2266185" lon="13.8490378"><ele>875.0</ele><time>2026-05-02T08:45:23.935Z</time></trkpt><trkpt lat="42.2266884" lon="13.8490294"><ele>875.0000000000001</ele><time>2026-05-02T08:45:24.937Z</time></trkpt><trkpt lat="42.2267521" lon="13.8490257"><ele>875.0</ele><time>2026-05-02T08:45:25.937Z</time></trkpt><trkpt lat="42.2268743" lon="13.8490204"><ele>874.0</ele><time>2026-05-02T08:45:27.937Z</time></trkpt><trkpt lat="42.2269898" lon="13.8489775"><ele>873.0</ele><time>2026-05-02T08:45:29.936Z</time></trkpt><trkpt lat="42.2270587" lon="13.8489511"><ele>872.0</ele><time>2026-05-02T08:45:30.937Z</time></trkpt><trkpt lat="42.2271746" lon="13.8489235"><ele>871.0</ele><time>2026-05-02T08:45:32.937Z</time></trkpt><trkpt lat="42.2272412" lon="13.848899"><ele>870.0</ele><time>2026-05-02T08:45:33.936Z</time></trkpt><trkpt lat="42.2273195" lon="13.8488578"><ele>868.5</ele><time>2026-05-02T08:45:34.936Z</time></trkpt><trkpt lat="42.2273956" lon="13.8488326"><ele>867.0</ele><time>2026-05-02T08:45:35.936Z</time></trkpt><trkpt lat="42.2274715" lon="13.8488124"><ele>865.5</ele><time>2026-05-02T08:45:36.937Z</time></trkpt><trkpt lat="42.2275417" lon="13.8488135"><ele>864.0</ele><time>2026-05-02T08:45:37.936Z</time></trkpt><trkpt lat="42.227613" lon="13.848825"><ele>862.5</ele><time>2026-05-02T08:45:38.936Z</time></trkpt><trkpt lat="42.2276928" lon="13.8488453"><ele>861.0</ele><time>2026-05-02T08:45:39.937Z</time></trkpt><trkpt lat="42.2277741" lon="13.8488643"><ele>861.0</ele><time>2026-05-02T08:45:40.937Z</time></trkpt><trkpt lat="42.2278568" lon="13.8488821"><ele>861.0</ele><time>2026-05-02T08:45:41.936Z</time></trkpt><trkpt lat="42.2279224" lon="13.8489049"><ele>861.0</ele><time>2026-05-02T08:45:42.936Z</time></trkpt><trkpt lat="42.2280005" lon="13.8489054"><ele>861.0</ele><time>2026-05-02T08:45:43.936Z</time></trkpt><trkpt lat="42.2280716" lon="13.8489214"><ele>861.0</ele><time>2026-05-02T08:45:44.937Z</time></trkpt><trkpt lat="42.2281498" lon="13.8489252"><ele>861.0</ele><time>2026-05-02T08:45:45.937Z</time></trkpt><trkpt lat="42.2282421" lon="13.8489341"><ele>863.0</ele><time>2026-05-02T08:45:46.936Z</time></trkpt><trkpt lat="42.2283371" lon="13.8489548"><ele>864.9999999999999</ele><time>2026-05-02T08:45:47.937Z</time></trkpt><trkpt lat="42.2284219" lon="13.8489531"><ele>866.9999999999999</ele><time>2026-05-02T08:45:48.936Z</time></trkpt><trkpt lat="42.2285547" lon="13.8489425"><ele>869.0</ele><time>2026-05-02T08:45:50.936Z</time></trkpt><trkpt lat="42.2286513" lon="13.8488983"><ele>871.0</ele><time>2026-05-02T08:45:51.938Z</time></trkpt><trkpt lat="42.2287482" lon="13.8488802"><ele>871.0</ele><time>2026-05-02T08:45:52.938Z</time></trkpt><trkpt lat="42.2288534" lon="13.8488961"><ele>870.9999999999999</ele><time>2026-05-02T08:45:53.936Z</time></trkpt><trkpt lat="42.2289398" lon="13.848937"><ele>870.9999999999999</ele><time>2026-05-02T08:45:54.936Z</time></trkpt><trkpt lat="42.2290424" lon="13.849025"><ele>871.0</ele><time>2026-05-02T08:45:55.936Z</time></trkpt><trkpt lat="42.2291509" lon="13.849083"><ele>871.0</ele><time>2026-05-02T08:45:56.936Z</time></trkpt><trkpt lat="42.2292565" lon="13.8491358"><ele>873.1999999999999</ele><time>2026-05-02T08:45:57.936Z</time></trkpt><trkpt lat="42.2293515" lon="13.8492162"><ele>875.3999999999999</ele><time>2026-05-02T08:45:58.936Z</time></trkpt><trkpt lat="42.2294348" lon="13.8492803"><ele>877.6</ele><time>2026-05-02T08:45:59.937Z</time></trkpt><trkpt lat="42.2295108" lon="13.8493333"><ele>879.8</ele><time>2026-05-02T08:46:14.937Z</time></trkpt><trkpt lat="42.2295804" lon="13.8493206"><ele>882.0</ele><time>2026-05-02T08:46:16.937Z</time></trkpt><trkpt lat="42.2296961" lon="13.8492709"><ele>882.0</ele><time>2026-05-02T08:46:18.937Z</time></trkpt><trkpt lat="42.2297637" lon="13.849242"><ele>882.0</ele><time>2026-05-02T08:46:19.937Z</time></trkpt><trkpt lat="42.2298545" lon="13.8491881"><ele>882.0</ele><time>2026-05-02T08:46:20.936Z</time></trkpt><trkpt lat="42.2299354" lon="13.8491237"><ele>882.0</ele><time>2026-05-02T08:46:21.938Z</time></trkpt><trkpt lat="42.2300124" lon="13.8490742"><ele>882.0</ele><time>2026-05-02T08:46:22.937Z</time></trkpt><trkpt lat="42.2301068" lon="13.8490282"><ele>882.8</ele><time>2026-05-02T08:46:23.937Z</time></trkpt><trkpt lat="42.2302023" lon="13.8489813"><ele>883.6</ele><time>2026-05-02T08:46:24.936Z</time></trkpt><trkpt lat="42.2302924" lon="13.8489344"><ele>884.3999999999999</ele><time>2026-05-02T08:46:25.936Z</time></trkpt><trkpt lat="42.2303666" lon="13.8488881"><ele>885.1999999999999</ele><time>2026-05-02T08:46:26.935Z</time></trkpt><trkpt lat="42.230445" lon="13.8488331"><ele>886.0</ele><time>2026-05-02T08:46:27.936Z</time></trkpt><trkpt lat="42.2305425" lon="13.848768"><ele>886.0</ele><time>2026-05-02T08:46:28.937Z</time></trkpt><trkpt lat="42.2306572" lon="13.8487195"><ele>886.0</ele><time>2026-05-02T08:46:29.936Z</time></trkpt><trkpt lat="42.2307754" lon="13.8486695"><ele>886.0</ele><time>2026-05-02T08:46:30.936Z</time></trkpt><trkpt lat="42.2308956" lon="13.8486113"><ele>886.0</ele><time>2026-05-02T08:46:31.937Z</time></trkpt><trkpt lat="42.2310161" lon="13.8485554"><ele>886.0</ele><time>2026-05-02T08:46:32.936Z</time></trkpt><trkpt lat="42.2311387" lon="13.8485038"><ele>886.0</ele><time>2026-05-02T08:46:33.936Z</time></trkpt><trkpt lat="42.2312683" lon="13.848433"><ele>886.0</ele><time>2026-05-02T08:46:34.936Z</time></trkpt><trkpt lat="42.2313645" lon="13.8483929"><ele>886.0</ele><time>2026-05-02T08:46:35.936Z</time></trkpt><trkpt lat="42.2314776" lon="13.8483497"><ele>890.0</ele><time>2026-05-02T08:46:36.936Z</time></trkpt><trkpt lat="42.231595" lon="13.8483406"><ele>893.9999999999999</ele><time>2026-05-02T08:46:37.936Z</time></trkpt><trkpt lat="42.2317114" lon="13.8483409"><ele>897.9999999999999</ele><time>2026-05-02T08:46:38.936Z</time></trkpt><trkpt lat="42.2318234" lon="13.8483392"><ele>902.0</ele><time>2026-05-02T08:46:39.936Z</time></trkpt><trkpt lat="42.2319209" lon="13.8483256"><ele>906.0</ele><time>2026-05-02T08:46:40.935Z</time></trkpt><trkpt lat="42.2320566" lon="13.8482537"><ele>906.0</ele><time>2026-05-02T08:46:42.936Z</time></trkpt><trkpt lat="42.2321152" lon="13.8481638"><ele>906.0</ele><time>2026-05-02T08:46:43.937Z</time></trkpt><trkpt lat="42.2321813" lon="13.8480825"><ele>906.0</ele><time>2026-05-02T08:46:44.936Z</time></trkpt><trkpt lat="42.2322488" lon="13.8480065"><ele>906.0</ele><time>2026-05-02T08:46:45.935Z</time></trkpt><trkpt lat="42.2323593" lon="13.8479886"><ele>906.0</ele><time>2026-05-02T08:46:47.936Z</time></trkpt><trkpt lat="42.2324244" lon="13.8479923"><ele>906.0</ele><time>2026-05-02T08:46:48.937Z</time></trkpt><trkpt lat="42.2324966" lon="13.8479912"><ele>906.0</ele><time>2026-05-02T08:46:49.936Z</time></trkpt><trkpt lat="42.232578" lon="13.8480161"><ele>906.0</ele><time>2026-05-02T08:46:51.936Z</time></trkpt><trkpt lat="42.2325275" lon="13.8479196"><ele>906.0</ele><time>2026-05-02T08:46:56.936Z</time></trkpt><trkpt lat="42.2324553" lon="13.8478488"><ele>906.0</ele><time>2026-05-02T08:46:58.937Z</time></trkpt><trkpt lat="42.2323967" lon="13.8478034"><ele>906.0</ele><time>2026-05-02T08:47:00.936Z</time></trkpt><trkpt lat="42.2323372" lon="13.8477523"><ele>906.0</ele><time>2026-05-02T08:47:02.937Z</time></trkpt><trkpt lat="42.2322707" lon="13.8476914"><ele>910.1666666666666</ele><time>2026-05-02T08:47:04.937Z</time></trkpt><trkpt lat="42.2321977" lon="13.8476224"><ele>914.3333333333333</ele><time>2026-05-02T08:47:06.935Z</time></trkpt><trkpt lat="42.2321362" lon="13.8475796"><ele>918.5</ele><time>2026-05-02T08:47:07.936Z</time></trkpt><trkpt lat="42.2320694" lon="13.8475215"><ele>922.6666666666666</ele><time>2026-05-02T08:47:08.935Z</time></trkpt><trkpt lat="42.2319933" lon="13.8474584"><ele>926.8333333333333</ele><time>2026-05-02T08:47:09.936Z</time></trkpt><trkpt lat="42.2319255" lon="13.8474011"><ele>931.0</ele><time>2026-05-02T08:47:10.936Z</time></trkpt><trkpt lat="42.2318636" lon="13.8473455"><ele>931.0</ele><time>2026-05-02T08:47:11.938Z</time></trkpt><trkpt lat="42.2318061" lon="13.8473081"><ele>930.9999999999999</ele><time>2026-05-02T08:47:12.936Z</time></trkpt><trkpt lat="42.2316835" lon="13.8472832"><ele>930.9999999999999</ele><time>2026-05-02T08:47:14.935Z</time></trkpt><trkpt lat="42.2315624" lon="13.8472768"><ele>931.0</ele><time>2026-05-02T08:47:16.936Z</time></trkpt><trkpt lat="42.2314386" lon="13.847256"><ele>931.0</ele><time>2026-05-02T08:47:18.936Z</time></trkpt><trkpt lat="42.2313315" lon="13.8471815"><ele>930.9999999999999</ele><time>2026-05-02T08:47:20.936Z</time></trkpt><trkpt lat="42.2312424" lon="13.8470895"><ele>931.0</ele><time>2026-05-02T08:47:22.935Z</time></trkpt><trkpt lat="42.231194" lon="13.847035"><ele>931.0</ele><time>2026-05-02T08:47:23.936Z</time></trkpt><trkpt lat="42.2311452" lon="13.846979"><ele>931.0</ele><time>2026-05-02T08:47:24.938Z</time></trkpt><trkpt lat="42.231092" lon="13.8469307"><ele>930.9999999999999</ele><time>2026-05-02T08:47:25.936Z</time></trkpt><trkpt lat="42.2309767" lon="13.8468869"><ele>931.0</ele><time>2026-05-02T08:47:27.937Z</time></trkpt><trkpt lat="42.2309139" lon="13.8468993"><ele>931.0</ele><time>2026-05-02T08:47:28.935Z</time></trkpt><trkpt lat="42.2308515" lon="13.8469334"><ele>931.0</ele><time>2026-05-02T08:47:29.937Z</time></trkpt><trkpt lat="42.2307968" lon="13.8469787"><ele>931.0</ele><time>2026-05-02T08:47:30.937Z</time></trkpt><trkpt lat="42.2307359" lon="13.8470052"><ele>931.0</ele><time>2026-05-02T08:47:32.937Z</time></trkpt><trkpt lat="42.2306745" lon="13.8470648"><ele>931.0</ele><time>2026-05-02T08:58:47.182Z</time></trkpt><trkpt lat="42.2306064" lon="13.8470502"><ele>931.0</ele><time>2026-05-02T08:59:37.936Z</time></trkpt><trkpt lat="42.2305214" lon="13.8470682"><ele>931.0</ele><time>2026-05-02T08:59:40.936Z</time></trkpt><trkpt lat="42.2304285" lon="13.8470845"><ele>931.4999999999999</ele><time>2026-05-02T09:00:43.937Z</time></trkpt><trkpt lat="42.2303424" lon="13.84711"><ele>932.0</ele><time>2026-05-02T09:00:45.937Z</time></trkpt><trkpt lat="42.230268" lon="13.8471371"><ele>932.5</ele><time>2026-05-02T09:00:47.937Z</time></trkpt><trkpt lat="42.2301905" lon="13.8471652"><ele>933.0</ele><time>2026-05-02T09:00:49.936Z</time></trkpt><trkpt lat="42.2301081" lon="13.8471941"><ele>933.4999999999999</ele><time>2026-05-02T09:00:51.937Z</time></trkpt><trkpt lat="42.2300159" lon="13.8472316"><ele>934.0</ele><time>2026-05-02T09:00:53.936Z</time></trkpt><trkpt lat="42.2299303" lon="13.8472697"><ele>934.0</ele><time>2026-05-02T09:00:55.937Z</time></trkpt><trkpt lat="42.2298352" lon="13.847336"><ele>934.0</ele><time>2026-05-02T09:00:57.938Z</time></trkpt><trkpt lat="42.2297276" lon="13.8473888"><ele>934.0</ele><time>2026-05-02T09:00:59.938Z</time></trkpt><trkpt lat="42.2296169" lon="13.8474382"><ele>934.0</ele><time>2026-05-02T09:01:01.937Z</time></trkpt><trkpt lat="42.2295105" lon="13.8474839"><ele>934.9999999999999</ele><time>2026-05-02T09:01:03.937Z</time></trkpt><trkpt lat="42.229415" lon="13.8475294"><ele>936.0</ele><time>2026-05-02T09:01:05.936Z</time></trkpt><trkpt lat="42.2293264" lon="13.8475633"><ele>937.0</ele><time>2026-05-02T09:01:07.937Z</time></trkpt><trkpt lat="42.2292514" lon="13.8475875"><ele>938.0</ele><time>2026-05-02T09:01:09.937Z</time></trkpt><trkpt lat="42.2291742" lon="13.847592"><ele>938.9999999999999</ele><time>2026-05-02T09:01:11.936Z</time></trkpt><trkpt lat="42.2291002" lon="13.8475937"><ele>940.0</ele><time>2026-05-02T09:01:13.937Z</time></trkpt><trkpt lat="42.2290272" lon="13.8476056"><ele>941.0</ele><time>2026-05-02T09:01:15.937Z</time></trkpt><trkpt lat="42.2289576" lon="13.8476228"><ele>941.9999999999999</ele><time>2026-05-02T09:01:17.937Z</time></trkpt><trkpt lat="42.2288899" lon="13.8476401"><ele>943.0</ele><time>2026-05-02T09:01:19.936Z</time></trkpt><trkpt lat="42.2288229" lon="13.8476571"><ele>944.0</ele><time>2026-05-02T09:01:21.936Z</time></trkpt><trkpt lat="42.2287585" lon="13.8476741"><ele>944.9999999999999</ele><time>2026-05-02T09:01:23.938Z</time></trkpt><trkpt lat="42.22867" lon="13.8477062"><ele>946.0</ele><time>2026-05-02T09:01:26.937Z</time></trkpt><trkpt lat="42.2286072" lon="13.8477189"><ele>947.0</ele><time>2026-05-02T09:01:28.938Z</time></trkpt><trkpt lat="42.2285407" lon="13.8477297"><ele>940.1666666666667</ele><time>2026-05-02T09:01:30.936Z</time></trkpt><trkpt lat="42.2284698" lon="13.8477524"><ele>933.3333333333334</ele><time>2026-05-02T09:01:32.937Z</time></trkpt><trkpt lat="42.2283933" lon="13.8477668"><ele>926.5</ele><time>2026-05-02T09:01:34.937Z</time></trkpt><trkpt lat="42.2283104" lon="13.8477773"><ele>919.6666666666667</ele><time>2026-05-02T09:01:36.936Z</time></trkpt><trkpt lat="42.228223" lon="13.847784"><ele>912.8333333333334</ele><time>2026-05-02T09:01:38.936Z</time></trkpt><trkpt lat="42.2281362" lon="13.8477928"><ele>906.0</ele><time>2026-05-02T09:01:40.937Z</time></trkpt><trkpt lat="42.2280364" lon="13.8478003"><ele>904.8</ele><time>2026-05-02T09:01:42.938Z</time></trkpt><trkpt lat="42.227935" lon="13.8478078"><ele>903.5999999999999</ele><time>2026-05-02T09:01:44.938Z</time></trkpt><trkpt lat="42.2278438" lon="13.8477881"><ele>902.4</ele><time>2026-05-02T09:01:46.937Z</time></trkpt><trkpt lat="42.2277304" lon="13.8477804"><ele>901.2</ele><time>2026-05-02T09:01:48.937Z</time></trkpt><trkpt lat="42.2276145" lon="13.8477637"><ele>900.0</ele><time>2026-05-02T09:01:50.937Z</time></trkpt><trkpt lat="42.2275214" lon="13.8477536"><ele>900.0000000000001</ele><time>2026-05-02T09:01:51.938Z</time></trkpt><trkpt lat="42.2274388" lon="13.8477472"><ele>900.0</ele><time>2026-05-02T09:01:52.936Z</time></trkpt><trkpt lat="42.2273703" lon="13.8477414"><ele>900.0000000000001</ele><time>2026-05-02T09:01:53.938Z</time></trkpt><trkpt lat="42.2272974" lon="13.8477528"><ele>900.0000000000001</ele><time>2026-05-02T09:01:54.936Z</time></trkpt><trkpt lat="42.2272312" lon="13.8477612"><ele>900.0</ele><time>2026-05-02T09:01:55.936Z</time></trkpt><trkpt lat="42.2271608" lon="13.8477552"><ele>900.0000000000001</ele><time>2026-05-02T09:01:56.937Z</time></trkpt><trkpt lat="42.2270765" lon="13.8477634"><ele>900.0000000000001</ele><time>2026-05-02T09:01:57.938Z</time></trkpt><trkpt lat="42.2269938" lon="13.8477641"><ele>900.75</ele><time>2026-05-02T09:01:58.938Z</time></trkpt><trkpt lat="42.2268801" lon="13.8477786"><ele>901.5</ele><time>2026-05-02T09:01:59.936Z</time></trkpt><trkpt lat="42.2267785" lon="13.8477767"><ele>902.25</ele><time>2026-05-02T09:02:00.937Z</time></trkpt><trkpt lat="42.2266548" lon="13.8477821"><ele>903.0</ele><time>2026-05-02T09:02:01.938Z</time></trkpt><trkpt lat="42.2265314" lon="13.8477808"><ele>903.5</ele><time>2026-05-02T09:02:02.937Z</time></trkpt><trkpt lat="42.2264037" lon="13.8477849"><ele>904.0</ele><time>2026-05-02T09:02:03.937Z</time></trkpt><trkpt lat="42.22628" lon="13.8477793"><ele>904.5</ele><time>2026-05-02T09:02:04.937Z</time></trkpt><trkpt lat="42.2261557" lon="13.8477795"><ele>905.0</ele><time>2026-05-02T09:02:05.938Z</time></trkpt><trkpt lat="42.2260414" lon="13.8477796"><ele>905.0</ele><time>2026-05-02T09:02:06.937Z</time></trkpt><trkpt lat="42.2259268" lon="13.8477782"><ele>905.0</ele><time>2026-05-02T09:02:07.936Z</time></trkpt><trkpt lat="42.2258076" lon="13.8477787"><ele>905.0</ele><time>2026-05-02T09:02:08.937Z</time></trkpt><trkpt lat="42.2257058" lon="13.8477496"><ele>905.0</ele><time>2026-05-02T09:02:09.937Z</time></trkpt><trkpt lat="42.2256034" lon="13.8477249"><ele>905.0</ele><time>2026-05-02T09:02:10.938Z</time></trkpt><trkpt lat="42.2255086" lon="13.8476835"><ele>902.4</ele><time>2026-05-02T09:02:11.936Z</time></trkpt><trkpt lat="42.2254165" lon="13.8476315"><ele>899.8</ele><time>2026-05-02T09:02:12.936Z</time></trkpt><trkpt lat="42.2253196" lon="13.8475727"><ele>897.2</ele><time>2026-05-02T09:02:13.938Z</time></trkpt><trkpt lat="42.2252207" lon="13.8475226"><ele>894.6</ele><time>2026-05-02T09:02:14.938Z</time></trkpt><trkpt lat="42.2251228" lon="13.8474816"><ele>892.0</ele><time>2026-05-02T09:02:15.939Z</time></trkpt><trkpt lat="42.225017" lon="13.8474453"><ele>893.4999999999999</ele><time>2026-05-02T09:02:16.938Z</time></trkpt><trkpt lat="42.22492" lon="13.8474018"><ele>895.0</ele><time>2026-05-02T09:02:17.936Z</time></trkpt><trkpt lat="42.2248286" lon="13.8473608"><ele>896.5</ele><time>2026-05-02T09:02:18.936Z</time></trkpt><trkpt lat="42.2247603" lon="13.8473133"><ele>898.0</ele><time>2026-05-02T09:02:19.938Z</time></trkpt><trkpt lat="42.224722" lon="13.8472424"><ele>899.4999999999999</ele><time>2026-05-02T09:02:20.938Z</time></trkpt><trkpt lat="42.2246778" lon="13.847176"><ele>901.0</ele><time>2026-05-02T09:02:21.936Z</time></trkpt><trkpt lat="42.2246638" lon="13.8470739"><ele>900.9999999999999</ele><time>2026-05-02T09:02:22.937Z</time></trkpt><trkpt lat="42.2246498" lon="13.846964"><ele>901.0</ele><time>2026-05-02T09:02:23.937Z</time></trkpt><trkpt lat="42.2246393" lon="13.8468699"><ele>901.0</ele><time>2026-05-02T09:02:24.936Z</time></trkpt><trkpt lat="42.2247024" lon="13.8467072"><ele>901.0</ele><time>2026-05-02T09:02:26.937Z</time></trkpt><trkpt lat="42.2247507" lon="13.8466235"><ele>900.9999999999999</ele><time>2026-05-02T09:02:27.937Z</time></trkpt><trkpt lat="42.2248026" lon="13.8465445"><ele>901.0</ele><time>2026-05-02T09:02:28.936Z</time></trkpt><trkpt lat="42.2248553" lon="13.8464613"><ele>906.9999999999999</ele><time>2026-05-02T09:02:29.937Z</time></trkpt><trkpt lat="42.2249117" lon="13.8463789"><ele>913.0</ele><time>2026-05-02T09:02:30.937Z</time></trkpt><trkpt lat="42.2249649" lon="13.8462981"><ele>919.0</ele><time>2026-05-02T09:02:31.937Z</time></trkpt><trkpt lat="42.2250261" lon="13.8462266"><ele>925.0</ele><time>2026-05-02T09:02:32.939Z</time></trkpt><trkpt lat="42.2250853" lon="13.8461534"><ele>930.9999999999999</ele><time>2026-05-02T09:02:33.939Z</time></trkpt><trkpt lat="42.2251481" lon="13.8460879"><ele>937.0</ele><time>2026-05-02T09:02:34.938Z</time></trkpt><trkpt lat="42.2252169" lon="13.8460268"><ele>937.0</ele><time>2026-05-02T09:02:35.937Z</time></trkpt><trkpt lat="42.2252957" lon="13.8459717"><ele>937.0</ele><time>2026-05-02T09:02:36.938Z</time></trkpt><trkpt lat="42.2253775" lon="13.8459202"><ele>937.0</ele><time>2026-05-02T09:02:37.939Z</time></trkpt><trkpt lat="42.2254621" lon="13.8458677"><ele>937.0</ele><time>2026-05-02T09:02:38.937Z</time></trkpt><trkpt lat="42.225552" lon="13.8457994"><ele>937.0</ele><time>2026-05-02T09:02:39.937Z</time></trkpt><trkpt lat="42.2256392" lon="13.8457338"><ele>939.6</ele><time>2026-05-02T09:02:40.938Z</time></trkpt><trkpt lat="42.2257316" lon="13.8456728"><ele>942.2</ele><time>2026-05-02T09:02:41.937Z</time></trkpt><trkpt lat="42.225821" lon="13.8456113"><ele>944.8</ele><time>2026-05-02T09:02:42.937Z</time></trkpt><trkpt lat="42.2259093" lon="13.8455421"><ele>947.4</ele><time>2026-05-02T09:02:43.937Z</time></trkpt><trkpt lat="42.2259877" lon="13.845477"><ele>950.0</ele><time>2026-05-02T09:02:44.936Z</time></trkpt><trkpt lat="42.226067" lon="13.8454053"><ele>950.0</ele><time>2026-05-02T09:02:45.937Z</time></trkpt><trkpt lat="42.2261436" lon="13.8453352"><ele>950.0</ele><time>2026-05-02T09:02:46.939Z</time></trkpt><trkpt lat="42.2262265" lon="13.8452667"><ele>950.0</ele><time>2026-05-02T09:02:47.937Z</time></trkpt><trkpt lat="42.2262987" lon="13.8451953"><ele>950.0</ele><time>2026-05-02T09:02:48.937Z</time></trkpt><trkpt lat="42.2263704" lon="13.8451243"><ele>950.0</ele><time>2026-05-02T09:02:49.937Z</time></trkpt><trkpt lat="42.2264442" lon="13.8450532"><ele>952.8</ele><time>2026-05-02T09:02:50.936Z</time></trkpt><trkpt lat="42.2265218" lon="13.8449706"><ele>955.6</ele><time>2026-05-02T09:02:51.938Z</time></trkpt><trkpt lat="42.2265991" lon="13.844889"><ele>958.4000000000001</ele><time>2026-05-02T09:02:52.937Z</time></trkpt><trkpt lat="42.2266798" lon="13.8448119"><ele>961.2</ele><time>2026-05-02T09:02:53.937Z</time></trkpt><trkpt lat="42.2267627" lon="13.8447388"><ele>964.0</ele><time>2026-05-02T09:02:54.939Z</time></trkpt><trkpt lat="42.2268497" lon="13.8446721"><ele>964.0</ele><time>2026-05-02T09:02:55.937Z</time></trkpt><trkpt lat="42.2269404" lon="13.8446058"><ele>964.0000000000001</ele><time>2026-05-02T09:02:56.937Z</time></trkpt><trkpt lat="42.2270258" lon="13.8445308"><ele>964.0000000000001</ele><time>2026-05-02T09:02:57.937Z</time></trkpt><trkpt lat="42.2271138" lon="13.8444606"><ele>964.0</ele><time>2026-05-02T09:02:58.938Z</time></trkpt><trkpt lat="42.2272006" lon="13.8443803"><ele>964.0</ele><time>2026-05-02T09:02:59.937Z</time></trkpt><trkpt lat="42.2272958" lon="13.8443067"><ele>967.0</ele><time>2026-05-02T09:03:00.937Z</time></trkpt><trkpt lat="42.2273887" lon="13.8442417"><ele>970.0000000000001</ele><time>2026-05-02T09:03:01.937Z</time></trkpt><trkpt lat="42.2274753" lon="13.844178"><ele>973.0000000000001</ele><time>2026-05-02T09:03:02.937Z</time></trkpt><trkpt lat="42.22756" lon="13.8441191"><ele>976.0</ele><time>2026-05-02T09:03:03.937Z</time></trkpt><trkpt lat="42.2276198" lon="13.8440534"><ele>979.0</ele><time>2026-05-02T09:03:04.938Z</time></trkpt><trkpt lat="42.2276677" lon="13.8439065"><ele>979.0</ele><time>2026-05-02T09:03:06.937Z</time></trkpt><trkpt lat="42.2276347" lon="13.8437845"><ele>979.0000000000001</ele><time>2026-05-02T09:03:08.938Z</time></trkpt><trkpt lat="42.227567" lon="13.8437698"><ele>979.0000000000001</ele><time>2026-05-02T09:03:09.936Z</time></trkpt><trkpt lat="42.227453" lon="13.8437806"><ele>979.0</ele><time>2026-05-02T09:03:11.937Z</time></trkpt><trkpt lat="42.2273235" lon="13.843789"><ele>979.0</ele><time>2026-05-02T09:03:13.937Z</time></trkpt><trkpt lat="42.2272532" lon="13.8437906"><ele>979.8571428571429</ele><time>2026-05-02T09:03:14.938Z</time></trkpt><trkpt lat="42.2271797" lon="13.8437976"><ele>980.7142857142858</ele><time>2026-05-02T09:03:15.937Z</time></trkpt><trkpt lat="42.2271147" lon="13.8437986"><ele>981.5714285714287</ele><time>2026-05-02T09:03:16.937Z</time></trkpt><trkpt lat="42.2270441" lon="13.8437992"><ele>982.4285714285714</ele><time>2026-05-02T09:03:17.937Z</time></trkpt><trkpt lat="42.2269731" lon="13.8438017"><ele>983.2857142857144</ele><time>2026-05-02T09:03:18.937Z</time></trkpt><trkpt lat="42.2268987" lon="13.8438003"><ele>984.1428571428572</ele><time>2026-05-02T09:03:19.936Z</time></trkpt><trkpt lat="42.2268292" lon="13.8437832"><ele>985.0</ele><time>2026-05-02T09:03:20.938Z</time></trkpt><trkpt lat="42.2267397" lon="13.8437625"><ele>984.9999999999999</ele><time>2026-05-02T09:03:22.937Z</time></trkpt><trkpt lat="42.2266539" lon="13.8437602"><ele>985.0</ele><time>2026-05-02T09:03:28.937Z</time></trkpt><trkpt lat="42.2265969" lon="13.8438228"><ele>985.0</ele><time>2026-05-02T09:03:32.937Z</time></trkpt><trkpt lat="42.2265272" lon="13.8438696"><ele>985.0</ele><time>2026-05-02T09:03:34.937Z</time></trkpt><trkpt lat="42.2264543" lon="13.8439026"><ele>984.9999999999999</ele><time>2026-05-02T09:03:35.938Z</time></trkpt><trkpt lat="42.2263721" lon="13.843954"><ele>985.0</ele><time>2026-05-02T09:03:36.937Z</time></trkpt><trkpt lat="42.2262396" lon="13.8440139"><ele>986.25</ele><time>2026-05-02T09:03:37.937Z</time></trkpt><trkpt lat="42.2261183" lon="13.8440726"><ele>987.5</ele><time>2026-05-02T09:03:38.937Z</time></trkpt><trkpt lat="42.2259944" lon="13.8441295"><ele>988.75</ele><time>2026-05-02T09:03:39.937Z</time></trkpt><trkpt lat="42.2258722" lon="13.8441883"><ele>990.0</ele><time>2026-05-02T09:03:40.937Z</time></trkpt><trkpt lat="42.2257566" lon="13.8442269"><ele>988.6</ele><time>2026-05-02T09:03:41.938Z</time></trkpt><trkpt lat="42.2256388" lon="13.8442776"><ele>987.2</ele><time>2026-05-02T09:03:42.937Z</time></trkpt><trkpt lat="42.2255456" lon="13.8443325"><ele>985.8</ele><time>2026-05-02T09:03:43.937Z</time></trkpt><trkpt lat="42.2254714" lon="13.8443848"><ele>984.4</ele><time>2026-05-02T09:03:44.936Z</time></trkpt><trkpt lat="42.2254081" lon="13.844443"><ele>983.0</ele><time>2026-05-02T09:03:45.937Z</time></trkpt><trkpt lat="42.225342" lon="13.8444924"><ele>980.8</ele><time>2026-05-02T09:03:47.937Z</time></trkpt><trkpt lat="42.2252271" lon="13.8445381"><ele>978.5999999999999</ele><time>2026-05-02T09:03:49.937Z</time></trkpt><trkpt lat="42.225149" lon="13.8445527"><ele>976.4000000000001</ele><time>2026-05-02T09:03:50.937Z</time></trkpt><trkpt lat="42.22505" lon="13.8445613"><ele>974.2</ele><time>2026-05-02T09:03:51.937Z</time></trkpt><trkpt lat="42.224964" lon="13.8445608"><ele>972.0</ele><time>2026-05-02T09:03:52.937Z</time></trkpt><trkpt lat="42.2248752" lon="13.8445671"><ele>969.8</ele><time>2026-05-02T09:03:53.937Z</time></trkpt><trkpt lat="42.2247881" lon="13.8445626"><ele>967.6</ele><time>2026-05-02T09:03:54.936Z</time></trkpt><trkpt lat="42.2246833" lon="13.8445015"><ele>965.3999999999999</ele><time>2026-05-02T09:03:56.938Z</time></trkpt><trkpt lat="42.2246039" lon="13.8443912"><ele>963.1999999999999</ele><time>2026-05-02T09:03:58.937Z</time></trkpt><trkpt lat="42.2246223" lon="13.8443081"><ele>961.0</ele><time>2026-05-02T09:03:59.937Z</time></trkpt><trkpt lat="42.2246375" lon="13.844214"><ele>960.0</ele><time>2026-05-02T09:04:00.937Z</time></trkpt><trkpt lat="42.224671" lon="13.8441148"><ele>958.9999999999999</ele><time>2026-05-02T09:04:01.936Z</time></trkpt><trkpt lat="42.2247169" lon="13.8439919"><ele>957.9999999999999</ele><time>2026-05-02T09:04:02.937Z</time></trkpt><trkpt lat="42.2247663" lon="13.8438643"><ele>957.0</ele><time>2026-05-02T09:04:03.937Z</time></trkpt><trkpt lat="42.2248167" lon="13.8437156"><ele>956.0</ele><time>2026-05-02T09:04:04.938Z</time></trkpt><trkpt lat="42.2248659" lon="13.8435804"><ele>959.0</ele><time>2026-05-02T09:04:05.937Z</time></trkpt><trkpt lat="42.2249199" lon="13.8434485"><ele>961.9999999999999</ele><time>2026-05-02T09:04:06.938Z</time></trkpt><trkpt lat="42.2249824" lon="13.8433281"><ele>964.9999999999999</ele><time>2026-05-02T09:04:07.936Z</time></trkpt><trkpt lat="42.2250507" lon="13.8432229"><ele>968.0</ele><time>2026-05-02T09:04:08.937Z</time></trkpt><trkpt lat="42.2251207" lon="13.8431303"><ele>971.0</ele><time>2026-05-02T09:04:09.937Z</time></trkpt><trkpt lat="42.2251902" lon="13.8430464"><ele>971.0000000000001</ele><time>2026-05-02T09:04:10.937Z</time></trkpt><trkpt lat="42.2252536" lon="13.8429574"><ele>971.0</ele><time>2026-05-02T09:04:11.937Z</time></trkpt><trkpt lat="42.2253161" lon="13.8428677"><ele>971.0</ele><time>2026-05-02T09:04:12.936Z</time></trkpt><trkpt lat="42.2253739" lon="13.8427784"><ele>971.0</ele><time>2026-05-02T09:04:13.937Z</time></trkpt><trkpt lat="42.2254375" lon="13.842696"><ele>971.0000000000001</ele><time>2026-05-02T09:04:14.938Z</time></trkpt><trkpt lat="42.2254972" lon="13.84261"><ele>971.0</ele><time>2026-05-02T09:04:15.937Z</time></trkpt><trkpt lat="42.2255565" lon="13.84252"><ele>970.4</ele><time>2026-05-02T09:04:16.938Z</time></trkpt><trkpt lat="42.2256243" lon="13.8424374"><ele>969.8</ele><time>2026-05-02T09:04:17.936Z</time></trkpt><trkpt lat="42.225696" lon="13.8423624"><ele>969.1999999999999</ele><time>2026-05-02T09:04:18.937Z</time></trkpt><trkpt lat="42.2257694" lon="13.8422886"><ele>968.5999999999999</ele><time>2026-05-02T09:04:19.937Z</time></trkpt><trkpt lat="42.2258447" lon="13.8422243"><ele>968.0</ele><time>2026-05-02T09:04:20.936Z</time></trkpt><trkpt lat="42.2259281" lon="13.8421722"><ele>968.0</ele><time>2026-05-02T09:04:21.937Z</time></trkpt><trkpt lat="42.2260225" lon="13.8421224"><ele>968.0</ele><time>2026-05-02T09:04:22.937Z</time></trkpt><trkpt lat="42.2261135" lon="13.8420801"><ele>968.0</ele><time>2026-05-02T09:04:23.938Z</time></trkpt><trkpt lat="42.2261957" lon="13.8420669"><ele>968.0</ele><time>2026-05-02T09:04:24.937Z</time></trkpt><trkpt lat="42.2262817" lon="13.8420571"><ele>968.0</ele><time>2026-05-02T09:04:25.938Z</time></trkpt><trkpt lat="42.2263804" lon="13.8420699"><ele>968.8</ele><time>2026-05-02T09:04:26.937Z</time></trkpt><trkpt lat="42.2264854" lon="13.8420721"><ele>969.5999999999999</ele><time>2026-05-02T09:04:27.937Z</time></trkpt><trkpt lat="42.2265956" lon="13.8420617"><ele>970.4000000000001</ele><time>2026-05-02T09:04:28.937Z</time></trkpt><trkpt lat="42.2267023" lon="13.842049"><ele>971.2</ele><time>2026-05-02T09:04:29.937Z</time></trkpt><trkpt lat="42.226814" lon="13.8420355"><ele>972.0</ele><time>2026-05-02T09:04:30.937Z</time></trkpt><trkpt lat="42.2269247" lon="13.8420327"><ele>972.0</ele><time>2026-05-02T09:04:31.936Z</time></trkpt><trkpt lat="42.2270339" lon="13.8420174"><ele>972.0</ele><time>2026-05-02T09:04:32.938Z</time></trkpt><trkpt lat="42.2271472" lon="13.8420141"><ele>972.0</ele><time>2026-05-02T09:04:33.937Z</time></trkpt><trkpt lat="42.2272562" lon="13.8420031"><ele>972.0</ele><time>2026-05-02T09:04:34.938Z</time></trkpt><trkpt lat="42.2273678" lon="13.8419937"><ele>972.0</ele><time>2026-05-02T09:04:35.937Z</time></trkpt><trkpt lat="42.2274808" lon="13.8419808"><ele>970.0</ele><time>2026-05-02T09:04:36.937Z</time></trkpt><trkpt lat="42.2275916" lon="13.8419701"><ele>968.0</ele><time>2026-05-02T09:04:37.937Z</time></trkpt><trkpt lat="42.2277053" lon="13.8419564"><ele>966.0</ele><time>2026-05-02T09:04:38.936Z</time></trkpt><trkpt lat="42.2278145" lon="13.8419321"><ele>964.0</ele><time>2026-05-02T09:04:39.936Z</time></trkpt><trkpt lat="42.2279275" lon="13.8419014"><ele>964.0</ele><time>2026-05-02T09:04:40.938Z</time></trkpt><trkpt lat="42.2280374" lon="13.8418631"><ele>964.0000000000001</ele><time>2026-05-02T09:04:41.937Z</time></trkpt><trkpt lat="42.2281464" lon="13.8418228"><ele>964.0000000000001</ele><time>2026-05-02T09:04:42.936Z</time></trkpt><trkpt lat="42.2282504" lon="13.8417866"><ele>964.0</ele><time>2026-05-02T09:04:43.936Z</time></trkpt><trkpt lat="42.2283534" lon="13.8417396"><ele>964.0</ele><time>2026-05-02T09:04:44.938Z</time></trkpt><trkpt lat="42.2284468" lon="13.8416902"><ele>957.6</ele><time>2026-05-02T09:04:45.937Z</time></trkpt><trkpt lat="42.2285319" lon="13.8416201"><ele>951.2</ele><time>2026-05-02T09:04:46.936Z</time></trkpt><trkpt lat="42.2286004" lon="13.8415353"><ele>944.8000000000001</ele><time>2026-05-02T09:04:47.937Z</time></trkpt><trkpt lat="42.2286698" lon="13.8414232"><ele>938.4000000000001</ele><time>2026-05-02T09:04:48.938Z</time></trkpt><trkpt lat="42.228735" lon="13.8412869"><ele>932.0</ele><time>2026-05-02T09:04:49.937Z</time></trkpt><trkpt lat="42.2288065" lon="13.8411282"><ele>933.25</ele><time>2026-05-02T09:04:50.937Z</time></trkpt><trkpt lat="42.228871" lon="13.84094"><ele>934.5</ele><time>2026-05-02T09:04:51.938Z</time></trkpt><trkpt lat="42.2289314" lon="13.8407564"><ele>935.75</ele><time>2026-05-02T09:04:52.937Z</time></trkpt><trkpt lat="42.2289955" lon="13.8405776"><ele>937.0</ele><time>2026-05-02T09:04:53.938Z</time></trkpt><trkpt lat="42.2290485" lon="13.8404128"><ele>937.0</ele><time>2026-05-02T09:04:54.937Z</time></trkpt><trkpt lat="42.2291105" lon="13.8402465"><ele>937.0</ele><time>2026-05-02T09:04:55.937Z</time></trkpt><trkpt lat="42.2291788" lon="13.8400722"><ele>937.0</ele><time>2026-05-02T09:04:56.937Z</time></trkpt><trkpt lat="42.2292462" lon="13.8399053"><ele>937.0</ele><time>2026-05-02T09:04:57.937Z</time></trkpt><trkpt lat="42.229313" lon="13.8397415"><ele>931.25</ele><time>2026-05-02T09:04:58.937Z</time></trkpt><trkpt lat="42.2293842" lon="13.8396104"><ele>925.5</ele><time>2026-05-02T09:04:59.938Z</time></trkpt><trkpt lat="42.2294635" lon="13.8394658"><ele>919.75</ele><time>2026-05-02T09:05:00.938Z</time></trkpt><trkpt lat="42.2295488" lon="13.8393331"><ele>914.0</ele><time>2026-05-02T09:05:01.938Z</time></trkpt><trkpt lat="42.2296424" lon="13.8391882"><ele>918.0</ele><time>2026-05-02T09:05:02.938Z</time></trkpt><trkpt lat="42.2297331" lon="13.8390434"><ele>922.0</ele><time>2026-05-02T09:05:03.938Z</time></trkpt><trkpt lat="42.2298267" lon="13.8388833"><ele>926.0</ele><time>2026-05-02T09:05:04.937Z</time></trkpt><trkpt lat="42.2299123" lon="13.8387306"><ele>930.0</ele><time>2026-05-02T09:05:05.939Z</time></trkpt><trkpt lat="42.2299949" lon="13.8385799"><ele>921.5</ele><time>2026-05-02T09:05:06.938Z</time></trkpt><trkpt lat="42.2300657" lon="13.8384287"><ele>913.0</ele><time>2026-05-02T09:05:07.936Z</time></trkpt><trkpt lat="42.2301237" lon="13.8382889"><ele>904.5</ele><time>2026-05-02T09:05:08.937Z</time></trkpt><trkpt lat="42.2301785" lon="13.8381618"><ele>896.0</ele><time>2026-05-02T09:05:09.937Z</time></trkpt><trkpt lat="42.2302327" lon="13.8380356"><ele>896.0</ele><time>2026-05-02T09:05:10.937Z</time></trkpt><trkpt lat="42.2303111" lon="13.8379339"><ele>896.0</ele><time>2026-05-02T09:05:11.937Z</time></trkpt><trkpt lat="42.2304048" lon="13.8378364"><ele>896.0</ele><time>2026-05-02T09:05:12.938Z</time></trkpt><trkpt lat="42.2304951" lon="13.8377419"><ele>896.0</ele><time>2026-05-02T09:05:13.936Z</time></trkpt><trkpt lat="42.2305889" lon="13.8376455"><ele>894.8</ele><time>2026-05-02T09:05:14.937Z</time></trkpt><trkpt lat="42.2306878" lon="13.8375935"><ele>893.5999999999999</ele><time>2026-05-02T09:05:15.937Z</time></trkpt><trkpt lat="42.2307762" lon="13.83753"><ele>892.4</ele><time>2026-05-02T09:05:16.937Z</time></trkpt><trkpt lat="42.2308597" lon="13.8374624"><ele>891.2</ele><time>2026-05-02T09:05:17.937Z</time></trkpt><trkpt lat="42.2309457" lon="13.837406"><ele>890.0</ele><time>2026-05-02T09:05:18.937Z</time></trkpt><trkpt lat="42.2310386" lon="13.837367"><ele>890.0</ele><time>2026-05-02T09:05:19.936Z</time></trkpt><trkpt lat="42.2311419" lon="13.8373304"><ele>890.0</ele><time>2026-05-02T09:05:20.937Z</time></trkpt><trkpt lat="42.2312523" lon="13.8372888"><ele>890.0</ele><time>2026-05-02T09:05:21.939Z</time></trkpt><trkpt lat="42.2313796" lon="13.8372455"><ele>890.0</ele><time>2026-05-02T09:05:22.936Z</time></trkpt><trkpt lat="42.2315145" lon="13.8372067"><ele>892.5</ele><time>2026-05-02T09:05:23.936Z</time></trkpt><trkpt lat="42.2316489" lon="13.8371786"><ele>895.0</ele><time>2026-05-02T09:05:24.937Z</time></trkpt><trkpt lat="42.2317773" lon="13.8371414"><ele>897.5</ele><time>2026-05-02T09:05:25.938Z</time></trkpt><trkpt lat="42.231902" lon="13.8371111"><ele>900.0</ele><time>2026-05-02T09:05:26.936Z</time></trkpt><trkpt lat="42.2320242" lon="13.8370842"><ele>900.0</ele><time>2026-05-02T09:05:27.937Z</time></trkpt><trkpt lat="42.2321402" lon="13.8370742"><ele>900.0</ele><time>2026-05-02T09:05:28.937Z</time></trkpt><trkpt lat="42.2322492" lon="13.8370795"><ele>900.0</ele><time>2026-05-02T09:05:29.937Z</time></trkpt><trkpt lat="42.2323457" lon="13.8370963"><ele>900.0</ele><time>2026-05-02T09:05:30.938Z</time></trkpt><trkpt lat="42.2324232" lon="13.8371081"><ele>900.0</ele><time>2026-05-02T09:05:31.937Z</time></trkpt><trkpt lat="42.2324903" lon="13.8371247"><ele>900.0</ele><time>2026-05-02T09:05:32.938Z</time></trkpt><trkpt lat="42.2325449" lon="13.8370436"><ele>900.0</ele><time>2026-05-02T09:05:34.937Z</time></trkpt><trkpt lat="42.2324511" lon="13.8369591"><ele>900.0</ele><time>2026-05-02T09:05:36.937Z</time></trkpt><trkpt lat="42.2323763" lon="13.8369474"><ele>900.0</ele><time>2026-05-02T09:05:37.936Z</time></trkpt><trkpt lat="42.2322852" lon="13.8369122"><ele>900.0</ele><time>2026-05-02T09:05:38.939Z</time></trkpt><trkpt lat="42.2321903" lon="13.8368774"><ele>900.0</ele><time>2026-05-02T09:05:39.937Z</time></trkpt><trkpt lat="42.2320688" lon="13.8368394"><ele>900.0</ele><time>2026-05-02T09:05:40.937Z</time></trkpt><trkpt lat="42.2319415" lon="13.8368076"><ele>900.0</ele><time>2026-05-02T09:05:41.937Z</time></trkpt><trkpt lat="42.2318023" lon="13.8367713"><ele>900.0</ele><time>2026-05-02T09:05:42.938Z</time></trkpt><trkpt lat="42.2316675" lon="13.8367344"><ele>890.5</ele><time>2026-05-02T09:05:43.938Z</time></trkpt><trkpt lat="42.231534" lon="13.8367061"><ele>881.0</ele><time>2026-05-02T09:05:44.937Z</time></trkpt><trkpt lat="42.2314083" lon="13.8366699"><ele>871.5</ele><time>2026-05-02T09:05:45.938Z</time></trkpt><trkpt lat="42.2312823" lon="13.836642"><ele>862.0</ele><time>2026-05-02T09:05:46.938Z</time></trkpt><trkpt lat="42.2311582" lon="13.8366209"><ele>859.75</ele><time>2026-05-02T09:05:47.936Z</time></trkpt><trkpt lat="42.2310344" lon="13.8366121"><ele>857.5</ele><time>2026-05-02T09:05:48.937Z</time></trkpt><trkpt lat="42.2309084" lon="13.8366267"><ele>855.25</ele><time>2026-05-02T09:05:49.937Z</time></trkpt><trkpt lat="42.2307856" lon="13.8366658"><ele>853.0</ele><time>2026-05-02T09:05:50.938Z</time></trkpt><trkpt lat="42.2306521" lon="13.8367307"><ele>856.3333333333333</ele><time>2026-05-02T09:05:51.938Z</time></trkpt><trkpt lat="42.2305122" lon="13.8368075"><ele>859.6666666666667</ele><time>2026-05-02T09:05:52.937Z</time></trkpt><trkpt lat="42.2303632" lon="13.8368873"><ele>863.0</ele><time>2026-05-02T09:05:53.938Z</time></trkpt><trkpt lat="42.2302145" lon="13.8369638"><ele>863.0</ele><time>2026-05-02T09:05:54.937Z</time></trkpt><trkpt lat="42.2300565" lon="13.8370499"><ele>863.0</ele><time>2026-05-02T09:05:55.937Z</time></trkpt><trkpt lat="42.2299017" lon="13.8371341"><ele>863.0</ele><time>2026-05-02T09:05:56.939Z</time></trkpt><trkpt lat="42.229745" lon="13.8372215"><ele>854.6666666666667</ele><time>2026-05-02T09:05:57.937Z</time></trkpt><trkpt lat="42.2295833" lon="13.8373047"><ele>846.3333333333333</ele><time>2026-05-02T09:05:58.937Z</time></trkpt><trkpt lat="42.2294319" lon="13.8373787"><ele>838.0</ele><time>2026-05-02T09:05:59.939Z</time></trkpt><trkpt lat="42.2292856" lon="13.8374462"><ele>838.0</ele><time>2026-05-02T09:06:00.937Z</time></trkpt><trkpt lat="42.2291463" lon="13.8375125"><ele>838.0</ele><time>2026-05-02T09:06:01.937Z</time></trkpt><trkpt lat="42.2290069" lon="13.8375855"><ele>838.0</ele><time>2026-05-02T09:06:02.936Z</time></trkpt><trkpt lat="42.2288824" lon="13.8376487"><ele>838.0</ele><time>2026-05-02T09:06:03.938Z</time></trkpt><trkpt lat="42.2287684" lon="13.8377138"><ele>836.8333333333333</ele><time>2026-05-02T09:06:04.937Z</time></trkpt><trkpt lat="42.2286757" lon="13.8377735"><ele>835.6666666666666</ele><time>2026-05-02T09:06:05.937Z</time></trkpt><trkpt lat="42.2285974" lon="13.8378107"><ele>834.5</ele><time>2026-05-02T09:06:06.936Z</time></trkpt><trkpt lat="42.2285005" lon="13.8377944"><ele>833.3333333333333</ele><time>2026-05-02T09:06:08.937Z</time></trkpt><trkpt lat="42.2285246" lon="13.837698"><ele>832.1666666666666</ele><time>2026-05-02T09:06:10.936Z</time></trkpt><trkpt lat="42.2285853" lon="13.8376625"><ele>831.0</ele><time>2026-05-02T09:06:11.936Z</time></trkpt><trkpt lat="42.2286683" lon="13.8376098"><ele>831.0</ele><time>2026-05-02T09:06:12.936Z</time></trkpt><trkpt lat="42.2287534" lon="13.8375424"><ele>831.0</ele><time>2026-05-02T09:06:13.937Z</time></trkpt><trkpt lat="42.2288485" lon="13.8374566"><ele>831.0</ele><time>2026-05-02T09:06:14.937Z</time></trkpt><trkpt lat="42.228953" lon="13.8373415"><ele>831.0</ele><time>2026-05-02T09:06:15.938Z</time></trkpt><trkpt lat="42.2290565" lon="13.8372435"><ele>832.75</ele><time>2026-05-02T09:06:16.937Z</time></trkpt><trkpt lat="42.2291655" lon="13.8371457"><ele>834.5</ele><time>2026-05-02T09:06:17.937Z</time></trkpt><trkpt lat="42.2292728" lon="13.8370456"><ele>836.25</ele><time>2026-05-02T09:06:18.939Z</time></trkpt><trkpt lat="42.2293775" lon="13.8369465"><ele>838.0</ele><time>2026-05-02T09:06:19.937Z</time></trkpt><trkpt lat="42.2294784" lon="13.8368625"><ele>836.0</ele><time>2026-05-02T09:06:20.938Z</time></trkpt><trkpt lat="42.229582" lon="13.8367471"><ele>834.0</ele><time>2026-05-02T09:06:21.938Z</time></trkpt><trkpt lat="42.2296904" lon="13.8366193"><ele>832.0</ele><time>2026-05-02T09:06:22.938Z</time></trkpt><trkpt lat="42.2298021" lon="13.8364776"><ele>830.0</ele><time>2026-05-02T09:06:23.938Z</time></trkpt><trkpt lat="42.2299133" lon="13.8363371"><ele>830.0</ele><time>2026-05-02T09:06:24.937Z</time></trkpt><trkpt lat="42.2300362" lon="13.8362012"><ele>830.0</ele><time>2026-05-02T09:06:25.937Z</time></trkpt><trkpt lat="42.2301635" lon="13.8360718"><ele>830.0</ele><time>2026-05-02T09:06:26.938Z</time></trkpt><trkpt lat="42.230289" lon="13.835948"><ele>827.75</ele><time>2026-05-02T09:06:27.936Z</time></trkpt><trkpt lat="42.2304098" lon="13.8358257"><ele>825.5</ele><time>2026-05-02T09:06:28.937Z</time></trkpt><trkpt lat="42.2305272" lon="13.8357096"><ele>823.25</ele><time>2026-05-02T09:06:29.938Z</time></trkpt><trkpt lat="42.2306441" lon="13.835609"><ele>821.0</ele><time>2026-05-02T09:06:30.937Z</time></trkpt><trkpt lat="42.2307587" lon="13.8355042"><ele>821.0</ele><time>2026-05-02T09:06:31.937Z</time></trkpt><trkpt lat="42.2308805" lon="13.8354364"><ele>821.0</ele><time>2026-05-02T09:06:32.937Z</time></trkpt><trkpt lat="42.2309873" lon="13.8353686"><ele>821.0</ele><time>2026-05-02T09:06:33.937Z</time></trkpt><trkpt lat="42.2310962" lon="13.8353105"><ele>821.0</ele><time>2026-05-02T09:06:34.939Z</time></trkpt><trkpt lat="42.2312122" lon="13.8352816"><ele>821.0</ele><time>2026-05-02T09:06:35.937Z</time></trkpt><trkpt lat="42.2313252" lon="13.8352478"><ele>821.0</ele><time>2026-05-02T09:06:36.936Z</time></trkpt><trkpt lat="42.2314429" lon="13.8352243"><ele>821.0</ele><time>2026-05-02T09:06:37.936Z</time></trkpt><trkpt lat="42.2315531" lon="13.8352003"><ele>821.0</ele><time>2026-05-02T09:06:38.937Z</time></trkpt><trkpt lat="42.2316622" lon="13.8351785"><ele>822.6666666666667</ele><time>2026-05-02T09:06:39.939Z</time></trkpt><trkpt lat="42.2317551" lon="13.8351575"><ele>824.3333333333334</ele><time>2026-05-02T09:06:40.936Z</time></trkpt><trkpt lat="42.2318438" lon="13.8351454"><ele>826.0</ele><time>2026-05-02T09:06:41.937Z</time></trkpt><trkpt lat="42.2319074" lon="13.8351338"><ele>827.6666666666667</ele><time>2026-05-02T09:06:42.937Z</time></trkpt><trkpt lat="42.2319438" lon="13.8350085"><ele>829.3333333333334</ele><time>2026-05-02T09:06:44.937Z</time></trkpt><trkpt lat="42.2318636" lon="13.8349586"><ele>831.0</ele><time>2026-05-02T09:06:46.937Z</time></trkpt><trkpt lat="42.2317947" lon="13.8349632"><ele>825.4</ele><time>2026-05-02T09:06:47.937Z</time></trkpt><trkpt lat="42.2317047" lon="13.8349616"><ele>819.8</ele><time>2026-05-02T09:06:48.937Z</time></trkpt><trkpt lat="42.2316138" lon="13.8349718"><ele>814.1999999999999</ele><time>2026-05-02T09:06:49.938Z</time></trkpt><trkpt lat="42.2315175" lon="13.8349649"><ele>808.5999999999999</ele><time>2026-05-02T09:06:50.937Z</time></trkpt><trkpt lat="42.2314204" lon="13.8349427"><ele>803.0</ele><time>2026-05-02T09:06:51.937Z</time></trkpt><trkpt lat="42.2313225" lon="13.8349116"><ele>800.8</ele><time>2026-05-02T09:06:52.938Z</time></trkpt><trkpt lat="42.2312234" lon="13.834874"><ele>798.5999999999999</ele><time>2026-05-02T09:06:53.938Z</time></trkpt><trkpt lat="42.2311262" lon="13.8348566"><ele>796.4000000000001</ele><time>2026-05-02T09:06:54.937Z</time></trkpt><trkpt lat="42.2310289" lon="13.8348576"><ele>794.2</ele><time>2026-05-02T09:06:55.937Z</time></trkpt><trkpt lat="42.2309206" lon="13.8348743"><ele>792.0</ele><time>2026-05-02T09:06:56.937Z</time></trkpt><trkpt lat="42.2308017" lon="13.8349015"><ele>792.0</ele><time>2026-05-02T09:06:57.938Z</time></trkpt><trkpt lat="42.2306759" lon="13.8349294"><ele>792.0</ele><time>2026-05-02T09:06:58.938Z</time></trkpt><trkpt lat="42.2305393" lon="13.8349653"><ele>792.0</ele><time>2026-05-02T09:06:59.937Z</time></trkpt><trkpt lat="42.2303942" lon="13.835004"><ele>792.0</ele><time>2026-05-02T09:07:00.937Z</time></trkpt><trkpt lat="42.2302513" lon="13.8350514"><ele>794.0</ele><time>2026-05-02T09:07:01.937Z</time></trkpt><trkpt lat="42.2301172" lon="13.8350974"><ele>796.0</ele><time>2026-05-02T09:07:02.937Z</time></trkpt><trkpt lat="42.2299797" lon="13.8351495"><ele>798.0</ele><time>2026-05-02T09:07:03.938Z</time></trkpt><trkpt lat="42.2298426" lon="13.8351879"><ele>800.0</ele><time>2026-05-02T09:07:04.937Z</time></trkpt><trkpt lat="42.2297096" lon="13.8352426"><ele>795.0</ele><time>2026-05-02T09:07:05.938Z</time></trkpt><trkpt lat="42.2295737" lon="13.8353146"><ele>790.0</ele><time>2026-05-02T09:07:06.937Z</time></trkpt><trkpt lat="42.2294374" lon="13.8353781"><ele>785.0</ele><time>2026-05-02T09:07:07.938Z</time></trkpt><trkpt lat="42.2293043" lon="13.835443"><ele>780.0</ele><time>2026-05-02T09:07:08.937Z</time></trkpt><trkpt lat="42.229183" lon="13.8355375"><ele>780.0</ele><time>2026-05-02T09:07:09.939Z</time></trkpt><trkpt lat="42.2290657" lon="13.8356359"><ele>780.0</ele><time>2026-05-02T09:07:10.937Z</time></trkpt><trkpt lat="42.22895" lon="13.8357237"><ele>780.0</ele><time>2026-05-02T09:07:11.937Z</time></trkpt><trkpt lat="42.2288399" lon="13.8357898"><ele>780.0</ele><time>2026-05-02T09:07:12.937Z</time></trkpt><trkpt lat="42.2287325" lon="13.8358476"><ele>778.1666666666666</ele><time>2026-05-02T09:07:13.939Z</time></trkpt><trkpt lat="42.2286326" lon="13.8358992"><ele>776.3333333333333</ele><time>2026-05-02T09:07:14.939Z</time></trkpt><trkpt lat="42.2285374" lon="13.8359573"><ele>774.5</ele><time>2026-05-02T09:07:15.937Z</time></trkpt><trkpt lat="42.228463" lon="13.8360113"><ele>772.6666666666666</ele><time>2026-05-02T09:07:16.937Z</time></trkpt><trkpt lat="42.2283887" lon="13.8360445"><ele>770.8333333333333</ele><time>2026-05-02T09:07:17.937Z</time></trkpt><trkpt lat="42.2283229" lon="13.8360407"><ele>769.0</ele><time>2026-05-02T09:07:18.938Z</time></trkpt><trkpt lat="42.228249" lon="13.8360179"><ele>769.0</ele><time>2026-05-02T09:07:19.936Z</time></trkpt><trkpt lat="42.2281608" lon="13.8359673"><ele>769.0</ele><time>2026-05-02T09:07:20.937Z</time></trkpt><trkpt lat="42.2280624" lon="13.8359043"><ele>769.0</ele><time>2026-05-02T09:07:21.937Z</time></trkpt><trkpt lat="42.2279525" lon="13.8358316"><ele>769.0</ele><time>2026-05-02T09:07:22.937Z</time></trkpt><trkpt lat="42.2278313" lon="13.8357533"><ele>770.0</ele><time>2026-05-02T09:07:23.938Z</time></trkpt><trkpt lat="42.2277008" lon="13.8356707"><ele>771.0</ele><time>2026-05-02T09:07:24.938Z</time></trkpt><trkpt lat="42.2275687" lon="13.8355864"><ele>772.0</ele><time>2026-05-02T09:07:25.937Z</time></trkpt><trkpt lat="42.2274394" lon="13.8355101"><ele>773.0</ele><time>2026-05-02T09:07:26.937Z</time></trkpt><trkpt lat="42.227318" lon="13.8354444"><ele>772.0</ele><time>2026-05-02T09:07:27.938Z</time></trkpt><trkpt lat="42.2272064" lon="13.8353877"><ele>771.0</ele><time>2026-05-02T09:07:28.936Z</time></trkpt><trkpt lat="42.2271068" lon="13.8353411"><ele>770.0</ele><time>2026-05-02T09:07:29.937Z</time></trkpt><trkpt lat="42.227032" lon="13.8353409"><ele>769.0</ele><time>2026-05-02T09:07:30.937Z</time></trkpt><trkpt lat="42.2269572" lon="13.835336"><ele>768.0</ele><time>2026-05-02T09:07:31.938Z</time></trkpt><trkpt lat="42.2268793" lon="13.8353442"><ele>768.0</ele><time>2026-05-02T09:07:32.937Z</time></trkpt><trkpt lat="42.2267885" lon="13.8353741"><ele>768.0</ele><time>2026-05-02T09:07:33.937Z</time></trkpt><trkpt lat="42.2266899" lon="13.8353955"><ele>768.0</ele><time>2026-05-02T09:07:34.938Z</time></trkpt><trkpt lat="42.226586" lon="13.8354221"><ele>768.0</ele><time>2026-05-02T09:07:35.937Z</time></trkpt><trkpt lat="42.2264974" lon="13.8354494"><ele>768.0</ele><time>2026-05-02T09:07:36.937Z</time></trkpt><trkpt lat="42.2264063" lon="13.8354722"><ele>764.4</ele><time>2026-05-02T09:07:37.937Z</time></trkpt><trkpt lat="42.2263183" lon="13.8355021"><ele>760.8</ele><time>2026-05-02T09:07:38.936Z</time></trkpt><trkpt lat="42.2262247" lon="13.8355329"><ele>757.2</ele><time>2026-05-02T09:07:39.939Z</time></trkpt><trkpt lat="42.2261342" lon="13.8355643"><ele>753.6</ele><time>2026-05-02T09:07:40.937Z</time></trkpt><trkpt lat="42.2260409" lon="13.8356056"><ele>750.0</ele><time>2026-05-02T09:07:41.937Z</time></trkpt><trkpt lat="42.2259477" lon="13.8356496"><ele>750.0</ele><time>2026-05-02T09:07:42.938Z</time></trkpt><trkpt lat="42.2258511" lon="13.835701"><ele>750.0</ele><time>2026-05-02T09:07:43.937Z</time></trkpt><trkpt lat="42.2257526" lon="13.8357605"><ele>750.0</ele><time>2026-05-02T09:07:44.937Z</time></trkpt><trkpt lat="42.2256484" lon="13.83582"><ele>750.0</ele><time>2026-05-02T09:07:45.937Z</time></trkpt><trkpt lat="42.2255471" lon="13.8358773"><ele>750.0</ele><time>2026-05-02T09:07:46.937Z</time></trkpt><trkpt lat="42.2254499" lon="13.8359362"><ele>748.0</ele><time>2026-05-02T09:07:47.938Z</time></trkpt><trkpt lat="42.2253464" lon="13.8360398"><ele>746.0</ele><time>2026-05-02T09:07:48.938Z</time></trkpt><trkpt lat="42.2252442" lon="13.836128"><ele>744.0</ele><time>2026-05-02T09:07:49.937Z</time></trkpt><trkpt lat="42.2251426" lon="13.8362209"><ele>742.0</ele><time>2026-05-02T09:07:50.937Z</time></trkpt><trkpt lat="42.2250387" lon="13.8363176"><ele>742.0</ele><time>2026-05-02T09:07:51.937Z</time></trkpt><trkpt lat="42.2249367" lon="13.8364008"><ele>742.0</ele><time>2026-05-02T09:07:52.936Z</time></trkpt><trkpt lat="42.2248333" lon="13.8364848"><ele>742.0</ele><time>2026-05-02T09:07:53.938Z</time></trkpt><trkpt lat="42.2247403" lon="13.8365703"><ele>742.0</ele><time>2026-05-02T09:07:54.937Z</time></trkpt><trkpt lat="42.2246531" lon="13.8366675"><ele>737.5</ele><time>2026-05-02T09:07:55.937Z</time></trkpt><trkpt lat="42.2245753" lon="13.8367812"><ele>733.0</ele><time>2026-05-02T09:07:56.937Z</time></trkpt><trkpt lat="42.2245089" lon="13.836905"><ele>728.5</ele><time>2026-05-02T09:07:57.937Z</time></trkpt><trkpt lat="42.2244509" lon="13.8370303"><ele>724.0</ele><time>2026-05-02T09:07:58.939Z</time></trkpt><trkpt lat="42.2243819" lon="13.837156"><ele>724.0</ele><time>2026-05-02T09:07:59.937Z</time></trkpt><trkpt lat="42.2243054" lon="13.8372837"><ele>724.0</ele><time>2026-05-02T09:08:00.936Z</time></trkpt><trkpt lat="42.2242297" lon="13.8374121"><ele>724.0</ele><time>2026-05-02T09:08:01.938Z</time></trkpt><trkpt lat="42.224158" lon="13.8375479"><ele>724.0</ele><time>2026-05-02T09:08:02.938Z</time></trkpt><trkpt lat="42.2240942" lon="13.8376835"><ele>726.6</ele><time>2026-05-02T09:08:03.937Z</time></trkpt><trkpt lat="42.2240338" lon="13.8378289"><ele>729.2</ele><time>2026-05-02T09:08:04.937Z</time></trkpt><trkpt lat="42.2239744" lon="13.8379628"><ele>731.8000000000001</ele><time>2026-05-02T09:08:05.937Z</time></trkpt><trkpt lat="42.2239049" lon="13.8380672"><ele>734.4000000000001</ele><time>2026-05-02T09:08:06.937Z</time></trkpt><trkpt lat="42.2238295" lon="13.8381628"><ele>737.0</ele><time>2026-05-02T09:08:07.939Z</time></trkpt><trkpt lat="42.2237575" lon="13.8382426"><ele>736.0</ele><time>2026-05-02T09:08:08.937Z</time></trkpt><trkpt lat="42.2236751" lon="13.8383187"><ele>735.0</ele><time>2026-05-02T09:08:09.938Z</time></trkpt><trkpt lat="42.2235896" lon="13.8383911"><ele>734.0</ele><time>2026-05-02T09:08:10.937Z</time></trkpt><trkpt lat="42.2234986" lon="13.8384558"><ele>733.0</ele><time>2026-05-02T09:08:11.936Z</time></trkpt><trkpt lat="42.2234005" lon="13.8385159"><ele>732.0</ele><time>2026-05-02T09:08:12.937Z</time></trkpt><trkpt lat="42.2232915" lon="13.8385708"><ele>732.0</ele><time>2026-05-02T09:08:13.938Z</time></trkpt><trkpt lat="42.2231745" lon="13.8386209"><ele>732.0</ele><time>2026-05-02T09:08:14.938Z</time></trkpt><trkpt lat="42.2230503" lon="13.8386696"><ele>732.0</ele><time>2026-05-02T09:08:15.937Z</time></trkpt><trkpt lat="42.2229332" lon="13.8387157"><ele>732.0</ele><time>2026-05-02T09:08:16.938Z</time></trkpt><trkpt lat="42.2228108" lon="13.8387656"><ele>726.5</ele><time>2026-05-02T09:08:17.938Z</time></trkpt><trkpt lat="42.2226893" lon="13.8388122"><ele>721.0</ele><time>2026-05-02T09:08:18.938Z</time></trkpt><trkpt lat="42.2225809" lon="13.8388624"><ele>715.5</ele><time>2026-05-02T09:08:19.938Z</time></trkpt><trkpt lat="42.2224759" lon="13.8389173"><ele>710.0</ele><time>2026-05-02T09:08:20.937Z</time></trkpt><trkpt lat="42.2223829" lon="13.838973"><ele>705.0</ele><time>2026-05-02T09:08:21.937Z</time></trkpt><trkpt lat="42.2222985" lon="13.8390443"><ele>700.0</ele><time>2026-05-02T09:08:22.938Z</time></trkpt><trkpt lat="42.2222302" lon="13.8391163"><ele>695.0</ele><time>2026-05-02T09:08:23.937Z</time></trkpt><trkpt lat="42.22218" lon="13.8391787"><ele>690.0</ele><time>2026-05-02T09:08:24.937Z</time></trkpt><trkpt lat="42.2220887" lon="13.8392822"><ele>685.0</ele><time>2026-05-02T09:08:26.937Z</time></trkpt><trkpt lat="42.2219927" lon="13.8392884"><ele>685.0</ele><time>2026-05-02T09:08:28.937Z</time></trkpt><trkpt lat="42.2219709" lon="13.8391431"><ele>685.0</ele><time>2026-05-02T09:08:30.937Z</time></trkpt><trkpt lat="42.2219929" lon="13.8390536"><ele>685.0</ele><time>2026-05-02T09:08:31.938Z</time></trkpt><trkpt lat="42.2220391" lon="13.8389437"><ele>685.0</ele><time>2026-05-02T09:08:32.938Z</time></trkpt><trkpt lat="42.2220869" lon="13.8388231"><ele>685.0</ele><time>2026-05-02T09:08:33.937Z</time></trkpt><trkpt lat="42.2221446" lon="13.8386915"><ele>685.0</ele><time>2026-05-02T09:08:34.936Z</time></trkpt><trkpt lat="42.2222023" lon="13.8385473"><ele>685.0</ele><time>2026-05-02T09:08:35.939Z</time></trkpt><trkpt lat="42.2222719" lon="13.8384108"><ele>685.0</ele><time>2026-05-02T09:08:36.938Z</time></trkpt><trkpt lat="42.2223398" lon="13.8382905"><ele>685.0</ele><time>2026-05-02T09:08:37.937Z</time></trkpt><trkpt lat="42.2224138" lon="13.8381741"><ele>687.25</ele><time>2026-05-02T09:08:38.937Z</time></trkpt><trkpt lat="42.2225037" lon="13.8380557"><ele>689.5</ele><time>2026-05-02T09:08:39.937Z</time></trkpt><trkpt lat="42.2225887" lon="13.8379497"><ele>691.75</ele><time>2026-05-02T09:08:40.937Z</time></trkpt><trkpt lat="42.2226725" lon="13.8378431"><ele>694.0</ele><time>2026-05-02T09:08:41.936Z</time></trkpt><trkpt lat="42.2227492" lon="13.8377367"><ele>689.2</ele><time>2026-05-02T09:08:42.937Z</time></trkpt><trkpt lat="42.22282" lon="13.8376302"><ele>684.4000000000001</ele><time>2026-05-02T09:08:43.938Z</time></trkpt><trkpt lat="42.2228793" lon="13.8375307"><ele>679.6</ele><time>2026-05-02T09:08:44.936Z</time></trkpt><trkpt lat="42.2229275" lon="13.8374191"><ele>674.8</ele><time>2026-05-02T09:08:45.938Z</time></trkpt><trkpt lat="42.2229671" lon="13.8372961"><ele>670.0</ele><time>2026-05-02T09:08:46.937Z</time></trkpt><trkpt lat="42.2229902" lon="13.8371644"><ele>670.0</ele><time>2026-05-02T09:08:47.939Z</time></trkpt><trkpt lat="42.2230235" lon="13.8370145"><ele>670.0</ele><time>2026-05-02T09:08:48.937Z</time></trkpt><trkpt lat="42.2230458" lon="13.8368597"><ele>670.0</ele><time>2026-05-02T09:08:49.939Z</time></trkpt><trkpt lat="42.2230639" lon="13.8366981"><ele>670.0</ele><time>2026-05-02T09:08:50.936Z</time></trkpt><trkpt lat="42.2230696" lon="13.8365362"><ele>667.6</ele><time>2026-05-02T09:08:51.937Z</time></trkpt><trkpt lat="42.2230726" lon="13.8363961"><ele>665.2</ele><time>2026-05-02T09:08:52.938Z</time></trkpt><trkpt lat="42.2230732" lon="13.8362761"><ele>662.8</ele><time>2026-05-02T09:08:53.938Z</time></trkpt><trkpt lat="42.2230769" lon="13.8361702"><ele>660.4</ele><time>2026-05-02T09:08:54.937Z</time></trkpt><trkpt lat="42.2230616" lon="13.8360202"><ele>658.0</ele><time>2026-05-02T09:08:56.937Z</time></trkpt><trkpt lat="42.2229745" lon="13.8359878"><ele>658.0</ele><time>2026-05-02T09:08:58.937Z</time></trkpt><trkpt lat="42.222875" lon="13.8361242"><ele>658.0</ele><time>2026-05-02T09:09:00.938Z</time></trkpt><trkpt lat="42.2228215" lon="13.8362447"><ele>658.0</ele><time>2026-05-02T09:09:01.938Z</time></trkpt><trkpt lat="42.2227693" lon="13.8363604"><ele>658.0</ele><time>2026-05-02T09:09:02.937Z</time></trkpt><trkpt lat="42.2227154" lon="13.8364709"><ele>658.0</ele><time>2026-05-02T09:09:03.938Z</time></trkpt><trkpt lat="42.2226655" lon="13.8365744"><ele>658.0</ele><time>2026-05-02T09:09:04.938Z</time></trkpt><trkpt lat="42.2226029" lon="13.8366623"><ele>658.0</ele><time>2026-05-02T09:09:05.939Z</time></trkpt><trkpt lat="42.2225327" lon="13.8367341"><ele>658.0</ele><time>2026-05-02T09:09:06.938Z</time></trkpt><trkpt lat="42.2224577" lon="13.8367963"><ele>658.0</ele><time>2026-05-02T09:09:07.937Z</time></trkpt><trkpt lat="42.2223686" lon="13.8368593"><ele>658.0</ele><time>2026-05-02T09:09:08.938Z</time></trkpt><trkpt lat="42.2222696" lon="13.8369249"><ele>657.75</ele><time>2026-05-02T09:09:09.939Z</time></trkpt><trkpt lat="42.2221606" lon="13.8369964"><ele>657.5</ele><time>2026-05-02T09:09:10.938Z</time></trkpt><trkpt lat="42.2220462" lon="13.8370669"><ele>657.25</ele><time>2026-05-02T09:09:11.938Z</time></trkpt><trkpt lat="42.2219318" lon="13.837131"><ele>657.0</ele><time>2026-05-02T09:09:12.937Z</time></trkpt><trkpt lat="42.221816" lon="13.8371963"><ele>657.0</ele><time>2026-05-02T09:09:13.936Z</time></trkpt><trkpt lat="42.2217056" lon="13.8372615"><ele>657.0</ele><time>2026-05-02T09:09:14.939Z</time></trkpt><trkpt lat="42.2215945" lon="13.8373292"><ele>657.0</ele><time>2026-05-02T09:09:15.938Z</time></trkpt><trkpt lat="42.2214919" lon="13.8373887"><ele>657.0</ele><time>2026-05-02T09:09:16.937Z</time></trkpt><trkpt lat="42.2213946" lon="13.8374411"><ele>652.3333333333334</ele><time>2026-05-02T09:09:17.937Z</time></trkpt><trkpt lat="42.221313" lon="13.8374885"><ele>647.6666666666666</ele><time>2026-05-02T09:09:18.938Z</time></trkpt><trkpt lat="42.2212332" lon="13.8374758"><ele>643.0</ele><time>2026-05-02T09:09:20.937Z</time></trkpt><trkpt lat="42.2212352" lon="13.8373681"><ele>638.3333333333333</ele><time>2026-05-02T09:09:22.937Z</time></trkpt><trkpt lat="42.2212904" lon="13.8372984"><ele>633.6666666666666</ele><time>2026-05-02T09:09:23.937Z</time></trkpt><trkpt lat="42.2213704" lon="13.8372152"><ele>629.0</ele><time>2026-05-02T09:09:24.938Z</time></trkpt><trkpt lat="42.2214573" lon="13.8371122"><ele>632.0</ele><time>2026-05-02T09:09:25.937Z</time></trkpt><trkpt lat="42.2215548" lon="13.8369907"><ele>635.0</ele><time>2026-05-02T09:09:26.937Z</time></trkpt><trkpt lat="42.2216526" lon="13.8368639"><ele>638.0</ele><time>2026-05-02T09:09:27.938Z</time></trkpt><trkpt lat="42.2217438" lon="13.836737"><ele>641.0</ele><time>2026-05-02T09:09:28.937Z</time></trkpt><trkpt lat="42.2218258" lon="13.8366068"><ele>641.0</ele><time>2026-05-02T09:09:29.936Z</time></trkpt><trkpt lat="42.2218949" lon="13.8364766"><ele>641.0</ele><time>2026-05-02T09:09:30.938Z</time></trkpt><trkpt lat="42.2219586" lon="13.8363487"><ele>641.0</ele><time>2026-05-02T09:09:31.937Z</time></trkpt><trkpt lat="42.2220148" lon="13.836238"><ele>641.0</ele><time>2026-05-02T09:09:32.938Z</time></trkpt><trkpt lat="42.2220653" lon="13.8361459"><ele>641.0</ele><time>2026-05-02T09:09:33.939Z</time></trkpt><trkpt lat="42.2221024" lon="13.8360767"><ele>641.0</ele><time>2026-05-02T09:09:34.937Z</time></trkpt><trkpt lat="42.2220968" lon="13.8359569"><ele>641.0</ele><time>2026-05-02T09:09:36.938Z</time></trkpt><trkpt lat="42.2219917" lon="13.8359752"><ele>641.0</ele><time>2026-05-02T09:09:38.938Z</time></trkpt><trkpt lat="42.2219202" lon="13.8360587"><ele>641.0</ele><time>2026-05-02T09:09:39.936Z</time></trkpt><trkpt lat="42.2218394" lon="13.8361558"><ele>641.0</ele><time>2026-05-02T09:09:40.937Z</time></trkpt><trkpt lat="42.2217465" lon="13.8362607"><ele>641.0</ele><time>2026-05-02T09:09:41.938Z</time></trkpt><trkpt lat="42.2216415" lon="13.8363647"><ele>641.0</ele><time>2026-05-02T09:09:42.937Z</time></trkpt><trkpt lat="42.221532" lon="13.8364671"><ele>641.0</ele><time>2026-05-02T09:09:43.937Z</time></trkpt><trkpt lat="42.2214253" lon="13.8365532"><ele>641.0</ele><time>2026-05-02T09:09:44.937Z</time></trkpt><trkpt lat="42.2213128" lon="13.8366448"><ele>638.0</ele><time>2026-05-02T09:09:45.939Z</time></trkpt><trkpt lat="42.2212042" lon="13.8367227"><ele>635.0</ele><time>2026-05-02T09:09:46.938Z</time></trkpt><trkpt lat="42.2210951" lon="13.8368039"><ele>632.0</ele><time>2026-05-02T09:09:47.938Z</time></trkpt><trkpt lat="42.2209977" lon="13.8368834"><ele>629.0</ele><time>2026-05-02T09:09:48.937Z</time></trkpt><trkpt lat="42.2209145" lon="13.8369776"><ele>629.0</ele><time>2026-05-02T09:09:49.937Z</time></trkpt><trkpt lat="42.2208283" lon="13.8370928"><ele>629.0</ele><time>2026-05-02T09:09:50.937Z</time></trkpt><trkpt lat="42.2207454" lon="13.8372161"><ele>629.0</ele><time>2026-05-02T09:09:51.938Z</time></trkpt><trkpt lat="42.2206706" lon="13.8373372"><ele>629.0</ele><time>2026-05-02T09:09:52.938Z</time></trkpt><trkpt lat="42.2205881" lon="13.8374654"><ele>618.25</ele><time>2026-05-02T09:09:53.938Z</time></trkpt><trkpt lat="42.2205213" lon="13.8376015"><ele>607.5</ele><time>2026-05-02T09:09:54.937Z</time></trkpt><trkpt lat="42.2204685" lon="13.837745"><ele>596.75</ele><time>2026-05-02T09:09:55.938Z</time></trkpt><trkpt lat="42.2204238" lon="13.8378944"><ele>586.0</ele><time>2026-05-02T09:09:56.937Z</time></trkpt><trkpt lat="42.2203778" lon="13.8380455"><ele>586.0</ele><time>2026-05-02T09:09:57.938Z</time></trkpt><trkpt lat="42.2203373" lon="13.8381897"><ele>586.0</ele><time>2026-05-02T09:09:58.936Z</time></trkpt><trkpt lat="42.2203012" lon="13.8383236"><ele>586.0</ele><time>2026-05-02T09:09:59.938Z</time></trkpt><trkpt lat="42.2202738" lon="13.8384556"><ele>586.0</ele><time>2026-05-02T09:10:00.936Z</time></trkpt><trkpt lat="42.2202891" lon="13.8385821"><ele>586.0</ele><time>2026-05-02T09:10:01.938Z</time></trkpt><trkpt lat="42.2203057" lon="13.838702"><ele>588.6</ele><time>2026-05-02T09:10:02.938Z</time></trkpt><trkpt lat="42.2203032" lon="13.8388118"><ele>591.2</ele><time>2026-05-02T09:10:03.939Z</time></trkpt><trkpt lat="42.2202725" lon="13.838903"><ele>593.8</ele><time>2026-05-02T09:10:04.937Z</time></trkpt><trkpt lat="42.2202195" lon="13.8390042"><ele>596.4</ele><time>2026-05-02T09:10:05.939Z</time></trkpt><trkpt lat="42.2201639" lon="13.8391149"><ele>599.0</ele><time>2026-05-02T09:10:06.937Z</time></trkpt><trkpt lat="42.2201004" lon="13.8392311"><ele>604.75</ele><time>2026-05-02T09:10:07.939Z</time></trkpt><trkpt lat="42.2200402" lon="13.8393422"><ele>610.5</ele><time>2026-05-02T09:10:08.938Z</time></trkpt><trkpt lat="42.2199686" lon="13.8394566"><ele>616.25</ele><time>2026-05-02T09:10:09.937Z</time></trkpt><trkpt lat="42.219885" lon="13.8395742"><ele>622.0</ele><time>2026-05-02T09:10:10.937Z</time></trkpt><trkpt lat="42.2197943" lon="13.8397002"><ele>617.0</ele><time>2026-05-02T09:10:11.938Z</time></trkpt><trkpt lat="42.2196971" lon="13.8398235"><ele>612.0</ele><time>2026-05-02T09:10:12.939Z</time></trkpt><trkpt lat="42.219602" lon="13.8399471"><ele>607.0</ele><time>2026-05-02T09:10:13.937Z</time></trkpt><trkpt lat="42.2195084" lon="13.8400715"><ele>602.0</ele><time>2026-05-02T09:10:14.937Z</time></trkpt><trkpt lat="42.2194183" lon="13.8401937"><ele>602.0</ele><time>2026-05-02T09:10:15.938Z</time></trkpt><trkpt lat="42.2193363" lon="13.8403129"><ele>602.0</ele><time>2026-05-02T09:10:16.938Z</time></trkpt><trkpt lat="42.2192605" lon="13.840423"><ele>602.0</ele><time>2026-05-02T09:10:17.938Z</time></trkpt><trkpt lat="42.2192139" lon="13.8405162"><ele>602.0</ele><time>2026-05-02T09:10:18.936Z</time></trkpt><trkpt lat="42.2191592" lon="13.8405877"><ele>602.0</ele><time>2026-05-02T09:10:19.938Z</time></trkpt><trkpt lat="42.2190733" lon="13.8406247"><ele>602.0</ele><time>2026-05-02T09:10:21.937Z</time></trkpt><trkpt lat="42.2190429" lon="13.8405176"><ele>602.0</ele><time>2026-05-02T09:10:23.939Z</time></trkpt><trkpt lat="42.2190908" lon="13.8404245"><ele>602.0</ele><time>2026-05-02T09:10:24.937Z</time></trkpt><trkpt lat="42.2191494" lon="13.8403171"><ele>602.0</ele><time>2026-05-02T09:10:25.937Z</time></trkpt><trkpt lat="42.219209" lon="13.8402039"><ele>602.0</ele><time>2026-05-02T09:10:26.938Z</time></trkpt><trkpt lat="42.2192612" lon="13.8400731"><ele>594.75</ele><time>2026-05-02T09:10:27.937Z</time></trkpt><trkpt lat="42.2193191" lon="13.8399192"><ele>587.5</ele><time>2026-05-02T09:10:28.938Z</time></trkpt><trkpt lat="42.2193804" lon="13.8397691"><ele>580.25</ele><time>2026-05-02T09:10:29.937Z</time></trkpt><trkpt lat="42.2194409" lon="13.8396037"><ele>573.0</ele><time>2026-05-02T09:10:30.938Z</time></trkpt><trkpt lat="42.2195025" lon="13.8394476"><ele>569.0</ele><time>2026-05-02T09:10:31.936Z</time></trkpt><trkpt lat="42.2195602" lon="13.8392913"><ele>565.0</ele><time>2026-05-02T09:10:32.936Z</time></trkpt><trkpt lat="42.2196182" lon="13.8391544"><ele>561.0</ele><time>2026-05-02T09:10:33.938Z</time></trkpt><trkpt lat="42.2196755" lon="13.8390221"><ele>557.0</ele><time>2026-05-02T09:10:34.938Z</time></trkpt><trkpt lat="42.2197174" lon="13.8389237"><ele>553.0</ele><time>2026-05-02T09:10:35.937Z</time></trkpt><trkpt lat="42.2197515" lon="13.8388209"><ele>553.0</ele><time>2026-05-02T09:10:36.937Z</time></trkpt><trkpt lat="42.219773" lon="13.8387259"><ele>553.0</ele><time>2026-05-02T09:10:37.937Z</time></trkpt><trkpt lat="42.2197756" lon="13.8386269"><ele>553.0</ele><time>2026-05-02T09:10:38.938Z</time></trkpt><trkpt lat="42.2197382" lon="13.838487"><ele>553.0</ele><time>2026-05-02T09:10:39.938Z</time></trkpt><trkpt lat="42.2197216" lon="13.838361"><ele>553.0</ele><time>2026-05-02T09:10:40.938Z</time></trkpt><trkpt lat="42.2197094" lon="13.8382047"><ele>548.25</ele><time>2026-05-02T09:10:41.939Z</time></trkpt><trkpt lat="42.2197021" lon="13.8380282"><ele>543.5</ele><time>2026-05-02T09:10:42.936Z</time></trkpt><trkpt lat="42.2197038" lon="13.8378646"><ele>538.75</ele><time>2026-05-02T09:10:43.939Z</time></trkpt><trkpt lat="42.2196957" lon="13.8376981"><ele>534.0</ele><time>2026-05-02T09:10:44.938Z</time></trkpt><trkpt lat="42.2196992" lon="13.8375458"><ele>532.2</ele><time>2026-05-02T09:10:45.937Z</time></trkpt><trkpt lat="42.219703" lon="13.8373894"><ele>530.4</ele><time>2026-05-02T09:10:46.938Z</time></trkpt><trkpt lat="42.2197169" lon="13.8372466"><ele>528.6</ele><time>2026-05-02T09:10:47.936Z</time></trkpt><trkpt lat="42.2197417" lon="13.8370986"><ele>526.8</ele><time>2026-05-02T09:10:48.938Z</time></trkpt><trkpt lat="42.2197681" lon="13.8369559"><ele>525.0</ele><time>2026-05-02T09:10:49.937Z</time></trkpt><trkpt lat="42.2197922" lon="13.8368091"><ele>534.0</ele><time>2026-05-02T09:10:50.938Z</time></trkpt><trkpt lat="42.2198256" lon="13.8366599"><ele>543.0</ele><time>2026-05-02T09:10:51.937Z</time></trkpt><trkpt lat="42.2198726" lon="13.8365058"><ele>552.0</ele><time>2026-05-02T09:10:52.937Z</time></trkpt><trkpt lat="42.2199217" lon="13.8363551"><ele>561.0</ele><time>2026-05-02T09:10:53.937Z</time></trkpt><trkpt lat="42.2199753" lon="13.8362287"><ele>561.0</ele><time>2026-05-02T09:10:54.937Z</time></trkpt><trkpt lat="42.2200279" lon="13.8361159"><ele>561.0</ele><time>2026-05-02T09:10:55.937Z</time></trkpt><trkpt lat="42.2200852" lon="13.8360259"><ele>561.0</ele><time>2026-05-02T09:10:56.938Z</time></trkpt><trkpt lat="42.2201356" lon="13.8359537"><ele>561.0</ele><time>2026-05-02T09:10:57.938Z</time></trkpt><trkpt lat="42.2201742" lon="13.8358288"><ele>561.0</ele><time>2026-05-02T09:10:59.937Z</time></trkpt><trkpt lat="42.220103" lon="13.835802"><ele>561.0</ele><time>2026-05-02T09:11:01.939Z</time></trkpt><trkpt lat="42.2200416" lon="13.8358485"><ele>561.0</ele><time>2026-05-02T09:11:02.937Z</time></trkpt><trkpt lat="42.2199674" lon="13.8359224"><ele>561.0</ele><time>2026-05-02T09:11:03.938Z</time></trkpt><trkpt lat="42.2198808" lon="13.8360238"><ele>561.0</ele><time>2026-05-02T09:11:04.938Z</time></trkpt><trkpt lat="42.2197922" lon="13.8361508"><ele>561.0</ele><time>2026-05-02T09:11:05.937Z</time></trkpt><trkpt lat="42.2197085" lon="13.8362931"><ele>552.0</ele><time>2026-05-02T09:11:06.936Z</time></trkpt><trkpt lat="42.219622" lon="13.8364391"><ele>543.0</ele><time>2026-05-02T09:11:07.937Z</time></trkpt><trkpt lat="42.2195358" lon="13.8365988"><ele>534.0</ele><time>2026-05-02T09:11:08.937Z</time></trkpt><trkpt lat="42.219446" lon="13.8367719"><ele>525.0</ele><time>2026-05-02T09:11:09.938Z</time></trkpt><trkpt lat="42.219362" lon="13.8369484"><ele>525.0</ele><time>2026-05-02T09:11:10.939Z</time></trkpt><trkpt lat="42.2192822" lon="13.8371241"><ele>525.0</ele><time>2026-05-02T09:11:11.938Z</time></trkpt><trkpt lat="42.2192065" lon="13.837296"><ele>525.0</ele><time>2026-05-02T09:11:12.937Z</time></trkpt><trkpt lat="42.2191452" lon="13.8374701"><ele>525.0</ele><time>2026-05-02T09:11:13.936Z</time></trkpt><trkpt lat="42.2190994" lon="13.8376466"><ele>527.25</ele><time>2026-05-02T09:11:14.938Z</time></trkpt><trkpt lat="42.2190628" lon="13.8378193"><ele>529.5</ele><time>2026-05-02T09:11:15.937Z</time></trkpt><trkpt lat="42.2190378" lon="13.837984"><ele>531.75</ele><time>2026-05-02T09:11:16.937Z</time></trkpt><trkpt lat="42.2190204" lon="13.8381417"><ele>534.0</ele><time>2026-05-02T09:11:17.936Z</time></trkpt><trkpt lat="42.2189957" lon="13.8382827"><ele>529.1666666666666</ele><time>2026-05-02T09:11:18.937Z</time></trkpt><trkpt lat="42.2189614" lon="13.8383913"><ele>524.3333333333334</ele><time>2026-05-02T09:11:19.938Z</time></trkpt><trkpt lat="42.2189126" lon="13.8384787"><ele>519.5</ele><time>2026-05-02T09:11:20.938Z</time></trkpt><trkpt lat="42.2188491" lon="13.8385531"><ele>514.6666666666667</ele><time>2026-05-02T09:11:21.937Z</time></trkpt><trkpt lat="42.2187734" lon="13.8386307"><ele>509.83333333333337</ele><time>2026-05-02T09:11:22.937Z</time></trkpt><trkpt lat="42.2186922" lon="13.8387102"><ele>505.0</ele><time>2026-05-02T09:11:23.937Z</time></trkpt><trkpt lat="42.2185904" lon="13.8388296"><ele>505.0</ele><time>2026-05-02T09:11:24.938Z</time></trkpt><trkpt lat="42.2184914" lon="13.8389454"><ele>505.0</ele><time>2026-05-02T09:11:25.937Z</time></trkpt><trkpt lat="42.2183955" lon="13.839071"><ele>505.0</ele><time>2026-05-02T09:11:26.939Z</time></trkpt><trkpt lat="42.2182958" lon="13.8391991"><ele>505.0</ele><time>2026-05-02T09:11:27.936Z</time></trkpt><trkpt lat="42.2181977" lon="13.8393225"><ele>501.5</ele><time>2026-05-02T09:11:28.938Z</time></trkpt><trkpt lat="42.2180944" lon="13.8394521"><ele>498.0</ele><time>2026-05-02T09:11:29.938Z</time></trkpt><trkpt lat="42.2179898" lon="13.8395802"><ele>494.5</ele><time>2026-05-02T09:11:30.936Z</time></trkpt><trkpt lat="42.2178904" lon="13.8397082"><ele>491.0</ele><time>2026-05-02T09:11:31.937Z</time></trkpt><trkpt lat="42.2177818" lon="13.8398294"><ele>491.0</ele><time>2026-05-02T09:11:32.937Z</time></trkpt><trkpt lat="42.2176629" lon="13.8399514"><ele>491.0</ele><time>2026-05-02T09:11:33.938Z</time></trkpt><trkpt lat="42.2175391" lon="13.8400741"><ele>491.0</ele><time>2026-05-02T09:11:34.938Z</time></trkpt><trkpt lat="42.2174145" lon="13.8401922"><ele>488.25</ele><time>2026-05-02T09:11:35.937Z</time></trkpt><trkpt lat="42.2172921" lon="13.8403048"><ele>485.5</ele><time>2026-05-02T09:11:36.937Z</time></trkpt><trkpt lat="42.2171752" lon="13.8404122"><ele>482.75</ele><time>2026-05-02T09:11:37.937Z</time></trkpt><trkpt lat="42.2170608" lon="13.8405086"><ele>480.0</ele><time>2026-05-02T09:11:38.937Z</time></trkpt><trkpt lat="42.2169443" lon="13.8405883"><ele>480.0</ele><time>2026-05-02T09:11:39.936Z</time></trkpt><trkpt lat="42.2168276" lon="13.8406672"><ele>480.0</ele><time>2026-05-02T09:11:40.937Z</time></trkpt><trkpt lat="42.2167292" lon="13.8407316"><ele>480.0</ele><time>2026-05-02T09:11:41.937Z</time></trkpt><trkpt lat="42.2166414" lon="13.840791"><ele>480.0</ele><time>2026-05-02T09:11:42.938Z</time></trkpt><trkpt lat="42.216552" lon="13.8408477"><ele>480.0</ele><time>2026-05-02T09:11:43.938Z</time></trkpt><trkpt lat="42.216455" lon="13.8409018"><ele>477.5</ele><time>2026-05-02T09:11:44.937Z</time></trkpt><trkpt lat="42.2163469" lon="13.8409602"><ele>475.0</ele><time>2026-05-02T09:11:45.938Z</time></trkpt><trkpt lat="42.2162411" lon="13.8410245"><ele>472.5</ele><time>2026-05-02T09:11:46.937Z</time></trkpt><trkpt lat="42.2161305" lon="13.8410893"><ele>470.0</ele><time>2026-05-02T09:11:47.937Z</time></trkpt><trkpt lat="42.2160191" lon="13.8411515"><ele>470.0</ele><time>2026-05-02T09:11:48.937Z</time></trkpt><trkpt lat="42.2159093" lon="13.8412019"><ele>470.0</ele><time>2026-05-02T09:11:49.937Z</time></trkpt><trkpt lat="42.2158039" lon="13.8412378"><ele>470.0</ele><time>2026-05-02T09:11:50.937Z</time></trkpt><trkpt lat="42.2156995" lon="13.8412566"><ele>470.0</ele><time>2026-05-02T09:11:51.938Z</time></trkpt><trkpt lat="42.2156108" lon="13.8412692"><ele>470.0</ele><time>2026-05-02T09:11:52.938Z</time></trkpt><trkpt lat="42.2155356" lon="13.8412562"><ele>465.6</ele><time>2026-05-02T09:11:53.936Z</time></trkpt><trkpt lat="42.2154662" lon="13.8412053"><ele>461.2</ele><time>2026-05-02T09:11:54.938Z</time></trkpt><trkpt lat="42.215407" lon="13.8411266"><ele>456.79999999999995</ele><time>2026-05-02T09:11:55.938Z</time></trkpt><trkpt lat="42.2153497" lon="13.8410145"><ele>452.4</ele><time>2026-05-02T09:11:56.937Z</time></trkpt><trkpt lat="42.2152964" lon="13.8408769"><ele>448.0</ele><time>2026-05-02T09:11:57.937Z</time></trkpt><trkpt lat="42.2152452" lon="13.8407361"><ele>446.83333333333337</ele><time>2026-05-02T09:11:58.939Z</time></trkpt><trkpt lat="42.2151926" lon="13.8406158"><ele>445.6666666666667</ele><time>2026-05-02T09:11:59.937Z</time></trkpt><trkpt lat="42.2151644" lon="13.8405111"><ele>444.5</ele><time>2026-05-02T09:12:00.937Z</time></trkpt><trkpt lat="42.2151487" lon="13.8404032"><ele>443.33333333333337</ele><time>2026-05-02T09:12:01.938Z</time></trkpt><trkpt lat="42.2151887" lon="13.8403168"><ele>442.1666666666667</ele><time>2026-05-02T09:12:02.938Z</time></trkpt><trkpt lat="42.2152468" lon="13.8402296"><ele>441.0</ele><time>2026-05-02T09:12:03.938Z</time></trkpt><trkpt lat="42.215328" lon="13.840149"><ele>440.5</ele><time>2026-05-02T09:12:04.937Z</time></trkpt><trkpt lat="42.2154291" lon="13.8400609"><ele>440.0</ele><time>2026-05-02T09:12:05.937Z</time></trkpt><trkpt lat="42.2155312" lon="13.8399693"><ele>439.5</ele><time>2026-05-02T09:12:06.937Z</time></trkpt><trkpt lat="42.2156277" lon="13.8398805"><ele>439.0</ele><time>2026-05-02T09:12:07.936Z</time></trkpt><trkpt lat="42.2157141" lon="13.8397917"><ele>437.75</ele><time>2026-05-02T09:12:08.938Z</time></trkpt><trkpt lat="42.2157966" lon="13.8397006"><ele>436.5</ele><time>2026-05-02T09:12:09.937Z</time></trkpt><trkpt lat="42.2158595" lon="13.839578"><ele>435.25</ele><time>2026-05-02T09:12:10.938Z</time></trkpt><trkpt lat="42.2159232" lon="13.8394402"><ele>434.0</ele><time>2026-05-02T09:12:11.936Z</time></trkpt><trkpt lat="42.2159858" lon="13.8392921"><ele>434.0</ele><time>2026-05-02T09:12:12.937Z</time></trkpt><trkpt lat="42.2160512" lon="13.8391363"><ele>434.0</ele><time>2026-05-02T09:12:13.937Z</time></trkpt><trkpt lat="42.2161065" lon="13.8389803"><ele>434.0</ele><time>2026-05-02T09:12:14.938Z</time></trkpt><trkpt lat="42.2161622" lon="13.8388242"><ele>434.0</ele><time>2026-05-02T09:12:15.938Z</time></trkpt><trkpt lat="42.216215" lon="13.8386612"><ele>434.0</ele><time>2026-05-02T09:12:16.937Z</time></trkpt><trkpt lat="42.2162711" lon="13.8384953"><ele>434.0</ele><time>2026-05-02T09:12:17.938Z</time></trkpt><trkpt lat="42.216321" lon="13.8383317"><ele>434.0</ele><time>2026-05-02T09:12:18.937Z</time></trkpt><trkpt lat="42.2163721" lon="13.8381636"><ele>434.0</ele><time>2026-05-02T09:12:19.937Z</time></trkpt><trkpt lat="42.2164096" lon="13.8379989"><ele>433.75</ele><time>2026-05-02T09:12:20.937Z</time></trkpt><trkpt lat="42.2164502" lon="13.8378432"><ele>433.5</ele><time>2026-05-02T09:12:21.937Z</time></trkpt><trkpt lat="42.2164878" lon="13.8376885"><ele>433.25</ele><time>2026-05-02T09:12:22.937Z</time></trkpt><trkpt lat="42.2165233" lon="13.8375327"><ele>433.0</ele><time>2026-05-02T09:12:23.939Z</time></trkpt><trkpt lat="42.2165581" lon="13.837379"><ele>430.5</ele><time>2026-05-02T09:12:24.938Z</time></trkpt><trkpt lat="42.2165925" lon="13.8372224"><ele>428.0</ele><time>2026-05-02T09:12:25.938Z</time></trkpt><trkpt lat="42.2166303" lon="13.8370694"><ele>425.5</ele><time>2026-05-02T09:12:26.938Z</time></trkpt><trkpt lat="42.216669" lon="13.8369037"><ele>423.0</ele><time>2026-05-02T09:12:27.938Z</time></trkpt><trkpt lat="42.2167102" lon="13.8367317"><ele>420.0</ele><time>2026-05-02T09:12:28.936Z</time></trkpt><trkpt lat="42.2167646" lon="13.8365579"><ele>417.0</ele><time>2026-05-02T09:12:29.937Z</time></trkpt><trkpt lat="42.21683" lon="13.8363907"><ele>414.0</ele><time>2026-05-02T09:12:30.939Z</time></trkpt><trkpt lat="42.2168956" lon="13.8362193"><ele>411.0</ele><time>2026-05-02T09:12:31.937Z</time></trkpt><trkpt lat="42.2169764" lon="13.8360495"><ele>411.0</ele><time>2026-05-02T09:12:32.937Z</time></trkpt><trkpt lat="42.2170588" lon="13.835882"><ele>411.0</ele><time>2026-05-02T09:12:33.937Z</time></trkpt><trkpt lat="42.2171477" lon="13.8357245"><ele>411.0</ele><time>2026-05-02T09:12:34.938Z</time></trkpt><trkpt lat="42.2172334" lon="13.8355672"><ele>411.0</ele><time>2026-05-02T09:12:35.937Z</time></trkpt><trkpt lat="42.2173213" lon="13.8354147"><ele>411.0</ele><time>2026-05-02T09:12:36.938Z</time></trkpt><trkpt lat="42.2174021" lon="13.8352762"><ele>411.0</ele><time>2026-05-02T09:12:37.937Z</time></trkpt><trkpt lat="42.2174762" lon="13.8351562"><ele>411.0</ele><time>2026-05-02T09:12:38.938Z</time></trkpt><trkpt lat="42.2175354" lon="13.8350392"><ele>411.0</ele><time>2026-05-02T09:12:39.937Z</time></trkpt><trkpt lat="42.2175727" lon="13.8349143"><ele>408.0</ele><time>2026-05-02T09:12:40.938Z</time></trkpt><trkpt lat="42.2175848" lon="13.834775"><ele>405.0</ele><time>2026-05-02T09:12:41.938Z</time></trkpt><trkpt lat="42.2175774" lon="13.8346187"><ele>402.0</ele><time>2026-05-02T09:12:42.937Z</time></trkpt><trkpt lat="42.2175551" lon="13.834444"><ele>399.0</ele><time>2026-05-02T09:12:43.937Z</time></trkpt><trkpt lat="42.2175333" lon="13.8342552"><ele>396.33333333333337</ele><time>2026-05-02T09:12:44.937Z</time></trkpt><trkpt lat="42.2175106" lon="13.8340465"><ele>393.6666666666667</ele><time>2026-05-02T09:12:45.937Z</time></trkpt><trkpt lat="42.2174893" lon="13.8338402"><ele>391.0</ele><time>2026-05-02T09:12:46.938Z</time></trkpt><trkpt lat="42.2174714" lon="13.833645"><ele>389.0</ele><time>2026-05-02T09:12:47.937Z</time></trkpt><trkpt lat="42.2174498" lon="13.8334528"><ele>387.0</ele><time>2026-05-02T09:12:48.937Z</time></trkpt><trkpt lat="42.2174314" lon="13.8332671"><ele>385.0</ele><time>2026-05-02T09:12:49.936Z</time></trkpt><trkpt lat="42.2174239" lon="13.8330828"><ele>383.0</ele><time>2026-05-02T09:12:50.937Z</time></trkpt><trkpt lat="42.2174259" lon="13.8328963"><ele>383.0</ele><time>2026-05-02T09:12:51.937Z</time></trkpt><trkpt lat="42.217437" lon="13.832703"><ele>383.0</ele><time>2026-05-02T09:12:52.937Z</time></trkpt><trkpt lat="42.2174514" lon="13.8324992"><ele>383.0</ele><time>2026-05-02T09:12:53.938Z</time></trkpt><trkpt lat="42.2174643" lon="13.8322943"><ele>383.0</ele><time>2026-05-02T09:12:54.938Z</time></trkpt><trkpt lat="42.2174803" lon="13.8320962"><ele>381.25</ele><time>2026-05-02T09:12:55.938Z</time></trkpt><trkpt lat="42.2174953" lon="13.8319036"><ele>379.5</ele><time>2026-05-02T09:12:56.937Z</time></trkpt><trkpt lat="42.2175132" lon="13.8317138"><ele>377.75</ele><time>2026-05-02T09:12:57.937Z</time></trkpt><trkpt lat="42.2175353" lon="13.8315245"><ele>376.0</ele><time>2026-05-02T09:12:58.937Z</time></trkpt><trkpt lat="42.2175639" lon="13.8313394"><ele>375.0</ele><time>2026-05-02T09:12:59.937Z</time></trkpt><trkpt lat="42.2176043" lon="13.8311576"><ele>374.0</ele><time>2026-05-02T09:13:00.937Z</time></trkpt><trkpt lat="42.2176503" lon="13.8309792"><ele>373.0</ele><time>2026-05-02T09:13:01.937Z</time></trkpt><trkpt lat="42.2176998" lon="13.8308143"><ele>372.0</ele><time>2026-05-02T09:13:02.937Z</time></trkpt><trkpt lat="42.2177443" lon="13.8306731"><ele>371.5</ele><time>2026-05-02T09:13:03.938Z</time></trkpt><trkpt lat="42.2177812" lon="13.8305457"><ele>371.0</ele><time>2026-05-02T09:13:04.938Z</time></trkpt><trkpt lat="42.2178103" lon="13.8304346"><ele>370.5</ele><time>2026-05-02T09:13:05.937Z</time></trkpt><trkpt lat="42.2178392" lon="13.8303371"><ele>370.0</ele><time>2026-05-02T09:13:06.938Z</time></trkpt><trkpt lat="42.2178804" lon="13.830236"><ele>369.5</ele><time>2026-05-02T09:13:07.938Z</time></trkpt><trkpt lat="42.217933" lon="13.8301308"><ele>369.0</ele><time>2026-05-02T09:13:08.938Z</time></trkpt><trkpt lat="42.2179796" lon="13.8300074"><ele>368.0</ele><time>2026-05-02T09:13:09.937Z</time></trkpt><trkpt lat="42.218008" lon="13.8298701"><ele>367.0</ele><time>2026-05-02T09:13:10.937Z</time></trkpt><trkpt lat="42.2180251" lon="13.8297309"><ele>366.0</ele><time>2026-05-02T09:13:11.937Z</time></trkpt><trkpt lat="42.2180322" lon="13.8295875"><ele>365.0</ele><time>2026-05-02T09:13:12.937Z</time></trkpt><trkpt lat="42.2180272" lon="13.8294423"><ele>364.0</ele><time>2026-05-02T09:13:13.936Z</time></trkpt><trkpt lat="42.2180136" lon="13.8292919"><ele>363.25</ele><time>2026-05-02T09:13:14.939Z</time></trkpt><trkpt lat="42.2179997" lon="13.8291394"><ele>362.5</ele><time>2026-05-02T09:13:15.938Z</time></trkpt><trkpt lat="42.2179877" lon="13.8289855"><ele>361.75</ele><time>2026-05-02T09:13:16.938Z</time></trkpt><trkpt lat="42.2179751" lon="13.8288332"><ele>361.0</ele><time>2026-05-02T09:13:17.938Z</time></trkpt><trkpt lat="42.2179592" lon="13.8286752"><ele>361.0</ele><time>2026-05-02T09:13:18.936Z</time></trkpt><trkpt lat="42.2179468" lon="13.8285201"><ele>361.0</ele><time>2026-05-02T09:13:19.937Z</time></trkpt><trkpt lat="42.2179312" lon="13.8283633"><ele>361.0</ele><time>2026-05-02T09:13:20.938Z</time></trkpt><trkpt lat="42.2179154" lon="13.8281974"><ele>361.0</ele><time>2026-05-02T09:13:21.936Z</time></trkpt><trkpt lat="42.2179063" lon="13.8280279"><ele>359.75</ele><time>2026-05-02T09:13:22.939Z</time></trkpt><trkpt lat="42.2178929" lon="13.8278581"><ele>358.5</ele><time>2026-05-02T09:13:23.938Z</time></trkpt><trkpt lat="42.2178875" lon="13.8276896"><ele>357.25</ele><time>2026-05-02T09:13:24.938Z</time></trkpt><trkpt lat="42.2178808" lon="13.8275249"><ele>356.0</ele><time>2026-05-02T09:13:25.938Z</time></trkpt><trkpt lat="42.2178744" lon="13.8273622"><ele>354.83333333333337</ele><time>2026-05-02T09:13:26.937Z</time></trkpt><trkpt lat="42.2178694" lon="13.8272153"><ele>353.6666666666667</ele><time>2026-05-02T09:13:27.937Z</time></trkpt><trkpt lat="42.2178728" lon="13.8270937"><ele>352.5</ele><time>2026-05-02T09:13:28.938Z</time></trkpt><trkpt lat="42.2178711" lon="13.8269823"><ele>351.3333333333333</ele><time>2026-05-02T09:13:29.936Z</time></trkpt><trkpt lat="42.21786" lon="13.8268904"><ele>350.16666666666663</ele><time>2026-05-02T09:13:30.937Z</time></trkpt><trkpt lat="42.2178242" lon="13.8268098"><ele>349.0</ele><time>2026-05-02T09:13:31.937Z</time></trkpt><trkpt lat="42.2177758" lon="13.8267516"><ele>347.8333333333333</ele><time>2026-05-02T09:13:32.937Z</time></trkpt><trkpt lat="42.2177141" lon="13.8266991"><ele>346.66666666666663</ele><time>2026-05-02T09:13:33.938Z</time></trkpt><trkpt lat="42.2176404" lon="13.8266463"><ele>345.5</ele><time>2026-05-02T09:13:34.939Z</time></trkpt><trkpt lat="42.2175662" lon="13.8265904"><ele>344.3333333333333</ele><time>2026-05-02T09:13:35.938Z</time></trkpt><trkpt lat="42.2175" lon="13.8265334"><ele>343.1666666666667</ele><time>2026-05-02T09:13:36.939Z</time></trkpt><trkpt lat="42.2174379" lon="13.8264856"><ele>342.0</ele><time>2026-05-02T09:13:37.937Z</time></trkpt><trkpt lat="42.2173796" lon="13.8263696"><ele>342.0</ele><time>2026-05-02T09:13:39.937Z</time></trkpt><trkpt lat="42.2174205" lon="13.8262058"><ele>342.0</ele><time>2026-05-02T09:13:41.938Z</time></trkpt><trkpt lat="42.2175026" lon="13.826067"><ele>342.0</ele><time>2026-05-02T09:13:42.936Z</time></trkpt><trkpt lat="42.217587" lon="13.8259454"><ele>342.0</ele><time>2026-05-02T09:13:43.938Z</time></trkpt><trkpt lat="42.2176576" lon="13.8258406"><ele>340.1666666666667</ele><time>2026-05-02T09:13:44.938Z</time></trkpt><trkpt lat="42.2177178" lon="13.8257407"><ele>338.3333333333333</ele><time>2026-05-02T09:13:45.939Z</time></trkpt><trkpt lat="42.2177569" lon="13.8256349"><ele>336.5</ele><time>2026-05-02T09:13:46.938Z</time></trkpt><trkpt lat="42.2177719" lon="13.8255331"><ele>334.66666666666663</ele><time>2026-05-02T09:13:47.938Z</time></trkpt><trkpt lat="42.2177716" lon="13.8254311"><ele>332.8333333333333</ele><time>2026-05-02T09:13:48.937Z</time></trkpt><trkpt lat="42.2177447" lon="13.8253312"><ele>331.0</ele><time>2026-05-02T09:13:49.936Z</time></trkpt><trkpt lat="42.2176999" lon="13.8252531"><ele>331.0</ele><time>2026-05-02T09:13:50.938Z</time></trkpt><trkpt lat="42.2176368" lon="13.8251984"><ele>331.0</ele><time>2026-05-02T09:13:51.937Z</time></trkpt><trkpt lat="42.2175481" lon="13.8251625"><ele>331.0</ele><time>2026-05-02T09:13:52.937Z</time></trkpt><trkpt lat="42.2174481" lon="13.8251418"><ele>331.0</ele><time>2026-05-02T09:13:53.937Z</time></trkpt><trkpt lat="42.2173541" lon="13.8251179"><ele>331.0</ele><time>2026-05-02T09:13:54.936Z</time></trkpt><trkpt lat="42.2172711" lon="13.8250935"><ele>331.0</ele><time>2026-05-02T09:13:55.938Z</time></trkpt><trkpt lat="42.2172038" lon="13.8250642"><ele>329.20000000000005</ele><time>2026-05-02T09:13:56.937Z</time></trkpt><trkpt lat="42.2171448" lon="13.8250126"><ele>327.40000000000003</ele><time>2026-05-02T09:13:57.939Z</time></trkpt><trkpt lat="42.217089" lon="13.8249336"><ele>325.6</ele><time>2026-05-02T09:13:58.937Z</time></trkpt><trkpt lat="42.2170255" lon="13.8248329"><ele>323.8</ele><time>2026-05-02T09:13:59.937Z</time></trkpt><trkpt lat="42.2169588" lon="13.8247157"><ele>322.0</ele><time>2026-05-02T09:14:00.938Z</time></trkpt><trkpt lat="42.2168894" lon="13.8245676"><ele>322.0</ele><time>2026-05-02T09:14:01.938Z</time></trkpt><trkpt lat="42.2168199" lon="13.8244049"><ele>322.0</ele><time>2026-05-02T09:14:02.937Z</time></trkpt><trkpt lat="42.2167434" lon="13.8242224"><ele>322.0</ele><time>2026-05-02T09:14:03.937Z</time></trkpt><trkpt lat="42.216667" lon="13.8240456"><ele>322.0</ele><time>2026-05-02T09:14:04.938Z</time></trkpt><trkpt lat="42.2165973" lon="13.823873"><ele>321.25</ele><time>2026-05-02T09:14:05.936Z</time></trkpt><trkpt lat="42.2165259" lon="13.8237038"><ele>320.5</ele><time>2026-05-02T09:14:06.939Z</time></trkpt><trkpt lat="42.2164531" lon="13.8235351"><ele>319.75</ele><time>2026-05-02T09:14:07.937Z</time></trkpt><trkpt lat="42.2163829" lon="13.8233646"><ele>319.0</ele><time>2026-05-02T09:14:08.938Z</time></trkpt><trkpt lat="42.2163209" lon="13.8232159"><ele>317.5</ele><time>2026-05-02T09:14:09.936Z</time></trkpt><trkpt lat="42.2162608" lon="13.8230656"><ele>316.0</ele><time>2026-05-02T09:14:10.937Z</time></trkpt><trkpt lat="42.2162011" lon="13.8229225"><ele>314.5</ele><time>2026-05-02T09:14:11.938Z</time></trkpt><trkpt lat="42.2161469" lon="13.822801"><ele>313.0</ele><time>2026-05-02T09:14:12.937Z</time></trkpt><trkpt lat="42.2160923" lon="13.8226791"><ele>313.4</ele><time>2026-05-02T09:14:13.938Z</time></trkpt><trkpt lat="42.2160375" lon="13.8225575"><ele>313.8</ele><time>2026-05-02T09:14:14.937Z</time></trkpt><trkpt lat="42.2159859" lon="13.822456"><ele>314.2</ele><time>2026-05-02T09:14:15.939Z</time></trkpt><trkpt lat="42.2159199" lon="13.8223785"><ele>314.6</ele><time>2026-05-02T09:14:16.937Z</time></trkpt><trkpt lat="42.2158418" lon="13.8223208"><ele>315.0</ele><time>2026-05-02T09:14:17.938Z</time></trkpt><trkpt lat="42.215745" lon="13.8222965"><ele>315.4</ele><time>2026-05-02T09:14:18.938Z</time></trkpt><trkpt lat="42.2156417" lon="13.8222883"><ele>315.8</ele><time>2026-05-02T09:14:19.936Z</time></trkpt><trkpt lat="42.2155338" lon="13.8223027"><ele>316.2</ele><time>2026-05-02T09:14:20.938Z</time></trkpt><trkpt lat="42.2154246" lon="13.82234"><ele>316.6</ele><time>2026-05-02T09:14:21.939Z</time></trkpt><trkpt lat="42.2153184" lon="13.8223905"><ele>317.0</ele><time>2026-05-02T09:14:22.937Z</time></trkpt><trkpt lat="42.215207" lon="13.8224531"><ele>317.0</ele><time>2026-05-02T09:14:23.938Z</time></trkpt><trkpt lat="42.2150982" lon="13.822523"><ele>317.0</ele><time>2026-05-02T09:14:24.937Z</time></trkpt><trkpt lat="42.215001" lon="13.8225865"><ele>317.0</ele><time>2026-05-02T09:14:25.938Z</time></trkpt><trkpt lat="42.2149024" lon="13.8226437"><ele>317.0</ele><time>2026-05-02T09:14:26.938Z</time></trkpt><trkpt lat="42.2148089" lon="13.8226949"><ele>317.0</ele><time>2026-05-02T09:14:27.936Z</time></trkpt><trkpt lat="42.2147265" lon="13.8227317"><ele>317.0</ele><time>2026-05-02T09:14:28.937Z</time></trkpt><trkpt lat="42.2146455" lon="13.8227594"><ele>317.0</ele><time>2026-05-02T09:14:29.938Z</time></trkpt><trkpt lat="42.2145659" lon="13.8227727"><ele>317.0</ele><time>2026-05-02T09:14:30.938Z</time></trkpt><trkpt lat="42.2144947" lon="13.8227653"><ele>317.0</ele><time>2026-05-02T09:14:31.938Z</time></trkpt><trkpt lat="42.2144274" lon="13.8227317"><ele>317.0</ele><time>2026-05-02T09:14:32.938Z</time></trkpt><trkpt lat="42.2143724" lon="13.8226873"><ele>317.0</ele><time>2026-05-02T09:14:33.938Z</time></trkpt><trkpt lat="42.2142829" lon="13.8226038"><ele>317.0</ele><time>2026-05-02T09:14:35.937Z</time></trkpt><trkpt lat="42.2142098" lon="13.8225072"><ele>317.0</ele><time>2026-05-02T09:14:37.938Z</time></trkpt><trkpt lat="42.2141643" lon="13.8224346"><ele>317.0</ele><time>2026-05-02T09:14:38.937Z</time></trkpt><trkpt lat="42.2141177" lon="13.8223656"><ele>317.0</ele><time>2026-05-02T09:14:39.937Z</time></trkpt><trkpt lat="42.2140848" lon="13.8222895"><ele>317.0</ele><time>2026-05-02T09:14:40.937Z</time></trkpt><trkpt lat="42.2140528" lon="13.8221606"><ele>317.0</ele><time>2026-05-02T09:14:42.937Z</time></trkpt><trkpt lat="42.2140502" lon="13.8220638"><ele>317.0</ele><time>2026-05-02T09:14:44.938Z</time></trkpt><trkpt lat="42.2141305" lon="13.8219651"><ele>317.0</ele><time>2026-05-02T09:14:46.937Z</time></trkpt><trkpt lat="42.2141846" lon="13.8219056"><ele>317.0</ele><time>2026-05-02T09:14:47.937Z</time></trkpt><trkpt lat="42.2142442" lon="13.8218401"><ele>317.0</ele><time>2026-05-02T09:14:48.938Z</time></trkpt><trkpt lat="42.2143045" lon="13.8217781"><ele>317.0</ele><time>2026-05-02T09:14:49.939Z</time></trkpt><trkpt lat="42.2143669" lon="13.8216942"><ele>317.0</ele><time>2026-05-02T09:14:50.937Z</time></trkpt><trkpt lat="42.214434" lon="13.8216128"><ele>317.4</ele><time>2026-05-02T09:14:51.937Z</time></trkpt><trkpt lat="42.2145002" lon="13.8215199"><ele>317.79999999999995</ele><time>2026-05-02T09:14:52.938Z</time></trkpt><trkpt lat="42.214568" lon="13.8214167"><ele>318.2</ele><time>2026-05-02T09:14:53.937Z</time></trkpt><trkpt lat="42.2146403" lon="13.8213066"><ele>318.59999999999997</ele><time>2026-05-02T09:14:54.937Z</time></trkpt><trkpt lat="42.2147115" lon="13.8212"><ele>319.0</ele><time>2026-05-02T09:14:55.939Z</time></trkpt><trkpt lat="42.2147743" lon="13.8210993"><ele>319.0</ele><time>2026-05-02T09:14:56.938Z</time></trkpt><trkpt lat="42.2148387" lon="13.8210117"><ele>319.0</ele><time>2026-05-02T09:14:57.937Z</time></trkpt><trkpt lat="42.2148963" lon="13.8209367"><ele>319.0</ele><time>2026-05-02T09:14:58.938Z</time></trkpt><trkpt lat="42.214947" lon="13.8208611"><ele>319.0</ele><time>2026-05-02T09:14:59.937Z</time></trkpt><trkpt lat="42.2149839" lon="13.8207108"><ele>319.0</ele><time>2026-05-02T09:15:01.936Z</time></trkpt><trkpt lat="42.2149692" lon="13.8206026"><ele>319.0</ele><time>2026-05-02T09:15:03.937Z</time></trkpt><trkpt lat="42.2149492" lon="13.8204885"><ele>319.0</ele><time>2026-05-02T09:15:06.937Z</time></trkpt><trkpt lat="42.2150153" lon="13.8204567"><ele>319.0</ele><time>2026-05-02T09:16:37.937Z</time></trkpt><trkpt lat="42.2150788" lon="13.8204572"><ele>319.0</ele><time>2026-05-02T09:16:44.936Z</time></trkpt><trkpt lat="42.2151411" lon="13.820396"><ele>319.0</ele><time>2026-05-02T09:25:01.938Z</time></trkpt><trkpt lat="42.215217" lon="13.8203622"><ele>319.0</ele><time>2026-05-02T09:25:22.937Z</time></trkpt><trkpt lat="42.2153095" lon="13.8203112"><ele>319.0</ele><time>2026-05-02T09:25:24.937Z</time></trkpt><trkpt lat="42.2154042" lon="13.820198"><ele>319.0</ele><time>2026-05-02T09:25:26.937Z</time></trkpt><trkpt lat="42.2154514" lon="13.8201242"><ele>319.0</ele><time>2026-05-02T09:25:27.937Z</time></trkpt><trkpt lat="42.2154951" lon="13.820046"><ele>319.0</ele><time>2026-05-02T09:25:28.938Z</time></trkpt><trkpt lat="42.2155458" lon="13.8199633"><ele>319.0</ele><time>2026-05-02T09:25:29.937Z</time></trkpt><trkpt lat="42.2156006" lon="13.8198925"><ele>319.0</ele><time>2026-05-02T09:25:30.937Z</time></trkpt><trkpt lat="42.2156561" lon="13.8198038"><ele>319.0</ele><time>2026-05-02T09:25:31.936Z</time></trkpt><trkpt lat="42.2157138" lon="13.8197219"><ele>319.0</ele><time>2026-05-02T09:25:32.936Z</time></trkpt><trkpt lat="42.2157726" lon="13.8196407"><ele>319.0</ele><time>2026-05-02T09:25:33.937Z</time></trkpt><trkpt lat="42.215825" lon="13.8195585"><ele>319.0</ele><time>2026-05-02T09:25:34.937Z</time></trkpt><trkpt lat="42.2158738" lon="13.8194908"><ele>319.0</ele><time>2026-05-02T09:25:35.937Z</time></trkpt><trkpt lat="42.2159193" lon="13.8194272"><ele>319.0</ele><time>2026-05-02T09:25:36.937Z</time></trkpt><trkpt lat="42.2159642" lon="13.8193464"><ele>319.0</ele><time>2026-05-02T09:25:37.937Z</time></trkpt><trkpt lat="42.2160141" lon="13.8192689"><ele>319.16666666666663</ele><time>2026-05-02T09:25:38.937Z</time></trkpt><trkpt lat="42.21607" lon="13.8191902"><ele>319.3333333333333</ele><time>2026-05-02T09:25:39.936Z</time></trkpt><trkpt lat="42.216127" lon="13.8191018"><ele>319.5</ele><time>2026-05-02T09:25:40.936Z</time></trkpt><trkpt lat="42.2161696" lon="13.8190135"><ele>319.6666666666667</ele><time>2026-05-02T09:25:41.936Z</time></trkpt><trkpt lat="42.2162016" lon="13.8189284"><ele>319.83333333333337</ele><time>2026-05-02T09:25:42.936Z</time></trkpt><trkpt lat="42.2162155" lon="13.8188202"><ele>320.0</ele><time>2026-05-02T09:25:43.937Z</time></trkpt><trkpt lat="42.2162137" lon="13.8187055"><ele>320.0</ele><time>2026-05-02T09:25:44.937Z</time></trkpt><trkpt lat="42.2162077" lon="13.8185979"><ele>320.0</ele><time>2026-05-02T09:25:45.937Z</time></trkpt><trkpt lat="42.2162031" lon="13.8185032"><ele>320.0</ele><time>2026-05-02T09:25:46.937Z</time></trkpt><trkpt lat="42.2162167" lon="13.8183693"><ele>320.0</ele><time>2026-05-02T09:25:48.936Z</time></trkpt><trkpt lat="42.2162992" lon="13.8182289"><ele>320.0</ele><time>2026-05-02T09:25:50.938Z</time></trkpt><trkpt lat="42.2163781" lon="13.8181387"><ele>319.5</ele><time>2026-05-02T09:25:51.937Z</time></trkpt><trkpt lat="42.2164752" lon="13.8180472"><ele>319.0</ele><time>2026-05-02T09:25:52.936Z</time></trkpt><trkpt lat="42.216586" lon="13.8179424"><ele>318.5</ele><time>2026-05-02T09:25:53.937Z</time></trkpt><trkpt lat="42.2167069" lon="13.8178396"><ele>318.0</ele><time>2026-05-02T09:25:54.937Z</time></trkpt><trkpt lat="42.2168423" lon="13.8177374"><ele>320.6666666666667</ele><time>2026-05-02T09:25:55.936Z</time></trkpt><trkpt lat="42.2169884" lon="13.8176517"><ele>323.33333333333337</ele><time>2026-05-02T09:25:56.937Z</time></trkpt><trkpt lat="42.2171427" lon="13.8175703"><ele>326.0</ele><time>2026-05-02T09:25:57.937Z</time></trkpt><trkpt lat="42.2173067" lon="13.817495"><ele>323.6666666666667</ele><time>2026-05-02T09:25:58.937Z</time></trkpt><trkpt lat="42.2174842" lon="13.8174411"><ele>321.3333333333333</ele><time>2026-05-02T09:25:59.937Z</time></trkpt><trkpt lat="42.2176635" lon="13.8173976"><ele>319.0</ele><time>2026-05-02T09:26:00.937Z</time></trkpt><trkpt lat="42.2178493" lon="13.817358"><ele>319.0</ele><time>2026-05-02T09:26:01.936Z</time></trkpt><trkpt lat="42.2180358" lon="13.8173138"><ele>319.0</ele><time>2026-05-02T09:26:02.938Z</time></trkpt><trkpt lat="42.2182213" lon="13.8172761"><ele>319.0</ele><time>2026-05-02T09:26:03.937Z</time></trkpt><trkpt lat="42.2183995" lon="13.8172389"><ele>318.66666666666663</ele><time>2026-05-02T09:26:04.937Z</time></trkpt><trkpt lat="42.2185784" lon="13.8172038"><ele>318.3333333333333</ele><time>2026-05-02T09:26:05.937Z</time></trkpt><trkpt lat="42.2187521" lon="13.8171692"><ele>318.0</ele><time>2026-05-02T09:26:06.937Z</time></trkpt><trkpt lat="42.2189236" lon="13.817139"><ele>318.3333333333333</ele><time>2026-05-02T09:26:07.936Z</time></trkpt><trkpt lat="42.2190998" lon="13.8171103"><ele>318.66666666666663</ele><time>2026-05-02T09:26:08.937Z</time></trkpt><trkpt lat="42.2192754" lon="13.817083"><ele>319.0</ele><time>2026-05-02T09:26:09.937Z</time></trkpt><trkpt lat="42.2194535" lon="13.8170633"><ele>319.0</ele><time>2026-05-02T09:26:10.937Z</time></trkpt><trkpt lat="42.2196316" lon="13.8170572"><ele>319.0</ele><time>2026-05-02T09:26:11.936Z</time></trkpt><trkpt lat="42.2198116" lon="13.8170587"><ele>319.0</ele><time>2026-05-02T09:26:12.936Z</time></trkpt><trkpt lat="42.2199954" lon="13.8170736"><ele>318.66666666666663</ele><time>2026-05-02T09:26:13.936Z</time></trkpt><trkpt lat="42.2201797" lon="13.8171039"><ele>318.3333333333333</ele><time>2026-05-02T09:26:14.935Z</time></trkpt><trkpt lat="42.2203575" lon="13.8171453"><ele>318.0</ele><time>2026-05-02T09:26:15.937Z</time></trkpt><trkpt lat="42.2205385" lon="13.8171865"><ele>317.6666666666667</ele><time>2026-05-02T09:26:16.937Z</time></trkpt><trkpt lat="42.2207146" lon="13.8172392"><ele>317.33333333333337</ele><time>2026-05-02T09:26:17.936Z</time></trkpt><trkpt lat="42.2208907" lon="13.8172892"><ele>317.0</ele><time>2026-05-02T09:26:18.938Z</time></trkpt><trkpt lat="42.2210723" lon="13.8173423"><ele>317.0</ele><time>2026-05-02T09:26:19.937Z</time></trkpt><trkpt lat="42.2212523" lon="13.8173897"><ele>317.0</ele><time>2026-05-02T09:26:20.937Z</time></trkpt><trkpt lat="42.2214358" lon="13.8174231"><ele>317.0</ele><time>2026-05-02T09:26:21.937Z</time></trkpt><trkpt lat="42.221619" lon="13.8174447"><ele>317.0</ele><time>2026-05-02T09:26:22.937Z</time></trkpt><trkpt lat="42.2218018" lon="13.8174538"><ele>317.0</ele><time>2026-05-02T09:26:23.938Z</time></trkpt><trkpt lat="42.2219825" lon="13.8174474"><ele>317.0</ele><time>2026-05-02T09:26:24.937Z</time></trkpt><trkpt lat="42.2221638" lon="13.8174332"><ele>318.0</ele><time>2026-05-02T09:26:25.938Z</time></trkpt><trkpt lat="42.2223351" lon="13.8173864"><ele>319.0</ele><time>2026-05-02T09:26:26.936Z</time></trkpt><trkpt lat="42.2225023" lon="13.8173373"><ele>320.0</ele><time>2026-05-02T09:26:27.937Z</time></trkpt><trkpt lat="42.2226621" lon="13.8172854"><ele>320.0</ele><time>2026-05-02T09:26:28.937Z</time></trkpt><trkpt lat="42.2228036" lon="13.8172117"><ele>320.0</ele><time>2026-05-02T09:26:29.937Z</time></trkpt><trkpt lat="42.2229512" lon="13.8171315"><ele>320.0</ele><time>2026-05-02T09:26:30.936Z</time></trkpt><trkpt lat="42.2231025" lon="13.8170362"><ele>320.33333333333337</ele><time>2026-05-02T09:26:31.937Z</time></trkpt><trkpt lat="42.2232505" lon="13.8169303"><ele>320.6666666666667</ele><time>2026-05-02T09:26:32.937Z</time></trkpt><trkpt lat="42.2233978" lon="13.8168219"><ele>321.0</ele><time>2026-05-02T09:26:33.937Z</time></trkpt><trkpt lat="42.2235436" lon="13.8166986"><ele>321.0</ele><time>2026-05-02T09:26:34.937Z</time></trkpt><trkpt lat="42.2236971" lon="13.816573"><ele>321.0</ele><time>2026-05-02T09:26:35.937Z</time></trkpt><trkpt lat="42.2238413" lon="13.816459"><ele>321.0</ele><time>2026-05-02T09:26:36.937Z</time></trkpt><trkpt lat="42.2239854" lon="13.816345"><ele>319.3333333333333</ele><time>2026-05-02T09:26:37.937Z</time></trkpt><trkpt lat="42.2241338" lon="13.8162312"><ele>317.66666666666663</ele><time>2026-05-02T09:26:38.936Z</time></trkpt><trkpt lat="42.2242708" lon="13.8161167"><ele>316.0</ele><time>2026-05-02T09:26:39.937Z</time></trkpt><trkpt lat="42.2244049" lon="13.8160038"><ele>316.3333333333333</ele><time>2026-05-02T09:26:40.935Z</time></trkpt><trkpt lat="42.2245433" lon="13.8158876"><ele>316.6666666666667</ele><time>2026-05-02T09:26:41.937Z</time></trkpt><trkpt lat="42.2246865" lon="13.8157797"><ele>317.0</ele><time>2026-05-02T09:26:42.937Z</time></trkpt><trkpt lat="42.2248401" lon="13.815682"><ele>317.0</ele><time>2026-05-02T09:26:43.937Z</time></trkpt><trkpt lat="42.2250001" lon="13.8155955"><ele>317.0</ele><time>2026-05-02T09:26:44.937Z</time></trkpt><trkpt lat="42.2251664" lon="13.8155228"><ele>317.0</ele><time>2026-05-02T09:26:45.936Z</time></trkpt><trkpt lat="42.2253394" lon="13.8154548"><ele>317.0</ele><time>2026-05-02T09:26:46.937Z</time></trkpt><trkpt lat="42.2255169" lon="13.815407"><ele>317.0</ele><time>2026-05-02T09:26:47.938Z</time></trkpt><trkpt lat="42.2256942" lon="13.815356"><ele>317.0</ele><time>2026-05-02T09:26:48.936Z</time></trkpt><trkpt lat="42.2258736" lon="13.8153016"><ele>317.0</ele><time>2026-05-02T09:26:49.937Z</time></trkpt><trkpt lat="42.226054" lon="13.8152521"><ele>317.0</ele><time>2026-05-02T09:26:50.937Z</time></trkpt><trkpt lat="42.2262334" lon="13.8152019"><ele>317.0</ele><time>2026-05-02T09:26:51.936Z</time></trkpt><trkpt lat="42.2264096" lon="13.8151566"><ele>319.0</ele><time>2026-05-02T09:26:52.937Z</time></trkpt><trkpt lat="42.2265863" lon="13.8151111"><ele>321.0</ele><time>2026-05-02T09:26:53.936Z</time></trkpt><trkpt lat="42.2267598" lon="13.8150629"><ele>323.0</ele><time>2026-05-02T09:26:54.936Z</time></trkpt><trkpt lat="42.2269348" lon="13.8150182"><ele>323.0</ele><time>2026-05-02T09:26:55.936Z</time></trkpt><trkpt lat="42.2271094" lon="13.8149748"><ele>323.0</ele><time>2026-05-02T09:26:56.936Z</time></trkpt><trkpt lat="42.2272871" lon="13.8149413"><ele>323.0</ele><time>2026-05-02T09:26:57.937Z</time></trkpt><trkpt lat="42.2274618" lon="13.8149143"><ele>321.6666666666667</ele><time>2026-05-02T09:26:58.938Z</time></trkpt><trkpt lat="42.2276438" lon="13.8148885"><ele>320.3333333333333</ele><time>2026-05-02T09:26:59.937Z</time></trkpt><trkpt lat="42.2278226" lon="13.8148702"><ele>319.0</ele><time>2026-05-02T09:27:00.936Z</time></trkpt><trkpt lat="42.227998" lon="13.8148469"><ele>319.0</ele><time>2026-05-02T09:27:01.936Z</time></trkpt><trkpt lat="42.2281575" lon="13.8148264"><ele>319.0</ele><time>2026-05-02T09:27:02.937Z</time></trkpt><trkpt lat="42.2283075" lon="13.81481"><ele>319.0</ele><time>2026-05-02T09:27:03.937Z</time></trkpt><trkpt lat="42.228437" lon="13.8148034"><ele>319.0</ele><time>2026-05-02T09:27:04.937Z</time></trkpt><trkpt lat="42.2285539" lon="13.8148083"><ele>319.0</ele><time>2026-05-02T09:27:05.938Z</time></trkpt><trkpt lat="42.2286609" lon="13.8148277"><ele>319.0</ele><time>2026-05-02T09:27:06.937Z</time></trkpt><trkpt lat="42.2287582" lon="13.8148543"><ele>319.0</ele><time>2026-05-02T09:27:07.937Z</time></trkpt><trkpt lat="42.2288567" lon="13.8148831"><ele>319.0</ele><time>2026-05-02T09:27:08.936Z</time></trkpt><trkpt lat="42.2289499" lon="13.8149261"><ele>319.0</ele><time>2026-05-02T09:27:09.937Z</time></trkpt><trkpt lat="42.2290381" lon="13.814974"><ele>318.8333333333333</ele><time>2026-05-02T09:27:10.937Z</time></trkpt><trkpt lat="42.2291156" lon="13.8150109"><ele>318.66666666666663</ele><time>2026-05-02T09:27:11.938Z</time></trkpt><trkpt lat="42.229189" lon="13.8150456"><ele>318.5</ele><time>2026-05-02T09:27:12.938Z</time></trkpt><trkpt lat="42.2292792" lon="13.815101"><ele>318.3333333333333</ele><time>2026-05-02T09:27:14.937Z</time></trkpt><trkpt lat="42.2293555" lon="13.8151395"><ele>318.1666666666667</ele><time>2026-05-02T09:27:16.937Z</time></trkpt><trkpt lat="42.229421" lon="13.8151791"><ele>318.0</ele><time>2026-05-02T09:27:18.937Z</time></trkpt><trkpt lat="42.2294919" lon="13.8152379"><ele>318.0</ele><time>2026-05-02T09:27:20.937Z</time></trkpt><trkpt lat="42.2295957" lon="13.8153422"><ele>318.0</ele><time>2026-05-02T09:27:22.937Z</time></trkpt><trkpt lat="42.2296408" lon="13.8154296"><ele>318.0</ele><time>2026-05-02T09:27:23.937Z</time></trkpt><trkpt lat="42.2296887" lon="13.8155159"><ele>318.0</ele><time>2026-05-02T09:27:24.937Z</time></trkpt><trkpt lat="42.2297492" lon="13.8156201"><ele>318.0</ele><time>2026-05-02T09:27:25.937Z</time></trkpt><trkpt lat="42.2297972" lon="13.8157123"><ele>318.0</ele><time>2026-05-02T09:27:26.938Z</time></trkpt><trkpt lat="42.2298411" lon="13.815791"><ele>318.0</ele><time>2026-05-02T09:27:27.937Z</time></trkpt><trkpt lat="42.2299027" lon="13.8159226"><ele>318.0</ele><time>2026-05-02T09:27:29.937Z</time></trkpt><trkpt lat="42.2299189" lon="13.8160515"><ele>318.0</ele><time>2026-05-02T09:27:31.937Z</time></trkpt><trkpt lat="42.2299103" lon="13.8162381"><ele>318.0</ele><time>2026-05-02T09:27:33.936Z</time></trkpt><trkpt lat="42.2298981" lon="13.8163557"><ele>317.6666666666667</ele><time>2026-05-02T09:27:34.936Z</time></trkpt><trkpt lat="42.2298914" lon="13.8164646"><ele>317.3333333333333</ele><time>2026-05-02T09:27:35.936Z</time></trkpt><trkpt lat="42.2298909" lon="13.8165819"><ele>317.0</ele><time>2026-05-02T09:27:36.937Z</time></trkpt><trkpt lat="42.2299113" lon="13.8166778"><ele>316.66666666666663</ele><time>2026-05-02T09:27:37.937Z</time></trkpt><trkpt lat="42.2299182" lon="13.8167838"><ele>316.3333333333333</ele><time>2026-05-02T09:27:38.936Z</time></trkpt><trkpt lat="42.2299305" lon="13.8168799"><ele>316.0</ele><time>2026-05-02T09:27:39.938Z</time></trkpt><trkpt lat="42.2299482" lon="13.8169819"><ele>315.5</ele><time>2026-05-02T09:27:40.937Z</time></trkpt><trkpt lat="42.2299639" lon="13.8170979"><ele>315.0</ele><time>2026-05-02T09:27:41.937Z</time></trkpt><trkpt lat="42.229986" lon="13.8172478"><ele>314.5</ele><time>2026-05-02T09:27:42.937Z</time></trkpt><trkpt lat="42.2300028" lon="13.8174164"><ele>314.0</ele><time>2026-05-02T09:27:43.938Z</time></trkpt><trkpt lat="42.2300231" lon="13.8175911"><ele>314.25</ele><time>2026-05-02T09:27:44.937Z</time></trkpt><trkpt lat="42.23003" lon="13.8177682"><ele>314.5</ele><time>2026-05-02T09:27:45.938Z</time></trkpt><trkpt lat="42.2300473" lon="13.8179425"><ele>314.75</ele><time>2026-05-02T09:27:46.937Z</time></trkpt><trkpt lat="42.2300653" lon="13.8181361"><ele>315.0</ele><time>2026-05-02T09:27:47.937Z</time></trkpt><trkpt lat="42.2300764" lon="13.8183118"><ele>315.0</ele><time>2026-05-02T09:27:48.937Z</time></trkpt><trkpt lat="42.2300872" lon="13.8184951"><ele>315.0</ele><time>2026-05-02T09:27:49.937Z</time></trkpt><trkpt lat="42.2300936" lon="13.8186726"><ele>315.0</ele><time>2026-05-02T09:27:50.937Z</time></trkpt><trkpt lat="42.2300986" lon="13.8188448"><ele>315.0</ele><time>2026-05-02T09:27:51.937Z</time></trkpt><trkpt lat="42.2301029" lon="13.8190161"><ele>315.0</ele><time>2026-05-02T09:27:52.938Z</time></trkpt><trkpt lat="42.2301027" lon="13.8191698"><ele>315.0</ele><time>2026-05-02T09:27:53.937Z</time></trkpt><trkpt lat="42.2301095" lon="13.8193112"><ele>315.0</ele><time>2026-05-02T09:27:54.937Z</time></trkpt><trkpt lat="42.2301151" lon="13.8194304"><ele>315.0</ele><time>2026-05-02T09:27:55.937Z</time></trkpt><trkpt lat="42.2301177" lon="13.819518"><ele>315.0</ele><time>2026-05-02T09:27:56.937Z</time></trkpt><trkpt lat="42.2301301" lon="13.8196189"><ele>315.0</ele><time>2026-05-02T09:27:58.937Z</time></trkpt><trkpt lat="42.2301919" lon="13.8196893"><ele>315.6</ele><time>2026-05-02T09:28:03.936Z</time></trkpt><trkpt lat="42.2303235" lon="13.8196615"><ele>316.2</ele><time>2026-05-02T09:28:05.936Z</time></trkpt><trkpt lat="42.2304076" lon="13.8196501"><ele>316.8</ele><time>2026-05-02T09:28:06.937Z</time></trkpt><trkpt lat="42.2305005" lon="13.8196295"><ele>317.4</ele><time>2026-05-02T09:28:07.936Z</time></trkpt><trkpt lat="42.2305925" lon="13.8196161"><ele>318.0</ele><time>2026-05-02T09:28:08.937Z</time></trkpt><trkpt lat="42.2306825" lon="13.819602"><ele>319.4</ele><time>2026-05-02T09:28:09.937Z</time></trkpt><trkpt lat="42.2307812" lon="13.8195945"><ele>320.8</ele><time>2026-05-02T09:28:10.938Z</time></trkpt><trkpt lat="42.2308825" lon="13.8195832"><ele>322.2</ele><time>2026-05-02T09:28:11.936Z</time></trkpt><trkpt lat="42.2309778" lon="13.8195429"><ele>323.6</ele><time>2026-05-02T09:28:12.937Z</time></trkpt><trkpt lat="42.2310701" lon="13.8195092"><ele>325.0</ele><time>2026-05-02T09:28:13.935Z</time></trkpt><trkpt lat="42.2311656" lon="13.8194621"><ele>325.0</ele><time>2026-05-02T09:28:14.937Z</time></trkpt><trkpt lat="42.2312505" lon="13.8194114"><ele>325.0</ele><time>2026-05-02T09:28:15.937Z</time></trkpt><trkpt lat="42.231339" lon="13.8193571"><ele>325.0</ele><time>2026-05-02T09:28:16.937Z</time></trkpt><trkpt lat="42.2314271" lon="13.8193012"><ele>325.0</ele><time>2026-05-02T09:28:17.936Z</time></trkpt><trkpt lat="42.2315195" lon="13.819247"><ele>325.0</ele><time>2026-05-02T09:28:18.937Z</time></trkpt><trkpt lat="42.2316191" lon="13.8191973"><ele>323.75</ele><time>2026-05-02T09:28:19.936Z</time></trkpt><trkpt lat="42.2317271" lon="13.8191554"><ele>322.5</ele><time>2026-05-02T09:28:20.937Z</time></trkpt><trkpt lat="42.2318476" lon="13.819123"><ele>321.25</ele><time>2026-05-02T09:28:21.937Z</time></trkpt><trkpt lat="42.2319724" lon="13.8191005"><ele>320.0</ele><time>2026-05-02T09:28:22.937Z</time></trkpt><trkpt lat="42.2321021" lon="13.819087"><ele>320.0</ele><time>2026-05-02T09:28:23.937Z</time></trkpt><trkpt lat="42.2322433" lon="13.8190789"><ele>320.0</ele><time>2026-05-02T09:28:24.936Z</time></trkpt><trkpt lat="42.2323797" lon="13.8190676"><ele>320.0</ele><time>2026-05-02T09:28:25.936Z</time></trkpt><trkpt lat="42.2325196" lon="13.8190573"><ele>320.0</ele><time>2026-05-02T09:28:26.937Z</time></trkpt><trkpt lat="42.2326563" lon="13.8190489"><ele>320.25</ele><time>2026-05-02T09:28:27.936Z</time></trkpt><trkpt lat="42.2327979" lon="13.8190384"><ele>320.5</ele><time>2026-05-02T09:28:28.937Z</time></trkpt><trkpt lat="42.2329445" lon="13.8190015"><ele>320.75</ele><time>2026-05-02T09:28:29.935Z</time></trkpt><trkpt lat="42.2330894" lon="13.8189474"><ele>321.0</ele><time>2026-05-02T09:28:30.937Z</time></trkpt><trkpt lat="42.2332343" lon="13.8188825"><ele>324.3333333333333</ele><time>2026-05-02T09:28:31.937Z</time></trkpt><trkpt lat="42.233377" lon="13.8188128"><ele>327.66666666666663</ele><time>2026-05-02T09:28:32.937Z</time></trkpt><trkpt lat="42.2335181" lon="13.8187347"><ele>331.0</ele><time>2026-05-02T09:28:33.938Z</time></trkpt><trkpt lat="42.2336594" lon="13.8186578"><ele>331.0</ele><time>2026-05-02T09:28:34.938Z</time></trkpt><trkpt lat="42.233798" lon="13.8185848"><ele>331.0</ele><time>2026-05-02T09:28:35.936Z</time></trkpt><trkpt lat="42.2339351" lon="13.8185101"><ele>331.0</ele><time>2026-05-02T09:28:36.937Z</time></trkpt><trkpt lat="42.2340744" lon="13.8184135"><ele>329.3333333333333</ele><time>2026-05-02T09:28:37.936Z</time></trkpt><trkpt lat="42.2342138" lon="13.8183127"><ele>327.6666666666667</ele><time>2026-05-02T09:28:38.936Z</time></trkpt><trkpt lat="42.2343383" lon="13.8182003"><ele>326.0</ele><time>2026-05-02T09:28:39.937Z</time></trkpt><trkpt lat="42.2344669" lon="13.8180758"><ele>326.0</ele><time>2026-05-02T09:28:40.938Z</time></trkpt><trkpt lat="42.2345817" lon="13.8179438"><ele>326.0</ele><time>2026-05-02T09:28:41.936Z</time></trkpt><trkpt lat="42.2346932" lon="13.8177904"><ele>326.0</ele><time>2026-05-02T09:28:42.937Z</time></trkpt><trkpt lat="42.2347938" lon="13.817643"><ele>324.75</ele><time>2026-05-02T09:28:43.937Z</time></trkpt><trkpt lat="42.2348837" lon="13.8174972"><ele>323.5</ele><time>2026-05-02T09:28:44.936Z</time></trkpt><trkpt lat="42.2349595" lon="13.8173632"><ele>322.25</ele><time>2026-05-02T09:28:45.936Z</time></trkpt><trkpt lat="42.2350276" lon="13.8172366"><ele>321.0</ele><time>2026-05-02T09:28:46.935Z</time></trkpt><trkpt lat="42.2350878" lon="13.8171206"><ele>321.0</ele><time>2026-05-02T09:28:47.937Z</time></trkpt><trkpt lat="42.2351421" lon="13.8170121"><ele>321.0</ele><time>2026-05-02T09:28:48.935Z</time></trkpt><trkpt lat="42.2351921" lon="13.8169041"><ele>321.0</ele><time>2026-05-02T09:28:49.938Z</time></trkpt><trkpt lat="42.2352311" lon="13.8167955"><ele>321.0</ele><time>2026-05-02T09:28:50.937Z</time></trkpt><trkpt lat="42.23527" lon="13.8166991"><ele>321.0</ele><time>2026-05-02T09:28:51.937Z</time></trkpt><trkpt lat="42.2353158" lon="13.816607"><ele>321.0</ele><time>2026-05-02T09:28:52.936Z</time></trkpt><trkpt lat="42.2353724" lon="13.8165206"><ele>321.1666666666667</ele><time>2026-05-02T09:28:53.936Z</time></trkpt><trkpt lat="42.2354328" lon="13.8164671"><ele>321.3333333333333</ele><time>2026-05-02T09:28:54.938Z</time></trkpt><trkpt lat="42.2354935" lon="13.8164033"><ele>321.5</ele><time>2026-05-02T09:28:55.936Z</time></trkpt><trkpt lat="42.2355659" lon="13.8163486"><ele>321.66666666666663</ele><time>2026-05-02T09:28:56.935Z</time></trkpt><trkpt lat="42.2356477" lon="13.8163043"><ele>321.8333333333333</ele><time>2026-05-02T09:28:57.936Z</time></trkpt><trkpt lat="42.2357389" lon="13.8162652"><ele>322.0</ele><time>2026-05-02T09:28:58.938Z</time></trkpt><trkpt lat="42.2358277" lon="13.8162563"><ele>322.0</ele><time>2026-05-02T09:28:59.937Z</time></trkpt><trkpt lat="42.2359241" lon="13.8162736"><ele>322.0</ele><time>2026-05-02T09:29:00.937Z</time></trkpt><trkpt lat="42.2360231" lon="13.8163058"><ele>322.0</ele><time>2026-05-02T09:29:01.938Z</time></trkpt><trkpt lat="42.2361172" lon="13.8163639"><ele>322.0</ele><time>2026-05-02T09:29:02.938Z</time></trkpt><trkpt lat="42.2362126" lon="13.8164375"><ele>322.0</ele><time>2026-05-02T09:29:03.936Z</time></trkpt><trkpt lat="42.2363106" lon="13.8165162"><ele>322.0</ele><time>2026-05-02T09:29:04.937Z</time></trkpt><trkpt lat="42.236416" lon="13.8165908"><ele>322.0</ele><time>2026-05-02T09:29:05.937Z</time></trkpt><trkpt lat="42.2365248" lon="13.8166592"><ele>322.0</ele><time>2026-05-02T09:29:06.935Z</time></trkpt><trkpt lat="42.2366457" lon="13.8167146"><ele>322.0</ele><time>2026-05-02T09:29:07.936Z</time></trkpt><trkpt lat="42.2367677" lon="13.8167464"><ele>321.5</ele><time>2026-05-02T09:29:08.935Z</time></trkpt><trkpt lat="42.236892" lon="13.8167756"><ele>321.0</ele><time>2026-05-02T09:29:09.936Z</time></trkpt><trkpt lat="42.2370204" lon="13.8167643"><ele>320.5</ele><time>2026-05-02T09:29:10.939Z</time></trkpt><trkpt lat="42.2371498" lon="13.8167421"><ele>320.0</ele><time>2026-05-02T09:29:11.936Z</time></trkpt><trkpt lat="42.2372667" lon="13.8167119"><ele>319.75</ele><time>2026-05-02T09:29:12.937Z</time></trkpt><trkpt lat="42.2373807" lon="13.8166664"><ele>319.5</ele><time>2026-05-02T09:29:13.936Z</time></trkpt><trkpt lat="42.2375058" lon="13.8165939"><ele>319.25</ele><time>2026-05-02T09:29:14.937Z</time></trkpt><trkpt lat="42.2376293" lon="13.8165324"><ele>319.0</ele><time>2026-05-02T09:29:15.936Z</time></trkpt><trkpt lat="42.2377744" lon="13.8164607"><ele>319.0</ele><time>2026-05-02T09:29:16.937Z</time></trkpt><trkpt lat="42.2379194" lon="13.816393"><ele>319.0</ele><time>2026-05-02T09:29:17.938Z</time></trkpt><trkpt lat="42.2380581" lon="13.8163303"><ele>319.0</ele><time>2026-05-02T09:29:18.937Z</time></trkpt><trkpt lat="42.2382035" lon="13.8162583"><ele>319.0</ele><time>2026-05-02T09:29:19.936Z</time></trkpt><trkpt lat="42.2383396" lon="13.8161916"><ele>319.0</ele><time>2026-05-02T09:29:20.937Z</time></trkpt><trkpt lat="42.2384664" lon="13.8161378"><ele>319.0</ele><time>2026-05-02T09:29:21.936Z</time></trkpt><trkpt lat="42.2385898" lon="13.8161134"><ele>319.0</ele><time>2026-05-02T09:29:22.936Z</time></trkpt><trkpt lat="42.2387159" lon="13.8161181"><ele>319.0</ele><time>2026-05-02T09:29:23.936Z</time></trkpt><trkpt lat="42.2388332" lon="13.8161353"><ele>319.0</ele><time>2026-05-02T09:29:24.937Z</time></trkpt><trkpt lat="42.2389423" lon="13.8161517"><ele>319.0</ele><time>2026-05-02T09:29:25.935Z</time></trkpt><trkpt lat="42.2390458" lon="13.8161725"><ele>319.0</ele><time>2026-05-02T09:29:26.937Z</time></trkpt><trkpt lat="42.2391193" lon="13.8161854"><ele>319.0</ele><time>2026-05-02T09:29:27.937Z</time></trkpt><trkpt lat="42.2391899" lon="13.8161991"><ele>319.79999999999995</ele><time>2026-05-02T09:29:28.937Z</time></trkpt><trkpt lat="42.2392925" lon="13.8162139"><ele>320.59999999999997</ele><time>2026-05-02T09:29:30.936Z</time></trkpt><trkpt lat="42.2393679" lon="13.8162961"><ele>321.4</ele><time>2026-05-02T09:29:32.937Z</time></trkpt><trkpt lat="42.239445" lon="13.8164295"><ele>322.2</ele><time>2026-05-02T09:29:34.936Z</time></trkpt><trkpt lat="42.2395199" lon="13.816504"><ele>323.0</ele><time>2026-05-02T09:29:36.937Z</time></trkpt><trkpt lat="42.2396237" lon="13.8165"><ele>323.0</ele><time>2026-05-02T09:29:38.938Z</time></trkpt><trkpt lat="42.2397075" lon="13.8164844"><ele>323.0</ele><time>2026-05-02T09:29:39.938Z</time></trkpt><trkpt lat="42.2397901" lon="13.8164648"><ele>323.0</ele><time>2026-05-02T09:29:40.938Z</time></trkpt><trkpt lat="42.2398668" lon="13.8164336"><ele>323.0</ele><time>2026-05-02T09:29:41.935Z</time></trkpt><trkpt lat="42.2399456" lon="13.8163885"><ele>323.0</ele><time>2026-05-02T09:29:42.937Z</time></trkpt><trkpt lat="42.2400264" lon="13.8163593"><ele>323.0</ele><time>2026-05-02T09:29:43.938Z</time></trkpt><trkpt lat="42.2401063" lon="13.8163412"><ele>323.79999999999995</ele><time>2026-05-02T09:29:44.937Z</time></trkpt><trkpt lat="42.2401794" lon="13.816333"><ele>324.6</ele><time>2026-05-02T09:29:45.937Z</time></trkpt><trkpt lat="42.2402531" lon="13.8163294"><ele>325.4</ele><time>2026-05-02T09:29:46.936Z</time></trkpt><trkpt lat="42.2403222" lon="13.8163217"><ele>326.20000000000005</ele><time>2026-05-02T09:29:47.937Z</time></trkpt><trkpt lat="42.2404378" lon="13.8163201"><ele>327.0</ele><time>2026-05-02T09:29:49.936Z</time></trkpt><trkpt lat="42.2405637" lon="13.8163121"><ele>327.0</ele><time>2026-05-02T09:29:51.937Z</time></trkpt><trkpt lat="42.2406317" lon="13.816309"><ele>327.0</ele><time>2026-05-02T09:29:52.938Z</time></trkpt><trkpt lat="42.2407599" lon="13.8163166"><ele>327.0</ele><time>2026-05-02T09:29:54.936Z</time></trkpt><trkpt lat="42.2408246" lon="13.8163121"><ele>327.0</ele><time>2026-05-02T09:29:55.936Z</time></trkpt><trkpt lat="42.2408902" lon="13.8162984"><ele>327.0</ele><time>2026-05-02T09:29:56.935Z</time></trkpt><trkpt lat="42.2409625" lon="13.8162981"><ele>327.0</ele><time>2026-05-02T09:29:57.936Z</time></trkpt><trkpt lat="42.2410324" lon="13.8162878"><ele>327.2857142857143</ele><time>2026-05-02T09:29:58.936Z</time></trkpt><trkpt lat="42.2410987" lon="13.8162782"><ele>327.57142857142856</ele><time>2026-05-02T09:29:59.936Z</time></trkpt><trkpt lat="42.2411689" lon="13.8162694"><ele>327.8571428571429</ele><time>2026-05-02T09:30:00.937Z</time></trkpt><trkpt lat="42.2412321" lon="13.8162437"><ele>328.1428571428571</ele><time>2026-05-02T09:30:01.937Z</time></trkpt><trkpt lat="42.2412984" lon="13.8162258"><ele>328.42857142857144</ele><time>2026-05-02T09:30:02.937Z</time></trkpt><trkpt lat="42.2413644" lon="13.816184"><ele>328.7142857142857</ele><time>2026-05-02T09:30:03.937Z</time></trkpt><trkpt lat="42.2414256" lon="13.8161386"><ele>329.0</ele><time>2026-05-02T09:30:04.936Z</time></trkpt><trkpt lat="42.2414895" lon="13.8160917"><ele>330.33333333333337</ele><time>2026-05-02T09:30:05.937Z</time></trkpt><trkpt lat="42.2415426" lon="13.8160185"><ele>331.6666666666667</ele><time>2026-05-02T09:30:06.937Z</time></trkpt><trkpt lat="42.2415905" lon="13.8159492"><ele>333.0</ele><time>2026-05-02T09:30:07.937Z</time></trkpt><trkpt lat="42.2416309" lon="13.8158783"><ele>334.3333333333333</ele><time>2026-05-02T09:30:08.937Z</time></trkpt><trkpt lat="42.241664" lon="13.8157053"><ele>335.66666666666663</ele><time>2026-05-02T09:30:10.935Z</time></trkpt><trkpt lat="42.2416628" lon="13.8155954"><ele>337.0</ele><time>2026-05-02T09:30:11.936Z</time></trkpt><trkpt lat="42.2416763" lon="13.8154678"><ele>334.3333333333333</ele><time>2026-05-02T09:30:12.937Z</time></trkpt><trkpt lat="42.2417108" lon="13.8153428"><ele>331.66666666666663</ele><time>2026-05-02T09:30:13.935Z</time></trkpt><trkpt lat="42.241745" lon="13.8152195"><ele>329.0</ele><time>2026-05-02T09:30:14.936Z</time></trkpt><trkpt lat="42.2417803" lon="13.8151034"><ele>326.3333333333333</ele><time>2026-05-02T09:30:15.937Z</time></trkpt><trkpt lat="42.2418126" lon="13.8150288"><ele>323.6666666666667</ele><time>2026-05-02T09:30:16.937Z</time></trkpt><trkpt lat="42.2418433" lon="13.8149441"><ele>321.0</ele><time>2026-05-02T09:30:17.935Z</time></trkpt><trkpt lat="42.2418754" lon="13.814844"><ele>320.5</ele><time>2026-05-02T09:30:19.936Z</time></trkpt><trkpt lat="42.2419059" lon="13.8146886"><ele>320.0</ele><time>2026-05-02T09:30:21.935Z</time></trkpt><trkpt lat="42.2419761" lon="13.8145745"><ele>319.5</ele><time>2026-05-02T09:30:23.936Z</time></trkpt><trkpt lat="42.2420888" lon="13.8145074"><ele>319.0</ele><time>2026-05-02T09:30:25.936Z</time></trkpt><trkpt lat="42.2422195" lon="13.8144812"><ele>319.0</ele><time>2026-05-02T09:30:27.937Z</time></trkpt><trkpt lat="42.2422917" lon="13.8144607"><ele>319.0</ele><time>2026-05-02T09:30:28.936Z</time></trkpt><trkpt lat="42.2423599" lon="13.8144163"><ele>319.0</ele><time>2026-05-02T09:30:29.937Z</time></trkpt><trkpt lat="42.2424468" lon="13.8143254"><ele>319.0</ele><time>2026-05-02T09:30:30.936Z</time></trkpt><trkpt lat="42.2425281" lon="13.8142546"><ele>319.0</ele><time>2026-05-02T09:30:31.936Z</time></trkpt><trkpt lat="42.2426132" lon="13.8141633"><ele>319.2</ele><time>2026-05-02T09:30:32.936Z</time></trkpt><trkpt lat="42.2427037" lon="13.8140745"><ele>319.4</ele><time>2026-05-02T09:30:33.936Z</time></trkpt><trkpt lat="42.2427949" lon="13.8139818"><ele>319.6</ele><time>2026-05-02T09:30:34.935Z</time></trkpt><trkpt lat="42.2428785" lon="13.8138821"><ele>319.8</ele><time>2026-05-02T09:30:35.937Z</time></trkpt><trkpt lat="42.2429445" lon="13.813808"><ele>320.0</ele><time>2026-05-02T09:30:36.938Z</time></trkpt><trkpt lat="42.2430102" lon="13.8137315"><ele>320.0</ele><time>2026-05-02T09:30:37.937Z</time></trkpt><trkpt lat="42.2430632" lon="13.8136722"><ele>320.0</ele><time>2026-05-02T09:30:38.936Z</time></trkpt><trkpt lat="42.2431436" lon="13.8135619"><ele>320.0</ele><time>2026-05-02T09:30:40.938Z</time></trkpt><trkpt lat="42.2431985" lon="13.8135035"><ele>320.0</ele><time>2026-05-02T09:30:42.937Z</time></trkpt><trkpt lat="42.243257" lon="13.8134185"><ele>320.0</ele><time>2026-05-02T09:30:50.937Z</time></trkpt><trkpt lat="42.2433467" lon="13.8133176"><ele>320.83333333333337</ele><time>2026-05-02T09:30:52.936Z</time></trkpt><trkpt lat="42.2433986" lon="13.8132464"><ele>321.6666666666667</ele><time>2026-05-02T09:30:53.937Z</time></trkpt><trkpt lat="42.2434656" lon="13.8131725"><ele>322.5</ele><time>2026-05-02T09:30:54.938Z</time></trkpt><trkpt lat="42.2435395" lon="13.8131045"><ele>323.3333333333333</ele><time>2026-05-02T09:30:55.936Z</time></trkpt><trkpt lat="42.2436187" lon="13.8130292"><ele>324.16666666666663</ele><time>2026-05-02T09:30:56.937Z</time></trkpt><trkpt lat="42.2436946" lon="13.8129861"><ele>325.0</ele><time>2026-05-02T09:30:57.937Z</time></trkpt><trkpt lat="42.2437785" lon="13.812942"><ele>325.0</ele><time>2026-05-02T09:30:58.936Z</time></trkpt><trkpt lat="42.2438696" lon="13.8129069"><ele>325.0</ele><time>2026-05-02T09:30:59.936Z</time></trkpt><trkpt lat="42.2439566" lon="13.8128784"><ele>325.0</ele><time>2026-05-02T09:31:00.935Z</time></trkpt><trkpt lat="42.2440388" lon="13.8128224"><ele>325.0</ele><time>2026-05-02T09:31:01.937Z</time></trkpt><trkpt lat="42.2441262" lon="13.8127754"><ele>325.0</ele><time>2026-05-02T09:31:02.935Z</time></trkpt><trkpt lat="42.2442068" lon="13.8127292"><ele>324.2</ele><time>2026-05-02T09:31:03.937Z</time></trkpt><trkpt lat="42.2442912" lon="13.8126883"><ele>323.4</ele><time>2026-05-02T09:31:04.938Z</time></trkpt><trkpt lat="42.2443815" lon="13.8126654"><ele>322.6</ele><time>2026-05-02T09:31:05.937Z</time></trkpt><trkpt lat="42.244479" lon="13.8126462"><ele>321.8</ele><time>2026-05-02T09:31:06.936Z</time></trkpt><trkpt lat="42.2445724" lon="13.8126169"><ele>321.0</ele><time>2026-05-02T09:31:07.936Z</time></trkpt><trkpt lat="42.2446581" lon="13.8125816"><ele>321.0</ele><time>2026-05-02T09:31:08.935Z</time></trkpt><trkpt lat="42.2447396" lon="13.8125406"><ele>321.0</ele><time>2026-05-02T09:31:09.937Z</time></trkpt><trkpt lat="42.2448164" lon="13.812497"><ele>321.0</ele><time>2026-05-02T09:31:10.936Z</time></trkpt><trkpt lat="42.2448769" lon="13.8124249"><ele>321.0</ele><time>2026-05-02T09:31:11.936Z</time></trkpt><trkpt lat="42.2449378" lon="13.8123426"><ele>321.0</ele><time>2026-05-02T09:31:12.937Z</time></trkpt><trkpt lat="42.2449833" lon="13.8122471"><ele>321.0</ele><time>2026-05-02T09:31:13.937Z</time></trkpt><trkpt lat="42.2450219" lon="13.8121463"><ele>321.6</ele><time>2026-05-02T09:31:14.936Z</time></trkpt><trkpt lat="42.2450474" lon="13.8120266"><ele>322.20000000000005</ele><time>2026-05-02T09:31:15.937Z</time></trkpt><trkpt lat="42.2450737" lon="13.8119044"><ele>322.79999999999995</ele><time>2026-05-02T09:31:16.937Z</time></trkpt><trkpt lat="42.2451047" lon="13.8117877"><ele>323.4</ele><time>2026-05-02T09:31:17.936Z</time></trkpt><trkpt lat="42.2451448" lon="13.811669"><ele>324.0</ele><time>2026-05-02T09:31:18.937Z</time></trkpt><trkpt lat="42.2451807" lon="13.8115653"><ele>324.0</ele><time>2026-05-02T09:31:19.938Z</time></trkpt><trkpt lat="42.2452331" lon="13.8114691"><ele>324.0</ele><time>2026-05-02T09:31:20.936Z</time></trkpt><trkpt lat="42.2452989" lon="13.8113872"><ele>324.0</ele><time>2026-05-02T09:31:21.936Z</time></trkpt><trkpt lat="42.2453701" lon="13.8113099"><ele>324.0</ele><time>2026-05-02T09:31:22.937Z</time></trkpt><trkpt lat="42.2454516" lon="13.8112283"><ele>324.0</ele><time>2026-05-02T09:31:23.936Z</time></trkpt><trkpt lat="42.2455375" lon="13.8111421"><ele>324.0</ele><time>2026-05-02T09:31:24.936Z</time></trkpt><trkpt lat="42.2456249" lon="13.8110537"><ele>324.0</ele><time>2026-05-02T09:31:25.936Z</time></trkpt><trkpt lat="42.2457142" lon="13.8109301"><ele>324.0</ele><time>2026-05-02T09:31:26.936Z</time></trkpt><trkpt lat="42.2458007" lon="13.8108121"><ele>324.0</ele><time>2026-05-02T09:31:27.937Z</time></trkpt><trkpt lat="42.2458847" lon="13.8106969"><ele>324.25</ele><time>2026-05-02T09:31:28.937Z</time></trkpt><trkpt lat="42.2459721" lon="13.8105994"><ele>324.5</ele><time>2026-05-02T09:31:29.937Z</time></trkpt><trkpt lat="42.2460621" lon="13.8104994"><ele>324.75</ele><time>2026-05-02T09:31:30.935Z</time></trkpt><trkpt lat="42.2461473" lon="13.8103861"><ele>325.0</ele><time>2026-05-02T09:31:31.936Z</time></trkpt><trkpt lat="42.2462327" lon="13.8102647"><ele>325.0</ele><time>2026-05-02T09:31:32.935Z</time></trkpt><trkpt lat="42.2463104" lon="13.8101518"><ele>325.0</ele><time>2026-05-02T09:31:33.937Z</time></trkpt><trkpt lat="42.2463813" lon="13.8100269"><ele>325.0</ele><time>2026-05-02T09:31:34.936Z</time></trkpt><trkpt lat="42.2464363" lon="13.8098868"><ele>325.0</ele><time>2026-05-02T09:31:35.937Z</time></trkpt><trkpt lat="42.2464851" lon="13.8097347"><ele>325.0</ele><time>2026-05-02T09:31:36.936Z</time></trkpt><trkpt lat="42.2465288" lon="13.8095775"><ele>325.0</ele><time>2026-05-02T09:31:37.936Z</time></trkpt><trkpt lat="42.2465731" lon="13.8094161"><ele>325.0</ele><time>2026-05-02T09:31:38.936Z</time></trkpt><trkpt lat="42.2466173" lon="13.809264"><ele>325.0</ele><time>2026-05-02T09:31:39.935Z</time></trkpt><trkpt lat="42.2466648" lon="13.8091001"><ele>325.0</ele><time>2026-05-02T09:31:40.937Z</time></trkpt><trkpt lat="42.2467149" lon="13.808944"><ele>325.0</ele><time>2026-05-02T09:31:41.937Z</time></trkpt><trkpt lat="42.2467585" lon="13.8087797"><ele>325.0</ele><time>2026-05-02T09:31:42.936Z</time></trkpt><trkpt lat="42.2467919" lon="13.8086102"><ele>325.0</ele><time>2026-05-02T09:31:43.936Z</time></trkpt><trkpt lat="42.2468235" lon="13.8084477"><ele>325.0</ele><time>2026-05-02T09:31:44.936Z</time></trkpt><trkpt lat="42.2468497" lon="13.8083066"><ele>325.0</ele><time>2026-05-02T09:31:45.938Z</time></trkpt><trkpt lat="42.2468776" lon="13.8081852"><ele>325.0</ele><time>2026-05-02T09:31:46.937Z</time></trkpt><trkpt lat="42.2469192" lon="13.8081019"><ele>325.0</ele><time>2026-05-02T09:31:47.937Z</time></trkpt><trkpt lat="42.2469942" lon="13.8079741"><ele>325.0</ele><time>2026-05-02T09:31:49.936Z</time></trkpt><trkpt lat="42.247043" lon="13.8079115"><ele>325.0</ele><time>2026-05-02T09:31:50.937Z</time></trkpt><trkpt lat="42.2471417" lon="13.8077708"><ele>325.0</ele><time>2026-05-02T09:31:52.936Z</time></trkpt><trkpt lat="42.2472042" lon="13.8077055"><ele>325.0</ele><time>2026-05-02T09:31:53.937Z</time></trkpt><trkpt lat="42.2472824" lon="13.8076349"><ele>325.0</ele><time>2026-05-02T09:31:54.936Z</time></trkpt><trkpt lat="42.2473617" lon="13.8075708"><ele>325.0</ele><time>2026-05-02T09:31:55.936Z</time></trkpt><trkpt lat="42.2474555" lon="13.8075045"><ele>325.5</ele><time>2026-05-02T09:31:56.936Z</time></trkpt><trkpt lat="42.2475357" lon="13.8074419"><ele>326.0</ele><time>2026-05-02T09:31:57.937Z</time></trkpt><trkpt lat="42.2475982" lon="13.8073702"><ele>326.5</ele><time>2026-05-02T09:31:58.936Z</time></trkpt><trkpt lat="42.2476591" lon="13.8073025"><ele>327.0</ele><time>2026-05-02T09:31:59.936Z</time></trkpt><trkpt lat="42.2476847" lon="13.8072193"><ele>327.5</ele><time>2026-05-02T09:32:00.937Z</time></trkpt><trkpt lat="42.2477263" lon="13.807145"><ele>328.0</ele><time>2026-05-02T09:32:01.937Z</time></trkpt><trkpt lat="42.247755" lon="13.8070563"><ele>328.0</ele><time>2026-05-02T09:32:02.936Z</time></trkpt><trkpt lat="42.2477691" lon="13.8069438"><ele>328.0</ele><time>2026-05-02T09:32:03.936Z</time></trkpt><trkpt lat="42.247774" lon="13.8068243"><ele>328.0</ele><time>2026-05-02T09:32:04.936Z</time></trkpt><trkpt lat="42.2477907" lon="13.8067048"><ele>328.0</ele><time>2026-05-02T09:32:05.936Z</time></trkpt><trkpt lat="42.2478207" lon="13.8065959"><ele>328.0</ele><time>2026-05-02T09:32:06.936Z</time></trkpt><trkpt lat="42.2478469" lon="13.8064946"><ele>328.0</ele><time>2026-05-02T09:32:07.936Z</time></trkpt><trkpt lat="42.2478832" lon="13.8063914"><ele>328.0</ele><time>2026-05-02T09:32:08.936Z</time></trkpt><trkpt lat="42.2479445" lon="13.8062926"><ele>328.0</ele><time>2026-05-02T09:32:09.936Z</time></trkpt><trkpt lat="42.2480063" lon="13.8061875"><ele>328.0</ele><time>2026-05-02T09:32:10.937Z</time></trkpt><trkpt lat="42.2480633" lon="13.8060673"><ele>328.0</ele><time>2026-05-02T09:32:11.936Z</time></trkpt><trkpt lat="42.248122" lon="13.8059485"><ele>328.0</ele><time>2026-05-02T09:32:12.937Z</time></trkpt><trkpt lat="42.2481887" lon="13.8058226"><ele>329.4</ele><time>2026-05-02T09:32:13.937Z</time></trkpt><trkpt lat="42.2482591" lon="13.8057054"><ele>330.79999999999995</ele><time>2026-05-02T09:32:14.937Z</time></trkpt><trkpt lat="42.2483299" lon="13.8055833"><ele>332.2</ele><time>2026-05-02T09:32:15.936Z</time></trkpt><trkpt lat="42.2483896" lon="13.8054795"><ele>333.6</ele><time>2026-05-02T09:32:16.936Z</time></trkpt><trkpt lat="42.2484579" lon="13.8054087"><ele>335.0</ele><time>2026-05-02T09:32:17.937Z</time></trkpt><trkpt lat="42.2485199" lon="13.805349"><ele>335.0</ele><time>2026-05-02T09:32:18.936Z</time></trkpt><trkpt lat="42.2485944" lon="13.8052975"><ele>335.0</ele><time>2026-05-02T09:32:19.936Z</time></trkpt><trkpt lat="42.2486731" lon="13.8052569"><ele>335.0</ele><time>2026-05-02T09:32:20.937Z</time></trkpt><trkpt lat="42.2487604" lon="13.8052273"><ele>335.0</ele><time>2026-05-02T09:32:21.936Z</time></trkpt><trkpt lat="42.2488386" lon="13.8052044"><ele>335.0</ele><time>2026-05-02T09:32:22.937Z</time></trkpt><trkpt lat="42.2489093" lon="13.805182"><ele>335.0</ele><time>2026-05-02T09:32:23.937Z</time></trkpt><trkpt lat="42.2489745" lon="13.8051726"><ele>335.33333333333337</ele><time>2026-05-02T09:32:24.936Z</time></trkpt><trkpt lat="42.2491064" lon="13.8051119"><ele>335.6666666666667</ele><time>2026-05-02T09:32:26.936Z</time></trkpt><trkpt lat="42.2491654" lon="13.8050577"><ele>336.0</ele><time>2026-05-02T09:32:27.937Z</time></trkpt><trkpt lat="42.2492194" lon="13.8049928"><ele>336.3333333333333</ele><time>2026-05-02T09:32:28.937Z</time></trkpt><trkpt lat="42.2492661" lon="13.804922"><ele>336.66666666666663</ele><time>2026-05-02T09:32:29.936Z</time></trkpt><trkpt lat="42.2493194" lon="13.8048641"><ele>337.0</ele><time>2026-05-02T09:32:30.936Z</time></trkpt><trkpt lat="42.2494171" lon="13.8048016"><ele>337.0</ele><time>2026-05-02T09:32:32.938Z</time></trkpt><trkpt lat="42.2495222" lon="13.804847"><ele>337.0</ele><time>2026-05-02T09:32:34.937Z</time></trkpt><trkpt lat="42.2495887" lon="13.8049177"><ele>337.0</ele><time>2026-05-02T09:32:35.936Z</time></trkpt><trkpt lat="42.249662" lon="13.8049767"><ele>337.0</ele><time>2026-05-02T09:32:36.937Z</time></trkpt><trkpt lat="42.2497488" lon="13.8050239"><ele>337.0</ele><time>2026-05-02T09:32:37.937Z</time></trkpt><trkpt lat="42.2498361" lon="13.8050447"><ele>337.40000000000003</ele><time>2026-05-02T09:32:38.937Z</time></trkpt><trkpt lat="42.2499296" lon="13.80505"><ele>337.8</ele><time>2026-05-02T09:32:39.936Z</time></trkpt><trkpt lat="42.2500245" lon="13.8050373"><ele>338.2</ele><time>2026-05-02T09:32:40.937Z</time></trkpt><trkpt lat="42.2501192" lon="13.8050284"><ele>338.6</ele><time>2026-05-02T09:32:41.935Z</time></trkpt><trkpt lat="42.2502197" lon="13.8050166"><ele>339.0</ele><time>2026-05-02T09:32:42.937Z</time></trkpt><trkpt lat="42.2503199" lon="13.8050058"><ele>339.0</ele><time>2026-05-02T09:32:43.936Z</time></trkpt><trkpt lat="42.2504283" lon="13.8049975"><ele>339.0</ele><time>2026-05-02T09:32:44.935Z</time></trkpt><trkpt lat="42.2505396" lon="13.8049884"><ele>339.0</ele><time>2026-05-02T09:32:45.936Z</time></trkpt><trkpt lat="42.250658" lon="13.8049825"><ele>339.0</ele><time>2026-05-02T09:32:46.936Z</time></trkpt><trkpt lat="42.2507727" lon="13.8049691"><ele>341.0</ele><time>2026-05-02T09:32:47.937Z</time></trkpt><trkpt lat="42.2508811" lon="13.8049712"><ele>343.0</ele><time>2026-05-02T09:32:48.936Z</time></trkpt><trkpt lat="42.2509794" lon="13.8049998"><ele>345.0</ele><time>2026-05-02T09:32:49.936Z</time></trkpt><trkpt lat="42.2510574" lon="13.8050582"><ele>347.0</ele><time>2026-05-02T09:32:50.936Z</time></trkpt><trkpt lat="42.2511271" lon="13.8051401"><ele>349.0</ele><time>2026-05-02T09:32:51.937Z</time></trkpt><trkpt lat="42.2511666" lon="13.8052568"><ele>349.25</ele><time>2026-05-02T09:32:52.935Z</time></trkpt><trkpt lat="42.2511949" lon="13.805402"><ele>349.5</ele><time>2026-05-02T09:32:53.936Z</time></trkpt><trkpt lat="42.2512123" lon="13.8055654"><ele>349.75</ele><time>2026-05-02T09:32:54.935Z</time></trkpt><trkpt lat="42.2512334" lon="13.805733"><ele>350.0</ele><time>2026-05-02T09:32:55.937Z</time></trkpt><trkpt lat="42.2512663" lon="13.805909"><ele>349.75</ele><time>2026-05-02T09:32:56.937Z</time></trkpt><trkpt lat="42.2513091" lon="13.8060811"><ele>349.5</ele><time>2026-05-02T09:32:57.936Z</time></trkpt><trkpt lat="42.2513702" lon="13.8062493"><ele>349.25</ele><time>2026-05-02T09:32:58.937Z</time></trkpt><trkpt lat="42.2514398" lon="13.8064156"><ele>349.0</ele><time>2026-05-02T09:32:59.938Z</time></trkpt><trkpt lat="42.2515129" lon="13.8065802"><ele>351.0</ele><time>2026-05-02T09:33:00.937Z</time></trkpt><trkpt lat="42.2515911" lon="13.8067493"><ele>353.0</ele><time>2026-05-02T09:33:01.937Z</time></trkpt><trkpt lat="42.2516682" lon="13.8069156"><ele>355.0</ele><time>2026-05-02T09:33:02.936Z</time></trkpt><trkpt lat="42.2517452" lon="13.8070859"><ele>357.0</ele><time>2026-05-02T09:33:03.935Z</time></trkpt><trkpt lat="42.2518185" lon="13.807257"><ele>357.0</ele><time>2026-05-02T09:33:04.937Z</time></trkpt><trkpt lat="42.2519017" lon="13.8074237"><ele>357.0</ele><time>2026-05-02T09:33:05.937Z</time></trkpt><trkpt lat="42.2519811" lon="13.8075938"><ele>357.0</ele><time>2026-05-02T09:33:06.936Z</time></trkpt><trkpt lat="42.2520569" lon="13.8077623"><ele>357.0</ele><time>2026-05-02T09:33:07.936Z</time></trkpt><trkpt lat="42.2521332" lon="13.8079212"><ele>357.0</ele><time>2026-05-02T09:33:08.937Z</time></trkpt><trkpt lat="42.2522125" lon="13.8080795"><ele>357.0</ele><time>2026-05-02T09:33:09.937Z</time></trkpt><trkpt lat="42.2522984" lon="13.8082296"><ele>357.0</ele><time>2026-05-02T09:33:10.936Z</time></trkpt><trkpt lat="42.2523813" lon="13.8083764"><ele>357.0</ele><time>2026-05-02T09:33:11.936Z</time></trkpt><trkpt lat="42.252464" lon="13.8085135"><ele>358.8</ele><time>2026-05-02T09:33:12.938Z</time></trkpt><trkpt lat="42.2525487" lon="13.8086514"><ele>360.6</ele><time>2026-05-02T09:33:13.937Z</time></trkpt><trkpt lat="42.2526149" lon="13.8087784"><ele>362.40000000000003</ele><time>2026-05-02T09:33:14.936Z</time></trkpt><trkpt lat="42.2526736" lon="13.8088845"><ele>364.20000000000005</ele><time>2026-05-02T09:33:15.937Z</time></trkpt><trkpt lat="42.2527095" lon="13.8089812"><ele>366.0</ele><time>2026-05-02T09:33:16.936Z</time></trkpt><trkpt lat="42.2527494" lon="13.8090819"><ele>366.0</ele><time>2026-05-02T09:33:17.936Z</time></trkpt><trkpt lat="42.2527856" lon="13.8091671"><ele>366.0</ele><time>2026-05-02T09:33:18.936Z</time></trkpt><trkpt lat="42.2528439" lon="13.809269"><ele>366.0</ele><time>2026-05-02T09:33:20.937Z</time></trkpt><trkpt lat="42.2529154" lon="13.8093691"><ele>366.0</ele><time>2026-05-02T09:33:22.936Z</time></trkpt><trkpt lat="42.2529681" lon="13.8094441"><ele>366.0</ele><time>2026-05-02T09:33:23.936Z</time></trkpt><trkpt lat="42.2530438" lon="13.8095327"><ele>366.0</ele><time>2026-05-02T09:33:24.936Z</time></trkpt><trkpt lat="42.253126" lon="13.8096212"><ele>367.8</ele><time>2026-05-02T09:33:25.937Z</time></trkpt><trkpt lat="42.2532106" lon="13.809711"><ele>369.6</ele><time>2026-05-02T09:33:26.937Z</time></trkpt><trkpt lat="42.2532907" lon="13.8098189"><ele>371.4</ele><time>2026-05-02T09:33:27.936Z</time></trkpt><trkpt lat="42.2533772" lon="13.809922"><ele>373.2</ele><time>2026-05-02T09:33:28.935Z</time></trkpt><trkpt lat="42.2534664" lon="13.8100067"><ele>375.0</ele><time>2026-05-02T09:33:29.937Z</time></trkpt><trkpt lat="42.2535653" lon="13.8100998"><ele>374.75</ele><time>2026-05-02T09:33:30.936Z</time></trkpt><trkpt lat="42.2536629" lon="13.8101868"><ele>374.5</ele><time>2026-05-02T09:33:31.936Z</time></trkpt><trkpt lat="42.2537566" lon="13.8102876"><ele>374.25</ele><time>2026-05-02T09:33:32.937Z</time></trkpt><trkpt lat="42.2538472" lon="13.8104015"><ele>374.0</ele><time>2026-05-02T09:33:33.936Z</time></trkpt><trkpt lat="42.2539387" lon="13.810521"><ele>375.5</ele><time>2026-05-02T09:33:34.938Z</time></trkpt><trkpt lat="42.2540238" lon="13.8106372"><ele>377.0</ele><time>2026-05-02T09:33:35.938Z</time></trkpt><trkpt lat="42.2541166" lon="13.810752"><ele>378.5</ele><time>2026-05-02T09:33:36.936Z</time></trkpt><trkpt lat="42.2542104" lon="13.8108537"><ele>380.0</ele><time>2026-05-02T09:33:37.936Z</time></trkpt><trkpt lat="42.2543012" lon="13.81095"><ele>380.2</ele><time>2026-05-02T09:33:38.936Z</time></trkpt><trkpt lat="42.2543829" lon="13.8110574"><ele>380.4</ele><time>2026-05-02T09:33:39.936Z</time></trkpt><trkpt lat="42.2544555" lon="13.8111721"><ele>380.6</ele><time>2026-05-02T09:33:40.936Z</time></trkpt><trkpt lat="42.2545167" lon="13.8112946"><ele>380.8</ele><time>2026-05-02T09:33:41.935Z</time></trkpt><trkpt lat="42.2545667" lon="13.8114097"><ele>381.0</ele><time>2026-05-02T09:33:42.938Z</time></trkpt><trkpt lat="42.2546047" lon="13.8115317"><ele>381.0</ele><time>2026-05-02T09:33:43.937Z</time></trkpt><trkpt lat="42.254634" lon="13.8116371"><ele>381.0</ele><time>2026-05-02T09:33:44.937Z</time></trkpt><trkpt lat="42.2546625" lon="13.8117248"><ele>381.0</ele><time>2026-05-02T09:33:45.937Z</time></trkpt><trkpt lat="42.2547186" lon="13.8117893"><ele>381.0</ele><time>2026-05-02T09:33:47.937Z</time></trkpt><trkpt lat="42.2547788" lon="13.8117478"><ele>381.0</ele><time>2026-05-02T09:33:50.937Z</time></trkpt><trkpt lat="42.2548284" lon="13.8116695"><ele>381.0</ele><time>2026-05-02T09:33:52.936Z</time></trkpt><trkpt lat="42.254899" lon="13.8115702"><ele>382.20000000000005</ele><time>2026-05-02T09:33:54.937Z</time></trkpt><trkpt lat="42.2549604" lon="13.8114633"><ele>383.40000000000003</ele><time>2026-05-02T09:33:56.936Z</time></trkpt><trkpt lat="42.2550246" lon="13.8113356"><ele>384.6</ele><time>2026-05-02T09:33:58.936Z</time></trkpt><trkpt lat="42.2550916" lon="13.811199"><ele>385.8</ele><time>2026-05-02T09:34:00.935Z</time></trkpt><trkpt lat="42.255161" lon="13.8110772"><ele>387.0</ele><time>2026-05-02T09:34:02.935Z</time></trkpt><trkpt lat="42.2552264" lon="13.8109438"><ele>387.0</ele><time>2026-05-02T09:34:04.937Z</time></trkpt><trkpt lat="42.255266" lon="13.810844"><ele>387.0</ele><time>2026-05-02T09:34:06.937Z</time></trkpt><trkpt lat="42.2552999" lon="13.810755"><ele>387.0</ele><time>2026-05-02T09:34:09.937Z</time></trkpt><trkpt lat="42.255345" lon="13.8106166"><ele>387.0</ele><time>2026-05-02T09:34:31.936Z</time></trkpt><trkpt lat="42.2553866" lon="13.810523"><ele>387.0</ele><time>2026-05-02T09:34:32.937Z</time></trkpt><trkpt lat="42.2554424" lon="13.8104218"><ele>387.0</ele><time>2026-05-02T09:34:33.936Z</time></trkpt><trkpt lat="42.2555095" lon="13.810312"><ele>387.0</ele><time>2026-05-02T09:34:34.935Z</time></trkpt><trkpt lat="42.2555913" lon="13.8101971"><ele>387.0</ele><time>2026-05-02T09:34:35.936Z</time></trkpt><trkpt lat="42.2556757" lon="13.8100832"><ele>387.0</ele><time>2026-05-02T09:34:36.937Z</time></trkpt><trkpt lat="42.2557565" lon="13.8099667"><ele>387.0</ele><time>2026-05-02T09:34:37.937Z</time></trkpt><trkpt lat="42.2558246" lon="13.8098381"><ele>387.25</ele><time>2026-05-02T09:34:38.936Z</time></trkpt><trkpt lat="42.2558921" lon="13.8097084"><ele>387.5</ele><time>2026-05-02T09:34:39.937Z</time></trkpt><trkpt lat="42.2559621" lon="13.809574"><ele>387.75</ele><time>2026-05-02T09:34:40.936Z</time></trkpt><trkpt lat="42.2560314" lon="13.809448"><ele>388.0</ele><time>2026-05-02T09:34:41.938Z</time></trkpt><trkpt lat="42.2560983" lon="13.8093351"><ele>387.79999999999995</ele><time>2026-05-02T09:34:42.937Z</time></trkpt><trkpt lat="42.2561641" lon="13.8092251"><ele>387.6</ele><time>2026-05-02T09:34:43.936Z</time></trkpt><trkpt lat="42.2562375" lon="13.8091217"><ele>387.4</ele><time>2026-05-02T09:34:44.935Z</time></trkpt><trkpt lat="42.2563153" lon="13.8090243"><ele>387.20000000000005</ele><time>2026-05-02T09:34:45.937Z</time></trkpt><trkpt lat="42.2563953" lon="13.8089408"><ele>387.0</ele><time>2026-05-02T09:34:46.937Z</time></trkpt><trkpt lat="42.2564762" lon="13.8088623"><ele>387.0</ele><time>2026-05-02T09:34:47.937Z</time></trkpt><trkpt lat="42.2565524" lon="13.8087742"><ele>387.0</ele><time>2026-05-02T09:34:48.938Z</time></trkpt><trkpt lat="42.2566261" lon="13.8086835"><ele>387.0</ele><time>2026-05-02T09:34:49.937Z</time></trkpt><trkpt lat="42.2567088" lon="13.8086301"><ele>387.0</ele><time>2026-05-02T09:34:50.936Z</time></trkpt><trkpt lat="42.2567889" lon="13.808591"><ele>387.0</ele><time>2026-05-02T09:34:51.937Z</time></trkpt><trkpt lat="42.2568638" lon="13.8085701"><ele>387.0</ele><time>2026-05-02T09:34:52.936Z</time></trkpt><trkpt lat="42.2569342" lon="13.8085359"><ele>387.0</ele><time>2026-05-02T09:34:53.937Z</time></trkpt><trkpt lat="42.257003" lon="13.8084841"><ele>387.0</ele><time>2026-05-02T09:34:54.936Z</time></trkpt><trkpt lat="42.2570795" lon="13.8084181"><ele>387.0</ele><time>2026-05-02T09:34:55.937Z</time></trkpt><trkpt lat="42.2571731" lon="13.8083368"><ele>387.0</ele><time>2026-05-02T09:34:56.935Z</time></trkpt><trkpt lat="42.2572684" lon="13.8082417"><ele>386.25</ele><time>2026-05-02T09:34:57.936Z</time></trkpt><trkpt lat="42.25737" lon="13.8081562"><ele>385.5</ele><time>2026-05-02T09:34:58.935Z</time></trkpt><trkpt lat="42.2574765" lon="13.8080856"><ele>384.75</ele><time>2026-05-02T09:34:59.938Z</time></trkpt><trkpt lat="42.2575821" lon="13.8080016"><ele>384.0</ele><time>2026-05-02T09:35:00.936Z</time></trkpt><trkpt lat="42.257692" lon="13.8079214"><ele>384.0</ele><time>2026-05-02T09:35:01.937Z</time></trkpt><trkpt lat="42.2577918" lon="13.8078335"><ele>384.0</ele><time>2026-05-02T09:35:02.936Z</time></trkpt><trkpt lat="42.2578906" lon="13.8077388"><ele>384.0</ele><time>2026-05-02T09:35:03.936Z</time></trkpt><trkpt lat="42.2579814" lon="13.8076453"><ele>384.0</ele><time>2026-05-02T09:35:04.936Z</time></trkpt><trkpt lat="42.2580758" lon="13.8075631"><ele>382.79999999999995</ele><time>2026-05-02T09:35:05.936Z</time></trkpt><trkpt lat="42.2581699" lon="13.8074933"><ele>381.59999999999997</ele><time>2026-05-02T09:35:06.936Z</time></trkpt><trkpt lat="42.2582748" lon="13.8074349"><ele>380.4</ele><time>2026-05-02T09:35:07.937Z</time></trkpt><trkpt lat="42.258382" lon="13.8073895"><ele>379.2</ele><time>2026-05-02T09:35:08.936Z</time></trkpt><trkpt lat="42.2584861" lon="13.8073498"><ele>378.0</ele><time>2026-05-02T09:35:09.936Z</time></trkpt><trkpt lat="42.258589" lon="13.8073238"><ele>378.0</ele><time>2026-05-02T09:35:10.936Z</time></trkpt><trkpt lat="42.2586925" lon="13.8072953"><ele>378.0</ele><time>2026-05-02T09:35:11.936Z</time></trkpt><trkpt lat="42.2587986" lon="13.8072517"><ele>378.0</ele><time>2026-05-02T09:35:12.938Z</time></trkpt><trkpt lat="42.2589063" lon="13.8072078"><ele>378.0</ele><time>2026-05-02T09:35:13.937Z</time></trkpt><trkpt lat="42.2590093" lon="13.8071589"><ele>378.0</ele><time>2026-05-02T09:35:14.936Z</time></trkpt><trkpt lat="42.2591068" lon="13.8071049"><ele>377.79999999999995</ele><time>2026-05-02T09:35:15.936Z</time></trkpt><trkpt lat="42.2592006" lon="13.8070479"><ele>377.6</ele><time>2026-05-02T09:35:16.937Z</time></trkpt><trkpt lat="42.2592939" lon="13.8069775"><ele>377.4</ele><time>2026-05-02T09:35:17.936Z</time></trkpt><trkpt lat="42.2593921" lon="13.8069061"><ele>377.20000000000005</ele><time>2026-05-02T09:35:18.936Z</time></trkpt><trkpt lat="42.2594959" lon="13.8068429"><ele>377.0</ele><time>2026-05-02T09:35:19.936Z</time></trkpt><trkpt lat="42.2595992" lon="13.8067846"><ele>377.0</ele><time>2026-05-02T09:35:20.938Z</time></trkpt><trkpt lat="42.2597071" lon="13.8067294"><ele>377.0</ele><time>2026-05-02T09:35:21.936Z</time></trkpt><trkpt lat="42.2598095" lon="13.8066799"><ele>377.0</ele><time>2026-05-02T09:35:22.936Z</time></trkpt><trkpt lat="42.2599142" lon="13.8066252"><ele>377.0</ele><time>2026-05-02T09:35:23.937Z</time></trkpt><trkpt lat="42.2600202" lon="13.8065722"><ele>377.0</ele><time>2026-05-02T09:35:24.935Z</time></trkpt><trkpt lat="42.2601195" lon="13.8064999"><ele>377.0</ele><time>2026-05-02T09:35:25.936Z</time></trkpt><trkpt lat="42.2602216" lon="13.8064282"><ele>377.0</ele><time>2026-05-02T09:35:26.936Z</time></trkpt><trkpt lat="42.2603202" lon="13.8063505"><ele>377.0</ele><time>2026-05-02T09:35:27.936Z</time></trkpt><trkpt lat="42.2604214" lon="13.8062681"><ele>377.0</ele><time>2026-05-02T09:35:28.935Z</time></trkpt><trkpt lat="42.2605265" lon="13.8061908"><ele>377.0</ele><time>2026-05-02T09:35:29.936Z</time></trkpt><trkpt lat="42.2606377" lon="13.8061114"><ele>377.0</ele><time>2026-05-02T09:35:30.936Z</time></trkpt><trkpt lat="42.2607427" lon="13.8060418"><ele>377.0</ele><time>2026-05-02T09:35:31.937Z</time></trkpt><trkpt lat="42.2608472" lon="13.8059704"><ele>377.0</ele><time>2026-05-02T09:35:32.936Z</time></trkpt><trkpt lat="42.2609373" lon="13.8059081"><ele>376.5</ele><time>2026-05-02T09:35:33.936Z</time></trkpt><trkpt lat="42.2610072" lon="13.8058548"><ele>376.0</ele><time>2026-05-02T09:35:34.935Z</time></trkpt><trkpt lat="42.2610765" lon="13.8057674"><ele>375.5</ele><time>2026-05-02T09:35:36.936Z</time></trkpt><trkpt lat="42.2611185" lon="13.805704"><ele>375.0</ele><time>2026-05-02T09:35:39.937Z</time></trkpt><trkpt lat="42.2611901" lon="13.8056737"><ele>374.5</ele><time>2026-05-02T09:35:43.937Z</time></trkpt><trkpt lat="42.2612835" lon="13.8056258"><ele>374.0</ele><time>2026-05-02T09:35:51.936Z</time></trkpt><trkpt lat="42.2613476" lon="13.8055916"><ele>374.0</ele><time>2026-05-02T09:35:52.936Z</time></trkpt><trkpt lat="42.2614124" lon="13.8055558"><ele>374.0</ele><time>2026-05-02T09:35:53.937Z</time></trkpt><trkpt lat="42.2615166" lon="13.8055135"><ele>374.0</ele><time>2026-05-02T09:35:54.937Z</time></trkpt><trkpt lat="42.2616159" lon="13.805474"><ele>374.0</ele><time>2026-05-02T09:35:55.937Z</time></trkpt><trkpt lat="42.2617329" lon="13.8054294"><ele>374.0</ele><time>2026-05-02T09:35:56.937Z</time></trkpt><trkpt lat="42.2618344" lon="13.8053958"><ele>373.5</ele><time>2026-05-02T09:35:57.936Z</time></trkpt><trkpt lat="42.2619255" lon="13.8053551"><ele>373.0</ele><time>2026-05-02T09:35:58.937Z</time></trkpt><trkpt lat="42.2620088" lon="13.8053162"><ele>372.5</ele><time>2026-05-02T09:35:59.936Z</time></trkpt><trkpt lat="42.2620892" lon="13.805278"><ele>372.0</ele><time>2026-05-02T09:36:00.938Z</time></trkpt><trkpt lat="42.262157" lon="13.8052593"><ele>371.5</ele><time>2026-05-02T09:36:01.936Z</time></trkpt><trkpt lat="42.2622473" lon="13.8052545"><ele>371.0</ele><time>2026-05-02T09:36:03.938Z</time></trkpt><trkpt lat="42.2623199" lon="13.8052501"><ele>370.8</ele><time>2026-05-02T09:36:09.937Z</time></trkpt><trkpt lat="42.2623915" lon="13.8052876"><ele>370.6</ele><time>2026-05-02T09:36:11.936Z</time></trkpt><trkpt lat="42.2624897" lon="13.8053076"><ele>370.4</ele><time>2026-05-02T09:36:13.938Z</time></trkpt><trkpt lat="42.2626141" lon="13.805272"><ele>370.2</ele><time>2026-05-02T09:36:15.935Z</time></trkpt><trkpt lat="42.2627412" lon="13.805232"><ele>370.0</ele><time>2026-05-02T09:36:17.938Z</time></trkpt><trkpt lat="42.262841" lon="13.8052093"><ele>370.0</ele><time>2026-05-02T09:36:18.935Z</time></trkpt><trkpt lat="42.2629282" lon="13.8051772"><ele>370.0</ele><time>2026-05-02T09:36:19.937Z</time></trkpt><trkpt lat="42.2630321" lon="13.8051582"><ele>370.0</ele><time>2026-05-02T09:36:20.936Z</time></trkpt><trkpt lat="42.2631374" lon="13.8051428"><ele>370.0</ele><time>2026-05-02T09:36:21.937Z</time></trkpt><trkpt lat="42.2632703" lon="13.8051127"><ele>370.0</ele><time>2026-05-02T09:36:22.937Z</time></trkpt><trkpt lat="42.263387" lon="13.8050969"><ele>369.0</ele><time>2026-05-02T09:36:23.938Z</time></trkpt><trkpt lat="42.2635023" lon="13.8050798"><ele>368.0</ele><time>2026-05-02T09:36:24.936Z</time></trkpt><trkpt lat="42.2636089" lon="13.8050636"><ele>367.0</ele><time>2026-05-02T09:36:25.937Z</time></trkpt><trkpt lat="42.2637192" lon="13.8050431"><ele>366.0</ele><time>2026-05-02T09:36:26.936Z</time></trkpt><trkpt lat="42.2638281" lon="13.8050257"><ele>365.0</ele><time>2026-05-02T09:36:27.936Z</time></trkpt><trkpt lat="42.2639477" lon="13.8050095"><ele>364.25</ele><time>2026-05-02T09:36:28.937Z</time></trkpt><trkpt lat="42.2640688" lon="13.8049973"><ele>363.5</ele><time>2026-05-02T09:36:29.936Z</time></trkpt><trkpt lat="42.2641824" lon="13.8049889"><ele>362.75</ele><time>2026-05-02T09:36:30.936Z</time></trkpt><trkpt lat="42.2643045" lon="13.8049854"><ele>362.0</ele><time>2026-05-02T09:36:31.936Z</time></trkpt><trkpt lat="42.2644259" lon="13.8049865"><ele>362.0</ele><time>2026-05-02T09:36:32.936Z</time></trkpt><trkpt lat="42.2645483" lon="13.8049728"><ele>362.0</ele><time>2026-05-02T09:36:33.936Z</time></trkpt><trkpt lat="42.2646782" lon="13.8049473"><ele>362.0</ele><time>2026-05-02T09:36:34.937Z</time></trkpt><trkpt lat="42.2648041" lon="13.8049203"><ele>362.0</ele><time>2026-05-02T09:36:35.936Z</time></trkpt><trkpt lat="42.2649329" lon="13.8048847"><ele>361.0</ele><time>2026-05-02T09:36:36.936Z</time></trkpt><trkpt lat="42.265072" lon="13.8048471"><ele>360.0</ele><time>2026-05-02T09:36:37.936Z</time></trkpt><trkpt lat="42.2652133" lon="13.8048016"><ele>359.0</ele><time>2026-05-02T09:36:38.936Z</time></trkpt><trkpt lat="42.2653538" lon="13.8047493"><ele>358.0</ele><time>2026-05-02T09:36:39.938Z</time></trkpt><trkpt lat="42.2654906" lon="13.8047001"><ele>357.5</ele><time>2026-05-02T09:36:40.936Z</time></trkpt><trkpt lat="42.2656219" lon="13.8046524"><ele>357.0</ele><time>2026-05-02T09:36:41.936Z</time></trkpt><trkpt lat="42.2657558" lon="13.8045974"><ele>356.5</ele><time>2026-05-02T09:36:42.936Z</time></trkpt><trkpt lat="42.2658822" lon="13.8045556"><ele>356.0</ele><time>2026-05-02T09:36:43.936Z</time></trkpt><trkpt lat="42.2660054" lon="13.8045108"><ele>356.0</ele><time>2026-05-02T09:36:44.935Z</time></trkpt><trkpt lat="42.2661198" lon="13.8044674"><ele>356.0</ele><time>2026-05-02T09:36:45.935Z</time></trkpt><trkpt lat="42.2662309" lon="13.8044238"><ele>356.0</ele><time>2026-05-02T09:36:46.935Z</time></trkpt><trkpt lat="42.2663306" lon="13.8043618"><ele>356.0</ele><time>2026-05-02T09:36:47.936Z</time></trkpt><trkpt lat="42.2664217" lon="13.8042931"><ele>356.0</ele><time>2026-05-02T09:36:48.936Z</time></trkpt><trkpt lat="42.2665122" lon="13.8042162"><ele>355.8</ele><time>2026-05-02T09:36:49.936Z</time></trkpt><trkpt lat="42.2665953" lon="13.8041453"><ele>355.6</ele><time>2026-05-02T09:36:50.936Z</time></trkpt><trkpt lat="42.2666803" lon="13.8040711"><ele>355.4</ele><time>2026-05-02T09:36:51.937Z</time></trkpt><trkpt lat="42.2667495" lon="13.8039996"><ele>355.2</ele><time>2026-05-02T09:36:52.935Z</time></trkpt><trkpt lat="42.266811" lon="13.8039222"><ele>355.0</ele><time>2026-05-02T09:36:53.936Z</time></trkpt><trkpt lat="42.2668681" lon="13.803845"><ele>355.0</ele><time>2026-05-02T09:36:54.936Z</time></trkpt><trkpt lat="42.2669229" lon="13.8037617"><ele>355.0</ele><time>2026-05-02T09:36:55.936Z</time></trkpt><trkpt lat="42.266959" lon="13.8036723"><ele>355.0</ele><time>2026-05-02T09:36:56.936Z</time></trkpt><trkpt lat="42.267001" lon="13.8036087"><ele>355.0</ele><time>2026-05-02T09:36:57.937Z</time></trkpt><trkpt lat="42.2670263" lon="13.8035059"><ele>355.0</ele><time>2026-05-02T09:36:59.936Z</time></trkpt><trkpt lat="42.2670404" lon="13.8033718"><ele>355.0</ele><time>2026-05-02T09:37:38.936Z</time></trkpt><trkpt lat="42.2670753" lon="13.8032316"><ele>355.4</ele><time>2026-05-02T09:37:40.935Z</time></trkpt><trkpt lat="42.2671713" lon="13.8030748"><ele>355.8</ele><time>2026-05-02T09:37:42.936Z</time></trkpt><trkpt lat="42.2672342" lon="13.8029832"><ele>356.20000000000005</ele><time>2026-05-02T09:37:43.935Z</time></trkpt><trkpt lat="42.2672925" lon="13.8029001"><ele>356.6</ele><time>2026-05-02T09:37:44.937Z</time></trkpt><trkpt lat="42.267346" lon="13.8028169"><ele>357.0</ele><time>2026-05-02T09:37:45.935Z</time></trkpt><trkpt lat="42.2674009" lon="13.8027448"><ele>357.0</ele><time>2026-05-02T09:37:46.936Z</time></trkpt><trkpt lat="42.2674626" lon="13.8026659"><ele>357.0</ele><time>2026-05-02T09:37:48.936Z</time></trkpt><trkpt lat="42.2674765" lon="13.8025627"><ele>357.0</ele><time>2026-05-02T09:37:50.937Z</time></trkpt><trkpt lat="42.2675426" lon="13.8024469"><ele>357.0</ele><time>2026-05-02T09:37:52.936Z</time></trkpt><trkpt lat="42.2675889" lon="13.8023671"><ele>357.0</ele><time>2026-05-02T09:37:53.936Z</time></trkpt><trkpt lat="42.2676423" lon="13.8022828"><ele>357.0</ele><time>2026-05-02T09:37:54.936Z</time></trkpt><trkpt lat="42.2676985" lon="13.8022102"><ele>356.40000000000003</ele><time>2026-05-02T09:37:55.936Z</time></trkpt><trkpt lat="42.2677581" lon="13.8021339"><ele>355.8</ele><time>2026-05-02T09:37:56.936Z</time></trkpt><trkpt lat="42.2678248" lon="13.8020597"><ele>355.2</ele><time>2026-05-02T09:37:57.936Z</time></trkpt><trkpt lat="42.2678976" lon="13.8019812"><ele>354.6</ele><time>2026-05-02T09:37:58.937Z</time></trkpt><trkpt lat="42.2679674" lon="13.8018967"><ele>354.0</ele><time>2026-05-02T09:37:59.937Z</time></trkpt><trkpt lat="42.2680452" lon="13.801813"><ele>353.75</ele><time>2026-05-02T09:38:00.935Z</time></trkpt><trkpt lat="42.2681284" lon="13.801715"><ele>353.5</ele><time>2026-05-02T09:38:01.937Z</time></trkpt><trkpt lat="42.2682233" lon="13.8016093"><ele>353.25</ele><time>2026-05-02T09:38:02.935Z</time></trkpt><trkpt lat="42.2683209" lon="13.80151"><ele>353.0</ele><time>2026-05-02T09:38:03.936Z</time></trkpt><trkpt lat="42.2684244" lon="13.8014063"><ele>353.0</ele><time>2026-05-02T09:38:04.936Z</time></trkpt><trkpt lat="42.2685275" lon="13.8012917"><ele>353.0</ele><time>2026-05-02T09:38:05.936Z</time></trkpt><trkpt lat="42.2686288" lon="13.8011775"><ele>353.0</ele><time>2026-05-02T09:38:06.935Z</time></trkpt><trkpt lat="42.2687429" lon="13.8010621"><ele>353.0</ele><time>2026-05-02T09:38:07.935Z</time></trkpt><trkpt lat="42.2688581" lon="13.8009549"><ele>352.75</ele><time>2026-05-02T09:38:08.936Z</time></trkpt><trkpt lat="42.2689652" lon="13.8008519"><ele>352.5</ele><time>2026-05-02T09:38:09.936Z</time></trkpt><trkpt lat="42.2690698" lon="13.8007655"><ele>352.25</ele><time>2026-05-02T09:38:10.936Z</time></trkpt><trkpt lat="42.2691779" lon="13.8006887"><ele>352.0</ele><time>2026-05-02T09:38:11.937Z</time></trkpt><trkpt lat="42.2692821" lon="13.8006294"><ele>352.0</ele><time>2026-05-02T09:38:12.936Z</time></trkpt><trkpt lat="42.2693878" lon="13.8005974"><ele>352.0</ele><time>2026-05-02T09:38:13.936Z</time></trkpt><trkpt lat="42.2694966" lon="13.8005632"><ele>352.0</ele><time>2026-05-02T09:38:14.937Z</time></trkpt><trkpt lat="42.2695881" lon="13.800509"><ele>352.0</ele><time>2026-05-02T09:38:15.936Z</time></trkpt><trkpt lat="42.2696827" lon="13.8004278"><ele>352.0</ele><time>2026-05-02T09:38:16.936Z</time></trkpt><trkpt lat="42.2697793" lon="13.8003303"><ele>352.0</ele><time>2026-05-02T09:38:17.935Z</time></trkpt><trkpt lat="42.2698726" lon="13.8002195"><ele>352.0</ele><time>2026-05-02T09:38:18.936Z</time></trkpt><trkpt lat="42.2699637" lon="13.8001116"><ele>352.0</ele><time>2026-05-02T09:38:19.936Z</time></trkpt><trkpt lat="42.2700569" lon="13.7999937"><ele>352.0</ele><time>2026-05-02T09:38:20.936Z</time></trkpt><trkpt lat="42.2701431" lon="13.7998961"><ele>350.75</ele><time>2026-05-02T09:38:21.936Z</time></trkpt><trkpt lat="42.270234" lon="13.7998064"><ele>349.5</ele><time>2026-05-02T09:38:22.937Z</time></trkpt><trkpt lat="42.2703448" lon="13.7997262"><ele>348.25</ele><time>2026-05-02T09:38:23.935Z</time></trkpt><trkpt lat="42.270453" lon="13.7996469"><ele>347.0</ele><time>2026-05-02T09:38:24.936Z</time></trkpt><trkpt lat="42.27056" lon="13.7995678"><ele>347.75</ele><time>2026-05-02T09:38:25.936Z</time></trkpt><trkpt lat="42.2706657" lon="13.7995003"><ele>348.5</ele><time>2026-05-02T09:38:26.936Z</time></trkpt><trkpt lat="42.2707901" lon="13.7994559"><ele>349.25</ele><time>2026-05-02T09:38:27.936Z</time></trkpt><trkpt lat="42.2709061" lon="13.7994172"><ele>350.0</ele><time>2026-05-02T09:38:28.936Z</time></trkpt><trkpt lat="42.2710348" lon="13.7993656"><ele>349.5</ele><time>2026-05-02T09:38:29.936Z</time></trkpt><trkpt lat="42.2711602" lon="13.7993112"><ele>349.0</ele><time>2026-05-02T09:38:30.936Z</time></trkpt><trkpt lat="42.2712951" lon="13.7992512"><ele>348.5</ele><time>2026-05-02T09:38:31.936Z</time></trkpt><trkpt lat="42.271421" lon="13.7991845"><ele>348.0</ele><time>2026-05-02T09:38:32.936Z</time></trkpt><trkpt lat="42.2715386" lon="13.7991215"><ele>348.0</ele><time>2026-05-02T09:38:33.937Z</time></trkpt><trkpt lat="42.2716671" lon="13.7990594"><ele>348.0</ele><time>2026-05-02T09:38:34.936Z</time></trkpt><trkpt lat="42.2717943" lon="13.7989995"><ele>348.0</ele><time>2026-05-02T09:38:35.935Z</time></trkpt><trkpt lat="42.2719166" lon="13.7989319"><ele>348.0</ele><time>2026-05-02T09:38:36.936Z</time></trkpt><trkpt lat="42.2720407" lon="13.7988639"><ele>348.0</ele><time>2026-05-02T09:38:37.936Z</time></trkpt><trkpt lat="42.272162" lon="13.7987939"><ele>348.0</ele><time>2026-05-02T09:38:38.936Z</time></trkpt><trkpt lat="42.272285" lon="13.7987131"><ele>348.0</ele><time>2026-05-02T09:38:39.936Z</time></trkpt><trkpt lat="42.2723902" lon="13.7986342"><ele>348.0</ele><time>2026-05-02T09:38:40.936Z</time></trkpt><trkpt lat="42.2724962" lon="13.7985425"><ele>347.75</ele><time>2026-05-02T09:38:41.936Z</time></trkpt><trkpt lat="42.2726024" lon="13.7984519"><ele>347.5</ele><time>2026-05-02T09:38:42.938Z</time></trkpt><trkpt lat="42.2727183" lon="13.7983715"><ele>347.25</ele><time>2026-05-02T09:38:43.936Z</time></trkpt><trkpt lat="42.2728374" lon="13.7982839"><ele>347.0</ele><time>2026-05-02T09:38:44.936Z</time></trkpt><trkpt lat="42.2729347" lon="13.7982021"><ele>347.0</ele><time>2026-05-02T09:38:45.936Z</time></trkpt><trkpt lat="42.27303" lon="13.798124"><ele>347.0</ele><time>2026-05-02T09:38:46.936Z</time></trkpt><trkpt lat="42.2731355" lon="13.7980501"><ele>347.0</ele><time>2026-05-02T09:38:47.936Z</time></trkpt><trkpt lat="42.2732523" lon="13.7979876"><ele>347.0</ele><time>2026-05-02T09:38:48.936Z</time></trkpt><trkpt lat="42.2733729" lon="13.7979158"><ele>346.5</ele><time>2026-05-02T09:38:49.936Z</time></trkpt><trkpt lat="42.2734937" lon="13.7978494"><ele>346.0</ele><time>2026-05-02T09:38:50.936Z</time></trkpt><trkpt lat="42.2736055" lon="13.7977657"><ele>345.5</ele><time>2026-05-02T09:38:51.936Z</time></trkpt><trkpt lat="42.2737312" lon="13.7976793"><ele>345.0</ele><time>2026-05-02T09:38:52.937Z</time></trkpt><trkpt lat="42.2738485" lon="13.7975912"><ele>345.5</ele><time>2026-05-02T09:38:53.936Z</time></trkpt><trkpt lat="42.2739596" lon="13.7975117"><ele>346.0</ele><time>2026-05-02T09:38:54.937Z</time></trkpt><trkpt lat="42.2740704" lon="13.7974341"><ele>346.5</ele><time>2026-05-02T09:38:55.937Z</time></trkpt><trkpt lat="42.2741791" lon="13.797349"><ele>347.0</ele><time>2026-05-02T09:38:56.936Z</time></trkpt><trkpt lat="42.2742732" lon="13.7972456"><ele>347.0</ele><time>2026-05-02T09:38:57.936Z</time></trkpt><trkpt lat="42.2743642" lon="13.7971534"><ele>347.0</ele><time>2026-05-02T09:38:58.936Z</time></trkpt><trkpt lat="42.2744552" lon="13.7970494"><ele>347.0</ele><time>2026-05-02T09:38:59.935Z</time></trkpt><trkpt lat="42.2745576" lon="13.7969721"><ele>347.0</ele><time>2026-05-02T09:39:00.935Z</time></trkpt><trkpt lat="42.2746728" lon="13.7968972"><ele>347.0</ele><time>2026-05-02T09:39:01.936Z</time></trkpt><trkpt lat="42.2747967" lon="13.796817"><ele>347.0</ele><time>2026-05-02T09:39:02.936Z</time></trkpt><trkpt lat="42.2749133" lon="13.7967383"><ele>347.0</ele><time>2026-05-02T09:39:03.936Z</time></trkpt><trkpt lat="42.2750118" lon="13.7966627"><ele>347.0</ele><time>2026-05-02T09:39:04.936Z</time></trkpt><trkpt lat="42.2751018" lon="13.7965879"><ele>347.0</ele><time>2026-05-02T09:39:05.936Z</time></trkpt><trkpt lat="42.2751785" lon="13.7964888"><ele>347.0</ele><time>2026-05-02T09:39:06.935Z</time></trkpt><trkpt lat="42.2752534" lon="13.7963956"><ele>347.0</ele><time>2026-05-02T09:39:07.936Z</time></trkpt><trkpt lat="42.2753335" lon="13.7963272"><ele>347.0</ele><time>2026-05-02T09:39:08.936Z</time></trkpt><trkpt lat="42.2754287" lon="13.7962685"><ele>347.0</ele><time>2026-05-02T09:39:09.936Z</time></trkpt><trkpt lat="42.275535" lon="13.7962321"><ele>347.0</ele><time>2026-05-02T09:39:10.937Z</time></trkpt><trkpt lat="42.2756303" lon="13.7962086"><ele>347.0</ele><time>2026-05-02T09:39:11.936Z</time></trkpt><trkpt lat="42.2757205" lon="13.7961712"><ele>347.0</ele><time>2026-05-02T09:39:12.936Z</time></trkpt><trkpt lat="42.2758057" lon="13.796098"><ele>347.0</ele><time>2026-05-02T09:39:13.937Z</time></trkpt><trkpt lat="42.2759043" lon="13.7960272"><ele>347.0</ele><time>2026-05-02T09:39:14.936Z</time></trkpt><trkpt lat="42.2760082" lon="13.7959257"><ele>347.0</ele><time>2026-05-02T09:39:15.936Z</time></trkpt><trkpt lat="42.2761131" lon="13.7958056"><ele>347.0</ele><time>2026-05-02T09:39:16.936Z</time></trkpt><trkpt lat="42.2762135" lon="13.7956942"><ele>347.0</ele><time>2026-05-02T09:39:17.936Z</time></trkpt><trkpt lat="42.2763076" lon="13.795584"><ele>347.0</ele><time>2026-05-02T09:39:18.936Z</time></trkpt><trkpt lat="42.2764015" lon="13.7954833"><ele>349.25</ele><time>2026-05-02T09:39:19.937Z</time></trkpt><trkpt lat="42.276504" lon="13.7953971"><ele>351.5</ele><time>2026-05-02T09:39:20.936Z</time></trkpt><trkpt lat="42.2766083" lon="13.7953104"><ele>353.75</ele><time>2026-05-02T09:39:21.936Z</time></trkpt><trkpt lat="42.2767166" lon="13.7952708"><ele>356.0</ele><time>2026-05-02T09:39:22.936Z</time></trkpt><trkpt lat="42.2768273" lon="13.7952249"><ele>356.0</ele><time>2026-05-02T09:39:23.936Z</time></trkpt><trkpt lat="42.2769452" lon="13.7951798"><ele>356.0</ele><time>2026-05-02T09:39:24.935Z</time></trkpt><trkpt lat="42.2770673" lon="13.7951489"><ele>356.0</ele><time>2026-05-02T09:39:25.936Z</time></trkpt><trkpt lat="42.2771964" lon="13.7951254"><ele>356.0</ele><time>2026-05-02T09:39:26.936Z</time></trkpt><trkpt lat="42.2773186" lon="13.7951149"><ele>354.6</ele><time>2026-05-02T09:39:27.936Z</time></trkpt><trkpt lat="42.2774316" lon="13.7950933"><ele>353.20000000000005</ele><time>2026-05-02T09:39:28.936Z</time></trkpt><trkpt lat="42.2775305" lon="13.795071"><ele>351.79999999999995</ele><time>2026-05-02T09:39:29.936Z</time></trkpt><trkpt lat="42.2776387" lon="13.7950611"><ele>350.4</ele><time>2026-05-02T09:39:30.936Z</time></trkpt><trkpt lat="42.2777561" lon="13.795069"><ele>349.0</ele><time>2026-05-02T09:39:31.936Z</time></trkpt><trkpt lat="42.2778808" lon="13.7950975"><ele>349.0</ele><time>2026-05-02T09:39:32.936Z</time></trkpt><trkpt lat="42.2780025" lon="13.7951412"><ele>349.0</ele><time>2026-05-02T09:39:33.936Z</time></trkpt><trkpt lat="42.2781273" lon="13.7951809"><ele>349.0</ele><time>2026-05-02T09:39:34.937Z</time></trkpt><trkpt lat="42.2782571" lon="13.7952155"><ele>349.0</ele><time>2026-05-02T09:39:35.937Z</time></trkpt><trkpt lat="42.2783847" lon="13.7952431"><ele>350.5</ele><time>2026-05-02T09:39:36.936Z</time></trkpt><trkpt lat="42.2785057" lon="13.7952681"><ele>352.0</ele><time>2026-05-02T09:39:37.936Z</time></trkpt><trkpt lat="42.2786291" lon="13.7952863"><ele>353.5</ele><time>2026-05-02T09:39:38.937Z</time></trkpt><trkpt lat="42.2787368" lon="13.795292"><ele>355.0</ele><time>2026-05-02T09:39:39.935Z</time></trkpt><trkpt lat="42.2788323" lon="13.7952731"><ele>355.0</ele><time>2026-05-02T09:39:40.937Z</time></trkpt><trkpt lat="42.278926" lon="13.7952395"><ele>355.0</ele><time>2026-05-02T09:39:41.936Z</time></trkpt><trkpt lat="42.2790154" lon="13.7952024"><ele>355.0</ele><time>2026-05-02T09:39:42.937Z</time></trkpt><trkpt lat="42.2791203" lon="13.7951821"><ele>355.0</ele><time>2026-05-02T09:39:43.937Z</time></trkpt><trkpt lat="42.2792269" lon="13.7951539"><ele>355.0</ele><time>2026-05-02T09:39:44.936Z</time></trkpt><trkpt lat="42.2793401" lon="13.7951095"><ele>352.8333333333333</ele><time>2026-05-02T09:39:45.935Z</time></trkpt><trkpt lat="42.2794331" lon="13.7950533"><ele>350.66666666666663</ele><time>2026-05-02T09:39:46.936Z</time></trkpt><trkpt lat="42.2795123" lon="13.7950003"><ele>348.5</ele><time>2026-05-02T09:39:47.936Z</time></trkpt><trkpt lat="42.279581" lon="13.7949423"><ele>346.3333333333333</ele><time>2026-05-02T09:39:48.936Z</time></trkpt><trkpt lat="42.2796355" lon="13.7948932"><ele>344.1666666666667</ele><time>2026-05-02T09:39:49.936Z</time></trkpt><trkpt lat="42.2796976" lon="13.7948408"><ele>342.0</ele><time>2026-05-02T09:39:50.936Z</time></trkpt><trkpt lat="42.2797748" lon="13.7947801"><ele>342.0</ele><time>2026-05-02T09:39:51.936Z</time></trkpt><trkpt lat="42.2798628" lon="13.794706"><ele>342.0</ele><time>2026-05-02T09:39:52.936Z</time></trkpt><trkpt lat="42.2799578" lon="13.7946205"><ele>342.0</ele><time>2026-05-02T09:39:53.937Z</time></trkpt><trkpt lat="42.2800654" lon="13.7945237"><ele>342.0</ele><time>2026-05-02T09:39:54.936Z</time></trkpt><trkpt lat="42.2801669" lon="13.7944305"><ele>341.0</ele><time>2026-05-02T09:39:55.936Z</time></trkpt><trkpt lat="42.2802685" lon="13.7943377"><ele>340.0</ele><time>2026-05-02T09:39:56.935Z</time></trkpt><trkpt lat="42.280375" lon="13.7942475"><ele>339.0</ele><time>2026-05-02T09:39:57.936Z</time></trkpt><trkpt lat="42.2804832" lon="13.7941541"><ele>338.0</ele><time>2026-05-02T09:39:58.937Z</time></trkpt><trkpt lat="42.2805927" lon="13.7940539"><ele>339.0</ele><time>2026-05-02T09:39:59.937Z</time></trkpt><trkpt lat="42.280709" lon="13.7939581"><ele>340.0</ele><time>2026-05-02T09:40:00.935Z</time></trkpt><trkpt lat="42.2808378" lon="13.7938652"><ele>341.0</ele><time>2026-05-02T09:40:01.936Z</time></trkpt><trkpt lat="42.2809613" lon="13.7937957"><ele>342.0</ele><time>2026-05-02T09:40:02.936Z</time></trkpt><trkpt lat="42.2810787" lon="13.7937396"><ele>342.0</ele><time>2026-05-02T09:40:03.936Z</time></trkpt><trkpt lat="42.2811906" lon="13.7936798"><ele>342.0</ele><time>2026-05-02T09:40:04.936Z</time></trkpt><trkpt lat="42.2812982" lon="13.7936189"><ele>342.0</ele><time>2026-05-02T09:40:05.936Z</time></trkpt><trkpt lat="42.2814042" lon="13.7935665"><ele>342.0</ele><time>2026-05-02T09:40:06.935Z</time></trkpt><trkpt lat="42.2815045" lon="13.7935037"><ele>342.0</ele><time>2026-05-02T09:40:07.937Z</time></trkpt><trkpt lat="42.2816066" lon="13.7934403"><ele>342.0</ele><time>2026-05-02T09:40:08.936Z</time></trkpt><trkpt lat="42.2817171" lon="13.7933676"><ele>342.0</ele><time>2026-05-02T09:40:09.937Z</time></trkpt><trkpt lat="42.2818358" lon="13.7932853"><ele>342.0</ele><time>2026-05-02T09:40:10.937Z</time></trkpt><trkpt lat="42.2819621" lon="13.7931945"><ele>342.0</ele><time>2026-05-02T09:40:11.936Z</time></trkpt><trkpt lat="42.2820937" lon="13.7930877"><ele>342.0</ele><time>2026-05-02T09:40:12.936Z</time></trkpt><trkpt lat="42.2822132" lon="13.7929716"><ele>342.0</ele><time>2026-05-02T09:40:13.937Z</time></trkpt><trkpt lat="42.2823307" lon="13.7928458"><ele>342.25</ele><time>2026-05-02T09:40:14.936Z</time></trkpt><trkpt lat="42.2824319" lon="13.7927108"><ele>342.5</ele><time>2026-05-02T09:40:15.935Z</time></trkpt><trkpt lat="42.2825116" lon="13.7925797"><ele>342.75</ele><time>2026-05-02T09:40:16.935Z</time></trkpt><trkpt lat="42.2825815" lon="13.7924551"><ele>343.0</ele><time>2026-05-02T09:40:17.936Z</time></trkpt><trkpt lat="42.2826125" lon="13.7923424"><ele>343.0</ele><time>2026-05-02T09:40:18.936Z</time></trkpt><trkpt lat="42.2826611" lon="13.7922499"><ele>343.0</ele><time>2026-05-02T09:40:19.935Z</time></trkpt><trkpt lat="42.2827219" lon="13.7921563"><ele>343.0</ele><time>2026-05-02T09:40:20.935Z</time></trkpt><trkpt lat="42.2828112" lon="13.7920663"><ele>343.0</ele><time>2026-05-02T09:40:21.935Z</time></trkpt><trkpt lat="42.2829077" lon="13.7919631"><ele>343.0</ele><time>2026-05-02T09:40:22.937Z</time></trkpt><trkpt lat="42.2830055" lon="13.7918648"><ele>344.0</ele><time>2026-05-02T09:40:23.935Z</time></trkpt><trkpt lat="42.2831134" lon="13.7917757"><ele>345.0</ele><time>2026-05-02T09:40:24.936Z</time></trkpt><trkpt lat="42.2832136" lon="13.7916876"><ele>346.0</ele><time>2026-05-02T09:40:25.936Z</time></trkpt><trkpt lat="42.2833095" lon="13.791603"><ele>347.0</ele><time>2026-05-02T09:40:26.935Z</time></trkpt><trkpt lat="42.2834062" lon="13.7915081"><ele>347.0</ele><time>2026-05-02T09:40:27.937Z</time></trkpt><trkpt lat="42.2834967" lon="13.7914324"><ele>347.0</ele><time>2026-05-02T09:40:28.936Z</time></trkpt><trkpt lat="42.2835776" lon="13.791374"><ele>347.0</ele><time>2026-05-02T09:40:29.935Z</time></trkpt><trkpt lat="42.28365" lon="13.7913277"><ele>347.0</ele><time>2026-05-02T09:40:30.936Z</time></trkpt><trkpt lat="42.2837356" lon="13.7912551"><ele>347.0</ele><time>2026-05-02T09:40:32.936Z</time></trkpt><trkpt lat="42.2836759" lon="13.7911134"><ele>347.0</ele><time>2026-05-02T09:40:35.937Z</time></trkpt><trkpt lat="42.2836018" lon="13.7910438"><ele>347.0</ele><time>2026-05-02T09:40:36.935Z</time></trkpt><trkpt lat="42.2835153" lon="13.7909688"><ele>347.0</ele><time>2026-05-02T09:40:37.936Z</time></trkpt><trkpt lat="42.2834172" lon="13.7908618"><ele>347.0</ele><time>2026-05-02T09:40:38.936Z</time></trkpt><trkpt lat="42.283325" lon="13.7907708"><ele>347.0</ele><time>2026-05-02T09:40:39.936Z</time></trkpt><trkpt lat="42.2832509" lon="13.79067"><ele>347.1666666666667</ele><time>2026-05-02T09:40:40.936Z</time></trkpt><trkpt lat="42.2831956" lon="13.7905859"><ele>347.33333333333337</ele><time>2026-05-02T09:40:41.936Z</time></trkpt><trkpt lat="42.2831439" lon="13.7905093"><ele>347.5</ele><time>2026-05-02T09:40:42.936Z</time></trkpt><trkpt lat="42.2830719" lon="13.7903938"><ele>347.6666666666667</ele><time>2026-05-02T09:40:44.935Z</time></trkpt><trkpt lat="42.2830495" lon="13.7902842"><ele>347.8333333333333</ele><time>2026-05-02T09:40:46.936Z</time></trkpt><trkpt lat="42.2830529" lon="13.7901926"><ele>348.0</ele><time>2026-05-02T09:40:47.937Z</time></trkpt><trkpt lat="42.2830619" lon="13.7901017"><ele>348.0</ele><time>2026-05-02T09:40:48.936Z</time></trkpt><trkpt lat="42.2830809" lon="13.7899437"><ele>348.0</ele><time>2026-05-02T09:40:50.936Z</time></trkpt><trkpt lat="42.2830986" lon="13.7898159"><ele>348.0</ele><time>2026-05-02T09:40:52.936Z</time></trkpt><trkpt lat="42.2831425" lon="13.7897137"><ele>348.0</ele><time>2026-05-02T09:40:54.936Z</time></trkpt><trkpt lat="42.2831811" lon="13.789584"><ele>348.0</ele><time>2026-05-02T09:40:56.936Z</time></trkpt><trkpt lat="42.2832121" lon="13.7894677"><ele>348.0</ele><time>2026-05-02T09:40:58.936Z</time></trkpt><trkpt lat="42.2832244" lon="13.7893572"><ele>348.0</ele><time>2026-05-02T09:41:00.937Z</time></trkpt><trkpt lat="42.2832347" lon="13.7892525"><ele>348.0</ele><time>2026-05-02T09:41:02.936Z</time></trkpt><trkpt lat="42.2832414" lon="13.7891081"><ele>348.0</ele><time>2026-05-02T09:41:04.934Z</time></trkpt><trkpt lat="42.2832965" lon="13.7889498"><ele>348.0</ele><time>2026-05-02T09:41:06.935Z</time></trkpt><trkpt lat="42.2833391" lon="13.7887661"><ele>347.5</ele><time>2026-05-02T09:41:08.936Z</time></trkpt><trkpt lat="42.2833633" lon="13.78866"><ele>347.0</ele><time>2026-05-02T09:41:09.936Z</time></trkpt><trkpt lat="42.2833812" lon="13.7885372"><ele>346.5</ele><time>2026-05-02T09:41:10.936Z</time></trkpt><trkpt lat="42.2833889" lon="13.788437"><ele>346.0</ele><time>2026-05-02T09:41:11.936Z</time></trkpt><trkpt lat="42.2833908" lon="13.788327"><ele>345.5</ele><time>2026-05-02T09:41:12.936Z</time></trkpt><trkpt lat="42.2833912" lon="13.7882193"><ele>345.0</ele><time>2026-05-02T09:41:13.935Z</time></trkpt><trkpt lat="42.2833852" lon="13.7881061"><ele>344.2</ele><time>2026-05-02T09:41:14.937Z</time></trkpt><trkpt lat="42.2833665" lon="13.7879858"><ele>343.4</ele><time>2026-05-02T09:41:15.935Z</time></trkpt><trkpt lat="42.2833329" lon="13.7878681"><ele>342.6</ele><time>2026-05-02T09:41:16.936Z</time></trkpt><trkpt lat="42.2832959" lon="13.7877543"><ele>341.8</ele><time>2026-05-02T09:41:17.936Z</time></trkpt><trkpt lat="42.2832502" lon="13.7876488"><ele>341.0</ele><time>2026-05-02T09:41:18.935Z</time></trkpt><trkpt lat="42.2832002" lon="13.7875536"><ele>341.0</ele><time>2026-05-02T09:41:19.936Z</time></trkpt><trkpt lat="42.2831475" lon="13.7874634"><ele>341.0</ele><time>2026-05-02T09:41:20.936Z</time></trkpt><trkpt lat="42.2830988" lon="13.7873857"><ele>341.0</ele><time>2026-05-02T09:41:21.937Z</time></trkpt><trkpt lat="42.2830599" lon="13.7873152"><ele>341.0</ele><time>2026-05-02T09:41:22.937Z</time></trkpt><trkpt lat="42.2829973" lon="13.7871876"><ele>341.0</ele><time>2026-05-02T09:41:24.936Z</time></trkpt><trkpt lat="42.2829542" lon="13.7870993"><ele>341.0</ele><time>2026-05-02T09:41:25.936Z</time></trkpt><trkpt lat="42.2829014" lon="13.786993"><ele>341.0</ele><time>2026-05-02T09:41:26.936Z</time></trkpt><trkpt lat="42.2828461" lon="13.7868829"><ele>341.0</ele><time>2026-05-02T09:41:27.936Z</time></trkpt><trkpt lat="42.2827862" lon="13.7867682"><ele>341.0</ele><time>2026-05-02T09:41:28.936Z</time></trkpt><trkpt lat="42.2827315" lon="13.7866427"><ele>341.0</ele><time>2026-05-02T09:41:29.936Z</time></trkpt><trkpt lat="42.282677" lon="13.7865221"><ele>341.0</ele><time>2026-05-02T09:41:30.936Z</time></trkpt><trkpt lat="42.2826246" lon="13.7863727"><ele>341.0</ele><time>2026-05-02T09:41:31.935Z</time></trkpt><trkpt lat="42.2825786" lon="13.7862283"><ele>341.0</ele><time>2026-05-02T09:41:32.935Z</time></trkpt><trkpt lat="42.2825285" lon="13.7860788"><ele>341.0</ele><time>2026-05-02T09:41:33.936Z</time></trkpt><trkpt lat="42.2824826" lon="13.7859268"><ele>341.0</ele><time>2026-05-02T09:41:34.937Z</time></trkpt><trkpt lat="42.2824291" lon="13.7857695"><ele>340.75</ele><time>2026-05-02T09:41:35.936Z</time></trkpt><trkpt lat="42.2823799" lon="13.7856092"><ele>340.5</ele><time>2026-05-02T09:41:36.936Z</time></trkpt><trkpt lat="42.2823405" lon="13.785441"><ele>340.25</ele><time>2026-05-02T09:41:37.936Z</time></trkpt><trkpt lat="42.2822982" lon="13.7852812"><ele>340.0</ele><time>2026-05-02T09:41:38.936Z</time></trkpt><trkpt lat="42.2822583" lon="13.7851245"><ele>340.0</ele><time>2026-05-02T09:41:39.936Z</time></trkpt><trkpt lat="42.2822009" lon="13.7849648"><ele>340.0</ele><time>2026-05-02T09:41:40.936Z</time></trkpt><trkpt lat="42.282154" lon="13.7848002"><ele>340.0</ele><time>2026-05-02T09:41:41.936Z</time></trkpt><trkpt lat="42.2821111" lon="13.784641"><ele>340.0</ele><time>2026-05-02T09:41:42.935Z</time></trkpt><trkpt lat="42.2820701" lon="13.7844849"><ele>340.0</ele><time>2026-05-02T09:41:43.935Z</time></trkpt><trkpt lat="42.2820249" lon="13.7843256"><ele>340.0</ele><time>2026-05-02T09:41:44.935Z</time></trkpt><trkpt lat="42.2819862" lon="13.7841641"><ele>340.0</ele><time>2026-05-02T09:41:45.936Z</time></trkpt><trkpt lat="42.2819409" lon="13.7839987"><ele>340.0</ele><time>2026-05-02T09:41:46.934Z</time></trkpt><trkpt lat="42.2818997" lon="13.7838362"><ele>340.0</ele><time>2026-05-02T09:41:47.936Z</time></trkpt><trkpt lat="42.28186" lon="13.7836717"><ele>340.0</ele><time>2026-05-02T09:41:48.935Z</time></trkpt><trkpt lat="42.2818168" lon="13.7834965"><ele>340.0</ele><time>2026-05-02T09:41:49.936Z</time></trkpt><trkpt lat="42.281763" lon="13.7833129"><ele>340.0</ele><time>2026-05-02T09:41:50.936Z</time></trkpt><trkpt lat="42.2817084" lon="13.7831369"><ele>339.75</ele><time>2026-05-02T09:41:51.937Z</time></trkpt><trkpt lat="42.2816574" lon="13.7829689"><ele>339.5</ele><time>2026-05-02T09:41:52.936Z</time></trkpt><trkpt lat="42.2816055" lon="13.782817"><ele>339.25</ele><time>2026-05-02T09:41:53.935Z</time></trkpt><trkpt lat="42.2815524" lon="13.7826729"><ele>339.0</ele><time>2026-05-02T09:41:54.935Z</time></trkpt><trkpt lat="42.2814978" lon="13.782519"><ele>339.75</ele><time>2026-05-02T09:41:55.936Z</time></trkpt><trkpt lat="42.2814477" lon="13.7823657"><ele>340.5</ele><time>2026-05-02T09:41:56.935Z</time></trkpt><trkpt lat="42.2814" lon="13.7822251"><ele>341.25</ele><time>2026-05-02T09:41:57.935Z</time></trkpt><trkpt lat="42.2813516" lon="13.7820789"><ele>342.0</ele><time>2026-05-02T09:41:58.937Z</time></trkpt><trkpt lat="42.2813103" lon="13.7819456"><ele>342.0</ele><time>2026-05-02T09:41:59.936Z</time></trkpt><trkpt lat="42.2812647" lon="13.7818082"><ele>342.0</ele><time>2026-05-02T09:42:00.936Z</time></trkpt><trkpt lat="42.2812178" lon="13.781669"><ele>342.0</ele><time>2026-05-02T09:42:01.936Z</time></trkpt><trkpt lat="42.2811719" lon="13.7815218"><ele>342.0</ele><time>2026-05-02T09:42:02.936Z</time></trkpt><trkpt lat="42.2811243" lon="13.781374"><ele>342.0</ele><time>2026-05-02T09:42:03.936Z</time></trkpt><trkpt lat="42.2810757" lon="13.7812218"><ele>342.0</ele><time>2026-05-02T09:42:04.935Z</time></trkpt><trkpt lat="42.2810343" lon="13.7810788"><ele>342.0</ele><time>2026-05-02T09:42:05.936Z</time></trkpt><trkpt lat="42.280994" lon="13.7809388"><ele>342.0</ele><time>2026-05-02T09:42:06.934Z</time></trkpt><trkpt lat="42.2809546" lon="13.7807917"><ele>341.75</ele><time>2026-05-02T09:42:07.935Z</time></trkpt><trkpt lat="42.2809196" lon="13.7806455"><ele>341.5</ele><time>2026-05-02T09:42:08.937Z</time></trkpt><trkpt lat="42.2808815" lon="13.7805032"><ele>341.25</ele><time>2026-05-02T09:42:09.936Z</time></trkpt><trkpt lat="42.2808477" lon="13.7803594"><ele>341.0</ele><time>2026-05-02T09:42:10.936Z</time></trkpt><trkpt lat="42.2808145" lon="13.7802121"><ele>341.75</ele><time>2026-05-02T09:42:11.935Z</time></trkpt><trkpt lat="42.2807792" lon="13.780051"><ele>342.5</ele><time>2026-05-02T09:42:12.937Z</time></trkpt><trkpt lat="42.2807261" lon="13.7798846"><ele>343.25</ele><time>2026-05-02T09:42:13.936Z</time></trkpt><trkpt lat="42.2806696" lon="13.7797171"><ele>344.0</ele><time>2026-05-02T09:42:14.934Z</time></trkpt><trkpt lat="42.2805935" lon="13.7795343"><ele>344.0</ele><time>2026-05-02T09:42:15.935Z</time></trkpt><trkpt lat="42.2805268" lon="13.7793612"><ele>344.0</ele><time>2026-05-02T09:42:16.935Z</time></trkpt><trkpt lat="42.2804729" lon="13.7791952"><ele>344.0</ele><time>2026-05-02T09:42:17.936Z</time></trkpt><trkpt lat="42.2804335" lon="13.7790382"><ele>344.0</ele><time>2026-05-02T09:42:18.937Z</time></trkpt><trkpt lat="42.2804029" lon="13.7788662"><ele>344.25</ele><time>2026-05-02T09:42:19.935Z</time></trkpt><trkpt lat="42.2803754" lon="13.7786776"><ele>344.5</ele><time>2026-05-02T09:42:20.937Z</time></trkpt><trkpt lat="42.2803542" lon="13.7784802"><ele>344.75</ele><time>2026-05-02T09:42:21.936Z</time></trkpt><trkpt lat="42.2803338" lon="13.7782737"><ele>345.0</ele><time>2026-05-02T09:42:22.936Z</time></trkpt><trkpt lat="42.280302" lon="13.7780529"><ele>345.0</ele><time>2026-05-02T09:42:23.935Z</time></trkpt><trkpt lat="42.2802754" lon="13.7778315"><ele>345.0</ele><time>2026-05-02T09:42:24.936Z</time></trkpt><trkpt lat="42.2802426" lon="13.7776087"><ele>345.0</ele><time>2026-05-02T09:42:25.934Z</time></trkpt><trkpt lat="42.2802112" lon="13.7773848"><ele>345.3333333333333</ele><time>2026-05-02T09:42:26.936Z</time></trkpt><trkpt lat="42.2801756" lon="13.7771764"><ele>345.66666666666663</ele><time>2026-05-02T09:42:27.935Z</time></trkpt><trkpt lat="42.2801331" lon="13.7769738"><ele>346.0</ele><time>2026-05-02T09:42:28.935Z</time></trkpt><trkpt lat="42.2800917" lon="13.7767703"><ele>346.0</ele><time>2026-05-02T09:42:29.936Z</time></trkpt><trkpt lat="42.2800616" lon="13.7765634"><ele>346.0</ele><time>2026-05-02T09:42:30.936Z</time></trkpt><trkpt lat="42.28003" lon="13.7763558"><ele>346.0</ele><time>2026-05-02T09:42:31.934Z</time></trkpt><trkpt lat="42.2799987" lon="13.7761475"><ele>346.25</ele><time>2026-05-02T09:42:32.936Z</time></trkpt><trkpt lat="42.2799733" lon="13.7759674"><ele>346.5</ele><time>2026-05-02T09:42:33.936Z</time></trkpt><trkpt lat="42.2799727" lon="13.7758094"><ele>346.75</ele><time>2026-05-02T09:42:34.935Z</time></trkpt><trkpt lat="42.2799705" lon="13.7756607"><ele>347.0</ele><time>2026-05-02T09:42:35.936Z</time></trkpt><trkpt lat="42.2799634" lon="13.7755338"><ele>347.0</ele><time>2026-05-02T09:42:36.936Z</time></trkpt><trkpt lat="42.2799757" lon="13.7754489"><ele>347.0</ele><time>2026-05-02T09:42:37.936Z</time></trkpt><trkpt lat="42.2800689" lon="13.7753339"><ele>347.0</ele><time>2026-05-02T09:42:39.936Z</time></trkpt><trkpt lat="42.2801549" lon="13.7752749"><ele>347.0</ele><time>2026-05-02T09:42:40.935Z</time></trkpt><trkpt lat="42.2802582" lon="13.7752011"><ele>347.0</ele><time>2026-05-02T09:42:41.937Z</time></trkpt><trkpt lat="42.2803676" lon="13.7751304"><ele>347.0</ele><time>2026-05-02T09:42:42.936Z</time></trkpt><trkpt lat="42.2804771" lon="13.7750527"><ele>347.0</ele><time>2026-05-02T09:42:43.936Z</time></trkpt><trkpt lat="42.2805897" lon="13.7749776"><ele>347.0</ele><time>2026-05-02T09:42:44.935Z</time></trkpt><trkpt lat="42.280713" lon="13.7749011"><ele>347.0</ele><time>2026-05-02T09:42:45.936Z</time></trkpt><trkpt lat="42.2808367" lon="13.7748156"><ele>347.0</ele><time>2026-05-02T09:42:46.936Z</time></trkpt><trkpt lat="42.2809524" lon="13.7747368"><ele>347.0</ele><time>2026-05-02T09:42:47.936Z</time></trkpt><trkpt lat="42.2810551" lon="13.7746708"><ele>347.0</ele><time>2026-05-02T09:42:48.936Z</time></trkpt><trkpt lat="42.2811519" lon="13.774609"><ele>347.0</ele><time>2026-05-02T09:42:49.936Z</time></trkpt><trkpt lat="42.2812351" lon="13.7745595"><ele>347.0</ele><time>2026-05-02T09:42:50.935Z</time></trkpt><trkpt lat="42.2813063" lon="13.7745195"><ele>347.0</ele><time>2026-05-02T09:42:51.935Z</time></trkpt><trkpt lat="42.2813681" lon="13.7744822"><ele>347.0</ele><time>2026-05-02T09:42:52.934Z</time></trkpt><trkpt lat="42.2814293" lon="13.7744622"><ele>347.0</ele><time>2026-05-02T09:42:53.936Z</time></trkpt><trkpt lat="42.2814941" lon="13.7744406"><ele>347.0</ele><time>2026-05-02T09:42:55.936Z</time></trkpt><trkpt lat="42.2815647" lon="13.7743922"><ele>347.0</ele><time>2026-05-02T09:43:10.936Z</time></trkpt><trkpt lat="42.2815549" lon="13.7742812"><ele>347.0</ele><time>2026-05-02T09:43:13.934Z</time></trkpt><trkpt lat="42.2814564" lon="13.7741679"><ele>348.0</ele><time>2026-05-02T09:43:15.935Z</time></trkpt><trkpt lat="42.2813921" lon="13.7740795"><ele>349.0</ele><time>2026-05-02T09:43:16.936Z</time></trkpt><trkpt lat="42.2813157" lon="13.7739771"><ele>350.0</ele><time>2026-05-02T09:43:17.935Z</time></trkpt><trkpt lat="42.2812248" lon="13.7738645"><ele>351.0</ele><time>2026-05-02T09:43:18.936Z</time></trkpt><trkpt lat="42.2811232" lon="13.7737336"><ele>351.0</ele><time>2026-05-02T09:43:19.936Z</time></trkpt><trkpt lat="42.2810136" lon="13.7735946"><ele>351.0</ele><time>2026-05-02T09:43:20.934Z</time></trkpt><trkpt lat="42.2809099" lon="13.7734221"><ele>351.0</ele><time>2026-05-02T09:43:21.936Z</time></trkpt><trkpt lat="42.2808058" lon="13.7732402"><ele>352.3333333333333</ele><time>2026-05-02T09:43:22.936Z</time></trkpt><trkpt lat="42.2807052" lon="13.7730469"><ele>353.66666666666663</ele><time>2026-05-02T09:43:23.936Z</time></trkpt><trkpt lat="42.2806086" lon="13.7728457"><ele>355.0</ele><time>2026-05-02T09:43:24.936Z</time></trkpt><trkpt lat="42.2805086" lon="13.7726572"><ele>355.0</ele><time>2026-05-02T09:43:25.935Z</time></trkpt><trkpt lat="42.2804134" lon="13.7724782"><ele>355.0</ele><time>2026-05-02T09:43:26.936Z</time></trkpt><trkpt lat="42.2803214" lon="13.7723249"><ele>355.0</ele><time>2026-05-02T09:43:27.935Z</time></trkpt><trkpt lat="42.280217" lon="13.7722024"><ele>355.0</ele><time>2026-05-02T09:43:28.936Z</time></trkpt><trkpt lat="42.2800943" lon="13.7721027"><ele>355.0</ele><time>2026-05-02T09:43:29.935Z</time></trkpt><trkpt lat="42.2799625" lon="13.7720109"><ele>355.0</ele><time>2026-05-02T09:43:30.936Z</time></trkpt><trkpt lat="42.2798559" lon="13.7719088"><ele>355.0</ele><time>2026-05-02T09:43:31.935Z</time></trkpt><trkpt lat="42.2797523" lon="13.7717879"><ele>355.0</ele><time>2026-05-02T09:43:32.936Z</time></trkpt><trkpt lat="42.2796624" lon="13.7716358"><ele>355.66666666666663</ele><time>2026-05-02T09:43:33.935Z</time></trkpt><trkpt lat="42.2795838" lon="13.7714639"><ele>356.3333333333333</ele><time>2026-05-02T09:43:34.935Z</time></trkpt><trkpt lat="42.279514" lon="13.7712789"><ele>357.0</ele><time>2026-05-02T09:43:35.935Z</time></trkpt><trkpt lat="42.2794572" lon="13.7710942"><ele>357.5</ele><time>2026-05-02T09:43:36.936Z</time></trkpt><trkpt lat="42.2793962" lon="13.77091"><ele>358.0</ele><time>2026-05-02T09:43:37.937Z</time></trkpt><trkpt lat="42.2793307" lon="13.7707292"><ele>358.5</ele><time>2026-05-02T09:43:38.936Z</time></trkpt><trkpt lat="42.2792674" lon="13.7705436"><ele>359.0</ele><time>2026-05-02T09:43:39.935Z</time></trkpt><trkpt lat="42.2792018" lon="13.770367"><ele>359.0</ele><time>2026-05-02T09:43:40.935Z</time></trkpt><trkpt lat="42.2791472" lon="13.7702062"><ele>359.0</ele><time>2026-05-02T09:43:41.936Z</time></trkpt><trkpt lat="42.2790907" lon="13.7700436"><ele>359.0</ele><time>2026-05-02T09:43:42.935Z</time></trkpt><trkpt lat="42.2790315" lon="13.7698815"><ele>359.0</ele><time>2026-05-02T09:43:43.935Z</time></trkpt><trkpt lat="42.278987" lon="13.7697514"><ele>359.1666666666667</ele><time>2026-05-02T09:43:44.936Z</time></trkpt><trkpt lat="42.2789428" lon="13.7696351"><ele>359.33333333333337</ele><time>2026-05-02T09:43:45.936Z</time></trkpt><trkpt lat="42.2789083" lon="13.769538"><ele>359.5</ele><time>2026-05-02T09:43:46.935Z</time></trkpt><trkpt lat="42.278899" lon="13.7694513"><ele>359.6666666666667</ele><time>2026-05-02T09:43:47.937Z</time></trkpt><trkpt lat="42.2789125" lon="13.7693546"><ele>359.8333333333333</ele><time>2026-05-02T09:43:48.937Z</time></trkpt><trkpt lat="42.2789591" lon="13.7692646"><ele>360.0</ele><time>2026-05-02T09:43:49.935Z</time></trkpt><trkpt lat="42.2790355" lon="13.7691713"><ele>360.75</ele><time>2026-05-02T09:43:50.937Z</time></trkpt><trkpt lat="42.2791378" lon="13.7690919"><ele>361.5</ele><time>2026-05-02T09:43:51.937Z</time></trkpt><trkpt lat="42.2792558" lon="13.7690184"><ele>362.25</ele><time>2026-05-02T09:43:52.935Z</time></trkpt><trkpt lat="42.2793836" lon="13.768928"><ele>363.0</ele><time>2026-05-02T09:43:53.936Z</time></trkpt><trkpt lat="42.2795093" lon="13.7688245"><ele>363.0</ele><time>2026-05-02T09:43:54.937Z</time></trkpt><trkpt lat="42.2796405" lon="13.768721"><ele>363.0</ele><time>2026-05-02T09:43:55.936Z</time></trkpt><trkpt lat="42.2797739" lon="13.7686221"><ele>363.0</ele><time>2026-05-02T09:43:56.936Z</time></trkpt><trkpt lat="42.2799071" lon="13.7685174"><ele>364.3333333333333</ele><time>2026-05-02T09:43:57.936Z</time></trkpt><trkpt lat="42.2800302" lon="13.7683973"><ele>365.66666666666663</ele><time>2026-05-02T09:43:58.935Z</time></trkpt><trkpt lat="42.2801526" lon="13.7682607"><ele>367.0</ele><time>2026-05-02T09:43:59.935Z</time></trkpt><trkpt lat="42.2802618" lon="13.7681137"><ele>367.0</ele><time>2026-05-02T09:44:00.936Z</time></trkpt><trkpt lat="42.2803685" lon="13.7679694"><ele>367.0</ele><time>2026-05-02T09:44:01.937Z</time></trkpt><trkpt lat="42.2804796" lon="13.7678242"><ele>367.0</ele><time>2026-05-02T09:44:02.936Z</time></trkpt><trkpt lat="42.2805977" lon="13.7676758"><ele>368.3333333333333</ele><time>2026-05-02T09:44:03.935Z</time></trkpt><trkpt lat="42.2807238" lon="13.7675374"><ele>369.6666666666667</ele><time>2026-05-02T09:44:04.937Z</time></trkpt><trkpt lat="42.280857" lon="13.7674086"><ele>371.0</ele><time>2026-05-02T09:44:05.936Z</time></trkpt><trkpt lat="42.2809896" lon="13.7672833"><ele>371.0</ele><time>2026-05-02T09:44:06.936Z</time></trkpt><trkpt lat="42.2811242" lon="13.7671654"><ele>371.0</ele><time>2026-05-02T09:44:07.935Z</time></trkpt><trkpt lat="42.2812554" lon="13.7670508"><ele>371.0</ele><time>2026-05-02T09:44:08.936Z</time></trkpt><trkpt lat="42.2813857" lon="13.7669367"><ele>372.25</ele><time>2026-05-02T09:44:09.936Z</time></trkpt><trkpt lat="42.2815098" lon="13.7668235"><ele>373.5</ele><time>2026-05-02T09:44:10.935Z</time></trkpt><trkpt lat="42.2816231" lon="13.7667128"><ele>374.75</ele><time>2026-05-02T09:44:11.936Z</time></trkpt><trkpt lat="42.2817237" lon="13.7665985"><ele>376.0</ele><time>2026-05-02T09:44:12.935Z</time></trkpt><trkpt lat="42.2818181" lon="13.7664772"><ele>376.0</ele><time>2026-05-02T09:44:13.937Z</time></trkpt><trkpt lat="42.2819127" lon="13.7663434"><ele>376.0</ele><time>2026-05-02T09:44:14.936Z</time></trkpt><trkpt lat="42.2820118" lon="13.7661977"><ele>376.0</ele><time>2026-05-02T09:44:15.937Z</time></trkpt><trkpt lat="42.2821114" lon="13.7660452"><ele>376.0</ele><time>2026-05-02T09:44:16.935Z</time></trkpt><trkpt lat="42.2822154" lon="13.7658908"><ele>377.3333333333333</ele><time>2026-05-02T09:44:17.935Z</time></trkpt><trkpt lat="42.2823209" lon="13.7657369"><ele>378.6666666666667</ele><time>2026-05-02T09:44:18.936Z</time></trkpt><trkpt lat="42.2824238" lon="13.7655803"><ele>380.0</ele><time>2026-05-02T09:44:19.936Z</time></trkpt><trkpt lat="42.2825247" lon="13.7654161"><ele>380.0</ele><time>2026-05-02T09:44:20.937Z</time></trkpt><trkpt lat="42.2826289" lon="13.7652581"><ele>380.0</ele><time>2026-05-02T09:44:21.935Z</time></trkpt><trkpt lat="42.2827303" lon="13.7651049"><ele>380.0</ele><time>2026-05-02T09:44:22.937Z</time></trkpt><trkpt lat="42.2828276" lon="13.7649581"><ele>381.0</ele><time>2026-05-02T09:44:23.936Z</time></trkpt><trkpt lat="42.2829241" lon="13.7648073"><ele>382.0</ele><time>2026-05-02T09:44:24.936Z</time></trkpt><trkpt lat="42.2830239" lon="13.7646606"><ele>383.0</ele><time>2026-05-02T09:44:25.937Z</time></trkpt><trkpt lat="42.2831242" lon="13.764518"><ele>384.0</ele><time>2026-05-02T09:44:26.936Z</time></trkpt><trkpt lat="42.2832164" lon="13.7643791"><ele>384.6</ele><time>2026-05-02T09:44:27.936Z</time></trkpt><trkpt lat="42.2833008" lon="13.7642478"><ele>385.2</ele><time>2026-05-02T09:44:28.936Z</time></trkpt><trkpt lat="42.2833791" lon="13.7641328"><ele>385.8</ele><time>2026-05-02T09:44:29.935Z</time></trkpt><trkpt lat="42.2834434" lon="13.7640319"><ele>386.40000000000003</ele><time>2026-05-02T09:44:30.935Z</time></trkpt><trkpt lat="42.2834942" lon="13.7639538"><ele>387.0</ele><time>2026-05-02T09:44:31.935Z</time></trkpt><trkpt lat="42.2835346" lon="13.7638876"><ele>387.0</ele><time>2026-05-02T09:44:32.936Z</time></trkpt><trkpt lat="42.2835719" lon="13.7638117"><ele>387.0</ele><time>2026-05-02T09:44:39.935Z</time></trkpt><trkpt lat="42.2834777" lon="13.7637295"><ele>387.0</ele><time>2026-05-02T09:44:42.935Z</time></trkpt><trkpt lat="42.2834065" lon="13.763724"><ele>387.0</ele><time>2026-05-02T09:44:43.936Z</time></trkpt><trkpt lat="42.2833352" lon="13.7637203"><ele>387.0</ele><time>2026-05-02T09:44:44.935Z</time></trkpt><trkpt lat="42.2832622" lon="13.7637148"><ele>387.0</ele><time>2026-05-02T09:44:45.937Z</time></trkpt><trkpt lat="42.2831886" lon="13.7637047"><ele>387.0</ele><time>2026-05-02T09:44:46.934Z</time></trkpt><trkpt lat="42.283122" lon="13.7636957"><ele>387.0</ele><time>2026-05-02T09:44:47.935Z</time></trkpt><trkpt lat="42.2830152" lon="13.7636907"><ele>387.0</ele><time>2026-05-02T09:44:49.935Z</time></trkpt><trkpt lat="42.2829117" lon="13.7637127"><ele>387.0</ele><time>2026-05-02T09:44:51.936Z</time></trkpt><trkpt lat="42.2828449" lon="13.7637356"><ele>387.0</ele><time>2026-05-02T09:44:53.936Z</time></trkpt><trkpt lat="42.2827724" lon="13.7637272"><ele>387.0</ele><time>2026-05-02T09:45:31.935Z</time></trkpt><trkpt lat="42.2827002" lon="13.7637043"><ele>387.6666666666667</ele><time>2026-05-02T09:45:35.936Z</time></trkpt><trkpt lat="42.2826146" lon="13.7636766"><ele>388.33333333333337</ele><time>2026-05-02T09:45:38.936Z</time></trkpt><trkpt lat="42.2825427" lon="13.7636472"><ele>389.0</ele><time>2026-05-02T09:45:41.935Z</time></trkpt><trkpt lat="42.2824891" lon="13.7635927"><ele>389.6666666666667</ele><time>2026-05-02T09:45:44.936Z</time></trkpt><trkpt lat="42.2824166" lon="13.7635687"><ele>390.33333333333337</ele><time>2026-05-02T09:45:48.935Z</time></trkpt><trkpt lat="42.2823635" lon="13.7635061"><ele>391.0</ele><time>2026-05-02T09:45:58.936Z</time></trkpt><trkpt lat="42.2822745" lon="13.7634876"><ele>393.33333333333337</ele><time>2026-05-02T09:46:01.936Z</time></trkpt><trkpt lat="42.2822055" lon="13.7635013"><ele>395.6666666666667</ele><time>2026-05-02T09:46:04.936Z</time></trkpt><trkpt lat="42.2821455" lon="13.763543"><ele>398.0</ele><time>2026-05-02T09:46:11.934Z</time></trkpt><trkpt lat="42.2820523" lon="13.7635824"><ele>400.33333333333337</ele><time>2026-05-02T09:46:14.935Z</time></trkpt><trkpt lat="42.2819701" lon="13.7635713"><ele>402.6666666666667</ele><time>2026-05-02T09:46:17.904Z</time></trkpt><trkpt lat="42.2819002" lon="13.7635393"><ele>405.0</ele><time>2026-05-02T09:46:38.936Z</time></trkpt><trkpt lat="42.2818125" lon="13.7635346"><ele>405.0</ele><time>2026-05-02T09:46:41.935Z</time></trkpt><trkpt lat="42.2817033" lon="13.7635585"><ele>405.0</ele><time>2026-05-02T09:46:43.935Z</time></trkpt><trkpt lat="42.2816022" lon="13.763575"><ele>405.0</ele><time>2026-05-02T09:46:45.936Z</time></trkpt><trkpt lat="42.2815138" lon="13.7636041"><ele>405.0</ele><time>2026-05-02T09:46:47.935Z</time></trkpt><trkpt lat="42.2814076" lon="13.763623"><ele>405.0</ele><time>2026-05-02T09:46:49.935Z</time></trkpt><trkpt lat="42.281321" lon="13.7636293"><ele>408.8</ele><time>2026-05-02T09:46:51.936Z</time></trkpt><trkpt lat="42.2812331" lon="13.7636548"><ele>412.6</ele><time>2026-05-02T09:46:53.934Z</time></trkpt><trkpt lat="42.2811318" lon="13.7636513"><ele>416.4</ele><time>2026-05-02T09:46:55.937Z</time></trkpt><trkpt lat="42.2810292" lon="13.7636177"><ele>420.2</ele><time>2026-05-02T09:46:57.936Z</time></trkpt><trkpt lat="42.2809268" lon="13.7635882"><ele>424.0</ele><time>2026-05-02T09:46:59.935Z</time></trkpt><trkpt lat="42.2808109" lon="13.7635538"><ele>422.6</ele><time>2026-05-02T09:47:01.936Z</time></trkpt><trkpt lat="42.280702" lon="13.7635178"><ele>421.2</ele><time>2026-05-02T09:47:03.936Z</time></trkpt><trkpt lat="42.2806086" lon="13.7634929"><ele>419.8</ele><time>2026-05-02T09:47:05.935Z</time></trkpt><trkpt lat="42.2805143" lon="13.7634452"><ele>418.40000000000003</ele><time>2026-05-02T09:47:07.935Z</time></trkpt><trkpt lat="42.2804117" lon="13.763415"><ele>417.0</ele><time>2026-05-02T09:47:09.936Z</time></trkpt><trkpt lat="42.2802953" lon="13.7633733"><ele>420.8571428571429</ele><time>2026-05-02T09:47:11.935Z</time></trkpt><trkpt lat="42.2802337" lon="13.7633295"><ele>424.71428571428567</ele><time>2026-05-02T09:47:12.936Z</time></trkpt><trkpt lat="42.2801767" lon="13.7632798"><ele>428.57142857142856</ele><time>2026-05-02T09:47:13.935Z</time></trkpt><trkpt lat="42.2801154" lon="13.7632176"><ele>432.42857142857144</ele><time>2026-05-02T09:47:14.936Z</time></trkpt><trkpt lat="42.2800533" lon="13.7631485"><ele>436.28571428571433</ele><time>2026-05-02T09:47:15.935Z</time></trkpt><trkpt lat="42.2799922" lon="13.7630814"><ele>440.1428571428571</ele><time>2026-05-02T09:47:16.935Z</time></trkpt><trkpt lat="42.2799342" lon="13.7630153"><ele>444.0</ele><time>2026-05-02T09:47:17.936Z</time></trkpt><trkpt lat="42.2798835" lon="13.7629546"><ele>444.0</ele><time>2026-05-02T09:47:18.937Z</time></trkpt><trkpt lat="42.2798275" lon="13.762893"><ele>444.0</ele><time>2026-05-02T09:47:19.936Z</time></trkpt><trkpt lat="42.2797735" lon="13.7628236"><ele>444.0</ele><time>2026-05-02T09:47:20.935Z</time></trkpt><trkpt lat="42.2797178" lon="13.7627592"><ele>444.0</ele><time>2026-05-02T09:47:21.934Z</time></trkpt><trkpt lat="42.2796595" lon="13.7627073"><ele>444.0</ele><time>2026-05-02T09:47:22.934Z</time></trkpt><trkpt lat="42.2795996" lon="13.7626508"><ele>444.0</ele><time>2026-05-02T09:47:23.935Z</time></trkpt><trkpt lat="42.2795381" lon="13.7626017"><ele>444.0</ele><time>2026-05-02T09:47:24.935Z</time></trkpt><trkpt lat="42.2794768" lon="13.7625622"><ele>446.6666666666667</ele><time>2026-05-02T09:47:25.936Z</time></trkpt><trkpt lat="42.2794058" lon="13.7625221"><ele>449.33333333333337</ele><time>2026-05-02T09:47:27.936Z</time></trkpt><trkpt lat="42.279323" lon="13.7625223"><ele>452.0</ele><time>2026-05-02T09:48:16.935Z</time></trkpt><trkpt lat="42.2792304" lon="13.7624951"><ele>454.6666666666667</ele><time>2026-05-02T09:48:18.935Z</time></trkpt><trkpt lat="42.2791165" lon="13.7624404"><ele>457.33333333333337</ele><time>2026-05-02T09:48:20.935Z</time></trkpt><trkpt lat="42.2790483" lon="13.7624052"><ele>460.0</ele><time>2026-05-02T09:48:21.935Z</time></trkpt><trkpt lat="42.2789746" lon="13.7623662"><ele>461.50000000000006</ele><time>2026-05-02T09:48:22.935Z</time></trkpt><trkpt lat="42.2788905" lon="13.7623318"><ele>463.0</ele><time>2026-05-02T09:48:23.936Z</time></trkpt><trkpt lat="42.2788031" lon="13.7622878"><ele>464.5</ele><time>2026-05-02T09:48:24.936Z</time></trkpt><trkpt lat="42.2787121" lon="13.762252"><ele>466.0</ele><time>2026-05-02T09:48:25.934Z</time></trkpt><trkpt lat="42.2786327" lon="13.7622182"><ele>467.50000000000006</ele><time>2026-05-02T09:48:26.936Z</time></trkpt><trkpt lat="42.2785674" lon="13.7621939"><ele>469.0</ele><time>2026-05-02T09:48:27.936Z</time></trkpt><trkpt lat="42.2785059" lon="13.7621678"><ele>469.00000000000006</ele><time>2026-05-02T09:48:29.935Z</time></trkpt><trkpt lat="42.2784351" lon="13.7621189"><ele>469.0</ele><time>2026-05-02T09:48:48.936Z</time></trkpt><trkpt lat="42.2783499" lon="13.7620276"><ele>469.0</ele><time>2026-05-02T09:48:50.935Z</time></trkpt><trkpt lat="42.2782637" lon="13.7619264"><ele>469.0</ele><time>2026-05-02T09:48:52.934Z</time></trkpt><trkpt lat="42.2782083" lon="13.7618619"><ele>469.00000000000006</ele><time>2026-05-02T09:48:54.935Z</time></trkpt><trkpt lat="42.2781533" lon="13.7618054"><ele>469.0</ele><time>2026-05-02T09:49:30.935Z</time></trkpt><trkpt lat="42.2780778" lon="13.7617716"><ele>470.33333333333337</ele><time>2026-05-02T09:49:32.935Z</time></trkpt><trkpt lat="42.2780162" lon="13.7617494"><ele>471.6666666666667</ele><time>2026-05-02T09:49:33.935Z</time></trkpt><trkpt lat="42.2779457" lon="13.7617269"><ele>473.0</ele><time>2026-05-02T09:49:34.934Z</time></trkpt><trkpt lat="42.2778635" lon="13.7617079"><ele>474.33333333333337</ele><time>2026-05-02T09:49:35.935Z</time></trkpt><trkpt lat="42.2777729" lon="13.7616865"><ele>475.6666666666667</ele><time>2026-05-02T09:49:36.935Z</time></trkpt><trkpt lat="42.2776931" lon="13.7616858"><ele>477.0</ele><time>2026-05-02T09:49:37.936Z</time></trkpt><trkpt lat="42.2776061" lon="13.7617061"><ele>477.0</ele><time>2026-05-02T09:49:38.935Z</time></trkpt><trkpt lat="42.2775219" lon="13.7617474"><ele>477.00000000000006</ele><time>2026-05-02T09:49:39.935Z</time></trkpt><trkpt lat="42.2774272" lon="13.7617729"><ele>477.00000000000006</ele><time>2026-05-02T09:49:40.935Z</time></trkpt><trkpt lat="42.27733" lon="13.7617837"><ele>477.0</ele><time>2026-05-02T09:49:41.935Z</time></trkpt><trkpt lat="42.277232" lon="13.7617852"><ele>477.0</ele><time>2026-05-02T09:49:42.936Z</time></trkpt><trkpt lat="42.2771275" lon="13.7617731"><ele>478.5</ele><time>2026-05-02T09:49:43.935Z</time></trkpt><trkpt lat="42.2770452" lon="13.7617639"><ele>480.0</ele><time>2026-05-02T09:49:44.936Z</time></trkpt><trkpt lat="42.2769579" lon="13.7617611"><ele>481.5</ele><time>2026-05-02T09:49:45.936Z</time></trkpt><trkpt lat="42.2768689" lon="13.7617554"><ele>483.0</ele><time>2026-05-02T09:49:46.934Z</time></trkpt><trkpt lat="42.2767884" lon="13.7617597"><ele>484.5</ele><time>2026-05-02T09:49:47.934Z</time></trkpt><trkpt lat="42.2767106" lon="13.7617567"><ele>486.0</ele><time>2026-05-02T09:49:48.936Z</time></trkpt><trkpt lat="42.2766323" lon="13.761739"><ele>486.0</ele><time>2026-05-02T09:49:49.935Z</time></trkpt><trkpt lat="42.2765593" lon="13.7617116"><ele>486.0</ele><time>2026-05-02T09:49:50.934Z</time></trkpt><trkpt lat="42.276468" lon="13.7616578"><ele>486.0</ele><time>2026-05-02T09:49:51.935Z</time></trkpt><trkpt lat="42.2763669" lon="13.7616057"><ele>486.0</ele><time>2026-05-02T09:49:52.935Z</time></trkpt><trkpt lat="42.276255" lon="13.7615566"><ele>486.0</ele><time>2026-05-02T09:49:53.936Z</time></trkpt><trkpt lat="42.2761407" lon="13.7614956"><ele>489.25</ele><time>2026-05-02T09:49:54.934Z</time></trkpt><trkpt lat="42.2760345" lon="13.7614314"><ele>492.5</ele><time>2026-05-02T09:49:55.935Z</time></trkpt><trkpt lat="42.2759246" lon="13.7613466"><ele>495.75</ele><time>2026-05-02T09:49:56.936Z</time></trkpt><trkpt lat="42.2758183" lon="13.7612454"><ele>499.0</ele><time>2026-05-02T09:49:57.935Z</time></trkpt><trkpt lat="42.2757176" lon="13.7611651"><ele>499.0</ele><time>2026-05-02T09:49:58.935Z</time></trkpt><trkpt lat="42.2756114" lon="13.7610891"><ele>499.0</ele><time>2026-05-02T09:49:59.935Z</time></trkpt><trkpt lat="42.2755049" lon="13.7610096"><ele>499.0</ele><time>2026-05-02T09:50:00.934Z</time></trkpt><trkpt lat="42.2753822" lon="13.760926"><ele>499.0</ele><time>2026-05-02T09:50:01.935Z</time></trkpt><trkpt lat="42.2752532" lon="13.7608358"><ele>500.0</ele><time>2026-05-02T09:50:02.935Z</time></trkpt><trkpt lat="42.275129" lon="13.7607604"><ele>501.0</ele><time>2026-05-02T09:50:03.934Z</time></trkpt><trkpt lat="42.2750072" lon="13.7606873"><ele>502.0</ele><time>2026-05-02T09:50:04.935Z</time></trkpt><trkpt lat="42.2748933" lon="13.7606241"><ele>503.0</ele><time>2026-05-02T09:50:05.936Z</time></trkpt><trkpt lat="42.2748061" lon="13.7605777"><ele>502.99999999999994</ele><time>2026-05-02T09:50:06.935Z</time></trkpt><trkpt lat="42.274746" lon="13.7605338"><ele>503.0</ele><time>2026-05-02T09:50:07.935Z</time></trkpt><trkpt lat="42.274728" lon="13.7604355"><ele>503.0</ele><time>2026-05-02T09:50:10.935Z</time></trkpt><trkpt lat="42.2748" lon="13.7603264"><ele>503.0</ele><time>2026-05-02T09:50:12.935Z</time></trkpt><trkpt lat="42.2748558" lon="13.7602561"><ele>502.99999999999994</ele><time>2026-05-02T09:50:13.936Z</time></trkpt><trkpt lat="42.2749213" lon="13.7601785"><ele>503.0</ele><time>2026-05-02T09:50:14.936Z</time></trkpt><trkpt lat="42.2749853" lon="13.7600959"><ele>503.0</ele><time>2026-05-02T09:50:15.935Z</time></trkpt><trkpt lat="42.2750513" lon="13.7600036"><ele>502.99999999999994</ele><time>2026-05-02T09:50:16.936Z</time></trkpt><trkpt lat="42.2751197" lon="13.7599011"><ele>502.99999999999994</ele><time>2026-05-02T09:50:17.935Z</time></trkpt><trkpt lat="42.2751903" lon="13.759785"><ele>503.0</ele><time>2026-05-02T09:50:18.936Z</time></trkpt><trkpt lat="42.2752709" lon="13.7596582"><ele>503.0</ele><time>2026-05-02T09:50:19.935Z</time></trkpt><trkpt lat="42.2753567" lon="13.7595162"><ele>503.0</ele><time>2026-05-02T09:50:20.935Z</time></trkpt><trkpt lat="42.2754425" lon="13.7593699"><ele>503.0</ele><time>2026-05-02T09:50:21.935Z</time></trkpt><trkpt lat="42.2755248" lon="13.759233"><ele>503.0</ele><time>2026-05-02T09:50:22.935Z</time></trkpt><trkpt lat="42.2756068" lon="13.7591099"><ele>503.0</ele><time>2026-05-02T09:50:23.936Z</time></trkpt><trkpt lat="42.2756884" lon="13.7589942"><ele>500.59999999999997</ele><time>2026-05-02T09:50:24.935Z</time></trkpt><trkpt lat="42.2757666" lon="13.7588873"><ele>498.19999999999993</ele><time>2026-05-02T09:50:25.934Z</time></trkpt><trkpt lat="42.275835" lon="13.7588016"><ele>495.8</ele><time>2026-05-02T09:50:26.935Z</time></trkpt><trkpt lat="42.2758904" lon="13.7587376"><ele>493.4</ele><time>2026-05-02T09:50:27.935Z</time></trkpt><trkpt lat="42.2759438" lon="13.7586513"><ele>491.0</ele><time>2026-05-02T09:50:29.935Z</time></trkpt><trkpt lat="42.2758366" lon="13.7586207"><ele>490.99999999999994</ele><time>2026-05-02T09:50:34.934Z</time></trkpt><trkpt lat="42.2757732" lon="13.7586291"><ele>491.0</ele><time>2026-05-02T09:50:35.935Z</time></trkpt><trkpt lat="42.2757039" lon="13.75864"><ele>491.0</ele><time>2026-05-02T09:50:36.935Z</time></trkpt><trkpt lat="42.2756191" lon="13.7586566"><ele>491.0</ele><time>2026-05-02T09:50:37.934Z</time></trkpt><trkpt lat="42.275536" lon="13.758688"><ele>490.99999999999994</ele><time>2026-05-02T09:50:38.935Z</time></trkpt><trkpt lat="42.2754478" lon="13.7587161"><ele>491.0</ele><time>2026-05-02T09:50:39.935Z</time></trkpt><trkpt lat="42.2753715" lon="13.7587356"><ele>493.49999999999994</ele><time>2026-05-02T09:50:40.935Z</time></trkpt><trkpt lat="42.2752977" lon="13.7587497"><ele>496.0</ele><time>2026-05-02T09:50:41.935Z</time></trkpt><trkpt lat="42.2752151" lon="13.7587719"><ele>498.5</ele><time>2026-05-02T09:50:42.936Z</time></trkpt><trkpt lat="42.2751379" lon="13.7587867"><ele>501.0</ele><time>2026-05-02T09:50:43.934Z</time></trkpt><trkpt lat="42.2750526" lon="13.7588007"><ele>503.49999999999994</ele><time>2026-05-02T09:50:44.934Z</time></trkpt><trkpt lat="42.2749723" lon="13.7588164"><ele>506.0</ele><time>2026-05-02T09:50:45.936Z</time></trkpt><trkpt lat="42.2748863" lon="13.7588271"><ele>505.99999999999994</ele><time>2026-05-02T09:50:46.935Z</time></trkpt><trkpt lat="42.2748013" lon="13.7588339"><ele>506.0</ele><time>2026-05-02T09:50:47.935Z</time></trkpt><trkpt lat="42.2747205" lon="13.758849"><ele>506.0</ele><time>2026-05-02T09:50:48.936Z</time></trkpt><trkpt lat="42.2746397" lon="13.7588692"><ele>506.0</ele><time>2026-05-02T09:50:49.935Z</time></trkpt><trkpt lat="42.2745664" lon="13.7588899"><ele>505.99999999999994</ele><time>2026-05-02T09:50:50.935Z</time></trkpt><trkpt lat="42.2744967" lon="13.7589014"><ele>506.0</ele><time>2026-05-02T09:50:51.935Z</time></trkpt><trkpt lat="42.2744216" lon="13.7589156"><ele>507.49999999999994</ele><time>2026-05-02T09:50:52.935Z</time></trkpt><trkpt lat="42.2743003" lon="13.7589407"><ele>509.0</ele><time>2026-05-02T09:50:54.935Z</time></trkpt><trkpt lat="42.2742324" lon="13.7589684"><ele>510.5</ele><time>2026-05-02T09:50:55.934Z</time></trkpt><trkpt lat="42.2741615" lon="13.7590086"><ele>512.0</ele><time>2026-05-02T09:50:56.934Z</time></trkpt><trkpt lat="42.2740963" lon="13.759038"><ele>513.5</ele><time>2026-05-02T09:50:57.935Z</time></trkpt><trkpt lat="42.2740389" lon="13.7590872"><ele>515.0</ele><time>2026-05-02T09:50:58.934Z</time></trkpt><trkpt lat="42.2739735" lon="13.7591555"><ele>515.0</ele><time>2026-05-02T09:51:00.936Z</time></trkpt><trkpt lat="42.2739615" lon="13.7592576"><ele>515.0</ele><time>2026-05-02T09:51:03.935Z</time></trkpt><trkpt lat="42.2739389" lon="13.7593869"><ele>515.0</ele><time>2026-05-02T09:51:05.935Z</time></trkpt><trkpt lat="42.2738828" lon="13.7595258"><ele>515.0</ele><time>2026-05-02T09:51:07.936Z</time></trkpt><trkpt lat="42.2738462" lon="13.7596089"><ele>515.0</ele><time>2026-05-02T09:51:08.935Z</time></trkpt><trkpt lat="42.2737677" lon="13.7597158"><ele>516.5</ele><time>2026-05-02T09:51:10.934Z</time></trkpt><trkpt lat="42.2736903" lon="13.7597429"><ele>518.0</ele><time>2026-05-02T09:51:12.934Z</time></trkpt><trkpt lat="42.273613" lon="13.7597389"><ele>519.5</ele><time>2026-05-02T09:51:14.935Z</time></trkpt><trkpt lat="42.2735445" lon="13.7597235"><ele>521.0</ele><time>2026-05-02T09:51:15.935Z</time></trkpt><trkpt lat="42.2734825" lon="13.7597019"><ele>522.5</ele><time>2026-05-02T09:51:16.935Z</time></trkpt><trkpt lat="42.2733918" lon="13.7596962"><ele>524.0</ele><time>2026-05-02T09:51:18.935Z</time></trkpt><trkpt lat="42.2733229" lon="13.7597001"><ele>524.0</ele><time>2026-05-02T09:51:20.936Z</time></trkpt><trkpt lat="42.2732538" lon="13.7596986"><ele>524.0</ele><time>2026-05-02T09:51:23.934Z</time></trkpt><trkpt lat="42.2731906" lon="13.759712"><ele>524.0</ele><time>2026-05-02T09:51:28.936Z</time></trkpt><trkpt lat="42.2731225" lon="13.7597423"><ele>524.0</ele><time>2026-05-02T09:53:08.934Z</time></trkpt><trkpt lat="42.2730033" lon="13.7597708"><ele>524.0</ele><time>2026-05-02T09:53:10.935Z</time></trkpt><trkpt lat="42.2729348" lon="13.7597643"><ele>524.0</ele><time>2026-05-02T09:53:11.933Z</time></trkpt><trkpt lat="42.2728522" lon="13.7597517"><ele>524.6</ele><time>2026-05-02T09:53:12.936Z</time></trkpt><trkpt lat="42.2727565" lon="13.7597178"><ele>525.2</ele><time>2026-05-02T09:53:13.934Z</time></trkpt><trkpt lat="42.2726603" lon="13.7596754"><ele>525.8000000000001</ele><time>2026-05-02T09:53:14.935Z</time></trkpt><trkpt lat="42.2725533" lon="13.7596313"><ele>526.4</ele><time>2026-05-02T09:53:15.935Z</time></trkpt><trkpt lat="42.2724455" lon="13.7595857"><ele>527.0</ele><time>2026-05-02T09:53:16.934Z</time></trkpt><trkpt lat="42.2723449" lon="13.7595414"><ele>527.3333333333333</ele><time>2026-05-02T09:53:17.935Z</time></trkpt><trkpt lat="42.2722459" lon="13.7594981"><ele>527.6666666666666</ele><time>2026-05-02T09:53:18.935Z</time></trkpt><trkpt lat="42.2721614" lon="13.759451"><ele>528.0</ele><time>2026-05-02T09:53:19.934Z</time></trkpt><trkpt lat="42.2720817" lon="13.759392"><ele>528.3333333333334</ele><time>2026-05-02T09:53:20.934Z</time></trkpt><trkpt lat="42.2720177" lon="13.7593176"><ele>528.6666666666667</ele><time>2026-05-02T09:53:21.934Z</time></trkpt><trkpt lat="42.2719858" lon="13.7592211"><ele>529.0</ele><time>2026-05-02T09:53:22.934Z</time></trkpt><trkpt lat="42.2719618" lon="13.759126"><ele>529.6666666666667</ele><time>2026-05-02T09:53:23.935Z</time></trkpt><trkpt lat="42.2719357" lon="13.759035"><ele>530.3333333333334</ele><time>2026-05-02T09:53:24.935Z</time></trkpt><trkpt lat="42.2718992" lon="13.7589581"><ele>531.0</ele><time>2026-05-02T09:53:25.935Z</time></trkpt><trkpt lat="42.2718133" lon="13.7589006"><ele>531.6666666666666</ele><time>2026-05-02T09:53:27.935Z</time></trkpt><trkpt lat="42.2717322" lon="13.7588749"><ele>532.3333333333333</ele><time>2026-05-02T09:53:43.936Z</time></trkpt><trkpt lat="42.2716462" lon="13.758818"><ele>533.0</ele><time>2026-05-02T09:53:45.934Z</time></trkpt><trkpt lat="42.2715788" lon="13.7587912"><ele>533.0</ele><time>2026-05-02T09:53:46.935Z</time></trkpt><trkpt lat="42.271513" lon="13.7587578"><ele>533.0</ele><time>2026-05-02T09:53:47.935Z</time></trkpt><trkpt lat="42.2714315" lon="13.7587412"><ele>533.0</ele><time>2026-05-02T09:53:48.936Z</time></trkpt><trkpt lat="42.2713395" lon="13.7587245"><ele>533.0</ele><time>2026-05-02T09:53:49.934Z</time></trkpt><trkpt lat="42.2712311" lon="13.7587138"><ele>533.0</ele><time>2026-05-02T09:53:50.933Z</time></trkpt><trkpt lat="42.2711284" lon="13.7587045"><ele>532.8</ele><time>2026-05-02T09:53:51.934Z</time></trkpt><trkpt lat="42.271019" lon="13.7587001"><ele>532.5999999999999</ele><time>2026-05-02T09:53:52.934Z</time></trkpt><trkpt lat="42.2709083" lon="13.758693"><ele>532.4000000000001</ele><time>2026-05-02T09:53:53.934Z</time></trkpt><trkpt lat="42.2707967" lon="13.7586902"><ele>532.2</ele><time>2026-05-02T09:53:54.934Z</time></trkpt><trkpt lat="42.2706954" lon="13.758691"><ele>532.0</ele><time>2026-05-02T09:53:55.935Z</time></trkpt><trkpt lat="42.2705913" lon="13.7586984"><ele>532.0</ele><time>2026-05-02T09:53:56.935Z</time></trkpt><trkpt lat="42.270486" lon="13.7587131"><ele>532.0</ele><time>2026-05-02T09:53:57.935Z</time></trkpt><trkpt lat="42.2703885" lon="13.7587268"><ele>532.0</ele><time>2026-05-02T09:53:58.934Z</time></trkpt><trkpt lat="42.2702898" lon="13.7587436"><ele>532.0</ele><time>2026-05-02T09:53:59.935Z</time></trkpt><trkpt lat="42.2701888" lon="13.7587731"><ele>532.0</ele><time>2026-05-02T09:54:00.934Z</time></trkpt><trkpt lat="42.2700897" lon="13.758797"><ele>532.0</ele><time>2026-05-02T09:54:01.935Z</time></trkpt><trkpt lat="42.2699871" lon="13.7588373"><ele>532.0</ele><time>2026-05-02T09:54:02.934Z</time></trkpt><trkpt lat="42.2698795" lon="13.7588779"><ele>532.0</ele><time>2026-05-02T09:54:03.934Z</time></trkpt><trkpt lat="42.2697729" lon="13.7589292"><ele>532.0</ele><time>2026-05-02T09:54:04.935Z</time></trkpt><trkpt lat="42.2696666" lon="13.758981"><ele>532.0</ele><time>2026-05-02T09:54:05.934Z</time></trkpt><trkpt lat="42.2695539" lon="13.7590354"><ele>532.2</ele><time>2026-05-02T09:54:06.935Z</time></trkpt><trkpt lat="42.2694372" lon="13.7590898"><ele>532.4000000000001</ele><time>2026-05-02T09:54:07.934Z</time></trkpt><trkpt lat="42.2693352" lon="13.7591334"><ele>532.5999999999999</ele><time>2026-05-02T09:54:08.935Z</time></trkpt><trkpt lat="42.2692281" lon="13.7591791"><ele>532.8</ele><time>2026-05-02T09:54:09.935Z</time></trkpt><trkpt lat="42.269143" lon="13.7592204"><ele>533.0</ele><time>2026-05-02T09:54:10.935Z</time></trkpt><trkpt lat="42.2690777" lon="13.759252"><ele>533.0</ele><time>2026-05-02T09:54:11.935Z</time></trkpt><trkpt lat="42.268996" lon="13.7593368"><ele>533.0</ele><time>2026-05-02T09:54:13.936Z</time></trkpt><trkpt lat="42.268977" lon="13.7594808"><ele>533.0</ele><time>2026-05-02T09:54:15.935Z</time></trkpt><trkpt lat="42.2689636" lon="13.7595779"><ele>533.0</ele><time>2026-05-02T09:54:16.936Z</time></trkpt><trkpt lat="42.2689231" lon="13.7597265"><ele>533.0</ele><time>2026-05-02T09:54:18.936Z</time></trkpt><trkpt lat="42.2688929" lon="13.759805"><ele>533.8</ele><time>2026-05-02T09:54:19.935Z</time></trkpt><trkpt lat="42.2688602" lon="13.7599054"><ele>534.5999999999999</ele><time>2026-05-02T09:54:20.934Z</time></trkpt><trkpt lat="42.268821" lon="13.7600327"><ele>535.4000000000001</ele><time>2026-05-02T09:54:21.934Z</time></trkpt><trkpt lat="42.2687815" lon="13.7601717"><ele>536.2</ele><time>2026-05-02T09:54:22.935Z</time></trkpt><trkpt lat="42.2687386" lon="13.760316"><ele>537.0</ele><time>2026-05-02T09:54:23.935Z</time></trkpt><trkpt lat="42.2687002" lon="13.7604558"><ele>537.0</ele><time>2026-05-02T09:54:24.935Z</time></trkpt><trkpt lat="42.2686649" lon="13.7605748"><ele>537.0</ele><time>2026-05-02T09:54:25.934Z</time></trkpt><trkpt lat="42.2686342" lon="13.7606704"><ele>537.0</ele><time>2026-05-02T09:54:26.935Z</time></trkpt><trkpt lat="42.2686069" lon="13.7607476"><ele>537.0</ele><time>2026-05-02T09:54:27.934Z</time></trkpt><trkpt lat="42.2685727" lon="13.7608453"><ele>537.0</ele><time>2026-05-02T09:54:29.935Z</time></trkpt><trkpt lat="42.2685619" lon="13.7609373"><ele>537.0</ele><time>2026-05-02T09:54:34.935Z</time></trkpt><trkpt lat="42.2686233" lon="13.7609064"><ele>537.0</ele><time>2026-05-02T09:54:37.934Z</time></trkpt><trkpt lat="42.2686263" lon="13.7608142"><ele>537.0</ele><time>2026-05-02T09:54:38.934Z</time></trkpt><trkpt lat="42.268667" lon="13.7606359"><ele>537.0</ele><time>2026-05-02T09:54:40.936Z</time></trkpt><trkpt lat="42.2686939" lon="13.7605265"><ele>537.0</ele><time>2026-05-02T09:54:41.934Z</time></trkpt><trkpt lat="42.2687277" lon="13.7604064"><ele>537.0</ele><time>2026-05-02T09:54:42.933Z</time></trkpt><trkpt lat="42.268761" lon="13.7602883"><ele>537.2</ele><time>2026-05-02T09:54:43.934Z</time></trkpt><trkpt lat="42.2687918" lon="13.7601657"><ele>537.4000000000001</ele><time>2026-05-02T09:54:44.935Z</time></trkpt><trkpt lat="42.2688189" lon="13.7600467"><ele>537.5999999999999</ele><time>2026-05-02T09:54:45.935Z</time></trkpt><trkpt lat="42.268854" lon="13.7599247"><ele>537.8</ele><time>2026-05-02T09:54:46.935Z</time></trkpt><trkpt lat="42.2688904" lon="13.759806"><ele>538.0</ele><time>2026-05-02T09:54:47.934Z</time></trkpt><trkpt lat="42.2689044" lon="13.7596846"><ele>538.0</ele><time>2026-05-02T09:54:48.935Z</time></trkpt><trkpt lat="42.2688976" lon="13.7595671"><ele>538.0</ele><time>2026-05-02T09:54:49.935Z</time></trkpt><trkpt lat="42.2688667" lon="13.7594736"><ele>538.0</ele><time>2026-05-02T09:54:50.934Z</time></trkpt><trkpt lat="42.2688186" lon="13.7594137"><ele>538.0</ele><time>2026-05-02T09:54:51.935Z</time></trkpt><trkpt lat="42.2687339" lon="13.7593623"><ele>538.0</ele><time>2026-05-02T09:54:53.934Z</time></trkpt><trkpt lat="42.2686736" lon="13.7594066"><ele>538.0</ele><time>2026-05-02T09:54:55.933Z</time></trkpt><trkpt lat="42.268641" lon="13.7595055"><ele>538.0</ele><time>2026-05-02T09:54:57.934Z</time></trkpt><trkpt lat="42.2685809" lon="13.7596385"><ele>538.0</ele><time>2026-05-02T09:54:59.935Z</time></trkpt><trkpt lat="42.2685467" lon="13.7597277"><ele>538.0</ele><time>2026-05-02T09:55:00.935Z</time></trkpt><trkpt lat="42.2685093" lon="13.7598144"><ele>538.0</ele><time>2026-05-02T09:55:01.934Z</time></trkpt><trkpt lat="42.2684654" lon="13.7598902"><ele>538.0</ele><time>2026-05-02T09:55:02.936Z</time></trkpt><trkpt lat="42.2684262" lon="13.7599677"><ele>538.0</ele><time>2026-05-02T09:55:03.935Z</time></trkpt><trkpt lat="42.2683809" lon="13.7600509"><ele>538.0</ele><time>2026-05-02T09:55:04.934Z</time></trkpt><trkpt lat="42.2683397" lon="13.7601336"><ele>538.0</ele><time>2026-05-02T09:55:05.935Z</time></trkpt><trkpt lat="42.2682907" lon="13.760209"><ele>538.0</ele><time>2026-05-02T09:55:06.935Z</time></trkpt><trkpt lat="42.268239" lon="13.7602804"><ele>538.0</ele><time>2026-05-02T09:55:07.935Z</time></trkpt><trkpt lat="42.2681857" lon="13.7603499"><ele>538.0</ele><time>2026-05-02T09:55:08.935Z</time></trkpt><trkpt lat="42.2681316" lon="13.7604201"><ele>538.0</ele><time>2026-05-02T09:55:09.935Z</time></trkpt><trkpt lat="42.2680719" lon="13.7604841"><ele>538.0</ele><time>2026-05-02T09:55:10.934Z</time></trkpt><trkpt lat="42.268018" lon="13.7605428"><ele>538.4285714285714</ele><time>2026-05-02T09:55:11.934Z</time></trkpt><trkpt lat="42.2679648" lon="13.7606043"><ele>538.8571428571429</ele><time>2026-05-02T09:55:12.934Z</time></trkpt><trkpt lat="42.2679145" lon="13.7606723"><ele>539.2857142857143</ele><time>2026-05-02T09:55:13.934Z</time></trkpt><trkpt lat="42.2678624" lon="13.7607362"><ele>539.7142857142858</ele><time>2026-05-02T09:55:14.934Z</time></trkpt><trkpt lat="42.2678099" lon="13.7608086"><ele>540.1428571428571</ele><time>2026-05-02T09:55:15.935Z</time></trkpt><trkpt lat="42.2677648" lon="13.7608846"><ele>540.5714285714287</ele><time>2026-05-02T09:55:16.934Z</time></trkpt><trkpt lat="42.2677101" lon="13.7609616"><ele>541.0</ele><time>2026-05-02T09:55:17.935Z</time></trkpt><trkpt lat="42.2676586" lon="13.7610381"><ele>541.0</ele><time>2026-05-02T09:55:18.935Z</time></trkpt><trkpt lat="42.2676042" lon="13.7611164"><ele>541.0</ele><time>2026-05-02T09:55:19.934Z</time></trkpt><trkpt lat="42.2675599" lon="13.7611988"><ele>541.0</ele><time>2026-05-02T09:55:20.934Z</time></trkpt><trkpt lat="42.2675151" lon="13.7612855"><ele>541.0</ele><time>2026-05-02T09:55:21.936Z</time></trkpt><trkpt lat="42.2674668" lon="13.7613678"><ele>541.0</ele><time>2026-05-02T09:55:22.935Z</time></trkpt><trkpt lat="42.2674218" lon="13.7614466"><ele>541.0</ele><time>2026-05-02T09:55:23.936Z</time></trkpt><trkpt lat="42.267375" lon="13.7615105"><ele>541.0</ele><time>2026-05-02T09:55:24.934Z</time></trkpt><trkpt lat="42.2673214" lon="13.7615632"><ele>541.0</ele><time>2026-05-02T09:55:25.934Z</time></trkpt><trkpt lat="42.2672573" lon="13.761612"><ele>541.0</ele><time>2026-05-02T09:55:26.934Z</time></trkpt><trkpt lat="42.2671995" lon="13.7616532"><ele>541.0</ele><time>2026-05-02T09:55:27.934Z</time></trkpt><trkpt lat="42.267111" lon="13.7617208"><ele>541.0</ele><time>2026-05-02T09:55:29.935Z</time></trkpt><trkpt lat="42.2670484" lon="13.7617693"><ele>541.0</ele><time>2026-05-02T09:55:31.936Z</time></trkpt><trkpt lat="42.2669768" lon="13.7618214"><ele>542.1666666666667</ele><time>2026-05-02T09:55:45.934Z</time></trkpt><trkpt lat="42.266925" lon="13.7619368"><ele>543.3333333333334</ele><time>2026-05-02T09:55:47.933Z</time></trkpt><trkpt lat="42.2669009" lon="13.7620166"><ele>544.5</ele><time>2026-05-02T09:55:48.935Z</time></trkpt><trkpt lat="42.266861" lon="13.7620907"><ele>545.6666666666666</ele><time>2026-05-02T09:55:49.935Z</time></trkpt><trkpt lat="42.2668144" lon="13.7621916"><ele>546.8333333333333</ele><time>2026-05-02T09:55:50.934Z</time></trkpt><trkpt lat="42.2667587" lon="13.7623034"><ele>548.0</ele><time>2026-05-02T09:55:51.935Z</time></trkpt><trkpt lat="42.2667031" lon="13.7624269"><ele>548.0</ele><time>2026-05-02T09:55:52.934Z</time></trkpt><trkpt lat="42.266628" lon="13.7625282"><ele>548.0</ele><time>2026-05-02T09:55:53.935Z</time></trkpt><trkpt lat="42.2665458" lon="13.762613"><ele>548.0</ele><time>2026-05-02T09:55:54.934Z</time></trkpt><trkpt lat="42.2664528" lon="13.7627039"><ele>548.0</ele><time>2026-05-02T09:55:55.934Z</time></trkpt><trkpt lat="42.266368" lon="13.7628134"><ele>548.0</ele><time>2026-05-02T09:55:56.935Z</time></trkpt><trkpt lat="42.2662846" lon="13.7629123"><ele>549.75</ele><time>2026-05-02T09:55:57.935Z</time></trkpt><trkpt lat="42.2661884" lon="13.7629891"><ele>551.5</ele><time>2026-05-02T09:55:58.935Z</time></trkpt><trkpt lat="42.2660802" lon="13.7630482"><ele>553.25</ele><time>2026-05-02T09:55:59.934Z</time></trkpt><trkpt lat="42.2659601" lon="13.7630885"><ele>555.0</ele><time>2026-05-02T09:56:00.934Z</time></trkpt><trkpt lat="42.2658367" lon="13.7631184"><ele>555.0</ele><time>2026-05-02T09:56:01.936Z</time></trkpt><trkpt lat="42.2657163" lon="13.7631521"><ele>555.0</ele><time>2026-05-02T09:56:02.935Z</time></trkpt><trkpt lat="42.2656021" lon="13.7632149"><ele>555.0</ele><time>2026-05-02T09:56:03.934Z</time></trkpt><trkpt lat="42.2654889" lon="13.7632861"><ele>555.0</ele><time>2026-05-02T09:56:04.934Z</time></trkpt><trkpt lat="42.265371" lon="13.763342"><ele>557.0</ele><time>2026-05-02T09:56:05.934Z</time></trkpt><trkpt lat="42.2652439" lon="13.7633648"><ele>559.0</ele><time>2026-05-02T09:56:06.934Z</time></trkpt><trkpt lat="42.2651142" lon="13.7633714"><ele>561.0</ele><time>2026-05-02T09:56:07.934Z</time></trkpt><trkpt lat="42.2649857" lon="13.7633444"><ele>563.0</ele><time>2026-05-02T09:56:08.935Z</time></trkpt><trkpt lat="42.2648464" lon="13.7633262"><ele>563.25</ele><time>2026-05-02T09:56:09.934Z</time></trkpt><trkpt lat="42.2647024" lon="13.7633313"><ele>563.5</ele><time>2026-05-02T09:56:10.936Z</time></trkpt><trkpt lat="42.2645605" lon="13.7633587"><ele>563.75</ele><time>2026-05-02T09:56:11.935Z</time></trkpt><trkpt lat="42.2644172" lon="13.763419"><ele>564.0</ele><time>2026-05-02T09:56:12.935Z</time></trkpt><trkpt lat="42.2642771" lon="13.7634872"><ele>567.25</ele><time>2026-05-02T09:56:13.934Z</time></trkpt><trkpt lat="42.2641418" lon="13.7635642"><ele>570.5</ele><time>2026-05-02T09:56:14.935Z</time></trkpt><trkpt lat="42.2640133" lon="13.7636456"><ele>573.75</ele><time>2026-05-02T09:56:15.935Z</time></trkpt><trkpt lat="42.2638842" lon="13.7637352"><ele>577.0</ele><time>2026-05-02T09:56:16.935Z</time></trkpt><trkpt lat="42.2637587" lon="13.7638322"><ele>577.0</ele><time>2026-05-02T09:56:17.935Z</time></trkpt><trkpt lat="42.263636" lon="13.7639319"><ele>577.0</ele><time>2026-05-02T09:56:18.935Z</time></trkpt><trkpt lat="42.2635109" lon="13.7640296"><ele>577.0</ele><time>2026-05-02T09:56:19.933Z</time></trkpt><trkpt lat="42.2633773" lon="13.7641262"><ele>577.0</ele><time>2026-05-02T09:56:20.935Z</time></trkpt><trkpt lat="42.2632392" lon="13.7642248"><ele>575.3333333333334</ele><time>2026-05-02T09:56:21.934Z</time></trkpt><trkpt lat="42.2631031" lon="13.764318"><ele>573.6666666666666</ele><time>2026-05-02T09:56:22.935Z</time></trkpt><trkpt lat="42.2629659" lon="13.7644086"><ele>572.0</ele><time>2026-05-02T09:56:23.935Z</time></trkpt><trkpt lat="42.2628333" lon="13.7644926"><ele>577.0</ele><time>2026-05-02T09:56:24.934Z</time></trkpt><trkpt lat="42.2626921" lon="13.7645508"><ele>582.0</ele><time>2026-05-02T09:56:25.934Z</time></trkpt><trkpt lat="42.2625534" lon="13.7645842"><ele>587.0</ele><time>2026-05-02T09:56:26.933Z</time></trkpt><trkpt lat="42.262411" lon="13.7646075"><ele>592.0</ele><time>2026-05-02T09:56:27.934Z</time></trkpt><trkpt lat="42.2622678" lon="13.7646473"><ele>592.25</ele><time>2026-05-02T09:56:28.936Z</time></trkpt><trkpt lat="42.2621256" lon="13.7646989"><ele>592.5</ele><time>2026-05-02T09:56:29.934Z</time></trkpt><trkpt lat="42.261988" lon="13.7647607"><ele>592.75</ele><time>2026-05-02T09:56:30.934Z</time></trkpt><trkpt lat="42.2618474" lon="13.7648166"><ele>593.0</ele><time>2026-05-02T09:56:31.934Z</time></trkpt><trkpt lat="42.2617078" lon="13.7648668"><ele>593.0</ele><time>2026-05-02T09:56:32.934Z</time></trkpt><trkpt lat="42.2615653" lon="13.7649114"><ele>593.0</ele><time>2026-05-02T09:56:33.934Z</time></trkpt><trkpt lat="42.2614187" lon="13.7649506"><ele>593.0</ele><time>2026-05-02T09:56:34.935Z</time></trkpt><trkpt lat="42.2612753" lon="13.7649866"><ele>593.0</ele><time>2026-05-02T09:56:35.934Z</time></trkpt><trkpt lat="42.2611279" lon="13.7650243"><ele>591.5</ele><time>2026-05-02T09:56:36.934Z</time></trkpt><trkpt lat="42.26098" lon="13.7650678"><ele>590.0</ele><time>2026-05-02T09:56:37.934Z</time></trkpt><trkpt lat="42.2608352" lon="13.7651101"><ele>588.5</ele><time>2026-05-02T09:56:38.934Z</time></trkpt><trkpt lat="42.260692" lon="13.7651631"><ele>587.0</ele><time>2026-05-02T09:56:39.934Z</time></trkpt><trkpt lat="42.2605573" lon="13.7652235"><ele>593.0</ele><time>2026-05-02T09:56:40.934Z</time></trkpt><trkpt lat="42.2604211" lon="13.7652729"><ele>599.0</ele><time>2026-05-02T09:56:41.935Z</time></trkpt><trkpt lat="42.2602886" lon="13.7653278"><ele>605.0</ele><time>2026-05-02T09:56:42.936Z</time></trkpt><trkpt lat="42.2601603" lon="13.7653869"><ele>611.0</ele><time>2026-05-02T09:56:43.934Z</time></trkpt><trkpt lat="42.2600342" lon="13.7654423"><ele>611.0</ele><time>2026-05-02T09:56:44.933Z</time></trkpt><trkpt lat="42.2599219" lon="13.7654962"><ele>611.0</ele><time>2026-05-02T09:56:45.933Z</time></trkpt><trkpt lat="42.2598093" lon="13.7655532"><ele>611.0</ele><time>2026-05-02T09:56:46.934Z</time></trkpt><trkpt lat="42.2596995" lon="13.7656012"><ele>611.0</ele><time>2026-05-02T09:56:47.934Z</time></trkpt><trkpt lat="42.2596036" lon="13.7656232"><ele>610.6</ele><time>2026-05-02T09:56:48.934Z</time></trkpt><trkpt lat="42.2595025" lon="13.7656323"><ele>610.2</ele><time>2026-05-02T09:56:49.934Z</time></trkpt><trkpt lat="42.2594048" lon="13.7656108"><ele>609.8</ele><time>2026-05-02T09:56:50.934Z</time></trkpt><trkpt lat="42.2593023" lon="13.7655721"><ele>609.4</ele><time>2026-05-02T09:56:51.934Z</time></trkpt><trkpt lat="42.2592045" lon="13.7655381"><ele>609.0</ele><time>2026-05-02T09:56:52.935Z</time></trkpt><trkpt lat="42.2591103" lon="13.7655056"><ele>609.0</ele><time>2026-05-02T09:56:53.935Z</time></trkpt><trkpt lat="42.2590165" lon="13.7654732"><ele>609.0</ele><time>2026-05-02T09:56:54.935Z</time></trkpt><trkpt lat="42.2589201" lon="13.7654516"><ele>609.0</ele><time>2026-05-02T09:56:55.936Z</time></trkpt><trkpt lat="42.2588256" lon="13.765431"><ele>609.0</ele><time>2026-05-02T09:56:56.934Z</time></trkpt><trkpt lat="42.2587334" lon="13.7654064"><ele>609.0</ele><time>2026-05-02T09:56:57.934Z</time></trkpt><trkpt lat="42.2586431" lon="13.7653896"><ele>608.8</ele><time>2026-05-02T09:56:58.935Z</time></trkpt><trkpt lat="42.2585711" lon="13.765375"><ele>608.5999999999999</ele><time>2026-05-02T09:56:59.934Z</time></trkpt><trkpt lat="42.2585073" lon="13.7653631"><ele>608.4</ele><time>2026-05-02T09:57:00.934Z</time></trkpt><trkpt lat="42.2583911" lon="13.7653526"><ele>608.1999999999999</ele><time>2026-05-02T09:57:02.935Z</time></trkpt><trkpt lat="42.258301" lon="13.7653257"><ele>608.0</ele><time>2026-05-02T09:57:04.934Z</time></trkpt><trkpt lat="42.2581778" lon="13.7652805"><ele>608.0</ele><time>2026-05-02T09:57:06.935Z</time></trkpt><trkpt lat="42.2580926" lon="13.765246"><ele>608.0</ele><time>2026-05-02T09:57:07.934Z</time></trkpt><trkpt lat="42.2580218" lon="13.7652062"><ele>608.0</ele><time>2026-05-02T09:57:08.933Z</time></trkpt><trkpt lat="42.257942" lon="13.7651565"><ele>608.0</ele><time>2026-05-02T09:57:09.934Z</time></trkpt><trkpt lat="42.2578653" lon="13.7651042"><ele>608.0</ele><time>2026-05-02T09:57:10.934Z</time></trkpt><trkpt lat="42.2577826" lon="13.7650624"><ele>608.0</ele><time>2026-05-02T09:57:11.935Z</time></trkpt><trkpt lat="42.2577018" lon="13.765027"><ele>609.3333333333333</ele><time>2026-05-02T09:57:12.935Z</time></trkpt><trkpt lat="42.2576189" lon="13.7649886"><ele>610.6666666666666</ele><time>2026-05-02T09:57:13.935Z</time></trkpt><trkpt lat="42.2575392" lon="13.7649438"><ele>612.0</ele><time>2026-05-02T09:57:14.933Z</time></trkpt><trkpt lat="42.2574663" lon="13.7649017"><ele>613.3333333333334</ele><time>2026-05-02T09:57:15.936Z</time></trkpt><trkpt lat="42.257398" lon="13.7648765"><ele>614.6666666666667</ele><time>2026-05-02T09:57:16.934Z</time></trkpt><trkpt lat="42.2573229" lon="13.7648354"><ele>616.0</ele><time>2026-05-02T09:57:17.933Z</time></trkpt><trkpt lat="42.2572577" lon="13.7647981"><ele>616.8</ele><time>2026-05-02T09:57:18.933Z</time></trkpt><trkpt lat="42.2571755" lon="13.7647497"><ele>617.6</ele><time>2026-05-02T09:57:20.934Z</time></trkpt><trkpt lat="42.2570745" lon="13.7647034"><ele>618.4</ele><time>2026-05-02T09:57:23.934Z</time></trkpt><trkpt lat="42.2570161" lon="13.7646703"><ele>619.2</ele><time>2026-05-02T09:57:24.935Z</time></trkpt><trkpt lat="42.2568879" lon="13.7646609"><ele>620.0</ele><time>2026-05-02T09:57:26.934Z</time></trkpt><trkpt lat="42.2568093" lon="13.7646773"><ele>620.0</ele><time>2026-05-02T09:57:27.933Z</time></trkpt><trkpt lat="42.2567352" lon="13.7647094"><ele>620.0</ele><time>2026-05-02T09:57:28.935Z</time></trkpt><trkpt lat="42.256662" lon="13.7647322"><ele>620.0</ele><time>2026-05-02T09:57:29.934Z</time></trkpt><trkpt lat="42.2565944" lon="13.7647498"><ele>620.0</ele><time>2026-05-02T09:57:30.934Z</time></trkpt><trkpt lat="42.2564832" lon="13.7647562"><ele>620.0</ele><time>2026-05-02T09:57:32.935Z</time></trkpt><trkpt lat="42.2563741" lon="13.764764"><ele>620.0</ele><time>2026-05-02T09:57:34.935Z</time></trkpt><trkpt lat="42.2562746" lon="13.7647701"><ele>621.3333333333333</ele><time>2026-05-02T09:57:36.934Z</time></trkpt><trkpt lat="42.2561534" lon="13.7647621"><ele>622.6666666666666</ele><time>2026-05-02T09:57:38.933Z</time></trkpt><trkpt lat="42.2560859" lon="13.7647559"><ele>624.0</ele><time>2026-05-02T09:57:39.935Z</time></trkpt><trkpt lat="42.2560081" lon="13.7647448"><ele>625.3333333333334</ele><time>2026-05-02T09:57:40.934Z</time></trkpt><trkpt lat="42.2559244" lon="13.7647411"><ele>626.6666666666667</ele><time>2026-05-02T09:57:41.933Z</time></trkpt><trkpt lat="42.2558486" lon="13.7647346"><ele>628.0</ele><time>2026-05-02T09:57:42.933Z</time></trkpt><trkpt lat="42.255783" lon="13.764731"><ele>628.0</ele><time>2026-05-02T09:57:43.935Z</time></trkpt><trkpt lat="42.2557083" lon="13.7647222"><ele>628.0</ele><time>2026-05-02T09:57:44.934Z</time></trkpt><trkpt lat="42.2556339" lon="13.764716"><ele>628.0</ele><time>2026-05-02T09:57:45.935Z</time></trkpt><trkpt lat="42.2555577" lon="13.7647009"><ele>628.0</ele><time>2026-05-02T09:57:46.935Z</time></trkpt><trkpt lat="42.2554766" lon="13.7646825"><ele>628.0</ele><time>2026-05-02T09:57:47.933Z</time></trkpt><trkpt lat="42.2553942" lon="13.7646673"><ele>628.0</ele><time>2026-05-02T09:57:48.935Z</time></trkpt><trkpt lat="42.2553259" lon="13.7646319"><ele>628.8333333333334</ele><time>2026-05-02T09:57:49.933Z</time></trkpt><trkpt lat="42.255266" lon="13.7645939"><ele>629.6666666666667</ele><time>2026-05-02T09:57:50.934Z</time></trkpt><trkpt lat="42.2551928" lon="13.7645521"><ele>630.5</ele><time>2026-05-02T09:57:51.934Z</time></trkpt><trkpt lat="42.2551209" lon="13.7645219"><ele>631.3333333333334</ele><time>2026-05-02T09:57:52.934Z</time></trkpt><trkpt lat="42.2550352" lon="13.7645334"><ele>632.1666666666666</ele><time>2026-05-02T09:57:53.934Z</time></trkpt><trkpt lat="42.2549534" lon="13.7645454"><ele>633.0</ele><time>2026-05-02T09:57:54.934Z</time></trkpt><trkpt lat="42.2548817" lon="13.7645549"><ele>633.0</ele><time>2026-05-02T09:57:55.934Z</time></trkpt><trkpt lat="42.2547912" lon="13.7645576"><ele>633.0</ele><time>2026-05-02T09:57:56.934Z</time></trkpt><trkpt lat="42.2547065" lon="13.7645485"><ele>633.0</ele><time>2026-05-02T09:57:57.934Z</time></trkpt><trkpt lat="42.2546186" lon="13.7645244"><ele>633.0</ele><time>2026-05-02T09:57:58.934Z</time></trkpt><trkpt lat="42.2545285" lon="13.7644965"><ele>633.0</ele><time>2026-05-02T09:57:59.935Z</time></trkpt><trkpt lat="42.2544398" lon="13.7644815"><ele>633.0</ele><time>2026-05-02T09:58:00.934Z</time></trkpt><trkpt lat="42.2543619" lon="13.7644771"><ele>634.8333333333334</ele><time>2026-05-02T09:58:01.933Z</time></trkpt><trkpt lat="42.2542737" lon="13.7644724"><ele>636.6666666666666</ele><time>2026-05-02T09:58:02.935Z</time></trkpt><trkpt lat="42.2541877" lon="13.7644675"><ele>638.5</ele><time>2026-05-02T09:58:03.935Z</time></trkpt><trkpt lat="42.254111" lon="13.7644469"><ele>640.3333333333333</ele><time>2026-05-02T09:58:04.935Z</time></trkpt><trkpt lat="42.2540359" lon="13.7644334"><ele>642.1666666666666</ele><time>2026-05-02T09:58:05.934Z</time></trkpt><trkpt lat="42.2539724" lon="13.7644198"><ele>644.0</ele><time>2026-05-02T09:58:06.934Z</time></trkpt><trkpt lat="42.253904" lon="13.7643903"><ele>644.0</ele><time>2026-05-02T09:58:07.935Z</time></trkpt><trkpt lat="42.2538403" lon="13.7643707"><ele>644.0</ele><time>2026-05-02T09:58:08.934Z</time></trkpt><trkpt lat="42.2537729" lon="13.7643319"><ele>644.0</ele><time>2026-05-02T09:58:09.934Z</time></trkpt><trkpt lat="42.2537072" lon="13.7642854"><ele>644.0</ele><time>2026-05-02T09:58:10.934Z</time></trkpt><trkpt lat="42.2536027" lon="13.7641932"><ele>644.0</ele><time>2026-05-02T09:58:12.934Z</time></trkpt><trkpt lat="42.2535537" lon="13.7641331"><ele>644.0</ele><time>2026-05-02T09:58:13.934Z</time></trkpt><trkpt lat="42.253511" lon="13.7640569"><ele>645.1666666666666</ele><time>2026-05-02T09:58:14.935Z</time></trkpt><trkpt lat="42.2534755" lon="13.7639808"><ele>646.3333333333333</ele><time>2026-05-02T09:58:15.935Z</time></trkpt><trkpt lat="42.2534256" lon="13.7638937"><ele>647.5</ele><time>2026-05-02T09:58:16.933Z</time></trkpt><trkpt lat="42.2533717" lon="13.7638074"><ele>648.6666666666666</ele><time>2026-05-02T09:58:17.935Z</time></trkpt><trkpt lat="42.2533201" lon="13.763727"><ele>649.8333333333334</ele><time>2026-05-02T09:58:18.934Z</time></trkpt><trkpt lat="42.253251" lon="13.7636639"><ele>651.0</ele><time>2026-05-02T09:58:19.934Z</time></trkpt><trkpt lat="42.2531825" lon="13.7636196"><ele>652.1666666666666</ele><time>2026-05-02T09:58:20.935Z</time></trkpt><trkpt lat="42.2531086" lon="13.7635728"><ele>653.3333333333334</ele><time>2026-05-02T09:58:21.933Z</time></trkpt><trkpt lat="42.2530258" lon="13.7635348"><ele>654.5</ele><time>2026-05-02T09:58:22.934Z</time></trkpt><trkpt lat="42.2529461" lon="13.7634989"><ele>655.6666666666667</ele><time>2026-05-02T09:58:23.934Z</time></trkpt><trkpt lat="42.2528616" lon="13.7634632"><ele>656.8333333333334</ele><time>2026-05-02T09:58:24.934Z</time></trkpt><trkpt lat="42.2527767" lon="13.7634432"><ele>658.0</ele><time>2026-05-02T09:58:25.934Z</time></trkpt><trkpt lat="42.2526866" lon="13.7634291"><ele>658.0</ele><time>2026-05-02T09:58:26.933Z</time></trkpt><trkpt lat="42.2525975" lon="13.7634189"><ele>658.0</ele><time>2026-05-02T09:58:27.934Z</time></trkpt><trkpt lat="42.2525155" lon="13.7634024"><ele>658.0</ele><time>2026-05-02T09:58:28.934Z</time></trkpt><trkpt lat="42.25243" lon="13.7633802"><ele>658.0</ele><time>2026-05-02T09:58:29.935Z</time></trkpt><trkpt lat="42.2523437" lon="13.7633646"><ele>658.0</ele><time>2026-05-02T09:58:30.935Z</time></trkpt><trkpt lat="42.2522609" lon="13.7633394"><ele>658.0</ele><time>2026-05-02T09:58:31.934Z</time></trkpt><trkpt lat="42.2521867" lon="13.7633081"><ele>657.5</ele><time>2026-05-02T09:58:32.934Z</time></trkpt><trkpt lat="42.2521053" lon="13.7632676"><ele>657.0</ele><time>2026-05-02T09:58:33.934Z</time></trkpt><trkpt lat="42.2520315" lon="13.7632205"><ele>656.5</ele><time>2026-05-02T09:58:34.935Z</time></trkpt><trkpt lat="42.2519642" lon="13.7631787"><ele>656.0</ele><time>2026-05-02T09:58:35.934Z</time></trkpt><trkpt lat="42.2518935" lon="13.7631249"><ele>655.5</ele><time>2026-05-02T09:58:36.935Z</time></trkpt><trkpt lat="42.2518324" lon="13.7630574"><ele>655.0</ele><time>2026-05-02T09:58:37.935Z</time></trkpt><trkpt lat="42.2517771" lon="13.7629779"><ele>655.0</ele><time>2026-05-02T09:58:38.934Z</time></trkpt><trkpt lat="42.2517229" lon="13.7628956"><ele>655.0</ele><time>2026-05-02T09:58:39.933Z</time></trkpt><trkpt lat="42.2516681" lon="13.7628239"><ele>655.0</ele><time>2026-05-02T09:58:40.934Z</time></trkpt><trkpt lat="42.2516091" lon="13.7627501"><ele>655.0</ele><time>2026-05-02T09:58:41.935Z</time></trkpt><trkpt lat="42.2515439" lon="13.7626821"><ele>655.0</ele><time>2026-05-02T09:58:42.933Z</time></trkpt><trkpt lat="42.2514831" lon="13.7626231"><ele>655.0</ele><time>2026-05-02T09:58:43.934Z</time></trkpt><trkpt lat="42.2514188" lon="13.7625585"><ele>658.0</ele><time>2026-05-02T09:58:44.935Z</time></trkpt><trkpt lat="42.2513535" lon="13.7624985"><ele>661.0</ele><time>2026-05-02T09:58:45.934Z</time></trkpt><trkpt lat="42.2512827" lon="13.7624389"><ele>664.0</ele><time>2026-05-02T09:58:46.933Z</time></trkpt><trkpt lat="42.2512213" lon="13.7623817"><ele>667.0</ele><time>2026-05-02T09:58:47.936Z</time></trkpt><trkpt lat="42.2511546" lon="13.7623351"><ele>670.0</ele><time>2026-05-02T09:58:48.934Z</time></trkpt><trkpt lat="42.2510885" lon="13.7622879"><ele>673.0</ele><time>2026-05-02T09:58:49.936Z</time></trkpt><trkpt lat="42.2510208" lon="13.7622519"><ele>673.0</ele><time>2026-05-02T09:58:50.935Z</time></trkpt><trkpt lat="42.250952" lon="13.7622285"><ele>673.0</ele><time>2026-05-02T09:58:51.935Z</time></trkpt><trkpt lat="42.250892" lon="13.7622027"><ele>673.0</ele><time>2026-05-02T09:58:52.934Z</time></trkpt><trkpt lat="42.2508259" lon="13.7621915"><ele>673.0</ele><time>2026-05-02T09:58:53.934Z</time></trkpt><trkpt lat="42.2507608" lon="13.7621965"><ele>673.0</ele><time>2026-05-02T09:58:54.933Z</time></trkpt><trkpt lat="42.2506793" lon="13.7622925"><ele>673.0</ele><time>2026-05-02T09:58:56.934Z</time></trkpt><trkpt lat="42.2506193" lon="13.7624553"><ele>672.3333333333334</ele><time>2026-05-02T09:58:58.936Z</time></trkpt><trkpt lat="42.250568" lon="13.762532"><ele>671.6666666666667</ele><time>2026-05-02T09:58:59.934Z</time></trkpt><trkpt lat="42.2505125" lon="13.7625845"><ele>671.0</ele><time>2026-05-02T09:59:00.934Z</time></trkpt><trkpt lat="42.250433" lon="13.7626322"><ele>670.3333333333334</ele><time>2026-05-02T09:59:01.934Z</time></trkpt><trkpt lat="42.2503461" lon="13.7626673"><ele>669.6666666666666</ele><time>2026-05-02T09:59:02.934Z</time></trkpt><trkpt lat="42.250261" lon="13.7626856"><ele>669.0</ele><time>2026-05-02T09:59:03.936Z</time></trkpt><trkpt lat="42.2501732" lon="13.7627017"><ele>669.0</ele><time>2026-05-02T09:59:04.935Z</time></trkpt><trkpt lat="42.2500862" lon="13.7627193"><ele>669.0</ele><time>2026-05-02T09:59:05.935Z</time></trkpt><trkpt lat="42.2500099" lon="13.7627399"><ele>669.0</ele><time>2026-05-02T09:59:06.935Z</time></trkpt><trkpt lat="42.2499321" lon="13.7627694"><ele>669.0</ele><time>2026-05-02T09:59:07.934Z</time></trkpt><trkpt lat="42.2498585" lon="13.7627958"><ele>669.0</ele><time>2026-05-02T09:59:08.934Z</time></trkpt><trkpt lat="42.2497819" lon="13.7628332"><ele>669.0</ele><time>2026-05-02T09:59:09.934Z</time></trkpt><trkpt lat="42.2497096" lon="13.7628863"><ele>671.5</ele><time>2026-05-02T09:59:10.934Z</time></trkpt><trkpt lat="42.2496375" lon="13.7629494"><ele>674.0</ele><time>2026-05-02T09:59:11.935Z</time></trkpt><trkpt lat="42.2495625" lon="13.763026"><ele>676.5</ele><time>2026-05-02T09:59:12.934Z</time></trkpt><trkpt lat="42.2494964" lon="13.7631007"><ele>679.0</ele><time>2026-05-02T09:59:13.934Z</time></trkpt><trkpt lat="42.2494277" lon="13.7631678"><ele>681.5</ele><time>2026-05-02T09:59:14.935Z</time></trkpt><trkpt lat="42.2493538" lon="13.7632367"><ele>684.0</ele><time>2026-05-02T09:59:15.934Z</time></trkpt><trkpt lat="42.2492768" lon="13.7632926"><ele>684.0</ele><time>2026-05-02T09:59:16.935Z</time></trkpt><trkpt lat="42.2491995" lon="13.7633413"><ele>684.0</ele><time>2026-05-02T09:59:17.934Z</time></trkpt><trkpt lat="42.2491218" lon="13.7633867"><ele>684.0</ele><time>2026-05-02T09:59:18.935Z</time></trkpt><trkpt lat="42.2490458" lon="13.763441"><ele>684.0</ele><time>2026-05-02T09:59:19.934Z</time></trkpt><trkpt lat="42.2489655" lon="13.7634902"><ele>684.0</ele><time>2026-05-02T09:59:20.934Z</time></trkpt><trkpt lat="42.2488892" lon="13.7635402"><ele>684.0</ele><time>2026-05-02T09:59:21.933Z</time></trkpt><trkpt lat="42.2488106" lon="13.7636007"><ele>684.6666666666666</ele><time>2026-05-02T09:59:22.933Z</time></trkpt><trkpt lat="42.2487335" lon="13.7636568"><ele>685.3333333333334</ele><time>2026-05-02T09:59:23.934Z</time></trkpt><trkpt lat="42.2486656" lon="13.7637288"><ele>686.0</ele><time>2026-05-02T09:59:24.933Z</time></trkpt><trkpt lat="42.2486057" lon="13.7637947"><ele>686.6666666666667</ele><time>2026-05-02T09:59:25.935Z</time></trkpt><trkpt lat="42.2485567" lon="13.7638527"><ele>687.3333333333334</ele><time>2026-05-02T09:59:26.934Z</time></trkpt><trkpt lat="42.2485056" lon="13.7639156"><ele>688.0</ele><time>2026-05-02T09:59:27.933Z</time></trkpt><trkpt lat="42.2484462" lon="13.7639852"><ele>688.0</ele><time>2026-05-02T09:59:28.934Z</time></trkpt><trkpt lat="42.2483788" lon="13.7640571"><ele>688.0</ele><time>2026-05-02T09:59:29.934Z</time></trkpt><trkpt lat="42.2483084" lon="13.7641324"><ele>688.0</ele><time>2026-05-02T09:59:30.934Z</time></trkpt><trkpt lat="42.2482423" lon="13.7642035"><ele>688.0</ele><time>2026-05-02T09:59:31.933Z</time></trkpt><trkpt lat="42.2481814" lon="13.7642721"><ele>688.0</ele><time>2026-05-02T09:59:32.934Z</time></trkpt><trkpt lat="42.2481152" lon="13.7643391"><ele>688.0</ele><time>2026-05-02T09:59:33.933Z</time></trkpt><trkpt lat="42.2480492" lon="13.7644068"><ele>689.3333333333334</ele><time>2026-05-02T09:59:34.934Z</time></trkpt><trkpt lat="42.2479826" lon="13.7644766"><ele>690.6666666666667</ele><time>2026-05-02T09:59:35.934Z</time></trkpt><trkpt lat="42.2479297" lon="13.7645462"><ele>692.0</ele><time>2026-05-02T09:59:36.933Z</time></trkpt><trkpt lat="42.2478808" lon="13.7646136"><ele>693.3333333333334</ele><time>2026-05-02T09:59:37.934Z</time></trkpt><trkpt lat="42.2478305" lon="13.7646902"><ele>694.6666666666666</ele><time>2026-05-02T09:59:38.935Z</time></trkpt><trkpt lat="42.2477835" lon="13.7647744"><ele>696.0</ele><time>2026-05-02T09:59:39.934Z</time></trkpt><trkpt lat="42.2477416" lon="13.7648609"><ele>696.0</ele><time>2026-05-02T09:59:40.934Z</time></trkpt><trkpt lat="42.2477056" lon="13.7649409"><ele>696.0</ele><time>2026-05-02T09:59:41.935Z</time></trkpt><trkpt lat="42.2476241" lon="13.7650551"><ele>696.0</ele><time>2026-05-02T09:59:43.934Z</time></trkpt><trkpt lat="42.2475456" lon="13.7651351"><ele>696.0</ele><time>2026-05-02T09:59:45.933Z</time></trkpt><trkpt lat="42.2474879" lon="13.7651733"><ele>696.0</ele><time>2026-05-02T09:59:46.934Z</time></trkpt><trkpt lat="42.2474253" lon="13.7652213"><ele>696.0</ele><time>2026-05-02T09:59:47.934Z</time></trkpt><trkpt lat="42.2473582" lon="13.7652747"><ele>696.3333333333334</ele><time>2026-05-02T09:59:48.935Z</time></trkpt><trkpt lat="42.2472941" lon="13.7653151"><ele>696.6666666666666</ele><time>2026-05-02T09:59:49.935Z</time></trkpt><trkpt lat="42.2471955" lon="13.7653747"><ele>697.0</ele><time>2026-05-02T09:59:51.934Z</time></trkpt><trkpt lat="42.2471336" lon="13.7654044"><ele>697.3333333333333</ele><time>2026-05-02T09:59:52.934Z</time></trkpt><trkpt lat="42.2470425" lon="13.7654438"><ele>697.6666666666666</ele><time>2026-05-02T09:59:54.934Z</time></trkpt><trkpt lat="42.2469433" lon="13.765504"><ele>698.0</ele><time>2026-05-02T09:59:56.934Z</time></trkpt><trkpt lat="42.2468848" lon="13.7655444"><ele>700.3333333333333</ele><time>2026-05-02T09:59:57.934Z</time></trkpt><trkpt lat="42.2468261" lon="13.7655898"><ele>702.6666666666666</ele><time>2026-05-02T09:59:58.934Z</time></trkpt><trkpt lat="42.2467608" lon="13.7656407"><ele>705.0</ele><time>2026-05-02T09:59:59.933Z</time></trkpt><trkpt lat="42.2466984" lon="13.76569"><ele>707.3333333333334</ele><time>2026-05-02T10:00:00.934Z</time></trkpt><trkpt lat="42.2466408" lon="13.7657426"><ele>709.6666666666667</ele><time>2026-05-02T10:00:01.934Z</time></trkpt><trkpt lat="42.2465388" lon="13.7658166"><ele>712.0</ele><time>2026-05-02T10:00:03.935Z</time></trkpt><trkpt lat="42.2464599" lon="13.7659076"><ele>713.6</ele><time>2026-05-02T10:00:05.935Z</time></trkpt><trkpt lat="42.2463859" lon="13.7660305"><ele>715.2</ele><time>2026-05-02T10:00:07.934Z</time></trkpt><trkpt lat="42.2463383" lon="13.7661062"><ele>716.8</ele><time>2026-05-02T10:00:08.934Z</time></trkpt><trkpt lat="42.2462967" lon="13.7661714"><ele>718.4</ele><time>2026-05-02T10:00:09.935Z</time></trkpt><trkpt lat="42.2462336" lon="13.7662508"><ele>720.0</ele><time>2026-05-02T10:00:11.935Z</time></trkpt><trkpt lat="42.2461469" lon="13.7663522"><ele>720.0</ele><time>2026-05-02T10:00:13.934Z</time></trkpt><trkpt lat="42.246064" lon="13.7664394"><ele>720.0</ele><time>2026-05-02T10:00:15.935Z</time></trkpt><trkpt lat="42.2459737" lon="13.7665061"><ele>720.0</ele><time>2026-05-02T10:00:17.935Z</time></trkpt><trkpt lat="42.245909" lon="13.7665147"><ele>720.0</ele><time>2026-05-02T10:00:18.934Z</time></trkpt><trkpt lat="42.2458416" lon="13.7665196"><ele>720.0</ele><time>2026-05-02T10:00:19.935Z</time></trkpt><trkpt lat="42.2457182" lon="13.7665636"><ele>720.0</ele><time>2026-05-02T10:00:21.935Z</time></trkpt><trkpt lat="42.24565" lon="13.7665983"><ele>720.0</ele><time>2026-05-02T10:00:22.933Z</time></trkpt><trkpt lat="42.2455745" lon="13.7666325"><ele>720.0</ele><time>2026-05-02T10:00:23.934Z</time></trkpt><trkpt lat="42.2454963" lon="13.76667"><ele>720.0</ele><time>2026-05-02T10:00:24.934Z</time></trkpt><trkpt lat="42.2454235" lon="13.7667192"><ele>720.0</ele><time>2026-05-02T10:00:25.935Z</time></trkpt><trkpt lat="42.2453636" lon="13.7667634"><ele>720.0</ele><time>2026-05-02T10:00:26.933Z</time></trkpt><trkpt lat="42.2453037" lon="13.7667977"><ele>719.75</ele><time>2026-05-02T10:00:27.933Z</time></trkpt><trkpt lat="42.2451775" lon="13.7668252"><ele>719.5</ele><time>2026-05-02T10:00:29.934Z</time></trkpt><trkpt lat="42.2450648" lon="13.7668679"><ele>719.25</ele><time>2026-05-02T10:00:31.935Z</time></trkpt><trkpt lat="42.2449549" lon="13.766898"><ele>719.0</ele><time>2026-05-02T10:00:33.933Z</time></trkpt><trkpt lat="42.2448557" lon="13.7669416"><ele>721.0</ele><time>2026-05-02T10:00:35.935Z</time></trkpt><trkpt lat="42.2447581" lon="13.7669815"><ele>723.0</ele><time>2026-05-02T10:00:37.935Z</time></trkpt><trkpt lat="42.2446424" lon="13.7670078"><ele>725.0</ele><time>2026-05-02T10:00:39.934Z</time></trkpt><trkpt lat="42.2445795" lon="13.7670146"><ele>727.0</ele><time>2026-05-02T10:00:40.934Z</time></trkpt><trkpt lat="42.24447" lon="13.7670431"><ele>729.0</ele><time>2026-05-02T10:00:42.934Z</time></trkpt><trkpt lat="42.2443681" lon="13.7670633"><ele>729.0</ele><time>2026-05-02T10:00:44.934Z</time></trkpt><trkpt lat="42.2442824" lon="13.767068"><ele>729.0</ele><time>2026-05-02T10:00:46.934Z</time></trkpt><trkpt lat="42.2441778" lon="13.7670686"><ele>729.0</ele><time>2026-05-02T10:00:48.933Z</time></trkpt><trkpt lat="42.2440613" lon="13.767097"><ele>729.0</ele><time>2026-05-02T10:00:50.934Z</time></trkpt><trkpt lat="42.2439459" lon="13.7671289"><ele>729.0</ele><time>2026-05-02T10:00:52.934Z</time></trkpt><trkpt lat="42.2438455" lon="13.767171"><ele>731.5</ele><time>2026-05-02T10:00:54.934Z</time></trkpt><trkpt lat="42.2437447" lon="13.7672147"><ele>734.0</ele><time>2026-05-02T10:00:56.934Z</time></trkpt><trkpt lat="42.2436608" lon="13.7672413"><ele>736.5</ele><time>2026-05-02T10:00:58.934Z</time></trkpt><trkpt lat="42.2435981" lon="13.7672291"><ele>739.0</ele><time>2026-05-02T10:01:01.934Z</time></trkpt><trkpt lat="42.2435348" lon="13.7672683"><ele>741.5</ele><time>2026-05-02T10:01:06.934Z</time></trkpt><trkpt lat="42.2434372" lon="13.7672573"><ele>744.0</ele><time>2026-05-02T10:01:08.934Z</time></trkpt><trkpt lat="42.2433712" lon="13.7672681"><ele>744.0</ele><time>2026-05-02T10:01:09.934Z</time></trkpt><trkpt lat="42.2432964" lon="13.7672823"><ele>744.0</ele><time>2026-05-02T10:01:10.934Z</time></trkpt><trkpt lat="42.2432221" lon="13.7672949"><ele>744.0</ele><time>2026-05-02T10:01:11.934Z</time></trkpt><trkpt lat="42.243146" lon="13.7673039"><ele>744.0</ele><time>2026-05-02T10:01:12.935Z</time></trkpt><trkpt lat="42.2430589" lon="13.7673197"><ele>744.0</ele><time>2026-05-02T10:01:13.935Z</time></trkpt><trkpt lat="42.2429796" lon="13.767329"><ele>744.0</ele><time>2026-05-02T10:01:14.934Z</time></trkpt><trkpt lat="42.2428816" lon="13.7673333"><ele>747.25</ele><time>2026-05-02T10:01:15.934Z</time></trkpt><trkpt lat="42.2427482" lon="13.7673684"><ele>750.5</ele><time>2026-05-02T10:01:16.934Z</time></trkpt><trkpt lat="42.2426131" lon="13.7674039"><ele>753.75</ele><time>2026-05-02T10:01:17.934Z</time></trkpt><trkpt lat="42.2424898" lon="13.7674248"><ele>757.0</ele><time>2026-05-02T10:01:18.935Z</time></trkpt><trkpt lat="42.2423731" lon="13.7674556"><ele>761.75</ele><time>2026-05-02T10:01:19.934Z</time></trkpt><trkpt lat="42.2422582" lon="13.7675003"><ele>766.5</ele><time>2026-05-02T10:01:20.934Z</time></trkpt><trkpt lat="42.2421522" lon="13.7675432"><ele>771.25</ele><time>2026-05-02T10:01:21.934Z</time></trkpt><trkpt lat="42.2420472" lon="13.7675889"><ele>776.0</ele><time>2026-05-02T10:01:22.934Z</time></trkpt><trkpt lat="42.2419362" lon="13.7676559"><ele>771.25</ele><time>2026-05-02T10:01:23.934Z</time></trkpt><trkpt lat="42.2418302" lon="13.7677346"><ele>766.5</ele><time>2026-05-02T10:01:24.933Z</time></trkpt><trkpt lat="42.2417291" lon="13.7678188"><ele>761.75</ele><time>2026-05-02T10:01:25.933Z</time></trkpt><trkpt lat="42.2416335" lon="13.7678907"><ele>757.0</ele><time>2026-05-02T10:01:26.934Z</time></trkpt><trkpt lat="42.2415466" lon="13.7680099"><ele>761.5</ele><time>2026-05-02T10:01:27.934Z</time></trkpt><trkpt lat="42.2414568" lon="13.7681342"><ele>766.0</ele><time>2026-05-02T10:01:28.933Z</time></trkpt><trkpt lat="42.2413785" lon="13.7682739"><ele>770.5</ele><time>2026-05-02T10:01:29.934Z</time></trkpt><trkpt lat="42.2412904" lon="13.7684183"><ele>775.0</ele><time>2026-05-02T10:01:30.934Z</time></trkpt><trkpt lat="42.2412048" lon="13.7685574"><ele>775.0</ele><time>2026-05-02T10:01:31.934Z</time></trkpt><trkpt lat="42.2411255" lon="13.7686862"><ele>775.0</ele><time>2026-05-02T10:01:32.933Z</time></trkpt><trkpt lat="42.2410517" lon="13.7687938"><ele>775.0</ele><time>2026-05-02T10:01:33.934Z</time></trkpt><trkpt lat="42.2409917" lon="13.7688893"><ele>775.0</ele><time>2026-05-02T10:01:34.935Z</time></trkpt><trkpt lat="42.2409407" lon="13.7690046"><ele>775.0</ele><time>2026-05-02T10:01:35.934Z</time></trkpt><trkpt lat="42.2408965" lon="13.7691179"><ele>774.9999999999999</ele><time>2026-05-02T10:01:36.934Z</time></trkpt><trkpt lat="42.2408565" lon="13.7692138"><ele>775.0</ele><time>2026-05-02T10:01:37.934Z</time></trkpt><trkpt lat="42.2408168" lon="13.7692839"><ele>775.0</ele><time>2026-05-02T10:01:38.935Z</time></trkpt><trkpt lat="42.2407251" lon="13.7693456"><ele>775.0</ele><time>2026-05-02T10:01:40.935Z</time></trkpt><trkpt lat="42.2406051" lon="13.7693417"><ele>774.9999999999999</ele><time>2026-05-02T10:01:42.934Z</time></trkpt><trkpt lat="42.240539" lon="13.7693257"><ele>775.0</ele><time>2026-05-02T10:01:43.934Z</time></trkpt><trkpt lat="42.2404634" lon="13.7692801"><ele>777.8</ele><time>2026-05-02T10:01:44.934Z</time></trkpt><trkpt lat="42.2403821" lon="13.7692417"><ele>780.6</ele><time>2026-05-02T10:01:45.934Z</time></trkpt><trkpt lat="42.2402996" lon="13.7692167"><ele>783.4000000000001</ele><time>2026-05-02T10:01:46.934Z</time></trkpt><trkpt lat="42.2402058" lon="13.7692109"><ele>786.2</ele><time>2026-05-02T10:01:47.934Z</time></trkpt><trkpt lat="42.240108" lon="13.7692042"><ele>789.0</ele><time>2026-05-02T10:01:48.933Z</time></trkpt><trkpt lat="42.2400177" lon="13.7691929"><ele>789.0</ele><time>2026-05-02T10:01:49.933Z</time></trkpt><trkpt lat="42.2399225" lon="13.7691847"><ele>789.0</ele><time>2026-05-02T10:01:50.934Z</time></trkpt><trkpt lat="42.239821" lon="13.769178"><ele>789.0</ele><time>2026-05-02T10:01:51.935Z</time></trkpt><trkpt lat="42.2397254" lon="13.7691615"><ele>789.0</ele><time>2026-05-02T10:01:52.934Z</time></trkpt><trkpt lat="42.2396304" lon="13.7691313"><ele>789.0</ele><time>2026-05-02T10:01:53.933Z</time></trkpt><trkpt lat="42.2395605" lon="13.7690987"><ele>791.6666666666666</ele><time>2026-05-02T10:01:54.934Z</time></trkpt><trkpt lat="42.2394693" lon="13.769083"><ele>794.3333333333333</ele><time>2026-05-02T10:01:55.934Z</time></trkpt><trkpt lat="42.2393989" lon="13.7690881"><ele>797.0</ele><time>2026-05-02T10:01:56.934Z</time></trkpt><trkpt lat="42.239337" lon="13.7691163"><ele>799.6666666666666</ele><time>2026-05-02T10:01:57.934Z</time></trkpt><trkpt lat="42.2392834" lon="13.7691741"><ele>802.3333333333333</ele><time>2026-05-02T10:01:58.934Z</time></trkpt><trkpt lat="42.2391958" lon="13.7692623"><ele>805.0</ele><time>2026-05-02T10:02:00.934Z</time></trkpt><trkpt lat="42.2391362" lon="13.7693084"><ele>804.9999999999999</ele><time>2026-05-02T10:02:01.934Z</time></trkpt><trkpt lat="42.2390548" lon="13.7693453"><ele>805.0</ele><time>2026-05-02T10:02:02.934Z</time></trkpt><trkpt lat="42.2389662" lon="13.7693779"><ele>805.0</ele><time>2026-05-02T10:02:03.935Z</time></trkpt><trkpt lat="42.2388808" lon="13.7693934"><ele>805.0</ele><time>2026-05-02T10:02:04.934Z</time></trkpt><trkpt lat="42.2387916" lon="13.7693903"><ele>804.9999999999999</ele><time>2026-05-02T10:02:05.934Z</time></trkpt><trkpt lat="42.23871" lon="13.7693853"><ele>805.0</ele><time>2026-05-02T10:02:06.933Z</time></trkpt><trkpt lat="42.2386293" lon="13.7693962"><ele>804.8</ele><time>2026-05-02T10:02:07.933Z</time></trkpt><trkpt lat="42.2385423" lon="13.7694061"><ele>804.6</ele><time>2026-05-02T10:02:08.935Z</time></trkpt><trkpt lat="42.2384521" lon="13.7694266"><ele>804.4000000000001</ele><time>2026-05-02T10:02:09.935Z</time></trkpt><trkpt lat="42.2383616" lon="13.7694665"><ele>804.2</ele><time>2026-05-02T10:02:10.934Z</time></trkpt><trkpt lat="42.2382735" lon="13.7695093"><ele>804.0</ele><time>2026-05-02T10:02:11.933Z</time></trkpt><trkpt lat="42.2381808" lon="13.7695516"><ele>807.4000000000001</ele><time>2026-05-02T10:02:12.935Z</time></trkpt><trkpt lat="42.2380855" lon="13.7695996"><ele>810.8</ele><time>2026-05-02T10:02:13.934Z</time></trkpt><trkpt lat="42.2380016" lon="13.7696534"><ele>814.2</ele><time>2026-05-02T10:02:14.933Z</time></trkpt><trkpt lat="42.2379069" lon="13.7697135"><ele>817.5999999999999</ele><time>2026-05-02T10:02:15.934Z</time></trkpt><trkpt lat="42.2378219" lon="13.7697649"><ele>821.0</ele><time>2026-05-02T10:02:16.933Z</time></trkpt><trkpt lat="42.2377291" lon="13.7698057"><ele>821.0000000000001</ele><time>2026-05-02T10:02:17.933Z</time></trkpt><trkpt lat="42.2376358" lon="13.7698466"><ele>821.0</ele><time>2026-05-02T10:02:18.933Z</time></trkpt><trkpt lat="42.2375373" lon="13.7698771"><ele>821.0</ele><time>2026-05-02T10:02:19.933Z</time></trkpt><trkpt lat="42.2374468" lon="13.7698927"><ele>821.0</ele><time>2026-05-02T10:02:20.933Z</time></trkpt><trkpt lat="42.2373692" lon="13.7699171"><ele>821.0000000000001</ele><time>2026-05-02T10:02:21.933Z</time></trkpt><trkpt lat="42.2372946" lon="13.7699378"><ele>821.0</ele><time>2026-05-02T10:02:22.934Z</time></trkpt><trkpt lat="42.237212" lon="13.76995"><ele>822.1666666666667</ele><time>2026-05-02T10:02:23.934Z</time></trkpt><trkpt lat="42.2371333" lon="13.7699938"><ele>823.3333333333334</ele><time>2026-05-02T10:02:24.934Z</time></trkpt><trkpt lat="42.2370612" lon="13.7700516"><ele>824.5</ele><time>2026-05-02T10:02:25.933Z</time></trkpt><trkpt lat="42.2370014" lon="13.7701279"><ele>825.6666666666667</ele><time>2026-05-02T10:02:26.934Z</time></trkpt><trkpt lat="42.2369418" lon="13.7702073"><ele>826.8333333333334</ele><time>2026-05-02T10:02:27.934Z</time></trkpt><trkpt lat="42.2368824" lon="13.7702851"><ele>828.0</ele><time>2026-05-02T10:02:28.934Z</time></trkpt><trkpt lat="42.2368143" lon="13.7703516"><ele>828.0</ele><time>2026-05-02T10:02:29.934Z</time></trkpt><trkpt lat="42.2367378" lon="13.7704019"><ele>828.0</ele><time>2026-05-02T10:02:30.934Z</time></trkpt><trkpt lat="42.2366572" lon="13.7704419"><ele>828.0</ele><time>2026-05-02T10:02:31.934Z</time></trkpt><trkpt lat="42.2365683" lon="13.7704785"><ele>828.0</ele><time>2026-05-02T10:02:32.934Z</time></trkpt><trkpt lat="42.2364721" lon="13.7705099"><ele>828.0</ele><time>2026-05-02T10:02:33.934Z</time></trkpt><trkpt lat="42.2363651" lon="13.7705322"><ele>829.4</ele><time>2026-05-02T10:02:34.935Z</time></trkpt><trkpt lat="42.2362698" lon="13.7705514"><ele>830.8</ele><time>2026-05-02T10:02:35.934Z</time></trkpt><trkpt lat="42.236184" lon="13.7705739"><ele>832.2</ele><time>2026-05-02T10:02:36.934Z</time></trkpt><trkpt lat="42.2361134" lon="13.7705973"><ele>833.6</ele><time>2026-05-02T10:02:37.934Z</time></trkpt><trkpt lat="42.235998" lon="13.7706372"><ele>835.0</ele><time>2026-05-02T10:02:39.934Z</time></trkpt><trkpt lat="42.2358955" lon="13.7706994"><ele>835.0</ele><time>2026-05-02T10:02:41.933Z</time></trkpt><trkpt lat="42.2358473" lon="13.7707823"><ele>835.0</ele><time>2026-05-02T10:02:44.935Z</time></trkpt><trkpt lat="42.2358527" lon="13.7708883"><ele>835.0</ele><time>2026-05-02T10:04:03.934Z</time></trkpt><trkpt lat="42.2358578" lon="13.7709978"><ele>835.0</ele><time>2026-05-02T10:04:05.934Z</time></trkpt><trkpt lat="42.2358796" lon="13.7711459"><ele>835.0</ele><time>2026-05-02T10:04:07.933Z</time></trkpt><trkpt lat="42.2359014" lon="13.7713127"><ele>834.8333333333333</ele><time>2026-05-02T10:04:09.934Z</time></trkpt><trkpt lat="42.2359099" lon="13.7714234"><ele>834.6666666666666</ele><time>2026-05-02T10:04:10.933Z</time></trkpt><trkpt lat="42.235912" lon="13.771531"><ele>834.5</ele><time>2026-05-02T10:04:11.934Z</time></trkpt><trkpt lat="42.235916" lon="13.7716984"><ele>834.3333333333333</ele><time>2026-05-02T10:04:13.932Z</time></trkpt><trkpt lat="42.2358936" lon="13.7717803"><ele>834.1666666666666</ele><time>2026-05-02T10:04:14.934Z</time></trkpt><trkpt lat="42.2358806" lon="13.7718658"><ele>834.0</ele><time>2026-05-02T10:04:15.935Z</time></trkpt><trkpt lat="42.235847" lon="13.7719645"><ele>834.0</ele><time>2026-05-02T10:04:16.934Z</time></trkpt><trkpt lat="42.2358197" lon="13.7720476"><ele>834.0</ele><time>2026-05-02T10:04:17.932Z</time></trkpt><trkpt lat="42.2357846" lon="13.772125"><ele>834.0</ele><time>2026-05-02T10:04:18.934Z</time></trkpt><trkpt lat="42.2357327" lon="13.7721987"><ele>834.0</ele><time>2026-05-02T10:04:19.932Z</time></trkpt><trkpt lat="42.2356841" lon="13.7722693"><ele>834.0</ele><time>2026-05-02T10:04:20.934Z</time></trkpt><trkpt lat="42.2356401" lon="13.7723344"><ele>834.0</ele><time>2026-05-02T10:04:21.933Z</time></trkpt><trkpt lat="42.2355981" lon="13.7724085"><ele>834.0</ele><time>2026-05-02T10:04:22.934Z</time></trkpt><trkpt lat="42.235532" lon="13.7725241"><ele>835.2</ele><time>2026-05-02T10:04:24.934Z</time></trkpt><trkpt lat="42.2354675" lon="13.7726484"><ele>836.4000000000001</ele><time>2026-05-02T10:04:26.933Z</time></trkpt><trkpt lat="42.2353972" lon="13.7727493"><ele>837.6</ele><time>2026-05-02T10:04:28.934Z</time></trkpt><trkpt lat="42.2353069" lon="13.7728404"><ele>838.8</ele><time>2026-05-02T10:04:30.934Z</time></trkpt><trkpt lat="42.2352246" lon="13.7729516"><ele>840.0</ele><time>2026-05-02T10:04:32.934Z</time></trkpt><trkpt lat="42.2351505" lon="13.7730679"><ele>840.0</ele><time>2026-05-02T10:04:34.935Z</time></trkpt><trkpt lat="42.2351037" lon="13.7731505"><ele>840.0</ele><time>2026-05-02T10:04:36.934Z</time></trkpt><trkpt lat="42.2350561" lon="13.7732443"><ele>840.0</ele><time>2026-05-02T10:04:53.934Z</time></trkpt><trkpt lat="42.2350387" lon="13.7733751"><ele>840.0</ele><time>2026-05-02T10:04:55.934Z</time></trkpt><trkpt lat="42.2350559" lon="13.7735604"><ele>840.0</ele><time>2026-05-02T10:04:57.934Z</time></trkpt><trkpt lat="42.2350744" lon="13.7736717"><ele>840.8</ele><time>2026-05-02T10:04:58.933Z</time></trkpt><trkpt lat="42.2350897" lon="13.7737792"><ele>841.6</ele><time>2026-05-02T10:04:59.932Z</time></trkpt><trkpt lat="42.235115" lon="13.7738573"><ele>842.4000000000001</ele><time>2026-05-02T10:05:00.934Z</time></trkpt><trkpt lat="42.235182" lon="13.7739757"><ele>843.2</ele><time>2026-05-02T10:05:02.933Z</time></trkpt><trkpt lat="42.2352694" lon="13.7740699"><ele>844.0</ele><time>2026-05-02T10:05:04.933Z</time></trkpt><trkpt lat="42.2353326" lon="13.7741601"><ele>844.0</ele><time>2026-05-02T10:05:06.933Z</time></trkpt><trkpt lat="42.2353908" lon="13.7742292"><ele>844.0</ele><time>2026-05-02T10:05:08.934Z</time></trkpt><trkpt lat="42.2354313" lon="13.7743707"><ele>844.0</ele><time>2026-05-02T10:05:10.933Z</time></trkpt><trkpt lat="42.235472" lon="13.7745417"><ele>844.0</ele><time>2026-05-02T10:05:12.934Z</time></trkpt><trkpt lat="42.235497" lon="13.7746579"><ele>844.0</ele><time>2026-05-02T10:05:13.935Z</time></trkpt><trkpt lat="42.2355048" lon="13.7747616"><ele>843.6</ele><time>2026-05-02T10:05:14.933Z</time></trkpt><trkpt lat="42.2355267" lon="13.7748819"><ele>843.2</ele><time>2026-05-02T10:05:15.934Z</time></trkpt><trkpt lat="42.2355439" lon="13.7750095"><ele>842.8000000000001</ele><time>2026-05-02T10:05:16.933Z</time></trkpt><trkpt lat="42.2355365" lon="13.7751266"><ele>842.4000000000001</ele><time>2026-05-02T10:05:17.933Z</time></trkpt><trkpt lat="42.2355216" lon="13.7752474"><ele>842.0</ele><time>2026-05-02T10:05:18.933Z</time></trkpt><trkpt lat="42.2355052" lon="13.7753688"><ele>842.0</ele><time>2026-05-02T10:05:19.933Z</time></trkpt><trkpt lat="42.2354882" lon="13.7754913"><ele>842.0</ele><time>2026-05-02T10:05:20.933Z</time></trkpt><trkpt lat="42.2354521" lon="13.7755997"><ele>842.0</ele><time>2026-05-02T10:05:21.934Z</time></trkpt><trkpt lat="42.2354087" lon="13.7757058"><ele>842.0</ele><time>2026-05-02T10:05:22.933Z</time></trkpt><trkpt lat="42.2353609" lon="13.7758168"><ele>842.0</ele><time>2026-05-02T10:05:23.934Z</time></trkpt><trkpt lat="42.2352944" lon="13.7758999"><ele>842.0</ele><time>2026-05-02T10:05:24.933Z</time></trkpt><trkpt lat="42.2352096" lon="13.7759762"><ele>842.0</ele><time>2026-05-02T10:05:25.934Z</time></trkpt><trkpt lat="42.2351245" lon="13.7760366"><ele>842.0</ele><time>2026-05-02T10:05:26.932Z</time></trkpt><trkpt lat="42.2350377" lon="13.776077"><ele>842.0</ele><time>2026-05-02T10:05:27.934Z</time></trkpt><trkpt lat="42.2349438" lon="13.7761035"><ele>842.0</ele><time>2026-05-02T10:05:28.933Z</time></trkpt><trkpt lat="42.234842" lon="13.7761302"><ele>843.6666666666667</ele><time>2026-05-02T10:05:29.933Z</time></trkpt><trkpt lat="42.2347431" lon="13.7761552"><ele>845.3333333333334</ele><time>2026-05-02T10:05:30.935Z</time></trkpt><trkpt lat="42.2346529" lon="13.7761733"><ele>847.0</ele><time>2026-05-02T10:05:31.934Z</time></trkpt><trkpt lat="42.2345655" lon="13.7761985"><ele>848.6666666666667</ele><time>2026-05-02T10:05:32.933Z</time></trkpt><trkpt lat="42.2344977" lon="13.7762341"><ele>850.3333333333334</ele><time>2026-05-02T10:05:33.933Z</time></trkpt><trkpt lat="42.2344456" lon="13.7762854"><ele>852.0</ele><time>2026-05-02T10:05:34.932Z</time></trkpt><trkpt lat="42.2344081" lon="13.7763571"><ele>852.0</ele><time>2026-05-02T10:05:35.934Z</time></trkpt><trkpt lat="42.234402" lon="13.7765181"><ele>852.0</ele><time>2026-05-02T10:05:37.934Z</time></trkpt><trkpt lat="42.234444" lon="13.7766044"><ele>852.0</ele><time>2026-05-02T10:05:38.933Z</time></trkpt><trkpt lat="42.2344919" lon="13.7766993"><ele>852.0</ele><time>2026-05-02T10:05:39.934Z</time></trkpt><trkpt lat="42.2345465" lon="13.776802"><ele>852.0</ele><time>2026-05-02T10:05:40.935Z</time></trkpt><trkpt lat="42.2346024" lon="13.7769055"><ele>853.2</ele><time>2026-05-02T10:05:41.933Z</time></trkpt><trkpt lat="42.2346538" lon="13.7770113"><ele>854.4000000000001</ele><time>2026-05-02T10:05:42.934Z</time></trkpt><trkpt lat="42.2347123" lon="13.7771117"><ele>855.5999999999999</ele><time>2026-05-02T10:05:43.934Z</time></trkpt><trkpt lat="42.2347787" lon="13.7771943"><ele>856.8</ele><time>2026-05-02T10:05:44.934Z</time></trkpt><trkpt lat="42.2348396" lon="13.7772751"><ele>858.0</ele><time>2026-05-02T10:05:45.934Z</time></trkpt><trkpt lat="42.2349049" lon="13.7773631"><ele>856.4</ele><time>2026-05-02T10:05:46.934Z</time></trkpt><trkpt lat="42.2349689" lon="13.7774559"><ele>854.8</ele><time>2026-05-02T10:05:47.934Z</time></trkpt><trkpt lat="42.2350421" lon="13.777551"><ele>853.2</ele><time>2026-05-02T10:05:48.934Z</time></trkpt><trkpt lat="42.2351128" lon="13.7776494"><ele>851.6</ele><time>2026-05-02T10:05:49.933Z</time></trkpt><trkpt lat="42.2351771" lon="13.7777431"><ele>850.0</ele><time>2026-05-02T10:05:50.932Z</time></trkpt><trkpt lat="42.2352328" lon="13.7778355"><ele>849.9999999999999</ele><time>2026-05-02T10:05:51.935Z</time></trkpt><trkpt lat="42.2352828" lon="13.7779299"><ele>850.0</ele><time>2026-05-02T10:05:52.934Z</time></trkpt><trkpt lat="42.2353228" lon="13.7780287"><ele>850.0</ele><time>2026-05-02T10:05:53.933Z</time></trkpt><trkpt lat="42.2353362" lon="13.7781264"><ele>850.0</ele><time>2026-05-02T10:05:54.933Z</time></trkpt><trkpt lat="42.2353397" lon="13.7782292"><ele>849.9999999999999</ele><time>2026-05-02T10:05:55.934Z</time></trkpt><trkpt lat="42.2353355" lon="13.7783378"><ele>850.0</ele><time>2026-05-02T10:05:56.933Z</time></trkpt><trkpt lat="42.2353291" lon="13.7784523"><ele>849.8333333333333</ele><time>2026-05-02T10:05:57.932Z</time></trkpt><trkpt lat="42.2353132" lon="13.7785655"><ele>849.6666666666666</ele><time>2026-05-02T10:05:58.934Z</time></trkpt><trkpt lat="42.2352845" lon="13.7786776"><ele>849.5</ele><time>2026-05-02T10:05:59.934Z</time></trkpt><trkpt lat="42.2352516" lon="13.7787845"><ele>849.3333333333333</ele><time>2026-05-02T10:06:00.934Z</time></trkpt><trkpt lat="42.2352079" lon="13.7788744"><ele>849.1666666666666</ele><time>2026-05-02T10:06:01.933Z</time></trkpt><trkpt lat="42.2351482" lon="13.7789581"><ele>849.0</ele><time>2026-05-02T10:06:02.933Z</time></trkpt><trkpt lat="42.2350817" lon="13.7790398"><ele>849.0</ele><time>2026-05-02T10:06:03.933Z</time></trkpt><trkpt lat="42.2350135" lon="13.7791163"><ele>849.0</ele><time>2026-05-02T10:06:04.932Z</time></trkpt><trkpt lat="42.2349464" lon="13.7791966"><ele>849.0</ele><time>2026-05-02T10:06:05.934Z</time></trkpt><trkpt lat="42.2348708" lon="13.7792838"><ele>849.0</ele><time>2026-05-02T10:06:06.933Z</time></trkpt><trkpt lat="42.2347888" lon="13.7793595"><ele>849.0</ele><time>2026-05-02T10:06:07.933Z</time></trkpt><trkpt lat="42.2347101" lon="13.7794304"><ele>848.8000000000001</ele><time>2026-05-02T10:06:08.934Z</time></trkpt><trkpt lat="42.2346304" lon="13.7794943"><ele>848.6</ele><time>2026-05-02T10:06:09.933Z</time></trkpt><trkpt lat="42.2345496" lon="13.7795622"><ele>848.4</ele><time>2026-05-02T10:06:10.934Z</time></trkpt><trkpt lat="42.2344687" lon="13.7796309"><ele>848.2</ele><time>2026-05-02T10:06:11.935Z</time></trkpt><trkpt lat="42.2343905" lon="13.7797023"><ele>848.0</ele><time>2026-05-02T10:06:12.934Z</time></trkpt><trkpt lat="42.23432" lon="13.7797703"><ele>848.0000000000001</ele><time>2026-05-02T10:06:13.933Z</time></trkpt><trkpt lat="42.2342526" lon="13.7798158"><ele>848.0</ele><time>2026-05-02T10:06:14.933Z</time></trkpt><trkpt lat="42.2341794" lon="13.7798526"><ele>848.0</ele><time>2026-05-02T10:06:15.933Z</time></trkpt><trkpt lat="42.2341071" lon="13.7798813"><ele>848.0</ele><time>2026-05-02T10:06:16.932Z</time></trkpt><trkpt lat="42.2340359" lon="13.7799084"><ele>848.0000000000001</ele><time>2026-05-02T10:06:17.934Z</time></trkpt><trkpt lat="42.2339286" lon="13.7799924"><ele>848.0</ele><time>2026-05-02T10:06:19.934Z</time></trkpt><trkpt lat="42.2338836" lon="13.7801341"><ele>847.0</ele><time>2026-05-02T10:06:21.933Z</time></trkpt><trkpt lat="42.2339184" lon="13.7802561"><ele>846.0</ele><time>2026-05-02T10:06:23.935Z</time></trkpt><trkpt lat="42.2339628" lon="13.7803448"><ele>845.0</ele><time>2026-05-02T10:06:25.934Z</time></trkpt><trkpt lat="42.2340052" lon="13.780514"><ele>844.0</ele><time>2026-05-02T10:06:27.934Z</time></trkpt><trkpt lat="42.2340215" lon="13.7806152"><ele>843.0</ele><time>2026-05-02T10:06:28.933Z</time></trkpt><trkpt lat="42.2340326" lon="13.7807225"><ele>843.0</ele><time>2026-05-02T10:06:29.934Z</time></trkpt><trkpt lat="42.2340302" lon="13.7808399"><ele>843.0</ele><time>2026-05-02T10:06:30.934Z</time></trkpt><trkpt lat="42.2340241" lon="13.7809689"><ele>843.0</ele><time>2026-05-02T10:06:31.934Z</time></trkpt><trkpt lat="42.2340182" lon="13.7810864"><ele>843.0</ele><time>2026-05-02T10:06:32.935Z</time></trkpt><trkpt lat="42.2340139" lon="13.7811903"><ele>843.0</ele><time>2026-05-02T10:06:33.933Z</time></trkpt><trkpt lat="42.234024" lon="13.7813046"><ele>843.0</ele><time>2026-05-02T10:06:34.933Z</time></trkpt><trkpt lat="42.2340316" lon="13.7814139"><ele>843.1666666666666</ele><time>2026-05-02T10:06:35.933Z</time></trkpt><trkpt lat="42.2340424" lon="13.7815096"><ele>843.3333333333333</ele><time>2026-05-02T10:06:36.934Z</time></trkpt><trkpt lat="42.2340575" lon="13.7816342"><ele>843.5</ele><time>2026-05-02T10:06:38.934Z</time></trkpt><trkpt lat="42.2340055" lon="13.7817096"><ele>843.6666666666666</ele><time>2026-05-02T10:06:41.934Z</time></trkpt><trkpt lat="42.233963" lon="13.7816357"><ele>843.8333333333333</ele><time>2026-05-02T10:06:43.933Z</time></trkpt><trkpt lat="42.2339334" lon="13.7815102"><ele>844.0</ele><time>2026-05-02T10:06:45.934Z</time></trkpt><trkpt lat="42.2338999" lon="13.7814097"><ele>844.0</ele><time>2026-05-02T10:06:47.933Z</time></trkpt><trkpt lat="42.2338419" lon="13.7812885"><ele>844.0</ele><time>2026-05-02T10:06:49.932Z</time></trkpt><trkpt lat="42.2337595" lon="13.7811344"><ele>844.0</ele><time>2026-05-02T10:06:51.932Z</time></trkpt><trkpt lat="42.2336476" lon="13.7809754"><ele>844.0</ele><time>2026-05-02T10:06:53.933Z</time></trkpt><trkpt lat="42.2335844" lon="13.780872"><ele>845.8333333333333</ele><time>2026-05-02T10:06:54.934Z</time></trkpt><trkpt lat="42.2335257" lon="13.7807784"><ele>847.6666666666666</ele><time>2026-05-02T10:06:55.933Z</time></trkpt><trkpt lat="42.2334668" lon="13.7806945"><ele>849.5</ele><time>2026-05-02T10:06:56.935Z</time></trkpt><trkpt lat="42.2334104" lon="13.7806184"><ele>851.3333333333333</ele><time>2026-05-02T10:06:57.934Z</time></trkpt><trkpt lat="42.2333423" lon="13.7805377"><ele>853.1666666666666</ele><time>2026-05-02T10:06:58.933Z</time></trkpt><trkpt lat="42.2332693" lon="13.780463"><ele>855.0</ele><time>2026-05-02T10:06:59.934Z</time></trkpt><trkpt lat="42.2332016" lon="13.7803829"><ele>855.0</ele><time>2026-05-02T10:07:00.933Z</time></trkpt><trkpt lat="42.2331445" lon="13.7802927"><ele>855.0</ele><time>2026-05-02T10:07:01.934Z</time></trkpt><trkpt lat="42.2330935" lon="13.7802022"><ele>855.0</ele><time>2026-05-02T10:07:02.933Z</time></trkpt><trkpt lat="42.2330421" lon="13.7801124"><ele>855.0</ele><time>2026-05-02T10:07:03.933Z</time></trkpt><trkpt lat="42.2329905" lon="13.7800236"><ele>855.0</ele><time>2026-05-02T10:07:04.934Z</time></trkpt><trkpt lat="42.2329433" lon="13.7799448"><ele>855.0</ele><time>2026-05-02T10:07:05.934Z</time></trkpt><trkpt lat="42.2328962" lon="13.7798716"><ele>857.8333333333334</ele><time>2026-05-02T10:07:06.934Z</time></trkpt><trkpt lat="42.2328408" lon="13.7798107"><ele>860.6666666666667</ele><time>2026-05-02T10:07:07.934Z</time></trkpt><trkpt lat="42.2327806" lon="13.779749"><ele>863.5</ele><time>2026-05-02T10:07:08.933Z</time></trkpt><trkpt lat="42.2327126" lon="13.7796786"><ele>866.3333333333334</ele><time>2026-05-02T10:07:09.935Z</time></trkpt><trkpt lat="42.2326411" lon="13.7796155"><ele>869.1666666666667</ele><time>2026-05-02T10:07:10.933Z</time></trkpt><trkpt lat="42.2325671" lon="13.7795614"><ele>872.0</ele><time>2026-05-02T10:07:11.933Z</time></trkpt><trkpt lat="42.2324882" lon="13.7795134"><ele>872.0000000000001</ele><time>2026-05-02T10:07:12.934Z</time></trkpt><trkpt lat="42.2324131" lon="13.7794787"><ele>872.0</ele><time>2026-05-02T10:07:13.933Z</time></trkpt><trkpt lat="42.232343" lon="13.7794527"><ele>872.0</ele><time>2026-05-02T10:07:14.934Z</time></trkpt><trkpt lat="42.2322741" lon="13.77943"><ele>872.0</ele><time>2026-05-02T10:07:15.933Z</time></trkpt><trkpt lat="42.2322015" lon="13.7793995"><ele>872.0000000000001</ele><time>2026-05-02T10:07:16.934Z</time></trkpt><trkpt lat="42.2321162" lon="13.7793688"><ele>872.0</ele><time>2026-05-02T10:07:17.932Z</time></trkpt><trkpt lat="42.2320306" lon="13.7793406"><ele>875.0</ele><time>2026-05-02T10:07:18.933Z</time></trkpt><trkpt lat="42.2319375" lon="13.7793063"><ele>878.0</ele><time>2026-05-02T10:07:19.934Z</time></trkpt><trkpt lat="42.2318362" lon="13.7792648"><ele>881.0</ele><time>2026-05-02T10:07:20.933Z</time></trkpt><trkpt lat="42.2317422" lon="13.779212"><ele>884.0</ele><time>2026-05-02T10:07:21.933Z</time></trkpt><trkpt lat="42.2316608" lon="13.779146"><ele>887.0</ele><time>2026-05-02T10:07:22.933Z</time></trkpt><trkpt lat="42.2315831" lon="13.7790769"><ele>887.0000000000001</ele><time>2026-05-02T10:07:23.933Z</time></trkpt><trkpt lat="42.2315115" lon="13.7790102"><ele>887.0</ele><time>2026-05-02T10:07:24.933Z</time></trkpt><trkpt lat="42.2314435" lon="13.7789551"><ele>887.0</ele><time>2026-05-02T10:07:25.933Z</time></trkpt><trkpt lat="42.2313787" lon="13.7789002"><ele>887.0</ele><time>2026-05-02T10:07:26.933Z</time></trkpt><trkpt lat="42.2313245" lon="13.7788245"><ele>887.0000000000001</ele><time>2026-05-02T10:07:27.934Z</time></trkpt><trkpt lat="42.231277" lon="13.7787431"><ele>887.0</ele><time>2026-05-02T10:07:28.933Z</time></trkpt><trkpt lat="42.2312255" lon="13.7786673"><ele>888.1666666666667</ele><time>2026-05-02T10:07:29.933Z</time></trkpt><trkpt lat="42.2311644" lon="13.7785947"><ele>889.3333333333334</ele><time>2026-05-02T10:07:30.933Z</time></trkpt><trkpt lat="42.2311046" lon="13.7785415"><ele>890.5</ele><time>2026-05-02T10:07:31.933Z</time></trkpt><trkpt lat="42.2309976" lon="13.7785168"><ele>891.6666666666667</ele><time>2026-05-02T10:07:33.934Z</time></trkpt><trkpt lat="42.230897" lon="13.7785459"><ele>892.8333333333334</ele><time>2026-05-02T10:07:35.934Z</time></trkpt><trkpt lat="42.2308217" lon="13.7785705"><ele>894.0</ele><time>2026-05-02T10:07:37.934Z</time></trkpt><trkpt lat="42.2307456" lon="13.7785305"><ele>897.3333333333334</ele><time>2026-05-02T10:07:39.934Z</time></trkpt><trkpt lat="42.2306371" lon="13.77847"><ele>900.6666666666667</ele><time>2026-05-02T10:07:41.934Z</time></trkpt><trkpt lat="42.2305729" lon="13.7784305"><ele>904.0</ele><time>2026-05-02T10:07:42.934Z</time></trkpt><trkpt lat="42.2305005" lon="13.7783863"><ele>907.3333333333334</ele><time>2026-05-02T10:07:43.933Z</time></trkpt><trkpt lat="42.2304317" lon="13.7783444"><ele>910.6666666666667</ele><time>2026-05-02T10:07:44.933Z</time></trkpt><trkpt lat="42.2303706" lon="13.7783008"><ele>914.0</ele><time>2026-05-02T10:07:45.934Z</time></trkpt><trkpt lat="42.2302572" lon="13.7782637"><ele>914.0000000000001</ele><time>2026-05-02T10:07:47.933Z</time></trkpt><trkpt lat="42.2301888" lon="13.7782786"><ele>914.0</ele><time>2026-05-02T10:07:48.933Z</time></trkpt><trkpt lat="42.2301177" lon="13.7783001"><ele>914.0000000000001</ele><time>2026-05-02T10:07:49.933Z</time></trkpt><trkpt lat="42.2300457" lon="13.7783011"><ele>914.0000000000001</ele><time>2026-05-02T10:07:50.934Z</time></trkpt><trkpt lat="42.2299763" lon="13.7782756"><ele>914.0</ele><time>2026-05-02T10:07:51.934Z</time></trkpt><trkpt lat="42.2299114" lon="13.7782346"><ele>914.0000000000001</ele><time>2026-05-02T10:07:52.933Z</time></trkpt><trkpt lat="42.2298492" lon="13.7781857"><ele>914.0000000000001</ele><time>2026-05-02T10:07:53.935Z</time></trkpt><trkpt lat="42.2297914" lon="13.778137"><ele>914.4285714285716</ele><time>2026-05-02T10:07:54.934Z</time></trkpt><trkpt lat="42.229736" lon="13.778088"><ele>914.8571428571429</ele><time>2026-05-02T10:07:55.934Z</time></trkpt><trkpt lat="42.2296748" lon="13.7780423"><ele>915.2857142857143</ele><time>2026-05-02T10:07:56.933Z</time></trkpt><trkpt lat="42.229607" lon="13.7780001"><ele>915.7142857142858</ele><time>2026-05-02T10:07:57.933Z</time></trkpt><trkpt lat="42.2295333" lon="13.7779598"><ele>916.1428571428571</ele><time>2026-05-02T10:07:58.934Z</time></trkpt><trkpt lat="42.2294607" lon="13.7779162"><ele>916.5714285714286</ele><time>2026-05-02T10:07:59.934Z</time></trkpt><trkpt lat="42.2293919" lon="13.7778795"><ele>917.0</ele><time>2026-05-02T10:08:00.934Z</time></trkpt><trkpt lat="42.2292835" lon="13.777886"><ele>917.0</ele><time>2026-05-02T10:08:02.934Z</time></trkpt><trkpt lat="42.2291708" lon="13.7779378"><ele>917.0</ele><time>2026-05-02T10:08:04.933Z</time></trkpt><trkpt lat="42.2290658" lon="13.7779624"><ele>917.0</ele><time>2026-05-02T10:08:06.933Z</time></trkpt><trkpt lat="42.2289637" lon="13.7779547"><ele>917.0</ele><time>2026-05-02T10:08:08.935Z</time></trkpt><trkpt lat="42.228869" lon="13.7778929"><ele>917.0</ele><time>2026-05-02T10:08:10.932Z</time></trkpt><trkpt lat="42.228791" lon="13.777802"><ele>917.2</ele><time>2026-05-02T10:08:12.934Z</time></trkpt><trkpt lat="42.2287198" lon="13.7776949"><ele>917.4000000000001</ele><time>2026-05-02T10:08:14.933Z</time></trkpt><trkpt lat="42.2286522" lon="13.7775759"><ele>917.5999999999999</ele><time>2026-05-02T10:08:16.934Z</time></trkpt><trkpt lat="42.228575" lon="13.7775086"><ele>917.8</ele><time>2026-05-02T10:08:18.935Z</time></trkpt><trkpt lat="42.2285163" lon="13.7774756"><ele>918.0</ele><time>2026-05-02T10:08:21.933Z</time></trkpt><trkpt lat="42.2284283" lon="13.7774514"><ele>918.0</ele><time>2026-05-02T10:08:46.933Z</time></trkpt><trkpt lat="42.2283654" lon="13.7774557"><ele>918.0</ele><time>2026-05-02T10:08:47.935Z</time></trkpt><trkpt lat="42.2282863" lon="13.7774719"><ele>918.0</ele><time>2026-05-02T10:08:48.934Z</time></trkpt><trkpt lat="42.2281953" lon="13.7774925"><ele>918.0</ele><time>2026-05-02T10:08:49.933Z</time></trkpt><trkpt lat="42.2281006" lon="13.7775167"><ele>918.0</ele><time>2026-05-02T10:08:50.932Z</time></trkpt><trkpt lat="42.2280023" lon="13.7775513"><ele>918.0</ele><time>2026-05-02T10:08:51.933Z</time></trkpt><trkpt lat="42.2279103" lon="13.7775961"><ele>918.0</ele><time>2026-05-02T10:08:52.934Z</time></trkpt><trkpt lat="42.2278256" lon="13.7776434"><ele>918.0</ele><time>2026-05-02T10:08:53.933Z</time></trkpt><trkpt lat="42.2277432" lon="13.7777039"><ele>918.0</ele><time>2026-05-02T10:08:54.933Z</time></trkpt><trkpt lat="42.2276658" lon="13.7777738"><ele>918.0</ele><time>2026-05-02T10:08:55.934Z</time></trkpt><trkpt lat="42.2275843" lon="13.777855"><ele>918.0</ele><time>2026-05-02T10:08:56.934Z</time></trkpt><trkpt lat="42.2275" lon="13.7779333"><ele>918.2</ele><time>2026-05-02T10:08:57.933Z</time></trkpt><trkpt lat="42.2274091" lon="13.7780074"><ele>918.4</ele><time>2026-05-02T10:08:58.934Z</time></trkpt><trkpt lat="42.2273236" lon="13.7780866"><ele>918.6000000000001</ele><time>2026-05-02T10:08:59.933Z</time></trkpt><trkpt lat="42.2272405" lon="13.7781722"><ele>918.8000000000001</ele><time>2026-05-02T10:09:00.933Z</time></trkpt><trkpt lat="42.2271493" lon="13.778263"><ele>919.0</ele><time>2026-05-02T10:09:01.933Z</time></trkpt><trkpt lat="42.2270508" lon="13.7783517"><ele>919.0</ele><time>2026-05-02T10:09:02.933Z</time></trkpt><trkpt lat="42.226951" lon="13.7784388"><ele>919.0</ele><time>2026-05-02T10:09:03.932Z</time></trkpt><trkpt lat="42.2268405" lon="13.7785342"><ele>919.0</ele><time>2026-05-02T10:09:04.932Z</time></trkpt><trkpt lat="42.2267292" lon="13.7786253"><ele>919.0</ele><time>2026-05-02T10:09:05.933Z</time></trkpt><trkpt lat="42.2266213" lon="13.7787088"><ele>919.5</ele><time>2026-05-02T10:09:06.933Z</time></trkpt><trkpt lat="42.2265154" lon="13.7788004"><ele>920.0</ele><time>2026-05-02T10:09:07.934Z</time></trkpt><trkpt lat="42.2264159" lon="13.7789013"><ele>920.5</ele><time>2026-05-02T10:09:08.933Z</time></trkpt><trkpt lat="42.2263204" lon="13.7790024"><ele>921.0</ele><time>2026-05-02T10:09:09.933Z</time></trkpt><trkpt lat="42.226219" lon="13.7791158"><ele>920.0</ele><time>2026-05-02T10:09:10.932Z</time></trkpt><trkpt lat="42.2261179" lon="13.7792393"><ele>919.0</ele><time>2026-05-02T10:09:11.933Z</time></trkpt><trkpt lat="42.2260257" lon="13.7793662"><ele>918.0</ele><time>2026-05-02T10:09:12.933Z</time></trkpt><trkpt lat="42.2259295" lon="13.7795152"><ele>917.0</ele><time>2026-05-02T10:09:13.935Z</time></trkpt><trkpt lat="42.2258343" lon="13.7796645"><ele>917.0</ele><time>2026-05-02T10:09:14.932Z</time></trkpt><trkpt lat="42.225732" lon="13.7798182"><ele>917.0</ele><time>2026-05-02T10:09:15.933Z</time></trkpt><trkpt lat="42.2256306" lon="13.7799678"><ele>917.0</ele><time>2026-05-02T10:09:16.934Z</time></trkpt><trkpt lat="42.2255274" lon="13.7801235"><ele>914.5</ele><time>2026-05-02T10:09:17.934Z</time></trkpt><trkpt lat="42.2254351" lon="13.7802681"><ele>912.0</ele><time>2026-05-02T10:09:18.934Z</time></trkpt><trkpt lat="42.2253518" lon="13.7804155"><ele>909.5</ele><time>2026-05-02T10:09:19.933Z</time></trkpt><trkpt lat="42.2252701" lon="13.7805704"><ele>907.0</ele><time>2026-05-02T10:09:20.934Z</time></trkpt><trkpt lat="42.2251988" lon="13.7807184"><ele>907.0</ele><time>2026-05-02T10:09:21.933Z</time></trkpt><trkpt lat="42.2251186" lon="13.7808507"><ele>907.0</ele><time>2026-05-02T10:09:22.933Z</time></trkpt><trkpt lat="42.225041" lon="13.7809663"><ele>907.0</ele><time>2026-05-02T10:09:23.933Z</time></trkpt><trkpt lat="42.2249555" lon="13.7810837"><ele>907.0</ele><time>2026-05-02T10:09:24.933Z</time></trkpt><trkpt lat="42.2248723" lon="13.7811811"><ele>903.2</ele><time>2026-05-02T10:09:25.933Z</time></trkpt><trkpt lat="42.2248019" lon="13.7812784"><ele>899.4000000000001</ele><time>2026-05-02T10:09:26.933Z</time></trkpt><trkpt lat="42.2247471" lon="13.7813692"><ele>895.5999999999999</ele><time>2026-05-02T10:09:27.932Z</time></trkpt><trkpt lat="42.2247028" lon="13.7814832"><ele>891.8</ele><time>2026-05-02T10:09:28.933Z</time></trkpt><trkpt lat="42.2246694" lon="13.7816086"><ele>888.0</ele><time>2026-05-02T10:09:29.934Z</time></trkpt><trkpt lat="42.2246427" lon="13.7817465"><ele>887.5</ele><time>2026-05-02T10:09:30.934Z</time></trkpt><trkpt lat="42.2245974" lon="13.7818829"><ele>887.0</ele><time>2026-05-02T10:09:31.932Z</time></trkpt><trkpt lat="42.2245392" lon="13.78202"><ele>886.5</ele><time>2026-05-02T10:09:32.934Z</time></trkpt><trkpt lat="42.2244795" lon="13.7821544"><ele>886.0</ele><time>2026-05-02T10:09:33.933Z</time></trkpt><trkpt lat="42.2244256" lon="13.7822859"><ele>885.9999999999999</ele><time>2026-05-02T10:09:34.935Z</time></trkpt><trkpt lat="42.2243775" lon="13.7824208"><ele>886.0</ele><time>2026-05-02T10:09:35.933Z</time></trkpt><trkpt lat="42.2243406" lon="13.7825438"><ele>886.0</ele><time>2026-05-02T10:09:36.935Z</time></trkpt><trkpt lat="42.224323" lon="13.782657"><ele>886.0</ele><time>2026-05-02T10:09:37.933Z</time></trkpt><trkpt lat="42.2243132" lon="13.7827584"><ele>885.9999999999999</ele><time>2026-05-02T10:09:38.933Z</time></trkpt><trkpt lat="42.224309" lon="13.782845"><ele>886.0</ele><time>2026-05-02T10:09:39.933Z</time></trkpt><trkpt lat="42.2242639" lon="13.7829497"><ele>885.9999999999999</ele><time>2026-05-02T10:09:41.934Z</time></trkpt><trkpt lat="42.2241819" lon="13.782898"><ele>886.0</ele><time>2026-05-02T10:09:43.933Z</time></trkpt><trkpt lat="42.224137" lon="13.7828221"><ele>886.0</ele><time>2026-05-02T10:09:44.934Z</time></trkpt><trkpt lat="42.2240935" lon="13.7827211"><ele>886.0</ele><time>2026-05-02T10:09:45.934Z</time></trkpt><trkpt lat="42.2240406" lon="13.7826147"><ele>885.9999999999999</ele><time>2026-05-02T10:09:46.933Z</time></trkpt><trkpt lat="42.2239882" lon="13.7825061"><ele>886.0</ele><time>2026-05-02T10:09:47.932Z</time></trkpt><trkpt lat="42.2239461" lon="13.7823991"><ele>881.3333333333333</ele><time>2026-05-02T10:09:48.933Z</time></trkpt><trkpt lat="42.2239131" lon="13.7822927"><ele>876.6666666666666</ele><time>2026-05-02T10:09:49.934Z</time></trkpt><trkpt lat="42.2238753" lon="13.7821928"><ele>872.0</ele><time>2026-05-02T10:09:50.934Z</time></trkpt><trkpt lat="42.2238398" lon="13.7821044"><ele>867.3333333333333</ele><time>2026-05-02T10:09:51.933Z</time></trkpt><trkpt lat="42.2238096" lon="13.7820234"><ele>862.6666666666666</ele><time>2026-05-02T10:09:52.933Z</time></trkpt><trkpt lat="42.2237609" lon="13.7819085"><ele>858.0</ele><time>2026-05-02T10:09:54.935Z</time></trkpt><trkpt lat="42.2236913" lon="13.781906"><ele>858.0</ele><time>2026-05-02T10:09:56.935Z</time></trkpt><trkpt lat="42.2236586" lon="13.7820212"><ele>858.0</ele><time>2026-05-02T10:09:58.933Z</time></trkpt><trkpt lat="42.2236498" lon="13.7821134"><ele>858.0</ele><time>2026-05-02T10:09:59.934Z</time></trkpt><trkpt lat="42.2236361" lon="13.7822229"><ele>858.0</ele><time>2026-05-02T10:10:00.933Z</time></trkpt><trkpt lat="42.2236165" lon="13.7823377"><ele>858.0</ele><time>2026-05-02T10:10:01.933Z</time></trkpt><trkpt lat="42.2236031" lon="13.7824388"><ele>858.0</ele><time>2026-05-02T10:10:02.934Z</time></trkpt><trkpt lat="42.2235863" lon="13.7825813"><ele>858.0</ele><time>2026-05-02T10:10:04.934Z</time></trkpt><trkpt lat="42.2235225" lon="13.7826051"><ele>858.0</ele><time>2026-05-02T10:10:06.933Z</time></trkpt><trkpt lat="42.2234563" lon="13.7824873"><ele>858.0</ele><time>2026-05-02T10:10:08.932Z</time></trkpt><trkpt lat="42.2234185" lon="13.7823953"><ele>858.0</ele><time>2026-05-02T10:10:09.933Z</time></trkpt><trkpt lat="42.2233813" lon="13.7823056"><ele>858.0</ele><time>2026-05-02T10:10:10.935Z</time></trkpt><trkpt lat="42.2233548" lon="13.7822235"><ele>858.0</ele><time>2026-05-02T10:10:11.932Z</time></trkpt><trkpt lat="42.2233268" lon="13.7821415"><ele>858.0</ele><time>2026-05-02T10:10:12.933Z</time></trkpt><trkpt lat="42.2232705" lon="13.7820253"><ele>858.0</ele><time>2026-05-02T10:10:14.934Z</time></trkpt><trkpt lat="42.2231884" lon="13.7820597"><ele>858.0</ele><time>2026-05-02T10:10:16.935Z</time></trkpt><trkpt lat="42.2231433" lon="13.7821294"><ele>858.0</ele><time>2026-05-02T10:10:17.932Z</time></trkpt><trkpt lat="42.2230889" lon="13.7821986"><ele>858.0</ele><time>2026-05-02T10:10:18.933Z</time></trkpt><trkpt lat="42.2230295" lon="13.7822946"><ele>858.0</ele><time>2026-05-02T10:10:19.934Z</time></trkpt><trkpt lat="42.2229805" lon="13.7823702"><ele>857.0</ele><time>2026-05-02T10:10:20.934Z</time></trkpt><trkpt lat="42.2229244" lon="13.7824549"><ele>856.0</ele><time>2026-05-02T10:10:21.935Z</time></trkpt><trkpt lat="42.2228584" lon="13.7824794"><ele>855.0</ele><time>2026-05-02T10:10:22.933Z</time></trkpt><trkpt lat="42.2227397" lon="13.7824595"><ele>854.0</ele><time>2026-05-02T10:10:24.933Z</time></trkpt><trkpt lat="42.2226654" lon="13.7823949"><ele>853.0</ele><time>2026-05-02T10:10:26.935Z</time></trkpt><trkpt lat="42.2226048" lon="13.7823289"><ele>852.0</ele><time>2026-05-02T10:10:28.934Z</time></trkpt><trkpt lat="42.2225457" lon="13.7822719"><ele>852.0</ele><time>2026-05-02T10:10:29.932Z</time></trkpt><trkpt lat="42.2224781" lon="13.782208"><ele>852.0</ele><time>2026-05-02T10:10:30.933Z</time></trkpt><trkpt lat="42.2224018" lon="13.7821398"><ele>852.0</ele><time>2026-05-02T10:10:31.932Z</time></trkpt><trkpt lat="42.2223319" lon="13.7820599"><ele>852.0</ele><time>2026-05-02T10:10:32.934Z</time></trkpt><trkpt lat="42.222257" lon="13.781975"><ele>852.0</ele><time>2026-05-02T10:10:33.933Z</time></trkpt><trkpt lat="42.2221903" lon="13.7818944"><ele>852.8333333333334</ele><time>2026-05-02T10:10:34.935Z</time></trkpt><trkpt lat="42.2221183" lon="13.7818219"><ele>853.6666666666667</ele><time>2026-05-02T10:10:35.934Z</time></trkpt><trkpt lat="42.2220602" lon="13.781734"><ele>854.5</ele><time>2026-05-02T10:10:36.933Z</time></trkpt><trkpt lat="42.2220189" lon="13.7816495"><ele>855.3333333333334</ele><time>2026-05-02T10:10:37.934Z</time></trkpt><trkpt lat="42.2219755" lon="13.7815616"><ele>856.1666666666667</ele><time>2026-05-02T10:10:38.934Z</time></trkpt><trkpt lat="42.2219389" lon="13.781462"><ele>857.0</ele><time>2026-05-02T10:10:39.934Z</time></trkpt><trkpt lat="42.2218956" lon="13.7813572"><ele>857.0000000000001</ele><time>2026-05-02T10:10:40.933Z</time></trkpt><trkpt lat="42.2218567" lon="13.7812554"><ele>857.0</ele><time>2026-05-02T10:10:41.933Z</time></trkpt><trkpt lat="42.221826" lon="13.7811596"><ele>857.0</ele><time>2026-05-02T10:10:42.934Z</time></trkpt><trkpt lat="42.221808" lon="13.7810623"><ele>857.0</ele><time>2026-05-02T10:10:43.935Z</time></trkpt><trkpt lat="42.2217904" lon="13.7809671"><ele>857.0000000000001</ele><time>2026-05-02T10:10:44.933Z</time></trkpt><trkpt lat="42.2217699" lon="13.7808749"><ele>857.0</ele><time>2026-05-02T10:10:45.933Z</time></trkpt><trkpt lat="42.2217504" lon="13.7807817"><ele>856.3333333333334</ele><time>2026-05-02T10:10:46.933Z</time></trkpt><trkpt lat="42.2217264" lon="13.7806828"><ele>855.6666666666667</ele><time>2026-05-02T10:10:47.933Z</time></trkpt><trkpt lat="42.2217017" lon="13.7805831"><ele>855.0</ele><time>2026-05-02T10:10:48.933Z</time></trkpt><trkpt lat="42.2216825" lon="13.7804989"><ele>854.3333333333333</ele><time>2026-05-02T10:10:49.933Z</time></trkpt><trkpt lat="42.221632" lon="13.7803478"><ele>853.6666666666666</ele><time>2026-05-02T10:10:51.933Z</time></trkpt><trkpt lat="42.2215976" lon="13.7802761"><ele>853.0</ele><time>2026-05-02T10:10:52.933Z</time></trkpt><trkpt lat="42.221553" lon="13.7801533"><ele>851.9999999999999</ele><time>2026-05-02T10:10:54.932Z</time></trkpt><trkpt lat="42.2214949" lon="13.7800901"><ele>851.0</ele><time>2026-05-02T10:10:56.934Z</time></trkpt><trkpt lat="42.2214338" lon="13.7801195"><ele>850.0</ele><time>2026-05-02T10:10:58.933Z</time></trkpt><trkpt lat="42.2213821" lon="13.7801748"><ele>849.0</ele><time>2026-05-02T10:11:09.933Z</time></trkpt><trkpt lat="42.22131" lon="13.7802285"><ele>847.9999999999999</ele><time>2026-05-02T10:11:11.934Z</time></trkpt><trkpt lat="42.2212029" lon="13.7803111"><ele>847.0</ele><time>2026-05-02T10:11:13.934Z</time></trkpt><trkpt lat="42.2211191" lon="13.7803571"><ele>846.9999999999999</ele><time>2026-05-02T10:11:15.934Z</time></trkpt><trkpt lat="42.2210542" lon="13.7803714"><ele>847.0</ele><time>2026-05-02T10:11:18.934Z</time></trkpt><trkpt lat="42.2211256" lon="13.7803808"><ele>847.0</ele><time>2026-05-02T10:11:25.934Z</time></trkpt><trkpt lat="42.2212263" lon="13.7803183"><ele>847.0</ele><time>2026-05-02T10:11:27.933Z</time></trkpt><trkpt lat="42.2213014" lon="13.7802562"><ele>846.9999999999999</ele><time>2026-05-02T10:11:29.933Z</time></trkpt><trkpt lat="42.2213738" lon="13.7802101"><ele>847.0</ele><time>2026-05-02T10:11:31.933Z</time></trkpt><trkpt lat="42.2214187" lon="13.7801497"><ele>847.0</ele><time>2026-05-02T10:11:40.933Z</time></trkpt><trkpt lat="42.2214629" lon="13.780225"><ele>847.0</ele><time>2026-05-02T10:11:44.933Z</time></trkpt><trkpt lat="42.221536" lon="13.7801613"><ele>847.0</ele><time>2026-05-02T10:14:56.932Z</time></trkpt><trkpt lat="42.2215327" lon="13.7800578"><ele>847.0</ele><time>2026-05-02T10:14:58.933Z</time></trkpt><trkpt lat="42.2215008" lon="13.7799753"><ele>847.0</ele><time>2026-05-02T10:15:00.934Z</time></trkpt><trkpt lat="42.2214728" lon="13.779892"><ele>847.0</ele><time>2026-05-02T10:15:02.934Z</time></trkpt><trkpt lat="42.2214394" lon="13.7798042"><ele>847.0</ele><time>2026-05-02T10:15:04.933Z</time></trkpt><trkpt lat="42.2213956" lon="13.7797263"><ele>845.2</ele><time>2026-05-02T10:15:06.933Z</time></trkpt><trkpt lat="42.2213125" lon="13.7797286"><ele>843.4000000000001</ele><time>2026-05-02T10:15:09.934Z</time></trkpt><trkpt lat="42.2212374" lon="13.7797809"><ele>841.5999999999999</ele><time>2026-05-02T10:15:11.933Z</time></trkpt><trkpt lat="42.2211579" lon="13.7798435"><ele>839.8</ele><time>2026-05-02T10:15:13.933Z</time></trkpt><trkpt lat="42.2210666" lon="13.7799221"><ele>838.0</ele><time>2026-05-02T10:15:15.933Z</time></trkpt><trkpt lat="42.2209572" lon="13.7800231"><ele>837.9999999999999</ele><time>2026-05-02T10:15:17.933Z</time></trkpt><trkpt lat="42.2208928" lon="13.7800823"><ele>838.0</ele><time>2026-05-02T10:15:18.933Z</time></trkpt><trkpt lat="42.2208206" lon="13.780141"><ele>838.0</ele><time>2026-05-02T10:15:19.933Z</time></trkpt><trkpt lat="42.2207454" lon="13.7801968"><ele>838.0</ele><time>2026-05-02T10:15:20.933Z</time></trkpt><trkpt lat="42.2206709" lon="13.7802499"><ele>837.9999999999999</ele><time>2026-05-02T10:15:21.933Z</time></trkpt><trkpt lat="42.2205954" lon="13.7803062"><ele>838.0</ele><time>2026-05-02T10:15:22.934Z</time></trkpt><trkpt lat="42.2205152" lon="13.780361"><ele>837.8571428571428</ele><time>2026-05-02T10:15:23.933Z</time></trkpt><trkpt lat="42.220434" lon="13.7804075"><ele>837.7142857142857</ele><time>2026-05-02T10:15:24.933Z</time></trkpt><trkpt lat="42.2203583" lon="13.7804452"><ele>837.5714285714286</ele><time>2026-05-02T10:15:25.932Z</time></trkpt><trkpt lat="42.2202837" lon="13.780469"><ele>837.4285714285713</ele><time>2026-05-02T10:15:26.934Z</time></trkpt><trkpt lat="42.220217" lon="13.7804806"><ele>837.2857142857143</ele><time>2026-05-02T10:15:27.933Z</time></trkpt><trkpt lat="42.2201504" lon="13.7804745"><ele>837.1428571428571</ele><time>2026-05-02T10:15:28.933Z</time></trkpt><trkpt lat="42.2200869" lon="13.7804703"><ele>837.0</ele><time>2026-05-02T10:15:29.933Z</time></trkpt><trkpt lat="42.2200047" lon="13.7804545"><ele>837.0</ele><time>2026-05-02T10:15:30.934Z</time></trkpt><trkpt lat="42.2199054" lon="13.7804322"><ele>837.0</ele><time>2026-05-02T10:15:31.933Z</time></trkpt><trkpt lat="42.2198074" lon="13.7804032"><ele>837.0</ele><time>2026-05-02T10:15:32.932Z</time></trkpt><trkpt lat="42.219713" lon="13.7803702"><ele>837.0</ele><time>2026-05-02T10:15:33.933Z</time></trkpt><trkpt lat="42.2196285" lon="13.7803223"><ele>837.0</ele><time>2026-05-02T10:15:34.933Z</time></trkpt><trkpt lat="42.2195431" lon="13.7802677"><ele>835.5</ele><time>2026-05-02T10:15:35.932Z</time></trkpt><trkpt lat="42.219471" lon="13.7802013"><ele>834.0</ele><time>2026-05-02T10:15:36.933Z</time></trkpt><trkpt lat="42.2194029" lon="13.7801191"><ele>832.5</ele><time>2026-05-02T10:15:37.933Z</time></trkpt><trkpt lat="42.2193389" lon="13.7800324"><ele>831.0</ele><time>2026-05-02T10:15:38.934Z</time></trkpt><trkpt lat="42.2192819" lon="13.7799509"><ele>829.5</ele><time>2026-05-02T10:15:39.933Z</time></trkpt><trkpt lat="42.2192206" lon="13.7798676"><ele>828.0</ele><time>2026-05-02T10:15:40.932Z</time></trkpt><trkpt lat="42.219166" lon="13.7797974"><ele>823.5999999999999</ele><time>2026-05-02T10:15:41.933Z</time></trkpt><trkpt lat="42.2190987" lon="13.779729"><ele>819.1999999999999</ele><time>2026-05-02T10:15:42.933Z</time></trkpt><trkpt lat="42.2190262" lon="13.7796689"><ele>814.8</ele><time>2026-05-02T10:15:43.933Z</time></trkpt><trkpt lat="42.2189379" lon="13.7796259"><ele>810.4</ele><time>2026-05-02T10:15:44.933Z</time></trkpt><trkpt lat="42.2188459" lon="13.7796004"><ele>806.0</ele><time>2026-05-02T10:15:45.933Z</time></trkpt><trkpt lat="42.218749" lon="13.7795832"><ele>803.1999999999999</ele><time>2026-05-02T10:15:46.932Z</time></trkpt><trkpt lat="42.2186516" lon="13.7796037"><ele>800.4</ele><time>2026-05-02T10:15:47.933Z</time></trkpt><trkpt lat="42.2185545" lon="13.7796314"><ele>797.6</ele><time>2026-05-02T10:15:48.933Z</time></trkpt><trkpt lat="42.2184554" lon="13.7796709"><ele>794.8</ele><time>2026-05-02T10:15:49.933Z</time></trkpt><trkpt lat="42.2183521" lon="13.7797222"><ele>792.0</ele><time>2026-05-02T10:15:50.932Z</time></trkpt><trkpt lat="42.2182319" lon="13.7797697"><ele>790.5</ele><time>2026-05-02T10:15:51.933Z</time></trkpt><trkpt lat="42.2181122" lon="13.7798215"><ele>789.0</ele><time>2026-05-02T10:15:52.933Z</time></trkpt><trkpt lat="42.2179978" lon="13.7798587"><ele>787.5</ele><time>2026-05-02T10:15:53.933Z</time></trkpt><trkpt lat="42.2178859" lon="13.7798948"><ele>786.0</ele><time>2026-05-02T10:15:54.932Z</time></trkpt><trkpt lat="42.2177882" lon="13.7798998"><ele>786.0</ele><time>2026-05-02T10:15:55.933Z</time></trkpt><trkpt lat="42.2176998" lon="13.7798781"><ele>786.0</ele><time>2026-05-02T10:15:56.932Z</time></trkpt><trkpt lat="42.217624" lon="13.7798252"><ele>786.0</ele><time>2026-05-02T10:15:57.933Z</time></trkpt><trkpt lat="42.2175561" lon="13.7797421"><ele>786.0</ele><time>2026-05-02T10:15:58.933Z</time></trkpt><trkpt lat="42.217512" lon="13.7796359"><ele>786.0</ele><time>2026-05-02T10:15:59.933Z</time></trkpt><trkpt lat="42.2174833" lon="13.7795076"><ele>786.0</ele><time>2026-05-02T10:16:00.933Z</time></trkpt><trkpt lat="42.2174676" lon="13.7793527"><ele>786.0</ele><time>2026-05-02T10:16:01.933Z</time></trkpt><trkpt lat="42.2174428" lon="13.7791919"><ele>786.0</ele><time>2026-05-02T10:16:02.932Z</time></trkpt><trkpt lat="42.2174118" lon="13.7790237"><ele>786.0</ele><time>2026-05-02T10:16:03.934Z</time></trkpt><trkpt lat="42.2173751" lon="13.7788622"><ele>783.0</ele><time>2026-05-02T10:16:04.933Z</time></trkpt><trkpt lat="42.2173281" lon="13.7787036"><ele>780.0</ele><time>2026-05-02T10:16:05.933Z</time></trkpt><trkpt lat="42.2172684" lon="13.7785518"><ele>777.0</ele><time>2026-05-02T10:16:06.932Z</time></trkpt><trkpt lat="42.2172042" lon="13.7783925"><ele>774.0</ele><time>2026-05-02T10:16:07.932Z</time></trkpt><trkpt lat="42.2171371" lon="13.7782276"><ele>769.5</ele><time>2026-05-02T10:16:08.933Z</time></trkpt><trkpt lat="42.2170717" lon="13.7780655"><ele>765.0</ele><time>2026-05-02T10:16:09.933Z</time></trkpt><trkpt lat="42.2170055" lon="13.7779154"><ele>760.5</ele><time>2026-05-02T10:16:10.932Z</time></trkpt><trkpt lat="42.2169441" lon="13.7777912"><ele>756.0</ele><time>2026-05-02T10:16:11.934Z</time></trkpt><trkpt lat="42.2168801" lon="13.7776923"><ele>751.5</ele><time>2026-05-02T10:16:12.933Z</time></trkpt><trkpt lat="42.2168028" lon="13.7776183"><ele>747.0</ele><time>2026-05-02T10:16:13.933Z</time></trkpt><trkpt lat="42.2167185" lon="13.77755"><ele>742.5</ele><time>2026-05-02T10:16:14.933Z</time></trkpt><trkpt lat="42.2165915" lon="13.7774754"><ele>738.0</ele><time>2026-05-02T10:16:15.933Z</time></trkpt><trkpt lat="42.2164511" lon="13.7774039"><ele>735.0</ele><time>2026-05-02T10:16:16.934Z</time></trkpt><trkpt lat="42.216308" lon="13.7773191"><ele>732.0</ele><time>2026-05-02T10:16:17.933Z</time></trkpt><trkpt lat="42.2161673" lon="13.7772248"><ele>729.0</ele><time>2026-05-02T10:16:18.933Z</time></trkpt><trkpt lat="42.216019" lon="13.7771277"><ele>729.0</ele><time>2026-05-02T10:16:19.933Z</time></trkpt><trkpt lat="42.2158711" lon="13.777037"><ele>729.0</ele><time>2026-05-02T10:16:20.933Z</time></trkpt><trkpt lat="42.215731" lon="13.7769491"><ele>729.0</ele><time>2026-05-02T10:16:21.934Z</time></trkpt><trkpt lat="42.2156012" lon="13.7768728"><ele>724.0</ele><time>2026-05-02T10:16:22.933Z</time></trkpt><trkpt lat="42.2154744" lon="13.7768095"><ele>719.0</ele><time>2026-05-02T10:16:23.933Z</time></trkpt><trkpt lat="42.2153503" lon="13.7767527"><ele>714.0</ele><time>2026-05-02T10:16:24.934Z</time></trkpt><trkpt lat="42.2152282" lon="13.7767156"><ele>709.0</ele><time>2026-05-02T10:16:25.933Z</time></trkpt><trkpt lat="42.2151173" lon="13.776703"><ele>709.0</ele><time>2026-05-02T10:16:26.934Z</time></trkpt><trkpt lat="42.2150248" lon="13.7767059"><ele>709.0</ele><time>2026-05-02T10:16:27.932Z</time></trkpt><trkpt lat="42.2149654" lon="13.776771"><ele>709.0</ele><time>2026-05-02T10:16:28.933Z</time></trkpt><trkpt lat="42.2149257" lon="13.7768443"><ele>709.0</ele><time>2026-05-02T10:16:29.933Z</time></trkpt><trkpt lat="42.2148714" lon="13.776983"><ele>709.0</ele><time>2026-05-02T10:16:31.933Z</time></trkpt><trkpt lat="42.2148233" lon="13.7770716"><ele>709.0</ele><time>2026-05-02T10:16:33.932Z</time></trkpt><trkpt lat="42.2147628" lon="13.7770222"><ele>709.0</ele><time>2026-05-02T10:16:36.933Z</time></trkpt><trkpt lat="42.2148107" lon="13.7768697"><ele>709.0</ele><time>2026-05-02T10:16:38.932Z</time></trkpt><trkpt lat="42.2148468" lon="13.776761"><ele>709.0</ele><time>2026-05-02T10:16:39.933Z</time></trkpt><trkpt lat="42.2148826" lon="13.7766493"><ele>709.0</ele><time>2026-05-02T10:16:40.933Z</time></trkpt><trkpt lat="42.2149158" lon="13.7765422"><ele>709.0</ele><time>2026-05-02T10:16:41.933Z</time></trkpt><trkpt lat="42.2149177" lon="13.7764472"><ele>709.0</ele><time>2026-05-02T10:16:42.933Z</time></trkpt><trkpt lat="42.2148614" lon="13.7763296"><ele>709.0</ele><time>2026-05-02T10:16:44.933Z</time></trkpt><trkpt lat="42.2147588" lon="13.7764018"><ele>709.0</ele><time>2026-05-02T10:16:46.933Z</time></trkpt><trkpt lat="42.2147121" lon="13.776491"><ele>709.0</ele><time>2026-05-02T10:16:47.933Z</time></trkpt><trkpt lat="42.2146635" lon="13.7766017"><ele>709.0</ele><time>2026-05-02T10:16:48.932Z</time></trkpt><trkpt lat="42.2146137" lon="13.776713"><ele>707.4000000000001</ele><time>2026-05-02T10:16:49.933Z</time></trkpt><trkpt lat="42.2145627" lon="13.7768388"><ele>705.8</ele><time>2026-05-02T10:16:50.934Z</time></trkpt><trkpt lat="42.2145111" lon="13.7769607"><ele>704.2</ele><time>2026-05-02T10:16:51.933Z</time></trkpt><trkpt lat="42.214458" lon="13.7770822"><ele>702.5999999999999</ele><time>2026-05-02T10:16:52.934Z</time></trkpt><trkpt lat="42.2144087" lon="13.7771941"><ele>701.0</ele><time>2026-05-02T10:16:53.933Z</time></trkpt><trkpt lat="42.2143658" lon="13.777293"><ele>701.0</ele><time>2026-05-02T10:16:54.933Z</time></trkpt><trkpt lat="42.2143262" lon="13.7773814"><ele>701.0</ele><time>2026-05-02T10:16:55.933Z</time></trkpt><trkpt lat="42.214277" lon="13.777439"><ele>701.0</ele><time>2026-05-02T10:16:56.932Z</time></trkpt><trkpt lat="42.214175" lon="13.7774456"><ele>701.0</ele><time>2026-05-02T10:16:58.933Z</time></trkpt><trkpt lat="42.2141638" lon="13.7773274"><ele>701.0</ele><time>2026-05-02T10:17:00.932Z</time></trkpt><trkpt lat="42.2141881" lon="13.7772413"><ele>701.0</ele><time>2026-05-02T10:17:01.934Z</time></trkpt><trkpt lat="42.2142145" lon="13.7771449"><ele>701.0</ele><time>2026-05-02T10:17:02.934Z</time></trkpt><trkpt lat="42.2142378" lon="13.7770399"><ele>701.0</ele><time>2026-05-02T10:17:03.933Z</time></trkpt><trkpt lat="42.2142618" lon="13.776934"><ele>701.0</ele><time>2026-05-02T10:17:04.933Z</time></trkpt><trkpt lat="42.2142861" lon="13.7768259"><ele>701.0</ele><time>2026-05-02T10:17:05.933Z</time></trkpt><trkpt lat="42.214309" lon="13.7767287"><ele>701.0</ele><time>2026-05-02T10:17:06.933Z</time></trkpt><trkpt lat="42.2143258" lon="13.7766445"><ele>701.0</ele><time>2026-05-02T10:17:07.933Z</time></trkpt><trkpt lat="42.2143483" lon="13.7765289"><ele>700.0</ele><time>2026-05-02T10:17:09.934Z</time></trkpt><trkpt lat="42.214299" lon="13.7764583"><ele>699.0</ele><time>2026-05-02T10:17:12.933Z</time></trkpt><trkpt lat="42.2142549" lon="13.7765265"><ele>698.0</ele><time>2026-05-02T10:17:16.933Z</time></trkpt><trkpt lat="42.2141986" lon="13.7765974"><ele>697.0</ele><time>2026-05-02T10:17:18.933Z</time></trkpt><trkpt lat="42.2141022" lon="13.7766951"><ele>696.0</ele><time>2026-05-02T10:17:20.933Z</time></trkpt><trkpt lat="42.2139691" lon="13.7767233"><ele>695.0</ele><time>2026-05-02T10:17:22.933Z</time></trkpt><trkpt lat="42.2138952" lon="13.7767225"><ele>694.0</ele><time>2026-05-02T10:17:23.932Z</time></trkpt><trkpt lat="42.2138087" lon="13.7767281"><ele>693.0</ele><time>2026-05-02T10:17:24.933Z</time></trkpt><trkpt lat="42.2137259" lon="13.7767313"><ele>692.0</ele><time>2026-05-02T10:17:25.934Z</time></trkpt><trkpt lat="42.2136481" lon="13.7767192"><ele>691.0</ele><time>2026-05-02T10:17:26.933Z</time></trkpt><trkpt lat="42.2135661" lon="13.7767026"><ele>690.0</ele><time>2026-05-02T10:17:27.933Z</time></trkpt><trkpt lat="42.2134856" lon="13.7766682"><ele>690.0</ele><time>2026-05-02T10:17:28.933Z</time></trkpt><trkpt lat="42.2134063" lon="13.7766171"><ele>690.0</ele><time>2026-05-02T10:17:29.932Z</time></trkpt><trkpt lat="42.2133275" lon="13.7765576"><ele>690.0</ele><time>2026-05-02T10:17:30.933Z</time></trkpt><trkpt lat="42.2132483" lon="13.7764924"><ele>690.0</ele><time>2026-05-02T10:17:31.933Z</time></trkpt><trkpt lat="42.2131727" lon="13.7764268"><ele>690.0</ele><time>2026-05-02T10:17:32.933Z</time></trkpt><trkpt lat="42.2130935" lon="13.7763761"><ele>690.0</ele><time>2026-05-02T10:17:33.933Z</time></trkpt><trkpt lat="42.2130147" lon="13.7763434"><ele>690.0</ele><time>2026-05-02T10:17:34.933Z</time></trkpt><trkpt lat="42.2129461" lon="13.7763404"><ele>690.0</ele><time>2026-05-02T10:17:35.933Z</time></trkpt><trkpt lat="42.2128756" lon="13.776368"><ele>690.0</ele><time>2026-05-02T10:17:36.933Z</time></trkpt><trkpt lat="42.2128023" lon="13.776409"><ele>690.0</ele><time>2026-05-02T10:17:37.933Z</time></trkpt><trkpt lat="42.2127244" lon="13.7764645"><ele>690.0</ele><time>2026-05-02T10:17:38.934Z</time></trkpt><trkpt lat="42.2126446" lon="13.7765431"><ele>690.0</ele><time>2026-05-02T10:17:39.932Z</time></trkpt><trkpt lat="42.2125664" lon="13.7766367"><ele>690.0</ele><time>2026-05-02T10:17:40.933Z</time></trkpt><trkpt lat="42.2124937" lon="13.7767304"><ele>690.0</ele><time>2026-05-02T10:17:41.933Z</time></trkpt><trkpt lat="42.2124177" lon="13.7768197"><ele>690.0</ele><time>2026-05-02T10:17:42.934Z</time></trkpt><trkpt lat="42.2123261" lon="13.7768997"><ele>690.0</ele><time>2026-05-02T10:17:43.933Z</time></trkpt><trkpt lat="42.2122345" lon="13.7769784"><ele>690.0</ele><time>2026-05-02T10:17:44.934Z</time></trkpt><trkpt lat="42.2121506" lon="13.7770518"><ele>688.4</ele><time>2026-05-02T10:17:45.932Z</time></trkpt><trkpt lat="42.2120739" lon="13.7771099"><ele>686.8</ele><time>2026-05-02T10:17:46.934Z</time></trkpt><trkpt lat="42.2119989" lon="13.7771627"><ele>685.2</ele><time>2026-05-02T10:17:47.932Z</time></trkpt><trkpt lat="42.2119195" lon="13.777197"><ele>683.6</ele><time>2026-05-02T10:17:48.933Z</time></trkpt><trkpt lat="42.2118237" lon="13.7772025"><ele>682.0</ele><time>2026-05-02T10:17:49.934Z</time></trkpt><trkpt lat="42.2117187" lon="13.7771894"><ele>682.0</ele><time>2026-05-02T10:17:50.934Z</time></trkpt><trkpt lat="42.2116196" lon="13.7771583"><ele>682.0</ele><time>2026-05-02T10:17:51.933Z</time></trkpt><trkpt lat="42.211523" lon="13.7771084"><ele>682.0</ele><time>2026-05-02T10:17:52.934Z</time></trkpt><trkpt lat="42.2114314" lon="13.7770415"><ele>682.0</ele><time>2026-05-02T10:17:53.933Z</time></trkpt><trkpt lat="42.2113457" lon="13.7769542"><ele>682.0</ele><time>2026-05-02T10:17:54.934Z</time></trkpt><trkpt lat="42.2112493" lon="13.7768507"><ele>681.8</ele><time>2026-05-02T10:17:55.933Z</time></trkpt><trkpt lat="42.2111575" lon="13.7767456"><ele>681.6</ele><time>2026-05-02T10:17:56.933Z</time></trkpt><trkpt lat="42.2110664" lon="13.7766491"><ele>681.4</ele><time>2026-05-02T10:17:57.932Z</time></trkpt><trkpt lat="42.2109794" lon="13.7765566"><ele>681.1999999999999</ele><time>2026-05-02T10:17:58.933Z</time></trkpt><trkpt lat="42.2109177" lon="13.7764775"><ele>681.0</ele><time>2026-05-02T10:17:59.933Z</time></trkpt><trkpt lat="42.2108617" lon="13.7764047"><ele>681.0</ele><time>2026-05-02T10:18:00.932Z</time></trkpt><trkpt lat="42.2108" lon="13.7763275"><ele>681.0</ele><time>2026-05-02T10:18:01.934Z</time></trkpt><trkpt lat="42.21074" lon="13.7762422"><ele>681.0</ele><time>2026-05-02T10:18:02.932Z</time></trkpt><trkpt lat="42.2106708" lon="13.7761759"><ele>681.0</ele><time>2026-05-02T10:18:03.931Z</time></trkpt><trkpt lat="42.2105809" lon="13.7761179"><ele>681.0</ele><time>2026-05-02T10:18:04.933Z</time></trkpt><trkpt lat="42.210485" lon="13.7760672"><ele>680.5999999999999</ele><time>2026-05-02T10:18:05.933Z</time></trkpt><trkpt lat="42.2103853" lon="13.7760254"><ele>680.2</ele><time>2026-05-02T10:18:06.932Z</time></trkpt><trkpt lat="42.2102859" lon="13.7759783"><ele>679.8</ele><time>2026-05-02T10:18:07.932Z</time></trkpt><trkpt lat="42.210175" lon="13.7759223"><ele>679.4000000000001</ele><time>2026-05-02T10:18:08.932Z</time></trkpt><trkpt lat="42.2100698" lon="13.775872"><ele>679.0</ele><time>2026-05-02T10:18:09.932Z</time></trkpt><trkpt lat="42.2099726" lon="13.7758276"><ele>679.0</ele><time>2026-05-02T10:18:10.934Z</time></trkpt><trkpt lat="42.2098792" lon="13.7757828"><ele>679.0</ele><time>2026-05-02T10:18:11.932Z</time></trkpt><trkpt lat="42.2097771" lon="13.7757318"><ele>679.0</ele><time>2026-05-02T10:18:12.933Z</time></trkpt><trkpt lat="42.2096718" lon="13.7756907"><ele>679.0</ele><time>2026-05-02T10:18:13.934Z</time></trkpt><trkpt lat="42.2095638" lon="13.7756418"><ele>679.0</ele><time>2026-05-02T10:18:14.934Z</time></trkpt><trkpt lat="42.2094503" lon="13.7755969"><ele>679.0</ele><time>2026-05-02T10:18:15.933Z</time></trkpt><trkpt lat="42.2093445" lon="13.7755613"><ele>679.0</ele><time>2026-05-02T10:18:16.932Z</time></trkpt><trkpt lat="42.2092325" lon="13.7755327"><ele>679.0</ele><time>2026-05-02T10:18:17.932Z</time></trkpt><trkpt lat="42.209126" lon="13.7755037"><ele>679.0</ele><time>2026-05-02T10:18:18.934Z</time></trkpt><trkpt lat="42.209025" lon="13.7754881"><ele>679.0</ele><time>2026-05-02T10:18:19.933Z</time></trkpt><trkpt lat="42.2089286" lon="13.7754922"><ele>678.8000000000001</ele><time>2026-05-02T10:18:20.932Z</time></trkpt><trkpt lat="42.2088299" lon="13.7755107"><ele>678.6</ele><time>2026-05-02T10:18:21.933Z</time></trkpt><trkpt lat="42.2087365" lon="13.7755379"><ele>678.4</ele><time>2026-05-02T10:18:22.933Z</time></trkpt><trkpt lat="42.2086423" lon="13.775569"><ele>678.2</ele><time>2026-05-02T10:18:23.933Z</time></trkpt><trkpt lat="42.2085565" lon="13.7755901"><ele>678.0</ele><time>2026-05-02T10:18:24.933Z</time></trkpt><trkpt lat="42.2084717" lon="13.7755963"><ele>678.0</ele><time>2026-05-02T10:18:25.931Z</time></trkpt><trkpt lat="42.2084096" lon="13.7755629"><ele>678.0</ele><time>2026-05-02T10:18:26.932Z</time></trkpt><trkpt lat="42.208341" lon="13.7755218"><ele>678.0</ele><time>2026-05-02T10:18:27.934Z</time></trkpt><trkpt lat="42.208267" lon="13.7754568"><ele>678.0</ele><time>2026-05-02T10:18:28.933Z</time></trkpt><trkpt lat="42.2081805" lon="13.7753919"><ele>678.0</ele><time>2026-05-02T10:18:29.933Z</time></trkpt><trkpt lat="42.2080869" lon="13.7753234"><ele>678.0</ele><time>2026-05-02T10:18:30.932Z</time></trkpt><trkpt lat="42.2079963" lon="13.7752419"><ele>678.0</ele><time>2026-05-02T10:18:31.932Z</time></trkpt><trkpt lat="42.207901" lon="13.7751548"><ele>678.0</ele><time>2026-05-02T10:18:32.932Z</time></trkpt><trkpt lat="42.2078009" lon="13.7750595"><ele>678.0</ele><time>2026-05-02T10:18:33.933Z</time></trkpt><trkpt lat="42.2076921" lon="13.7749588"><ele>678.0</ele><time>2026-05-02T10:18:34.933Z</time></trkpt><trkpt lat="42.2075936" lon="13.774861"><ele>678.0</ele><time>2026-05-02T10:18:35.933Z</time></trkpt><trkpt lat="42.207502" lon="13.7747767"><ele>678.0</ele><time>2026-05-02T10:18:36.932Z</time></trkpt><trkpt lat="42.2074193" lon="13.7747018"><ele>678.0</ele><time>2026-05-02T10:18:37.933Z</time></trkpt><trkpt lat="42.207348" lon="13.7746324"><ele>678.0</ele><time>2026-05-02T10:18:38.933Z</time></trkpt><trkpt lat="42.2072708" lon="13.7745472"><ele>678.0</ele><time>2026-05-02T10:18:40.932Z</time></trkpt><trkpt lat="42.2072152" lon="13.7744918"><ele>678.5999999999999</ele><time>2026-05-02T10:18:44.934Z</time></trkpt><trkpt lat="42.207124" lon="13.7744921"><ele>679.1999999999999</ele><time>2026-05-02T10:18:46.932Z</time></trkpt><trkpt lat="42.2070573" lon="13.7745293"><ele>679.8</ele><time>2026-05-02T10:18:47.933Z</time></trkpt><trkpt lat="42.2069572" lon="13.7746001"><ele>680.4</ele><time>2026-05-02T10:18:48.933Z</time></trkpt><trkpt lat="42.2068594" lon="13.7746641"><ele>681.0</ele><time>2026-05-02T10:18:49.932Z</time></trkpt><trkpt lat="42.2067418" lon="13.7747224"><ele>681.0</ele><time>2026-05-02T10:18:50.933Z</time></trkpt><trkpt lat="42.2066219" lon="13.7748055"><ele>681.0</ele><time>2026-05-02T10:18:51.932Z</time></trkpt><trkpt lat="42.2064892" lon="13.7748778"><ele>681.0</ele><time>2026-05-02T10:18:52.932Z</time></trkpt><trkpt lat="42.2063497" lon="13.7749591"><ele>681.0</ele><time>2026-05-02T10:18:53.933Z</time></trkpt><trkpt lat="42.206203" lon="13.775035"><ele>681.0</ele><time>2026-05-02T10:18:54.933Z</time></trkpt><trkpt lat="42.2060584" lon="13.7751193"><ele>681.0</ele><time>2026-05-02T10:18:55.932Z</time></trkpt><trkpt lat="42.2059067" lon="13.7751984"><ele>681.0</ele><time>2026-05-02T10:18:56.933Z</time></trkpt><trkpt lat="42.2057681" lon="13.7752743"><ele>682.0</ele><time>2026-05-02T10:18:57.931Z</time></trkpt><trkpt lat="42.2056275" lon="13.7753581"><ele>683.0</ele><time>2026-05-02T10:18:58.933Z</time></trkpt><trkpt lat="42.2054858" lon="13.7754336"><ele>684.0</ele><time>2026-05-02T10:18:59.933Z</time></trkpt><trkpt lat="42.2053443" lon="13.7755201"><ele>684.0</ele><time>2026-05-02T10:19:00.932Z</time></trkpt><trkpt lat="42.2052043" lon="13.7756016"><ele>684.0</ele><time>2026-05-02T10:19:01.933Z</time></trkpt><trkpt lat="42.2050608" lon="13.7756812"><ele>684.0</ele><time>2026-05-02T10:19:02.932Z</time></trkpt><trkpt lat="42.2049158" lon="13.7757656"><ele>684.25</ele><time>2026-05-02T10:19:03.933Z</time></trkpt><trkpt lat="42.2047768" lon="13.7758422"><ele>684.5</ele><time>2026-05-02T10:19:04.934Z</time></trkpt><trkpt lat="42.2046422" lon="13.7759106"><ele>684.75</ele><time>2026-05-02T10:19:05.933Z</time></trkpt><trkpt lat="42.2045018" lon="13.7759893"><ele>685.0</ele><time>2026-05-02T10:19:06.933Z</time></trkpt><trkpt lat="42.2043646" lon="13.7760655"><ele>685.0</ele><time>2026-05-02T10:19:07.932Z</time></trkpt><trkpt lat="42.2042236" lon="13.7761437"><ele>685.0</ele><time>2026-05-02T10:19:08.932Z</time></trkpt><trkpt lat="42.2040819" lon="13.7762272"><ele>685.0</ele><time>2026-05-02T10:19:09.932Z</time></trkpt><trkpt lat="42.2039357" lon="13.7763051"><ele>686.6666666666667</ele><time>2026-05-02T10:19:10.934Z</time></trkpt><trkpt lat="42.20379" lon="13.7763833"><ele>688.3333333333334</ele><time>2026-05-02T10:19:11.934Z</time></trkpt><trkpt lat="42.2036467" lon="13.7764616"><ele>690.0</ele><time>2026-05-02T10:19:12.932Z</time></trkpt><trkpt lat="42.2035006" lon="13.7765433"><ele>690.0</ele><time>2026-05-02T10:19:13.933Z</time></trkpt><trkpt lat="42.2033628" lon="13.7766207"><ele>690.0</ele><time>2026-05-02T10:19:14.933Z</time></trkpt><trkpt lat="42.203223" lon="13.7766945"><ele>690.0</ele><time>2026-05-02T10:19:15.932Z</time></trkpt><trkpt lat="42.2030868" lon="13.7767733"><ele>690.0</ele><time>2026-05-02T10:19:16.932Z</time></trkpt><trkpt lat="42.2029465" lon="13.7768531"><ele>693.5</ele><time>2026-05-02T10:19:17.933Z</time></trkpt><trkpt lat="42.2028025" lon="13.776927"><ele>697.0</ele><time>2026-05-02T10:19:18.933Z</time></trkpt><trkpt lat="42.2026645" lon="13.7769929"><ele>700.5</ele><time>2026-05-02T10:19:19.933Z</time></trkpt><trkpt lat="42.2025446" lon="13.7770629"><ele>704.0</ele><time>2026-05-02T10:19:20.933Z</time></trkpt><trkpt lat="42.2024295" lon="13.7771468"><ele>704.0</ele><time>2026-05-02T10:19:21.934Z</time></trkpt><trkpt lat="42.2023449" lon="13.777254"><ele>704.0</ele><time>2026-05-02T10:19:22.933Z</time></trkpt><trkpt lat="42.202288" lon="13.7773945"><ele>704.0</ele><time>2026-05-02T10:19:23.933Z</time></trkpt><trkpt lat="42.2022524" lon="13.7775522"><ele>704.0</ele><time>2026-05-02T10:19:24.932Z</time></trkpt><trkpt lat="42.2022162" lon="13.777725"><ele>703.0</ele><time>2026-05-02T10:19:25.932Z</time></trkpt><trkpt lat="42.2021817" lon="13.7779167"><ele>702.0</ele><time>2026-05-02T10:19:26.933Z</time></trkpt><trkpt lat="42.202139" lon="13.7781083"><ele>701.0</ele><time>2026-05-02T10:19:27.932Z</time></trkpt><trkpt lat="42.2020983" lon="13.7783188"><ele>703.0</ele><time>2026-05-02T10:19:28.933Z</time></trkpt><trkpt lat="42.2020524" lon="13.7785315"><ele>705.0</ele><time>2026-05-02T10:19:29.931Z</time></trkpt><trkpt lat="42.2020063" lon="13.778753"><ele>707.0</ele><time>2026-05-02T10:19:30.932Z</time></trkpt><trkpt lat="42.2019629" lon="13.778983"><ele>707.0</ele><time>2026-05-02T10:19:31.933Z</time></trkpt><trkpt lat="42.2019113" lon="13.7792183"><ele>707.0</ele><time>2026-05-02T10:19:32.934Z</time></trkpt><trkpt lat="42.2018696" lon="13.7794507"><ele>707.0</ele><time>2026-05-02T10:19:33.932Z</time></trkpt><trkpt lat="42.2018223" lon="13.7796911"><ele>710.0</ele><time>2026-05-02T10:19:34.932Z</time></trkpt><trkpt lat="42.2017759" lon="13.779927"><ele>713.0</ele><time>2026-05-02T10:19:35.933Z</time></trkpt><trkpt lat="42.2017336" lon="13.7801683"><ele>716.0</ele><time>2026-05-02T10:19:36.933Z</time></trkpt><trkpt lat="42.2017048" lon="13.7804126"><ele>718.0</ele><time>2026-05-02T10:19:37.933Z</time></trkpt><trkpt lat="42.2016861" lon="13.7806584"><ele>720.0</ele><time>2026-05-02T10:19:38.932Z</time></trkpt><trkpt lat="42.2016788" lon="13.7809088"><ele>722.0</ele><time>2026-05-02T10:19:39.933Z</time></trkpt><trkpt lat="42.2016865" lon="13.7811557"><ele>723.3333333333333</ele><time>2026-05-02T10:19:40.933Z</time></trkpt><trkpt lat="42.2017019" lon="13.7814031"><ele>724.6666666666666</ele><time>2026-05-02T10:19:41.933Z</time></trkpt><trkpt lat="42.2017159" lon="13.7816264"><ele>726.0</ele><time>2026-05-02T10:19:42.933Z</time></trkpt><trkpt lat="42.2017258" lon="13.7818401"><ele>728.0</ele><time>2026-05-02T10:19:43.932Z</time></trkpt><trkpt lat="42.2017125" lon="13.78204"><ele>730.0</ele><time>2026-05-02T10:19:44.933Z</time></trkpt><trkpt lat="42.2016773" lon="13.7822243"><ele>732.0</ele><time>2026-05-02T10:19:45.934Z</time></trkpt><trkpt lat="42.2016252" lon="13.7824076"><ele>734.0</ele><time>2026-05-02T10:19:46.932Z</time></trkpt><trkpt lat="42.2015591" lon="13.7826006"><ele>733.3333333333333</ele><time>2026-05-02T10:19:47.932Z</time></trkpt><trkpt lat="42.2014899" lon="13.7827985"><ele>732.6666666666666</ele><time>2026-05-02T10:19:48.932Z</time></trkpt><trkpt lat="42.2014186" lon="13.7829875"><ele>732.0</ele><time>2026-05-02T10:19:49.933Z</time></trkpt><trkpt lat="42.2013459" lon="13.7831842"><ele>732.0</ele><time>2026-05-02T10:19:50.932Z</time></trkpt><trkpt lat="42.201266" lon="13.7833717"><ele>732.0</ele><time>2026-05-02T10:19:51.934Z</time></trkpt><trkpt lat="42.2011787" lon="13.783557"><ele>732.0</ele><time>2026-05-02T10:19:52.933Z</time></trkpt><trkpt lat="42.2011016" lon="13.783754"><ele>737.0</ele><time>2026-05-02T10:19:53.932Z</time></trkpt><trkpt lat="42.201013" lon="13.7839447"><ele>742.0</ele><time>2026-05-02T10:19:54.932Z</time></trkpt><trkpt lat="42.2009276" lon="13.7841317"><ele>747.0</ele><time>2026-05-02T10:19:55.933Z</time></trkpt><trkpt lat="42.2008411" lon="13.7843152"><ele>750.0</ele><time>2026-05-02T10:19:56.932Z</time></trkpt><trkpt lat="42.2007468" lon="13.7844907"><ele>753.0</ele><time>2026-05-02T10:19:57.933Z</time></trkpt><trkpt lat="42.2006495" lon="13.7846591"><ele>756.0</ele><time>2026-05-02T10:19:58.933Z</time></trkpt><trkpt lat="42.2005509" lon="13.7848037"><ele>756.0</ele><time>2026-05-02T10:19:59.933Z</time></trkpt><trkpt lat="42.2004567" lon="13.7849349"><ele>756.0</ele><time>2026-05-02T10:20:00.933Z</time></trkpt><trkpt lat="42.200373" lon="13.7850538"><ele>756.0</ele><time>2026-05-02T10:20:01.932Z</time></trkpt><trkpt lat="42.200305" lon="13.7851417"><ele>756.0</ele><time>2026-05-02T10:20:02.931Z</time></trkpt><trkpt lat="42.2002129" lon="13.7851854"><ele>756.0</ele><time>2026-05-02T10:20:04.932Z</time></trkpt><trkpt lat="42.2001716" lon="13.785086"><ele>756.0</ele><time>2026-05-02T10:20:06.932Z</time></trkpt><trkpt lat="42.20017" lon="13.7849802"><ele>756.0</ele><time>2026-05-02T10:20:07.932Z</time></trkpt><trkpt lat="42.2001629" lon="13.7848432"><ele>756.0</ele><time>2026-05-02T10:20:08.933Z</time></trkpt><trkpt lat="42.2001463" lon="13.7847035"><ele>756.0</ele><time>2026-05-02T10:20:09.933Z</time></trkpt><trkpt lat="42.2000956" lon="13.7845315"><ele>756.0</ele><time>2026-05-02T10:20:10.933Z</time></trkpt><trkpt lat="42.2000355" lon="13.7843602"><ele>755.75</ele><time>2026-05-02T10:20:11.933Z</time></trkpt><trkpt lat="42.1999696" lon="13.7841982"><ele>755.5</ele><time>2026-05-02T10:20:12.932Z</time></trkpt><trkpt lat="42.1998982" lon="13.7840316"><ele>755.25</ele><time>2026-05-02T10:20:13.934Z</time></trkpt><trkpt lat="42.1998348" lon="13.7838564"><ele>755.0</ele><time>2026-05-02T10:20:14.933Z</time></trkpt><trkpt lat="42.1998064" lon="13.7836661"><ele>758.25</ele><time>2026-05-02T10:20:15.933Z</time></trkpt><trkpt lat="42.1997794" lon="13.7834887"><ele>761.5</ele><time>2026-05-02T10:20:16.932Z</time></trkpt><trkpt lat="42.1997564" lon="13.7833287"><ele>764.75</ele><time>2026-05-02T10:20:17.933Z</time></trkpt><trkpt lat="42.199724" lon="13.7831846"><ele>768.0</ele><time>2026-05-02T10:20:18.931Z</time></trkpt><trkpt lat="42.1996178" lon="13.7830707"><ele>768.0</ele><time>2026-05-02T10:20:19.934Z</time></trkpt><trkpt lat="42.1995119" lon="13.7829828"><ele>768.0</ele><time>2026-05-02T10:20:20.933Z</time></trkpt><trkpt lat="42.1993904" lon="13.7829145"><ele>768.0</ele><time>2026-05-02T10:20:21.932Z</time></trkpt><trkpt lat="42.1992525" lon="13.7828768"><ele>768.0</ele><time>2026-05-02T10:20:22.933Z</time></trkpt><trkpt lat="42.1991126" lon="13.782855"><ele>769.6666666666667</ele><time>2026-05-02T10:20:23.933Z</time></trkpt><trkpt lat="42.1989552" lon="13.7828554"><ele>771.3333333333334</ele><time>2026-05-02T10:20:24.934Z</time></trkpt><trkpt lat="42.1988039" lon="13.7828257"><ele>773.0</ele><time>2026-05-02T10:20:25.933Z</time></trkpt><trkpt lat="42.1986518" lon="13.7827949"><ele>773.0</ele><time>2026-05-02T10:20:26.932Z</time></trkpt><trkpt lat="42.1984899" lon="13.7827339"><ele>773.0</ele><time>2026-05-02T10:20:27.933Z</time></trkpt><trkpt lat="42.1983249" lon="13.7827014"><ele>773.0</ele><time>2026-05-02T10:20:28.933Z</time></trkpt><trkpt lat="42.1981618" lon="13.7826951"><ele>774.3333333333334</ele><time>2026-05-02T10:20:29.932Z</time></trkpt><trkpt lat="42.1979941" lon="13.7826971"><ele>775.6666666666667</ele><time>2026-05-02T10:20:30.934Z</time></trkpt><trkpt lat="42.1978341" lon="13.7827142"><ele>777.0</ele><time>2026-05-02T10:20:31.933Z</time></trkpt><trkpt lat="42.197675" lon="13.7827361"><ele>777.0</ele><time>2026-05-02T10:20:32.933Z</time></trkpt><trkpt lat="42.1975135" lon="13.7827416"><ele>777.0</ele><time>2026-05-02T10:20:33.933Z</time></trkpt><trkpt lat="42.1973615" lon="13.7827138"><ele>777.0</ele><time>2026-05-02T10:20:34.933Z</time></trkpt><trkpt lat="42.197221" lon="13.7826631"><ele>776.25</ele><time>2026-05-02T10:20:35.934Z</time></trkpt><trkpt lat="42.1970996" lon="13.7825769"><ele>775.5</ele><time>2026-05-02T10:20:36.933Z</time></trkpt><trkpt lat="42.1969826" lon="13.7824753"><ele>774.75</ele><time>2026-05-02T10:20:37.933Z</time></trkpt><trkpt lat="42.1969054" lon="13.7823246"><ele>774.0</ele><time>2026-05-02T10:20:38.932Z</time></trkpt><trkpt lat="42.1968201" lon="13.7821862"><ele>774.0</ele><time>2026-05-02T10:20:39.932Z</time></trkpt><trkpt lat="42.1967216" lon="13.7820752"><ele>774.0</ele><time>2026-05-02T10:20:40.933Z</time></trkpt><trkpt lat="42.196578" lon="13.7820174"><ele>774.0</ele><time>2026-05-02T10:20:41.933Z</time></trkpt><trkpt lat="42.1964274" lon="13.7819817"><ele>774.0</ele><time>2026-05-02T10:20:42.932Z</time></trkpt><trkpt lat="42.1962638" lon="13.7819465"><ele>774.6666666666667</ele><time>2026-05-02T10:20:43.932Z</time></trkpt><trkpt lat="42.1960922" lon="13.7819078"><ele>775.3333333333334</ele><time>2026-05-02T10:20:44.932Z</time></trkpt><trkpt lat="42.1959102" lon="13.7818662"><ele>776.0</ele><time>2026-05-02T10:20:45.933Z</time></trkpt><trkpt lat="42.1957218" lon="13.7818295"><ele>777.6666666666667</ele><time>2026-05-02T10:20:46.932Z</time></trkpt><trkpt lat="42.1955356" lon="13.7817903"><ele>779.3333333333333</ele><time>2026-05-02T10:20:47.933Z</time></trkpt><trkpt lat="42.1953444" lon="13.7817449"><ele>781.0</ele><time>2026-05-02T10:20:48.932Z</time></trkpt><trkpt lat="42.1951481" lon="13.781713"><ele>781.0</ele><time>2026-05-02T10:20:49.933Z</time></trkpt><trkpt lat="42.1949549" lon="13.7817136"><ele>781.0</ele><time>2026-05-02T10:20:50.932Z</time></trkpt><trkpt lat="42.1947628" lon="13.7817289"><ele>781.0</ele><time>2026-05-02T10:20:51.932Z</time></trkpt><trkpt lat="42.1945877" lon="13.7817327"><ele>782.5</ele><time>2026-05-02T10:20:52.933Z</time></trkpt><trkpt lat="42.1944316" lon="13.7817134"><ele>784.0</ele><time>2026-05-02T10:20:53.931Z</time></trkpt><trkpt lat="42.1942931" lon="13.7816572"><ele>785.5</ele><time>2026-05-02T10:20:54.931Z</time></trkpt><trkpt lat="42.1941755" lon="13.7815608"><ele>787.0</ele><time>2026-05-02T10:20:55.933Z</time></trkpt><trkpt lat="42.1940856" lon="13.7814451"><ele>787.0</ele><time>2026-05-02T10:20:56.932Z</time></trkpt><trkpt lat="42.1940268" lon="13.781301"><ele>787.0</ele><time>2026-05-02T10:20:57.933Z</time></trkpt><trkpt lat="42.1939917" lon="13.7811251"><ele>787.0</ele><time>2026-05-02T10:20:58.932Z</time></trkpt><trkpt lat="42.193966" lon="13.780941"><ele>787.0</ele><time>2026-05-02T10:20:59.933Z</time></trkpt><trkpt lat="42.1939572" lon="13.7807353"><ele>788.3333333333333</ele><time>2026-05-02T10:21:00.934Z</time></trkpt><trkpt lat="42.1939703" lon="13.7805168"><ele>789.6666666666667</ele><time>2026-05-02T10:21:01.933Z</time></trkpt><trkpt lat="42.1939892" lon="13.780298"><ele>791.0</ele><time>2026-05-02T10:21:02.933Z</time></trkpt><trkpt lat="42.194022" lon="13.7800708"><ele>791.0</ele><time>2026-05-02T10:21:03.933Z</time></trkpt><trkpt lat="42.1940687" lon="13.7798461"><ele>791.0</ele><time>2026-05-02T10:21:04.933Z</time></trkpt><trkpt lat="42.1941168" lon="13.7796202"><ele>791.0</ele><time>2026-05-02T10:21:05.934Z</time></trkpt><trkpt lat="42.1941493" lon="13.779397"><ele>792.6666666666667</ele><time>2026-05-02T10:21:06.932Z</time></trkpt><trkpt lat="42.1941663" lon="13.7791688"><ele>794.3333333333333</ele><time>2026-05-02T10:21:07.933Z</time></trkpt><trkpt lat="42.1941586" lon="13.7789528"><ele>796.0</ele><time>2026-05-02T10:21:08.932Z</time></trkpt><trkpt lat="42.1941369" lon="13.77874"><ele>796.0</ele><time>2026-05-02T10:21:09.934Z</time></trkpt><trkpt lat="42.1941166" lon="13.7785219"><ele>796.0</ele><time>2026-05-02T10:21:10.931Z</time></trkpt><trkpt lat="42.1941113" lon="13.7782983"><ele>796.0</ele><time>2026-05-02T10:21:11.932Z</time></trkpt><trkpt lat="42.1941253" lon="13.7780707"><ele>799.0</ele><time>2026-05-02T10:21:12.934Z</time></trkpt><trkpt lat="42.1941476" lon="13.7778475"><ele>802.0</ele><time>2026-05-02T10:21:13.932Z</time></trkpt><trkpt lat="42.1941735" lon="13.7776222"><ele>805.0</ele><time>2026-05-02T10:21:14.932Z</time></trkpt><trkpt lat="42.1942101" lon="13.7773948"><ele>808.3333333333333</ele><time>2026-05-02T10:21:15.933Z</time></trkpt><trkpt lat="42.1942581" lon="13.7771819"><ele>811.6666666666667</ele><time>2026-05-02T10:21:16.933Z</time></trkpt><trkpt lat="42.1943159" lon="13.7769728"><ele>815.0</ele><time>2026-05-02T10:21:17.933Z</time></trkpt><trkpt lat="42.1943899" lon="13.7767687"><ele>817.6666666666667</ele><time>2026-05-02T10:21:18.933Z</time></trkpt><trkpt lat="42.1944695" lon="13.7765733"><ele>820.3333333333333</ele><time>2026-05-02T10:21:19.933Z</time></trkpt><trkpt lat="42.1945549" lon="13.7763819"><ele>823.0</ele><time>2026-05-02T10:21:20.933Z</time></trkpt><trkpt lat="42.1946335" lon="13.7761942"><ele>820.3333333333333</ele><time>2026-05-02T10:21:21.933Z</time></trkpt><trkpt lat="42.1947057" lon="13.7760016"><ele>817.6666666666667</ele><time>2026-05-02T10:21:22.933Z</time></trkpt><trkpt lat="42.1947702" lon="13.7758078"><ele>815.0</ele><time>2026-05-02T10:21:23.933Z</time></trkpt><trkpt lat="42.1948565" lon="13.7756336"><ele>815.0</ele><time>2026-05-02T10:21:24.933Z</time></trkpt><trkpt lat="42.1949646" lon="13.7754682"><ele>815.0</ele><time>2026-05-02T10:21:25.933Z</time></trkpt><trkpt lat="42.1950784" lon="13.7753072"><ele>815.0</ele><time>2026-05-02T10:21:26.934Z</time></trkpt><trkpt lat="42.1951891" lon="13.7751419"><ele>818.6666666666667</ele><time>2026-05-02T10:21:27.932Z</time></trkpt><trkpt lat="42.1952946" lon="13.7749702"><ele>822.3333333333333</ele><time>2026-05-02T10:21:28.933Z</time></trkpt><trkpt lat="42.1953972" lon="13.7747894"><ele>826.0</ele><time>2026-05-02T10:21:29.933Z</time></trkpt><trkpt lat="42.1955035" lon="13.7746048"><ele>826.0</ele><time>2026-05-02T10:21:30.934Z</time></trkpt><trkpt lat="42.1956082" lon="13.7744157"><ele>826.0</ele><time>2026-05-02T10:21:31.932Z</time></trkpt><trkpt lat="42.1957123" lon="13.7742372"><ele>826.0</ele><time>2026-05-02T10:21:32.932Z</time></trkpt><trkpt lat="42.1958148" lon="13.7740655"><ele>826.75</ele><time>2026-05-02T10:21:33.933Z</time></trkpt><trkpt lat="42.195909" lon="13.7739138"><ele>827.5</ele><time>2026-05-02T10:21:34.933Z</time></trkpt><trkpt lat="42.1959832" lon="13.7737549"><ele>828.25</ele><time>2026-05-02T10:21:35.932Z</time></trkpt><trkpt lat="42.1960297" lon="13.7735789"><ele>829.0</ele><time>2026-05-02T10:21:36.933Z</time></trkpt><trkpt lat="42.1960509" lon="13.773388"><ele>832.6666666666666</ele><time>2026-05-02T10:21:37.931Z</time></trkpt><trkpt lat="42.1960612" lon="13.7731903"><ele>836.3333333333333</ele><time>2026-05-02T10:21:38.932Z</time></trkpt><trkpt lat="42.1960577" lon="13.7729709"><ele>840.0</ele><time>2026-05-02T10:21:39.932Z</time></trkpt><trkpt lat="42.1960587" lon="13.7727479"><ele>841.0</ele><time>2026-05-02T10:21:40.934Z</time></trkpt><trkpt lat="42.1960791" lon="13.7725254"><ele>842.0</ele><time>2026-05-02T10:21:41.933Z</time></trkpt><trkpt lat="42.1961131" lon="13.772304"><ele>843.0</ele><time>2026-05-02T10:21:42.931Z</time></trkpt><trkpt lat="42.1961337" lon="13.7720872"><ele>843.0</ele><time>2026-05-02T10:21:43.933Z</time></trkpt><trkpt lat="42.1961499" lon="13.7718976"><ele>843.0</ele><time>2026-05-02T10:21:44.933Z</time></trkpt><trkpt lat="42.1961405" lon="13.7717189"><ele>843.0</ele><time>2026-05-02T10:21:45.932Z</time></trkpt><trkpt lat="42.1961022" lon="13.7715783"><ele>843.0</ele><time>2026-05-02T10:21:46.933Z</time></trkpt><trkpt lat="42.1960293" lon="13.7714663"><ele>843.0</ele><time>2026-05-02T10:21:47.932Z</time></trkpt><trkpt lat="42.1959287" lon="13.7713982"><ele>843.0</ele><time>2026-05-02T10:21:48.932Z</time></trkpt><trkpt lat="42.1958186" lon="13.7713461"><ele>843.0</ele><time>2026-05-02T10:21:49.933Z</time></trkpt><trkpt lat="42.1956669" lon="13.7713399"><ele>843.0</ele><time>2026-05-02T10:21:50.932Z</time></trkpt><trkpt lat="42.1955214" lon="13.7713427"><ele>845.75</ele><time>2026-05-02T10:21:51.934Z</time></trkpt><trkpt lat="42.195373" lon="13.7713694"><ele>848.5</ele><time>2026-05-02T10:21:52.934Z</time></trkpt><trkpt lat="42.1952326" lon="13.7713687"><ele>851.25</ele><time>2026-05-02T10:21:53.934Z</time></trkpt><trkpt lat="42.1951042" lon="13.7713525"><ele>854.0</ele><time>2026-05-02T10:21:54.933Z</time></trkpt><trkpt lat="42.1950091" lon="13.771261"><ele>854.0</ele><time>2026-05-02T10:21:55.932Z</time></trkpt><trkpt lat="42.194947" lon="13.7711439"><ele>854.0</ele><time>2026-05-02T10:21:56.934Z</time></trkpt><trkpt lat="42.1949193" lon="13.7709995"><ele>854.0</ele><time>2026-05-02T10:21:57.932Z</time></trkpt><trkpt lat="42.1948983" lon="13.7708295"><ele>854.0</ele><time>2026-05-02T10:21:58.932Z</time></trkpt><trkpt lat="42.1948719" lon="13.7706479"><ele>855.75</ele><time>2026-05-02T10:21:59.934Z</time></trkpt><trkpt lat="42.1948316" lon="13.7704599"><ele>857.5</ele><time>2026-05-02T10:22:00.933Z</time></trkpt><trkpt lat="42.1947683" lon="13.7702865"><ele>859.25</ele><time>2026-05-02T10:22:01.933Z</time></trkpt><trkpt lat="42.1946929" lon="13.7701104"><ele>861.0</ele><time>2026-05-02T10:22:02.932Z</time></trkpt><trkpt lat="42.1946267" lon="13.7699415"><ele>861.0</ele><time>2026-05-02T10:22:03.933Z</time></trkpt><trkpt lat="42.1945518" lon="13.7697839"><ele>861.0</ele><time>2026-05-02T10:22:04.932Z</time></trkpt><trkpt lat="42.1944614" lon="13.7696727"><ele>861.0</ele><time>2026-05-02T10:22:05.933Z</time></trkpt><trkpt lat="42.1943568" lon="13.7695936"><ele>861.0</ele><time>2026-05-02T10:22:06.932Z</time></trkpt><trkpt lat="42.1942388" lon="13.7695706"><ele>861.0</ele><time>2026-05-02T10:22:07.933Z</time></trkpt><trkpt lat="42.1941065" lon="13.7695873"><ele>861.0</ele><time>2026-05-02T10:22:08.934Z</time></trkpt><trkpt lat="42.1939619" lon="13.7696099"><ele>861.0</ele><time>2026-05-02T10:22:09.934Z</time></trkpt><trkpt lat="42.1938129" lon="13.7696328"><ele>861.0</ele><time>2026-05-02T10:22:10.934Z</time></trkpt><trkpt lat="42.1936619" lon="13.7696342"><ele>864.3333333333333</ele><time>2026-05-02T10:22:11.932Z</time></trkpt><trkpt lat="42.1934989" lon="13.7696202"><ele>867.6666666666666</ele><time>2026-05-02T10:22:12.932Z</time></trkpt><trkpt lat="42.1933324" lon="13.7696032"><ele>871.0</ele><time>2026-05-02T10:22:13.932Z</time></trkpt><trkpt lat="42.1931539" lon="13.7695971"><ele>872.0</ele><time>2026-05-02T10:22:14.932Z</time></trkpt><trkpt lat="42.1929711" lon="13.7695889"><ele>873.0</ele><time>2026-05-02T10:22:15.932Z</time></trkpt><trkpt lat="42.1927874" lon="13.7695803"><ele>874.0</ele><time>2026-05-02T10:22:16.932Z</time></trkpt><trkpt lat="42.1926106" lon="13.7695546"><ele>874.0</ele><time>2026-05-02T10:22:17.934Z</time></trkpt><trkpt lat="42.1924354" lon="13.769508"><ele>874.0</ele><time>2026-05-02T10:22:18.931Z</time></trkpt><trkpt lat="42.1922629" lon="13.7694504"><ele>874.0</ele><time>2026-05-02T10:22:19.933Z</time></trkpt><trkpt lat="42.1920932" lon="13.7694087"><ele>873.6666666666666</ele><time>2026-05-02T10:22:20.933Z</time></trkpt><trkpt lat="42.1919204" lon="13.7693986"><ele>873.3333333333333</ele><time>2026-05-02T10:22:21.933Z</time></trkpt><trkpt lat="42.1917583" lon="13.7693893"><ele>873.0</ele><time>2026-05-02T10:22:22.933Z</time></trkpt><trkpt lat="42.1916021" lon="13.7693764"><ele>872.75</ele><time>2026-05-02T10:22:23.934Z</time></trkpt><trkpt lat="42.1914675" lon="13.7693553"><ele>872.5</ele><time>2026-05-02T10:22:24.932Z</time></trkpt><trkpt lat="42.1913491" lon="13.7693164"><ele>872.25</ele><time>2026-05-02T10:22:25.932Z</time></trkpt><trkpt lat="42.1912695" lon="13.7692163"><ele>872.0</ele><time>2026-05-02T10:22:26.933Z</time></trkpt><trkpt lat="42.1911977" lon="13.7691103"><ele>872.0</ele><time>2026-05-02T10:22:27.933Z</time></trkpt><trkpt lat="42.1911359" lon="13.7690081"><ele>872.0</ele><time>2026-05-02T10:22:28.933Z</time></trkpt><trkpt lat="42.1910673" lon="13.7689057"><ele>872.0</ele><time>2026-05-02T10:22:29.933Z</time></trkpt><trkpt lat="42.191002" lon="13.7688153"><ele>872.0</ele><time>2026-05-02T10:22:30.933Z</time></trkpt><trkpt lat="42.1909457" lon="13.7687573"><ele>872.0</ele><time>2026-05-02T10:22:31.933Z</time></trkpt><trkpt lat="42.1908772" lon="13.768656"><ele>872.0</ele><time>2026-05-02T10:22:33.931Z</time></trkpt><trkpt lat="42.1909331" lon="13.7685539"><ele>872.0</ele><time>2026-05-02T10:22:36.932Z</time></trkpt><trkpt lat="42.1910504" lon="13.7684969"><ele>872.0</ele><time>2026-05-02T10:22:38.932Z</time></trkpt><trkpt lat="42.1911117" lon="13.768434"><ele>872.0</ele><time>2026-05-02T10:22:39.933Z</time></trkpt><trkpt lat="42.1911641" lon="13.7683576"><ele>872.0</ele><time>2026-05-02T10:22:40.932Z</time></trkpt><trkpt lat="42.1912176" lon="13.768269"><ele>872.2</ele><time>2026-05-02T10:22:41.932Z</time></trkpt><trkpt lat="42.1912728" lon="13.768177"><ele>872.4000000000001</ele><time>2026-05-02T10:22:42.933Z</time></trkpt><trkpt lat="42.1913348" lon="13.7680679"><ele>872.5999999999999</ele><time>2026-05-02T10:22:43.933Z</time></trkpt><trkpt lat="42.1913995" lon="13.7679747"><ele>872.8</ele><time>2026-05-02T10:22:44.934Z</time></trkpt><trkpt lat="42.1914709" lon="13.7678946"><ele>873.0</ele><time>2026-05-02T10:22:45.932Z</time></trkpt><trkpt lat="42.1915354" lon="13.767816"><ele>873.0</ele><time>2026-05-02T10:22:46.934Z</time></trkpt><trkpt lat="42.1915984" lon="13.7677514"><ele>873.0</ele><time>2026-05-02T10:22:47.934Z</time></trkpt><trkpt lat="42.1916668" lon="13.7676824"><ele>873.0</ele><time>2026-05-02T10:22:48.932Z</time></trkpt><trkpt lat="42.1917299" lon="13.7676054"><ele>873.0</ele><time>2026-05-02T10:22:49.933Z</time></trkpt><trkpt lat="42.1917799" lon="13.7675157"><ele>873.0</ele><time>2026-05-02T10:22:50.933Z</time></trkpt><trkpt lat="42.1918336" lon="13.7674269"><ele>873.0</ele><time>2026-05-02T10:22:51.933Z</time></trkpt><trkpt lat="42.1918783" lon="13.7673214"><ele>875.5</ele><time>2026-05-02T10:22:52.933Z</time></trkpt><trkpt lat="42.1919227" lon="13.767231"><ele>878.0</ele><time>2026-05-02T10:22:53.933Z</time></trkpt><trkpt lat="42.1919595" lon="13.7671301"><ele>880.5</ele><time>2026-05-02T10:22:54.932Z</time></trkpt><trkpt lat="42.1919857" lon="13.7670314"><ele>883.0</ele><time>2026-05-02T10:22:55.934Z</time></trkpt><trkpt lat="42.1920145" lon="13.7669256"><ele>885.5</ele><time>2026-05-02T10:22:56.933Z</time></trkpt><trkpt lat="42.1920487" lon="13.7668307"><ele>888.0</ele><time>2026-05-02T10:22:57.933Z</time></trkpt><trkpt lat="42.1920844" lon="13.7667266"><ele>889.0</ele><time>2026-05-02T10:22:58.932Z</time></trkpt><trkpt lat="42.1921206" lon="13.7666449"><ele>890.0</ele><time>2026-05-02T10:22:59.933Z</time></trkpt><trkpt lat="42.1921657" lon="13.7665556"><ele>891.0</ele><time>2026-05-02T10:23:00.932Z</time></trkpt><trkpt lat="42.1922231" lon="13.7664858"><ele>892.0</ele><time>2026-05-02T10:23:01.932Z</time></trkpt><trkpt lat="42.1922758" lon="13.7663909"><ele>893.0</ele><time>2026-05-02T10:23:02.933Z</time></trkpt><trkpt lat="42.1923298" lon="13.7662994"><ele>894.0</ele><time>2026-05-02T10:23:03.933Z</time></trkpt><trkpt lat="42.1923886" lon="13.7662066"><ele>894.0</ele><time>2026-05-02T10:23:04.933Z</time></trkpt><trkpt lat="42.1924466" lon="13.7661041"><ele>894.0000000000001</ele><time>2026-05-02T10:23:05.932Z</time></trkpt><trkpt lat="42.1925114" lon="13.765993"><ele>894.0000000000001</ele><time>2026-05-02T10:23:06.933Z</time></trkpt><trkpt lat="42.1925819" lon="13.76588"><ele>894.0</ele><time>2026-05-02T10:23:07.933Z</time></trkpt><trkpt lat="42.1926541" lon="13.7657764"><ele>894.0</ele><time>2026-05-02T10:23:08.934Z</time></trkpt><trkpt lat="42.1927281" lon="13.7656744"><ele>896.4000000000001</ele><time>2026-05-02T10:23:09.933Z</time></trkpt><trkpt lat="42.1928081" lon="13.7655659"><ele>898.8000000000001</ele><time>2026-05-02T10:23:10.932Z</time></trkpt><trkpt lat="42.1928818" lon="13.7654602"><ele>901.1999999999999</ele><time>2026-05-02T10:23:11.932Z</time></trkpt><trkpt lat="42.1929624" lon="13.7653548"><ele>903.5999999999999</ele><time>2026-05-02T10:23:12.933Z</time></trkpt><trkpt lat="42.1930331" lon="13.7652598"><ele>906.0</ele><time>2026-05-02T10:23:13.933Z</time></trkpt><trkpt lat="42.1931067" lon="13.7651542"><ele>906.5999999999999</ele><time>2026-05-02T10:23:14.932Z</time></trkpt><trkpt lat="42.193175" lon="13.765041"><ele>907.1999999999999</ele><time>2026-05-02T10:23:15.932Z</time></trkpt><trkpt lat="42.193242" lon="13.7649318"><ele>907.8000000000001</ele><time>2026-05-02T10:23:16.933Z</time></trkpt><trkpt lat="42.1933072" lon="13.7648193"><ele>908.4000000000001</ele><time>2026-05-02T10:23:17.933Z</time></trkpt><trkpt lat="42.1933818" lon="13.7647162"><ele>909.0</ele><time>2026-05-02T10:23:18.932Z</time></trkpt><trkpt lat="42.1934603" lon="13.7646215"><ele>909.0</ele><time>2026-05-02T10:23:19.932Z</time></trkpt><trkpt lat="42.1935453" lon="13.7645301"><ele>909.0000000000001</ele><time>2026-05-02T10:23:20.932Z</time></trkpt><trkpt lat="42.1936258" lon="13.7644626"><ele>909.0000000000001</ele><time>2026-05-02T10:23:21.932Z</time></trkpt><trkpt lat="42.1937083" lon="13.7644173"><ele>909.0</ele><time>2026-05-02T10:23:22.934Z</time></trkpt><trkpt lat="42.193781" lon="13.7643805"><ele>909.0</ele><time>2026-05-02T10:23:23.932Z</time></trkpt><trkpt lat="42.1938564" lon="13.764342"><ele>909.8000000000001</ele><time>2026-05-02T10:23:24.933Z</time></trkpt><trkpt lat="42.1939274" lon="13.764285"><ele>910.6000000000001</ele><time>2026-05-02T10:23:25.932Z</time></trkpt><trkpt lat="42.1939986" lon="13.7642102"><ele>911.4</ele><time>2026-05-02T10:23:26.933Z</time></trkpt><trkpt lat="42.1940558" lon="13.7641241"><ele>912.2</ele><time>2026-05-02T10:23:27.932Z</time></trkpt><trkpt lat="42.1941056" lon="13.7640064"><ele>913.0</ele><time>2026-05-02T10:23:28.932Z</time></trkpt><trkpt lat="42.1941613" lon="13.7638838"><ele>913.0</ele><time>2026-05-02T10:23:29.932Z</time></trkpt><trkpt lat="42.1942217" lon="13.7637549"><ele>913.0</ele><time>2026-05-02T10:23:30.933Z</time></trkpt><trkpt lat="42.1942775" lon="13.7636288"><ele>913.0</ele><time>2026-05-02T10:23:31.933Z</time></trkpt><trkpt lat="42.1943345" lon="13.7635199"><ele>913.0</ele><time>2026-05-02T10:23:32.933Z</time></trkpt><trkpt lat="42.1944045" lon="13.7634238"><ele>913.0</ele><time>2026-05-02T10:23:33.933Z</time></trkpt><trkpt lat="42.1944795" lon="13.763316"><ele>915.4</ele><time>2026-05-02T10:23:34.932Z</time></trkpt><trkpt lat="42.1945516" lon="13.7632041"><ele>917.8</ele><time>2026-05-02T10:23:35.934Z</time></trkpt><trkpt lat="42.1946247" lon="13.7630927"><ele>920.2</ele><time>2026-05-02T10:23:36.933Z</time></trkpt><trkpt lat="42.1946979" lon="13.7629848"><ele>922.6</ele><time>2026-05-02T10:23:37.933Z</time></trkpt><trkpt lat="42.1947674" lon="13.762899"><ele>925.0</ele><time>2026-05-02T10:23:38.931Z</time></trkpt><trkpt lat="42.1948363" lon="13.7628357"><ele>924.4</ele><time>2026-05-02T10:23:39.932Z</time></trkpt><trkpt lat="42.1949239" lon="13.7627756"><ele>923.8</ele><time>2026-05-02T10:23:40.933Z</time></trkpt><trkpt lat="42.1950187" lon="13.7627186"><ele>923.2</ele><time>2026-05-02T10:23:41.931Z</time></trkpt><trkpt lat="42.1951167" lon="13.7626727"><ele>922.6</ele><time>2026-05-02T10:23:42.933Z</time></trkpt><trkpt lat="42.1952169" lon="13.7626363"><ele>922.0</ele><time>2026-05-02T10:23:43.932Z</time></trkpt><trkpt lat="42.1953122" lon="13.7625902"><ele>922.0</ele><time>2026-05-02T10:23:44.934Z</time></trkpt><trkpt lat="42.1954029" lon="13.7625182"><ele>922.0</ele><time>2026-05-02T10:23:45.932Z</time></trkpt><trkpt lat="42.1954794" lon="13.7624261"><ele>922.0</ele><time>2026-05-02T10:23:46.933Z</time></trkpt><trkpt lat="42.1955562" lon="13.7623178"><ele>922.0</ele><time>2026-05-02T10:23:47.931Z</time></trkpt><trkpt lat="42.1956222" lon="13.7622082"><ele>922.0</ele><time>2026-05-02T10:23:48.933Z</time></trkpt><trkpt lat="42.1956838" lon="13.7621077"><ele>922.0</ele><time>2026-05-02T10:23:49.933Z</time></trkpt><trkpt lat="42.1957361" lon="13.762001"><ele>922.0</ele><time>2026-05-02T10:23:50.932Z</time></trkpt><trkpt lat="42.1957899" lon="13.7618888"><ele>922.0</ele><time>2026-05-02T10:23:51.933Z</time></trkpt><trkpt lat="42.1958549" lon="13.7617777"><ele>922.0</ele><time>2026-05-02T10:23:52.933Z</time></trkpt><trkpt lat="42.1959088" lon="13.7616539"><ele>922.0</ele><time>2026-05-02T10:23:53.934Z</time></trkpt><trkpt lat="42.1959625" lon="13.7615415"><ele>922.0</ele><time>2026-05-02T10:23:54.933Z</time></trkpt><trkpt lat="42.1960223" lon="13.7614404"><ele>922.0</ele><time>2026-05-02T10:23:55.932Z</time></trkpt><trkpt lat="42.1960789" lon="13.7613413"><ele>922.0</ele><time>2026-05-02T10:23:56.933Z</time></trkpt><trkpt lat="42.1961394" lon="13.7612509"><ele>922.0</ele><time>2026-05-02T10:23:57.933Z</time></trkpt><trkpt lat="42.1962056" lon="13.7611476"><ele>922.0</ele><time>2026-05-02T10:23:58.933Z</time></trkpt><trkpt lat="42.196266" lon="13.7610451"><ele>922.0</ele><time>2026-05-02T10:23:59.934Z</time></trkpt><trkpt lat="42.1963206" lon="13.7609409"><ele>922.0</ele><time>2026-05-02T10:24:00.933Z</time></trkpt><trkpt lat="42.1963855" lon="13.7608292"><ele>922.0</ele><time>2026-05-02T10:24:01.934Z</time></trkpt><trkpt lat="42.1964422" lon="13.7607115"><ele>922.0</ele><time>2026-05-02T10:24:02.932Z</time></trkpt><trkpt lat="42.1964984" lon="13.7605962"><ele>922.0</ele><time>2026-05-02T10:24:03.933Z</time></trkpt><trkpt lat="42.1965504" lon="13.7604852"><ele>922.0</ele><time>2026-05-02T10:24:04.934Z</time></trkpt><trkpt lat="42.1966015" lon="13.7603841"><ele>922.0</ele><time>2026-05-02T10:24:05.933Z</time></trkpt><trkpt lat="42.1966542" lon="13.7602824"><ele>922.0</ele><time>2026-05-02T10:24:06.931Z</time></trkpt><trkpt lat="42.1967105" lon="13.7601714"><ele>922.0</ele><time>2026-05-02T10:24:07.933Z</time></trkpt><trkpt lat="42.1967619" lon="13.7600589"><ele>922.0</ele><time>2026-05-02T10:24:08.932Z</time></trkpt><trkpt lat="42.1968046" lon="13.7599523"><ele>923.4999999999999</ele><time>2026-05-02T10:24:09.934Z</time></trkpt><trkpt lat="42.1968506" lon="13.7598545"><ele>925.0</ele><time>2026-05-02T10:24:10.934Z</time></trkpt><trkpt lat="42.1968923" lon="13.7597561"><ele>926.5</ele><time>2026-05-02T10:24:11.933Z</time></trkpt><trkpt lat="42.1969209" lon="13.759654"><ele>928.0</ele><time>2026-05-02T10:24:12.933Z</time></trkpt><trkpt lat="42.1969413" lon="13.7595415"><ele>929.4999999999999</ele><time>2026-05-02T10:24:13.933Z</time></trkpt><trkpt lat="42.1969444" lon="13.7594232"><ele>931.0</ele><time>2026-05-02T10:24:14.931Z</time></trkpt><trkpt lat="42.1969403" lon="13.7593015"><ele>932.0</ele><time>2026-05-02T10:24:15.933Z</time></trkpt><trkpt lat="42.1969358" lon="13.7591827"><ele>932.9999999999999</ele><time>2026-05-02T10:24:16.933Z</time></trkpt><trkpt lat="42.1969259" lon="13.7590635"><ele>933.9999999999999</ele><time>2026-05-02T10:24:17.933Z</time></trkpt><trkpt lat="42.1969084" lon="13.7589407"><ele>935.0</ele><time>2026-05-02T10:24:18.933Z</time></trkpt><trkpt lat="42.196887" lon="13.7588139"><ele>936.0</ele><time>2026-05-02T10:24:19.933Z</time></trkpt><trkpt lat="42.196868" lon="13.7586988"><ele>936.0</ele><time>2026-05-02T10:24:20.934Z</time></trkpt><trkpt lat="42.1968536" lon="13.7585879"><ele>936.0</ele><time>2026-05-02T10:24:21.932Z</time></trkpt><trkpt lat="42.1968511" lon="13.7584967"><ele>936.0</ele><time>2026-05-02T10:24:22.933Z</time></trkpt><trkpt lat="42.1968741" lon="13.7583289"><ele>936.0</ele><time>2026-05-02T10:24:24.933Z</time></trkpt><trkpt lat="42.1969018" lon="13.7582424"><ele>936.0</ele><time>2026-05-02T10:24:25.932Z</time></trkpt><trkpt lat="42.1969338" lon="13.7581528"><ele>936.0</ele><time>2026-05-02T10:24:26.932Z</time></trkpt><trkpt lat="42.1969678" lon="13.7580667"><ele>936.3333333333334</ele><time>2026-05-02T10:24:27.931Z</time></trkpt><trkpt lat="42.1970003" lon="13.7579847"><ele>936.6666666666667</ele><time>2026-05-02T10:24:28.932Z</time></trkpt><trkpt lat="42.1970677" lon="13.7578521"><ele>937.0</ele><time>2026-05-02T10:24:30.932Z</time></trkpt><trkpt lat="42.1971059" lon="13.7577776"><ele>937.3333333333334</ele><time>2026-05-02T10:24:31.933Z</time></trkpt><trkpt lat="42.197143" lon="13.7577025"><ele>937.6666666666667</ele><time>2026-05-02T10:24:32.933Z</time></trkpt><trkpt lat="42.1972022" lon="13.7575614"><ele>938.0</ele><time>2026-05-02T10:24:34.933Z</time></trkpt><trkpt lat="42.1972464" lon="13.7574427"><ele>939.5999999999999</ele><time>2026-05-02T10:24:36.932Z</time></trkpt><trkpt lat="42.1972596" lon="13.7573142"><ele>941.1999999999999</ele><time>2026-05-02T10:24:38.933Z</time></trkpt><trkpt lat="42.1972643" lon="13.7571924"><ele>942.8</ele><time>2026-05-02T10:24:40.933Z</time></trkpt><trkpt lat="42.1972504" lon="13.7570625"><ele>944.4</ele><time>2026-05-02T10:24:56.932Z</time></trkpt><trkpt lat="42.1972041" lon="13.7569266"><ele>946.0</ele><time>2026-05-02T10:24:58.931Z</time></trkpt><trkpt lat="42.1971783" lon="13.7568388"><ele>946.9999999999999</ele><time>2026-05-02T10:24:59.932Z</time></trkpt><trkpt lat="42.1971606" lon="13.7566824"><ele>948.0</ele><time>2026-05-02T10:25:01.932Z</time></trkpt><trkpt lat="42.1971643" lon="13.7565844"><ele>949.0</ele><time>2026-05-02T10:25:02.933Z</time></trkpt><trkpt lat="42.197168" lon="13.7564758"><ele>950.0</ele><time>2026-05-02T10:25:03.932Z</time></trkpt><trkpt lat="42.1971697" lon="13.7563738"><ele>950.9999999999999</ele><time>2026-05-02T10:25:04.932Z</time></trkpt><trkpt lat="42.1971681" lon="13.7562708"><ele>952.0</ele><time>2026-05-02T10:25:05.933Z</time></trkpt><trkpt lat="42.1971651" lon="13.756165"><ele>951.9999999999999</ele><time>2026-05-02T10:25:06.934Z</time></trkpt><trkpt lat="42.1971601" lon="13.7560757"><ele>952.0</ele><time>2026-05-02T10:25:07.933Z</time></trkpt><trkpt lat="42.19716" lon="13.75598"><ele>952.0</ele><time>2026-05-02T10:25:08.932Z</time></trkpt><trkpt lat="42.1971443" lon="13.7557968"><ele>952.0</ele><time>2026-05-02T10:25:10.933Z</time></trkpt><trkpt lat="42.1971347" lon="13.7557053"><ele>951.9999999999999</ele><time>2026-05-02T10:25:11.933Z</time></trkpt><trkpt lat="42.1971242" lon="13.7556108"><ele>952.0</ele><time>2026-05-02T10:25:12.933Z</time></trkpt><trkpt lat="42.1971163" lon="13.7555159"><ele>953.4999999999999</ele><time>2026-05-02T10:25:13.933Z</time></trkpt><trkpt lat="42.1971077" lon="13.7554315"><ele>955.0</ele><time>2026-05-02T10:25:14.931Z</time></trkpt><trkpt lat="42.1970962" lon="13.7553366"><ele>956.5</ele><time>2026-05-02T10:25:15.933Z</time></trkpt><trkpt lat="42.1970821" lon="13.7552429"><ele>958.0</ele><time>2026-05-02T10:25:16.932Z</time></trkpt><trkpt lat="42.1970598" lon="13.7551537"><ele>959.4999999999999</ele><time>2026-05-02T10:25:17.933Z</time></trkpt><trkpt lat="42.1970314" lon="13.7550617"><ele>961.0</ele><time>2026-05-02T10:25:18.933Z</time></trkpt><trkpt lat="42.1969819" lon="13.7548954"><ele>962.6666666666666</ele><time>2026-05-02T10:25:20.932Z</time></trkpt><trkpt lat="42.1969576" lon="13.7548139"><ele>964.3333333333333</ele><time>2026-05-02T10:25:21.931Z</time></trkpt><trkpt lat="42.196934" lon="13.7547287"><ele>966.0</ele><time>2026-05-02T10:25:22.934Z</time></trkpt><trkpt lat="42.1969201" lon="13.7546433"><ele>967.6666666666667</ele><time>2026-05-02T10:25:23.933Z</time></trkpt><trkpt lat="42.1969101" lon="13.7545504"><ele>969.3333333333334</ele><time>2026-05-02T10:25:24.933Z</time></trkpt><trkpt lat="42.1968981" lon="13.754376"><ele>971.0</ele><time>2026-05-02T10:25:26.933Z</time></trkpt><trkpt lat="42.1968811" lon="13.7542938"><ele>972.8333333333334</ele><time>2026-05-02T10:25:27.932Z</time></trkpt><trkpt lat="42.1968588" lon="13.7542045"><ele>974.6666666666667</ele><time>2026-05-02T10:25:28.933Z</time></trkpt><trkpt lat="42.1968248" lon="13.7541258"><ele>976.5</ele><time>2026-05-02T10:25:29.933Z</time></trkpt><trkpt lat="42.1967798" lon="13.7540488"><ele>978.3333333333333</ele><time>2026-05-02T10:25:30.932Z</time></trkpt><trkpt lat="42.1967399" lon="13.7539829"><ele>980.1666666666666</ele><time>2026-05-02T10:25:31.932Z</time></trkpt><trkpt lat="42.1966726" lon="13.7538841"><ele>982.0</ele><time>2026-05-02T10:25:33.932Z</time></trkpt><trkpt lat="42.1965984" lon="13.7538137"><ele>981.9999999999999</ele><time>2026-05-02T10:26:11.933Z</time></trkpt><trkpt lat="42.1965359" lon="13.7537113"><ele>982.0</ele><time>2026-05-02T10:26:13.932Z</time></trkpt><trkpt lat="42.1965144" lon="13.7536052"><ele>982.0</ele><time>2026-05-02T10:26:15.932Z</time></trkpt><trkpt lat="42.1965177" lon="13.7535136"><ele>982.0</ele><time>2026-05-02T10:26:29.934Z</time></trkpt><trkpt lat="42.196551" lon="13.7533955"><ele>981.9999999999999</ele><time>2026-05-02T10:26:31.932Z</time></trkpt><trkpt lat="42.1965776" lon="13.7533046"><ele>982.0</ele><time>2026-05-02T10:26:32.932Z</time></trkpt><trkpt lat="42.1966059" lon="13.7532222"><ele>983.5714285714286</ele><time>2026-05-02T10:26:33.932Z</time></trkpt><trkpt lat="42.1966426" lon="13.7531466"><ele>985.1428571428571</ele><time>2026-05-02T10:26:34.933Z</time></trkpt><trkpt lat="42.1967093" lon="13.7530865"><ele>986.7142857142857</ele><time>2026-05-02T10:26:35.932Z</time></trkpt><trkpt lat="42.1967697" lon="13.7530323"><ele>988.2857142857142</ele><time>2026-05-02T10:26:36.932Z</time></trkpt><trkpt lat="42.1968371" lon="13.7530077"><ele>989.8571428571429</ele><time>2026-05-02T10:26:37.931Z</time></trkpt><trkpt lat="42.1969018" lon="13.7529769"><ele>991.4285714285713</ele><time>2026-05-02T10:26:38.932Z</time></trkpt><trkpt lat="42.196977" lon="13.7529368"><ele>993.0</ele><time>2026-05-02T10:26:39.932Z</time></trkpt><trkpt lat="42.197041" lon="13.7528853"><ele>993.0</ele><time>2026-05-02T10:26:40.932Z</time></trkpt><trkpt lat="42.1971093" lon="13.752801"><ele>993.0</ele><time>2026-05-02T10:26:41.932Z</time></trkpt><trkpt lat="42.197171" lon="13.7527187"><ele>993.0</ele><time>2026-05-02T10:26:42.932Z</time></trkpt><trkpt lat="42.1972215" lon="13.7526273"><ele>993.0</ele><time>2026-05-02T10:26:43.932Z</time></trkpt><trkpt lat="42.1972709" lon="13.7525286"><ele>993.0</ele><time>2026-05-02T10:26:44.932Z</time></trkpt><trkpt lat="42.1973163" lon="13.7524306"><ele>993.0</ele><time>2026-05-02T10:26:45.932Z</time></trkpt><trkpt lat="42.197359" lon="13.7523299"><ele>994.0</ele><time>2026-05-02T10:26:46.931Z</time></trkpt><trkpt lat="42.1973985" lon="13.7522273"><ele>995.0</ele><time>2026-05-02T10:26:47.933Z</time></trkpt><trkpt lat="42.1974368" lon="13.7521203"><ele>996.0</ele><time>2026-05-02T10:26:48.933Z</time></trkpt><trkpt lat="42.1974723" lon="13.7520174"><ele>997.0</ele><time>2026-05-02T10:26:49.932Z</time></trkpt><trkpt lat="42.197512" lon="13.7519323"><ele>998.0</ele><time>2026-05-02T10:26:50.933Z</time></trkpt><trkpt lat="42.1975595" lon="13.7518612"><ele>999.0</ele><time>2026-05-02T10:26:51.932Z</time></trkpt><trkpt lat="42.1976114" lon="13.7517931"><ele>1001.4000000000001</ele><time>2026-05-02T10:26:52.931Z</time></trkpt><trkpt lat="42.1976659" lon="13.7517184"><ele>1003.8000000000001</ele><time>2026-05-02T10:26:53.931Z</time></trkpt><trkpt lat="42.1977239" lon="13.7516426"><ele>1006.1999999999999</ele><time>2026-05-02T10:26:54.931Z</time></trkpt><trkpt lat="42.1977924" lon="13.7515547"><ele>1008.5999999999999</ele><time>2026-05-02T10:26:55.933Z</time></trkpt><trkpt lat="42.1978676" lon="13.7514649"><ele>1011.0</ele><time>2026-05-02T10:26:56.933Z</time></trkpt><trkpt lat="42.1979497" lon="13.7513843"><ele>1011.0</ele><time>2026-05-02T10:26:57.932Z</time></trkpt><trkpt lat="42.19802" lon="13.7512938"><ele>1011.0</ele><time>2026-05-02T10:26:58.932Z</time></trkpt><trkpt lat="42.1980814" lon="13.7512032"><ele>1011.0</ele><time>2026-05-02T10:26:59.932Z</time></trkpt><trkpt lat="42.1981383" lon="13.7511155"><ele>1011.0</ele><time>2026-05-02T10:27:00.932Z</time></trkpt><trkpt lat="42.1981956" lon="13.7510288"><ele>1011.0</ele><time>2026-05-02T10:27:01.932Z</time></trkpt><trkpt lat="42.1982513" lon="13.7509487"><ele>1011.0</ele><time>2026-05-02T10:27:02.932Z</time></trkpt><trkpt lat="42.1983003" lon="13.7508742"><ele>1012.6666666666666</ele><time>2026-05-02T10:27:03.932Z</time></trkpt><trkpt lat="42.1983617" lon="13.7508003"><ele>1014.3333333333333</ele><time>2026-05-02T10:27:04.932Z</time></trkpt><trkpt lat="42.1984197" lon="13.7507154"><ele>1016.0</ele><time>2026-05-02T10:27:05.934Z</time></trkpt><trkpt lat="42.1984744" lon="13.7506278"><ele>1017.6666666666666</ele><time>2026-05-02T10:27:06.932Z</time></trkpt><trkpt lat="42.1985332" lon="13.7505379"><ele>1019.3333333333333</ele><time>2026-05-02T10:27:07.932Z</time></trkpt><trkpt lat="42.1985891" lon="13.7504555"><ele>1021.0</ele><time>2026-05-02T10:27:08.931Z</time></trkpt><trkpt lat="42.1986465" lon="13.7503744"><ele>1021.0</ele><time>2026-05-02T10:27:09.932Z</time></trkpt><trkpt lat="42.1986995" lon="13.7502956"><ele>1021.0</ele><time>2026-05-02T10:27:10.932Z</time></trkpt><trkpt lat="42.1987401" lon="13.750216"><ele>1021.0</ele><time>2026-05-02T10:27:11.932Z</time></trkpt><trkpt lat="42.1987616" lon="13.7501286"><ele>1021.0</ele><time>2026-05-02T10:27:12.933Z</time></trkpt><trkpt lat="42.1987668" lon="13.7500415"><ele>1021.0</ele><time>2026-05-02T10:27:13.933Z</time></trkpt><trkpt lat="42.1987652" lon="13.7499449"><ele>1021.0</ele><time>2026-05-02T10:27:14.932Z</time></trkpt><trkpt lat="42.1987659" lon="13.7498504"><ele>1021.0</ele><time>2026-05-02T10:27:15.932Z</time></trkpt><trkpt lat="42.1987747" lon="13.7496887"><ele>1022.8333333333333</ele><time>2026-05-02T10:27:17.932Z</time></trkpt><trkpt lat="42.198776" lon="13.7495613"><ele>1024.6666666666665</ele><time>2026-05-02T10:27:19.933Z</time></trkpt><trkpt lat="42.1987729" lon="13.749457"><ele>1026.5</ele><time>2026-05-02T10:27:20.934Z</time></trkpt><trkpt lat="42.1987574" lon="13.7493522"><ele>1028.3333333333333</ele><time>2026-05-02T10:27:21.931Z</time></trkpt><trkpt lat="42.1987513" lon="13.7492213"><ele>1030.1666666666667</ele><time>2026-05-02T10:27:22.934Z</time></trkpt><trkpt lat="42.1987451" lon="13.7490902"><ele>1032.0</ele><time>2026-05-02T10:27:23.932Z</time></trkpt><trkpt lat="42.198726" lon="13.7489683"><ele>1032.8333333333333</ele><time>2026-05-02T10:27:24.933Z</time></trkpt><trkpt lat="42.1987008" lon="13.7488565"><ele>1033.6666666666667</ele><time>2026-05-02T10:27:25.932Z</time></trkpt><trkpt lat="42.1986805" lon="13.7487597"><ele>1034.5</ele><time>2026-05-02T10:27:26.932Z</time></trkpt><trkpt lat="42.1986665" lon="13.7486551"><ele>1035.3333333333335</ele><time>2026-05-02T10:27:27.932Z</time></trkpt><trkpt lat="42.1986635" lon="13.748533"><ele>1036.1666666666667</ele><time>2026-05-02T10:27:28.932Z</time></trkpt><trkpt lat="42.1986749" lon="13.7484143"><ele>1037.0</ele><time>2026-05-02T10:27:29.934Z</time></trkpt><trkpt lat="42.1986907" lon="13.7483004"><ele>1037.3333333333335</ele><time>2026-05-02T10:27:30.932Z</time></trkpt><trkpt lat="42.1986979" lon="13.7481815"><ele>1037.6666666666667</ele><time>2026-05-02T10:27:31.932Z</time></trkpt><trkpt lat="42.1987011" lon="13.7480609"><ele>1038.0</ele><time>2026-05-02T10:27:32.933Z</time></trkpt><trkpt lat="42.1987013" lon="13.7479451"><ele>1038.3333333333333</ele><time>2026-05-02T10:27:33.933Z</time></trkpt><trkpt lat="42.1987019" lon="13.7478306"><ele>1038.6666666666665</ele><time>2026-05-02T10:27:34.933Z</time></trkpt><trkpt lat="42.1987049" lon="13.7477155"><ele>1039.0</ele><time>2026-05-02T10:27:35.931Z</time></trkpt><trkpt lat="42.198702" lon="13.7475961"><ele>1040.1666666666665</ele><time>2026-05-02T10:27:36.931Z</time></trkpt><trkpt lat="42.198706" lon="13.7474764"><ele>1041.3333333333333</ele><time>2026-05-02T10:27:37.933Z</time></trkpt><trkpt lat="42.1987095" lon="13.7473605"><ele>1042.5</ele><time>2026-05-02T10:27:38.931Z</time></trkpt><trkpt lat="42.198712" lon="13.7472533"><ele>1043.6666666666667</ele><time>2026-05-02T10:27:39.932Z</time></trkpt><trkpt lat="42.1987256" lon="13.7471526"><ele>1044.8333333333335</ele><time>2026-05-02T10:27:40.932Z</time></trkpt><trkpt lat="42.19875" lon="13.7470543"><ele>1046.0</ele><time>2026-05-02T10:27:41.933Z</time></trkpt><trkpt lat="42.1987828" lon="13.7469543"><ele>1047.1666666666667</ele><time>2026-05-02T10:27:42.932Z</time></trkpt><trkpt lat="42.1988112" lon="13.7468444"><ele>1048.3333333333335</ele><time>2026-05-02T10:27:43.933Z</time></trkpt><trkpt lat="42.1988284" lon="13.7467287"><ele>1049.5</ele><time>2026-05-02T10:27:44.932Z</time></trkpt><trkpt lat="42.1988358" lon="13.7466122"><ele>1050.6666666666667</ele><time>2026-05-02T10:27:45.931Z</time></trkpt><trkpt lat="42.1988352" lon="13.7464939"><ele>1051.8333333333333</ele><time>2026-05-02T10:27:46.933Z</time></trkpt><trkpt lat="42.1988342" lon="13.7463778"><ele>1053.0</ele><time>2026-05-02T10:27:47.932Z</time></trkpt><trkpt lat="42.1988376" lon="13.7462598"><ele>1053.0</ele><time>2026-05-02T10:27:48.933Z</time></trkpt><trkpt lat="42.1988533" lon="13.746149"><ele>1053.0</ele><time>2026-05-02T10:27:49.932Z</time></trkpt><trkpt lat="42.1988749" lon="13.7460286"><ele>1053.0</ele><time>2026-05-02T10:27:50.931Z</time></trkpt><trkpt lat="42.1989073" lon="13.7459092"><ele>1053.0</ele><time>2026-05-02T10:27:51.932Z</time></trkpt><trkpt lat="42.19894" lon="13.7457858"><ele>1053.0</ele><time>2026-05-02T10:27:52.932Z</time></trkpt><trkpt lat="42.1989676" lon="13.7456672"><ele>1053.6666666666667</ele><time>2026-05-02T10:27:53.932Z</time></trkpt><trkpt lat="42.1989983" lon="13.7455637"><ele>1054.3333333333333</ele><time>2026-05-02T10:27:54.932Z</time></trkpt><trkpt lat="42.1990326" lon="13.7454644"><ele>1055.0</ele><time>2026-05-02T10:27:55.932Z</time></trkpt><trkpt lat="42.1990738" lon="13.7453645"><ele>1055.6666666666665</ele><time>2026-05-02T10:27:56.933Z</time></trkpt><trkpt lat="42.1991308" lon="13.7452749"><ele>1056.3333333333333</ele><time>2026-05-02T10:27:57.934Z</time></trkpt><trkpt lat="42.1992058" lon="13.7451884"><ele>1057.0</ele><time>2026-05-02T10:27:58.933Z</time></trkpt><trkpt lat="42.199269" lon="13.7450832"><ele>1057.4</ele><time>2026-05-02T10:27:59.932Z</time></trkpt><trkpt lat="42.1993217" lon="13.7449666"><ele>1057.8000000000002</ele><time>2026-05-02T10:28:00.932Z</time></trkpt><trkpt lat="42.1993668" lon="13.7448534"><ele>1058.2</ele><time>2026-05-02T10:28:01.932Z</time></trkpt><trkpt lat="42.1994046" lon="13.7447401"><ele>1058.6000000000001</ele><time>2026-05-02T10:28:02.932Z</time></trkpt><trkpt lat="42.1994402" lon="13.7446265"><ele>1059.0</ele><time>2026-05-02T10:28:03.934Z</time></trkpt><trkpt lat="42.199473" lon="13.7445289"><ele>1059.0</ele><time>2026-05-02T10:28:04.932Z</time></trkpt><trkpt lat="42.1995189" lon="13.7444465"><ele>1059.0</ele><time>2026-05-02T10:28:05.933Z</time></trkpt><trkpt lat="42.1995728" lon="13.7443807"><ele>1059.0</ele><time>2026-05-02T10:28:06.932Z</time></trkpt><trkpt lat="42.1996364" lon="13.7443341"><ele>1059.0</ele><time>2026-05-02T10:28:07.932Z</time></trkpt><trkpt lat="42.1997109" lon="13.7442867"><ele>1059.0</ele><time>2026-05-02T10:28:08.933Z</time></trkpt><trkpt lat="42.1997914" lon="13.7442399"><ele>1059.0</ele><time>2026-05-02T10:28:09.933Z</time></trkpt><trkpt lat="42.1998664" lon="13.7441967"><ele>1057.6666666666667</ele><time>2026-05-02T10:28:10.932Z</time></trkpt><trkpt lat="42.1999392" lon="13.7441594"><ele>1056.3333333333333</ele><time>2026-05-02T10:28:11.932Z</time></trkpt><trkpt lat="42.2000124" lon="13.7441218"><ele>1055.0</ele><time>2026-05-02T10:28:12.934Z</time></trkpt><trkpt lat="42.200089" lon="13.7440833"><ele>1053.6666666666665</ele><time>2026-05-02T10:28:13.933Z</time></trkpt><trkpt lat="42.2001608" lon="13.7440316"><ele>1052.3333333333333</ele><time>2026-05-02T10:28:14.931Z</time></trkpt><trkpt lat="42.2002243" lon="13.7439677"><ele>1051.0</ele><time>2026-05-02T10:28:15.932Z</time></trkpt><trkpt lat="42.2002861" lon="13.7439"><ele>1051.0</ele><time>2026-05-02T10:28:16.931Z</time></trkpt><trkpt lat="42.2003433" lon="13.7438168"><ele>1051.0</ele><time>2026-05-02T10:28:17.933Z</time></trkpt><trkpt lat="42.2003983" lon="13.7437195"><ele>1051.0</ele><time>2026-05-02T10:28:18.931Z</time></trkpt><trkpt lat="42.2004484" lon="13.7436194"><ele>1051.0</ele><time>2026-05-02T10:28:19.932Z</time></trkpt><trkpt lat="42.2004957" lon="13.7435228"><ele>1051.0</ele><time>2026-05-02T10:28:20.933Z</time></trkpt><trkpt lat="42.2005426" lon="13.7434289"><ele>1051.0</ele><time>2026-05-02T10:28:21.932Z</time></trkpt><trkpt lat="42.2005831" lon="13.7433308"><ele>1051.8333333333333</ele><time>2026-05-02T10:28:22.932Z</time></trkpt><trkpt lat="42.2006271" lon="13.7432326"><ele>1052.6666666666665</ele><time>2026-05-02T10:28:23.932Z</time></trkpt><trkpt lat="42.2006574" lon="13.7431341"><ele>1053.5</ele><time>2026-05-02T10:28:24.931Z</time></trkpt><trkpt lat="42.2006873" lon="13.7430436"><ele>1054.3333333333333</ele><time>2026-05-02T10:28:25.934Z</time></trkpt><trkpt lat="42.2007244" lon="13.74295"><ele>1055.1666666666667</ele><time>2026-05-02T10:28:26.932Z</time></trkpt><trkpt lat="42.2007637" lon="13.7428614"><ele>1056.0</ele><time>2026-05-02T10:28:27.933Z</time></trkpt><trkpt lat="42.2008121" lon="13.7427825"><ele>1053.0</ele><time>2026-05-02T10:28:28.933Z</time></trkpt><trkpt lat="42.2008633" lon="13.7427008"><ele>1050.0</ele><time>2026-05-02T10:28:29.932Z</time></trkpt><trkpt lat="42.2009096" lon="13.7426182"><ele>1047.0</ele><time>2026-05-02T10:28:30.932Z</time></trkpt><trkpt lat="42.2009461" lon="13.7425458"><ele>1044.0</ele><time>2026-05-02T10:28:31.932Z</time></trkpt><trkpt lat="42.2009902" lon="13.7424704"><ele>1041.0</ele><time>2026-05-02T10:28:32.933Z</time></trkpt><trkpt lat="42.2010534" lon="13.7423855"><ele>1038.0</ele><time>2026-05-02T10:28:33.932Z</time></trkpt><trkpt lat="42.201135" lon="13.7423086"><ele>1038.0</ele><time>2026-05-02T10:28:34.933Z</time></trkpt><trkpt lat="42.2012065" lon="13.7422328"><ele>1038.0</ele><time>2026-05-02T10:28:35.933Z</time></trkpt><trkpt lat="42.2012641" lon="13.7421607"><ele>1038.0</ele><time>2026-05-02T10:28:36.931Z</time></trkpt><trkpt lat="42.2013308" lon="13.7420871"><ele>1038.0</ele><time>2026-05-02T10:28:37.933Z</time></trkpt><trkpt lat="42.2013928" lon="13.7420081"><ele>1038.0</ele><time>2026-05-02T10:28:38.931Z</time></trkpt><trkpt lat="42.2014536" lon="13.7419333"><ele>1038.0</ele><time>2026-05-02T10:28:39.932Z</time></trkpt><trkpt lat="42.2015118" lon="13.7418439"><ele>1035.6666666666667</ele><time>2026-05-02T10:28:40.931Z</time></trkpt><trkpt lat="42.2015683" lon="13.7417572"><ele>1033.3333333333333</ele><time>2026-05-02T10:28:41.933Z</time></trkpt><trkpt lat="42.2016175" lon="13.7416669"><ele>1031.0</ele><time>2026-05-02T10:28:42.932Z</time></trkpt><trkpt lat="42.2016612" lon="13.7415777"><ele>1028.6666666666665</ele><time>2026-05-02T10:28:43.932Z</time></trkpt><trkpt lat="42.2017122" lon="13.7415024"><ele>1026.3333333333333</ele><time>2026-05-02T10:28:44.933Z</time></trkpt><trkpt lat="42.2017681" lon="13.7414357"><ele>1024.0</ele><time>2026-05-02T10:28:45.932Z</time></trkpt><trkpt lat="42.2018255" lon="13.741376"><ele>1023.9999999999999</ele><time>2026-05-02T10:28:46.931Z</time></trkpt><trkpt lat="42.2018915" lon="13.7413295"><ele>1024.0</ele><time>2026-05-02T10:28:47.932Z</time></trkpt><trkpt lat="42.2019608" lon="13.7412927"><ele>1024.0</ele><time>2026-05-02T10:28:48.932Z</time></trkpt><trkpt lat="42.2020349" lon="13.7412613"><ele>1024.0</ele><time>2026-05-02T10:28:49.931Z</time></trkpt><trkpt lat="42.2021155" lon="13.7412466"><ele>1023.9999999999999</ele><time>2026-05-02T10:28:50.932Z</time></trkpt><trkpt lat="42.2021981" lon="13.7412386"><ele>1024.0</ele><time>2026-05-02T10:28:51.933Z</time></trkpt><trkpt lat="42.2022793" lon="13.7412267"><ele>1019.8333333333333</ele><time>2026-05-02T10:28:52.931Z</time></trkpt><trkpt lat="42.2023605" lon="13.7412087"><ele>1015.6666666666666</ele><time>2026-05-02T10:28:53.933Z</time></trkpt><trkpt lat="42.2024465" lon="13.7411991"><ele>1011.5</ele><time>2026-05-02T10:28:54.931Z</time></trkpt><trkpt lat="42.2025345" lon="13.7411787"><ele>1007.3333333333333</ele><time>2026-05-02T10:28:55.933Z</time></trkpt><trkpt lat="42.2026231" lon="13.7411638"><ele>1003.1666666666666</ele><time>2026-05-02T10:28:56.932Z</time></trkpt><trkpt lat="42.2027168" lon="13.7411451"><ele>999.0</ele><time>2026-05-02T10:28:57.933Z</time></trkpt><trkpt lat="42.2028171" lon="13.7411058"><ele>999.0</ele><time>2026-05-02T10:28:58.932Z</time></trkpt><trkpt lat="42.2029201" lon="13.7410752"><ele>999.0000000000001</ele><time>2026-05-02T10:28:59.931Z</time></trkpt><trkpt lat="42.2030203" lon="13.7410455"><ele>999.0000000000001</ele><time>2026-05-02T10:29:00.933Z</time></trkpt><trkpt lat="42.203125" lon="13.7410243"><ele>999.0</ele><time>2026-05-02T10:29:01.932Z</time></trkpt><trkpt lat="42.20323" lon="13.741006"><ele>999.0</ele><time>2026-05-02T10:29:02.932Z</time></trkpt><trkpt lat="42.2033307" lon="13.7409768"><ele>1000.1666666666666</ele><time>2026-05-02T10:29:03.932Z</time></trkpt><trkpt lat="42.2034201" lon="13.7409398"><ele>1001.3333333333333</ele><time>2026-05-02T10:29:04.931Z</time></trkpt><trkpt lat="42.2035014" lon="13.7408997"><ele>1002.5</ele><time>2026-05-02T10:29:05.932Z</time></trkpt><trkpt lat="42.2035767" lon="13.7408576"><ele>1003.6666666666666</ele><time>2026-05-02T10:29:06.931Z</time></trkpt><trkpt lat="42.2036179" lon="13.7407913"><ele>1004.8333333333333</ele><time>2026-05-02T10:29:07.932Z</time></trkpt><trkpt lat="42.2036633" lon="13.7407011"><ele>1006.0</ele><time>2026-05-02T10:29:08.933Z</time></trkpt><trkpt lat="42.2037205" lon="13.7406037"><ele>1006.0</ele><time>2026-05-02T10:29:09.932Z</time></trkpt><trkpt lat="42.2037817" lon="13.740503"><ele>1005.9999999999999</ele><time>2026-05-02T10:29:10.931Z</time></trkpt><trkpt lat="42.2038395" lon="13.7404013"><ele>1005.9999999999999</ele><time>2026-05-02T10:29:11.932Z</time></trkpt><trkpt lat="42.2038977" lon="13.7402952"><ele>1006.0</ele><time>2026-05-02T10:29:12.932Z</time></trkpt><trkpt lat="42.203956" lon="13.7401948"><ele>1006.0</ele><time>2026-05-02T10:29:13.931Z</time></trkpt><trkpt lat="42.2040086" lon="13.7401206"><ele>1004.9999999999999</ele><time>2026-05-02T10:29:14.933Z</time></trkpt><trkpt lat="42.2040658" lon="13.740064"><ele>1004.0</ele><time>2026-05-02T10:29:15.931Z</time></trkpt><trkpt lat="42.2041271" lon="13.7400131"><ele>1003.0</ele><time>2026-05-02T10:29:16.933Z</time></trkpt><trkpt lat="42.2041864" lon="13.7399653"><ele>1002.0</ele><time>2026-05-02T10:29:17.931Z</time></trkpt><trkpt lat="42.2042471" lon="13.7399188"><ele>1000.9999999999999</ele><time>2026-05-02T10:29:18.932Z</time></trkpt><trkpt lat="42.2043387" lon="13.7398156"><ele>1000.0</ele><time>2026-05-02T10:29:20.932Z</time></trkpt><trkpt lat="42.2044268" lon="13.7397451"><ele>1000.0</ele><time>2026-05-02T10:29:22.932Z</time></trkpt><trkpt lat="42.2045166" lon="13.7396956"><ele>1000.0</ele><time>2026-05-02T10:29:24.932Z</time></trkpt><trkpt lat="42.2045755" lon="13.7396651"><ele>1000.0</ele><time>2026-05-02T10:29:25.932Z</time></trkpt><trkpt lat="42.2047154" lon="13.7396156"><ele>1000.0</ele><time>2026-05-02T10:29:27.933Z</time></trkpt><trkpt lat="42.2047907" lon="13.7395927"><ele>1000.0</ele><time>2026-05-02T10:29:28.932Z</time></trkpt><trkpt lat="42.2048613" lon="13.7395805"><ele>998.1666666666666</ele><time>2026-05-02T10:29:29.932Z</time></trkpt><trkpt lat="42.2049285" lon="13.739558"><ele>996.3333333333333</ele><time>2026-05-02T10:29:30.931Z</time></trkpt><trkpt lat="42.2049973" lon="13.7395083"><ele>994.5</ele><time>2026-05-02T10:29:31.932Z</time></trkpt><trkpt lat="42.2050495" lon="13.7394176"><ele>992.6666666666667</ele><time>2026-05-02T10:29:32.931Z</time></trkpt><trkpt lat="42.2050909" lon="13.739325"><ele>990.8333333333334</ele><time>2026-05-02T10:29:33.932Z</time></trkpt><trkpt lat="42.2051288" lon="13.7392387"><ele>989.0</ele><time>2026-05-02T10:29:34.933Z</time></trkpt><trkpt lat="42.2051786" lon="13.7391606"><ele>989.0</ele><time>2026-05-02T10:29:35.933Z</time></trkpt><trkpt lat="42.2052228" lon="13.739099"><ele>989.0000000000001</ele><time>2026-05-02T10:29:36.933Z</time></trkpt><trkpt lat="42.2053267" lon="13.7390155"><ele>989.0000000000001</ele><time>2026-05-02T10:29:38.933Z</time></trkpt><trkpt lat="42.2054542" lon="13.7389797"><ele>989.0</ele><time>2026-05-02T10:29:40.933Z</time></trkpt><trkpt lat="42.2055575" lon="13.7389548"><ele>989.0</ele><time>2026-05-02T10:29:41.932Z</time></trkpt><trkpt lat="42.2056542" lon="13.738935"><ele>987.6</ele><time>2026-05-02T10:29:42.931Z</time></trkpt><trkpt lat="42.2057419" lon="13.7389219"><ele>986.2</ele><time>2026-05-02T10:29:43.933Z</time></trkpt><trkpt lat="42.205829" lon="13.7388839"><ele>984.8000000000001</ele><time>2026-05-02T10:29:44.931Z</time></trkpt><trkpt lat="42.2059195" lon="13.7388333"><ele>983.4000000000001</ele><time>2026-05-02T10:29:45.931Z</time></trkpt><trkpt lat="42.206018" lon="13.7387753"><ele>982.0</ele><time>2026-05-02T10:29:46.931Z</time></trkpt><trkpt lat="42.2061074" lon="13.7387213"><ele>982.0</ele><time>2026-05-02T10:29:47.933Z</time></trkpt><trkpt lat="42.2061909" lon="13.7386923"><ele>982.0</ele><time>2026-05-02T10:29:48.933Z</time></trkpt><trkpt lat="42.2062779" lon="13.7386936"><ele>982.0</ele><time>2026-05-02T10:29:49.933Z</time></trkpt><trkpt lat="42.2063879" lon="13.7387257"><ele>982.0</ele><time>2026-05-02T10:29:50.932Z</time></trkpt><trkpt lat="42.2064999" lon="13.7387688"><ele>982.0</ele><time>2026-05-02T10:29:51.932Z</time></trkpt><trkpt lat="42.2066084" lon="13.7387962"><ele>982.0</ele><time>2026-05-02T10:29:52.931Z</time></trkpt><trkpt lat="42.2067182" lon="13.7388075"><ele>982.0</ele><time>2026-05-02T10:29:53.931Z</time></trkpt><trkpt lat="42.2068295" lon="13.7388128"><ele>982.0</ele><time>2026-05-02T10:29:54.932Z</time></trkpt><trkpt lat="42.206928" lon="13.7388216"><ele>982.0</ele><time>2026-05-02T10:29:55.931Z</time></trkpt><trkpt lat="42.2070225" lon="13.7388235"><ele>982.0</ele><time>2026-05-02T10:29:56.932Z</time></trkpt><trkpt lat="42.2071102" lon="13.7388036"><ele>982.0</ele><time>2026-05-02T10:29:57.931Z</time></trkpt><trkpt lat="42.2071966" lon="13.7387754"><ele>982.0</ele><time>2026-05-02T10:29:58.931Z</time></trkpt><trkpt lat="42.2072827" lon="13.7387386"><ele>982.0</ele><time>2026-05-02T10:29:59.933Z</time></trkpt><trkpt lat="42.2073646" lon="13.7386806"><ele>982.0</ele><time>2026-05-02T10:30:00.932Z</time></trkpt><trkpt lat="42.2074547" lon="13.7386017"><ele>982.0</ele><time>2026-05-02T10:30:01.932Z</time></trkpt><trkpt lat="42.2075467" lon="13.7384857"><ele>984.75</ele><time>2026-05-02T10:30:02.932Z</time></trkpt><trkpt lat="42.2076317" lon="13.7383589"><ele>987.5</ele><time>2026-05-02T10:30:03.931Z</time></trkpt><trkpt lat="42.2077149" lon="13.7382343"><ele>990.25</ele><time>2026-05-02T10:30:04.932Z</time></trkpt><trkpt lat="42.2077881" lon="13.7381274"><ele>993.0</ele><time>2026-05-02T10:30:05.932Z</time></trkpt><trkpt lat="42.2078652" lon="13.7380406"><ele>993.0</ele><time>2026-05-02T10:30:06.932Z</time></trkpt><trkpt lat="42.207952" lon="13.7379546"><ele>993.0</ele><time>2026-05-02T10:30:07.932Z</time></trkpt><trkpt lat="42.2080597" lon="13.7378702"><ele>993.0</ele><time>2026-05-02T10:30:08.931Z</time></trkpt><trkpt lat="42.2081648" lon="13.7377959"><ele>993.0</ele><time>2026-05-02T10:30:09.934Z</time></trkpt><trkpt lat="42.2082607" lon="13.7377275"><ele>993.8</ele><time>2026-05-02T10:30:10.932Z</time></trkpt><trkpt lat="42.2083568" lon="13.7376673"><ele>994.5999999999999</ele><time>2026-05-02T10:30:11.933Z</time></trkpt><trkpt lat="42.2084567" lon="13.7376174"><ele>995.4000000000001</ele><time>2026-05-02T10:30:12.932Z</time></trkpt><trkpt lat="42.2085593" lon="13.7375667"><ele>996.2</ele><time>2026-05-02T10:30:13.932Z</time></trkpt><trkpt lat="42.2086623" lon="13.7375174"><ele>997.0</ele><time>2026-05-02T10:30:14.932Z</time></trkpt><trkpt lat="42.2087631" lon="13.7374664"><ele>997.0</ele><time>2026-05-02T10:30:15.931Z</time></trkpt><trkpt lat="42.2088654" lon="13.7374171"><ele>997.0</ele><time>2026-05-02T10:30:16.931Z</time></trkpt><trkpt lat="42.2089715" lon="13.7373657"><ele>997.0</ele><time>2026-05-02T10:30:17.934Z</time></trkpt><trkpt lat="42.2090812" lon="13.737311"><ele>997.0</ele><time>2026-05-02T10:30:18.931Z</time></trkpt><trkpt lat="42.2091979" lon="13.7372549"><ele>994.2</ele><time>2026-05-02T10:30:19.933Z</time></trkpt><trkpt lat="42.209312" lon="13.7371996"><ele>991.4000000000001</ele><time>2026-05-02T10:30:20.933Z</time></trkpt><trkpt lat="42.2094121" lon="13.7371449"><ele>988.5999999999999</ele><time>2026-05-02T10:30:21.932Z</time></trkpt><trkpt lat="42.2094967" lon="13.7371002"><ele>985.8</ele><time>2026-05-02T10:30:22.933Z</time></trkpt><trkpt lat="42.20956" lon="13.7370648"><ele>983.0</ele><time>2026-05-02T10:30:23.933Z</time></trkpt><trkpt lat="42.2096566" lon="13.7369447"><ele>983.2</ele><time>2026-05-02T10:30:25.932Z</time></trkpt><trkpt lat="42.2097131" lon="13.7368565"><ele>983.4</ele><time>2026-05-02T10:30:26.932Z</time></trkpt><trkpt lat="42.2097896" lon="13.7367699"><ele>983.6000000000001</ele><time>2026-05-02T10:30:27.933Z</time></trkpt><trkpt lat="42.2098706" lon="13.7366923"><ele>983.8000000000001</ele><time>2026-05-02T10:30:28.932Z</time></trkpt><trkpt lat="42.2099526" lon="13.7366165"><ele>984.0</ele><time>2026-05-02T10:30:29.933Z</time></trkpt><trkpt lat="42.2100419" lon="13.7365275"><ele>984.0</ele><time>2026-05-02T10:30:30.932Z</time></trkpt><trkpt lat="42.2101257" lon="13.7364312"><ele>984.0000000000001</ele><time>2026-05-02T10:30:31.932Z</time></trkpt><trkpt lat="42.2102057" lon="13.7363558"><ele>984.0000000000001</ele><time>2026-05-02T10:30:32.932Z</time></trkpt><trkpt lat="42.2102929" lon="13.7362881"><ele>984.0</ele><time>2026-05-02T10:30:33.934Z</time></trkpt><trkpt lat="42.2103744" lon="13.7362342"><ele>984.0</ele><time>2026-05-02T10:30:34.932Z</time></trkpt><trkpt lat="42.2104297" lon="13.7361553"><ele>984.0</ele><time>2026-05-02T10:30:36.932Z</time></trkpt><trkpt lat="42.2103717" lon="13.7360932"><ele>984.0</ele><time>2026-05-02T10:30:39.932Z</time></trkpt><trkpt lat="42.2102879" lon="13.736034"><ele>984.0</ele><time>2026-05-02T10:30:41.932Z</time></trkpt><trkpt lat="42.2101623" lon="13.7359794"><ele>984.0</ele><time>2026-05-02T10:30:43.932Z</time></trkpt><trkpt lat="42.2100952" lon="13.7359459"><ele>984.0</ele><time>2026-05-02T10:30:44.933Z</time></trkpt><trkpt lat="42.2100286" lon="13.7359041"><ele>984.0</ele><time>2026-05-02T10:30:45.932Z</time></trkpt><trkpt lat="42.2099531" lon="13.7358415"><ele>985.4000000000001</ele><time>2026-05-02T10:30:46.933Z</time></trkpt><trkpt lat="42.2098729" lon="13.7357737"><ele>986.8000000000001</ele><time>2026-05-02T10:30:47.932Z</time></trkpt><trkpt lat="42.2097875" lon="13.7356946"><ele>988.1999999999999</ele><time>2026-05-02T10:30:48.933Z</time></trkpt><trkpt lat="42.2096989" lon="13.7355973"><ele>989.5999999999999</ele><time>2026-05-02T10:30:49.933Z</time></trkpt><trkpt lat="42.2096089" lon="13.7354933"><ele>991.0</ele><time>2026-05-02T10:30:50.932Z</time></trkpt><trkpt lat="42.2095329" lon="13.735391"><ele>994.1999999999999</ele><time>2026-05-02T10:30:51.932Z</time></trkpt><trkpt lat="42.2094544" lon="13.7352902"><ele>997.3999999999999</ele><time>2026-05-02T10:30:52.933Z</time></trkpt><trkpt lat="42.2093811" lon="13.7352044"><ele>1000.6</ele><time>2026-05-02T10:30:53.932Z</time></trkpt><trkpt lat="42.2093037" lon="13.7351455"><ele>1003.8</ele><time>2026-05-02T10:30:54.933Z</time></trkpt><trkpt lat="42.2092232" lon="13.7350963"><ele>1007.0</ele><time>2026-05-02T10:30:55.932Z</time></trkpt><trkpt lat="42.2091226" lon="13.7350789"><ele>1007.0</ele><time>2026-05-02T10:30:56.933Z</time></trkpt><trkpt lat="42.2090225" lon="13.7350718"><ele>1007.0</ele><time>2026-05-02T10:30:57.931Z</time></trkpt><trkpt lat="42.2088973" lon="13.7350656"><ele>1007.0</ele><time>2026-05-02T10:30:58.932Z</time></trkpt><trkpt lat="42.2087839" lon="13.7350519"><ele>1007.0</ele><time>2026-05-02T10:30:59.931Z</time></trkpt><trkpt lat="42.2086741" lon="13.7350578"><ele>1007.0</ele><time>2026-05-02T10:31:00.932Z</time></trkpt><trkpt lat="42.2085809" lon="13.735084"><ele>1010.1666666666667</ele><time>2026-05-02T10:31:01.932Z</time></trkpt><trkpt lat="42.2084959" lon="13.7351273"><ele>1013.3333333333334</ele><time>2026-05-02T10:31:02.933Z</time></trkpt><trkpt lat="42.2084135" lon="13.7351672"><ele>1016.5</ele><time>2026-05-02T10:31:03.933Z</time></trkpt><trkpt lat="42.2083508" lon="13.7352108"><ele>1019.6666666666667</ele><time>2026-05-02T10:31:04.932Z</time></trkpt><trkpt lat="42.2082854" lon="13.7352584"><ele>1022.8333333333334</ele><time>2026-05-02T10:31:05.932Z</time></trkpt><trkpt lat="42.2082244" lon="13.7353404"><ele>1026.0</ele><time>2026-05-02T10:31:07.932Z</time></trkpt><trkpt lat="42.2081601" lon="13.7354437"><ele>1028.3333333333333</ele><time>2026-05-02T10:31:09.932Z</time></trkpt><trkpt lat="42.2081219" lon="13.7355174"><ele>1030.6666666666667</ele><time>2026-05-02T10:31:11.932Z</time></trkpt><trkpt lat="42.2080839" lon="13.7356352"><ele>1033.0</ele><time>2026-05-02T10:31:23.932Z</time></trkpt><trkpt lat="42.2080519" lon="13.7357231"><ele>1035.3333333333335</ele><time>2026-05-02T10:31:24.932Z</time></trkpt><trkpt lat="42.2080153" lon="13.7358255"><ele>1037.6666666666667</ele><time>2026-05-02T10:31:25.932Z</time></trkpt><trkpt lat="42.207968" lon="13.7359587"><ele>1040.0</ele><time>2026-05-02T10:31:26.932Z</time></trkpt><trkpt lat="42.2079044" lon="13.7360969"><ele>1040.0</ele><time>2026-05-02T10:31:27.931Z</time></trkpt><trkpt lat="42.2078274" lon="13.7362513"><ele>1040.0</ele><time>2026-05-02T10:31:28.931Z</time></trkpt><trkpt lat="42.2077324" lon="13.736401"><ele>1040.0</ele><time>2026-05-02T10:31:29.932Z</time></trkpt><trkpt lat="42.2076324" lon="13.7365429"><ele>1040.0</ele><time>2026-05-02T10:31:30.931Z</time></trkpt><trkpt lat="42.2075431" lon="13.7366695"><ele>1040.0</ele><time>2026-05-02T10:31:31.931Z</time></trkpt><trkpt lat="42.2074456" lon="13.7367726"><ele>1040.0</ele><time>2026-05-02T10:31:32.932Z</time></trkpt><trkpt lat="42.2073525" lon="13.7368519"><ele>1040.0</ele><time>2026-05-02T10:31:33.932Z</time></trkpt><trkpt lat="42.2072728" lon="13.7369062"><ele>1040.0</ele><time>2026-05-02T10:31:34.932Z</time></trkpt><trkpt lat="42.2072058" lon="13.736941"><ele>1040.0</ele><time>2026-05-02T10:31:35.933Z</time></trkpt><trkpt lat="42.2071143" lon="13.7369409"><ele>1040.2</ele><time>2026-05-02T10:31:37.931Z</time></trkpt><trkpt lat="42.2070236" lon="13.7368186"><ele>1040.4</ele><time>2026-05-02T10:31:39.932Z</time></trkpt><trkpt lat="42.2069841" lon="13.7367175"><ele>1040.6</ele><time>2026-05-02T10:31:40.932Z</time></trkpt><trkpt lat="42.2069545" lon="13.7366044"><ele>1040.8</ele><time>2026-05-02T10:31:41.933Z</time></trkpt><trkpt lat="42.2069288" lon="13.7364843"><ele>1041.0</ele><time>2026-05-02T10:31:42.933Z</time></trkpt><trkpt lat="42.2069002" lon="13.7363738"><ele>1041.0</ele><time>2026-05-02T10:31:43.932Z</time></trkpt><trkpt lat="42.2068742" lon="13.7362633"><ele>1041.0</ele><time>2026-05-02T10:31:44.932Z</time></trkpt><trkpt lat="42.2068527" lon="13.7361764"><ele>1041.0</ele><time>2026-05-02T10:31:45.933Z</time></trkpt><trkpt lat="42.2068145" lon="13.7360214"><ele>1041.0</ele><time>2026-05-02T10:31:47.933Z</time></trkpt><trkpt lat="42.2067914" lon="13.7358667"><ele>1041.0</ele><time>2026-05-02T10:31:49.932Z</time></trkpt><trkpt lat="42.2067961" lon="13.7357078"><ele>1043.3999999999999</ele><time>2026-05-02T10:31:51.933Z</time></trkpt><trkpt lat="42.2067838" lon="13.7355389"><ele>1045.8</ele><time>2026-05-02T10:31:53.931Z</time></trkpt><trkpt lat="42.2067528" lon="13.7354466"><ele>1048.1999999999998</ele><time>2026-05-02T10:31:54.932Z</time></trkpt><trkpt lat="42.206702" lon="13.7353572"><ele>1050.6</ele><time>2026-05-02T10:31:55.933Z</time></trkpt><trkpt lat="42.2066485" lon="13.7352561"><ele>1053.0</ele><time>2026-05-02T10:31:56.932Z</time></trkpt><trkpt lat="42.2066112" lon="13.73516"><ele>1055.4</ele><time>2026-05-02T10:31:57.931Z</time></trkpt><trkpt lat="42.2065838" lon="13.7350572"><ele>1057.8</ele><time>2026-05-02T10:31:58.933Z</time></trkpt><trkpt lat="42.206555" lon="13.7349252"><ele>1060.2</ele><time>2026-05-02T10:31:59.933Z</time></trkpt><trkpt lat="42.2065325" lon="13.7347699"><ele>1062.6</ele><time>2026-05-02T10:32:00.933Z</time></trkpt><trkpt lat="42.206534" lon="13.7345963"><ele>1065.0</ele><time>2026-05-02T10:32:01.931Z</time></trkpt><trkpt lat="42.2065442" lon="13.7344266"><ele>1066.75</ele><time>2026-05-02T10:32:02.932Z</time></trkpt><trkpt lat="42.206567" lon="13.7342651"><ele>1068.5</ele><time>2026-05-02T10:32:03.933Z</time></trkpt><trkpt lat="42.2065996" lon="13.7340953"><ele>1070.25</ele><time>2026-05-02T10:32:04.934Z</time></trkpt><trkpt lat="42.2066336" lon="13.7339243"><ele>1072.0</ele><time>2026-05-02T10:32:05.933Z</time></trkpt><trkpt lat="42.2066529" lon="13.733764"><ele>1072.0</ele><time>2026-05-02T10:32:06.932Z</time></trkpt><trkpt lat="42.2066494" lon="13.7336069"><ele>1072.0</ele><time>2026-05-02T10:32:07.932Z</time></trkpt><trkpt lat="42.2066252" lon="13.7334318"><ele>1072.0</ele><time>2026-05-02T10:32:08.932Z</time></trkpt><trkpt lat="42.2065801" lon="13.7332566"><ele>1072.0</ele><time>2026-05-02T10:32:09.932Z</time></trkpt><trkpt lat="42.2065242" lon="13.7330966"><ele>1075.2</ele><time>2026-05-02T10:32:10.932Z</time></trkpt><trkpt lat="42.2064599" lon="13.7329469"><ele>1078.4</ele><time>2026-05-02T10:32:11.932Z</time></trkpt><trkpt lat="42.206399" lon="13.7328129"><ele>1081.6</ele><time>2026-05-02T10:32:12.932Z</time></trkpt><trkpt lat="42.206327" lon="13.7327082"><ele>1084.8</ele><time>2026-05-02T10:32:13.932Z</time></trkpt><trkpt lat="42.2062584" lon="13.7326255"><ele>1088.0</ele><time>2026-05-02T10:32:14.933Z</time></trkpt><trkpt lat="42.2062011" lon="13.7325385"><ele>1089.4</ele><time>2026-05-02T10:32:15.932Z</time></trkpt><trkpt lat="42.206161" lon="13.7324463"><ele>1090.8</ele><time>2026-05-02T10:32:16.932Z</time></trkpt><trkpt lat="42.2061331" lon="13.7323306"><ele>1092.2</ele><time>2026-05-02T10:32:17.932Z</time></trkpt><trkpt lat="42.2061155" lon="13.7322018"><ele>1093.6</ele><time>2026-05-02T10:32:18.932Z</time></trkpt><trkpt lat="42.206107" lon="13.7320859"><ele>1095.0</ele><time>2026-05-02T10:32:19.933Z</time></trkpt><trkpt lat="42.2061036" lon="13.7319513"><ele>1097.6</ele><time>2026-05-02T10:32:20.932Z</time></trkpt><trkpt lat="42.2060956" lon="13.731819"><ele>1100.2</ele><time>2026-05-02T10:32:21.932Z</time></trkpt><trkpt lat="42.2060886" lon="13.7316885"><ele>1102.8</ele><time>2026-05-02T10:32:22.932Z</time></trkpt><trkpt lat="42.2060818" lon="13.7315641"><ele>1105.4</ele><time>2026-05-02T10:32:23.932Z</time></trkpt><trkpt lat="42.2060491" lon="13.7314456"><ele>1108.0</ele><time>2026-05-02T10:32:24.931Z</time></trkpt><trkpt lat="42.2060125" lon="13.7313324"><ele>1108.0</ele><time>2026-05-02T10:32:25.932Z</time></trkpt><trkpt lat="42.2059692" lon="13.7312122"><ele>1108.0</ele><time>2026-05-02T10:32:26.933Z</time></trkpt><trkpt lat="42.2059116" lon="13.7311022"><ele>1108.0</ele><time>2026-05-02T10:32:27.932Z</time></trkpt><trkpt lat="42.205871" lon="13.7309864"><ele>1108.0</ele><time>2026-05-02T10:32:28.932Z</time></trkpt><trkpt lat="42.2058284" lon="13.7308708"><ele>1108.0</ele><time>2026-05-02T10:32:29.932Z</time></trkpt><trkpt lat="42.205799" lon="13.730753"><ele>1109.8333333333333</ele><time>2026-05-02T10:32:30.931Z</time></trkpt><trkpt lat="42.2057779" lon="13.73064"><ele>1111.6666666666665</ele><time>2026-05-02T10:32:31.933Z</time></trkpt><trkpt lat="42.2057369" lon="13.7305241"><ele>1113.5</ele><time>2026-05-02T10:32:32.932Z</time></trkpt><trkpt lat="42.2056992" lon="13.7304194"><ele>1115.3333333333333</ele><time>2026-05-02T10:32:33.932Z</time></trkpt><trkpt lat="42.2056523" lon="13.7303365"><ele>1117.1666666666667</ele><time>2026-05-02T10:32:34.933Z</time></trkpt><trkpt lat="42.2056128" lon="13.7302278"><ele>1119.0</ele><time>2026-05-02T10:32:35.931Z</time></trkpt><trkpt lat="42.2055794" lon="13.7301161"><ele>1121.1666666666667</ele><time>2026-05-02T10:32:36.933Z</time></trkpt><trkpt lat="42.20554" lon="13.7300219"><ele>1123.3333333333333</ele><time>2026-05-02T10:32:37.932Z</time></trkpt><trkpt lat="42.2055116" lon="13.7299295"><ele>1125.5</ele><time>2026-05-02T10:32:38.933Z</time></trkpt><trkpt lat="42.205432" lon="13.7298454"><ele>1127.6666666666665</ele><time>2026-05-02T10:32:39.934Z</time></trkpt><trkpt lat="42.2053653" lon="13.7297511"><ele>1129.8333333333333</ele><time>2026-05-02T10:32:40.933Z</time></trkpt><trkpt lat="42.2053047" lon="13.7296522"><ele>1132.0</ele><time>2026-05-02T10:32:41.932Z</time></trkpt><trkpt lat="42.2052375" lon="13.7295447"><ele>1132.0</ele><time>2026-05-02T10:32:42.933Z</time></trkpt><trkpt lat="42.2051781" lon="13.7294374"><ele>1132.0</ele><time>2026-05-02T10:32:43.931Z</time></trkpt><trkpt lat="42.2051225" lon="13.7293413"><ele>1132.0</ele><time>2026-05-02T10:32:44.932Z</time></trkpt><trkpt lat="42.2050614" lon="13.7292366"><ele>1132.0</ele><time>2026-05-02T10:32:45.932Z</time></trkpt><trkpt lat="42.2049918" lon="13.7291528"><ele>1132.0</ele><time>2026-05-02T10:32:46.932Z</time></trkpt><trkpt lat="42.2049326" lon="13.7290686"><ele>1131.5</ele><time>2026-05-02T10:32:47.932Z</time></trkpt><trkpt lat="42.2048668" lon="13.7290096"><ele>1131.0</ele><time>2026-05-02T10:32:48.933Z</time></trkpt><trkpt lat="42.2047926" lon="13.7289746"><ele>1130.5</ele><time>2026-05-02T10:32:49.931Z</time></trkpt><trkpt lat="42.2047052" lon="13.7289475"><ele>1130.0</ele><time>2026-05-02T10:32:50.933Z</time></trkpt><trkpt lat="42.2046059" lon="13.7289117"><ele>1129.5</ele><time>2026-05-02T10:32:51.931Z</time></trkpt><trkpt lat="42.2045128" lon="13.7288663"><ele>1129.0</ele><time>2026-05-02T10:32:52.932Z</time></trkpt><trkpt lat="42.2044214" lon="13.7288244"><ele>1128.6000000000001</ele><time>2026-05-02T10:32:53.932Z</time></trkpt><trkpt lat="42.2043238" lon="13.728771"><ele>1128.2</ele><time>2026-05-02T10:32:54.933Z</time></trkpt><trkpt lat="42.2042352" lon="13.7286959"><ele>1127.8000000000002</ele><time>2026-05-02T10:32:55.933Z</time></trkpt><trkpt lat="42.2041458" lon="13.7286107"><ele>1127.4</ele><time>2026-05-02T10:32:56.933Z</time></trkpt><trkpt lat="42.2040565" lon="13.7285233"><ele>1127.0</ele><time>2026-05-02T10:32:57.932Z</time></trkpt><trkpt lat="42.2039742" lon="13.7284381"><ele>1127.8</ele><time>2026-05-02T10:32:58.932Z</time></trkpt><trkpt lat="42.2038932" lon="13.7283832"><ele>1128.6</ele><time>2026-05-02T10:32:59.933Z</time></trkpt><trkpt lat="42.2038135" lon="13.7283537"><ele>1129.3999999999999</ele><time>2026-05-02T10:33:00.931Z</time></trkpt><trkpt lat="42.2037131" lon="13.7283966"><ele>1130.2</ele><time>2026-05-02T10:33:01.933Z</time></trkpt><trkpt lat="42.2036103" lon="13.7284314"><ele>1131.0</ele><time>2026-05-02T10:33:02.931Z</time></trkpt><trkpt lat="42.2034983" lon="13.7284718"><ele>1131.0</ele><time>2026-05-02T10:33:03.933Z</time></trkpt><trkpt lat="42.2033835" lon="13.7285104"><ele>1131.0</ele><time>2026-05-02T10:33:04.932Z</time></trkpt><trkpt lat="42.2032837" lon="13.728538"><ele>1131.0</ele><time>2026-05-02T10:33:05.932Z</time></trkpt><trkpt lat="42.2031644" lon="13.7285476"><ele>1131.0</ele><time>2026-05-02T10:33:06.932Z</time></trkpt><trkpt lat="42.2030341" lon="13.7285455"><ele>1132.25</ele><time>2026-05-02T10:33:07.931Z</time></trkpt><trkpt lat="42.2029057" lon="13.7285448"><ele>1133.5</ele><time>2026-05-02T10:33:08.932Z</time></trkpt><trkpt lat="42.2027492" lon="13.7285711"><ele>1134.75</ele><time>2026-05-02T10:33:09.932Z</time></trkpt><trkpt lat="42.2026002" lon="13.7285935"><ele>1136.0</ele><time>2026-05-02T10:33:10.932Z</time></trkpt><trkpt lat="42.2024541" lon="13.7286012"><ele>1136.25</ele><time>2026-05-02T10:33:11.932Z</time></trkpt><trkpt lat="42.2023094" lon="13.728583"><ele>1136.5</ele><time>2026-05-02T10:33:12.932Z</time></trkpt><trkpt lat="42.2021747" lon="13.728544"><ele>1136.75</ele><time>2026-05-02T10:33:13.932Z</time></trkpt><trkpt lat="42.2020383" lon="13.7285038"><ele>1137.0</ele><time>2026-05-02T10:33:14.932Z</time></trkpt><trkpt lat="42.2019136" lon="13.728486"><ele>1137.0</ele><time>2026-05-02T10:33:15.932Z</time></trkpt><trkpt lat="42.2017797" lon="13.7284865"><ele>1137.0</ele><time>2026-05-02T10:33:16.932Z</time></trkpt><trkpt lat="42.2016427" lon="13.7285139"><ele>1137.0</ele><time>2026-05-02T10:33:17.932Z</time></trkpt><trkpt lat="42.2015131" lon="13.7285339"><ele>1137.0</ele><time>2026-05-02T10:33:18.933Z</time></trkpt><trkpt lat="42.2013904" lon="13.7285523"><ele>1137.8</ele><time>2026-05-02T10:33:19.932Z</time></trkpt><trkpt lat="42.2012673" lon="13.7285762"><ele>1138.6</ele><time>2026-05-02T10:33:20.931Z</time></trkpt><trkpt lat="42.2011569" lon="13.728594"><ele>1139.3999999999999</ele><time>2026-05-02T10:33:21.931Z</time></trkpt><trkpt lat="42.201059" lon="13.728592"><ele>1140.2</ele><time>2026-05-02T10:33:22.932Z</time></trkpt><trkpt lat="42.2009635" lon="13.7285798"><ele>1141.0</ele><time>2026-05-02T10:33:23.932Z</time></trkpt><trkpt lat="42.2008768" lon="13.7285784"><ele>1141.0</ele><time>2026-05-02T10:33:24.932Z</time></trkpt><trkpt lat="42.2008" lon="13.7285797"><ele>1141.0</ele><time>2026-05-02T10:33:25.931Z</time></trkpt><trkpt lat="42.2007335" lon="13.7285665"><ele>1141.0</ele><time>2026-05-02T10:33:26.933Z</time></trkpt><trkpt lat="42.2006359" lon="13.728496"><ele>1141.0</ele><time>2026-05-02T10:33:28.933Z</time></trkpt><trkpt lat="42.200542" lon="13.7284295"><ele>1141.0</ele><time>2026-05-02T10:33:30.932Z</time></trkpt><trkpt lat="42.2004847" lon="13.7283854"><ele>1141.0</ele><time>2026-05-02T10:33:31.932Z</time></trkpt><trkpt lat="42.2004274" lon="13.7283247"><ele>1137.8333333333333</ele><time>2026-05-02T10:33:32.931Z</time></trkpt><trkpt lat="42.2003796" lon="13.7282486"><ele>1134.6666666666665</ele><time>2026-05-02T10:33:33.932Z</time></trkpt><trkpt lat="42.2003397" lon="13.7281618"><ele>1131.5</ele><time>2026-05-02T10:33:34.931Z</time></trkpt><trkpt lat="42.2003053" lon="13.7280661"><ele>1128.3333333333333</ele><time>2026-05-02T10:33:35.932Z</time></trkpt><trkpt lat="42.2002668" lon="13.7279753"><ele>1125.1666666666667</ele><time>2026-05-02T10:33:36.933Z</time></trkpt><trkpt lat="42.2002229" lon="13.72789"><ele>1122.0</ele><time>2026-05-02T10:33:37.932Z</time></trkpt><trkpt lat="42.2001701" lon="13.7278304"><ele>1122.0</ele><time>2026-05-02T10:33:38.932Z</time></trkpt><trkpt lat="42.2001096" lon="13.7277706"><ele>1122.0</ele><time>2026-05-02T10:33:39.932Z</time></trkpt><trkpt lat="42.2000538" lon="13.7277087"><ele>1122.0</ele><time>2026-05-02T10:33:40.932Z</time></trkpt><trkpt lat="42.1999843" lon="13.7276421"><ele>1122.0</ele><time>2026-05-02T10:33:41.932Z</time></trkpt><trkpt lat="42.1999093" lon="13.7275789"><ele>1122.0</ele><time>2026-05-02T10:33:42.933Z</time></trkpt><trkpt lat="42.199831" lon="13.7275243"><ele>1122.0</ele><time>2026-05-02T10:33:43.932Z</time></trkpt><trkpt lat="42.199761" lon="13.7274737"><ele>1119.6666666666667</ele><time>2026-05-02T10:33:44.933Z</time></trkpt><trkpt lat="42.1996938" lon="13.7274264"><ele>1117.3333333333333</ele><time>2026-05-02T10:33:45.931Z</time></trkpt><trkpt lat="42.1996334" lon="13.727373"><ele>1115.0</ele><time>2026-05-02T10:33:46.932Z</time></trkpt><trkpt lat="42.1995562" lon="13.7272339"><ele>1112.6666666666665</ele><time>2026-05-02T10:33:48.932Z</time></trkpt><trkpt lat="42.1995051" lon="13.7271533"><ele>1110.3333333333333</ele><time>2026-05-02T10:33:49.931Z</time></trkpt><trkpt lat="42.1994448" lon="13.7271006"><ele>1108.0</ele><time>2026-05-02T10:33:50.932Z</time></trkpt><trkpt lat="42.1993699" lon="13.727058"><ele>1108.0</ele><time>2026-05-02T10:33:51.931Z</time></trkpt><trkpt lat="42.1992829" lon="13.7270213"><ele>1108.0</ele><time>2026-05-02T10:33:52.932Z</time></trkpt><trkpt lat="42.1991915" lon="13.7269958"><ele>1108.0</ele><time>2026-05-02T10:33:53.932Z</time></trkpt><trkpt lat="42.1991144" lon="13.726996"><ele>1108.0</ele><time>2026-05-02T10:33:54.932Z</time></trkpt><trkpt lat="42.1990442" lon="13.7270062"><ele>1108.0</ele><time>2026-05-02T10:33:55.932Z</time></trkpt><trkpt lat="42.1989171" lon="13.7270397"><ele>1107.6666666666665</ele><time>2026-05-02T10:33:57.933Z</time></trkpt><trkpt lat="42.1988441" lon="13.727038"><ele>1107.3333333333333</ele><time>2026-05-02T10:33:58.931Z</time></trkpt><trkpt lat="42.1987676" lon="13.7270219"><ele>1107.0</ele><time>2026-05-02T10:33:59.932Z</time></trkpt><trkpt lat="42.1986988" lon="13.7269699"><ele>1106.6666666666667</ele><time>2026-05-02T10:34:00.932Z</time></trkpt><trkpt lat="42.1986264" lon="13.726895"><ele>1106.3333333333335</ele><time>2026-05-02T10:34:01.932Z</time></trkpt><trkpt lat="42.198551" lon="13.7268356"><ele>1106.0</ele><time>2026-05-02T10:34:02.932Z</time></trkpt><trkpt lat="42.1984729" lon="13.7267792"><ele>1104.1666666666667</ele><time>2026-05-02T10:34:03.932Z</time></trkpt><trkpt lat="42.1983907" lon="13.7267228"><ele>1102.3333333333335</ele><time>2026-05-02T10:34:04.932Z</time></trkpt><trkpt lat="42.1983095" lon="13.726678"><ele>1100.5</ele><time>2026-05-02T10:34:05.933Z</time></trkpt><trkpt lat="42.1982402" lon="13.7266369"><ele>1098.6666666666667</ele><time>2026-05-02T10:34:06.932Z</time></trkpt><trkpt lat="42.1981698" lon="13.7265948"><ele>1096.8333333333333</ele><time>2026-05-02T10:34:07.931Z</time></trkpt><trkpt lat="42.1980999" lon="13.7265618"><ele>1095.0</ele><time>2026-05-02T10:34:08.933Z</time></trkpt><trkpt lat="42.1980403" lon="13.7265281"><ele>1094.0</ele><time>2026-05-02T10:34:09.931Z</time></trkpt><trkpt lat="42.1979572" lon="13.726417"><ele>1093.0</ele><time>2026-05-02T10:34:11.931Z</time></trkpt><trkpt lat="42.1979048" lon="13.7263683"><ele>1092.0</ele><time>2026-05-02T10:34:12.932Z</time></trkpt><trkpt lat="42.1978386" lon="13.7263623"><ele>1091.0</ele><time>2026-05-02T10:34:13.933Z</time></trkpt><trkpt lat="42.1977756" lon="13.7263924"><ele>1090.0</ele><time>2026-05-02T10:34:14.931Z</time></trkpt><trkpt lat="42.1977225" lon="13.726445"><ele>1089.0</ele><time>2026-05-02T10:34:15.931Z</time></trkpt><trkpt lat="42.1976773" lon="13.7265333"><ele>1089.0</ele><time>2026-05-02T10:34:16.933Z</time></trkpt><trkpt lat="42.1976428" lon="13.7266452"><ele>1089.0</ele><time>2026-05-02T10:34:17.933Z</time></trkpt><trkpt lat="42.1976173" lon="13.7267488"><ele>1089.0</ele><time>2026-05-02T10:34:18.931Z</time></trkpt><trkpt lat="42.1975867" lon="13.7268251"><ele>1089.0</ele><time>2026-05-02T10:34:19.932Z</time></trkpt><trkpt lat="42.1975388" lon="13.7268813"><ele>1089.0</ele><time>2026-05-02T10:34:20.932Z</time></trkpt><trkpt lat="42.1974415" lon="13.7269517"><ele>1089.0</ele><time>2026-05-02T10:34:22.932Z</time></trkpt><trkpt lat="42.1973554" lon="13.7269947"><ele>1087.8</ele><time>2026-05-02T10:34:24.932Z</time></trkpt><trkpt lat="42.1972539" lon="13.7270327"><ele>1086.6000000000001</ele><time>2026-05-02T10:34:26.933Z</time></trkpt><trkpt lat="42.1971547" lon="13.7270599"><ele>1085.4</ele><time>2026-05-02T10:34:28.932Z</time></trkpt><trkpt lat="42.1970628" lon="13.7270909"><ele>1084.2</ele><time>2026-05-02T10:34:30.931Z</time></trkpt><trkpt lat="42.1969644" lon="13.7271262"><ele>1083.0</ele><time>2026-05-02T10:34:32.932Z</time></trkpt><trkpt lat="42.1968595" lon="13.7271686"><ele>1083.0</ele><time>2026-05-02T10:34:34.932Z</time></trkpt><trkpt lat="42.1967612" lon="13.7272058"><ele>1083.0</ele><time>2026-05-02T10:34:36.931Z</time></trkpt><trkpt lat="42.1966681" lon="13.7272377"><ele>1083.0</ele><time>2026-05-02T10:34:38.932Z</time></trkpt><trkpt lat="42.1965918" lon="13.72727"><ele>1083.0</ele><time>2026-05-02T10:34:40.932Z</time></trkpt><trkpt lat="42.1965213" lon="13.727302"><ele>1083.0</ele><time>2026-05-02T10:34:42.932Z</time></trkpt><trkpt lat="42.1964491" lon="13.7272942"><ele>1083.0</ele><time>2026-05-02T10:34:44.932Z</time></trkpt><trkpt lat="42.196416" lon="13.7271678"><ele>1082.8333333333333</ele><time>2026-05-02T10:34:47.933Z</time></trkpt><trkpt lat="42.196408" lon="13.7270749"><ele>1082.6666666666667</ele><time>2026-05-02T10:34:48.933Z</time></trkpt><trkpt lat="42.1964105" lon="13.7269676"><ele>1082.5</ele><time>2026-05-02T10:34:49.932Z</time></trkpt><trkpt lat="42.1964275" lon="13.7268518"><ele>1082.3333333333335</ele><time>2026-05-02T10:34:50.933Z</time></trkpt><trkpt lat="42.1964483" lon="13.7267323"><ele>1082.1666666666667</ele><time>2026-05-02T10:34:51.932Z</time></trkpt><trkpt lat="42.1964765" lon="13.7266133"><ele>1082.0</ele><time>2026-05-02T10:34:52.933Z</time></trkpt><trkpt lat="42.1965056" lon="13.7265063"><ele>1083.0</ele><time>2026-05-02T10:34:53.932Z</time></trkpt><trkpt lat="42.1965237" lon="13.7263869"><ele>1084.0</ele><time>2026-05-02T10:34:54.933Z</time></trkpt><trkpt lat="42.1965341" lon="13.7262678"><ele>1085.0</ele><time>2026-05-02T10:34:55.933Z</time></trkpt><trkpt lat="42.1965491" lon="13.7261586"><ele>1086.0</ele><time>2026-05-02T10:34:56.932Z</time></trkpt><trkpt lat="42.196571" lon="13.7260591"><ele>1087.0</ele><time>2026-05-02T10:34:57.932Z</time></trkpt><trkpt lat="42.1966051" lon="13.7259613"><ele>1088.0</ele><time>2026-05-02T10:34:58.932Z</time></trkpt><trkpt lat="42.1966568" lon="13.7258789"><ele>1088.8333333333335</ele><time>2026-05-02T10:34:59.931Z</time></trkpt><trkpt lat="42.1967191" lon="13.7258109"><ele>1089.6666666666667</ele><time>2026-05-02T10:35:00.933Z</time></trkpt><trkpt lat="42.1967909" lon="13.725764"><ele>1090.5</ele><time>2026-05-02T10:35:01.933Z</time></trkpt><trkpt lat="42.1968679" lon="13.7257303"><ele>1091.3333333333333</ele><time>2026-05-02T10:35:02.932Z</time></trkpt><trkpt lat="42.1969338" lon="13.7256801"><ele>1092.1666666666665</ele><time>2026-05-02T10:35:03.932Z</time></trkpt><trkpt lat="42.1969826" lon="13.7256073"><ele>1093.0</ele><time>2026-05-02T10:35:04.932Z</time></trkpt><trkpt lat="42.1970154" lon="13.7255106"><ele>1093.0</ele><time>2026-05-02T10:35:05.933Z</time></trkpt><trkpt lat="42.1970396" lon="13.7253984"><ele>1093.0</ele><time>2026-05-02T10:35:06.931Z</time></trkpt><trkpt lat="42.1970646" lon="13.7252873"><ele>1093.0</ele><time>2026-05-02T10:35:07.932Z</time></trkpt><trkpt lat="42.1970901" lon="13.7251793"><ele>1093.0</ele><time>2026-05-02T10:35:08.933Z</time></trkpt><trkpt lat="42.1971189" lon="13.7250759"><ele>1093.0</ele><time>2026-05-02T10:35:09.931Z</time></trkpt><trkpt lat="42.197152" lon="13.7249683"><ele>1093.0</ele><time>2026-05-02T10:35:10.931Z</time></trkpt><trkpt lat="42.1971828" lon="13.7248559"><ele>1093.2</ele><time>2026-05-02T10:35:11.933Z</time></trkpt><trkpt lat="42.197206" lon="13.7247419"><ele>1093.4</ele><time>2026-05-02T10:35:12.931Z</time></trkpt><trkpt lat="42.197222" lon="13.7246225"><ele>1093.6000000000001</ele><time>2026-05-02T10:35:13.932Z</time></trkpt><trkpt lat="42.1972257" lon="13.7244991"><ele>1093.8</ele><time>2026-05-02T10:35:14.932Z</time></trkpt><trkpt lat="42.1972229" lon="13.7243744"><ele>1094.0</ele><time>2026-05-02T10:35:15.932Z</time></trkpt><trkpt lat="42.1972141" lon="13.7242456"><ele>1095.0</ele><time>2026-05-02T10:35:16.932Z</time></trkpt><trkpt lat="42.1972" lon="13.7241344"><ele>1096.0</ele><time>2026-05-02T10:35:17.932Z</time></trkpt><trkpt lat="42.197183" lon="13.7240304"><ele>1097.0</ele><time>2026-05-02T10:35:18.932Z</time></trkpt><trkpt lat="42.1971732" lon="13.7239175"><ele>1098.0</ele><time>2026-05-02T10:35:19.933Z</time></trkpt><trkpt lat="42.1971715" lon="13.7237973"><ele>1099.0</ele><time>2026-05-02T10:35:20.932Z</time></trkpt><trkpt lat="42.1971811" lon="13.7236896"><ele>1100.0</ele><time>2026-05-02T10:35:21.932Z</time></trkpt><trkpt lat="42.197188" lon="13.7235929"><ele>1100.0</ele><time>2026-05-02T10:35:22.932Z</time></trkpt><trkpt lat="42.1971913" lon="13.7235059"><ele>1100.0</ele><time>2026-05-02T10:35:23.932Z</time></trkpt><trkpt lat="42.1971988" lon="13.7234169"><ele>1100.0</ele><time>2026-05-02T10:35:24.932Z</time></trkpt><trkpt lat="42.1972075" lon="13.7233304"><ele>1100.0</ele><time>2026-05-02T10:35:25.932Z</time></trkpt><trkpt lat="42.1972221" lon="13.7232452"><ele>1100.0</ele><time>2026-05-02T10:35:26.932Z</time></trkpt><trkpt lat="42.1972434" lon="13.7231612"><ele>1100.0</ele><time>2026-05-02T10:35:27.932Z</time></trkpt><trkpt lat="42.1972672" lon="13.7230772"><ele>1100.0</ele><time>2026-05-02T10:35:28.931Z</time></trkpt><trkpt lat="42.1973404" lon="13.722937"><ele>1099.5714285714287</ele><time>2026-05-02T10:35:30.931Z</time></trkpt><trkpt lat="42.1973795" lon="13.7228592"><ele>1099.142857142857</ele><time>2026-05-02T10:35:31.932Z</time></trkpt><trkpt lat="42.1974224" lon="13.7227833"><ele>1098.7142857142858</ele><time>2026-05-02T10:35:32.931Z</time></trkpt><trkpt lat="42.1974639" lon="13.7227094"><ele>1098.2857142857142</ele><time>2026-05-02T10:35:33.932Z</time></trkpt><trkpt lat="42.1975016" lon="13.7226356"><ele>1097.857142857143</ele><time>2026-05-02T10:35:34.933Z</time></trkpt><trkpt lat="42.1975376" lon="13.7225605"><ele>1097.4285714285716</ele><time>2026-05-02T10:35:35.932Z</time></trkpt><trkpt lat="42.197575" lon="13.7224841"><ele>1097.0</ele><time>2026-05-02T10:35:36.932Z</time></trkpt><trkpt lat="42.197611" lon="13.7224093"><ele>1096.3333333333335</ele><time>2026-05-02T10:35:37.932Z</time></trkpt><trkpt lat="42.1976763" lon="13.722254"><ele>1095.6666666666667</ele><time>2026-05-02T10:35:39.931Z</time></trkpt><trkpt lat="42.1977195" lon="13.722168"><ele>1095.0</ele><time>2026-05-02T10:35:40.931Z</time></trkpt><trkpt lat="42.1977635" lon="13.7220831"><ele>1094.3333333333333</ele><time>2026-05-02T10:35:41.932Z</time></trkpt><trkpt lat="42.1978053" lon="13.7219989"><ele>1093.6666666666665</ele><time>2026-05-02T10:35:42.932Z</time></trkpt><trkpt lat="42.1978482" lon="13.7219336"><ele>1093.0</ele><time>2026-05-02T10:35:43.932Z</time></trkpt><trkpt lat="42.1978901" lon="13.7218687"><ele>1092.8</ele><time>2026-05-02T10:35:44.932Z</time></trkpt><trkpt lat="42.1979951" lon="13.7217651"><ele>1092.6</ele><time>2026-05-02T10:35:46.931Z</time></trkpt><trkpt lat="42.1980523" lon="13.7217083"><ele>1092.4</ele><time>2026-05-02T10:35:47.933Z</time></trkpt><trkpt lat="42.1981073" lon="13.7216579"><ele>1092.2</ele><time>2026-05-02T10:35:48.931Z</time></trkpt><trkpt lat="42.1982101" lon="13.721549"><ele>1092.0</ele><time>2026-05-02T10:35:50.932Z</time></trkpt><trkpt lat="42.1982639" lon="13.7214898"><ele>1091.4285714285713</ele><time>2026-05-02T10:35:51.931Z</time></trkpt><trkpt lat="42.1983088" lon="13.7214247"><ele>1090.857142857143</ele><time>2026-05-02T10:35:52.932Z</time></trkpt><trkpt lat="42.1983545" lon="13.721365"><ele>1090.2857142857142</ele><time>2026-05-02T10:35:53.932Z</time></trkpt><trkpt lat="42.1984019" lon="13.7213034"><ele>1089.7142857142858</ele><time>2026-05-02T10:35:54.932Z</time></trkpt><trkpt lat="42.19845" lon="13.7212456"><ele>1089.142857142857</ele><time>2026-05-02T10:35:55.932Z</time></trkpt><trkpt lat="42.198504" lon="13.7211876"><ele>1088.5714285714284</ele><time>2026-05-02T10:35:56.932Z</time></trkpt><trkpt lat="42.1985632" lon="13.7211218"><ele>1088.0</ele><time>2026-05-02T10:35:57.931Z</time></trkpt><trkpt lat="42.1986333" lon="13.7210529"><ele>1086.5</ele><time>2026-05-02T10:35:58.933Z</time></trkpt><trkpt lat="42.1987049" lon="13.7209895"><ele>1085.0</ele><time>2026-05-02T10:35:59.932Z</time></trkpt><trkpt lat="42.1987818" lon="13.7209315"><ele>1083.5</ele><time>2026-05-02T10:36:00.933Z</time></trkpt><trkpt lat="42.198868" lon="13.7208778"><ele>1082.0</ele><time>2026-05-02T10:36:01.933Z</time></trkpt><trkpt lat="42.1989402" lon="13.7208119"><ele>1080.5</ele><time>2026-05-02T10:36:02.931Z</time></trkpt><trkpt lat="42.1990117" lon="13.7207502"><ele>1079.0</ele><time>2026-05-02T10:36:03.933Z</time></trkpt><trkpt lat="42.1990782" lon="13.7206721"><ele>1077.1666666666667</ele><time>2026-05-02T10:36:04.931Z</time></trkpt><trkpt lat="42.1991344" lon="13.7205948"><ele>1075.3333333333335</ele><time>2026-05-02T10:36:05.932Z</time></trkpt><trkpt lat="42.1991955" lon="13.7205146"><ele>1073.5</ele><time>2026-05-02T10:36:06.932Z</time></trkpt><trkpt lat="42.1992536" lon="13.7204283"><ele>1071.6666666666667</ele><time>2026-05-02T10:36:07.932Z</time></trkpt><trkpt lat="42.1993024" lon="13.7203604"><ele>1069.8333333333333</ele><time>2026-05-02T10:36:08.931Z</time></trkpt><trkpt lat="42.1993419" lon="13.7202727"><ele>1068.0</ele><time>2026-05-02T10:36:09.933Z</time></trkpt><trkpt lat="42.1993771" lon="13.7201781"><ele>1067.3333333333333</ele><time>2026-05-02T10:36:10.932Z</time></trkpt><trkpt lat="42.1993956" lon="13.7200695"><ele>1066.6666666666667</ele><time>2026-05-02T10:36:11.932Z</time></trkpt><trkpt lat="42.1994194" lon="13.7199608"><ele>1066.0</ele><time>2026-05-02T10:36:12.932Z</time></trkpt><trkpt lat="42.1994328" lon="13.7198478"><ele>1065.3333333333335</ele><time>2026-05-02T10:36:13.932Z</time></trkpt><trkpt lat="42.1994639" lon="13.7197368"><ele>1064.6666666666667</ele><time>2026-05-02T10:36:14.932Z</time></trkpt><trkpt lat="42.1995127" lon="13.7196312"><ele>1064.0</ele><time>2026-05-02T10:36:15.932Z</time></trkpt><trkpt lat="42.1995638" lon="13.719532"><ele>1064.0</ele><time>2026-05-02T10:36:16.932Z</time></trkpt><trkpt lat="42.1996043" lon="13.719414"><ele>1064.0</ele><time>2026-05-02T10:36:17.932Z</time></trkpt><trkpt lat="42.1996471" lon="13.7193054"><ele>1064.0</ele><time>2026-05-02T10:36:18.932Z</time></trkpt><trkpt lat="42.1996845" lon="13.7191746"><ele>1064.0</ele><time>2026-05-02T10:36:19.932Z</time></trkpt><trkpt lat="42.1997193" lon="13.7190586"><ele>1064.0</ele><time>2026-05-02T10:36:20.931Z</time></trkpt><trkpt lat="42.1997641" lon="13.7189571"><ele>1065.0</ele><time>2026-05-02T10:36:21.932Z</time></trkpt><trkpt lat="42.199821" lon="13.7188495"><ele>1066.0</ele><time>2026-05-02T10:36:22.933Z</time></trkpt><trkpt lat="42.199883" lon="13.7187521"><ele>1067.0</ele><time>2026-05-02T10:36:23.931Z</time></trkpt><trkpt lat="42.1999398" lon="13.7186611"><ele>1068.0</ele><time>2026-05-02T10:36:24.932Z</time></trkpt><trkpt lat="42.1999973" lon="13.7185745"><ele>1069.0</ele><time>2026-05-02T10:36:25.933Z</time></trkpt><trkpt lat="42.2000506" lon="13.7184799"><ele>1067.3333333333333</ele><time>2026-05-02T10:36:26.932Z</time></trkpt><trkpt lat="42.2001012" lon="13.7184008"><ele>1065.6666666666665</ele><time>2026-05-02T10:36:27.932Z</time></trkpt><trkpt lat="42.2001319" lon="13.7183093"><ele>1064.0</ele><time>2026-05-02T10:36:28.932Z</time></trkpt><trkpt lat="42.2001709" lon="13.7182355"><ele>1062.3333333333333</ele><time>2026-05-02T10:36:29.933Z</time></trkpt><trkpt lat="42.2002523" lon="13.7181244"><ele>1060.6666666666667</ele><time>2026-05-02T10:36:31.931Z</time></trkpt><trkpt lat="42.2002766" lon="13.7179762"><ele>1059.0</ele><time>2026-05-02T10:36:33.932Z</time></trkpt><trkpt lat="42.2003067" lon="13.7178349"><ele>1058.8</ele><time>2026-05-02T10:36:35.932Z</time></trkpt><trkpt lat="42.2003147" lon="13.7176706"><ele>1058.6000000000001</ele><time>2026-05-02T10:36:37.931Z</time></trkpt><trkpt lat="42.2002717" lon="13.7174911"><ele>1058.4</ele><time>2026-05-02T10:36:39.931Z</time></trkpt><trkpt lat="42.2002381" lon="13.7174055"><ele>1058.2</ele><time>2026-05-02T10:36:40.933Z</time></trkpt><trkpt lat="42.200191" lon="13.7173119"><ele>1058.0</ele><time>2026-05-02T10:36:41.932Z</time></trkpt><trkpt lat="42.2001504" lon="13.7172082"><ele>1058.0</ele><time>2026-05-02T10:36:42.933Z</time></trkpt><trkpt lat="42.2001086" lon="13.717101"><ele>1058.0</ele><time>2026-05-02T10:36:43.931Z</time></trkpt><trkpt lat="42.2000847" lon="13.7169759"><ele>1058.0</ele><time>2026-05-02T10:36:44.932Z</time></trkpt><trkpt lat="42.2000601" lon="13.7168519"><ele>1058.0</ele><time>2026-05-02T10:36:45.933Z</time></trkpt><trkpt lat="42.200036" lon="13.7167348"><ele>1058.0</ele><time>2026-05-02T10:36:46.931Z</time></trkpt><trkpt lat="42.1999956" lon="13.7165984"><ele>1058.2</ele><time>2026-05-02T10:36:47.932Z</time></trkpt><trkpt lat="42.1999692" lon="13.7164779"><ele>1058.4</ele><time>2026-05-02T10:36:48.933Z</time></trkpt><trkpt lat="42.1999476" lon="13.7163634"><ele>1058.6000000000001</ele><time>2026-05-02T10:36:49.931Z</time></trkpt><trkpt lat="42.1999617" lon="13.716253"><ele>1058.8</ele><time>2026-05-02T10:36:50.933Z</time></trkpt><trkpt lat="42.2000004" lon="13.7161311"><ele>1059.0</ele><time>2026-05-02T10:36:51.932Z</time></trkpt><trkpt lat="42.2000544" lon="13.7159996"><ele>1059.2</ele><time>2026-05-02T10:36:52.931Z</time></trkpt><trkpt lat="42.2001169" lon="13.7158783"><ele>1059.4</ele><time>2026-05-02T10:36:53.932Z</time></trkpt><trkpt lat="42.2001654" lon="13.7157548"><ele>1059.6</ele><time>2026-05-02T10:36:54.932Z</time></trkpt><trkpt lat="42.2002074" lon="13.7156371"><ele>1059.8</ele><time>2026-05-02T10:36:55.933Z</time></trkpt><trkpt lat="42.2002393" lon="13.7155232"><ele>1060.0</ele><time>2026-05-02T10:36:56.931Z</time></trkpt><trkpt lat="42.2002666" lon="13.715414"><ele>1060.0</ele><time>2026-05-02T10:36:57.933Z</time></trkpt><trkpt lat="42.2002889" lon="13.7152961"><ele>1060.0</ele><time>2026-05-02T10:36:58.933Z</time></trkpt><trkpt lat="42.2003048" lon="13.7151836"><ele>1060.0</ele><time>2026-05-02T10:36:59.931Z</time></trkpt><trkpt lat="42.2003167" lon="13.7150674"><ele>1060.0</ele><time>2026-05-02T10:37:00.932Z</time></trkpt><trkpt lat="42.2003323" lon="13.7149749"><ele>1060.0</ele><time>2026-05-02T10:37:01.932Z</time></trkpt><trkpt lat="42.2003694" lon="13.7148943"><ele>1060.0</ele><time>2026-05-02T10:37:02.933Z</time></trkpt><trkpt lat="42.2004053" lon="13.714799"><ele>1060.0</ele><time>2026-05-02T10:37:03.931Z</time></trkpt><trkpt lat="42.2004337" lon="13.7147049"><ele>1060.0</ele><time>2026-05-02T10:37:04.933Z</time></trkpt><trkpt lat="42.2004594" lon="13.7145997"><ele>1060.0</ele><time>2026-05-02T10:37:05.932Z</time></trkpt><trkpt lat="42.2004841" lon="13.7145"><ele>1060.0</ele><time>2026-05-02T10:37:06.931Z</time></trkpt><trkpt lat="42.2004923" lon="13.7143886"><ele>1060.0</ele><time>2026-05-02T10:37:07.932Z</time></trkpt><trkpt lat="42.200493" lon="13.7142628"><ele>1060.0</ele><time>2026-05-02T10:37:08.932Z</time></trkpt><trkpt lat="42.2005035" lon="13.7141537"><ele>1060.0</ele><time>2026-05-02T10:37:09.931Z</time></trkpt><trkpt lat="42.2005195" lon="13.7140429"><ele>1060.0</ele><time>2026-05-02T10:37:10.932Z</time></trkpt><trkpt lat="42.2005291" lon="13.7139189"><ele>1060.0</ele><time>2026-05-02T10:37:11.932Z</time></trkpt><trkpt lat="42.2005417" lon="13.7138046"><ele>1060.0</ele><time>2026-05-02T10:37:12.931Z</time></trkpt><trkpt lat="42.2005588" lon="13.7136929"><ele>1060.0</ele><time>2026-05-02T10:37:13.931Z</time></trkpt><trkpt lat="42.2005788" lon="13.7135781"><ele>1060.0</ele><time>2026-05-02T10:37:14.932Z</time></trkpt><trkpt lat="42.2006019" lon="13.7134549"><ele>1059.4</ele><time>2026-05-02T10:37:15.933Z</time></trkpt><trkpt lat="42.2006292" lon="13.7133236"><ele>1058.8</ele><time>2026-05-02T10:37:16.931Z</time></trkpt><trkpt lat="42.2006495" lon="13.7131938"><ele>1058.2</ele><time>2026-05-02T10:37:17.933Z</time></trkpt><trkpt lat="42.2006787" lon="13.7130826"><ele>1057.6</ele><time>2026-05-02T10:37:18.931Z</time></trkpt><trkpt lat="42.2007181" lon="13.7129769"><ele>1057.0</ele><time>2026-05-02T10:37:19.932Z</time></trkpt><trkpt lat="42.2007604" lon="13.7128751"><ele>1054.0</ele><time>2026-05-02T10:37:20.933Z</time></trkpt><trkpt lat="42.2008041" lon="13.7127766"><ele>1051.0</ele><time>2026-05-02T10:37:21.934Z</time></trkpt><trkpt lat="42.2008484" lon="13.7126771"><ele>1048.0</ele><time>2026-05-02T10:37:22.933Z</time></trkpt><trkpt lat="42.2008925" lon="13.712575"><ele>1045.0</ele><time>2026-05-02T10:37:23.932Z</time></trkpt><trkpt lat="42.2009323" lon="13.7124701"><ele>1042.0</ele><time>2026-05-02T10:37:24.932Z</time></trkpt><trkpt lat="42.2009716" lon="13.7123696"><ele>1039.0</ele><time>2026-05-02T10:37:25.932Z</time></trkpt><trkpt lat="42.2010009" lon="13.7122606"><ele>1038.5</ele><time>2026-05-02T10:37:26.932Z</time></trkpt><trkpt lat="42.2010207" lon="13.7121445"><ele>1038.0</ele><time>2026-05-02T10:37:27.931Z</time></trkpt><trkpt lat="42.2010431" lon="13.7120319"><ele>1037.5</ele><time>2026-05-02T10:37:28.932Z</time></trkpt><trkpt lat="42.2010685" lon="13.7119251"><ele>1037.0</ele><time>2026-05-02T10:37:29.932Z</time></trkpt><trkpt lat="42.2010949" lon="13.7118229"><ele>1036.5</ele><time>2026-05-02T10:37:30.931Z</time></trkpt><trkpt lat="42.2011199" lon="13.71172"><ele>1036.0</ele><time>2026-05-02T10:37:31.931Z</time></trkpt><trkpt lat="42.2011391" lon="13.71162"><ele>1035.5</ele><time>2026-05-02T10:37:32.932Z</time></trkpt><trkpt lat="42.2011486" lon="13.7115155"><ele>1035.0</ele><time>2026-05-02T10:37:33.932Z</time></trkpt><trkpt lat="42.2011514" lon="13.7114043"><ele>1034.5</ele><time>2026-05-02T10:37:34.932Z</time></trkpt><trkpt lat="42.2011388" lon="13.7112938"><ele>1034.0</ele><time>2026-05-02T10:37:35.932Z</time></trkpt><trkpt lat="42.2011202" lon="13.7111765"><ele>1033.5</ele><time>2026-05-02T10:37:36.931Z</time></trkpt><trkpt lat="42.201109" lon="13.7110614"><ele>1033.0</ele><time>2026-05-02T10:37:37.932Z</time></trkpt><trkpt lat="42.2010963" lon="13.7109455"><ele>1032.3333333333333</ele><time>2026-05-02T10:37:38.932Z</time></trkpt><trkpt lat="42.2010838" lon="13.7108347"><ele>1031.6666666666665</ele><time>2026-05-02T10:37:39.932Z</time></trkpt><trkpt lat="42.2010774" lon="13.7107252"><ele>1031.0</ele><time>2026-05-02T10:37:40.932Z</time></trkpt><trkpt lat="42.2010801" lon="13.7106172"><ele>1030.3333333333333</ele><time>2026-05-02T10:37:41.932Z</time></trkpt><trkpt lat="42.2010908" lon="13.7105082"><ele>1029.6666666666667</ele><time>2026-05-02T10:37:42.933Z</time></trkpt><trkpt lat="42.2011083" lon="13.7103976"><ele>1029.0</ele><time>2026-05-02T10:37:43.931Z</time></trkpt><trkpt lat="42.2011263" lon="13.7102866"><ele>1028.8333333333333</ele><time>2026-05-02T10:37:44.933Z</time></trkpt><trkpt lat="42.2011438" lon="13.7101743"><ele>1028.6666666666667</ele><time>2026-05-02T10:37:45.932Z</time></trkpt><trkpt lat="42.2011664" lon="13.7100677"><ele>1028.5</ele><time>2026-05-02T10:37:46.932Z</time></trkpt><trkpt lat="42.2011897" lon="13.7099575"><ele>1028.3333333333335</ele><time>2026-05-02T10:37:47.932Z</time></trkpt><trkpt lat="42.2012048" lon="13.7098382"><ele>1028.1666666666667</ele><time>2026-05-02T10:37:48.931Z</time></trkpt><trkpt lat="42.2012268" lon="13.7097148"><ele>1028.0</ele><time>2026-05-02T10:37:49.931Z</time></trkpt><trkpt lat="42.2012572" lon="13.7095971"><ele>1028.0</ele><time>2026-05-02T10:37:50.932Z</time></trkpt><trkpt lat="42.2012871" lon="13.7094851"><ele>1028.0</ele><time>2026-05-02T10:37:51.931Z</time></trkpt><trkpt lat="42.2013134" lon="13.70936"><ele>1028.0</ele><time>2026-05-02T10:37:52.931Z</time></trkpt><trkpt lat="42.2013318" lon="13.7092359"><ele>1028.0</ele><time>2026-05-02T10:37:53.931Z</time></trkpt><trkpt lat="42.2013446" lon="13.7091257"><ele>1028.0</ele><time>2026-05-02T10:37:54.931Z</time></trkpt><trkpt lat="42.2013592" lon="13.7090149"><ele>1028.0</ele><time>2026-05-02T10:37:55.932Z</time></trkpt><trkpt lat="42.2013783" lon="13.7089089"><ele>1028.3333333333335</ele><time>2026-05-02T10:37:56.932Z</time></trkpt><trkpt lat="42.2014067" lon="13.7088127"><ele>1028.6666666666667</ele><time>2026-05-02T10:37:57.931Z</time></trkpt><trkpt lat="42.2014395" lon="13.7087175"><ele>1029.0</ele><time>2026-05-02T10:37:58.933Z</time></trkpt><trkpt lat="42.2014693" lon="13.7086116"><ele>1029.3333333333333</ele><time>2026-05-02T10:37:59.931Z</time></trkpt><trkpt lat="42.2014985" lon="13.7085026"><ele>1029.6666666666665</ele><time>2026-05-02T10:38:00.932Z</time></trkpt><trkpt lat="42.2015213" lon="13.7083984"><ele>1030.0</ele><time>2026-05-02T10:38:01.933Z</time></trkpt><trkpt lat="42.2015379" lon="13.7083014"><ele>1026.0</ele><time>2026-05-02T10:38:02.931Z</time></trkpt><trkpt lat="42.2015497" lon="13.7082004"><ele>1022.0</ele><time>2026-05-02T10:38:03.932Z</time></trkpt><trkpt lat="42.2015623" lon="13.7080882"><ele>1018.0</ele><time>2026-05-02T10:38:04.931Z</time></trkpt><trkpt lat="42.2015732" lon="13.7079726"><ele>1014.0</ele><time>2026-05-02T10:38:05.931Z</time></trkpt><trkpt lat="42.2015839" lon="13.7078653"><ele>1009.9999999999999</ele><time>2026-05-02T10:38:06.931Z</time></trkpt><trkpt lat="42.2016012" lon="13.707769"><ele>1006.0</ele><time>2026-05-02T10:38:07.932Z</time></trkpt><trkpt lat="42.2016274" lon="13.7076718"><ele>1004.6666666666666</ele><time>2026-05-02T10:38:08.932Z</time></trkpt><trkpt lat="42.2016606" lon="13.7075665"><ele>1003.3333333333333</ele><time>2026-05-02T10:38:09.933Z</time></trkpt><trkpt lat="42.2016918" lon="13.7074712"><ele>1002.0</ele><time>2026-05-02T10:38:10.931Z</time></trkpt><trkpt lat="42.201708" lon="13.7073734"><ele>1000.6666666666667</ele><time>2026-05-02T10:38:11.932Z</time></trkpt><trkpt lat="42.2017213" lon="13.7072741"><ele>999.3333333333334</ele><time>2026-05-02T10:38:12.933Z</time></trkpt><trkpt lat="42.2017362" lon="13.7071753"><ele>998.0</ele><time>2026-05-02T10:38:13.932Z</time></trkpt><trkpt lat="42.2017413" lon="13.7070807"><ele>998.0000000000001</ele><time>2026-05-02T10:38:14.932Z</time></trkpt><trkpt lat="42.2017533" lon="13.7069937"><ele>998.0</ele><time>2026-05-02T10:38:15.931Z</time></trkpt><trkpt lat="42.201791" lon="13.7069187"><ele>998.0</ele><time>2026-05-02T10:38:16.932Z</time></trkpt><trkpt lat="42.2018308" lon="13.7068409"><ele>998.0</ele><time>2026-05-02T10:38:17.932Z</time></trkpt><trkpt lat="42.2018623" lon="13.7067617"><ele>998.0000000000001</ele><time>2026-05-02T10:38:18.932Z</time></trkpt><trkpt lat="42.2018765" lon="13.7066353"><ele>998.0</ele><time>2026-05-02T10:38:20.932Z</time></trkpt><trkpt lat="42.20185" lon="13.7064898"><ele>996.5999999999999</ele><time>2026-05-02T10:38:22.933Z</time></trkpt><trkpt lat="42.2018264" lon="13.7063325"><ele>995.1999999999999</ele><time>2026-05-02T10:38:24.932Z</time></trkpt><trkpt lat="42.2017811" lon="13.7062071"><ele>993.8</ele><time>2026-05-02T10:38:26.932Z</time></trkpt><trkpt lat="42.2017046" lon="13.7061209"><ele>992.4</ele><time>2026-05-02T10:38:28.932Z</time></trkpt><trkpt lat="42.2016083" lon="13.7060856"><ele>991.0</ele><time>2026-05-02T10:38:30.931Z</time></trkpt><trkpt lat="42.2015236" lon="13.7060497"><ele>990.1999999999999</ele><time>2026-05-02T10:38:32.932Z</time></trkpt><trkpt lat="42.2015089" lon="13.7059236"><ele>989.3999999999999</ele><time>2026-05-02T10:38:34.932Z</time></trkpt><trkpt lat="42.2015319" lon="13.7058002"><ele>988.6</ele><time>2026-05-02T10:38:36.932Z</time></trkpt><trkpt lat="42.201526" lon="13.7056785"><ele>987.8</ele><time>2026-05-02T10:38:38.931Z</time></trkpt><trkpt lat="42.2014663" lon="13.7055153"><ele>987.0</ele><time>2026-05-02T10:38:40.932Z</time></trkpt><trkpt lat="42.2014319" lon="13.7054151"><ele>985.5</ele><time>2026-05-02T10:38:41.932Z</time></trkpt><trkpt lat="42.201399" lon="13.7053207"><ele>984.0</ele><time>2026-05-02T10:38:42.932Z</time></trkpt><trkpt lat="42.2013731" lon="13.7052364"><ele>982.5</ele><time>2026-05-02T10:38:43.933Z</time></trkpt><trkpt lat="42.2013461" lon="13.7050685"><ele>981.0</ele><time>2026-05-02T10:38:45.932Z</time></trkpt><trkpt lat="42.2013462" lon="13.7049628"><ele>979.5</ele><time>2026-05-02T10:38:46.932Z</time></trkpt><trkpt lat="42.2013503" lon="13.704856"><ele>978.0</ele><time>2026-05-02T10:38:47.932Z</time></trkpt><trkpt lat="42.2013502" lon="13.7047585"><ele>978.0</ele><time>2026-05-02T10:38:48.932Z</time></trkpt><trkpt lat="42.2013521" lon="13.7046048"><ele>978.0</ele><time>2026-05-02T10:38:50.932Z</time></trkpt><trkpt lat="42.2013654" lon="13.7044527"><ele>978.0</ele><time>2026-05-02T10:38:52.932Z</time></trkpt><trkpt lat="42.201371" lon="13.7042895"><ele>978.0</ele><time>2026-05-02T10:38:54.932Z</time></trkpt><trkpt lat="42.2013749" lon="13.7041334"><ele>974.5</ele><time>2026-05-02T10:38:56.932Z</time></trkpt><trkpt lat="42.2013812" lon="13.7040456"><ele>971.0</ele><time>2026-05-02T10:38:57.933Z</time></trkpt><trkpt lat="42.2013965" lon="13.7039556"><ele>967.5</ele><time>2026-05-02T10:38:58.932Z</time></trkpt><trkpt lat="42.2014183" lon="13.7038731"><ele>964.0</ele><time>2026-05-02T10:38:59.933Z</time></trkpt><trkpt lat="42.2014547" lon="13.7037155"><ele>960.5</ele><time>2026-05-02T10:39:01.931Z</time></trkpt><trkpt lat="42.2014684" lon="13.7036267"><ele>957.0</ele><time>2026-05-02T10:39:02.932Z</time></trkpt><trkpt lat="42.201484" lon="13.7035308"><ele>959.8333333333334</ele><time>2026-05-02T10:39:03.932Z</time></trkpt><trkpt lat="42.2014971" lon="13.7034417"><ele>962.6666666666667</ele><time>2026-05-02T10:39:04.931Z</time></trkpt><trkpt lat="42.201501" lon="13.7033529"><ele>965.5</ele><time>2026-05-02T10:39:05.932Z</time></trkpt><trkpt lat="42.2015057" lon="13.703264"><ele>968.3333333333334</ele><time>2026-05-02T10:39:06.932Z</time></trkpt><trkpt lat="42.2015095" lon="13.703177"><ele>971.1666666666667</ele><time>2026-05-02T10:39:07.933Z</time></trkpt><trkpt lat="42.2014649" lon="13.7030269"><ele>974.0</ele><time>2026-05-02T10:39:09.932Z</time></trkpt><trkpt lat="42.2013925" lon="13.7029069"><ele>964.75</ele><time>2026-05-02T10:39:11.932Z</time></trkpt><trkpt lat="42.2013107" lon="13.7028116"><ele>955.5</ele><time>2026-05-02T10:39:13.932Z</time></trkpt><trkpt lat="42.2012195" lon="13.7026995"><ele>946.25</ele><time>2026-05-02T10:39:15.931Z</time></trkpt><trkpt lat="42.2011121" lon="13.7026163"><ele>937.0</ele><time>2026-05-02T10:39:17.933Z</time></trkpt><trkpt lat="42.2010083" lon="13.7025252"><ele>936.9999999999999</ele><time>2026-05-02T10:39:19.932Z</time></trkpt><trkpt lat="42.2009575" lon="13.7024731"><ele>937.0</ele><time>2026-05-02T10:39:20.932Z</time></trkpt><trkpt lat="42.2009019" lon="13.7024275"><ele>937.0</ele><time>2026-05-02T10:39:21.931Z</time></trkpt><trkpt lat="42.2008377" lon="13.7023858"><ele>937.0</ele><time>2026-05-02T10:39:22.932Z</time></trkpt><trkpt lat="42.200774" lon="13.702346"><ele>936.9999999999999</ele><time>2026-05-02T10:39:23.933Z</time></trkpt><trkpt lat="42.2007065" lon="13.7023104"><ele>937.0</ele><time>2026-05-02T10:39:24.932Z</time></trkpt><trkpt lat="42.2005836" lon="13.7022665"><ele>931.0</ele><time>2026-05-02T10:39:26.933Z</time></trkpt><trkpt lat="42.2004676" lon="13.7022241"><ele>925.0</ele><time>2026-05-02T10:39:28.931Z</time></trkpt><trkpt lat="42.2003612" lon="13.7022095"><ele>919.0</ele><time>2026-05-02T10:39:30.931Z</time></trkpt><trkpt lat="42.2002517" lon="13.7022007"><ele>913.0</ele><time>2026-05-02T10:39:32.932Z</time></trkpt><trkpt lat="42.2001721" lon="13.7021195"><ele>907.0</ele><time>2026-05-02T10:39:34.933Z</time></trkpt><trkpt lat="42.2001358" lon="13.7019948"><ele>907.4999999999999</ele><time>2026-05-02T10:39:36.932Z</time></trkpt><trkpt lat="42.2001113" lon="13.7018632"><ele>908.0</ele><time>2026-05-02T10:39:38.931Z</time></trkpt><trkpt lat="42.2000887" lon="13.7017514"><ele>908.5</ele><time>2026-05-02T10:39:40.933Z</time></trkpt><trkpt lat="42.2000627" lon="13.7016251"><ele>909.0</ele><time>2026-05-02T10:39:43.932Z</time></trkpt><trkpt lat="42.2000346" lon="13.7015471"><ele>909.4999999999999</ele><time>2026-05-02T10:39:45.93Z</time></trkpt><trkpt lat="42.199971" lon="13.7014849"><ele>910.0</ele><time>2026-05-02T10:39:50.932Z</time></trkpt><trkpt lat="42.2000124" lon="13.7013822"><ele>910.0</ele><time>2026-05-02T10:40:32.932Z</time></trkpt><trkpt lat="42.2000339" lon="13.7012486"><ele>910.0</ele><time>2026-05-02T10:40:34.932Z</time></trkpt><trkpt lat="42.2000489" lon="13.7010897"><ele>910.0</ele><time>2026-05-02T10:40:36.932Z</time></trkpt><trkpt lat="42.2000621" lon="13.7009289"><ele>910.0</ele><time>2026-05-02T10:40:38.932Z</time></trkpt><trkpt lat="42.2000807" lon="13.7007721"><ele>908.8</ele><time>2026-05-02T10:40:40.932Z</time></trkpt><trkpt lat="42.2000862" lon="13.7006377"><ele>907.6</ele><time>2026-05-02T10:40:42.931Z</time></trkpt><trkpt lat="42.2000552" lon="13.7005352"><ele>906.4000000000001</ele><time>2026-05-02T10:40:44.932Z</time></trkpt><trkpt lat="42.2000403" lon="13.7004065"><ele>905.2</ele><time>2026-05-02T10:40:46.933Z</time></trkpt><trkpt lat="42.2000413" lon="13.7002653"><ele>904.0</ele><time>2026-05-02T10:40:48.932Z</time></trkpt><trkpt lat="42.2000624" lon="13.7001288"><ele>903.8000000000001</ele><time>2026-05-02T10:40:50.931Z</time></trkpt><trkpt lat="42.2000634" lon="13.7000242"><ele>903.6000000000001</ele><time>2026-05-02T10:40:52.932Z</time></trkpt><trkpt lat="42.1999919" lon="13.6999254"><ele>903.4</ele><time>2026-05-02T10:40:55.932Z</time></trkpt><trkpt lat="42.1999199" lon="13.6998643"><ele>903.2</ele><time>2026-05-02T10:40:57.932Z</time></trkpt><trkpt lat="42.1998426" lon="13.6997791"><ele>903.0</ele><time>2026-05-02T10:40:59.931Z</time></trkpt><trkpt lat="42.1997797" lon="13.6996618"><ele>892.5999999999999</ele><time>2026-05-02T10:41:01.932Z</time></trkpt><trkpt lat="42.1997253" lon="13.6995135"><ele>882.1999999999999</ele><time>2026-05-02T10:41:03.931Z</time></trkpt><trkpt lat="42.1996887" lon="13.6993712"><ele>871.8</ele><time>2026-05-02T10:41:05.932Z</time></trkpt><trkpt lat="42.1996572" lon="13.6992546"><ele>861.4</ele><time>2026-05-02T10:41:07.932Z</time></trkpt><trkpt lat="42.1995956" lon="13.6991522"><ele>851.0</ele><time>2026-05-02T10:41:09.93Z</time></trkpt><trkpt lat="42.1995434" lon="13.6990421"><ele>851.0</ele><time>2026-05-02T10:41:11.931Z</time></trkpt><trkpt lat="42.1995115" lon="13.6988956"><ele>851.0</ele><time>2026-05-02T10:41:13.93Z</time></trkpt><trkpt lat="42.199514" lon="13.6987472"><ele>851.0</ele><time>2026-05-02T10:41:15.932Z</time></trkpt><trkpt lat="42.19952" lon="13.6985756"><ele>851.0</ele><time>2026-05-02T10:41:17.932Z</time></trkpt><trkpt lat="42.1994979" lon="13.6984209"><ele>851.8</ele><time>2026-05-02T10:41:19.932Z</time></trkpt><trkpt lat="42.1994796" lon="13.6982876"><ele>852.5999999999999</ele><time>2026-05-02T10:41:21.932Z</time></trkpt><trkpt lat="42.1994886" lon="13.6981327"><ele>853.4</ele><time>2026-05-02T10:41:23.931Z</time></trkpt><trkpt lat="42.1995009" lon="13.6980473"><ele>854.2</ele><time>2026-05-02T10:41:24.933Z</time></trkpt><trkpt lat="42.1995146" lon="13.6979626"><ele>855.0</ele><time>2026-05-02T10:41:25.932Z</time></trkpt><trkpt lat="42.1995562" lon="13.6978227"><ele>852.6</ele><time>2026-05-02T10:41:27.931Z</time></trkpt><trkpt lat="42.1995995" lon="13.6976839"><ele>850.2</ele><time>2026-05-02T10:41:29.932Z</time></trkpt><trkpt lat="42.199642" lon="13.6975718"><ele>847.8</ele><time>2026-05-02T10:41:31.931Z</time></trkpt><trkpt lat="42.199692" lon="13.6974743"><ele>845.4</ele><time>2026-05-02T10:41:33.931Z</time></trkpt><trkpt lat="42.1997546" lon="13.6973633"><ele>843.0</ele><time>2026-05-02T10:41:35.933Z</time></trkpt><trkpt lat="42.1998162" lon="13.6972543"><ele>850.0</ele><time>2026-05-02T10:41:37.932Z</time></trkpt><trkpt lat="42.1998789" lon="13.6971739"><ele>857.0</ele><time>2026-05-02T10:41:39.932Z</time></trkpt><trkpt lat="42.1999547" lon="13.6971652"><ele>864.0</ele><time>2026-05-02T10:41:41.93Z</time></trkpt><trkpt lat="42.200022" lon="13.6971357"><ele>871.0</ele><time>2026-05-02T10:41:42.932Z</time></trkpt><trkpt lat="42.2001385" lon="13.6971074"><ele>878.0</ele><time>2026-05-02T10:41:44.931Z</time></trkpt><trkpt lat="42.2002512" lon="13.6970395"><ele>878.0</ele><time>2026-05-02T10:41:46.933Z</time></trkpt><trkpt lat="42.2003569" lon="13.6969858"><ele>878.0</ele><time>2026-05-02T10:41:48.932Z</time></trkpt><trkpt lat="42.2004602" lon="13.696972"><ele>878.0</ele><time>2026-05-02T10:41:50.932Z</time></trkpt><trkpt lat="42.2005651" lon="13.6969205"><ele>878.0</ele><time>2026-05-02T10:41:52.931Z</time></trkpt><trkpt lat="42.2006236" lon="13.6968832"><ele>878.0</ele><time>2026-05-02T10:41:53.932Z</time></trkpt><trkpt lat="42.2007301" lon="13.6968199"><ele>875.0</ele><time>2026-05-02T10:41:55.931Z</time></trkpt><trkpt lat="42.2008238" lon="13.696735"><ele>872.0</ele><time>2026-05-02T10:41:57.932Z</time></trkpt><trkpt lat="42.2008749" lon="13.6966432"><ele>869.0</ele><time>2026-05-02T10:41:59.931Z</time></trkpt><trkpt lat="42.2008262" lon="13.6965557"><ele>866.0</ele><time>2026-05-02T10:42:01.932Z</time></trkpt><trkpt lat="42.2007402" lon="13.6965619"><ele>863.0</ele><time>2026-05-02T10:42:03.931Z</time></trkpt><trkpt lat="42.2006561" lon="13.6965754"><ele>860.1666666666667</ele><time>2026-05-02T10:42:05.931Z</time></trkpt><trkpt lat="42.2005851" lon="13.6964954"><ele>857.3333333333334</ele><time>2026-05-02T10:42:07.932Z</time></trkpt><trkpt lat="42.2005051" lon="13.6964914"><ele>854.5</ele><time>2026-05-02T10:42:09.931Z</time></trkpt><trkpt lat="42.2004546" lon="13.6965436"><ele>851.6666666666667</ele><time>2026-05-02T10:42:11.932Z</time></trkpt><trkpt lat="42.2003634" lon="13.6965137"><ele>848.8333333333334</ele><time>2026-05-02T10:42:13.931Z</time></trkpt><trkpt lat="42.2002954" lon="13.6964428"><ele>846.0</ele><time>2026-05-02T10:42:15.931Z</time></trkpt><trkpt lat="42.2002156" lon="13.696351"><ele>846.0</ele><time>2026-05-02T10:42:17.933Z</time></trkpt><trkpt lat="42.2001321" lon="13.6962752"><ele>846.0</ele><time>2026-05-02T10:42:19.932Z</time></trkpt><trkpt lat="42.2000492" lon="13.6962556"><ele>846.0</ele><time>2026-05-02T10:42:21.93Z</time></trkpt><trkpt lat="42.1999579" lon="13.6963322"><ele>846.0</ele><time>2026-05-02T10:42:23.932Z</time></trkpt><trkpt lat="42.1998739" lon="13.6964075"><ele>846.0</ele><time>2026-05-02T10:42:25.931Z</time></trkpt><trkpt lat="42.1998039" lon="13.6963745"><ele>840.8</ele><time>2026-05-02T10:44:32.931Z</time></trkpt><trkpt lat="42.199741" lon="13.6963221"><ele>835.5999999999999</ele><time>2026-05-02T10:44:34.931Z</time></trkpt><trkpt lat="42.1996757" lon="13.6962317"><ele>830.4</ele><time>2026-05-02T10:44:36.932Z</time></trkpt><trkpt lat="42.1996108" lon="13.6960985"><ele>825.2</ele><time>2026-05-02T10:44:38.93Z</time></trkpt><trkpt lat="42.1995708" lon="13.6960279"><ele>820.0</ele><time>2026-05-02T10:44:39.931Z</time></trkpt><trkpt lat="42.1994901" lon="13.6958955"><ele>816.8</ele><time>2026-05-02T10:44:41.931Z</time></trkpt><trkpt lat="42.1994469" lon="13.6958299"><ele>813.6</ele><time>2026-05-02T10:44:42.932Z</time></trkpt><trkpt lat="42.199374" lon="13.6957032"><ele>810.4000000000001</ele><time>2026-05-02T10:44:44.932Z</time></trkpt><trkpt lat="42.1993045" lon="13.6955661"><ele>807.2</ele><time>2026-05-02T10:44:46.931Z</time></trkpt><trkpt lat="42.1992516" lon="13.695422"><ele>804.0</ele><time>2026-05-02T10:44:48.931Z</time></trkpt><trkpt lat="42.199214" lon="13.6952765"><ele>804.8333333333334</ele><time>2026-05-02T10:44:50.931Z</time></trkpt><trkpt lat="42.1991811" lon="13.6951608"><ele>805.6666666666667</ele><time>2026-05-02T10:44:52.931Z</time></trkpt><trkpt lat="42.1991442" lon="13.6950873"><ele>806.5</ele><time>2026-05-02T10:44:56.932Z</time></trkpt><trkpt lat="42.1991059" lon="13.6950104"><ele>807.3333333333334</ele><time>2026-05-02T10:45:28.931Z</time></trkpt><trkpt lat="42.1990418" lon="13.6949335"><ele>808.1666666666667</ele><time>2026-05-02T10:45:30.931Z</time></trkpt><trkpt lat="42.1989647" lon="13.6948979"><ele>809.0</ele><time>2026-05-02T10:45:32.931Z</time></trkpt><trkpt lat="42.1988839" lon="13.6949407"><ele>804.6666666666667</ele><time>2026-05-02T10:45:34.931Z</time></trkpt><trkpt lat="42.1988193" lon="13.6950722"><ele>800.3333333333334</ele><time>2026-05-02T10:45:36.931Z</time></trkpt><trkpt lat="42.1987877" lon="13.6951568"><ele>796.0</ele><time>2026-05-02T10:45:37.931Z</time></trkpt><trkpt lat="42.1987488" lon="13.6952463"><ele>791.6666666666667</ele><time>2026-05-02T10:45:38.931Z</time></trkpt><trkpt lat="42.1987041" lon="13.6953269"><ele>787.3333333333334</ele><time>2026-05-02T10:45:39.931Z</time></trkpt><trkpt lat="42.1986584" lon="13.6954059"><ele>783.0</ele><time>2026-05-02T10:45:40.931Z</time></trkpt><trkpt lat="42.1986212" lon="13.6954765"><ele>783.0</ele><time>2026-05-02T10:45:41.933Z</time></trkpt><trkpt lat="42.1985578" lon="13.6955728"><ele>783.0</ele><time>2026-05-02T10:45:43.932Z</time></trkpt><trkpt lat="42.1984864" lon="13.6955936"><ele>783.0</ele><time>2026-05-02T10:45:45.931Z</time></trkpt><trkpt lat="42.1984196" lon="13.6955404"><ele>783.0</ele><time>2026-05-02T10:45:47.932Z</time></trkpt><trkpt lat="42.1983356" lon="13.6954945"><ele>783.0</ele><time>2026-05-02T10:45:49.932Z</time></trkpt><trkpt lat="42.1982415" lon="13.6954701"><ele>783.0</ele><time>2026-05-02T10:45:51.932Z</time></trkpt><trkpt lat="42.1981502" lon="13.6955164"><ele>779.2</ele><time>2026-05-02T10:45:53.93Z</time></trkpt><trkpt lat="42.198074" lon="13.6956022"><ele>775.4</ele><time>2026-05-02T10:45:55.93Z</time></trkpt><trkpt lat="42.1979866" lon="13.6956653"><ele>771.6</ele><time>2026-05-02T10:45:57.931Z</time></trkpt><trkpt lat="42.1978675" lon="13.6957024"><ele>767.8000000000001</ele><time>2026-05-02T10:45:59.932Z</time></trkpt><trkpt lat="42.1978051" lon="13.6957244"><ele>764.0</ele><time>2026-05-02T10:46:00.931Z</time></trkpt><trkpt lat="42.1977343" lon="13.6957492"><ele>764.0</ele><time>2026-05-02T10:46:01.93Z</time></trkpt><trkpt lat="42.1976554" lon="13.6957726"><ele>764.0</ele><time>2026-05-02T10:46:02.931Z</time></trkpt><trkpt lat="42.1975746" lon="13.6957948"><ele>764.0</ele><time>2026-05-02T10:46:03.931Z</time></trkpt><trkpt lat="42.1974938" lon="13.6958192"><ele>764.0</ele><time>2026-05-02T10:46:04.932Z</time></trkpt><trkpt lat="42.1974199" lon="13.6958441"><ele>764.0</ele><time>2026-05-02T10:46:05.931Z</time></trkpt><trkpt lat="42.1973547" lon="13.6958711"><ele>764.0</ele><time>2026-05-02T10:46:06.93Z</time></trkpt><trkpt lat="42.197245" lon="13.6959028"><ele>760.4000000000001</ele><time>2026-05-02T10:46:08.931Z</time></trkpt><trkpt lat="42.1971646" lon="13.6959052"><ele>756.8</ele><time>2026-05-02T10:46:10.931Z</time></trkpt><trkpt lat="42.1970679" lon="13.6959374"><ele>753.2</ele><time>2026-05-02T10:46:13.931Z</time></trkpt><trkpt lat="42.1969484" lon="13.695984"><ele>749.5999999999999</ele><time>2026-05-02T10:46:15.93Z</time></trkpt><trkpt lat="42.196873" lon="13.6960137"><ele>746.0</ele><time>2026-05-02T10:46:16.931Z</time></trkpt><trkpt lat="42.1967952" lon="13.6960357"><ele>746.0</ele><time>2026-05-02T10:46:17.932Z</time></trkpt><trkpt lat="42.196718" lon="13.6960564"><ele>746.0</ele><time>2026-05-02T10:46:18.931Z</time></trkpt><trkpt lat="42.1966525" lon="13.6960836"><ele>746.0</ele><time>2026-05-02T10:46:19.932Z</time></trkpt><trkpt lat="42.1965599" lon="13.6961457"><ele>746.0</ele><time>2026-05-02T10:46:21.93Z</time></trkpt><trkpt lat="42.1965413" lon="13.696236"><ele>746.0</ele><time>2026-05-02T10:46:23.932Z</time></trkpt><trkpt lat="42.1965088" lon="13.6963172"><ele>746.0</ele><time>2026-05-02T10:46:26.93Z</time></trkpt><trkpt lat="42.1964767" lon="13.6961905"><ele>742.8</ele><time>2026-05-02T10:46:29.931Z</time></trkpt><trkpt lat="42.1964558" lon="13.6960168"><ele>739.5999999999999</ele><time>2026-05-02T10:46:31.931Z</time></trkpt><trkpt lat="42.196444" lon="13.6959333"><ele>736.4</ele><time>2026-05-02T10:46:32.932Z</time></trkpt><trkpt lat="42.1964249" lon="13.6957781"><ele>733.2</ele><time>2026-05-02T10:46:34.932Z</time></trkpt><trkpt lat="42.1964079" lon="13.6956619"><ele>730.0</ele><time>2026-05-02T10:46:36.932Z</time></trkpt><trkpt lat="42.1963796" lon="13.6955431"><ele>730.0</ele><time>2026-05-02T10:46:39.931Z</time></trkpt><trkpt lat="42.1963572" lon="13.6954458"><ele>730.0</ele><time>2026-05-02T10:46:41.93Z</time></trkpt><trkpt lat="42.1963391" lon="13.695329"><ele>730.0</ele><time>2026-05-02T10:46:42.931Z</time></trkpt><trkpt lat="42.1963199" lon="13.6952188"><ele>730.0</ele><time>2026-05-02T10:46:43.932Z</time></trkpt><trkpt lat="42.1963049" lon="13.6950971"><ele>730.0</ele><time>2026-05-02T10:46:44.931Z</time></trkpt><trkpt lat="42.1962929" lon="13.6949589"><ele>730.0</ele><time>2026-05-02T10:46:45.931Z</time></trkpt><trkpt lat="42.1962824" lon="13.6948345"><ele>730.1666666666667</ele><time>2026-05-02T10:46:46.93Z</time></trkpt><trkpt lat="42.1962598" lon="13.6947199"><ele>730.3333333333334</ele><time>2026-05-02T10:46:47.932Z</time></trkpt><trkpt lat="42.1962295" lon="13.6946105"><ele>730.5</ele><time>2026-05-02T10:46:48.931Z</time></trkpt><trkpt lat="42.1962013" lon="13.6945037"><ele>730.6666666666666</ele><time>2026-05-02T10:46:49.931Z</time></trkpt><trkpt lat="42.1961678" lon="13.694391"><ele>730.8333333333333</ele><time>2026-05-02T10:46:50.932Z</time></trkpt><trkpt lat="42.1961377" lon="13.6942836"><ele>731.0</ele><time>2026-05-02T10:46:51.931Z</time></trkpt><trkpt lat="42.1960979" lon="13.6941811"><ele>731.0</ele><time>2026-05-02T10:46:52.931Z</time></trkpt><trkpt lat="42.1960721" lon="13.6940743"><ele>731.0</ele><time>2026-05-02T10:46:53.931Z</time></trkpt><trkpt lat="42.1960473" lon="13.6939572"><ele>731.0</ele><time>2026-05-02T10:46:54.931Z</time></trkpt><trkpt lat="42.196033" lon="13.6938474"><ele>731.0</ele><time>2026-05-02T10:46:55.932Z</time></trkpt><trkpt lat="42.1960098" lon="13.693735"><ele>731.0</ele><time>2026-05-02T10:46:56.932Z</time></trkpt><trkpt lat="42.1959975" lon="13.6936136"><ele>731.0</ele><time>2026-05-02T10:46:57.931Z</time></trkpt><trkpt lat="42.1959776" lon="13.6934993"><ele>729.8333333333333</ele><time>2026-05-02T10:46:58.931Z</time></trkpt><trkpt lat="42.195967" lon="13.6933939"><ele>728.6666666666666</ele><time>2026-05-02T10:46:59.931Z</time></trkpt><trkpt lat="42.195951" lon="13.6932875"><ele>727.5</ele><time>2026-05-02T10:47:00.931Z</time></trkpt><trkpt lat="42.1959405" lon="13.693183"><ele>726.3333333333334</ele><time>2026-05-02T10:47:01.931Z</time></trkpt><trkpt lat="42.195918" lon="13.6930714"><ele>725.1666666666667</ele><time>2026-05-02T10:47:02.931Z</time></trkpt><trkpt lat="42.1958944" lon="13.6929697"><ele>724.0</ele><time>2026-05-02T10:47:03.931Z</time></trkpt><trkpt lat="42.1958819" lon="13.6928446"><ele>722.0</ele><time>2026-05-02T10:47:04.931Z</time></trkpt><trkpt lat="42.1958567" lon="13.6927271"><ele>720.0</ele><time>2026-05-02T10:47:05.931Z</time></trkpt><trkpt lat="42.1958407" lon="13.6926078"><ele>718.0</ele><time>2026-05-02T10:47:06.931Z</time></trkpt><trkpt lat="42.1958298" lon="13.6924895"><ele>716.0</ele><time>2026-05-02T10:47:07.93Z</time></trkpt><trkpt lat="42.1958334" lon="13.6923569"><ele>714.0</ele><time>2026-05-02T10:47:08.932Z</time></trkpt><trkpt lat="42.1958336" lon="13.6922269"><ele>714.0</ele><time>2026-05-02T10:47:09.93Z</time></trkpt><trkpt lat="42.195835" lon="13.6920976"><ele>714.0</ele><time>2026-05-02T10:47:10.93Z</time></trkpt><trkpt lat="42.1958341" lon="13.6919603"><ele>714.0</ele><time>2026-05-02T10:47:11.932Z</time></trkpt><trkpt lat="42.195839" lon="13.6918253"><ele>714.0</ele><time>2026-05-02T10:47:12.932Z</time></trkpt><trkpt lat="42.1958455" lon="13.6917036"><ele>714.0</ele><time>2026-05-02T10:47:13.931Z</time></trkpt><trkpt lat="42.1958544" lon="13.6915879"><ele>712.6</ele><time>2026-05-02T10:47:14.931Z</time></trkpt><trkpt lat="42.1958482" lon="13.6914939"><ele>711.2</ele><time>2026-05-02T10:47:15.93Z</time></trkpt><trkpt lat="42.1958248" lon="13.6914089"><ele>709.8000000000001</ele><time>2026-05-02T10:47:16.932Z</time></trkpt><trkpt lat="42.1957534" lon="13.6912892"><ele>708.4000000000001</ele><time>2026-05-02T10:47:18.931Z</time></trkpt><trkpt lat="42.1957063" lon="13.6911514"><ele>707.0</ele><time>2026-05-02T10:47:20.931Z</time></trkpt><trkpt lat="42.195646" lon="13.6910113"><ele>704.0</ele><time>2026-05-02T10:47:22.931Z</time></trkpt><trkpt lat="42.1955998" lon="13.6909389"><ele>701.0</ele><time>2026-05-02T10:47:23.932Z</time></trkpt><trkpt lat="42.1955481" lon="13.6908764"><ele>698.0</ele><time>2026-05-02T10:47:24.931Z</time></trkpt><trkpt lat="42.1954927" lon="13.6908268"><ele>695.0</ele><time>2026-05-02T10:47:25.931Z</time></trkpt><trkpt lat="42.1953799" lon="13.6907582"><ele>692.0</ele><time>2026-05-02T10:47:27.931Z</time></trkpt><trkpt lat="42.1952631" lon="13.6907174"><ele>692.0</ele><time>2026-05-02T10:47:29.931Z</time></trkpt><trkpt lat="42.1951646" lon="13.6906781"><ele>692.0</ele><time>2026-05-02T10:47:31.932Z</time></trkpt><trkpt lat="42.1950637" lon="13.6906295"><ele>692.0</ele><time>2026-05-02T10:47:33.932Z</time></trkpt><trkpt lat="42.1949663" lon="13.6905977"><ele>692.0</ele><time>2026-05-02T10:47:35.93Z</time></trkpt><trkpt lat="42.1948558" lon="13.6905686"><ele>692.0</ele><time>2026-05-02T10:47:37.932Z</time></trkpt><trkpt lat="42.1947414" lon="13.6905261"><ele>690.2857142857142</ele><time>2026-05-02T10:47:39.93Z</time></trkpt><trkpt lat="42.194669" lon="13.6905099"><ele>688.5714285714287</ele><time>2026-05-02T10:47:40.931Z</time></trkpt><trkpt lat="42.1945917" lon="13.6904919"><ele>686.8571428571429</ele><time>2026-05-02T10:47:41.931Z</time></trkpt><trkpt lat="42.1945218" lon="13.6904678"><ele>685.1428571428571</ele><time>2026-05-02T10:47:42.93Z</time></trkpt><trkpt lat="42.1944564" lon="13.6904313"><ele>683.4285714285713</ele><time>2026-05-02T10:47:43.931Z</time></trkpt><trkpt lat="42.194396" lon="13.6903893"><ele>681.7142857142858</ele><time>2026-05-02T10:47:44.931Z</time></trkpt><trkpt lat="42.1943404" lon="13.6903428"><ele>680.0</ele><time>2026-05-02T10:47:45.932Z</time></trkpt><trkpt lat="42.1942843" lon="13.6902832"><ele>679.5714285714286</ele><time>2026-05-02T10:47:46.931Z</time></trkpt><trkpt lat="42.1942356" lon="13.6902119"><ele>679.1428571428571</ele><time>2026-05-02T10:47:47.932Z</time></trkpt><trkpt lat="42.194186" lon="13.6901369"><ele>678.7142857142857</ele><time>2026-05-02T10:47:48.93Z</time></trkpt><trkpt lat="42.1941354" lon="13.6900684"><ele>678.2857142857142</ele><time>2026-05-02T10:47:49.931Z</time></trkpt><trkpt lat="42.1940855" lon="13.69"><ele>677.8571428571429</ele><time>2026-05-02T10:47:50.931Z</time></trkpt><trkpt lat="42.1940427" lon="13.6899192"><ele>677.4285714285713</ele><time>2026-05-02T10:47:51.931Z</time></trkpt><trkpt lat="42.1940113" lon="13.6898324"><ele>677.0</ele><time>2026-05-02T10:47:52.931Z</time></trkpt><trkpt lat="42.1939819" lon="13.6897377"><ele>674.6</ele><time>2026-05-02T10:47:53.932Z</time></trkpt><trkpt lat="42.1939501" lon="13.6896504"><ele>672.2</ele><time>2026-05-02T10:47:54.931Z</time></trkpt><trkpt lat="42.1938753" lon="13.6895187"><ele>669.8</ele><time>2026-05-02T10:47:56.931Z</time></trkpt><trkpt lat="42.1937726" lon="13.6894548"><ele>667.4</ele><time>2026-05-02T10:47:58.931Z</time></trkpt><trkpt lat="42.1936629" lon="13.6894302"><ele>665.0</ele><time>2026-05-02T10:48:00.931Z</time></trkpt><trkpt lat="42.1935675" lon="13.6894399"><ele>665.0</ele><time>2026-05-02T10:48:02.931Z</time></trkpt><trkpt lat="42.1934931" lon="13.6894271"><ele>665.0</ele><time>2026-05-02T10:48:04.93Z</time></trkpt><trkpt lat="42.1934443" lon="13.6893734"><ele>665.0</ele><time>2026-05-02T10:48:06.93Z</time></trkpt><trkpt lat="42.193395" lon="13.6893057"><ele>665.0</ele><time>2026-05-02T10:48:08.931Z</time></trkpt><trkpt lat="42.1933443" lon="13.6892055"><ele>665.0</ele><time>2026-05-02T10:48:10.931Z</time></trkpt><trkpt lat="42.1932819" lon="13.6891043"><ele>665.0</ele><time>2026-05-02T10:48:12.931Z</time></trkpt><trkpt lat="42.1932068" lon="13.6889973"><ele>665.1666666666666</ele><time>2026-05-02T10:48:14.931Z</time></trkpt><trkpt lat="42.1931486" lon="13.6888666"><ele>665.3333333333333</ele><time>2026-05-02T10:48:16.932Z</time></trkpt><trkpt lat="42.1931293" lon="13.6887833"><ele>665.5</ele><time>2026-05-02T10:48:17.931Z</time></trkpt><trkpt lat="42.1931101" lon="13.6887001"><ele>665.6666666666666</ele><time>2026-05-02T10:48:18.931Z</time></trkpt><trkpt lat="42.1930844" lon="13.6886207"><ele>665.8333333333334</ele><time>2026-05-02T10:48:19.931Z</time></trkpt><trkpt lat="42.1930458" lon="13.6884716"><ele>666.0</ele><time>2026-05-02T10:48:21.931Z</time></trkpt><trkpt lat="42.1930377" lon="13.6883383"><ele>668.0</ele><time>2026-05-02T10:48:23.931Z</time></trkpt><trkpt lat="42.1930399" lon="13.6882022"><ele>670.0</ele><time>2026-05-02T10:48:25.932Z</time></trkpt><trkpt lat="42.1930646" lon="13.6880372"><ele>672.0</ele><time>2026-05-02T10:48:27.931Z</time></trkpt><trkpt lat="42.1930821" lon="13.6878977"><ele>674.0</ele><time>2026-05-02T10:48:29.93Z</time></trkpt><trkpt lat="42.1930783" lon="13.6878035"><ele>676.0</ele><time>2026-05-02T10:48:30.932Z</time></trkpt><trkpt lat="42.1930454" lon="13.6876201"><ele>676.1666666666667</ele><time>2026-05-02T10:48:32.931Z</time></trkpt><trkpt lat="42.1930118" lon="13.6875203"><ele>676.3333333333334</ele><time>2026-05-02T10:48:33.931Z</time></trkpt><trkpt lat="42.1929886" lon="13.6874241"><ele>676.5</ele><time>2026-05-02T10:48:34.931Z</time></trkpt><trkpt lat="42.1929709" lon="13.6873319"><ele>676.6666666666666</ele><time>2026-05-02T10:48:35.931Z</time></trkpt><trkpt lat="42.1929519" lon="13.6872288"><ele>676.8333333333333</ele><time>2026-05-02T10:48:36.931Z</time></trkpt><trkpt lat="42.1929534" lon="13.6871403"><ele>677.0</ele><time>2026-05-02T10:48:37.932Z</time></trkpt><trkpt lat="42.1929647" lon="13.6870293"><ele>676.6</ele><time>2026-05-02T10:48:38.931Z</time></trkpt><trkpt lat="42.192989" lon="13.6869148"><ele>676.2</ele><time>2026-05-02T10:48:39.931Z</time></trkpt><trkpt lat="42.1930197" lon="13.6867984"><ele>675.8</ele><time>2026-05-02T10:48:40.931Z</time></trkpt><trkpt lat="42.193056" lon="13.6866594"><ele>675.4</ele><time>2026-05-02T10:48:41.93Z</time></trkpt><trkpt lat="42.1930869" lon="13.6865179"><ele>675.0</ele><time>2026-05-02T10:48:42.932Z</time></trkpt><trkpt lat="42.1931164" lon="13.6863815"><ele>675.0</ele><time>2026-05-02T10:48:43.93Z</time></trkpt><trkpt lat="42.1931452" lon="13.6862543"><ele>675.0</ele><time>2026-05-02T10:48:44.931Z</time></trkpt><trkpt lat="42.193177" lon="13.6861226"><ele>675.0</ele><time>2026-05-02T10:48:45.93Z</time></trkpt><trkpt lat="42.1932065" lon="13.6860055"><ele>675.0</ele><time>2026-05-02T10:48:46.931Z</time></trkpt><trkpt lat="42.19323" lon="13.6858858"><ele>675.0</ele><time>2026-05-02T10:48:47.93Z</time></trkpt><trkpt lat="42.1932315" lon="13.685777"><ele>675.0</ele><time>2026-05-02T10:48:48.932Z</time></trkpt><trkpt lat="42.193219" lon="13.6856588"><ele>675.0</ele><time>2026-05-02T10:48:49.931Z</time></trkpt><trkpt lat="42.1932013" lon="13.685546"><ele>675.0</ele><time>2026-05-02T10:48:50.932Z</time></trkpt><trkpt lat="42.1931878" lon="13.6854335"><ele>675.0</ele><time>2026-05-02T10:48:51.931Z</time></trkpt><trkpt lat="42.1931837" lon="13.6853136"><ele>675.0</ele><time>2026-05-02T10:48:52.931Z</time></trkpt><trkpt lat="42.1932016" lon="13.6851878"><ele>675.0</ele><time>2026-05-02T10:48:53.93Z</time></trkpt><trkpt lat="42.1932122" lon="13.685067"><ele>674.8</ele><time>2026-05-02T10:48:54.93Z</time></trkpt><trkpt lat="42.1932146" lon="13.6849348"><ele>674.6</ele><time>2026-05-02T10:48:55.931Z</time></trkpt><trkpt lat="42.1932086" lon="13.6848053"><ele>674.4000000000001</ele><time>2026-05-02T10:48:56.931Z</time></trkpt><trkpt lat="42.1931883" lon="13.6846716"><ele>674.2</ele><time>2026-05-02T10:48:57.931Z</time></trkpt><trkpt lat="42.1931675" lon="13.6845435"><ele>674.0</ele><time>2026-05-02T10:48:58.931Z</time></trkpt><trkpt lat="42.1931418" lon="13.6844152"><ele>671.4000000000001</ele><time>2026-05-02T10:48:59.931Z</time></trkpt><trkpt lat="42.1931132" lon="13.6842957"><ele>668.8</ele><time>2026-05-02T10:49:00.93Z</time></trkpt><trkpt lat="42.1930849" lon="13.6841718"><ele>666.2</ele><time>2026-05-02T10:49:01.93Z</time></trkpt><trkpt lat="42.1930539" lon="13.6840452"><ele>663.5999999999999</ele><time>2026-05-02T10:49:02.93Z</time></trkpt><trkpt lat="42.1930236" lon="13.6839035"><ele>661.0</ele><time>2026-05-02T10:49:03.931Z</time></trkpt><trkpt lat="42.1929898" lon="13.683772"><ele>661.0</ele><time>2026-05-02T10:49:04.932Z</time></trkpt><trkpt lat="42.1929534" lon="13.6836438"><ele>661.0</ele><time>2026-05-02T10:49:05.931Z</time></trkpt><trkpt lat="42.1929275" lon="13.6835252"><ele>661.0</ele><time>2026-05-02T10:49:06.931Z</time></trkpt><trkpt lat="42.1928985" lon="13.6833966"><ele>661.0</ele><time>2026-05-02T10:49:07.93Z</time></trkpt><trkpt lat="42.192875" lon="13.6832644"><ele>661.0</ele><time>2026-05-02T10:49:08.93Z</time></trkpt><trkpt lat="42.192856" lon="13.6831255"><ele>661.5999999999999</ele><time>2026-05-02T10:49:09.931Z</time></trkpt><trkpt lat="42.1928356" lon="13.6829923"><ele>662.2</ele><time>2026-05-02T10:49:10.93Z</time></trkpt><trkpt lat="42.1928139" lon="13.682858"><ele>662.8</ele><time>2026-05-02T10:49:11.931Z</time></trkpt><trkpt lat="42.1927915" lon="13.6827321"><ele>663.4000000000001</ele><time>2026-05-02T10:49:12.931Z</time></trkpt><trkpt lat="42.1927783" lon="13.6826255"><ele>664.0</ele><time>2026-05-02T10:49:13.931Z</time></trkpt><trkpt lat="42.1927463" lon="13.6824605"><ele>664.2</ele><time>2026-05-02T10:49:15.931Z</time></trkpt><trkpt lat="42.1927298" lon="13.6823747"><ele>664.4000000000001</ele><time>2026-05-02T10:49:16.932Z</time></trkpt><trkpt lat="42.1926924" lon="13.6822296"><ele>664.6</ele><time>2026-05-02T10:49:18.931Z</time></trkpt><trkpt lat="42.1926648" lon="13.682114"><ele>664.8</ele><time>2026-05-02T10:49:20.931Z</time></trkpt><trkpt lat="42.1926971" lon="13.6819657"><ele>665.0</ele><time>2026-05-02T10:49:22.932Z</time></trkpt><trkpt lat="42.1927249" lon="13.6818698"><ele>665.0</ele><time>2026-05-02T10:49:23.931Z</time></trkpt><trkpt lat="42.1927443" lon="13.6817812"><ele>665.0</ele><time>2026-05-02T10:49:24.931Z</time></trkpt><trkpt lat="42.1927699" lon="13.6816336"><ele>665.0</ele><time>2026-05-02T10:49:26.931Z</time></trkpt><trkpt lat="42.1927788" lon="13.6815043"><ele>665.0</ele><time>2026-05-02T10:49:28.93Z</time></trkpt><trkpt lat="42.1927796" lon="13.6813641"><ele>665.0</ele><time>2026-05-02T10:49:30.931Z</time></trkpt><trkpt lat="42.1927781" lon="13.6812221"><ele>665.0</ele><time>2026-05-02T10:49:32.93Z</time></trkpt><trkpt lat="42.1928043" lon="13.6811062"><ele>665.0</ele><time>2026-05-02T10:49:34.931Z</time></trkpt><trkpt lat="42.1928986" lon="13.6809953"><ele>665.0</ele><time>2026-05-02T10:49:36.931Z</time></trkpt><trkpt lat="42.19295" lon="13.6809411"><ele>665.0</ele><time>2026-05-02T10:49:37.93Z</time></trkpt><trkpt lat="42.1930432" lon="13.6808427"><ele>665.0</ele><time>2026-05-02T10:49:39.931Z</time></trkpt><trkpt lat="42.1930935" lon="13.6807463"><ele>662.4</ele><time>2026-05-02T10:49:41.93Z</time></trkpt><trkpt lat="42.1930714" lon="13.6806234"><ele>659.8</ele><time>2026-05-02T10:49:43.93Z</time></trkpt><trkpt lat="42.1930179" lon="13.6804449"><ele>657.2</ele><time>2026-05-02T10:49:45.932Z</time></trkpt><trkpt lat="42.1929954" lon="13.6803507"><ele>654.6</ele><time>2026-05-02T10:49:46.932Z</time></trkpt><trkpt lat="42.1929921" lon="13.6802601"><ele>652.0</ele><time>2026-05-02T10:49:47.93Z</time></trkpt><trkpt lat="42.1929794" lon="13.6801055"><ele>649.2</ele><time>2026-05-02T10:49:49.931Z</time></trkpt><trkpt lat="42.1929619" lon="13.6799852"><ele>646.4000000000001</ele><time>2026-05-02T10:49:51.93Z</time></trkpt><trkpt lat="42.1929739" lon="13.6798761"><ele>643.5999999999999</ele><time>2026-05-02T10:49:52.93Z</time></trkpt><trkpt lat="42.1929994" lon="13.6797574"><ele>640.8</ele><time>2026-05-02T10:49:53.932Z</time></trkpt><trkpt lat="42.1930293" lon="13.6796242"><ele>638.0</ele><time>2026-05-02T10:49:54.931Z</time></trkpt><trkpt lat="42.1930805" lon="13.6794884"><ele>637.75</ele><time>2026-05-02T10:49:55.931Z</time></trkpt><trkpt lat="42.1931423" lon="13.6793588"><ele>637.5</ele><time>2026-05-02T10:49:56.93Z</time></trkpt><trkpt lat="42.1932187" lon="13.6792313"><ele>637.25</ele><time>2026-05-02T10:49:57.932Z</time></trkpt><trkpt lat="42.1933002" lon="13.6791016"><ele>637.0</ele><time>2026-05-02T10:49:58.93Z</time></trkpt><trkpt lat="42.1933853" lon="13.6789672"><ele>637.5</ele><time>2026-05-02T10:49:59.931Z</time></trkpt><trkpt lat="42.1934798" lon="13.6788345"><ele>638.0</ele><time>2026-05-02T10:50:00.931Z</time></trkpt><trkpt lat="42.1935755" lon="13.6786877"><ele>638.5</ele><time>2026-05-02T10:50:01.93Z</time></trkpt><trkpt lat="42.1936733" lon="13.6785356"><ele>639.0</ele><time>2026-05-02T10:50:02.93Z</time></trkpt><trkpt lat="42.193777" lon="13.6783759"><ele>639.0</ele><time>2026-05-02T10:50:03.93Z</time></trkpt><trkpt lat="42.1938818" lon="13.6782186"><ele>639.0</ele><time>2026-05-02T10:50:04.93Z</time></trkpt><trkpt lat="42.1939847" lon="13.6780556"><ele>639.0</ele><time>2026-05-02T10:50:05.932Z</time></trkpt><trkpt lat="42.1940946" lon="13.6778908"><ele>640.3333333333334</ele><time>2026-05-02T10:50:06.932Z</time></trkpt><trkpt lat="42.1942018" lon="13.6777211"><ele>641.6666666666667</ele><time>2026-05-02T10:50:07.93Z</time></trkpt><trkpt lat="42.1943159" lon="13.6775403"><ele>643.0</ele><time>2026-05-02T10:50:08.931Z</time></trkpt><trkpt lat="42.194428" lon="13.6773686"><ele>643.0</ele><time>2026-05-02T10:50:09.929Z</time></trkpt><trkpt lat="42.1945368" lon="13.6771886"><ele>643.0</ele><time>2026-05-02T10:50:10.93Z</time></trkpt><trkpt lat="42.1946417" lon="13.6770068"><ele>643.0</ele><time>2026-05-02T10:50:11.93Z</time></trkpt><trkpt lat="42.1947314" lon="13.6768223"><ele>644.25</ele><time>2026-05-02T10:50:12.93Z</time></trkpt><trkpt lat="42.1948156" lon="13.6766441"><ele>645.5</ele><time>2026-05-02T10:50:13.93Z</time></trkpt><trkpt lat="42.1948881" lon="13.6764736"><ele>646.75</ele><time>2026-05-02T10:50:14.931Z</time></trkpt><trkpt lat="42.1949629" lon="13.6763115"><ele>648.0</ele><time>2026-05-02T10:50:15.931Z</time></trkpt><trkpt lat="42.1950368" lon="13.6761471"><ele>646.0</ele><time>2026-05-02T10:50:16.931Z</time></trkpt><trkpt lat="42.1951126" lon="13.6759868"><ele>644.0</ele><time>2026-05-02T10:50:17.931Z</time></trkpt><trkpt lat="42.1951963" lon="13.6758327"><ele>642.0</ele><time>2026-05-02T10:50:18.932Z</time></trkpt><trkpt lat="42.1952964" lon="13.6756961"><ele>640.0</ele><time>2026-05-02T10:50:19.93Z</time></trkpt><trkpt lat="42.1954106" lon="13.6755738"><ele>640.0</ele><time>2026-05-02T10:50:20.931Z</time></trkpt><trkpt lat="42.195529" lon="13.6754716"><ele>640.0</ele><time>2026-05-02T10:50:21.931Z</time></trkpt><trkpt lat="42.1956533" lon="13.6753693"><ele>640.0</ele><time>2026-05-02T10:50:22.93Z</time></trkpt><trkpt lat="42.1957801" lon="13.6752583"><ele>640.0</ele><time>2026-05-02T10:50:23.93Z</time></trkpt><trkpt lat="42.1959023" lon="13.6751441"><ele>639.6666666666667</ele><time>2026-05-02T10:50:24.93Z</time></trkpt><trkpt lat="42.1960292" lon="13.6750188"><ele>639.3333333333334</ele><time>2026-05-02T10:50:25.931Z</time></trkpt><trkpt lat="42.1961439" lon="13.6748747"><ele>639.0</ele><time>2026-05-02T10:50:26.93Z</time></trkpt><trkpt lat="42.196257" lon="13.6747212"><ele>639.0</ele><time>2026-05-02T10:50:27.931Z</time></trkpt><trkpt lat="42.1963636" lon="13.6745585"><ele>639.0</ele><time>2026-05-02T10:50:28.931Z</time></trkpt><trkpt lat="42.1964695" lon="13.6743872"><ele>639.0</ele><time>2026-05-02T10:50:29.93Z</time></trkpt><trkpt lat="42.1965724" lon="13.674212"><ele>638.0</ele><time>2026-05-02T10:50:30.93Z</time></trkpt><trkpt lat="42.1966723" lon="13.6740371"><ele>637.0</ele><time>2026-05-02T10:50:31.929Z</time></trkpt><trkpt lat="42.1967768" lon="13.6738642"><ele>636.0</ele><time>2026-05-02T10:50:32.93Z</time></trkpt><trkpt lat="42.196878" lon="13.6736924"><ele>633.75</ele><time>2026-05-02T10:50:33.93Z</time></trkpt><trkpt lat="42.1969727" lon="13.6735292"><ele>631.5</ele><time>2026-05-02T10:50:34.932Z</time></trkpt><trkpt lat="42.1970566" lon="13.6733735"><ele>629.25</ele><time>2026-05-02T10:50:35.931Z</time></trkpt><trkpt lat="42.1971272" lon="13.6732094"><ele>627.0</ele><time>2026-05-02T10:50:36.93Z</time></trkpt><trkpt lat="42.1971766" lon="13.673047"><ele>627.0</ele><time>2026-05-02T10:50:37.93Z</time></trkpt><trkpt lat="42.197225" lon="13.672896"><ele>627.0</ele><time>2026-05-02T10:50:38.931Z</time></trkpt><trkpt lat="42.1972739" lon="13.6727517"><ele>627.0</ele><time>2026-05-02T10:50:39.932Z</time></trkpt><trkpt lat="42.1973398" lon="13.6726363"><ele>627.0</ele><time>2026-05-02T10:50:40.93Z</time></trkpt><trkpt lat="42.1974085" lon="13.6725271"><ele>627.8000000000001</ele><time>2026-05-02T10:50:41.93Z</time></trkpt><trkpt lat="42.1974906" lon="13.6724389"><ele>628.6</ele><time>2026-05-02T10:50:42.931Z</time></trkpt><trkpt lat="42.1975854" lon="13.6723739"><ele>629.4000000000001</ele><time>2026-05-02T10:50:43.931Z</time></trkpt><trkpt lat="42.1976934" lon="13.6723309"><ele>630.2</ele><time>2026-05-02T10:50:44.929Z</time></trkpt><trkpt lat="42.1977993" lon="13.6723191"><ele>631.0</ele><time>2026-05-02T10:50:45.931Z</time></trkpt><trkpt lat="42.1979074" lon="13.6723425"><ele>631.0</ele><time>2026-05-02T10:50:46.93Z</time></trkpt><trkpt lat="42.1980204" lon="13.672392"><ele>631.0</ele><time>2026-05-02T10:50:47.93Z</time></trkpt><trkpt lat="42.1981334" lon="13.6724407"><ele>631.0</ele><time>2026-05-02T10:50:48.931Z</time></trkpt><trkpt lat="42.1982519" lon="13.672472"><ele>631.0</ele><time>2026-05-02T10:50:49.931Z</time></trkpt><trkpt lat="42.198371" lon="13.6724868"><ele>632.2</ele><time>2026-05-02T10:50:50.93Z</time></trkpt><trkpt lat="42.1984783" lon="13.6724745"><ele>633.4000000000001</ele><time>2026-05-02T10:50:51.93Z</time></trkpt><trkpt lat="42.1985756" lon="13.6724373"><ele>634.6</ele><time>2026-05-02T10:50:52.931Z</time></trkpt><trkpt lat="42.1986541" lon="13.6723693"><ele>635.8000000000001</ele><time>2026-05-02T10:50:53.93Z</time></trkpt><trkpt lat="42.1987068" lon="13.6722796"><ele>637.0</ele><time>2026-05-02T10:50:54.929Z</time></trkpt><trkpt lat="42.1987356" lon="13.6721852"><ele>637.0</ele><time>2026-05-02T10:50:55.93Z</time></trkpt><trkpt lat="42.1987219" lon="13.6720641"><ele>637.0</ele><time>2026-05-02T10:50:56.93Z</time></trkpt><trkpt lat="42.1987125" lon="13.6719344"><ele>637.0</ele><time>2026-05-02T10:50:57.93Z</time></trkpt><trkpt lat="42.1987028" lon="13.6717984"><ele>637.0</ele><time>2026-05-02T10:50:58.93Z</time></trkpt><trkpt lat="42.1987098" lon="13.6716606"><ele>637.0</ele><time>2026-05-02T10:50:59.93Z</time></trkpt><trkpt lat="42.1987497" lon="13.671536"><ele>636.4</ele><time>2026-05-02T10:51:00.932Z</time></trkpt><trkpt lat="42.1987887" lon="13.6714137"><ele>635.8000000000001</ele><time>2026-05-02T10:51:01.93Z</time></trkpt><trkpt lat="42.1988439" lon="13.6712969"><ele>635.2</ele><time>2026-05-02T10:51:02.931Z</time></trkpt><trkpt lat="42.1989187" lon="13.6711877"><ele>634.6</ele><time>2026-05-02T10:51:03.93Z</time></trkpt><trkpt lat="42.1990104" lon="13.6710854"><ele>634.0</ele><time>2026-05-02T10:51:04.93Z</time></trkpt><trkpt lat="42.1991057" lon="13.6709752"><ele>634.0</ele><time>2026-05-02T10:51:05.929Z</time></trkpt><trkpt lat="42.199185" lon="13.6708283"><ele>634.0</ele><time>2026-05-02T10:51:06.931Z</time></trkpt><trkpt lat="42.1992628" lon="13.670677"><ele>634.0</ele><time>2026-05-02T10:51:07.93Z</time></trkpt><trkpt lat="42.1993282" lon="13.6705127"><ele>634.0</ele><time>2026-05-02T10:51:08.929Z</time></trkpt><trkpt lat="42.1993944" lon="13.6703443"><ele>630.5</ele><time>2026-05-02T10:51:09.93Z</time></trkpt><trkpt lat="42.199458" lon="13.6701781"><ele>627.0</ele><time>2026-05-02T10:51:10.931Z</time></trkpt><trkpt lat="42.199551" lon="13.6700239"><ele>623.5</ele><time>2026-05-02T10:51:11.931Z</time></trkpt><trkpt lat="42.1996435" lon="13.6698805"><ele>620.0</ele><time>2026-05-02T10:51:12.93Z</time></trkpt><trkpt lat="42.1997423" lon="13.6697437"><ele>622.5</ele><time>2026-05-02T10:51:13.932Z</time></trkpt><trkpt lat="42.199846" lon="13.6696211"><ele>625.0</ele><time>2026-05-02T10:51:14.929Z</time></trkpt><trkpt lat="42.1999477" lon="13.6695074"><ele>627.5</ele><time>2026-05-02T10:51:15.93Z</time></trkpt><trkpt lat="42.2000408" lon="13.6694058"><ele>630.0</ele><time>2026-05-02T10:51:16.93Z</time></trkpt><trkpt lat="42.2001303" lon="13.6693042"><ele>630.0</ele><time>2026-05-02T10:51:17.93Z</time></trkpt><trkpt lat="42.2002061" lon="13.6691908"><ele>630.0</ele><time>2026-05-02T10:51:18.93Z</time></trkpt><trkpt lat="42.2002705" lon="13.6690681"><ele>630.0</ele><time>2026-05-02T10:51:19.93Z</time></trkpt><trkpt lat="42.2003299" lon="13.6689437"><ele>630.0</ele><time>2026-05-02T10:51:20.931Z</time></trkpt><trkpt lat="42.2003803" lon="13.6688141"><ele>630.0</ele><time>2026-05-02T10:51:21.93Z</time></trkpt><trkpt lat="42.2004244" lon="13.6686945"><ele>628.0</ele><time>2026-05-02T10:51:22.931Z</time></trkpt><trkpt lat="42.2004625" lon="13.6685902"><ele>626.0</ele><time>2026-05-02T10:51:23.932Z</time></trkpt><trkpt lat="42.2004673" lon="13.6684695"><ele>624.0</ele><time>2026-05-02T10:51:25.93Z</time></trkpt><trkpt lat="42.2003975" lon="13.6684319"><ele>622.0</ele><time>2026-05-02T10:51:27.93Z</time></trkpt><trkpt lat="42.2003351" lon="13.668476"><ele>620.0</ele><time>2026-05-02T10:51:28.931Z</time></trkpt><trkpt lat="42.2002606" lon="13.6685284"><ele>618.0</ele><time>2026-05-02T10:51:29.931Z</time></trkpt><trkpt lat="42.2001839" lon="13.668582"><ele>620.4</ele><time>2026-05-02T10:51:30.931Z</time></trkpt><trkpt lat="42.2001042" lon="13.6686455"><ele>622.8</ele><time>2026-05-02T10:51:31.93Z</time></trkpt><trkpt lat="42.2000259" lon="13.6687299"><ele>625.2</ele><time>2026-05-02T10:51:32.93Z</time></trkpt><trkpt lat="42.1999557" lon="13.668826"><ele>627.6</ele><time>2026-05-02T10:51:33.93Z</time></trkpt><trkpt lat="42.199884" lon="13.6689204"><ele>630.0</ele><time>2026-05-02T10:51:34.931Z</time></trkpt><trkpt lat="42.1998165" lon="13.6690151"><ele>628.3333333333334</ele><time>2026-05-02T10:51:35.93Z</time></trkpt><trkpt lat="42.1997549" lon="13.669109"><ele>626.6666666666666</ele><time>2026-05-02T10:51:36.93Z</time></trkpt><trkpt lat="42.199704" lon="13.669198"><ele>625.0</ele><time>2026-05-02T10:51:37.931Z</time></trkpt><trkpt lat="42.199662" lon="13.6692878"><ele>623.3333333333333</ele><time>2026-05-02T10:51:38.929Z</time></trkpt><trkpt lat="42.1996209" lon="13.669369"><ele>621.6666666666666</ele><time>2026-05-02T10:51:39.931Z</time></trkpt><trkpt lat="42.1995698" lon="13.6694419"><ele>620.0</ele><time>2026-05-02T10:51:40.931Z</time></trkpt><trkpt lat="42.1995164" lon="13.6694871"><ele>620.0</ele><time>2026-05-02T10:51:41.931Z</time></trkpt><trkpt lat="42.1994274" lon="13.6694989"><ele>620.0</ele><time>2026-05-02T10:51:43.93Z</time></trkpt><trkpt lat="42.1993993" lon="13.6693816"><ele>620.0</ele><time>2026-05-02T10:51:45.931Z</time></trkpt><trkpt lat="42.1994033" lon="13.6692967"><ele>620.0</ele><time>2026-05-02T10:51:46.93Z</time></trkpt><trkpt lat="42.1994269" lon="13.6691705"><ele>620.0</ele><time>2026-05-02T10:51:47.931Z</time></trkpt><trkpt lat="42.1994449" lon="13.6690252"><ele>620.0</ele><time>2026-05-02T10:51:48.931Z</time></trkpt><trkpt lat="42.1994579" lon="13.6688741"><ele>616.5</ele><time>2026-05-02T10:51:49.93Z</time></trkpt><trkpt lat="42.1994571" lon="13.6687203"><ele>613.0</ele><time>2026-05-02T10:51:50.931Z</time></trkpt><trkpt lat="42.1994384" lon="13.6685682"><ele>609.5</ele><time>2026-05-02T10:51:51.931Z</time></trkpt><trkpt lat="42.1994073" lon="13.6684215"><ele>606.0</ele><time>2026-05-02T10:51:52.931Z</time></trkpt><trkpt lat="42.199368" lon="13.6682732"><ele>606.4</ele><time>2026-05-02T10:51:53.932Z</time></trkpt><trkpt lat="42.1993321" lon="13.6681395"><ele>606.8</ele><time>2026-05-02T10:51:54.931Z</time></trkpt><trkpt lat="42.1992976" lon="13.6680139"><ele>607.1999999999999</ele><time>2026-05-02T10:51:55.931Z</time></trkpt><trkpt lat="42.1992711" lon="13.6678884"><ele>607.6</ele><time>2026-05-02T10:51:56.931Z</time></trkpt><trkpt lat="42.1992488" lon="13.6677795"><ele>608.0</ele><time>2026-05-02T10:51:57.931Z</time></trkpt><trkpt lat="42.1992339" lon="13.667686"><ele>608.0</ele><time>2026-05-02T10:51:58.929Z</time></trkpt><trkpt lat="42.1992093" lon="13.667537"><ele>608.0</ele><time>2026-05-02T10:52:00.931Z</time></trkpt><trkpt lat="42.1991846" lon="13.6674537"><ele>608.0</ele><time>2026-05-02T10:52:02.931Z</time></trkpt><trkpt lat="42.1991168" lon="13.6673534"><ele>608.0</ele><time>2026-05-02T10:52:05.93Z</time></trkpt><trkpt lat="42.1990594" lon="13.6672278"><ele>608.0</ele><time>2026-05-02T10:52:07.93Z</time></trkpt><trkpt lat="42.1990391" lon="13.6670684"><ele>608.1666666666666</ele><time>2026-05-02T10:52:09.93Z</time></trkpt><trkpt lat="42.1990522" lon="13.6669306"><ele>608.3333333333333</ele><time>2026-05-02T10:52:11.931Z</time></trkpt><trkpt lat="42.1991031" lon="13.6668471"><ele>608.5</ele><time>2026-05-02T10:52:13.929Z</time></trkpt><trkpt lat="42.1991821" lon="13.6668201"><ele>608.6666666666666</ele><time>2026-05-02T10:52:15.931Z</time></trkpt><trkpt lat="42.1992514" lon="13.6667998"><ele>608.8333333333334</ele><time>2026-05-02T10:52:17.93Z</time></trkpt><trkpt lat="42.1992689" lon="13.666662"><ele>609.0</ele><time>2026-05-02T10:52:20.93Z</time></trkpt><trkpt lat="42.1992497" lon="13.6664904"><ele>609.0</ele><time>2026-05-02T10:52:22.93Z</time></trkpt><trkpt lat="42.199248" lon="13.6664049"><ele>609.0</ele><time>2026-05-02T10:52:23.93Z</time></trkpt><trkpt lat="42.1992555" lon="13.6663106"><ele>609.0</ele><time>2026-05-02T10:52:24.93Z</time></trkpt><trkpt lat="42.1992672" lon="13.6662144"><ele>609.0</ele><time>2026-05-02T10:52:25.929Z</time></trkpt><trkpt lat="42.1992749" lon="13.6661005"><ele>609.0</ele><time>2026-05-02T10:52:26.929Z</time></trkpt><trkpt lat="42.1993125" lon="13.6660041"><ele>609.0</ele><time>2026-05-02T10:52:27.931Z</time></trkpt><trkpt lat="42.1993423" lon="13.6659049"><ele>608.2</ele><time>2026-05-02T10:52:28.932Z</time></trkpt><trkpt lat="42.1994448" lon="13.6657394"><ele>607.4</ele><time>2026-05-02T10:52:30.93Z</time></trkpt><trkpt lat="42.1994921" lon="13.6656403"><ele>606.6</ele><time>2026-05-02T10:52:31.929Z</time></trkpt><trkpt lat="42.1995448" lon="13.6655355"><ele>605.8</ele><time>2026-05-02T10:52:32.93Z</time></trkpt><trkpt lat="42.1995939" lon="13.6654374"><ele>605.0</ele><time>2026-05-02T10:52:33.931Z</time></trkpt><trkpt lat="42.1996432" lon="13.665342"><ele>605.0</ele><time>2026-05-02T10:52:34.931Z</time></trkpt><trkpt lat="42.1996993" lon="13.6652536"><ele>605.0</ele><time>2026-05-02T10:52:35.931Z</time></trkpt><trkpt lat="42.1997601" lon="13.6651851"><ele>605.0</ele><time>2026-05-02T10:52:36.931Z</time></trkpt><trkpt lat="42.1998204" lon="13.6651178"><ele>605.0</ele><time>2026-05-02T10:52:37.93Z</time></trkpt><trkpt lat="42.1998824" lon="13.6650567"><ele>605.0</ele><time>2026-05-02T10:52:38.929Z</time></trkpt><trkpt lat="42.1999433" lon="13.6649961"><ele>605.0</ele><time>2026-05-02T10:52:39.93Z</time></trkpt><trkpt lat="42.2000006" lon="13.6649454"><ele>605.0</ele><time>2026-05-02T10:52:40.931Z</time></trkpt><trkpt lat="42.2000571" lon="13.6648958"><ele>605.0</ele><time>2026-05-02T10:52:41.93Z</time></trkpt><trkpt lat="42.2001301" lon="13.6648494"><ele>605.0</ele><time>2026-05-02T10:52:42.93Z</time></trkpt><trkpt lat="42.200199" lon="13.66481"><ele>605.0</ele><time>2026-05-02T10:52:43.93Z</time></trkpt><trkpt lat="42.2002741" lon="13.6647797"><ele>605.0</ele><time>2026-05-02T10:52:44.931Z</time></trkpt><trkpt lat="42.2003478" lon="13.6647533"><ele>605.0</ele><time>2026-05-02T10:52:45.93Z</time></trkpt><trkpt lat="42.2004263" lon="13.6647174"><ele>605.0</ele><time>2026-05-02T10:52:46.931Z</time></trkpt><trkpt lat="42.2005068" lon="13.6646757"><ele>605.0</ele><time>2026-05-02T10:52:47.93Z</time></trkpt><trkpt lat="42.2005893" lon="13.6646304"><ele>605.0</ele><time>2026-05-02T10:52:48.93Z</time></trkpt><trkpt lat="42.2006608" lon="13.6645825"><ele>605.0</ele><time>2026-05-02T10:52:49.93Z</time></trkpt><trkpt lat="42.2007184" lon="13.6645374"><ele>605.0</ele><time>2026-05-02T10:52:50.93Z</time></trkpt><trkpt lat="42.2007873" lon="13.6645142"><ele>605.0</ele><time>2026-05-02T10:52:51.93Z</time></trkpt><trkpt lat="42.2008423" lon="13.6644696"><ele>601.6666666666666</ele><time>2026-05-02T10:52:52.93Z</time></trkpt><trkpt lat="42.2008974" lon="13.6644105"><ele>598.3333333333333</ele><time>2026-05-02T10:52:53.93Z</time></trkpt><trkpt lat="42.2010039" lon="13.6642669"><ele>595.0</ele><time>2026-05-02T10:52:55.929Z</time></trkpt><trkpt lat="42.2010608" lon="13.6641882"><ele>591.6666666666666</ele><time>2026-05-02T10:52:56.929Z</time></trkpt><trkpt lat="42.2011224" lon="13.664122"><ele>588.3333333333334</ele><time>2026-05-02T10:52:57.929Z</time></trkpt><trkpt lat="42.2011809" lon="13.6640818"><ele>585.0</ele><time>2026-05-02T10:52:58.931Z</time></trkpt><trkpt lat="42.2012473" lon="13.6640687"><ele>585.0</ele><time>2026-05-02T10:52:59.93Z</time></trkpt><trkpt lat="42.2013177" lon="13.6640384"><ele>585.0</ele><time>2026-05-02T10:53:00.93Z</time></trkpt><trkpt lat="42.2014012" lon="13.6640265"><ele>585.0</ele><time>2026-05-02T10:53:01.931Z</time></trkpt><trkpt lat="42.2014797" lon="13.6639944"><ele>585.0</ele><time>2026-05-02T10:53:02.93Z</time></trkpt><trkpt lat="42.2015649" lon="13.6639562"><ele>585.0</ele><time>2026-05-02T10:53:03.93Z</time></trkpt><trkpt lat="42.2016489" lon="13.6639395"><ele>585.0</ele><time>2026-05-02T10:53:04.931Z</time></trkpt><trkpt lat="42.2017261" lon="13.6639171"><ele>584.2</ele><time>2026-05-02T10:53:05.931Z</time></trkpt><trkpt lat="42.2017893" lon="13.6638808"><ele>583.4</ele><time>2026-05-02T10:53:06.931Z</time></trkpt><trkpt lat="42.2018763" lon="13.6638115"><ele>582.6</ele><time>2026-05-02T10:53:08.931Z</time></trkpt><trkpt lat="42.2019356" lon="13.6636926"><ele>581.8</ele><time>2026-05-02T10:53:10.93Z</time></trkpt><trkpt lat="42.2020058" lon="13.6635285"><ele>581.0</ele><time>2026-05-02T10:53:12.931Z</time></trkpt><trkpt lat="42.2020432" lon="13.6634406"><ele>579.0</ele><time>2026-05-02T10:53:13.931Z</time></trkpt><trkpt lat="42.2020785" lon="13.663352"><ele>577.0</ele><time>2026-05-02T10:53:14.93Z</time></trkpt><trkpt lat="42.2021259" lon="13.6632504"><ele>575.0</ele><time>2026-05-02T10:53:15.931Z</time></trkpt><trkpt lat="42.2021769" lon="13.6631538"><ele>573.0</ele><time>2026-05-02T10:53:16.931Z</time></trkpt><trkpt lat="42.202219" lon="13.6630509"><ele>571.0</ele><time>2026-05-02T10:53:17.93Z</time></trkpt><trkpt lat="42.2022656" lon="13.6629426"><ele>569.0</ele><time>2026-05-02T10:53:18.93Z</time></trkpt><trkpt lat="42.2023056" lon="13.6628314"><ele>569.0</ele><time>2026-05-02T10:53:19.93Z</time></trkpt><trkpt lat="42.202335" lon="13.6627128"><ele>569.0</ele><time>2026-05-02T10:53:20.931Z</time></trkpt><trkpt lat="42.202368" lon="13.6625893"><ele>569.0</ele><time>2026-05-02T10:53:21.93Z</time></trkpt><trkpt lat="42.2024013" lon="13.6624586"><ele>569.0</ele><time>2026-05-02T10:53:22.929Z</time></trkpt><trkpt lat="42.2024366" lon="13.6623356"><ele>569.0</ele><time>2026-05-02T10:53:23.93Z</time></trkpt><trkpt lat="42.202481" lon="13.6622135"><ele>569.0</ele><time>2026-05-02T10:53:24.93Z</time></trkpt><trkpt lat="42.2025143" lon="13.6620878"><ele>569.0</ele><time>2026-05-02T10:53:25.932Z</time></trkpt><trkpt lat="42.2025439" lon="13.6619639"><ele>569.0</ele><time>2026-05-02T10:53:26.93Z</time></trkpt><trkpt lat="42.2025701" lon="13.6618373"><ele>569.0</ele><time>2026-05-02T10:53:27.931Z</time></trkpt><trkpt lat="42.2025919" lon="13.6617112"><ele>569.0</ele><time>2026-05-02T10:53:28.93Z</time></trkpt><trkpt lat="42.20262" lon="13.6615822"><ele>568.2</ele><time>2026-05-02T10:53:29.931Z</time></trkpt><trkpt lat="42.2026577" lon="13.6614574"><ele>567.4</ele><time>2026-05-02T10:53:30.931Z</time></trkpt><trkpt lat="42.2027142" lon="13.6613346"><ele>566.6</ele><time>2026-05-02T10:53:31.93Z</time></trkpt><trkpt lat="42.2027651" lon="13.6611931"><ele>565.8</ele><time>2026-05-02T10:53:32.93Z</time></trkpt><trkpt lat="42.2028133" lon="13.6610507"><ele>565.0</ele><time>2026-05-02T10:53:33.931Z</time></trkpt><trkpt lat="42.2028479" lon="13.6608977"><ele>564.2</ele><time>2026-05-02T10:53:34.93Z</time></trkpt><trkpt lat="42.2028857" lon="13.6607525"><ele>563.4</ele><time>2026-05-02T10:53:35.93Z</time></trkpt><trkpt lat="42.2029178" lon="13.6606147"><ele>562.6</ele><time>2026-05-02T10:53:36.93Z</time></trkpt><trkpt lat="42.202936" lon="13.6604745"><ele>561.8</ele><time>2026-05-02T10:53:37.93Z</time></trkpt><trkpt lat="42.2029575" lon="13.6603399"><ele>561.0</ele><time>2026-05-02T10:53:38.932Z</time></trkpt><trkpt lat="42.2029837" lon="13.6602142"><ele>560.0</ele><time>2026-05-02T10:53:39.93Z</time></trkpt><trkpt lat="42.2030135" lon="13.6600853"><ele>559.0</ele><time>2026-05-02T10:53:40.93Z</time></trkpt><trkpt lat="42.2030442" lon="13.6599539"><ele>558.0</ele><time>2026-05-02T10:53:41.93Z</time></trkpt><trkpt lat="42.2030909" lon="13.6598344"><ele>557.0</ele><time>2026-05-02T10:53:42.93Z</time></trkpt><trkpt lat="42.2031353" lon="13.6597115"><ele>556.0</ele><time>2026-05-02T10:53:43.931Z</time></trkpt><trkpt lat="42.2031724" lon="13.6595776"><ele>553.6</ele><time>2026-05-02T10:53:44.931Z</time></trkpt><trkpt lat="42.2032151" lon="13.6594431"><ele>551.2</ele><time>2026-05-02T10:53:45.932Z</time></trkpt><trkpt lat="42.2032587" lon="13.6593164"><ele>548.8</ele><time>2026-05-02T10:53:46.93Z</time></trkpt><trkpt lat="42.2033081" lon="13.6592019"><ele>546.4</ele><time>2026-05-02T10:53:47.929Z</time></trkpt><trkpt lat="42.2033581" lon="13.6590919"><ele>544.0</ele><time>2026-05-02T10:53:48.931Z</time></trkpt><trkpt lat="42.2034052" lon="13.6589889"><ele>544.0</ele><time>2026-05-02T10:53:49.929Z</time></trkpt><trkpt lat="42.2034474" lon="13.6589101"><ele>544.0</ele><time>2026-05-02T10:53:50.931Z</time></trkpt><trkpt lat="42.2035174" lon="13.6587751"><ele>544.0</ele><time>2026-05-02T10:53:52.931Z</time></trkpt><trkpt lat="42.203548" lon="13.658686"><ele>544.0</ele><time>2026-05-02T10:53:54.929Z</time></trkpt><trkpt lat="42.2035658" lon="13.6585922"><ele>544.0</ele><time>2026-05-02T10:53:57.929Z</time></trkpt><trkpt lat="42.2035165" lon="13.6585241"><ele>544.0</ele><time>2026-05-02T10:53:59.929Z</time></trkpt><trkpt lat="42.203405" lon="13.6584927"><ele>541.6</ele><time>2026-05-02T10:54:01.931Z</time></trkpt><trkpt lat="42.2032742" lon="13.6584387"><ele>539.2</ele><time>2026-05-02T10:54:03.93Z</time></trkpt><trkpt lat="42.2031961" lon="13.6584083"><ele>536.8000000000001</ele><time>2026-05-02T10:54:04.93Z</time></trkpt><trkpt lat="42.2031051" lon="13.6583709"><ele>534.4</ele><time>2026-05-02T10:54:05.931Z</time></trkpt><trkpt lat="42.2029977" lon="13.6583297"><ele>532.0</ele><time>2026-05-02T10:54:06.93Z</time></trkpt><trkpt lat="42.2028807" lon="13.6582665"><ele>531.75</ele><time>2026-05-02T10:54:07.929Z</time></trkpt><trkpt lat="42.202761" lon="13.6581649"><ele>531.5</ele><time>2026-05-02T10:54:08.93Z</time></trkpt><trkpt lat="42.202653" lon="13.6580445"><ele>531.25</ele><time>2026-05-02T10:54:09.93Z</time></trkpt><trkpt lat="42.202547" lon="13.6579285"><ele>531.0</ele><time>2026-05-02T10:54:10.931Z</time></trkpt><trkpt lat="42.2024431" lon="13.6578159"><ele>527.75</ele><time>2026-05-02T10:54:11.93Z</time></trkpt><trkpt lat="42.2023374" lon="13.6577086"><ele>524.5</ele><time>2026-05-02T10:54:12.931Z</time></trkpt><trkpt lat="42.2022344" lon="13.6576073"><ele>521.25</ele><time>2026-05-02T10:54:13.929Z</time></trkpt><trkpt lat="42.2021175" lon="13.6575245"><ele>518.0</ele><time>2026-05-02T10:54:14.93Z</time></trkpt><trkpt lat="42.2019936" lon="13.65747"><ele>517.75</ele><time>2026-05-02T10:54:15.93Z</time></trkpt><trkpt lat="42.201863" lon="13.6574515"><ele>517.5</ele><time>2026-05-02T10:54:16.93Z</time></trkpt><trkpt lat="42.2017314" lon="13.6574534"><ele>517.25</ele><time>2026-05-02T10:54:17.931Z</time></trkpt><trkpt lat="42.20159" lon="13.6574828"><ele>517.0</ele><time>2026-05-02T10:54:18.931Z</time></trkpt><trkpt lat="42.2014558" lon="13.657508"><ele>517.75</ele><time>2026-05-02T10:54:19.931Z</time></trkpt><trkpt lat="42.2013255" lon="13.6575462"><ele>518.5</ele><time>2026-05-02T10:54:20.93Z</time></trkpt><trkpt lat="42.2012006" lon="13.6575972"><ele>519.25</ele><time>2026-05-02T10:54:21.93Z</time></trkpt><trkpt lat="42.201087" lon="13.6576826"><ele>520.0</ele><time>2026-05-02T10:54:22.93Z</time></trkpt><trkpt lat="42.2009905" lon="13.6577939"><ele>520.0</ele><time>2026-05-02T10:54:23.93Z</time></trkpt><trkpt lat="42.2008981" lon="13.6579176"><ele>520.0</ele><time>2026-05-02T10:54:24.931Z</time></trkpt><trkpt lat="42.2008024" lon="13.6580304"><ele>520.0</ele><time>2026-05-02T10:54:25.93Z</time></trkpt><trkpt lat="42.2006933" lon="13.6581265"><ele>520.0</ele><time>2026-05-02T10:54:26.93Z</time></trkpt><trkpt lat="42.2005731" lon="13.6582"><ele>517.0</ele><time>2026-05-02T10:54:27.93Z</time></trkpt><trkpt lat="42.2004469" lon="13.6582509"><ele>514.0</ele><time>2026-05-02T10:54:28.931Z</time></trkpt><trkpt lat="42.2003102" lon="13.6582764"><ele>511.0</ele><time>2026-05-02T10:54:29.93Z</time></trkpt><trkpt lat="42.2001779" lon="13.6583031"><ele>508.0</ele><time>2026-05-02T10:54:30.93Z</time></trkpt><trkpt lat="42.2000445" lon="13.6583346"><ele>508.0</ele><time>2026-05-02T10:54:31.93Z</time></trkpt><trkpt lat="42.1999222" lon="13.6583638"><ele>508.0</ele><time>2026-05-02T10:54:32.931Z</time></trkpt><trkpt lat="42.1997937" lon="13.6584079"><ele>508.0</ele><time>2026-05-02T10:54:33.929Z</time></trkpt><trkpt lat="42.1996681" lon="13.6584669"><ele>508.0</ele><time>2026-05-02T10:54:34.93Z</time></trkpt><trkpt lat="42.1995523" lon="13.6585502"><ele>508.0</ele><time>2026-05-02T10:54:35.931Z</time></trkpt><trkpt lat="42.1994349" lon="13.658654"><ele>508.0</ele><time>2026-05-02T10:54:36.931Z</time></trkpt><trkpt lat="42.1993172" lon="13.6587717"><ele>508.0</ele><time>2026-05-02T10:54:37.931Z</time></trkpt><trkpt lat="42.1992084" lon="13.658892"><ele>508.0</ele><time>2026-05-02T10:54:38.931Z</time></trkpt><trkpt lat="42.1990974" lon="13.6590077"><ele>505.25</ele><time>2026-05-02T10:54:39.931Z</time></trkpt><trkpt lat="42.1989889" lon="13.6591218"><ele>502.5</ele><time>2026-05-02T10:54:40.93Z</time></trkpt><trkpt lat="42.1988777" lon="13.6592192"><ele>499.75</ele><time>2026-05-02T10:54:41.93Z</time></trkpt><trkpt lat="42.1987592" lon="13.6592832"><ele>497.0</ele><time>2026-05-02T10:54:42.93Z</time></trkpt><trkpt lat="42.1986346" lon="13.6592927"><ele>497.0</ele><time>2026-05-02T10:54:43.93Z</time></trkpt><trkpt lat="42.1985136" lon="13.6592898"><ele>497.00000000000006</ele><time>2026-05-02T10:54:44.93Z</time></trkpt><trkpt lat="42.1984062" lon="13.6592369"><ele>497.00000000000006</ele><time>2026-05-02T10:54:45.931Z</time></trkpt><trkpt lat="42.1983058" lon="13.6591949"><ele>497.0</ele><time>2026-05-02T10:54:46.93Z</time></trkpt><trkpt lat="42.1982269" lon="13.6591343"><ele>497.0</ele><time>2026-05-02T10:54:47.93Z</time></trkpt><trkpt lat="42.1981623" lon="13.6590575"><ele>496.6</ele><time>2026-05-02T10:54:48.93Z</time></trkpt><trkpt lat="42.1981393" lon="13.6589498"><ele>496.20000000000005</ele><time>2026-05-02T10:54:49.929Z</time></trkpt><trkpt lat="42.1981039" lon="13.658839"><ele>495.8</ele><time>2026-05-02T10:54:50.93Z</time></trkpt><trkpt lat="42.1980566" lon="13.6586983"><ele>495.4</ele><time>2026-05-02T10:54:51.93Z</time></trkpt><trkpt lat="42.1979982" lon="13.6585527"><ele>495.0</ele><time>2026-05-02T10:54:52.929Z</time></trkpt><trkpt lat="42.1979324" lon="13.6584144"><ele>494.4</ele><time>2026-05-02T10:54:53.929Z</time></trkpt><trkpt lat="42.1978742" lon="13.6582882"><ele>493.8</ele><time>2026-05-02T10:54:54.93Z</time></trkpt><trkpt lat="42.1978177" lon="13.6581735"><ele>493.20000000000005</ele><time>2026-05-02T10:54:55.93Z</time></trkpt><trkpt lat="42.197757" lon="13.6580721"><ele>492.6</ele><time>2026-05-02T10:54:56.93Z</time></trkpt><trkpt lat="42.1976955" lon="13.6579752"><ele>492.0</ele><time>2026-05-02T10:54:57.93Z</time></trkpt><trkpt lat="42.197636" lon="13.6578747"><ele>492.20000000000005</ele><time>2026-05-02T10:54:58.93Z</time></trkpt><trkpt lat="42.1975682" lon="13.6577689"><ele>492.40000000000003</ele><time>2026-05-02T10:54:59.931Z</time></trkpt><trkpt lat="42.1974965" lon="13.6576607"><ele>492.59999999999997</ele><time>2026-05-02T10:55:00.93Z</time></trkpt><trkpt lat="42.1974217" lon="13.6575462"><ele>492.79999999999995</ele><time>2026-05-02T10:55:01.93Z</time></trkpt><trkpt lat="42.1973432" lon="13.6574259"><ele>493.0</ele><time>2026-05-02T10:55:02.93Z</time></trkpt><trkpt lat="42.1972638" lon="13.6573058"><ele>493.0</ele><time>2026-05-02T10:55:03.931Z</time></trkpt><trkpt lat="42.1971893" lon="13.6571827"><ele>493.0</ele><time>2026-05-02T10:55:04.93Z</time></trkpt><trkpt lat="42.1971066" lon="13.6570521"><ele>493.0</ele><time>2026-05-02T10:55:05.931Z</time></trkpt><trkpt lat="42.1970224" lon="13.6569235"><ele>493.0</ele><time>2026-05-02T10:55:06.929Z</time></trkpt><trkpt lat="42.196935" lon="13.65679"><ele>493.0</ele><time>2026-05-02T10:55:07.929Z</time></trkpt><trkpt lat="42.1968464" lon="13.6566518"><ele>493.0</ele><time>2026-05-02T10:55:08.93Z</time></trkpt><trkpt lat="42.1967571" lon="13.6565187"><ele>493.0</ele><time>2026-05-02T10:55:09.931Z</time></trkpt><trkpt lat="42.1966661" lon="13.6563828"><ele>493.0</ele><time>2026-05-02T10:55:10.93Z</time></trkpt><trkpt lat="42.1965818" lon="13.6562466"><ele>495.0</ele><time>2026-05-02T10:55:11.929Z</time></trkpt><trkpt lat="42.1964985" lon="13.6561146"><ele>497.0</ele><time>2026-05-02T10:55:12.931Z</time></trkpt><trkpt lat="42.196414" lon="13.6559767"><ele>499.0</ele><time>2026-05-02T10:55:13.929Z</time></trkpt><trkpt lat="42.1963272" lon="13.6558369"><ele>501.0</ele><time>2026-05-02T10:55:14.93Z</time></trkpt><trkpt lat="42.196238" lon="13.6557055"><ele>501.0</ele><time>2026-05-02T10:55:15.932Z</time></trkpt><trkpt lat="42.1961476" lon="13.6555704"><ele>501.0</ele><time>2026-05-02T10:55:16.93Z</time></trkpt><trkpt lat="42.1960637" lon="13.6554327"><ele>501.0</ele><time>2026-05-02T10:55:17.931Z</time></trkpt><trkpt lat="42.195979" lon="13.6552948"><ele>501.0</ele><time>2026-05-02T10:55:18.931Z</time></trkpt><trkpt lat="42.1958932" lon="13.655158"><ele>502.0</ele><time>2026-05-02T10:55:19.93Z</time></trkpt><trkpt lat="42.1958091" lon="13.6550177"><ele>503.0</ele><time>2026-05-02T10:55:20.931Z</time></trkpt><trkpt lat="42.1957449" lon="13.6548654"><ele>504.0</ele><time>2026-05-02T10:55:21.93Z</time></trkpt><trkpt lat="42.1956787" lon="13.6547128"><ele>505.0</ele><time>2026-05-02T10:55:22.929Z</time></trkpt><trkpt lat="42.1956382" lon="13.6545444"><ele>506.5</ele><time>2026-05-02T10:55:23.931Z</time></trkpt><trkpt lat="42.1956116" lon="13.6543701"><ele>508.0</ele><time>2026-05-02T10:55:24.93Z</time></trkpt><trkpt lat="42.1956291" lon="13.6541858"><ele>509.5</ele><time>2026-05-02T10:55:25.93Z</time></trkpt><trkpt lat="42.1956525" lon="13.6539926"><ele>511.0</ele><time>2026-05-02T10:55:26.93Z</time></trkpt><trkpt lat="42.1956815" lon="13.6538008"><ele>514.3333333333334</ele><time>2026-05-02T10:55:27.93Z</time></trkpt><trkpt lat="42.1957138" lon="13.6535895"><ele>517.6666666666666</ele><time>2026-05-02T10:55:28.929Z</time></trkpt><trkpt lat="42.19575" lon="13.6533789"><ele>521.0</ele><time>2026-05-02T10:55:29.93Z</time></trkpt><trkpt lat="42.1957836" lon="13.6531791"><ele>521.0</ele><time>2026-05-02T10:55:30.93Z</time></trkpt><trkpt lat="42.1958148" lon="13.6529783"><ele>521.0</ele><time>2026-05-02T10:55:31.93Z</time></trkpt><trkpt lat="42.1958469" lon="13.6527785"><ele>521.0</ele><time>2026-05-02T10:55:32.931Z</time></trkpt><trkpt lat="42.1958826" lon="13.6525757"><ele>522.6666666666666</ele><time>2026-05-02T10:55:33.93Z</time></trkpt><trkpt lat="42.1959101" lon="13.6523742"><ele>524.3333333333334</ele><time>2026-05-02T10:55:34.93Z</time></trkpt><trkpt lat="42.1959407" lon="13.6521672"><ele>526.0</ele><time>2026-05-02T10:55:35.93Z</time></trkpt><trkpt lat="42.1959793" lon="13.6519644"><ele>527.6666666666667</ele><time>2026-05-02T10:55:36.93Z</time></trkpt><trkpt lat="42.1960137" lon="13.6517637"><ele>529.3333333333334</ele><time>2026-05-02T10:55:37.93Z</time></trkpt><trkpt lat="42.1960427" lon="13.6515627"><ele>531.0</ele><time>2026-05-02T10:55:38.93Z</time></trkpt><trkpt lat="42.1960801" lon="13.651361"><ele>531.0</ele><time>2026-05-02T10:55:39.93Z</time></trkpt><trkpt lat="42.1961117" lon="13.6511597"><ele>531.0</ele><time>2026-05-02T10:55:40.929Z</time></trkpt><trkpt lat="42.1961444" lon="13.6509542"><ele>531.0</ele><time>2026-05-02T10:55:41.931Z</time></trkpt><trkpt lat="42.1961724" lon="13.6507521"><ele>532.3333333333334</ele><time>2026-05-02T10:55:42.93Z</time></trkpt><trkpt lat="42.1962013" lon="13.6505431"><ele>533.6666666666667</ele><time>2026-05-02T10:55:43.932Z</time></trkpt><trkpt lat="42.1962325" lon="13.650341"><ele>535.0</ele><time>2026-05-02T10:55:44.93Z</time></trkpt><trkpt lat="42.1962699" lon="13.6501294"><ele>537.3333333333334</ele><time>2026-05-02T10:55:45.93Z</time></trkpt><trkpt lat="42.196306" lon="13.6499113"><ele>539.6666666666666</ele><time>2026-05-02T10:55:46.932Z</time></trkpt><trkpt lat="42.1963426" lon="13.6496861"><ele>542.0</ele><time>2026-05-02T10:55:47.93Z</time></trkpt><trkpt lat="42.1963799" lon="13.6494607"><ele>543.6666666666666</ele><time>2026-05-02T10:55:48.931Z</time></trkpt><trkpt lat="42.1964173" lon="13.6492425"><ele>545.3333333333334</ele><time>2026-05-02T10:55:49.93Z</time></trkpt><trkpt lat="42.1964576" lon="13.6490252"><ele>547.0</ele><time>2026-05-02T10:55:50.931Z</time></trkpt><trkpt lat="42.1964975" lon="13.6488137"><ele>547.0</ele><time>2026-05-02T10:55:51.93Z</time></trkpt><trkpt lat="42.1965345" lon="13.6486183"><ele>547.0</ele><time>2026-05-02T10:55:52.929Z</time></trkpt><trkpt lat="42.1965672" lon="13.6484388"><ele>547.0</ele><time>2026-05-02T10:55:53.93Z</time></trkpt><trkpt lat="42.1965907" lon="13.6482781"><ele>547.0</ele><time>2026-05-02T10:55:54.93Z</time></trkpt><trkpt lat="42.1965969" lon="13.648149"><ele>547.0</ele><time>2026-05-02T10:55:55.931Z</time></trkpt><trkpt lat="42.1965776" lon="13.6480401"><ele>547.0</ele><time>2026-05-02T10:55:56.93Z</time></trkpt><trkpt lat="42.1965361" lon="13.6479747"><ele>547.0</ele><time>2026-05-02T10:55:57.93Z</time></trkpt><trkpt lat="42.1964021" lon="13.6479323"><ele>547.0</ele><time>2026-05-02T10:55:59.93Z</time></trkpt><trkpt lat="42.196325" lon="13.6479602"><ele>547.0</ele><time>2026-05-02T10:56:00.93Z</time></trkpt><trkpt lat="42.1962457" lon="13.6480137"><ele>549.75</ele><time>2026-05-02T10:56:01.93Z</time></trkpt><trkpt lat="42.1961554" lon="13.6481316"><ele>552.5</ele><time>2026-05-02T10:56:02.93Z</time></trkpt><trkpt lat="42.1960595" lon="13.6482484"><ele>555.25</ele><time>2026-05-02T10:56:03.93Z</time></trkpt><trkpt lat="42.1959474" lon="13.648364"><ele>558.0</ele><time>2026-05-02T10:56:04.93Z</time></trkpt><trkpt lat="42.1958189" lon="13.6484655"><ele>558.0</ele><time>2026-05-02T10:56:05.93Z</time></trkpt><trkpt lat="42.1956772" lon="13.6485555"><ele>558.0</ele><time>2026-05-02T10:56:06.931Z</time></trkpt><trkpt lat="42.1955356" lon="13.6486362"><ele>558.0</ele><time>2026-05-02T10:56:07.93Z</time></trkpt><trkpt lat="42.1954037" lon="13.6487299"><ele>560.75</ele><time>2026-05-02T10:56:08.93Z</time></trkpt><trkpt lat="42.1952865" lon="13.6488483"><ele>563.5</ele><time>2026-05-02T10:56:09.931Z</time></trkpt><trkpt lat="42.1951871" lon="13.6489912"><ele>566.25</ele><time>2026-05-02T10:56:10.93Z</time></trkpt><trkpt lat="42.1950994" lon="13.6491444"><ele>569.0</ele><time>2026-05-02T10:56:11.931Z</time></trkpt><trkpt lat="42.1950227" lon="13.6493091"><ele>567.0</ele><time>2026-05-02T10:56:12.93Z</time></trkpt><trkpt lat="42.1949493" lon="13.6494717"><ele>565.0</ele><time>2026-05-02T10:56:13.93Z</time></trkpt><trkpt lat="42.1948691" lon="13.6496347"><ele>563.0</ele><time>2026-05-02T10:56:14.93Z</time></trkpt><trkpt lat="42.1947837" lon="13.6497877"><ele>561.0</ele><time>2026-05-02T10:56:15.93Z</time></trkpt><trkpt lat="42.1946876" lon="13.6499299"><ele>563.25</ele><time>2026-05-02T10:56:16.931Z</time></trkpt><trkpt lat="42.1945743" lon="13.6500506"><ele>565.5</ele><time>2026-05-02T10:56:17.93Z</time></trkpt><trkpt lat="42.1944458" lon="13.6501596"><ele>567.75</ele><time>2026-05-02T10:56:18.93Z</time></trkpt><trkpt lat="42.1943137" lon="13.6502635"><ele>570.0</ele><time>2026-05-02T10:56:19.929Z</time></trkpt><trkpt lat="42.194176" lon="13.6503673"><ele>570.0</ele><time>2026-05-02T10:56:20.93Z</time></trkpt><trkpt lat="42.1940317" lon="13.6504736"><ele>570.0</ele><time>2026-05-02T10:56:21.929Z</time></trkpt><trkpt lat="42.1938854" lon="13.6505889"><ele>570.0</ele><time>2026-05-02T10:56:22.93Z</time></trkpt><trkpt lat="42.1937414" lon="13.6507133"><ele>573.6666666666666</ele><time>2026-05-02T10:56:23.93Z</time></trkpt><trkpt lat="42.193606" lon="13.6508541"><ele>577.3333333333333</ele><time>2026-05-02T10:56:24.93Z</time></trkpt><trkpt lat="42.19348" lon="13.6510099"><ele>581.0</ele><time>2026-05-02T10:56:25.93Z</time></trkpt><trkpt lat="42.1933797" lon="13.6511825"><ele>581.0</ele><time>2026-05-02T10:56:26.93Z</time></trkpt><trkpt lat="42.1933018" lon="13.6513589"><ele>581.0</ele><time>2026-05-02T10:56:27.93Z</time></trkpt><trkpt lat="42.1932341" lon="13.651539"><ele>581.0</ele><time>2026-05-02T10:56:28.93Z</time></trkpt><trkpt lat="42.1932427" lon="13.6517225"><ele>581.0</ele><time>2026-05-02T10:56:29.929Z</time></trkpt><trkpt lat="42.1932641" lon="13.651908"><ele>583.0</ele><time>2026-05-02T10:56:30.93Z</time></trkpt><trkpt lat="42.1932969" lon="13.6520969"><ele>585.0</ele><time>2026-05-02T10:56:31.93Z</time></trkpt><trkpt lat="42.193325" lon="13.6522985"><ele>587.0</ele><time>2026-05-02T10:56:32.931Z</time></trkpt><trkpt lat="42.1933177" lon="13.6525226"><ele>587.0</ele><time>2026-05-02T10:56:33.929Z</time></trkpt><trkpt lat="42.193274" lon="13.6527298"><ele>587.0</ele><time>2026-05-02T10:56:34.93Z</time></trkpt><trkpt lat="42.1932415" lon="13.6529025"><ele>587.0</ele><time>2026-05-02T10:56:35.93Z</time></trkpt><trkpt lat="42.1931989" lon="13.6530502"><ele>587.0</ele><time>2026-05-02T10:56:36.93Z</time></trkpt><trkpt lat="42.1931394" lon="13.6531408"><ele>588.2</ele><time>2026-05-02T10:56:37.931Z</time></trkpt><trkpt lat="42.1930739" lon="13.6531678"><ele>589.4000000000001</ele><time>2026-05-02T10:56:38.93Z</time></trkpt><trkpt lat="42.1929815" lon="13.653062"><ele>590.5999999999999</ele><time>2026-05-02T10:56:40.931Z</time></trkpt><trkpt lat="42.1929801" lon="13.6529527"><ele>591.8</ele><time>2026-05-02T10:56:41.929Z</time></trkpt><trkpt lat="42.1930111" lon="13.6528046"><ele>593.0</ele><time>2026-05-02T10:56:42.93Z</time></trkpt><trkpt lat="42.1930438" lon="13.6526356"><ele>597.0</ele><time>2026-05-02T10:56:43.929Z</time></trkpt><trkpt lat="42.1930687" lon="13.652447"><ele>601.0</ele><time>2026-05-02T10:56:44.931Z</time></trkpt><trkpt lat="42.1930645" lon="13.6522888"><ele>605.0</ele><time>2026-05-02T10:56:45.93Z</time></trkpt><trkpt lat="42.1930262" lon="13.6521732"><ele>609.0</ele><time>2026-05-02T10:56:46.931Z</time></trkpt><trkpt lat="42.1929605" lon="13.6521199"><ele>613.0</ele><time>2026-05-02T10:56:47.929Z</time></trkpt><trkpt lat="42.1928974" lon="13.6521325"><ele>613.0</ele><time>2026-05-02T10:56:48.93Z</time></trkpt><trkpt lat="42.1928351" lon="13.6521828"><ele>613.0</ele><time>2026-05-02T10:56:49.93Z</time></trkpt><trkpt lat="42.19282" lon="13.6523384"><ele>613.0</ele><time>2026-05-02T10:56:50.93Z</time></trkpt><trkpt lat="42.1927925" lon="13.6524864"><ele>613.0</ele><time>2026-05-02T10:56:51.93Z</time></trkpt><trkpt lat="42.1927176" lon="13.6526433"><ele>613.0</ele><time>2026-05-02T10:56:52.93Z</time></trkpt><trkpt lat="42.1926385" lon="13.6527615"><ele>613.0</ele><time>2026-05-02T10:56:53.93Z</time></trkpt><trkpt lat="42.1925515" lon="13.6528605"><ele>613.0</ele><time>2026-05-02T10:56:54.93Z</time></trkpt><trkpt lat="42.1924699" lon="13.6528649"><ele>613.0</ele><time>2026-05-02T10:56:55.931Z</time></trkpt><trkpt lat="42.1923909" lon="13.6528662"><ele>613.0</ele><time>2026-05-02T10:56:56.93Z</time></trkpt><trkpt lat="42.1923522" lon="13.6527967"><ele>613.0</ele><time>2026-05-02T10:56:57.93Z</time></trkpt><trkpt lat="42.1923865" lon="13.652702"><ele>613.0</ele><time>2026-05-02T10:56:58.929Z</time></trkpt><trkpt lat="42.1924457" lon="13.652633"><ele>613.0</ele><time>2026-05-02T10:56:59.931Z</time></trkpt><trkpt lat="42.1925154" lon="13.6525663"><ele>613.0</ele><time>2026-05-02T10:57:00.93Z</time></trkpt><trkpt lat="42.1926019" lon="13.6524891"><ele>613.0</ele><time>2026-05-02T10:57:01.93Z</time></trkpt><trkpt lat="42.1926451" lon="13.6523846"><ele>613.0</ele><time>2026-05-02T10:57:02.93Z</time></trkpt><trkpt lat="42.1926256" lon="13.6522765"><ele>613.0</ele><time>2026-05-02T10:57:03.93Z</time></trkpt><trkpt lat="42.1925778" lon="13.6521998"><ele>613.0</ele><time>2026-05-02T10:57:04.93Z</time></trkpt><trkpt lat="42.192504" lon="13.6521703"><ele>613.0</ele><time>2026-05-02T10:57:05.93Z</time></trkpt><trkpt lat="42.1924161" lon="13.6522202"><ele>613.0</ele><time>2026-05-02T10:57:06.93Z</time></trkpt><trkpt lat="42.1923258" lon="13.6523065"><ele>613.0</ele><time>2026-05-02T10:57:07.93Z</time></trkpt><trkpt lat="42.1922391" lon="13.6524146"><ele>613.0</ele><time>2026-05-02T10:57:08.93Z</time></trkpt><trkpt lat="42.1921536" lon="13.6525219"><ele>613.0</ele><time>2026-05-02T10:57:09.93Z</time></trkpt><trkpt lat="42.1920358" lon="13.6526066"><ele>616.5</ele><time>2026-05-02T10:57:10.931Z</time></trkpt><trkpt lat="42.1919166" lon="13.6526675"><ele>620.0</ele><time>2026-05-02T10:57:11.929Z</time></trkpt><trkpt lat="42.191782" lon="13.652709"><ele>623.5</ele><time>2026-05-02T10:57:12.93Z</time></trkpt><trkpt lat="42.1916388" lon="13.6527327"><ele>627.0</ele><time>2026-05-02T10:57:13.93Z</time></trkpt><trkpt lat="42.1914904" lon="13.6527661"><ele>627.75</ele><time>2026-05-02T10:57:14.929Z</time></trkpt><trkpt lat="42.1913453" lon="13.6528075"><ele>628.5</ele><time>2026-05-02T10:57:15.929Z</time></trkpt><trkpt lat="42.1912129" lon="13.6529072"><ele>629.25</ele><time>2026-05-02T10:57:16.93Z</time></trkpt><trkpt lat="42.1910872" lon="13.6530164"><ele>630.0</ele><time>2026-05-02T10:57:17.93Z</time></trkpt><trkpt lat="42.1909652" lon="13.6531404"><ele>630.0</ele><time>2026-05-02T10:57:18.93Z</time></trkpt><trkpt lat="42.1908428" lon="13.65326"><ele>630.0</ele><time>2026-05-02T10:57:19.93Z</time></trkpt><trkpt lat="42.1907061" lon="13.6533466"><ele>630.0</ele><time>2026-05-02T10:57:20.93Z</time></trkpt><trkpt lat="42.1905644" lon="13.6534225"><ele>632.3333333333334</ele><time>2026-05-02T10:57:21.93Z</time></trkpt><trkpt lat="42.1904161" lon="13.6534961"><ele>634.6666666666667</ele><time>2026-05-02T10:57:22.93Z</time></trkpt><trkpt lat="42.190269" lon="13.6535603"><ele>637.0</ele><time>2026-05-02T10:57:23.929Z</time></trkpt><trkpt lat="42.1901239" lon="13.6536222"><ele>637.0</ele><time>2026-05-02T10:57:24.93Z</time></trkpt><trkpt lat="42.1899818" lon="13.6536749"><ele>637.0</ele><time>2026-05-02T10:57:25.93Z</time></trkpt><trkpt lat="42.1898666" lon="13.6537398"><ele>637.0</ele><time>2026-05-02T10:57:26.929Z</time></trkpt><trkpt lat="42.1897732" lon="13.6538072"><ele>637.0</ele><time>2026-05-02T10:57:27.93Z</time></trkpt><trkpt lat="42.189715" lon="13.6539073"><ele>640.75</ele><time>2026-05-02T10:57:28.93Z</time></trkpt><trkpt lat="42.189673" lon="13.6540217"><ele>644.5</ele><time>2026-05-02T10:57:29.93Z</time></trkpt><trkpt lat="42.1897217" lon="13.6541767"><ele>648.25</ele><time>2026-05-02T10:57:30.93Z</time></trkpt><trkpt lat="42.1897724" lon="13.6543301"><ele>652.0</ele><time>2026-05-02T10:57:31.93Z</time></trkpt><trkpt lat="42.1898326" lon="13.6544943"><ele>650.2</ele><time>2026-05-02T10:57:32.931Z</time></trkpt><trkpt lat="42.1898913" lon="13.654645"><ele>648.4000000000001</ele><time>2026-05-02T10:57:33.93Z</time></trkpt><trkpt lat="42.1899481" lon="13.6547852"><ele>646.5999999999999</ele><time>2026-05-02T10:57:34.93Z</time></trkpt><trkpt lat="42.1899745" lon="13.6549223"><ele>644.8</ele><time>2026-05-02T10:57:35.929Z</time></trkpt><trkpt lat="42.1899719" lon="13.6550567"><ele>643.0</ele><time>2026-05-02T10:57:36.93Z</time></trkpt><trkpt lat="42.1899441" lon="13.6551687"><ele>643.0</ele><time>2026-05-02T10:57:37.93Z</time></trkpt><trkpt lat="42.1898625" lon="13.6552436"><ele>643.0</ele><time>2026-05-02T10:57:38.93Z</time></trkpt><trkpt lat="42.1897576" lon="13.6553026"><ele>643.0</ele><time>2026-05-02T10:57:39.929Z</time></trkpt><trkpt lat="42.1896406" lon="13.6553629"><ele>643.0</ele><time>2026-05-02T10:57:40.931Z</time></trkpt><trkpt lat="42.1895131" lon="13.6554258"><ele>646.0</ele><time>2026-05-02T10:57:41.93Z</time></trkpt><trkpt lat="42.1893791" lon="13.6555022"><ele>649.0</ele><time>2026-05-02T10:57:42.93Z</time></trkpt><trkpt lat="42.1892373" lon="13.6555846"><ele>652.0</ele><time>2026-05-02T10:57:43.93Z</time></trkpt><trkpt lat="42.1890906" lon="13.6556612"><ele>654.3333333333334</ele><time>2026-05-02T10:57:44.93Z</time></trkpt><trkpt lat="42.1889438" lon="13.6557277"><ele>656.6666666666666</ele><time>2026-05-02T10:57:45.931Z</time></trkpt><trkpt lat="42.1887962" lon="13.6557855"><ele>659.0</ele><time>2026-05-02T10:57:46.93Z</time></trkpt><trkpt lat="42.1886547" lon="13.6558395"><ele>659.0</ele><time>2026-05-02T10:57:47.931Z</time></trkpt><trkpt lat="42.1885164" lon="13.6558918"><ele>659.0</ele><time>2026-05-02T10:57:48.929Z</time></trkpt><trkpt lat="42.1883943" lon="13.65594"><ele>659.0</ele><time>2026-05-02T10:57:49.93Z</time></trkpt><trkpt lat="42.1882924" lon="13.6559922"><ele>659.0</ele><time>2026-05-02T10:57:50.93Z</time></trkpt><trkpt lat="42.1882202" lon="13.6560575"><ele>660.2</ele><time>2026-05-02T10:57:51.93Z</time></trkpt><trkpt lat="42.1881598" lon="13.6561318"><ele>661.4000000000001</ele><time>2026-05-02T10:57:52.929Z</time></trkpt><trkpt lat="42.1882024" lon="13.6562854"><ele>662.6</ele><time>2026-05-02T10:57:54.93Z</time></trkpt><trkpt lat="42.1882514" lon="13.6563514"><ele>663.8</ele><time>2026-05-02T10:57:55.93Z</time></trkpt><trkpt lat="42.1883563" lon="13.6563709"><ele>665.0</ele><time>2026-05-02T10:57:56.929Z</time></trkpt><trkpt lat="42.1885045" lon="13.6563348"><ele>665.0</ele><time>2026-05-02T10:57:57.93Z</time></trkpt><trkpt lat="42.1886431" lon="13.6563218"><ele>665.0</ele><time>2026-05-02T10:57:58.931Z</time></trkpt><trkpt lat="42.1887779" lon="13.6563088"><ele>665.0</ele><time>2026-05-02T10:57:59.93Z</time></trkpt><trkpt lat="42.1889213" lon="13.6563034"><ele>665.0</ele><time>2026-05-02T10:58:00.931Z</time></trkpt><trkpt lat="42.189063" lon="13.6562839"><ele>664.0</ele><time>2026-05-02T10:58:01.93Z</time></trkpt><trkpt lat="42.1891973" lon="13.6562628"><ele>663.0</ele><time>2026-05-02T10:58:02.93Z</time></trkpt><trkpt lat="42.189311" lon="13.6562529"><ele>662.0</ele><time>2026-05-02T10:58:03.929Z</time></trkpt><trkpt lat="42.1894069" lon="13.6562662"><ele>661.0</ele><time>2026-05-02T10:58:04.93Z</time></trkpt><trkpt lat="42.1894691" lon="13.6563258"><ele>660.0</ele><time>2026-05-02T10:58:05.929Z</time></trkpt><trkpt lat="42.1894866" lon="13.656409"><ele>660.0</ele><time>2026-05-02T10:58:06.93Z</time></trkpt><trkpt lat="42.1894616" lon="13.656488"><ele>660.0</ele><time>2026-05-02T10:58:07.93Z</time></trkpt><trkpt lat="42.1894082" lon="13.6565366"><ele>660.0</ele><time>2026-05-02T10:58:08.93Z</time></trkpt><trkpt lat="42.1893206" lon="13.6565495"><ele>660.0</ele><time>2026-05-02T10:58:09.93Z</time></trkpt><trkpt lat="42.1892055" lon="13.6565441"><ele>660.0</ele><time>2026-05-02T10:58:10.931Z</time></trkpt><trkpt lat="42.1890731" lon="13.6565362"><ele>661.6666666666666</ele><time>2026-05-02T10:58:11.93Z</time></trkpt><trkpt lat="42.1889255" lon="13.6565324"><ele>663.3333333333333</ele><time>2026-05-02T10:58:12.93Z</time></trkpt><trkpt lat="42.1887601" lon="13.6565222"><ele>665.0</ele><time>2026-05-02T10:58:13.93Z</time></trkpt><trkpt lat="42.1885934" lon="13.6565293"><ele>665.0</ele><time>2026-05-02T10:58:14.93Z</time></trkpt><trkpt lat="42.1884257" lon="13.6565403"><ele>665.0</ele><time>2026-05-02T10:58:15.93Z</time></trkpt><trkpt lat="42.1882571" lon="13.6565581"><ele>665.0</ele><time>2026-05-02T10:58:16.93Z</time></trkpt><trkpt lat="42.1880951" lon="13.6565799"><ele>666.3333333333333</ele><time>2026-05-02T10:58:17.93Z</time></trkpt><trkpt lat="42.1879348" lon="13.6566055"><ele>667.6666666666666</ele><time>2026-05-02T10:58:18.93Z</time></trkpt><trkpt lat="42.1877745" lon="13.656631"><ele>669.0</ele><time>2026-05-02T10:58:19.93Z</time></trkpt><trkpt lat="42.1876177" lon="13.6566669"><ele>669.0</ele><time>2026-05-02T10:58:20.93Z</time></trkpt><trkpt lat="42.1874595" lon="13.6567073"><ele>669.0</ele><time>2026-05-02T10:58:21.93Z</time></trkpt><trkpt lat="42.1872993" lon="13.6567456"><ele>669.0</ele><time>2026-05-02T10:58:22.93Z</time></trkpt><trkpt lat="42.1871417" lon="13.6567827"><ele>671.3333333333334</ele><time>2026-05-02T10:58:23.929Z</time></trkpt><trkpt lat="42.1869779" lon="13.656819"><ele>673.6666666666667</ele><time>2026-05-02T10:58:24.93Z</time></trkpt><trkpt lat="42.1868106" lon="13.6568599"><ele>676.0</ele><time>2026-05-02T10:58:25.93Z</time></trkpt><trkpt lat="42.1866397" lon="13.6569068"><ele>677.6666666666667</ele><time>2026-05-02T10:58:26.929Z</time></trkpt><trkpt lat="42.1864695" lon="13.6569502"><ele>679.3333333333334</ele><time>2026-05-02T10:58:27.929Z</time></trkpt><trkpt lat="42.1862954" lon="13.6569914"><ele>681.0</ele><time>2026-05-02T10:58:28.93Z</time></trkpt><trkpt lat="42.186126" lon="13.6570351"><ele>684.0</ele><time>2026-05-02T10:58:29.929Z</time></trkpt><trkpt lat="42.1859539" lon="13.6570757"><ele>687.0</ele><time>2026-05-02T10:58:30.93Z</time></trkpt><trkpt lat="42.1857786" lon="13.6571159"><ele>690.0</ele><time>2026-05-02T10:58:31.931Z</time></trkpt><trkpt lat="42.1856001" lon="13.6571607"><ele>690.0</ele><time>2026-05-02T10:58:32.931Z</time></trkpt><trkpt lat="42.1854273" lon="13.6572263"><ele>690.0</ele><time>2026-05-02T10:58:33.929Z</time></trkpt><trkpt lat="42.1852603" lon="13.6573095"><ele>690.0</ele><time>2026-05-02T10:58:34.929Z</time></trkpt><trkpt lat="42.1851041" lon="13.6574278"><ele>690.0</ele><time>2026-05-02T10:58:35.931Z</time></trkpt><trkpt lat="42.1849504" lon="13.6575626"><ele>690.0</ele><time>2026-05-02T10:58:36.93Z</time></trkpt><trkpt lat="42.1848102" lon="13.6577151"><ele>690.0</ele><time>2026-05-02T10:58:37.93Z</time></trkpt><trkpt lat="42.1846729" lon="13.6578798"><ele>688.6666666666666</ele><time>2026-05-02T10:58:38.929Z</time></trkpt><trkpt lat="42.1845248" lon="13.6580377"><ele>687.3333333333333</ele><time>2026-05-02T10:58:39.93Z</time></trkpt><trkpt lat="42.1843754" lon="13.6581915"><ele>686.0</ele><time>2026-05-02T10:58:40.928Z</time></trkpt><trkpt lat="42.1842197" lon="13.6583342"><ele>686.0</ele><time>2026-05-02T10:58:41.93Z</time></trkpt><trkpt lat="42.1840526" lon="13.6584668"><ele>686.0</ele><time>2026-05-02T10:58:42.93Z</time></trkpt><trkpt lat="42.1838793" lon="13.6585928"><ele>686.0</ele><time>2026-05-02T10:58:43.93Z</time></trkpt><trkpt lat="42.1837002" lon="13.658701"><ele>686.6666666666666</ele><time>2026-05-02T10:58:44.931Z</time></trkpt><trkpt lat="42.1835185" lon="13.6588129"><ele>687.3333333333334</ele><time>2026-05-02T10:58:45.929Z</time></trkpt><trkpt lat="42.1833406" lon="13.6589214"><ele>688.0</ele><time>2026-05-02T10:58:46.929Z</time></trkpt><trkpt lat="42.1831558" lon="13.6590237"><ele>688.0</ele><time>2026-05-02T10:58:47.93Z</time></trkpt><trkpt lat="42.1829711" lon="13.6591151"><ele>688.0</ele><time>2026-05-02T10:58:48.93Z</time></trkpt><trkpt lat="42.1827899" lon="13.659205"><ele>688.0</ele><time>2026-05-02T10:58:49.93Z</time></trkpt><trkpt lat="42.1826166" lon="13.6592961"><ele>688.0</ele><time>2026-05-02T10:58:50.93Z</time></trkpt><trkpt lat="42.1824397" lon="13.6593981"><ele>688.0</ele><time>2026-05-02T10:58:51.929Z</time></trkpt><trkpt lat="42.1822658" lon="13.6595149"><ele>688.0</ele><time>2026-05-02T10:58:52.93Z</time></trkpt><trkpt lat="42.1820981" lon="13.6596469"><ele>687.0</ele><time>2026-05-02T10:58:53.931Z</time></trkpt><trkpt lat="42.181936" lon="13.6597978"><ele>686.0</ele><time>2026-05-02T10:58:54.93Z</time></trkpt><trkpt lat="42.1817775" lon="13.6599577"><ele>685.0</ele><time>2026-05-02T10:58:55.93Z</time></trkpt><trkpt lat="42.1816296" lon="13.6601287"><ele>686.3333333333334</ele><time>2026-05-02T10:58:56.93Z</time></trkpt><trkpt lat="42.1814817" lon="13.6602932"><ele>687.6666666666666</ele><time>2026-05-02T10:58:57.931Z</time></trkpt><trkpt lat="42.1813352" lon="13.6604685"><ele>689.0</ele><time>2026-05-02T10:58:58.93Z</time></trkpt><trkpt lat="42.1811974" lon="13.6606494"><ele>689.0</ele><time>2026-05-02T10:58:59.93Z</time></trkpt><trkpt lat="42.1810633" lon="13.660832"><ele>689.0</ele><time>2026-05-02T10:59:00.93Z</time></trkpt><trkpt lat="42.1809329" lon="13.6610169"><ele>689.0</ele><time>2026-05-02T10:59:01.93Z</time></trkpt><trkpt lat="42.1808068" lon="13.6612009"><ele>689.3333333333333</ele><time>2026-05-02T10:59:02.93Z</time></trkpt><trkpt lat="42.1806716" lon="13.6613688"><ele>689.6666666666666</ele><time>2026-05-02T10:59:03.93Z</time></trkpt><trkpt lat="42.1805313" lon="13.6615334"><ele>690.0</ele><time>2026-05-02T10:59:04.929Z</time></trkpt><trkpt lat="42.1803911" lon="13.661673"><ele>690.0</ele><time>2026-05-02T10:59:05.93Z</time></trkpt><trkpt lat="42.1802491" lon="13.6618119"><ele>690.0</ele><time>2026-05-02T10:59:06.931Z</time></trkpt><trkpt lat="42.1801115" lon="13.6619475"><ele>690.0</ele><time>2026-05-02T10:59:07.93Z</time></trkpt><trkpt lat="42.1799814" lon="13.662087"><ele>688.6666666666666</ele><time>2026-05-02T10:59:08.93Z</time></trkpt><trkpt lat="42.1798584" lon="13.6622287"><ele>687.3333333333333</ele><time>2026-05-02T10:59:09.93Z</time></trkpt><trkpt lat="42.1797369" lon="13.6623795"><ele>686.0</ele><time>2026-05-02T10:59:10.929Z</time></trkpt><trkpt lat="42.1796164" lon="13.6625317"><ele>686.0</ele><time>2026-05-02T10:59:11.93Z</time></trkpt><trkpt lat="42.1794985" lon="13.6626871"><ele>686.0</ele><time>2026-05-02T10:59:12.929Z</time></trkpt><trkpt lat="42.1793864" lon="13.6628439"><ele>686.0</ele><time>2026-05-02T10:59:13.93Z</time></trkpt><trkpt lat="42.1792775" lon="13.6629994"><ele>686.3333333333333</ele><time>2026-05-02T10:59:14.93Z</time></trkpt><trkpt lat="42.1791722" lon="13.6631541"><ele>686.6666666666666</ele><time>2026-05-02T10:59:15.928Z</time></trkpt><trkpt lat="42.1790572" lon="13.6633115"><ele>687.0</ele><time>2026-05-02T10:59:16.929Z</time></trkpt><trkpt lat="42.1789343" lon="13.6634649"><ele>688.6666666666666</ele><time>2026-05-02T10:59:17.929Z</time></trkpt><trkpt lat="42.1788158" lon="13.6636085"><ele>690.3333333333333</ele><time>2026-05-02T10:59:18.929Z</time></trkpt><trkpt lat="42.1786909" lon="13.6637426"><ele>692.0</ele><time>2026-05-02T10:59:19.93Z</time></trkpt><trkpt lat="42.1785664" lon="13.6638664"><ele>692.6666666666666</ele><time>2026-05-02T10:59:20.931Z</time></trkpt><trkpt lat="42.1784331" lon="13.6639876"><ele>693.3333333333334</ele><time>2026-05-02T10:59:21.931Z</time></trkpt><trkpt lat="42.1782964" lon="13.6640952"><ele>694.0</ele><time>2026-05-02T10:59:22.931Z</time></trkpt><trkpt lat="42.1781574" lon="13.6641974"><ele>695.3333333333334</ele><time>2026-05-02T10:59:23.931Z</time></trkpt><trkpt lat="42.1780181" lon="13.6643005"><ele>696.6666666666666</ele><time>2026-05-02T10:59:24.93Z</time></trkpt><trkpt lat="42.177883" lon="13.6644021"><ele>698.0</ele><time>2026-05-02T10:59:25.93Z</time></trkpt><trkpt lat="42.1777448" lon="13.6645084"><ele>699.3333333333333</ele><time>2026-05-02T10:59:26.93Z</time></trkpt><trkpt lat="42.1776144" lon="13.6646118"><ele>700.6666666666666</ele><time>2026-05-02T10:59:27.929Z</time></trkpt><trkpt lat="42.1774879" lon="13.6647229"><ele>702.0</ele><time>2026-05-02T10:59:28.93Z</time></trkpt><trkpt lat="42.177372" lon="13.6648485"><ele>705.0</ele><time>2026-05-02T10:59:29.931Z</time></trkpt><trkpt lat="42.1772572" lon="13.664987"><ele>708.0</ele><time>2026-05-02T10:59:30.93Z</time></trkpt><trkpt lat="42.1771491" lon="13.6651365"><ele>711.0</ele><time>2026-05-02T10:59:31.928Z</time></trkpt><trkpt lat="42.1770395" lon="13.6652843"><ele>711.75</ele><time>2026-05-02T10:59:32.931Z</time></trkpt><trkpt lat="42.1769301" lon="13.6654292"><ele>712.5</ele><time>2026-05-02T10:59:33.929Z</time></trkpt><trkpt lat="42.1768193" lon="13.6655617"><ele>713.25</ele><time>2026-05-02T10:59:34.93Z</time></trkpt><trkpt lat="42.1767048" lon="13.6656861"><ele>714.0</ele><time>2026-05-02T10:59:35.93Z</time></trkpt><trkpt lat="42.1765997" lon="13.6658016"><ele>717.25</ele><time>2026-05-02T10:59:36.929Z</time></trkpt><trkpt lat="42.1765019" lon="13.6659095"><ele>720.5</ele><time>2026-05-02T10:59:37.93Z</time></trkpt><trkpt lat="42.1764051" lon="13.6660003"><ele>723.75</ele><time>2026-05-02T10:59:38.931Z</time></trkpt><trkpt lat="42.176308" lon="13.6660643"><ele>727.0</ele><time>2026-05-02T10:59:39.93Z</time></trkpt><trkpt lat="42.1762065" lon="13.6660945"><ele>727.0</ele><time>2026-05-02T10:59:40.93Z</time></trkpt><trkpt lat="42.1760953" lon="13.666082"><ele>727.0</ele><time>2026-05-02T10:59:41.93Z</time></trkpt><trkpt lat="42.1759862" lon="13.6660507"><ele>727.0</ele><time>2026-05-02T10:59:42.929Z</time></trkpt><trkpt lat="42.1758606" lon="13.666002"><ele>727.0</ele><time>2026-05-02T10:59:43.93Z</time></trkpt><trkpt lat="42.1757297" lon="13.6659563"><ele>729.25</ele><time>2026-05-02T10:59:44.929Z</time></trkpt><trkpt lat="42.1755985" lon="13.6659002"><ele>731.5</ele><time>2026-05-02T10:59:45.93Z</time></trkpt><trkpt lat="42.1754707" lon="13.6658288"><ele>733.75</ele><time>2026-05-02T10:59:46.93Z</time></trkpt><trkpt lat="42.1753448" lon="13.6657614"><ele>736.0</ele><time>2026-05-02T10:59:47.93Z</time></trkpt><trkpt lat="42.1752177" lon="13.6656759"><ele>736.0</ele><time>2026-05-02T10:59:48.929Z</time></trkpt><trkpt lat="42.1750931" lon="13.6655916"><ele>736.0</ele><time>2026-05-02T10:59:49.929Z</time></trkpt><trkpt lat="42.1749643" lon="13.6655041"><ele>736.0</ele><time>2026-05-02T10:59:50.93Z</time></trkpt><trkpt lat="42.1748351" lon="13.6654203"><ele>736.0</ele><time>2026-05-02T10:59:51.93Z</time></trkpt><trkpt lat="42.1747019" lon="13.6653357"><ele>740.3333333333334</ele><time>2026-05-02T10:59:52.93Z</time></trkpt><trkpt lat="42.1745693" lon="13.6652472"><ele>744.6666666666666</ele><time>2026-05-02T10:59:53.929Z</time></trkpt><trkpt lat="42.1744357" lon="13.6651587"><ele>749.0</ele><time>2026-05-02T10:59:54.93Z</time></trkpt><trkpt lat="42.1742954" lon="13.6650623"><ele>749.0</ele><time>2026-05-02T10:59:55.93Z</time></trkpt><trkpt lat="42.1741566" lon="13.6649676"><ele>749.0</ele><time>2026-05-02T10:59:56.93Z</time></trkpt><trkpt lat="42.1740143" lon="13.6648758"><ele>749.0</ele><time>2026-05-02T10:59:57.931Z</time></trkpt><trkpt lat="42.1738748" lon="13.6647812"><ele>754.0</ele><time>2026-05-02T10:59:58.928Z</time></trkpt><trkpt lat="42.1737372" lon="13.6646849"><ele>759.0</ele><time>2026-05-02T10:59:59.929Z</time></trkpt><trkpt lat="42.1735964" lon="13.6645969"><ele>764.0</ele><time>2026-05-02T11:00:00.931Z</time></trkpt><trkpt lat="42.1734559" lon="13.6645101"><ele>765.3333333333333</ele><time>2026-05-02T11:00:01.929Z</time></trkpt><trkpt lat="42.1733107" lon="13.6644171"><ele>766.6666666666666</ele><time>2026-05-02T11:00:02.93Z</time></trkpt><trkpt lat="42.1731746" lon="13.6643155"><ele>768.0</ele><time>2026-05-02T11:00:03.93Z</time></trkpt><trkpt lat="42.173039" lon="13.6642077"><ele>771.3333333333333</ele><time>2026-05-02T11:00:04.929Z</time></trkpt><trkpt lat="42.1729097" lon="13.6640951"><ele>774.6666666666666</ele><time>2026-05-02T11:00:05.929Z</time></trkpt><trkpt lat="42.1727818" lon="13.6639784"><ele>778.0</ele><time>2026-05-02T11:00:06.93Z</time></trkpt><trkpt lat="42.1726517" lon="13.6638559"><ele>778.0</ele><time>2026-05-02T11:00:07.93Z</time></trkpt><trkpt lat="42.1725225" lon="13.6637292"><ele>778.0</ele><time>2026-05-02T11:00:08.931Z</time></trkpt><trkpt lat="42.1724036" lon="13.663587"><ele>778.0</ele><time>2026-05-02T11:00:09.93Z</time></trkpt><trkpt lat="42.1723016" lon="13.6634449"><ele>781.6666666666666</ele><time>2026-05-02T11:00:10.929Z</time></trkpt><trkpt lat="42.1722173" lon="13.6632797"><ele>785.3333333333333</ele><time>2026-05-02T11:00:11.93Z</time></trkpt><trkpt lat="42.1721394" lon="13.6631049"><ele>789.0</ele><time>2026-05-02T11:00:12.929Z</time></trkpt><trkpt lat="42.1720691" lon="13.6629159"><ele>790.0</ele><time>2026-05-02T11:00:13.93Z</time></trkpt><trkpt lat="42.1719944" lon="13.6627292"><ele>791.0</ele><time>2026-05-02T11:00:14.93Z</time></trkpt><trkpt lat="42.1719123" lon="13.6625475"><ele>792.0</ele><time>2026-05-02T11:00:15.928Z</time></trkpt><trkpt lat="42.1718275" lon="13.6623658"><ele>792.0</ele><time>2026-05-02T11:00:16.93Z</time></trkpt><trkpt lat="42.1717405" lon="13.6621872"><ele>792.0</ele><time>2026-05-02T11:00:17.93Z</time></trkpt><trkpt lat="42.1716524" lon="13.6620121"><ele>792.0</ele><time>2026-05-02T11:00:18.931Z</time></trkpt><trkpt lat="42.1715732" lon="13.6618328"><ele>801.3333333333333</ele><time>2026-05-02T11:00:19.931Z</time></trkpt><trkpt lat="42.1715027" lon="13.6616524"><ele>810.6666666666666</ele><time>2026-05-02T11:00:20.93Z</time></trkpt><trkpt lat="42.171425" lon="13.6614755"><ele>820.0</ele><time>2026-05-02T11:00:21.929Z</time></trkpt><trkpt lat="42.1713484" lon="13.6612976"><ele>820.0</ele><time>2026-05-02T11:00:22.929Z</time></trkpt><trkpt lat="42.171285" lon="13.6611419"><ele>820.0</ele><time>2026-05-02T11:00:23.93Z</time></trkpt><trkpt lat="42.1712197" lon="13.6610216"><ele>820.0</ele><time>2026-05-02T11:00:24.929Z</time></trkpt><trkpt lat="42.1711255" lon="13.6609239"><ele>820.0</ele><time>2026-05-02T11:00:25.93Z</time></trkpt><trkpt lat="42.1710064" lon="13.6608461"><ele>819.75</ele><time>2026-05-02T11:00:26.93Z</time></trkpt><trkpt lat="42.1708747" lon="13.6607927"><ele>819.5</ele><time>2026-05-02T11:00:27.93Z</time></trkpt><trkpt lat="42.1707436" lon="13.6607556"><ele>819.25</ele><time>2026-05-02T11:00:28.929Z</time></trkpt><trkpt lat="42.170612" lon="13.6607181"><ele>819.0</ele><time>2026-05-02T11:00:29.929Z</time></trkpt><trkpt lat="42.1704816" lon="13.660665"><ele>823.75</ele><time>2026-05-02T11:00:30.93Z</time></trkpt><trkpt lat="42.1703496" lon="13.6605999"><ele>828.5</ele><time>2026-05-02T11:00:31.93Z</time></trkpt><trkpt lat="42.1702229" lon="13.6605264"><ele>833.25</ele><time>2026-05-02T11:00:32.93Z</time></trkpt><trkpt lat="42.1701018" lon="13.6604531"><ele>838.0</ele><time>2026-05-02T11:00:33.929Z</time></trkpt><trkpt lat="42.169987" lon="13.6603785"><ele>838.0</ele><time>2026-05-02T11:00:34.929Z</time></trkpt><trkpt lat="42.1698766" lon="13.660305"><ele>838.0</ele><time>2026-05-02T11:00:35.93Z</time></trkpt><trkpt lat="42.1731746" lon="13.6643155"><ele>818.0</ele><time>2026-05-02T11:00:03.93Z</time></trkpt><trkpt lat="42.173039" lon="13.6642077"><ele>798.0</ele><time>2026-05-02T11:00:04.929Z</time></trkpt><trkpt lat="42.1729097" lon="13.6640951"><ele>778.0</ele><time>2026-05-02T11:00:05.929Z</time></trkpt><trkpt lat="42.1727818" lon="13.6639784"><ele>778.0</ele><time>2026-05-02T11:00:06.93Z</time></trkpt><trkpt lat="42.1726517" lon="13.6638559"><ele>778.0</ele><time>2026-05-02T11:00:07.93Z</time></trkpt><trkpt lat="42.1725225" lon="13.6637292"><ele>778.0</ele><time>2026-05-02T11:00:08.931Z</time></trkpt><trkpt lat="42.1724036" lon="13.663587"><ele>780.75</ele><time>2026-05-02T11:00:09.93Z</time></trkpt><trkpt lat="42.1723016" lon="13.6634449"><ele>783.5</ele><time>2026-05-02T11:00:10.929Z</time></trkpt><trkpt lat="42.1722173" lon="13.6632797"><ele>786.25</ele><time>2026-05-02T11:00:11.93Z</time></trkpt><trkpt lat="42.1721394" lon="13.6631049"><ele>789.0</ele><time>2026-05-02T11:00:12.929Z</time></trkpt><trkpt lat="42.1720691" lon="13.6629159"><ele>790.0</ele><time>2026-05-02T11:00:13.93Z</time></trkpt><trkpt lat="42.1719944" lon="13.6627292"><ele>791.0</ele><time>2026-05-02T11:00:14.93Z</time></trkpt><trkpt lat="42.1719123" lon="13.6625475"><ele>792.0</ele><time>2026-05-02T11:00:15.928Z</time></trkpt><trkpt lat="42.1718275" lon="13.6623658"><ele>792.0</ele><time>2026-05-02T11:00:16.93Z</time></trkpt><trkpt lat="42.1717405" lon="13.6621872"><ele>792.0</ele><time>2026-05-02T11:00:17.93Z</time></trkpt><trkpt lat="42.1716524" lon="13.6620121"><ele>792.0</ele><time>2026-05-02T11:00:18.931Z</time></trkpt><trkpt lat="42.1715732" lon="13.6618328"><ele>801.3333333333333</ele><time>2026-05-02T11:00:19.931Z</time></trkpt><trkpt lat="42.1715027" lon="13.6616524"><ele>810.6666666666666</ele><time>2026-05-02T11:00:20.93Z</time></trkpt><trkpt lat="42.171425" lon="13.6614755"><ele>820.0</ele><time>2026-05-02T11:00:21.929Z</time></trkpt><trkpt lat="42.1713484" lon="13.6612976"><ele>820.0</ele><time>2026-05-02T11:00:22.929Z</time></trkpt><trkpt lat="42.171285" lon="13.6611419"><ele>820.0</ele><time>2026-05-02T11:00:23.93Z</time></trkpt><trkpt lat="42.1712197" lon="13.6610216"><ele>820.0</ele><time>2026-05-02T11:00:24.929Z</time></trkpt><trkpt lat="42.1711255" lon="13.6609239"><ele>820.0</ele><time>2026-05-02T11:00:25.93Z</time></trkpt><trkpt lat="42.1710064" lon="13.6608461"><ele>819.75</ele><time>2026-05-02T11:00:26.93Z</time></trkpt><trkpt lat="42.1708747" lon="13.6607927"><ele>819.5</ele><time>2026-05-02T11:00:27.93Z</time></trkpt><trkpt lat="42.1707436" lon="13.6607556"><ele>819.25</ele><time>2026-05-02T11:00:28.929Z</time></trkpt><trkpt lat="42.170612" lon="13.6607181"><ele>819.0</ele><time>2026-05-02T11:00:29.929Z</time></trkpt><trkpt lat="42.1704816" lon="13.660665"><ele>823.75</ele><time>2026-05-02T11:00:30.93Z</time></trkpt><trkpt lat="42.1703496" lon="13.6605999"><ele>828.5</ele><time>2026-05-02T11:00:31.93Z</time></trkpt><trkpt lat="42.1702229" lon="13.6605264"><ele>833.25</ele><time>2026-05-02T11:00:32.93Z</time></trkpt><trkpt lat="42.1701018" lon="13.6604531"><ele>838.0</ele><time>2026-05-02T11:00:33.929Z</time></trkpt><trkpt lat="42.169987" lon="13.6603785"><ele>838.0</ele><time>2026-05-02T11:00:34.929Z</time></trkpt><trkpt lat="42.1698766" lon="13.660305"><ele>838.0</ele><time>2026-05-02T11:00:35.93Z</time></trkpt><trkpt lat="42.1697594" lon="13.6602586"><ele>838.0</ele><time>2026-05-02T11:00:36.93Z</time></trkpt><trkpt lat="42.169631" lon="13.6602376"><ele>838.0</ele><time>2026-05-02T11:00:37.931Z</time></trkpt><trkpt lat="42.169499" lon="13.660218"><ele>843.0</ele><time>2026-05-02T11:00:38.93Z</time></trkpt><trkpt lat="42.1693678" lon="13.6601736"><ele>848.0</ele><time>2026-05-02T11:00:39.93Z</time></trkpt><trkpt lat="42.1692407" lon="13.6601143"><ele>853.0</ele><time>2026-05-02T11:00:40.93Z</time></trkpt><trkpt lat="42.1691152" lon="13.6600546"><ele>858.0</ele><time>2026-05-02T11:00:41.93Z</time></trkpt><trkpt lat="42.1689935" lon="13.6599935"><ele>860.8</ele><time>2026-05-02T11:00:42.928Z</time></trkpt><trkpt lat="42.1688793" lon="13.6599402"><ele>863.5999999999999</ele><time>2026-05-02T11:00:43.93Z</time></trkpt><trkpt lat="42.1687746" lon="13.6599135"><ele>866.4000000000001</ele><time>2026-05-02T11:00:44.93Z</time></trkpt><trkpt lat="42.1686733" lon="13.6599222"><ele>869.2</ele><time>2026-05-02T11:00:45.929Z</time></trkpt><trkpt lat="42.1685632" lon="13.659982"><ele>872.0</ele><time>2026-05-02T11:00:46.931Z</time></trkpt><trkpt lat="42.1684458" lon="13.6600634"><ele>872.0</ele><time>2026-05-02T11:00:47.93Z</time></trkpt><trkpt lat="42.1683102" lon="13.6601573"><ele>872.0</ele><time>2026-05-02T11:00:48.929Z</time></trkpt><trkpt lat="42.1681734" lon="13.6602604"><ele>872.0</ele><time>2026-05-02T11:00:49.929Z</time></trkpt><trkpt lat="42.1680391" lon="13.6603713"><ele>876.3333333333334</ele><time>2026-05-02T11:00:50.93Z</time></trkpt><trkpt lat="42.167902" lon="13.6604924"><ele>880.6666666666667</ele><time>2026-05-02T11:00:51.929Z</time></trkpt><trkpt lat="42.1677629" lon="13.6606161"><ele>885.0</ele><time>2026-05-02T11:00:52.929Z</time></trkpt><trkpt lat="42.1676206" lon="13.6607388"><ele>885.0</ele><time>2026-05-02T11:00:53.93Z</time></trkpt><trkpt lat="42.1674738" lon="13.6608575"><ele>885.0</ele><time>2026-05-02T11:00:54.93Z</time></trkpt><trkpt lat="42.1673249" lon="13.6609751"><ele>885.0</ele><time>2026-05-02T11:00:55.929Z</time></trkpt><trkpt lat="42.1671781" lon="13.6610776"><ele>888.6666666666667</ele><time>2026-05-02T11:00:56.929Z</time></trkpt><trkpt lat="42.1670387" lon="13.6611859"><ele>892.3333333333334</ele><time>2026-05-02T11:00:57.929Z</time></trkpt><trkpt lat="42.1669142" lon="13.6613106"><ele>896.0</ele><time>2026-05-02T11:00:58.93Z</time></trkpt><trkpt lat="42.1667935" lon="13.6614443"><ele>896.0</ele><time>2026-05-02T11:00:59.928Z</time></trkpt><trkpt lat="42.166694" lon="13.6615973"><ele>896.0</ele><time>2026-05-02T11:01:00.93Z</time></trkpt><trkpt lat="42.1666055" lon="13.6617611"><ele>896.0</ele><time>2026-05-02T11:01:01.93Z</time></trkpt><trkpt lat="42.1665134" lon="13.6619267"><ele>897.25</ele><time>2026-05-02T11:01:02.929Z</time></trkpt><trkpt lat="42.1664121" lon="13.66208"><ele>898.5</ele><time>2026-05-02T11:01:03.93Z</time></trkpt><trkpt lat="42.1663162" lon="13.6622251"><ele>899.75</ele><time>2026-05-02T11:01:04.928Z</time></trkpt><trkpt lat="42.1662349" lon="13.6623546"><ele>901.0</ele><time>2026-05-02T11:01:05.93Z</time></trkpt><trkpt lat="42.1661666" lon="13.6624559"><ele>900.9999999999999</ele><time>2026-05-02T11:01:06.93Z</time></trkpt><trkpt lat="42.1661011" lon="13.6625276"><ele>901.0</ele><time>2026-05-02T11:01:07.929Z</time></trkpt><trkpt lat="42.1660201" lon="13.6625373"><ele>901.0</ele><time>2026-05-02T11:01:09.928Z</time></trkpt><trkpt lat="42.1659623" lon="13.6624718"><ele>901.0</ele><time>2026-05-02T11:01:22.929Z</time></trkpt><trkpt lat="42.1659416" lon="13.6623151"><ele>900.9999999999999</ele><time>2026-05-02T11:01:24.929Z</time></trkpt><trkpt lat="42.1659392" lon="13.6622146"><ele>901.0</ele><time>2026-05-02T11:01:25.929Z</time></trkpt><trkpt lat="42.1659464" lon="13.6621298"><ele>900.9999999999999</ele><time>2026-05-02T11:01:26.929Z</time></trkpt><trkpt lat="42.1659564" lon="13.6620379"><ele>901.0</ele><time>2026-05-02T11:01:27.93Z</time></trkpt><trkpt lat="42.1659794" lon="13.6619527"><ele>901.0</ele><time>2026-05-02T11:01:29.931Z</time></trkpt><trkpt lat="42.1659295" lon="13.6620554"><ele>901.0</ele><time>2026-05-02T11:01:50.929Z</time></trkpt><trkpt lat="42.165918" lon="13.6621584"><ele>900.9999999999999</ele><time>2026-05-02T11:01:52.931Z</time></trkpt><trkpt lat="42.1659182" lon="13.6622511"><ele>901.0</ele><time>2026-05-02T11:01:54.929Z</time></trkpt><trkpt lat="42.1659313" lon="13.6623602"><ele>900.9999999999999</ele><time>2026-05-02T11:01:57.93Z</time></trkpt><trkpt lat="42.1659314" lon="13.662453"><ele>901.0</ele><time>2026-05-02T11:02:46.929Z</time></trkpt><trkpt lat="42.1659708" lon="13.6625304"><ele>901.0</ele><time>2026-05-02T11:02:50.93Z</time></trkpt><trkpt lat="42.1659066" lon="13.6625998"><ele>901.0</ele><time>2026-05-02T11:04:07.928Z</time></trkpt><trkpt lat="42.1658336" lon="13.6626791"><ele>900.9999999999999</ele><time>2026-05-02T11:04:09.929Z</time></trkpt><trkpt lat="42.165747" lon="13.6627702"><ele>901.0</ele><time>2026-05-02T11:04:11.929Z</time></trkpt><trkpt lat="42.1656416" lon="13.6628366"><ele>904.75</ele><time>2026-05-02T11:04:13.93Z</time></trkpt><trkpt lat="42.165531" lon="13.662871"><ele>908.5</ele><time>2026-05-02T11:04:15.93Z</time></trkpt><trkpt lat="42.1654135" lon="13.6628828"><ele>912.25</ele><time>2026-05-02T11:04:17.929Z</time></trkpt><trkpt lat="42.1653061" lon="13.6629004"><ele>916.0</ele><time>2026-05-02T11:04:19.929Z</time></trkpt><trkpt lat="42.1651947" lon="13.6629283"><ele>915.9999999999999</ele><time>2026-05-02T11:04:21.929Z</time></trkpt><trkpt lat="42.1651309" lon="13.6629501"><ele>916.0</ele><time>2026-05-02T11:04:22.93Z</time></trkpt><trkpt lat="42.1650606" lon="13.6629862"><ele>916.0</ele><time>2026-05-02T11:04:23.93Z</time></trkpt><trkpt lat="42.1649897" lon="13.6630309"><ele>916.0</ele><time>2026-05-02T11:04:24.929Z</time></trkpt><trkpt lat="42.1649176" lon="13.6630801"><ele>915.9999999999999</ele><time>2026-05-02T11:04:25.929Z</time></trkpt><trkpt lat="42.1648433" lon="13.6631298"><ele>916.0</ele><time>2026-05-02T11:04:26.93Z</time></trkpt><trkpt lat="42.1647698" lon="13.6631656"><ele>917.1999999999999</ele><time>2026-05-02T11:04:27.93Z</time></trkpt><trkpt lat="42.1647005" lon="13.6632012"><ele>918.3999999999999</ele><time>2026-05-02T11:04:28.93Z</time></trkpt><trkpt lat="42.1646317" lon="13.663277"><ele>919.6</ele><time>2026-05-02T11:04:30.928Z</time></trkpt><trkpt lat="42.1645725" lon="13.6633649"><ele>920.8</ele><time>2026-05-02T11:04:32.93Z</time></trkpt><trkpt lat="42.1644923" lon="13.6634724"><ele>922.0</ele><time>2026-05-02T11:04:34.93Z</time></trkpt><trkpt lat="42.1644006" lon="13.6635645"><ele>923.1666666666666</ele><time>2026-05-02T11:04:36.928Z</time></trkpt><trkpt lat="42.1643439" lon="13.6636148"><ele>924.3333333333333</ele><time>2026-05-02T11:04:37.93Z</time></trkpt><trkpt lat="42.1642748" lon="13.6636655"><ele>925.5</ele><time>2026-05-02T11:04:38.928Z</time></trkpt><trkpt lat="42.164195" lon="13.6637231"><ele>926.6666666666667</ele><time>2026-05-02T11:04:39.929Z</time></trkpt><trkpt lat="42.1641158" lon="13.6637783"><ele>927.8333333333334</ele><time>2026-05-02T11:04:40.929Z</time></trkpt><trkpt lat="42.1640425" lon="13.6638349"><ele>929.0</ele><time>2026-05-02T11:04:41.929Z</time></trkpt><trkpt lat="42.1639865" lon="13.663903"><ele>930.0000000000001</ele><time>2026-05-02T11:04:42.928Z</time></trkpt><trkpt lat="42.1639339" lon="13.6639725"><ele>931.0</ele><time>2026-05-02T11:04:43.93Z</time></trkpt><trkpt lat="42.1638839" lon="13.6640391"><ele>932.0</ele><time>2026-05-02T11:04:44.93Z</time></trkpt><trkpt lat="42.1638191" lon="13.6641014"><ele>933.0</ele><time>2026-05-02T11:04:45.929Z</time></trkpt><trkpt lat="42.1637489" lon="13.6641542"><ele>934.0000000000001</ele><time>2026-05-02T11:04:46.93Z</time></trkpt><trkpt lat="42.1636795" lon="13.6642053"><ele>935.0</ele><time>2026-05-02T11:04:47.929Z</time></trkpt><trkpt lat="42.1636123" lon="13.6642531"><ele>935.0000000000001</ele><time>2026-05-02T11:04:48.929Z</time></trkpt><trkpt lat="42.1635511" lon="13.6643167"><ele>935.0</ele><time>2026-05-02T11:04:49.929Z</time></trkpt><trkpt lat="42.1634937" lon="13.6643912"><ele>935.0</ele><time>2026-05-02T11:04:50.928Z</time></trkpt><trkpt lat="42.1634448" lon="13.6644771"><ele>935.0</ele><time>2026-05-02T11:04:51.929Z</time></trkpt><trkpt lat="42.1633895" lon="13.6645512"><ele>935.0000000000001</ele><time>2026-05-02T11:04:52.929Z</time></trkpt><trkpt lat="42.1633255" lon="13.6646348"><ele>935.0</ele><time>2026-05-02T11:04:53.929Z</time></trkpt><trkpt lat="42.1632696" lon="13.6647131"><ele>935.5000000000001</ele><time>2026-05-02T11:04:54.929Z</time></trkpt><trkpt lat="42.1632114" lon="13.6647945"><ele>936.0</ele><time>2026-05-02T11:04:55.93Z</time></trkpt><trkpt lat="42.1631564" lon="13.6648727"><ele>936.5</ele><time>2026-05-02T11:04:56.93Z</time></trkpt><trkpt lat="42.1630982" lon="13.6649443"><ele>937.0</ele><time>2026-05-02T11:04:57.931Z</time></trkpt><trkpt lat="42.1630427" lon="13.6650255"><ele>937.5000000000001</ele><time>2026-05-02T11:04:58.929Z</time></trkpt><trkpt lat="42.1629904" lon="13.6651021"><ele>938.0</ele><time>2026-05-02T11:04:59.929Z</time></trkpt><trkpt lat="42.1629559" lon="13.6652122"><ele>937.8333333333334</ele><time>2026-05-02T11:05:00.929Z</time></trkpt><trkpt lat="42.1629205" lon="13.6653065"><ele>937.6666666666667</ele><time>2026-05-02T11:05:01.93Z</time></trkpt><trkpt lat="42.1628779" lon="13.6654008"><ele>937.5</ele><time>2026-05-02T11:05:02.929Z</time></trkpt><trkpt lat="42.1628299" lon="13.6654996"><ele>937.3333333333333</ele><time>2026-05-02T11:05:03.929Z</time></trkpt><trkpt lat="42.1627789" lon="13.6655962"><ele>937.1666666666666</ele><time>2026-05-02T11:05:04.93Z</time></trkpt><trkpt lat="42.162734" lon="13.6657101"><ele>937.0</ele><time>2026-05-02T11:05:05.93Z</time></trkpt><trkpt lat="42.1626934" lon="13.6658185"><ele>937.0</ele><time>2026-05-02T11:05:06.93Z</time></trkpt><trkpt lat="42.162654" lon="13.6659146"><ele>937.0</ele><time>2026-05-02T11:05:07.929Z</time></trkpt><trkpt lat="42.1626131" lon="13.6659935"><ele>937.0</ele><time>2026-05-02T11:05:08.928Z</time></trkpt><trkpt lat="42.1625107" lon="13.6661134"><ele>937.0</ele><time>2026-05-02T11:05:10.929Z</time></trkpt><trkpt lat="42.1624375" lon="13.6661732"><ele>937.0</ele><time>2026-05-02T11:05:11.93Z</time></trkpt><trkpt lat="42.1623576" lon="13.6662339"><ele>939.2</ele><time>2026-05-02T11:05:12.93Z</time></trkpt><trkpt lat="42.1622715" lon="13.6662883"><ele>941.4000000000001</ele><time>2026-05-02T11:05:13.931Z</time></trkpt><trkpt lat="42.162179" lon="13.6663277"><ele>943.5999999999999</ele><time>2026-05-02T11:05:14.929Z</time></trkpt><trkpt lat="42.1620863" lon="13.6663671"><ele>945.8</ele><time>2026-05-02T11:05:15.93Z</time></trkpt><trkpt lat="42.161999" lon="13.6664225"><ele>948.0</ele><time>2026-05-02T11:05:16.931Z</time></trkpt><trkpt lat="42.1619186" lon="13.6664896"><ele>948.0</ele><time>2026-05-02T11:05:17.93Z</time></trkpt><trkpt lat="42.1618444" lon="13.6665643"><ele>948.0</ele><time>2026-05-02T11:05:18.929Z</time></trkpt><trkpt lat="42.1617741" lon="13.6666405"><ele>948.0</ele><time>2026-05-02T11:05:19.929Z</time></trkpt><trkpt lat="42.1617026" lon="13.6667109"><ele>948.0</ele><time>2026-05-02T11:05:20.929Z</time></trkpt><trkpt lat="42.1616218" lon="13.6667777"><ele>948.0</ele><time>2026-05-02T11:05:21.93Z</time></trkpt><trkpt lat="42.1615381" lon="13.6668466"><ele>949.4</ele><time>2026-05-02T11:05:22.93Z</time></trkpt><trkpt lat="42.1614519" lon="13.6669198"><ele>950.8</ele><time>2026-05-02T11:05:23.928Z</time></trkpt><trkpt lat="42.1613635" lon="13.6669907"><ele>952.2</ele><time>2026-05-02T11:05:24.93Z</time></trkpt><trkpt lat="42.1612795" lon="13.6670618"><ele>953.6</ele><time>2026-05-02T11:05:25.929Z</time></trkpt><trkpt lat="42.1612022" lon="13.6671442"><ele>955.0</ele><time>2026-05-02T11:05:26.929Z</time></trkpt><trkpt lat="42.1611327" lon="13.667239"><ele>955.0</ele><time>2026-05-02T11:05:27.93Z</time></trkpt><trkpt lat="42.1610723" lon="13.6673399"><ele>955.0</ele><time>2026-05-02T11:05:28.93Z</time></trkpt><trkpt lat="42.1610053" lon="13.6674365"><ele>955.0</ele><time>2026-05-02T11:05:29.929Z</time></trkpt><trkpt lat="42.1609312" lon="13.6675278"><ele>955.0</ele><time>2026-05-02T11:05:30.929Z</time></trkpt><trkpt lat="42.1608561" lon="13.6676123"><ele>955.0</ele><time>2026-05-02T11:05:31.93Z</time></trkpt><trkpt lat="42.1607838" lon="13.6676904"><ele>954.9999999999999</ele><time>2026-05-02T11:05:32.929Z</time></trkpt><trkpt lat="42.1607264" lon="13.667746"><ele>955.0</ele><time>2026-05-02T11:05:33.929Z</time></trkpt><trkpt lat="42.1606186" lon="13.6678201"><ele>955.0</ele><time>2026-05-02T11:05:35.93Z</time></trkpt><trkpt lat="42.1605639" lon="13.6678703"><ele>955.0</ele><time>2026-05-02T11:05:36.93Z</time></trkpt><trkpt lat="42.160499" lon="13.6679376"><ele>954.9999999999999</ele><time>2026-05-02T11:05:37.93Z</time></trkpt><trkpt lat="42.160437" lon="13.668005"><ele>955.0</ele><time>2026-05-02T11:05:38.929Z</time></trkpt><trkpt lat="42.160373" lon="13.6680566"><ele>954.4999999999999</ele><time>2026-05-02T11:05:39.929Z</time></trkpt><trkpt lat="42.1603205" lon="13.6681105"><ele>954.0</ele><time>2026-05-02T11:05:40.93Z</time></trkpt><trkpt lat="42.1602502" lon="13.6681765"><ele>953.5</ele><time>2026-05-02T11:05:41.929Z</time></trkpt><trkpt lat="42.1601933" lon="13.6682459"><ele>953.0</ele><time>2026-05-02T11:05:42.929Z</time></trkpt><trkpt lat="42.1601359" lon="13.6683136"><ele>952.4999999999999</ele><time>2026-05-02T11:05:43.929Z</time></trkpt><trkpt lat="42.160083" lon="13.6683883"><ele>952.0</ele><time>2026-05-02T11:05:44.93Z</time></trkpt><trkpt lat="42.1600277" lon="13.6684614"><ele>951.9999999999999</ele><time>2026-05-02T11:05:45.929Z</time></trkpt><trkpt lat="42.1599687" lon="13.6685288"><ele>952.0</ele><time>2026-05-02T11:05:46.93Z</time></trkpt><trkpt lat="42.1598903" lon="13.6685831"><ele>952.0</ele><time>2026-05-02T11:05:47.929Z</time></trkpt><trkpt lat="42.1598235" lon="13.6686515"><ele>952.0</ele><time>2026-05-02T11:05:48.929Z</time></trkpt><trkpt lat="42.1597506" lon="13.668718"><ele>951.9999999999999</ele><time>2026-05-02T11:05:49.928Z</time></trkpt><trkpt lat="42.1596847" lon="13.6687826"><ele>952.0</ele><time>2026-05-02T11:05:50.928Z</time></trkpt><trkpt lat="42.1596297" lon="13.6688397"><ele>950.1666666666666</ele><time>2026-05-02T11:05:51.929Z</time></trkpt><trkpt lat="42.1595807" lon="13.6688984"><ele>948.3333333333333</ele><time>2026-05-02T11:05:52.929Z</time></trkpt><trkpt lat="42.1595223" lon="13.6690294"><ele>946.5</ele><time>2026-05-02T11:05:54.929Z</time></trkpt><trkpt lat="42.1595281" lon="13.6691189"><ele>944.6666666666667</ele><time>2026-05-02T11:05:55.929Z</time></trkpt><trkpt lat="42.1595327" lon="13.6692157"><ele>942.8333333333334</ele><time>2026-05-02T11:05:56.928Z</time></trkpt><trkpt lat="42.1595286" lon="13.669313"><ele>941.0</ele><time>2026-05-02T11:05:57.928Z</time></trkpt><trkpt lat="42.1595091" lon="13.6694315"><ele>939.8333333333334</ele><time>2026-05-02T11:05:58.929Z</time></trkpt><trkpt lat="42.1594952" lon="13.6695364"><ele>938.6666666666667</ele><time>2026-05-02T11:05:59.929Z</time></trkpt><trkpt lat="42.1594849" lon="13.6696451"><ele>937.5</ele><time>2026-05-02T11:06:00.929Z</time></trkpt><trkpt lat="42.159466" lon="13.6697419"><ele>936.3333333333333</ele><time>2026-05-02T11:06:01.931Z</time></trkpt><trkpt lat="42.1594375" lon="13.6698233"><ele>935.1666666666666</ele><time>2026-05-02T11:06:02.928Z</time></trkpt><trkpt lat="42.1594059" lon="13.6699113"><ele>934.0</ele><time>2026-05-02T11:06:03.93Z</time></trkpt><trkpt lat="42.1593336" lon="13.670028"><ele>933.9999999999999</ele><time>2026-05-02T11:06:05.93Z</time></trkpt><trkpt lat="42.159273" lon="13.670139"><ele>934.0</ele><time>2026-05-02T11:06:07.93Z</time></trkpt><trkpt lat="42.15922" lon="13.670285"><ele>934.0</ele><time>2026-05-02T11:06:09.93Z</time></trkpt><trkpt lat="42.1592029" lon="13.67038"><ele>934.0</ele><time>2026-05-02T11:06:10.929Z</time></trkpt><trkpt lat="42.1591887" lon="13.6704728"><ele>933.9999999999999</ele><time>2026-05-02T11:06:11.928Z</time></trkpt><trkpt lat="42.159175" lon="13.6705677"><ele>934.0</ele><time>2026-05-02T11:06:12.929Z</time></trkpt><trkpt lat="42.159174" lon="13.6706639"><ele>935.3333333333333</ele><time>2026-05-02T11:06:13.93Z</time></trkpt><trkpt lat="42.1591782" lon="13.6707516"><ele>936.6666666666666</ele><time>2026-05-02T11:06:14.929Z</time></trkpt><trkpt lat="42.1591911" lon="13.6709231"><ele>938.0</ele><time>2026-05-02T11:06:16.93Z</time></trkpt><trkpt lat="42.1592012" lon="13.6710147"><ele>939.3333333333333</ele><time>2026-05-02T11:06:17.929Z</time></trkpt><trkpt lat="42.1592062" lon="13.6711087"><ele>940.6666666666666</ele><time>2026-05-02T11:06:18.928Z</time></trkpt><trkpt lat="42.1592142" lon="13.6712055"><ele>942.0</ele><time>2026-05-02T11:06:19.928Z</time></trkpt><trkpt lat="42.159225" lon="13.6713059"><ele>942.1666666666666</ele><time>2026-05-02T11:06:20.93Z</time></trkpt><trkpt lat="42.1592275" lon="13.6714152"><ele>942.3333333333333</ele><time>2026-05-02T11:06:21.929Z</time></trkpt><trkpt lat="42.1592273" lon="13.6715271"><ele>942.5</ele><time>2026-05-02T11:06:22.93Z</time></trkpt><trkpt lat="42.1592326" lon="13.6716271"><ele>942.6666666666666</ele><time>2026-05-02T11:06:23.929Z</time></trkpt><trkpt lat="42.1592584" lon="13.6717232"><ele>942.8333333333333</ele><time>2026-05-02T11:06:24.93Z</time></trkpt><trkpt lat="42.1592925" lon="13.6718113"><ele>943.0</ele><time>2026-05-02T11:06:25.93Z</time></trkpt><trkpt lat="42.1593363" lon="13.6718869"><ele>941.9999999999999</ele><time>2026-05-02T11:06:26.929Z</time></trkpt><trkpt lat="42.159398" lon="13.6719408"><ele>941.0</ele><time>2026-05-02T11:06:27.93Z</time></trkpt><trkpt lat="42.1594588" lon="13.6719814"><ele>940.0</ele><time>2026-05-02T11:06:28.93Z</time></trkpt><trkpt lat="42.1595154" lon="13.672023"><ele>939.0</ele><time>2026-05-02T11:06:29.928Z</time></trkpt><trkpt lat="42.1595851" lon="13.67212"><ele>937.9999999999999</ele><time>2026-05-02T11:06:31.929Z</time></trkpt><trkpt lat="42.1596002" lon="13.6722741"><ele>937.0</ele><time>2026-05-02T11:06:33.929Z</time></trkpt><trkpt lat="42.1596151" lon="13.6723679"><ele>936.9999999999999</ele><time>2026-05-02T11:06:34.929Z</time></trkpt><trkpt lat="42.1596324" lon="13.6724616"><ele>937.0</ele><time>2026-05-02T11:06:35.928Z</time></trkpt><trkpt lat="42.1596614" lon="13.6725694"><ele>937.0</ele><time>2026-05-02T11:06:36.929Z</time></trkpt><trkpt lat="42.159698" lon="13.6726765"><ele>937.0</ele><time>2026-05-02T11:06:37.929Z</time></trkpt><trkpt lat="42.1597365" lon="13.6727751"><ele>936.9999999999999</ele><time>2026-05-02T11:06:38.931Z</time></trkpt><trkpt lat="42.1597712" lon="13.6728756"><ele>937.0</ele><time>2026-05-02T11:06:39.929Z</time></trkpt><trkpt lat="42.1598062" lon="13.6729764"><ele>935.4999999999999</ele><time>2026-05-02T11:06:40.929Z</time></trkpt><trkpt lat="42.1598447" lon="13.6730778"><ele>934.0</ele><time>2026-05-02T11:06:41.93Z</time></trkpt><trkpt lat="42.1598858" lon="13.6731809"><ele>932.5</ele><time>2026-05-02T11:06:42.928Z</time></trkpt><trkpt lat="42.1599344" lon="13.6732857"><ele>931.0</ele><time>2026-05-02T11:06:43.928Z</time></trkpt><trkpt lat="42.159983" lon="13.6733928"><ele>929.4999999999999</ele><time>2026-05-02T11:06:44.93Z</time></trkpt><trkpt lat="42.1600312" lon="13.6734991"><ele>928.0</ele><time>2026-05-02T11:06:45.929Z</time></trkpt><trkpt lat="42.1600788" lon="13.6736127"><ele>932.4</ele><time>2026-05-02T11:06:46.93Z</time></trkpt><trkpt lat="42.1601252" lon="13.6737337"><ele>936.8</ele><time>2026-05-02T11:06:47.929Z</time></trkpt><trkpt lat="42.1601706" lon="13.6738514"><ele>941.2</ele><time>2026-05-02T11:06:48.93Z</time></trkpt><trkpt lat="42.1602139" lon="13.6739609"><ele>945.6</ele><time>2026-05-02T11:06:49.929Z</time></trkpt><trkpt lat="42.160254" lon="13.6740657"><ele>950.0</ele><time>2026-05-02T11:06:50.929Z</time></trkpt><trkpt lat="42.1602941" lon="13.6741601"><ele>950.0000000000001</ele><time>2026-05-02T11:06:51.929Z</time></trkpt><trkpt lat="42.1603384" lon="13.67424"><ele>950.0</ele><time>2026-05-02T11:06:52.93Z</time></trkpt><trkpt lat="42.1603839" lon="13.6743048"><ele>950.0</ele><time>2026-05-02T11:06:53.93Z</time></trkpt><trkpt lat="42.1604905" lon="13.6743739"><ele>950.0</ele><time>2026-05-02T11:06:55.929Z</time></trkpt><trkpt lat="42.1605629" lon="13.674399"><ele>950.0000000000001</ele><time>2026-05-02T11:06:56.929Z</time></trkpt><trkpt lat="42.1606385" lon="13.6744208"><ele>950.0</ele><time>2026-05-02T11:06:57.929Z</time></trkpt><trkpt lat="42.160705" lon="13.6744568"><ele>951.8333333333334</ele><time>2026-05-02T11:06:58.929Z</time></trkpt><trkpt lat="42.1607604" lon="13.6745096"><ele>953.6666666666667</ele><time>2026-05-02T11:06:59.928Z</time></trkpt><trkpt lat="42.1608064" lon="13.6745769"><ele>955.5</ele><time>2026-05-02T11:07:00.93Z</time></trkpt><trkpt lat="42.1608488" lon="13.6746494"><ele>957.3333333333333</ele><time>2026-05-02T11:07:01.928Z</time></trkpt><trkpt lat="42.1608958" lon="13.6747305"><ele>959.1666666666666</ele><time>2026-05-02T11:07:02.929Z</time></trkpt><trkpt lat="42.1609557" lon="13.6748219"><ele>961.0</ele><time>2026-05-02T11:07:03.929Z</time></trkpt><trkpt lat="42.161018" lon="13.6749216"><ele>961.0</ele><time>2026-05-02T11:07:04.929Z</time></trkpt><trkpt lat="42.1610782" lon="13.6750259"><ele>960.9999999999999</ele><time>2026-05-02T11:07:05.928Z</time></trkpt><trkpt lat="42.1611407" lon="13.6751301"><ele>960.9999999999999</ele><time>2026-05-02T11:07:06.931Z</time></trkpt><trkpt lat="42.1612044" lon="13.6752575"><ele>961.0</ele><time>2026-05-02T11:07:07.929Z</time></trkpt><trkpt lat="42.1612778" lon="13.6754001"><ele>961.0</ele><time>2026-05-02T11:07:08.929Z</time></trkpt><trkpt lat="42.1613439" lon="13.675547"><ele>962.4</ele><time>2026-05-02T11:07:09.928Z</time></trkpt><trkpt lat="42.1614121" lon="13.6756836"><ele>963.8</ele><time>2026-05-02T11:07:10.929Z</time></trkpt><trkpt lat="42.1614743" lon="13.6758004"><ele>965.1999999999999</ele><time>2026-05-02T11:07:11.929Z</time></trkpt><trkpt lat="42.1615265" lon="13.6759033"><ele>966.5999999999999</ele><time>2026-05-02T11:07:12.93Z</time></trkpt><trkpt lat="42.1615635" lon="13.6760153"><ele>968.0</ele><time>2026-05-02T11:07:13.93Z</time></trkpt><trkpt lat="42.1615934" lon="13.6761389"><ele>968.0</ele><time>2026-05-02T11:07:14.931Z</time></trkpt><trkpt lat="42.1616175" lon="13.6762565"><ele>968.0</ele><time>2026-05-02T11:07:15.93Z</time></trkpt><trkpt lat="42.1616419" lon="13.6763774"><ele>968.0</ele><time>2026-05-02T11:07:16.93Z</time></trkpt><trkpt lat="42.1616725" lon="13.6764942"><ele>968.0</ele><time>2026-05-02T11:07:17.93Z</time></trkpt><trkpt lat="42.161705" lon="13.6766099"><ele>968.0</ele><time>2026-05-02T11:07:18.929Z</time></trkpt><trkpt lat="42.1617387" lon="13.6767183"><ele>968.0</ele><time>2026-05-02T11:07:19.929Z</time></trkpt><trkpt lat="42.1617689" lon="13.6768094"><ele>968.0</ele><time>2026-05-02T11:07:20.929Z</time></trkpt><trkpt lat="42.1617939" lon="13.6769033"><ele>968.0</ele><time>2026-05-02T11:07:21.929Z</time></trkpt><trkpt lat="42.161798" lon="13.6770414"><ele>968.0</ele><time>2026-05-02T11:07:22.929Z</time></trkpt><trkpt lat="42.1618108" lon="13.6771831"><ele>968.0</ele><time>2026-05-02T11:07:23.929Z</time></trkpt><trkpt lat="42.1618264" lon="13.6773292"><ele>966.5999999999999</ele><time>2026-05-02T11:07:24.929Z</time></trkpt><trkpt lat="42.1618394" lon="13.677467"><ele>965.1999999999999</ele><time>2026-05-02T11:07:25.93Z</time></trkpt><trkpt lat="42.1618503" lon="13.6776155"><ele>963.8</ele><time>2026-05-02T11:07:26.929Z</time></trkpt><trkpt lat="42.1618556" lon="13.6777628"><ele>962.4</ele><time>2026-05-02T11:07:27.93Z</time></trkpt><trkpt lat="42.1618599" lon="13.6779204"><ele>961.0</ele><time>2026-05-02T11:07:28.929Z</time></trkpt><trkpt lat="42.1618681" lon="13.6780687"><ele>958.4</ele><time>2026-05-02T11:07:29.929Z</time></trkpt><trkpt lat="42.1618799" lon="13.6782212"><ele>955.8</ele><time>2026-05-02T11:07:30.93Z</time></trkpt><trkpt lat="42.1618897" lon="13.6783733"><ele>953.1999999999999</ele><time>2026-05-02T11:07:31.929Z</time></trkpt><trkpt lat="42.1618969" lon="13.6785244"><ele>950.5999999999999</ele><time>2026-05-02T11:07:32.929Z</time></trkpt><trkpt lat="42.1619086" lon="13.6786591"><ele>948.0</ele><time>2026-05-02T11:07:33.929Z</time></trkpt><trkpt lat="42.1619131" lon="13.6788"><ele>946.0</ele><time>2026-05-02T11:07:34.928Z</time></trkpt><trkpt lat="42.1619106" lon="13.6789259"><ele>944.0</ele><time>2026-05-02T11:07:35.93Z</time></trkpt><trkpt lat="42.1619072" lon="13.6790486"><ele>942.0</ele><time>2026-05-02T11:07:36.929Z</time></trkpt><trkpt lat="42.1618869" lon="13.6791749"><ele>940.0</ele><time>2026-05-02T11:07:37.928Z</time></trkpt><trkpt lat="42.1618618" lon="13.6793027"><ele>938.0</ele><time>2026-05-02T11:07:38.928Z</time></trkpt><trkpt lat="42.1618435" lon="13.679428"><ele>936.6666666666667</ele><time>2026-05-02T11:07:39.929Z</time></trkpt><trkpt lat="42.1618266" lon="13.679537"><ele>935.3333333333334</ele><time>2026-05-02T11:07:40.929Z</time></trkpt><trkpt lat="42.1618053" lon="13.6796445"><ele>934.0</ele><time>2026-05-02T11:07:41.928Z</time></trkpt><trkpt lat="42.161791" lon="13.6797438"><ele>932.6666666666667</ele><time>2026-05-02T11:07:42.929Z</time></trkpt><trkpt lat="42.1617761" lon="13.6798348"><ele>931.3333333333334</ele><time>2026-05-02T11:07:43.929Z</time></trkpt><trkpt lat="42.1617577" lon="13.6799785"><ele>930.0</ele><time>2026-05-02T11:07:45.928Z</time></trkpt><trkpt lat="42.1617092" lon="13.680077"><ele>930.0</ele><time>2026-05-02T11:07:47.929Z</time></trkpt><trkpt lat="42.1616221" lon="13.680086"><ele>930.0</ele><time>2026-05-02T11:07:50.93Z</time></trkpt><trkpt lat="42.1615768" lon="13.6800059"><ele>930.0</ele><time>2026-05-02T11:07:52.93Z</time></trkpt><trkpt lat="42.1615516" lon="13.6798357"><ele>930.0</ele><time>2026-05-02T11:07:54.929Z</time></trkpt><trkpt lat="42.1615381" lon="13.6797436"><ele>930.0</ele><time>2026-05-02T11:07:55.929Z</time></trkpt><trkpt lat="42.161525" lon="13.6796468"><ele>930.0</ele><time>2026-05-02T11:07:56.928Z</time></trkpt><trkpt lat="42.1615109" lon="13.6795594"><ele>931.2</ele><time>2026-05-02T11:07:57.93Z</time></trkpt><trkpt lat="42.1614964" lon="13.6794161"><ele>932.4</ele><time>2026-05-02T11:07:59.929Z</time></trkpt><trkpt lat="42.1614657" lon="13.6793001"><ele>933.5999999999999</ele><time>2026-05-02T11:08:01.929Z</time></trkpt><trkpt lat="42.1613684" lon="13.6792481"><ele>934.8</ele><time>2026-05-02T11:08:03.929Z</time></trkpt><trkpt lat="42.1612896" lon="13.6792627"><ele>936.0</ele><time>2026-05-02T11:08:04.929Z</time></trkpt><trkpt lat="42.1612072" lon="13.6792907"><ele>936.0</ele><time>2026-05-02T11:08:05.928Z</time></trkpt><trkpt lat="42.1611222" lon="13.6793207"><ele>935.9999999999999</ele><time>2026-05-02T11:08:06.929Z</time></trkpt><trkpt lat="42.1610329" lon="13.6793554"><ele>935.9999999999999</ele><time>2026-05-02T11:08:07.929Z</time></trkpt><trkpt lat="42.1609502" lon="13.6793887"><ele>936.0</ele><time>2026-05-02T11:08:08.928Z</time></trkpt><trkpt lat="42.1608632" lon="13.67941"><ele>936.0</ele><time>2026-05-02T11:08:09.929Z</time></trkpt><trkpt lat="42.1607675" lon="13.6794212"><ele>935.1666666666666</ele><time>2026-05-02T11:08:10.93Z</time></trkpt><trkpt lat="42.1606817" lon="13.6794284"><ele>934.3333333333333</ele><time>2026-05-02T11:08:11.929Z</time></trkpt><trkpt lat="42.1605933" lon="13.6794394"><ele>933.5</ele><time>2026-05-02T11:08:12.928Z</time></trkpt><trkpt lat="42.1605044" lon="13.6794639"><ele>932.6666666666666</ele><time>2026-05-02T11:08:13.929Z</time></trkpt><trkpt lat="42.1604182" lon="13.6794987"><ele>931.8333333333333</ele><time>2026-05-02T11:08:14.928Z</time></trkpt><trkpt lat="42.160338" lon="13.6795494"><ele>931.0</ele><time>2026-05-02T11:08:15.929Z</time></trkpt><trkpt lat="42.1602587" lon="13.6796004"><ele>927.9999999999999</ele><time>2026-05-02T11:08:16.928Z</time></trkpt><trkpt lat="42.1601767" lon="13.6796462"><ele>925.0</ele><time>2026-05-02T11:08:17.928Z</time></trkpt><trkpt lat="42.1601011" lon="13.6796844"><ele>922.0</ele><time>2026-05-02T11:08:18.928Z</time></trkpt><trkpt lat="42.1600364" lon="13.6797274"><ele>919.0</ele><time>2026-05-02T11:08:19.929Z</time></trkpt><trkpt lat="42.1599733" lon="13.6797827"><ele>915.9999999999999</ele><time>2026-05-02T11:08:20.929Z</time></trkpt><trkpt lat="42.1599159" lon="13.6798562"><ele>913.0</ele><time>2026-05-02T11:08:21.929Z</time></trkpt><trkpt lat="42.1598688" lon="13.6799274"><ele>908.8333333333333</ele><time>2026-05-02T11:08:22.928Z</time></trkpt><trkpt lat="42.1597891" lon="13.6800283"><ele>904.6666666666666</ele><time>2026-05-02T11:08:24.929Z</time></trkpt><trkpt lat="42.1597045" lon="13.680054"><ele>900.5</ele><time>2026-05-02T11:08:26.929Z</time></trkpt><trkpt lat="42.1596297" lon="13.6800055"><ele>896.3333333333333</ele><time>2026-05-02T11:08:28.929Z</time></trkpt><trkpt lat="42.159571" lon="13.6799188"><ele>892.1666666666666</ele><time>2026-05-02T11:08:30.929Z</time></trkpt><trkpt lat="42.159528" lon="13.6798401"><ele>888.0</ele><time>2026-05-02T11:08:32.929Z</time></trkpt><trkpt lat="42.1594864" lon="13.6797623"><ele>888.0</ele><time>2026-05-02T11:08:34.93Z</time></trkpt><trkpt lat="42.159455" lon="13.6796876"><ele>888.0</ele><time>2026-05-02T11:08:36.928Z</time></trkpt><trkpt lat="42.1594093" lon="13.6795733"><ele>888.0</ele><time>2026-05-02T11:08:39.928Z</time></trkpt><trkpt lat="42.1593809" lon="13.679489"><ele>888.0</ele><time>2026-05-02T11:08:41.929Z</time></trkpt><trkpt lat="42.1593461" lon="13.6793839"><ele>888.0</ele><time>2026-05-02T11:08:43.929Z</time></trkpt><trkpt lat="42.1593206" lon="13.6792912"><ele>888.0</ele><time>2026-05-02T11:08:45.929Z</time></trkpt><trkpt lat="42.1592913" lon="13.6791804"><ele>889.8</ele><time>2026-05-02T11:08:47.929Z</time></trkpt><trkpt lat="42.1592732" lon="13.6790556"><ele>891.5999999999999</ele><time>2026-05-02T11:08:49.928Z</time></trkpt><trkpt lat="42.159238" lon="13.6789302"><ele>893.4000000000001</ele><time>2026-05-02T11:08:51.929Z</time></trkpt><trkpt lat="42.1591994" lon="13.6787891"><ele>895.2</ele><time>2026-05-02T11:08:53.928Z</time></trkpt><trkpt lat="42.1591463" lon="13.6786424"><ele>897.0</ele><time>2026-05-02T11:08:55.929Z</time></trkpt><trkpt lat="42.1590913" lon="13.6784974"><ele>898.6666666666666</ele><time>2026-05-02T11:08:57.93Z</time></trkpt><trkpt lat="42.1590597" lon="13.6784169"><ele>900.3333333333333</ele><time>2026-05-02T11:08:58.928Z</time></trkpt><trkpt lat="42.1590375" lon="13.6783328"><ele>902.0</ele><time>2026-05-02T11:08:59.929Z</time></trkpt><trkpt lat="42.1590154" lon="13.6782492"><ele>903.6666666666666</ele><time>2026-05-02T11:09:00.929Z</time></trkpt><trkpt lat="42.1589743" lon="13.6780906"><ele>905.3333333333333</ele><time>2026-05-02T11:09:02.929Z</time></trkpt><trkpt lat="42.1589538" lon="13.6780092"><ele>907.0</ele><time>2026-05-02T11:09:03.929Z</time></trkpt><trkpt lat="42.1589293" lon="13.6779282"><ele>900.9999999999999</ele><time>2026-05-02T11:09:04.929Z</time></trkpt><trkpt lat="42.1589017" lon="13.6778494"><ele>895.0</ele><time>2026-05-02T11:09:05.929Z</time></trkpt><trkpt lat="42.1588509" lon="13.6777066"><ele>889.0</ele><time>2026-05-02T11:09:07.928Z</time></trkpt><trkpt lat="42.1588019" lon="13.6775469"><ele>883.0</ele><time>2026-05-02T11:09:09.929Z</time></trkpt><trkpt lat="42.1587751" lon="13.6774679"><ele>876.9999999999999</ele><time>2026-05-02T11:09:10.929Z</time></trkpt><trkpt lat="42.1587448" lon="13.6773877"><ele>871.0</ele><time>2026-05-02T11:09:11.929Z</time></trkpt><trkpt lat="42.1586894" lon="13.6772389"><ele>871.0</ele><time>2026-05-02T11:09:13.929Z</time></trkpt><trkpt lat="42.1586393" lon="13.6771087"><ele>870.9999999999999</ele><time>2026-05-02T11:09:15.929Z</time></trkpt><trkpt lat="42.1585848" lon="13.6769797"><ele>870.9999999999999</ele><time>2026-05-02T11:09:17.928Z</time></trkpt><trkpt lat="42.1585457" lon="13.6769086"><ele>871.0</ele><time>2026-05-02T11:09:18.93Z</time></trkpt><trkpt lat="42.1584811" lon="13.6767818"><ele>871.0</ele><time>2026-05-02T11:09:20.929Z</time></trkpt><trkpt lat="42.1584169" lon="13.6766532"><ele>874.0</ele><time>2026-05-02T11:09:22.927Z</time></trkpt><trkpt lat="42.1583801" lon="13.6765829"><ele>876.9999999999999</ele><time>2026-05-02T11:09:23.929Z</time></trkpt><trkpt lat="42.1583069" lon="13.6764505"><ele>879.9999999999999</ele><time>2026-05-02T11:09:25.929Z</time></trkpt><trkpt lat="42.1582338" lon="13.6763208"><ele>883.0</ele><time>2026-05-02T11:09:27.929Z</time></trkpt><trkpt lat="42.1581956" lon="13.6762497"><ele>886.0</ele><time>2026-05-02T11:09:28.929Z</time></trkpt><trkpt lat="42.158136" lon="13.676125"><ele>878.5999999999999</ele><time>2026-05-02T11:09:30.929Z</time></trkpt><trkpt lat="42.1580798" lon="13.6760058"><ele>871.1999999999999</ele><time>2026-05-02T11:09:32.929Z</time></trkpt><trkpt lat="42.1580304" lon="13.6758961"><ele>863.8</ele><time>2026-05-02T11:09:34.927Z</time></trkpt><trkpt lat="42.157979" lon="13.67578"><ele>856.4000000000001</ele><time>2026-05-02T11:09:36.929Z</time></trkpt><trkpt lat="42.1579268" lon="13.6756753"><ele>849.0</ele><time>2026-05-02T11:09:38.929Z</time></trkpt><trkpt lat="42.15787" lon="13.6756047"><ele>849.0</ele><time>2026-05-02T11:09:40.929Z</time></trkpt><trkpt lat="42.1578233" lon="13.6755333"><ele>849.0</ele><time>2026-05-02T11:09:42.929Z</time></trkpt><trkpt lat="42.1577888" lon="13.6754558"><ele>849.0</ele><time>2026-05-02T11:09:44.929Z</time></trkpt><trkpt lat="42.1577545" lon="13.6753781"><ele>849.0</ele><time>2026-05-02T11:09:47.84Z</time></trkpt><trkpt lat="42.1577196" lon="13.6752575"><ele>849.0</ele><time>2026-05-02T11:09:49.928Z</time></trkpt><trkpt lat="42.1576922" lon="13.6751522"><ele>849.0</ele><time>2026-05-02T11:09:51.929Z</time></trkpt><trkpt lat="42.1576626" lon="13.6750411"><ele>849.3333333333334</ele><time>2026-05-02T11:09:53.929Z</time></trkpt><trkpt lat="42.1576372" lon="13.6749345"><ele>849.6666666666667</ele><time>2026-05-02T11:09:55.929Z</time></trkpt><trkpt lat="42.1576237" lon="13.6748315"><ele>850.0</ele><time>2026-05-02T11:09:57.929Z</time></trkpt><trkpt lat="42.1576239" lon="13.6747382"><ele>850.3333333333334</ele><time>2026-05-02T11:09:59.929Z</time></trkpt><trkpt lat="42.1576231" lon="13.6746333"><ele>850.6666666666667</ele><time>2026-05-02T11:10:01.931Z</time></trkpt><trkpt lat="42.1576289" lon="13.6745115"><ele>851.0</ele><time>2026-05-02T11:10:03.928Z</time></trkpt><trkpt lat="42.1576525" lon="13.6744138"><ele>851.0000000000001</ele><time>2026-05-02T11:10:05.928Z</time></trkpt><trkpt lat="42.1576949" lon="13.6743043"><ele>851.0</ele><time>2026-05-02T11:10:08.929Z</time></trkpt><trkpt lat="42.1576805" lon="13.6742138"><ele>851.0</ele><time>2026-05-02T11:10:12.929Z</time></trkpt><trkpt lat="42.1576084" lon="13.6742668"><ele>851.0</ele><time>2026-05-02T11:10:16.929Z</time></trkpt><trkpt lat="42.1575714" lon="13.6743399"><ele>851.0000000000001</ele><time>2026-05-02T11:10:18.928Z</time></trkpt><trkpt lat="42.1575191" lon="13.6744152"><ele>851.0</ele><time>2026-05-02T11:10:20.928Z</time></trkpt><trkpt lat="42.1574779" lon="13.6745007"><ele>851.5714285714286</ele><time>2026-05-02T11:10:22.929Z</time></trkpt><trkpt lat="42.1574481" lon="13.6745848"><ele>852.1428571428571</ele><time>2026-05-02T11:10:24.929Z</time></trkpt><trkpt lat="42.1574283" lon="13.6746741"><ele>852.7142857142858</ele><time>2026-05-02T11:10:26.929Z</time></trkpt><trkpt lat="42.1574103" lon="13.6747622"><ele>853.2857142857142</ele><time>2026-05-02T11:10:28.928Z</time></trkpt><trkpt lat="42.1573997" lon="13.6748526"><ele>853.8571428571428</ele><time>2026-05-02T11:10:30.93Z</time></trkpt><trkpt lat="42.157392" lon="13.6749674"><ele>854.4285714285714</ele><time>2026-05-02T11:10:33.93Z</time></trkpt><trkpt lat="42.1573598" lon="13.6750517"><ele>855.0</ele><time>2026-05-02T11:10:36.929Z</time></trkpt><trkpt lat="42.1572907" lon="13.6750345"><ele>847.6666666666666</ele><time>2026-05-02T11:10:39.929Z</time></trkpt><trkpt lat="42.1572463" lon="13.6749452"><ele>840.3333333333333</ele><time>2026-05-02T11:10:42.927Z</time></trkpt><trkpt lat="42.1572283" lon="13.6748558"><ele>833.0</ele><time>2026-05-02T11:10:44.929Z</time></trkpt><trkpt lat="42.1572166" lon="13.6747501"><ele>825.6666666666666</ele><time>2026-05-02T11:10:46.929Z</time></trkpt><trkpt lat="42.1572119" lon="13.6746453"><ele>818.3333333333333</ele><time>2026-05-02T11:10:48.929Z</time></trkpt><trkpt lat="42.1572032" lon="13.6745441"><ele>811.0</ele><time>2026-05-02T11:10:50.928Z</time></trkpt><trkpt lat="42.1572003" lon="13.6744501"><ele>812.6666666666666</ele><time>2026-05-02T11:10:52.93Z</time></trkpt><trkpt lat="42.1572067" lon="13.6743504"><ele>814.3333333333333</ele><time>2026-05-02T11:10:54.929Z</time></trkpt><trkpt lat="42.1572007" lon="13.6742443"><ele>816.0</ele><time>2026-05-02T11:10:56.927Z</time></trkpt><trkpt lat="42.1572117" lon="13.6741306"><ele>817.6666666666667</ele><time>2026-05-02T11:10:58.928Z</time></trkpt><trkpt lat="42.1572317" lon="13.674019"><ele>819.3333333333334</ele><time>2026-05-02T11:11:00.929Z</time></trkpt><trkpt lat="42.1571977" lon="13.6739428"><ele>821.0</ele><time>2026-05-02T11:11:02.929Z</time></trkpt><trkpt lat="42.1571383" lon="13.6738978"><ele>821.0000000000001</ele><time>2026-05-02T11:11:04.928Z</time></trkpt><trkpt lat="42.1570696" lon="13.6739128"><ele>821.0</ele><time>2026-05-02T11:11:16.929Z</time></trkpt><trkpt lat="42.1569996" lon="13.673994"><ele>821.0</ele><time>2026-05-02T11:11:19.928Z</time></trkpt><trkpt lat="42.1569381" lon="13.674051"><ele>821.0</ele><time>2026-05-02T11:11:21.929Z</time></trkpt><trkpt lat="42.1568835" lon="13.6741144"><ele>821.0000000000001</ele><time>2026-05-02T11:11:23.93Z</time></trkpt><trkpt lat="42.1568448" lon="13.6742073"><ele>821.0</ele><time>2026-05-02T11:11:25.927Z</time></trkpt><trkpt lat="42.1568657" lon="13.6743157"><ele>821.0000000000001</ele><time>2026-05-02T11:11:27.929Z</time></trkpt><trkpt lat="42.1568706" lon="13.6744257"><ele>821.0</ele><time>2026-05-02T11:11:29.929Z</time></trkpt><trkpt lat="42.1568468" lon="13.6745334"><ele>821.0</ele><time>2026-05-02T11:11:31.93Z</time></trkpt><trkpt lat="42.1568205" lon="13.6746441"><ele>821.0</ele><time>2026-05-02T11:11:33.932Z</time></trkpt><trkpt lat="42.1567808" lon="13.6747635"><ele>821.0000000000001</ele><time>2026-05-02T11:11:35.929Z</time></trkpt><trkpt lat="42.1567353" lon="13.6748757"><ele>821.0</ele><time>2026-05-02T11:11:37.929Z</time></trkpt><trkpt lat="42.1566894" lon="13.6750027"><ele>820.6666666666667</ele><time>2026-05-02T11:11:39.928Z</time></trkpt><trkpt lat="42.1566373" lon="13.6751464"><ele>820.3333333333334</ele><time>2026-05-02T11:11:41.929Z</time></trkpt><trkpt lat="42.1566085" lon="13.6752253"><ele>820.0</ele><time>2026-05-02T11:11:42.929Z</time></trkpt><trkpt lat="42.1565826" lon="13.6753153"><ele>819.6666666666667</ele><time>2026-05-02T11:11:43.929Z</time></trkpt><trkpt lat="42.1565572" lon="13.6754013"><ele>819.3333333333334</ele><time>2026-05-02T11:11:44.928Z</time></trkpt><trkpt lat="42.1565356" lon="13.6754941"><ele>819.0</ele><time>2026-05-02T11:11:45.928Z</time></trkpt><trkpt lat="42.1565146" lon="13.675582"><ele>819.0</ele><time>2026-05-02T11:11:46.929Z</time></trkpt><trkpt lat="42.1564965" lon="13.6756636"><ele>819.0</ele><time>2026-05-02T11:11:47.929Z</time></trkpt><trkpt lat="42.1564563" lon="13.6757858"><ele>819.0</ele><time>2026-05-02T11:11:49.928Z</time></trkpt><trkpt lat="42.1564175" lon="13.6758889"><ele>819.0</ele><time>2026-05-02T11:11:51.929Z</time></trkpt><trkpt lat="42.1564042" lon="13.6760746"><ele>819.0</ele><time>2026-05-02T11:11:53.93Z</time></trkpt><trkpt lat="42.1564119" lon="13.6762274"><ele>818.25</ele><time>2026-05-02T11:11:54.929Z</time></trkpt><trkpt lat="42.1564333" lon="13.676399"><ele>817.5</ele><time>2026-05-02T11:11:55.929Z</time></trkpt><trkpt lat="42.1564559" lon="13.6765697"><ele>816.75</ele><time>2026-05-02T11:11:56.927Z</time></trkpt><trkpt lat="42.1564787" lon="13.6767344"><ele>816.0</ele><time>2026-05-02T11:11:57.929Z</time></trkpt><trkpt lat="42.1565025" lon="13.6768928"><ele>816.0</ele><time>2026-05-02T11:11:58.929Z</time></trkpt><trkpt lat="42.1565277" lon="13.6770669"><ele>816.0</ele><time>2026-05-02T11:11:59.928Z</time></trkpt><trkpt lat="42.1565519" lon="13.67726"><ele>816.0</ele><time>2026-05-02T11:12:00.929Z</time></trkpt><trkpt lat="42.1565759" lon="13.6774356"><ele>816.0</ele><time>2026-05-02T11:12:01.929Z</time></trkpt><trkpt lat="42.1566001" lon="13.6776078"><ele>805.75</ele><time>2026-05-02T11:12:02.929Z</time></trkpt><trkpt lat="42.1566092" lon="13.6777745"><ele>795.5</ele><time>2026-05-02T11:12:03.929Z</time></trkpt><trkpt lat="42.1565963" lon="13.6779368"><ele>785.25</ele><time>2026-05-02T11:12:04.928Z</time></trkpt><trkpt lat="42.1565859" lon="13.6780999"><ele>775.0</ele><time>2026-05-02T11:12:05.93Z</time></trkpt><trkpt lat="42.1565659" lon="13.6782665"><ele>775.0</ele><time>2026-05-02T11:12:06.929Z</time></trkpt><trkpt lat="42.156561" lon="13.6784405"><ele>775.0</ele><time>2026-05-02T11:12:07.929Z</time></trkpt><trkpt lat="42.1565618" lon="13.6786128"><ele>775.0</ele><time>2026-05-02T11:12:08.929Z</time></trkpt><trkpt lat="42.1565704" lon="13.6787704"><ele>775.0</ele><time>2026-05-02T11:12:09.927Z</time></trkpt><trkpt lat="42.1565899" lon="13.6789213"><ele>775.4999999999999</ele><time>2026-05-02T11:12:10.929Z</time></trkpt><trkpt lat="42.1566144" lon="13.679055"><ele>776.0</ele><time>2026-05-02T11:12:11.927Z</time></trkpt><trkpt lat="42.1566354" lon="13.6791614"><ele>776.5</ele><time>2026-05-02T11:12:12.927Z</time></trkpt><trkpt lat="42.1566462" lon="13.6792986"><ele>777.0</ele><time>2026-05-02T11:12:14.928Z</time></trkpt><trkpt lat="42.1566393" lon="13.6794018"><ele>777.4999999999999</ele><time>2026-05-02T11:12:16.929Z</time></trkpt><trkpt lat="42.1566484" lon="13.6793158"><ele>778.0</ele><time>2026-05-02T11:12:23.929Z</time></trkpt><trkpt lat="42.156629" lon="13.6792187"><ele>778.0</ele><time>2026-05-02T11:12:24.93Z</time></trkpt><trkpt lat="42.156605" lon="13.6790947"><ele>778.0</ele><time>2026-05-02T11:12:25.929Z</time></trkpt><trkpt lat="42.1565769" lon="13.6789462"><ele>778.0</ele><time>2026-05-02T11:12:26.93Z</time></trkpt><trkpt lat="42.156564" lon="13.6788079"><ele>778.0</ele><time>2026-05-02T11:12:27.928Z</time></trkpt><trkpt lat="42.156557" lon="13.6786673"><ele>778.0</ele><time>2026-05-02T11:12:28.928Z</time></trkpt><trkpt lat="42.1565566" lon="13.6785238"><ele>777.25</ele><time>2026-05-02T11:12:29.928Z</time></trkpt><trkpt lat="42.1565644" lon="13.6783743"><ele>776.5</ele><time>2026-05-02T11:12:30.929Z</time></trkpt><trkpt lat="42.1565636" lon="13.6782287"><ele>775.75</ele><time>2026-05-02T11:12:31.928Z</time></trkpt><trkpt lat="42.1565911" lon="13.6780661"><ele>775.0</ele><time>2026-05-02T11:12:32.93Z</time></trkpt><trkpt lat="42.1566118" lon="13.6779175"><ele>776.2</ele><time>2026-05-02T11:12:33.929Z</time></trkpt><trkpt lat="42.1566169" lon="13.6777678"><ele>777.4</ele><time>2026-05-02T11:12:34.928Z</time></trkpt><trkpt lat="42.1566018" lon="13.6776327"><ele>778.5999999999999</ele><time>2026-05-02T11:12:35.93Z</time></trkpt><trkpt lat="42.1565825" lon="13.6775118"><ele>779.8</ele><time>2026-05-02T11:12:36.929Z</time></trkpt><trkpt lat="42.156568" lon="13.6774016"><ele>781.0</ele><time>2026-05-02T11:12:37.929Z</time></trkpt><trkpt lat="42.156552" lon="13.6772972"><ele>781.0</ele><time>2026-05-02T11:12:38.928Z</time></trkpt><trkpt lat="42.1565449" lon="13.6771571"><ele>781.0</ele><time>2026-05-02T11:12:40.928Z</time></trkpt><trkpt lat="42.1566163" lon="13.6771526"><ele>781.0</ele><time>2026-05-02T11:12:42.929Z</time></trkpt><trkpt lat="42.1566603" lon="13.677223"><ele>781.0</ele><time>2026-05-02T11:12:43.929Z</time></trkpt><trkpt lat="42.1567013" lon="13.6773454"><ele>781.0</ele><time>2026-05-02T11:12:44.928Z</time></trkpt><trkpt lat="42.1567506" lon="13.6775071"><ele>781.0</ele><time>2026-05-02T11:12:45.928Z</time></trkpt><trkpt lat="42.1567889" lon="13.6776694"><ele>781.0</ele><time>2026-05-02T11:12:46.927Z</time></trkpt><trkpt lat="42.1568324" lon="13.6778401"><ele>781.0</ele><time>2026-05-02T11:12:47.929Z</time></trkpt><trkpt lat="42.1568684" lon="13.6780023"><ele>781.0</ele><time>2026-05-02T11:12:48.928Z</time></trkpt><trkpt lat="42.1569169" lon="13.6781721"><ele>780.25</ele><time>2026-05-02T11:12:49.929Z</time></trkpt><trkpt lat="42.1569635" lon="13.6783445"><ele>779.5</ele><time>2026-05-02T11:12:50.928Z</time></trkpt><trkpt lat="42.1570041" lon="13.6785129"><ele>778.75</ele><time>2026-05-02T11:12:51.93Z</time></trkpt><trkpt lat="42.1570463" lon="13.6786817"><ele>778.0</ele><time>2026-05-02T11:12:52.929Z</time></trkpt><trkpt lat="42.1570825" lon="13.6788552"><ele>778.0</ele><time>2026-05-02T11:12:53.929Z</time></trkpt><trkpt lat="42.1571201" lon="13.6790055"><ele>778.0</ele><time>2026-05-02T11:12:54.929Z</time></trkpt><trkpt lat="42.157162" lon="13.6791442"><ele>778.0</ele><time>2026-05-02T11:12:55.929Z</time></trkpt><trkpt lat="42.157212" lon="13.6792658"><ele>778.0</ele><time>2026-05-02T11:12:56.929Z</time></trkpt><trkpt lat="42.1572464" lon="13.6793856"><ele>778.0</ele><time>2026-05-02T11:12:57.927Z</time></trkpt><trkpt lat="42.1572734" lon="13.6795048"><ele>774.5</ele><time>2026-05-02T11:12:58.93Z</time></trkpt><trkpt lat="42.1572343" lon="13.6796732"><ele>771.0</ele><time>2026-05-02T11:12:59.929Z</time></trkpt><trkpt lat="42.1572144" lon="13.6798362"><ele>767.5</ele><time>2026-05-02T11:13:00.929Z</time></trkpt><trkpt lat="42.1571858" lon="13.6800151"><ele>764.0</ele><time>2026-05-02T11:13:01.929Z</time></trkpt><trkpt lat="42.1571612" lon="13.6801823"><ele>759.25</ele><time>2026-05-02T11:13:02.929Z</time></trkpt><trkpt lat="42.1571354" lon="13.6803493"><ele>754.5</ele><time>2026-05-02T11:13:03.929Z</time></trkpt><trkpt lat="42.1570875" lon="13.6805171"><ele>749.75</ele><time>2026-05-02T11:13:04.928Z</time></trkpt><trkpt lat="42.1570326" lon="13.6806818"><ele>745.0</ele><time>2026-05-02T11:13:05.927Z</time></trkpt><trkpt lat="42.1569638" lon="13.6808356"><ele>745.0</ele><time>2026-05-02T11:13:06.93Z</time></trkpt><trkpt lat="42.1568927" lon="13.6809859"><ele>745.0</ele><time>2026-05-02T11:13:07.93Z</time></trkpt><trkpt lat="42.1568006" lon="13.6811097"><ele>745.0</ele><time>2026-05-02T11:13:08.928Z</time></trkpt><trkpt lat="42.1567086" lon="13.6812389"><ele>745.0</ele><time>2026-05-02T11:13:09.928Z</time></trkpt><trkpt lat="42.1566127" lon="13.6813684"><ele>741.75</ele><time>2026-05-02T11:13:10.929Z</time></trkpt><trkpt lat="42.1565181" lon="13.6814835"><ele>738.5</ele><time>2026-05-02T11:13:11.928Z</time></trkpt><trkpt lat="42.1564215" lon="13.6815994"><ele>735.25</ele><time>2026-05-02T11:13:12.928Z</time></trkpt><trkpt lat="42.1563237" lon="13.6817068"><ele>732.0</ele><time>2026-05-02T11:13:13.928Z</time></trkpt><trkpt lat="42.1562193" lon="13.6818096"><ele>732.0</ele><time>2026-05-02T11:13:14.928Z</time></trkpt><trkpt lat="42.1561017" lon="13.6819204"><ele>732.0</ele><time>2026-05-02T11:13:15.928Z</time></trkpt><trkpt lat="42.1559749" lon="13.682041"><ele>732.0</ele><time>2026-05-02T11:13:16.929Z</time></trkpt><trkpt lat="42.1558462" lon="13.6821622"><ele>731.0</ele><time>2026-05-02T11:13:17.928Z</time></trkpt><trkpt lat="42.1557143" lon="13.6822815"><ele>730.0</ele><time>2026-05-02T11:13:18.929Z</time></trkpt><trkpt lat="42.1555813" lon="13.6824013"><ele>729.0</ele><time>2026-05-02T11:13:19.929Z</time></trkpt><trkpt lat="42.1554557" lon="13.6825085"><ele>725.5</ele><time>2026-05-02T11:13:20.928Z</time></trkpt><trkpt lat="42.1553317" lon="13.6826123"><ele>722.0</ele><time>2026-05-02T11:13:21.928Z</time></trkpt><trkpt lat="42.1552129" lon="13.6827217"><ele>718.5</ele><time>2026-05-02T11:13:22.929Z</time></trkpt><trkpt lat="42.1551041" lon="13.6828372"><ele>715.0</ele><time>2026-05-02T11:13:23.929Z</time></trkpt><trkpt lat="42.1549965" lon="13.6829527"><ele>715.0</ele><time>2026-05-02T11:13:24.929Z</time></trkpt><trkpt lat="42.1549122" lon="13.6830656"><ele>715.0</ele><time>2026-05-02T11:13:25.928Z</time></trkpt><trkpt lat="42.1548233" lon="13.6831696"><ele>715.0</ele><time>2026-05-02T11:13:26.929Z</time></trkpt><trkpt lat="42.1547458" lon="13.6832705"><ele>715.0</ele><time>2026-05-02T11:13:27.929Z</time></trkpt><trkpt lat="42.1546652" lon="13.6833648"><ele>712.8</ele><time>2026-05-02T11:13:28.929Z</time></trkpt><trkpt lat="42.1545899" lon="13.6834514"><ele>710.6</ele><time>2026-05-02T11:13:29.928Z</time></trkpt><trkpt lat="42.1545229" lon="13.6835243"><ele>708.4000000000001</ele><time>2026-05-02T11:13:30.929Z</time></trkpt><trkpt lat="42.1544694" lon="13.6835875"><ele>706.2</ele><time>2026-05-02T11:13:31.928Z</time></trkpt><trkpt lat="42.1543968" lon="13.6836651"><ele>704.0</ele><time>2026-05-02T11:13:33.928Z</time></trkpt><trkpt lat="42.1542878" lon="13.6836154"><ele>703.0</ele><time>2026-05-02T11:13:45.929Z</time></trkpt><trkpt lat="42.1541915" lon="13.6836062"><ele>702.0</ele><time>2026-05-02T11:13:47.928Z</time></trkpt><trkpt lat="42.1540931" lon="13.6836764"><ele>701.0</ele><time>2026-05-02T11:13:49.929Z</time></trkpt><trkpt lat="42.1540484" lon="13.6837384"><ele>700.0</ele><time>2026-05-02T11:13:50.928Z</time></trkpt><trkpt lat="42.1540231" lon="13.6838203"><ele>699.0</ele><time>2026-05-02T11:13:51.929Z</time></trkpt><trkpt lat="42.1540233" lon="13.6839077"><ele>698.0</ele><time>2026-05-02T11:13:52.927Z</time></trkpt><trkpt lat="42.1540529" lon="13.6839929"><ele>698.0</ele><time>2026-05-02T11:13:53.928Z</time></trkpt><trkpt lat="42.1541014" lon="13.6840839"><ele>698.0</ele><time>2026-05-02T11:13:54.929Z</time></trkpt><trkpt lat="42.154129" lon="13.6841796"><ele>698.0</ele><time>2026-05-02T11:13:55.929Z</time></trkpt><trkpt lat="42.1541296" lon="13.6843038"><ele>698.0</ele><time>2026-05-02T11:13:56.929Z</time></trkpt><trkpt lat="42.1541037" lon="13.6844468"><ele>698.0</ele><time>2026-05-02T11:13:57.928Z</time></trkpt><trkpt lat="42.1540558" lon="13.6846195"><ele>701.3333333333333</ele><time>2026-05-02T11:13:58.928Z</time></trkpt><trkpt lat="42.1540047" lon="13.6848089"><ele>704.6666666666666</ele><time>2026-05-02T11:13:59.928Z</time></trkpt><trkpt lat="42.1539515" lon="13.6850182"><ele>708.0</ele><time>2026-05-02T11:14:00.928Z</time></trkpt><trkpt lat="42.1538977" lon="13.6852429"><ele>703.0</ele><time>2026-05-02T11:14:01.928Z</time></trkpt><trkpt lat="42.153843" lon="13.6854725"><ele>698.0</ele><time>2026-05-02T11:14:02.929Z</time></trkpt><trkpt lat="42.1537893" lon="13.6856992"><ele>693.0</ele><time>2026-05-02T11:14:03.928Z</time></trkpt><trkpt lat="42.1537409" lon="13.6859182"><ele>689.3333333333334</ele><time>2026-05-02T11:14:04.927Z</time></trkpt><trkpt lat="42.1536931" lon="13.6861315"><ele>685.6666666666667</ele><time>2026-05-02T11:14:05.928Z</time></trkpt><trkpt lat="42.1536528" lon="13.6863379"><ele>682.0</ele><time>2026-05-02T11:14:06.929Z</time></trkpt><trkpt lat="42.153611" lon="13.6865353"><ele>682.0</ele><time>2026-05-02T11:14:07.928Z</time></trkpt><trkpt lat="42.153565" lon="13.6867295"><ele>682.0</ele><time>2026-05-02T11:14:08.927Z</time></trkpt><trkpt lat="42.1535193" lon="13.686912"><ele>682.0</ele><time>2026-05-02T11:14:09.929Z</time></trkpt><trkpt lat="42.1534827" lon="13.6870857"><ele>682.0</ele><time>2026-05-02T11:14:10.928Z</time></trkpt><trkpt lat="42.1534486" lon="13.6872435"><ele>680.6</ele><time>2026-05-02T11:14:11.929Z</time></trkpt><trkpt lat="42.1534203" lon="13.6873855"><ele>679.2</ele><time>2026-05-02T11:14:12.929Z</time></trkpt><trkpt lat="42.1533962" lon="13.68751"><ele>677.8</ele><time>2026-05-02T11:14:13.929Z</time></trkpt><trkpt lat="42.1533784" lon="13.6876093"><ele>676.4</ele><time>2026-05-02T11:14:14.928Z</time></trkpt><trkpt lat="42.1533347" lon="13.6877025"><ele>675.0</ele><time>2026-05-02T11:14:16.929Z</time></trkpt><trkpt lat="42.1532391" lon="13.6877085"><ele>675.0</ele><time>2026-05-02T11:14:18.929Z</time></trkpt><trkpt lat="42.1531564" lon="13.6876997"><ele>675.0</ele><time>2026-05-02T11:14:19.928Z</time></trkpt><trkpt lat="42.1530648" lon="13.6877264"><ele>675.0</ele><time>2026-05-02T11:14:20.928Z</time></trkpt><trkpt lat="42.1529625" lon="13.6877858"><ele>675.0</ele><time>2026-05-02T11:14:21.929Z</time></trkpt><trkpt lat="42.1528619" lon="13.6878464"><ele>675.0</ele><time>2026-05-02T11:14:22.928Z</time></trkpt><trkpt lat="42.1527647" lon="13.6879027"><ele>673.4</ele><time>2026-05-02T11:14:23.929Z</time></trkpt><trkpt lat="42.1526741" lon="13.6879621"><ele>671.8</ele><time>2026-05-02T11:14:24.93Z</time></trkpt><trkpt lat="42.1525933" lon="13.688034"><ele>670.2</ele><time>2026-05-02T11:14:25.929Z</time></trkpt><trkpt lat="42.1525291" lon="13.6881279"><ele>668.6</ele><time>2026-05-02T11:14:26.928Z</time></trkpt><trkpt lat="42.1524673" lon="13.6882539"><ele>667.0</ele><time>2026-05-02T11:14:27.927Z</time></trkpt><trkpt lat="42.1524041" lon="13.6883858"><ele>667.8</ele><time>2026-05-02T11:14:28.928Z</time></trkpt><trkpt lat="42.1523432" lon="13.6885089"><ele>668.6</ele><time>2026-05-02T11:14:29.928Z</time></trkpt><trkpt lat="42.1522758" lon="13.6886313"><ele>669.4</ele><time>2026-05-02T11:14:30.928Z</time></trkpt><trkpt lat="42.1521971" lon="13.6887398"><ele>670.1999999999999</ele><time>2026-05-02T11:14:31.928Z</time></trkpt><trkpt lat="42.1521115" lon="13.6888242"><ele>671.0</ele><time>2026-05-02T11:14:32.928Z</time></trkpt><trkpt lat="42.1520151" lon="13.6889061"><ele>669.0</ele><time>2026-05-02T11:14:33.929Z</time></trkpt><trkpt lat="42.1519085" lon="13.6889941"><ele>667.0</ele><time>2026-05-02T11:14:34.928Z</time></trkpt><trkpt lat="42.1517973" lon="13.6890782"><ele>665.0</ele><time>2026-05-02T11:14:35.929Z</time></trkpt><trkpt lat="42.1516866" lon="13.6891594"><ele>663.0</ele><time>2026-05-02T11:14:36.928Z</time></trkpt><trkpt lat="42.1515888" lon="13.6892281"><ele>662.8333333333334</ele><time>2026-05-02T11:14:37.928Z</time></trkpt><trkpt lat="42.1514978" lon="13.6892874"><ele>662.6666666666666</ele><time>2026-05-02T11:14:38.928Z</time></trkpt><trkpt lat="42.1514155" lon="13.6893395"><ele>662.5</ele><time>2026-05-02T11:14:39.928Z</time></trkpt><trkpt lat="42.1513411" lon="13.6893866"><ele>662.3333333333333</ele><time>2026-05-02T11:14:40.928Z</time></trkpt><trkpt lat="42.1512817" lon="13.6894342"><ele>662.1666666666666</ele><time>2026-05-02T11:14:41.929Z</time></trkpt><trkpt lat="42.1512288" lon="13.6894833"><ele>662.0</ele><time>2026-05-02T11:14:42.928Z</time></trkpt><trkpt lat="42.1511896" lon="13.6895627"><ele>661.75</ele><time>2026-05-02T11:14:43.927Z</time></trkpt><trkpt lat="42.1511495" lon="13.6896819"><ele>661.5</ele><time>2026-05-02T11:14:44.928Z</time></trkpt><trkpt lat="42.1511162" lon="13.6898182"><ele>661.25</ele><time>2026-05-02T11:14:45.927Z</time></trkpt><trkpt lat="42.1510825" lon="13.6899846"><ele>661.0</ele><time>2026-05-02T11:14:46.928Z</time></trkpt><trkpt lat="42.1510433" lon="13.6901598"><ele>661.25</ele><time>2026-05-02T11:14:47.929Z</time></trkpt><trkpt lat="42.1509957" lon="13.6903397"><ele>661.5</ele><time>2026-05-02T11:14:48.929Z</time></trkpt><trkpt lat="42.1509445" lon="13.6905171"><ele>661.75</ele><time>2026-05-02T11:14:49.929Z</time></trkpt><trkpt lat="42.1508926" lon="13.6906965"><ele>662.0</ele><time>2026-05-02T11:14:50.928Z</time></trkpt><trkpt lat="42.1508381" lon="13.6908705"><ele>662.0</ele><time>2026-05-02T11:14:51.929Z</time></trkpt><trkpt lat="42.1507795" lon="13.6910374"><ele>662.0</ele><time>2026-05-02T11:14:52.929Z</time></trkpt><trkpt lat="42.1507315" lon="13.6911928"><ele>662.0</ele><time>2026-05-02T11:14:53.928Z</time></trkpt><trkpt lat="42.1506803" lon="13.6913485"><ele>662.0</ele><time>2026-05-02T11:14:54.928Z</time></trkpt><trkpt lat="42.1506365" lon="13.6914906"><ele>661.5</ele><time>2026-05-02T11:14:55.928Z</time></trkpt><trkpt lat="42.1505883" lon="13.6916344"><ele>661.0</ele><time>2026-05-02T11:14:56.928Z</time></trkpt><trkpt lat="42.1505344" lon="13.69178"><ele>660.5</ele><time>2026-05-02T11:14:57.929Z</time></trkpt><trkpt lat="42.1504758" lon="13.6919127"><ele>660.0</ele><time>2026-05-02T11:14:58.929Z</time></trkpt><trkpt lat="42.1504116" lon="13.6920486"><ele>660.0</ele><time>2026-05-02T11:14:59.927Z</time></trkpt><trkpt lat="42.1503518" lon="13.6921882"><ele>660.0</ele><time>2026-05-02T11:15:00.928Z</time></trkpt><trkpt lat="42.1502999" lon="13.6923247"><ele>660.0</ele><time>2026-05-02T11:15:01.927Z</time></trkpt><trkpt lat="42.150251" lon="13.6924529"><ele>660.0</ele><time>2026-05-02T11:15:02.928Z</time></trkpt><trkpt lat="42.1502028" lon="13.6925743"><ele>660.0</ele><time>2026-05-02T11:15:03.929Z</time></trkpt><trkpt lat="42.1501705" lon="13.6926535"><ele>659.6666666666666</ele><time>2026-05-02T11:15:04.929Z</time></trkpt><trkpt lat="42.1500916" lon="13.6927797"><ele>659.3333333333334</ele><time>2026-05-02T11:15:06.928Z</time></trkpt><trkpt lat="42.1500317" lon="13.6928184"><ele>659.0</ele><time>2026-05-02T11:15:07.928Z</time></trkpt><trkpt lat="42.1499709" lon="13.6928583"><ele>658.6666666666667</ele><time>2026-05-02T11:15:08.929Z</time></trkpt><trkpt lat="42.1499117" lon="13.6929152"><ele>658.3333333333334</ele><time>2026-05-02T11:15:09.928Z</time></trkpt><trkpt lat="42.1498584" lon="13.6930055"><ele>658.0</ele><time>2026-05-02T11:15:10.928Z</time></trkpt><trkpt lat="42.1498003" lon="13.6931076"><ele>656.0</ele><time>2026-05-02T11:15:11.929Z</time></trkpt><trkpt lat="42.1497407" lon="13.6932417"><ele>654.0</ele><time>2026-05-02T11:15:12.928Z</time></trkpt><trkpt lat="42.1496793" lon="13.6933664"><ele>652.0</ele><time>2026-05-02T11:15:13.929Z</time></trkpt><trkpt lat="42.1496164" lon="13.6935036"><ele>650.0</ele><time>2026-05-02T11:15:14.928Z</time></trkpt><trkpt lat="42.149556" lon="13.6936459"><ele>650.0</ele><time>2026-05-02T11:15:15.929Z</time></trkpt><trkpt lat="42.1494958" lon="13.6937787"><ele>650.0</ele><time>2026-05-02T11:15:16.93Z</time></trkpt><trkpt lat="42.149436" lon="13.6939135"><ele>650.0</ele><time>2026-05-02T11:15:17.927Z</time></trkpt><trkpt lat="42.149378" lon="13.6940419"><ele>650.0</ele><time>2026-05-02T11:15:18.929Z</time></trkpt><trkpt lat="42.1493162" lon="13.6941741"><ele>650.0</ele><time>2026-05-02T11:15:19.929Z</time></trkpt><trkpt lat="42.1492548" lon="13.6942821"><ele>650.0</ele><time>2026-05-02T11:15:20.928Z</time></trkpt><trkpt lat="42.1491935" lon="13.6943828"><ele>650.0</ele><time>2026-05-02T11:15:21.928Z</time></trkpt><trkpt lat="42.1491239" lon="13.6944716"><ele>650.0</ele><time>2026-05-02T11:15:22.927Z</time></trkpt><trkpt lat="42.1490587" lon="13.6945594"><ele>650.0</ele><time>2026-05-02T11:15:23.928Z</time></trkpt><trkpt lat="42.1489877" lon="13.6946741"><ele>650.0</ele><time>2026-05-02T11:15:24.929Z</time></trkpt><trkpt lat="42.1489309" lon="13.694796"><ele>650.0</ele><time>2026-05-02T11:15:25.929Z</time></trkpt><trkpt lat="42.1488692" lon="13.6949104"><ele>650.0</ele><time>2026-05-02T11:15:26.929Z</time></trkpt><trkpt lat="42.1488144" lon="13.6950099"><ele>650.0</ele><time>2026-05-02T11:15:27.929Z</time></trkpt><trkpt lat="42.1487483" lon="13.6951033"><ele>650.0</ele><time>2026-05-02T11:15:28.929Z</time></trkpt><trkpt lat="42.1486654" lon="13.6951771"><ele>650.0</ele><time>2026-05-02T11:15:29.929Z</time></trkpt><trkpt lat="42.148563" lon="13.6952436"><ele>650.0</ele><time>2026-05-02T11:15:30.927Z</time></trkpt><trkpt lat="42.1484801" lon="13.6953116"><ele>650.0</ele><time>2026-05-02T11:15:31.928Z</time></trkpt><trkpt lat="42.1484085" lon="13.6953853"><ele>650.0</ele><time>2026-05-02T11:15:32.928Z</time></trkpt><trkpt lat="42.1483454" lon="13.6954843"><ele>650.0</ele><time>2026-05-02T11:15:33.928Z</time></trkpt><trkpt lat="42.1483072" lon="13.6955871"><ele>649.8333333333333</ele><time>2026-05-02T11:15:34.928Z</time></trkpt><trkpt lat="42.1482609" lon="13.695695"><ele>649.6666666666666</ele><time>2026-05-02T11:15:35.929Z</time></trkpt><trkpt lat="42.1482127" lon="13.6957882"><ele>649.5</ele><time>2026-05-02T11:15:36.929Z</time></trkpt><trkpt lat="42.148166" lon="13.6958647"><ele>649.3333333333334</ele><time>2026-05-02T11:15:37.928Z</time></trkpt><trkpt lat="42.1481055" lon="13.6959163"><ele>649.1666666666667</ele><time>2026-05-02T11:15:38.928Z</time></trkpt><trkpt lat="42.1480404" lon="13.6959609"><ele>649.0</ele><time>2026-05-02T11:15:39.928Z</time></trkpt><trkpt lat="42.1479704" lon="13.695983"><ele>649.0</ele><time>2026-05-02T11:15:40.929Z</time></trkpt><trkpt lat="42.147893" lon="13.6960004"><ele>649.0</ele><time>2026-05-02T11:15:41.927Z</time></trkpt><trkpt lat="42.1478064" lon="13.6960204"><ele>649.0</ele><time>2026-05-02T11:15:42.928Z</time></trkpt><trkpt lat="42.1476987" lon="13.6960308"><ele>649.0</ele><time>2026-05-02T11:15:43.927Z</time></trkpt><trkpt lat="42.1475992" lon="13.6960463"><ele>649.0</ele><time>2026-05-02T11:15:44.929Z</time></trkpt><trkpt lat="42.1475005" lon="13.6960627"><ele>648.8333333333334</ele><time>2026-05-02T11:15:45.929Z</time></trkpt><trkpt lat="42.1474101" lon="13.6960889"><ele>648.6666666666667</ele><time>2026-05-02T11:15:46.928Z</time></trkpt><trkpt lat="42.1473126" lon="13.6961039"><ele>648.5</ele><time>2026-05-02T11:15:47.929Z</time></trkpt><trkpt lat="42.1472243" lon="13.6961201"><ele>648.3333333333334</ele><time>2026-05-02T11:15:48.928Z</time></trkpt><trkpt lat="42.147149" lon="13.6961243"><ele>648.1666666666666</ele><time>2026-05-02T11:15:49.928Z</time></trkpt><trkpt lat="42.1470814" lon="13.6961118"><ele>648.0</ele><time>2026-05-02T11:15:50.927Z</time></trkpt><trkpt lat="42.1470076" lon="13.6960761"><ele>647.3333333333334</ele><time>2026-05-02T11:15:51.929Z</time></trkpt><trkpt lat="42.146933" lon="13.6960287"><ele>646.6666666666666</ele><time>2026-05-02T11:15:52.927Z</time></trkpt><trkpt lat="42.1468548" lon="13.6959947"><ele>646.0</ele><time>2026-05-02T11:15:53.928Z</time></trkpt><trkpt lat="42.1467742" lon="13.6959596"><ele>645.3333333333333</ele><time>2026-05-02T11:15:54.928Z</time></trkpt><trkpt lat="42.1466942" lon="13.6959166"><ele>644.6666666666666</ele><time>2026-05-02T11:15:55.928Z</time></trkpt><trkpt lat="42.1465967" lon="13.6958936"><ele>644.0</ele><time>2026-05-02T11:15:56.928Z</time></trkpt><trkpt lat="42.1465089" lon="13.6958707"><ele>641.6</ele><time>2026-05-02T11:15:57.929Z</time></trkpt><trkpt lat="42.1464252" lon="13.695841"><ele>639.2</ele><time>2026-05-02T11:15:58.928Z</time></trkpt><trkpt lat="42.1463434" lon="13.6958267"><ele>636.8000000000001</ele><time>2026-05-02T11:15:59.928Z</time></trkpt><trkpt lat="42.1462573" lon="13.6958176"><ele>634.4000000000001</ele><time>2026-05-02T11:16:00.927Z</time></trkpt><trkpt lat="42.1461645" lon="13.6958221"><ele>632.0</ele><time>2026-05-02T11:16:01.928Z</time></trkpt><trkpt lat="42.1460572" lon="13.6958669"><ele>632.0</ele><time>2026-05-02T11:16:02.928Z</time></trkpt><trkpt lat="42.1459457" lon="13.6959113"><ele>632.0</ele><time>2026-05-02T11:16:03.929Z</time></trkpt><trkpt lat="42.1458355" lon="13.695955"><ele>632.0</ele><time>2026-05-02T11:16:04.929Z</time></trkpt><trkpt lat="42.1457235" lon="13.6959997"><ele>632.0</ele><time>2026-05-02T11:16:05.928Z</time></trkpt><trkpt lat="42.1456128" lon="13.6960466"><ele>629.0</ele><time>2026-05-02T11:16:06.928Z</time></trkpt><trkpt lat="42.1454992" lon="13.6960984"><ele>626.0</ele><time>2026-05-02T11:16:07.929Z</time></trkpt><trkpt lat="42.1453912" lon="13.6961463"><ele>623.0</ele><time>2026-05-02T11:16:08.927Z</time></trkpt><trkpt lat="42.1452803" lon="13.6961919"><ele>620.0</ele><time>2026-05-02T11:16:09.928Z</time></trkpt><trkpt lat="42.1451715" lon="13.6962311"><ele>620.0</ele><time>2026-05-02T11:16:10.928Z</time></trkpt><trkpt lat="42.1450596" lon="13.6962573"><ele>620.0</ele><time>2026-05-02T11:16:11.928Z</time></trkpt><trkpt lat="42.1449439" lon="13.6962816"><ele>620.0</ele><time>2026-05-02T11:16:12.929Z</time></trkpt><trkpt lat="42.1448354" lon="13.6962985"><ele>620.0</ele><time>2026-05-02T11:16:13.928Z</time></trkpt><trkpt lat="42.1447217" lon="13.6963149"><ele>617.8</ele><time>2026-05-02T11:16:14.928Z</time></trkpt><trkpt lat="42.1446123" lon="13.6963293"><ele>615.6</ele><time>2026-05-02T11:16:15.928Z</time></trkpt><trkpt lat="42.1445059" lon="13.6963453"><ele>613.4</ele><time>2026-05-02T11:16:16.928Z</time></trkpt><trkpt lat="42.1444027" lon="13.6963782"><ele>611.2</ele><time>2026-05-02T11:16:17.927Z</time></trkpt><trkpt lat="42.1443016" lon="13.6964246"><ele>609.0</ele><time>2026-05-02T11:16:18.928Z</time></trkpt><trkpt lat="42.1442081" lon="13.6964855"><ele>609.0</ele><time>2026-05-02T11:16:19.928Z</time></trkpt><trkpt lat="42.1441205" lon="13.696562"><ele>609.0</ele><time>2026-05-02T11:16:20.928Z</time></trkpt><trkpt lat="42.1440332" lon="13.6966451"><ele>609.0</ele><time>2026-05-02T11:16:21.927Z</time></trkpt><trkpt lat="42.1439428" lon="13.6967276"><ele>609.0</ele><time>2026-05-02T11:16:22.928Z</time></trkpt><trkpt lat="42.1438427" lon="13.6968013"><ele>609.0</ele><time>2026-05-02T11:16:23.928Z</time></trkpt><trkpt lat="42.1437403" lon="13.696864"><ele>605.5</ele><time>2026-05-02T11:16:24.929Z</time></trkpt><trkpt lat="42.1436356" lon="13.6969332"><ele>602.0</ele><time>2026-05-02T11:16:25.928Z</time></trkpt><trkpt lat="42.1435228" lon="13.6969956"><ele>598.5</ele><time>2026-05-02T11:16:26.928Z</time></trkpt><trkpt lat="42.1434168" lon="13.6970652"><ele>595.0</ele><time>2026-05-02T11:16:27.928Z</time></trkpt><trkpt lat="42.1433113" lon="13.6971461"><ele>593.75</ele><time>2026-05-02T11:16:28.927Z</time></trkpt><trkpt lat="42.1432117" lon="13.6972252"><ele>592.5</ele><time>2026-05-02T11:16:29.927Z</time></trkpt><trkpt lat="42.1431142" lon="13.697308"><ele>591.25</ele><time>2026-05-02T11:16:30.928Z</time></trkpt><trkpt lat="42.1430126" lon="13.6973876"><ele>590.0</ele><time>2026-05-02T11:16:31.927Z</time></trkpt><trkpt lat="42.1429127" lon="13.6974697"><ele>590.0</ele><time>2026-05-02T11:16:32.928Z</time></trkpt><trkpt lat="42.1428044" lon="13.6975482"><ele>590.0</ele><time>2026-05-02T11:16:33.928Z</time></trkpt><trkpt lat="42.1426984" lon="13.6976256"><ele>590.0</ele><time>2026-05-02T11:16:34.929Z</time></trkpt><trkpt lat="42.1425952" lon="13.6977001"><ele>590.0</ele><time>2026-05-02T11:16:35.928Z</time></trkpt><trkpt lat="42.142494" lon="13.6977744"><ele>588.8</ele><time>2026-05-02T11:16:36.927Z</time></trkpt><trkpt lat="42.1423903" lon="13.6978391"><ele>587.6</ele><time>2026-05-02T11:16:37.929Z</time></trkpt><trkpt lat="42.1422898" lon="13.6979045"><ele>586.4</ele><time>2026-05-02T11:16:38.928Z</time></trkpt><trkpt lat="42.1421894" lon="13.6979633"><ele>585.2</ele><time>2026-05-02T11:16:39.928Z</time></trkpt><trkpt lat="42.1420842" lon="13.6980194"><ele>584.0</ele><time>2026-05-02T11:16:40.929Z</time></trkpt><trkpt lat="42.1419826" lon="13.6980579"><ele>582.6</ele><time>2026-05-02T11:16:41.927Z</time></trkpt><trkpt lat="42.141879" lon="13.6980856"><ele>581.2</ele><time>2026-05-02T11:16:42.927Z</time></trkpt><trkpt lat="42.1417765" lon="13.6980988"><ele>579.8000000000001</ele><time>2026-05-02T11:16:43.928Z</time></trkpt><trkpt lat="42.1416752" lon="13.698107"><ele>578.4</ele><time>2026-05-02T11:16:44.928Z</time></trkpt><trkpt lat="42.1415804" lon="13.6981018"><ele>577.0</ele><time>2026-05-02T11:16:45.928Z</time></trkpt><trkpt lat="42.1414891" lon="13.6980854"><ele>574.6</ele><time>2026-05-02T11:16:46.928Z</time></trkpt><trkpt lat="42.1413967" lon="13.6980575"><ele>572.2</ele><time>2026-05-02T11:16:47.928Z</time></trkpt><trkpt lat="42.1412985" lon="13.6980288"><ele>569.8</ele><time>2026-05-02T11:16:48.927Z</time></trkpt><trkpt lat="42.1412104" lon="13.6979933"><ele>567.4</ele><time>2026-05-02T11:16:49.928Z</time></trkpt><trkpt lat="42.141124" lon="13.69794"><ele>565.0</ele><time>2026-05-02T11:16:50.928Z</time></trkpt><trkpt lat="42.1410528" lon="13.6978733"><ele>565.0</ele><time>2026-05-02T11:16:51.93Z</time></trkpt><trkpt lat="42.141" lon="13.6978079"><ele>565.0</ele><time>2026-05-02T11:16:52.927Z</time></trkpt><trkpt lat="42.1409427" lon="13.6976823"><ele>565.0</ele><time>2026-05-02T11:16:54.928Z</time></trkpt><trkpt lat="42.1409032" lon="13.6976032"><ele>565.0</ele><time>2026-05-02T11:17:04.929Z</time></trkpt><trkpt lat="42.1408516" lon="13.6976526"><ele>565.0</ele><time>2026-05-02T11:17:06.929Z</time></trkpt><trkpt lat="42.1407996" lon="13.6978059"><ele>565.0</ele><time>2026-05-02T11:17:08.928Z</time></trkpt><trkpt lat="42.1407579" lon="13.6978846"><ele>565.3333333333334</ele><time>2026-05-02T11:17:09.928Z</time></trkpt><trkpt lat="42.1407144" lon="13.6979628"><ele>565.6666666666667</ele><time>2026-05-02T11:17:10.928Z</time></trkpt><trkpt lat="42.1406746" lon="13.6980368"><ele>566.0</ele><time>2026-05-02T11:17:11.928Z</time></trkpt><trkpt lat="42.1406037" lon="13.6981327"><ele>566.3333333333334</ele><time>2026-05-02T11:17:13.929Z</time></trkpt><trkpt lat="42.1405327" lon="13.6981072"><ele>566.6666666666666</ele><time>2026-05-02T11:17:15.927Z</time></trkpt><trkpt lat="42.1404556" lon="13.6979596"><ele>567.0</ele><time>2026-05-02T11:17:17.928Z</time></trkpt><trkpt lat="42.1404099" lon="13.6978679"><ele>567.0</ele><time>2026-05-02T11:17:18.928Z</time></trkpt><trkpt lat="42.1403629" lon="13.6977688"><ele>567.0</ele><time>2026-05-02T11:17:19.929Z</time></trkpt><trkpt lat="42.1403126" lon="13.6976752"><ele>567.0</ele><time>2026-05-02T11:17:20.928Z</time></trkpt><trkpt lat="42.1402493" lon="13.6975982"><ele>567.0</ele><time>2026-05-02T11:17:21.928Z</time></trkpt><trkpt lat="42.1401947" lon="13.6975283"><ele>567.0</ele><time>2026-05-02T11:17:22.929Z</time></trkpt><trkpt lat="42.1401395" lon="13.6974702"><ele>567.0</ele><time>2026-05-02T11:17:23.927Z</time></trkpt><trkpt lat="42.140088" lon="13.6974209"><ele>567.0</ele><time>2026-05-02T11:17:24.928Z</time></trkpt><trkpt lat="42.1399731" lon="13.6974008"><ele>567.0</ele><time>2026-05-02T11:17:26.927Z</time></trkpt><trkpt lat="42.1399008" lon="13.6974074"><ele>567.0</ele><time>2026-05-02T11:17:27.928Z</time></trkpt><trkpt lat="42.1398314" lon="13.697425"><ele>567.0</ele><time>2026-05-02T11:17:28.929Z</time></trkpt><trkpt lat="42.1397137" lon="13.6974305"><ele>567.0</ele><time>2026-05-02T11:17:30.927Z</time></trkpt><trkpt lat="42.1395947" lon="13.6973917"><ele>568.1666666666666</ele><time>2026-05-02T11:17:32.928Z</time></trkpt><trkpt lat="42.1395361" lon="13.6973488"><ele>569.3333333333334</ele><time>2026-05-02T11:17:33.928Z</time></trkpt><trkpt lat="42.139459" lon="13.6973047"><ele>570.5</ele><time>2026-05-02T11:17:34.928Z</time></trkpt><trkpt lat="42.1393678" lon="13.6972972"><ele>571.6666666666667</ele><time>2026-05-02T11:17:35.927Z</time></trkpt><trkpt lat="42.1392928" lon="13.6972896"><ele>572.8333333333334</ele><time>2026-05-02T11:17:36.929Z</time></trkpt><trkpt lat="42.1392077" lon="13.6972852"><ele>574.0</ele><time>2026-05-02T11:17:37.927Z</time></trkpt><trkpt lat="42.1391351" lon="13.69727"><ele>576.2</ele><time>2026-05-02T11:17:38.928Z</time></trkpt><trkpt lat="42.1390221" lon="13.6972203"><ele>578.4</ele><time>2026-05-02T11:17:40.928Z</time></trkpt><trkpt lat="42.1389668" lon="13.6971764"><ele>580.6</ele><time>2026-05-02T11:17:41.929Z</time></trkpt><trkpt lat="42.1388672" lon="13.69708"><ele>582.8</ele><time>2026-05-02T11:17:43.928Z</time></trkpt><trkpt lat="42.1387755" lon="13.6969527"><ele>585.0</ele><time>2026-05-02T11:17:45.929Z</time></trkpt><trkpt lat="42.1387349" lon="13.6968848"><ele>585.0</ele><time>2026-05-02T11:17:46.927Z</time></trkpt><trkpt lat="42.1386257" lon="13.6967834"><ele>585.0</ele><time>2026-05-02T11:17:48.928Z</time></trkpt><trkpt lat="42.1385514" lon="13.6967341"><ele>585.0</ele><time>2026-05-02T11:17:49.927Z</time></trkpt><trkpt lat="42.138473" lon="13.6966882"><ele>585.0</ele><time>2026-05-02T11:17:50.927Z</time></trkpt><trkpt lat="42.1383872" lon="13.6966445"><ele>585.0</ele><time>2026-05-02T11:17:51.928Z</time></trkpt><trkpt lat="42.1383043" lon="13.6966032"><ele>585.0</ele><time>2026-05-02T11:17:52.928Z</time></trkpt><trkpt lat="42.138223" lon="13.6965644"><ele>585.0</ele><time>2026-05-02T11:17:53.929Z</time></trkpt><trkpt lat="42.1381466" lon="13.6965342"><ele>585.0</ele><time>2026-05-02T11:17:54.927Z</time></trkpt><trkpt lat="42.1380729" lon="13.696511"><ele>585.0</ele><time>2026-05-02T11:17:55.927Z</time></trkpt><trkpt lat="42.1379983" lon="13.6964722"><ele>585.0</ele><time>2026-05-02T11:17:56.928Z</time></trkpt><trkpt lat="42.1379211" lon="13.6964437"><ele>585.0</ele><time>2026-05-02T11:17:57.929Z</time></trkpt><trkpt lat="42.1378495" lon="13.6964096"><ele>586.0</ele><time>2026-05-02T11:17:58.928Z</time></trkpt><trkpt lat="42.1377319" lon="13.6963443"><ele>587.0</ele><time>2026-05-02T11:18:00.928Z</time></trkpt><trkpt lat="42.1376639" lon="13.6962873"><ele>588.0</ele><time>2026-05-02T11:18:01.928Z</time></trkpt><trkpt lat="42.1375983" lon="13.696227"><ele>589.0</ele><time>2026-05-02T11:18:02.927Z</time></trkpt><trkpt lat="42.1375412" lon="13.6961719"><ele>590.0</ele><time>2026-05-02T11:18:03.927Z</time></trkpt><trkpt lat="42.1374469" lon="13.6960976"><ele>590.6</ele><time>2026-05-02T11:18:05.928Z</time></trkpt><trkpt lat="42.1373452" lon="13.696063"><ele>591.2</ele><time>2026-05-02T11:18:07.928Z</time></trkpt><trkpt lat="42.1372539" lon="13.6960502"><ele>591.8</ele><time>2026-05-02T11:18:09.927Z</time></trkpt><trkpt lat="42.137174" lon="13.6960569"><ele>592.4</ele><time>2026-05-02T11:18:11.928Z</time></trkpt><trkpt lat="42.1370891" lon="13.6960804"><ele>593.0</ele><time>2026-05-02T11:18:13.928Z</time></trkpt><trkpt lat="42.1369862" lon="13.6961169"><ele>593.6</ele><time>2026-05-02T11:18:15.928Z</time></trkpt><trkpt lat="42.1368782" lon="13.6961312"><ele>594.1999999999999</ele><time>2026-05-02T11:18:17.927Z</time></trkpt><trkpt lat="42.1367587" lon="13.6961317"><ele>594.8</ele><time>2026-05-02T11:18:19.928Z</time></trkpt><trkpt lat="42.1366956" lon="13.6961332"><ele>595.4</ele><time>2026-05-02T11:18:20.928Z</time></trkpt><trkpt lat="42.1365953" lon="13.6961096"><ele>596.0</ele><time>2026-05-02T11:18:22.928Z</time></trkpt><trkpt lat="42.136496" lon="13.6960879"><ele>596.5</ele><time>2026-05-02T11:18:24.927Z</time></trkpt><trkpt lat="42.1363684" lon="13.6960756"><ele>597.0</ele><time>2026-05-02T11:18:26.928Z</time></trkpt><trkpt lat="42.136292" lon="13.6960821"><ele>597.5</ele><time>2026-05-02T11:18:27.927Z</time></trkpt><trkpt lat="42.1362119" lon="13.6960878"><ele>598.0</ele><time>2026-05-02T11:18:28.928Z</time></trkpt><trkpt lat="42.1361277" lon="13.6960922"><ele>598.5</ele><time>2026-05-02T11:18:29.93Z</time></trkpt><trkpt lat="42.1360508" lon="13.6960966"><ele>599.0</ele><time>2026-05-02T11:18:30.928Z</time></trkpt><trkpt lat="42.135979" lon="13.6960995"><ele>599.0</ele><time>2026-05-02T11:18:31.928Z</time></trkpt><trkpt lat="42.1359106" lon="13.6961028"><ele>599.0</ele><time>2026-05-02T11:18:32.927Z</time></trkpt><trkpt lat="42.1358395" lon="13.6960866"><ele>599.0</ele><time>2026-05-02T11:18:33.928Z</time></trkpt><trkpt lat="42.1357551" lon="13.6960508"><ele>599.0</ele><time>2026-05-02T11:18:34.929Z</time></trkpt><trkpt lat="42.1356848" lon="13.6960198"><ele>599.0</ele><time>2026-05-02T11:18:35.928Z</time></trkpt><trkpt lat="42.1356101" lon="13.6959859"><ele>599.0</ele><time>2026-05-02T11:18:36.928Z</time></trkpt><trkpt lat="42.1355355" lon="13.695952"><ele>601.0</ele><time>2026-05-02T11:18:37.928Z</time></trkpt><trkpt lat="42.1354674" lon="13.6959173"><ele>603.0</ele><time>2026-05-02T11:18:38.928Z</time></trkpt><trkpt lat="42.1353903" lon="13.6958979"><ele>605.0</ele><time>2026-05-02T11:18:39.928Z</time></trkpt><trkpt lat="42.135316" lon="13.695878"><ele>607.0</ele><time>2026-05-02T11:18:40.929Z</time></trkpt><trkpt lat="42.1352519" lon="13.6958752"><ele>609.0</ele><time>2026-05-02T11:18:41.929Z</time></trkpt><trkpt lat="42.1351839" lon="13.6958754"><ele>611.0</ele><time>2026-05-02T11:18:42.928Z</time></trkpt><trkpt lat="42.1351157" lon="13.6958892"><ele>613.0</ele><time>2026-05-02T11:18:43.929Z</time></trkpt><trkpt lat="42.1350448" lon="13.6959045"><ele>613.0</ele><time>2026-05-02T11:18:44.928Z</time></trkpt><trkpt lat="42.1349682" lon="13.6959188"><ele>613.0</ele><time>2026-05-02T11:18:45.928Z</time></trkpt><trkpt lat="42.1348838" lon="13.6959333"><ele>613.0</ele><time>2026-05-02T11:18:46.928Z</time></trkpt><trkpt lat="42.1347952" lon="13.6959375"><ele>613.0</ele><time>2026-05-02T11:18:47.928Z</time></trkpt><trkpt lat="42.134704" lon="13.6959481"><ele>613.0</ele><time>2026-05-02T11:18:48.927Z</time></trkpt><trkpt lat="42.1346257" lon="13.6959545"><ele>613.0</ele><time>2026-05-02T11:18:49.928Z</time></trkpt><trkpt lat="42.1345503" lon="13.6959787"><ele>613.0</ele><time>2026-05-02T11:18:50.928Z</time></trkpt><trkpt lat="42.134486" lon="13.6960109"><ele>613.0</ele><time>2026-05-02T11:18:51.928Z</time></trkpt><trkpt lat="42.1343736" lon="13.6961017"><ele>613.0</ele><time>2026-05-02T11:18:53.928Z</time></trkpt><trkpt lat="42.1343194" lon="13.6961636"><ele>613.0</ele><time>2026-05-02T11:18:54.928Z</time></trkpt><trkpt lat="42.1342688" lon="13.6962424"><ele>613.0</ele><time>2026-05-02T11:18:55.929Z</time></trkpt><trkpt lat="42.134217" lon="13.6963324"><ele>613.0</ele><time>2026-05-02T11:18:56.93Z</time></trkpt><trkpt lat="42.1341627" lon="13.6964264"><ele>613.0</ele><time>2026-05-02T11:18:57.928Z</time></trkpt><trkpt lat="42.1341082" lon="13.6965082"><ele>613.0</ele><time>2026-05-02T11:18:58.928Z</time></trkpt><trkpt lat="42.1340426" lon="13.6965912"><ele>613.0</ele><time>2026-05-02T11:18:59.928Z</time></trkpt><trkpt lat="42.133972" lon="13.696674"><ele>613.0</ele><time>2026-05-02T11:19:00.928Z</time></trkpt><trkpt lat="42.1339049" lon="13.6967365"><ele>613.0</ele><time>2026-05-02T11:19:01.928Z</time></trkpt><trkpt lat="42.1338441" lon="13.6967974"><ele>613.0</ele><time>2026-05-02T11:19:02.928Z</time></trkpt><trkpt lat="42.1337843" lon="13.6968802"><ele>611.8333333333334</ele><time>2026-05-02T11:19:03.928Z</time></trkpt><trkpt lat="42.133716" lon="13.6969714"><ele>610.6666666666667</ele><time>2026-05-02T11:19:04.928Z</time></trkpt><trkpt lat="42.1336484" lon="13.6970553"><ele>609.5</ele><time>2026-05-02T11:19:05.928Z</time></trkpt><trkpt lat="42.1335958" lon="13.6971342"><ele>608.3333333333334</ele><time>2026-05-02T11:19:06.929Z</time></trkpt><trkpt lat="42.1335358" lon="13.6972108"><ele>607.1666666666666</ele><time>2026-05-02T11:19:07.928Z</time></trkpt><trkpt lat="42.1334747" lon="13.6972697"><ele>606.0</ele><time>2026-05-02T11:19:08.928Z</time></trkpt><trkpt lat="42.1334111" lon="13.6973569"><ele>606.0</ele><time>2026-05-02T11:19:09.928Z</time></trkpt><trkpt lat="42.1333454" lon="13.6974517"><ele>606.0</ele><time>2026-05-02T11:19:10.928Z</time></trkpt><trkpt lat="42.1332795" lon="13.6975417"><ele>606.0</ele><time>2026-05-02T11:19:11.929Z</time></trkpt><trkpt lat="42.1332087" lon="13.697627"><ele>606.0</ele><time>2026-05-02T11:19:12.927Z</time></trkpt><trkpt lat="42.1331305" lon="13.6977322"><ele>606.0</ele><time>2026-05-02T11:19:13.928Z</time></trkpt><trkpt lat="42.1330546" lon="13.6978333"><ele>607.75</ele><time>2026-05-02T11:19:14.928Z</time></trkpt><trkpt lat="42.1329652" lon="13.6979454"><ele>609.5</ele><time>2026-05-02T11:19:15.929Z</time></trkpt><trkpt lat="42.1328813" lon="13.69805"><ele>611.25</ele><time>2026-05-02T11:19:16.928Z</time></trkpt><trkpt lat="42.1327955" lon="13.6981393"><ele>613.0</ele><time>2026-05-02T11:19:17.928Z</time></trkpt><trkpt lat="42.1327026" lon="13.6982266"><ele>613.0</ele><time>2026-05-02T11:19:18.927Z</time></trkpt><trkpt lat="42.1326249" lon="13.6983154"><ele>613.0</ele><time>2026-05-02T11:19:19.928Z</time></trkpt><trkpt lat="42.1325621" lon="13.698408"><ele>613.0</ele><time>2026-05-02T11:19:20.929Z</time></trkpt><trkpt lat="42.132522" lon="13.6985338"><ele>613.0</ele><time>2026-05-02T11:19:21.928Z</time></trkpt><trkpt lat="42.1324832" lon="13.6986545"><ele>613.0</ele><time>2026-05-02T11:19:22.929Z</time></trkpt><trkpt lat="42.1324445" lon="13.6987865"><ele>612.75</ele><time>2026-05-02T11:19:23.928Z</time></trkpt><trkpt lat="42.1324045" lon="13.6989138"><ele>612.5</ele><time>2026-05-02T11:19:24.928Z</time></trkpt><trkpt lat="42.1323487" lon="13.6990515"><ele>612.25</ele><time>2026-05-02T11:19:25.928Z</time></trkpt><trkpt lat="42.1322822" lon="13.6991831"><ele>612.0</ele><time>2026-05-02T11:19:26.928Z</time></trkpt><trkpt lat="42.132209" lon="13.6993102"><ele>612.6</ele><time>2026-05-02T11:19:27.928Z</time></trkpt><trkpt lat="42.1321327" lon="13.6994297"><ele>613.2</ele><time>2026-05-02T11:19:28.927Z</time></trkpt><trkpt lat="42.1320626" lon="13.6995375"><ele>613.8</ele><time>2026-05-02T11:19:29.927Z</time></trkpt><trkpt lat="42.131987" lon="13.6996425"><ele>614.4</ele><time>2026-05-02T11:19:30.927Z</time></trkpt><trkpt lat="42.1319146" lon="13.6997467"><ele>615.0</ele><time>2026-05-02T11:19:31.927Z</time></trkpt><trkpt lat="42.1318451" lon="13.6998529"><ele>615.0</ele><time>2026-05-02T11:19:32.927Z</time></trkpt><trkpt lat="42.1317729" lon="13.6999512"><ele>615.0</ele><time>2026-05-02T11:19:33.928Z</time></trkpt><trkpt lat="42.1316896" lon="13.700039"><ele>615.0</ele><time>2026-05-02T11:19:34.928Z</time></trkpt><trkpt lat="42.1316047" lon="13.7001224"><ele>615.0</ele><time>2026-05-02T11:19:35.928Z</time></trkpt><trkpt lat="42.1315087" lon="13.700192"><ele>615.0</ele><time>2026-05-02T11:19:36.928Z</time></trkpt><trkpt lat="42.1314164" lon="13.7002823"><ele>615.4</ele><time>2026-05-02T11:19:37.928Z</time></trkpt><trkpt lat="42.131338" lon="13.7003799"><ele>615.8</ele><time>2026-05-02T11:19:38.928Z</time></trkpt><trkpt lat="42.1312757" lon="13.7004911"><ele>616.2</ele><time>2026-05-02T11:19:39.928Z</time></trkpt><trkpt lat="42.1312121" lon="13.7006067"><ele>616.6</ele><time>2026-05-02T11:19:40.928Z</time></trkpt><trkpt lat="42.1311426" lon="13.7007227"><ele>617.0</ele><time>2026-05-02T11:19:41.929Z</time></trkpt><trkpt lat="42.1310648" lon="13.7008242"><ele>617.0</ele><time>2026-05-02T11:19:42.927Z</time></trkpt><trkpt lat="42.1309805" lon="13.7009117"><ele>617.0</ele><time>2026-05-02T11:19:43.928Z</time></trkpt><trkpt lat="42.1308854" lon="13.700998"><ele>617.0</ele><time>2026-05-02T11:19:44.928Z</time></trkpt><trkpt lat="42.1307897" lon="13.7010836"><ele>617.0</ele><time>2026-05-02T11:19:45.928Z</time></trkpt><trkpt lat="42.1307" lon="13.701171"><ele>617.0</ele><time>2026-05-02T11:19:46.928Z</time></trkpt><trkpt lat="42.130615" lon="13.7012707"><ele>619.4</ele><time>2026-05-02T11:19:47.927Z</time></trkpt><trkpt lat="42.1305343" lon="13.7013742"><ele>621.8000000000001</ele><time>2026-05-02T11:19:48.928Z</time></trkpt><trkpt lat="42.1304581" lon="13.7014617"><ele>624.2</ele><time>2026-05-02T11:19:49.929Z</time></trkpt><trkpt lat="42.1303853" lon="13.7015397"><ele>626.6</ele><time>2026-05-02T11:19:50.927Z</time></trkpt><trkpt lat="42.1303226" lon="13.701604"><ele>629.0</ele><time>2026-05-02T11:19:51.928Z</time></trkpt><trkpt lat="42.1302343" lon="13.7016875"><ele>629.0</ele><time>2026-05-02T11:19:53.928Z</time></trkpt><trkpt lat="42.1301583" lon="13.7016735"><ele>629.0</ele><time>2026-05-02T11:19:55.928Z</time></trkpt><trkpt lat="42.1300802" lon="13.7015345"><ele>629.0</ele><time>2026-05-02T11:19:57.929Z</time></trkpt><trkpt lat="42.1300265" lon="13.7014415"><ele>629.0</ele><time>2026-05-02T11:19:58.928Z</time></trkpt><trkpt lat="42.1299737" lon="13.7013235"><ele>629.0</ele><time>2026-05-02T11:19:59.927Z</time></trkpt><trkpt lat="42.1299133" lon="13.7012036"><ele>633.0</ele><time>2026-05-02T11:20:00.928Z</time></trkpt><trkpt lat="42.1298611" lon="13.7010719"><ele>637.0</ele><time>2026-05-02T11:20:01.928Z</time></trkpt><trkpt lat="42.1298084" lon="13.7009329"><ele>641.0</ele><time>2026-05-02T11:20:02.928Z</time></trkpt><trkpt lat="42.1297474" lon="13.7007922"><ele>645.0</ele><time>2026-05-02T11:20:03.927Z</time></trkpt><trkpt lat="42.1296906" lon="13.7006759"><ele>645.0</ele><time>2026-05-02T11:20:04.928Z</time></trkpt><trkpt lat="42.1296399" lon="13.7005671"><ele>645.0</ele><time>2026-05-02T11:20:05.928Z</time></trkpt><trkpt lat="42.1295923" lon="13.7004749"><ele>645.0</ele><time>2026-05-02T11:20:06.929Z</time></trkpt><trkpt lat="42.1295549" lon="13.7004034"><ele>645.0</ele><time>2026-05-02T11:20:07.928Z</time></trkpt><trkpt lat="42.1294993" lon="13.7003187"><ele>645.0</ele><time>2026-05-02T11:20:09.928Z</time></trkpt><trkpt lat="42.1294472" lon="13.700254"><ele>645.0</ele><time>2026-05-02T11:20:12.929Z</time></trkpt><trkpt lat="42.1294178" lon="13.7001685"><ele>647.5</ele><time>2026-05-02T11:20:14.928Z</time></trkpt><trkpt lat="42.1293702" lon="13.700013"><ele>650.0</ele><time>2026-05-02T11:20:16.928Z</time></trkpt><trkpt lat="42.1292936" lon="13.6998904"><ele>652.5</ele><time>2026-05-02T11:20:18.928Z</time></trkpt><trkpt lat="42.1291898" lon="13.6998527"><ele>655.0</ele><time>2026-05-02T11:20:20.927Z</time></trkpt><trkpt lat="42.1290891" lon="13.6998815"><ele>654.6</ele><time>2026-05-02T11:20:22.928Z</time></trkpt><trkpt lat="42.1290207" lon="13.6999185"><ele>654.2</ele><time>2026-05-02T11:20:23.928Z</time></trkpt><trkpt lat="42.128942" lon="13.6999709"><ele>653.8</ele><time>2026-05-02T11:20:24.928Z</time></trkpt><trkpt lat="42.1288499" lon="13.700066"><ele>653.4</ele><time>2026-05-02T11:20:25.928Z</time></trkpt><trkpt lat="42.1287435" lon="13.7001694"><ele>653.0</ele><time>2026-05-02T11:20:26.928Z</time></trkpt><trkpt lat="42.1286306" lon="13.7002902"><ele>653.0</ele><time>2026-05-02T11:20:27.928Z</time></trkpt><trkpt lat="42.1285125" lon="13.7004196"><ele>653.0</ele><time>2026-05-02T11:20:28.928Z</time></trkpt><trkpt lat="42.1283935" lon="13.7005532"><ele>653.0</ele><time>2026-05-02T11:20:29.927Z</time></trkpt><trkpt lat="42.1282797" lon="13.7006789"><ele>654.4</ele><time>2026-05-02T11:20:30.927Z</time></trkpt><trkpt lat="42.1281701" lon="13.7008018"><ele>655.8</ele><time>2026-05-02T11:20:31.928Z</time></trkpt><trkpt lat="42.1280801" lon="13.7009029"><ele>657.2</ele><time>2026-05-02T11:20:32.928Z</time></trkpt><trkpt lat="42.1279996" lon="13.7009867"><ele>658.6</ele><time>2026-05-02T11:20:33.929Z</time></trkpt><trkpt lat="42.1279347" lon="13.7010535"><ele>660.0</ele><time>2026-05-02T11:20:34.929Z</time></trkpt><trkpt lat="42.12784" lon="13.7011325"><ele>660.0</ele><time>2026-05-02T11:20:36.928Z</time></trkpt><trkpt lat="42.127804" lon="13.7012064"><ele>660.0</ele><time>2026-05-02T11:20:38.927Z</time></trkpt><trkpt lat="42.1279149" lon="13.7011555"><ele>660.0</ele><time>2026-05-02T11:20:41.928Z</time></trkpt><trkpt lat="42.1280105" lon="13.7010571"><ele>660.0</ele><time>2026-05-02T11:20:43.928Z</time></trkpt><trkpt lat="42.1280589" lon="13.700994"><ele>660.0</ele><time>2026-05-02T11:20:44.928Z</time></trkpt><trkpt lat="42.1281147" lon="13.7009263"><ele>660.0</ele><time>2026-05-02T11:20:45.928Z</time></trkpt><trkpt lat="42.1281759" lon="13.7008557"><ele>658.8333333333334</ele><time>2026-05-02T11:20:46.927Z</time></trkpt><trkpt lat="42.128236" lon="13.7007894"><ele>657.6666666666666</ele><time>2026-05-02T11:20:47.926Z</time></trkpt><trkpt lat="42.1282971" lon="13.700732"><ele>656.5</ele><time>2026-05-02T11:20:48.928Z</time></trkpt><trkpt lat="42.1283523" lon="13.7006658"><ele>655.3333333333333</ele><time>2026-05-02T11:20:49.928Z</time></trkpt><trkpt lat="42.12841" lon="13.7005966"><ele>654.1666666666666</ele><time>2026-05-02T11:20:50.929Z</time></trkpt><trkpt lat="42.1284667" lon="13.700528"><ele>653.0</ele><time>2026-05-02T11:20:51.928Z</time></trkpt><trkpt lat="42.128527" lon="13.7004625"><ele>653.0</ele><time>2026-05-02T11:20:52.928Z</time></trkpt><trkpt lat="42.1285895" lon="13.7003985"><ele>653.0</ele><time>2026-05-02T11:20:53.928Z</time></trkpt><trkpt lat="42.1286472" lon="13.700332"><ele>653.0</ele><time>2026-05-02T11:20:54.928Z</time></trkpt><trkpt lat="42.1286983" lon="13.7002741"><ele>653.0</ele><time>2026-05-02T11:20:55.928Z</time></trkpt><trkpt lat="42.1287787" lon="13.7001576"><ele>653.0</ele><time>2026-05-02T11:20:57.928Z</time></trkpt><trkpt lat="42.1288096" lon="13.7000812"><ele>653.0</ele><time>2026-05-02T11:20:58.929Z</time></trkpt><trkpt lat="42.1288085" lon="13.699954"><ele>654.6666666666666</ele><time>2026-05-02T11:21:00.928Z</time></trkpt><trkpt lat="42.1287567" lon="13.6998817"><ele>656.3333333333333</ele><time>2026-05-02T11:21:02.929Z</time></trkpt><trkpt lat="42.1286807" lon="13.6998764"><ele>658.0</ele><time>2026-05-02T11:21:05.927Z</time></trkpt><trkpt lat="42.1286165" lon="13.6998881"><ele>659.6666666666666</ele><time>2026-05-02T11:21:06.928Z</time></trkpt><trkpt lat="42.1285398" lon="13.6999129"><ele>661.3333333333334</ele><time>2026-05-02T11:21:07.928Z</time></trkpt><trkpt lat="42.1284642" lon="13.6999427"><ele>663.0</ele><time>2026-05-02T11:21:08.928Z</time></trkpt><trkpt lat="42.1283801" lon="13.6999714"><ele>663.0</ele><time>2026-05-02T11:21:09.928Z</time></trkpt><trkpt lat="42.1282935" lon="13.7000065"><ele>663.0</ele><time>2026-05-02T11:21:10.928Z</time></trkpt><trkpt lat="42.128204" lon="13.7000421"><ele>663.0</ele><time>2026-05-02T11:21:11.927Z</time></trkpt><trkpt lat="42.1281165" lon="13.7000742"><ele>663.0</ele><time>2026-05-02T11:21:12.928Z</time></trkpt><trkpt lat="42.1280276" lon="13.7001018"><ele>663.0</ele><time>2026-05-02T11:21:13.929Z</time></trkpt><trkpt lat="42.1279364" lon="13.7001254"><ele>665.1666666666666</ele><time>2026-05-02T11:21:14.928Z</time></trkpt><trkpt lat="42.1278573" lon="13.7001521"><ele>667.3333333333334</ele><time>2026-05-02T11:21:15.928Z</time></trkpt><trkpt lat="42.127756" lon="13.7001622"><ele>669.5</ele><time>2026-05-02T11:21:16.928Z</time></trkpt><trkpt lat="42.1276642" lon="13.700158"><ele>671.6666666666667</ele><time>2026-05-02T11:21:17.927Z</time></trkpt><trkpt lat="42.1275749" lon="13.7001582"><ele>673.8333333333334</ele><time>2026-05-02T11:21:18.927Z</time></trkpt><trkpt lat="42.1274918" lon="13.700163"><ele>676.0</ele><time>2026-05-02T11:21:19.927Z</time></trkpt><trkpt lat="42.1274127" lon="13.7001608"><ele>674.0</ele><time>2026-05-02T11:21:20.928Z</time></trkpt><trkpt lat="42.127344" lon="13.7001601"><ele>672.0</ele><time>2026-05-02T11:21:21.928Z</time></trkpt><trkpt lat="42.1272522" lon="13.7001501"><ele>670.0</ele><time>2026-05-02T11:21:23.928Z</time></trkpt><trkpt lat="42.1271626" lon="13.7001206"><ele>668.0</ele><time>2026-05-02T11:21:26.929Z</time></trkpt><trkpt lat="42.127065" lon="13.7000597"><ele>666.0</ele><time>2026-05-02T11:21:28.928Z</time></trkpt><trkpt lat="42.1270969" lon="13.6999158"><ele>666.0</ele><time>2026-05-02T11:21:31.927Z</time></trkpt><trkpt lat="42.1271511" lon="13.6998135"><ele>666.0</ele><time>2026-05-02T11:21:33.928Z</time></trkpt><trkpt lat="42.1272198" lon="13.6998469"><ele>666.0</ele><time>2026-05-02T11:21:35.929Z</time></trkpt><trkpt lat="42.1272608" lon="13.6997763"><ele>666.0</ele><time>2026-05-02T11:21:37.927Z</time></trkpt><trkpt lat="42.1272625" lon="13.6996724"><ele>666.0</ele><time>2026-05-02T11:21:39.928Z</time></trkpt><trkpt lat="42.1272673" lon="13.6995857"><ele>666.0</ele><time>2026-05-02T11:21:48.928Z</time></trkpt><trkpt lat="42.1272587" lon="13.6996715"><ele>666.0</ele><time>2026-05-02T11:21:56.927Z</time></trkpt><trkpt lat="42.1272514" lon="13.6997652"><ele>666.0</ele><time>2026-05-02T11:22:02.928Z</time></trkpt><trkpt lat="42.1272273" lon="13.6998545"><ele>666.0</ele><time>2026-05-02T11:22:06.927Z</time></trkpt><trkpt lat="42.1271507" lon="13.699839"><ele>666.0</ele><time>2026-05-02T11:22:09.928Z</time></trkpt><trkpt lat="42.1270948" lon="13.69994"><ele>666.0</ele><time>2026-05-02T11:22:12.927Z</time></trkpt><trkpt lat="42.1270712" lon="13.7000207"><ele>666.0</ele><time>2026-05-02T11:22:15.928Z</time></trkpt><trkpt lat="42.127114" lon="13.7001077"><ele>666.0</ele><time>2026-05-02T11:22:18.928Z</time></trkpt><trkpt lat="42.1271828" lon="13.7001242"><ele>666.0</ele><time>2026-05-02T11:22:20.929Z</time></trkpt><trkpt lat="42.1271683" lon="13.7002074"><ele>666.0</ele><time>2026-05-02T11:22:24.927Z</time></trkpt><trkpt lat="42.1270927" lon="13.700201"><ele>666.0</ele><time>2026-05-02T11:22:26.927Z</time></trkpt><trkpt lat="42.1269844" lon="13.7001329"><ele>666.0</ele><time>2026-05-02T11:22:28.927Z</time></trkpt><trkpt lat="42.126906" lon="13.7000403"><ele>666.0</ele><time>2026-05-02T11:22:30.927Z</time></trkpt><trkpt lat="42.1268443" lon="13.6999195"><ele>666.0</ele><time>2026-05-02T11:22:32.928Z</time></trkpt><trkpt lat="42.1267894" lon="13.6997986"><ele>666.0</ele><time>2026-05-02T11:22:34.927Z</time></trkpt><trkpt lat="42.1267549" lon="13.6997068"><ele>666.0</ele><time>2026-05-02T11:22:36.928Z</time></trkpt><trkpt lat="42.1267403" lon="13.699602"><ele>666.0</ele><time>2026-05-02T11:22:39.926Z</time></trkpt><trkpt lat="42.1267178" lon="13.6995091"><ele>666.0</ele><time>2026-05-02T11:22:42.928Z</time></trkpt><trkpt lat="42.1266936" lon="13.6994135"><ele>666.0</ele><time>2026-05-02T11:22:45.928Z</time></trkpt><trkpt lat="42.1266274" lon="13.6994049"><ele>665.0</ele><time>2026-05-02T11:22:48.927Z</time></trkpt><trkpt lat="42.1265581" lon="13.699436"><ele>664.0</ele><time>2026-05-02T11:22:50.928Z</time></trkpt><trkpt lat="42.1264829" lon="13.6994687"><ele>663.0</ele><time>2026-05-02T11:22:52.927Z</time></trkpt><trkpt lat="42.1264117" lon="13.6994727"><ele>662.0</ele><time>2026-05-02T11:22:54.927Z</time></trkpt><trkpt lat="42.1263382" lon="13.6994321"><ele>661.0</ele><time>2026-05-02T11:22:56.927Z</time></trkpt><trkpt lat="42.1263114" lon="13.6993455"><ele>660.0</ele><time>2026-05-02T11:22:57.928Z</time></trkpt><trkpt lat="42.126267" lon="13.699198"><ele>660.0</ele><time>2026-05-02T11:22:59.926Z</time></trkpt><trkpt lat="42.1262291" lon="13.6991257"><ele>660.0</ele><time>2026-05-02T11:23:00.928Z</time></trkpt><trkpt lat="42.1261671" lon="13.6990291"><ele>660.0</ele><time>2026-05-02T11:23:02.928Z</time></trkpt><trkpt lat="42.1261195" lon="13.6989101"><ele>660.0</ele><time>2026-05-02T11:23:08.927Z</time></trkpt><trkpt lat="42.1261042" lon="13.6987324"><ele>660.0</ele><time>2026-05-02T11:23:10.928Z</time></trkpt><trkpt lat="42.1261047" lon="13.6986274"><ele>661.0</ele><time>2026-05-02T11:23:11.927Z</time></trkpt><trkpt lat="42.1261176" lon="13.6985117"><ele>662.0</ele><time>2026-05-02T11:23:12.927Z</time></trkpt><trkpt lat="42.1261347" lon="13.6983922"><ele>663.0</ele><time>2026-05-02T11:23:13.928Z</time></trkpt><trkpt lat="42.1261375" lon="13.6982705"><ele>664.0</ele><time>2026-05-02T11:23:14.928Z</time></trkpt><trkpt lat="42.1261397" lon="13.6981603"><ele>665.0</ele><time>2026-05-02T11:23:15.927Z</time></trkpt><trkpt lat="42.1261436" lon="13.6980528"><ele>666.0</ele><time>2026-05-02T11:23:16.926Z</time></trkpt><trkpt lat="42.1261435" lon="13.6979473"><ele>666.0</ele><time>2026-05-02T11:23:17.928Z</time></trkpt><trkpt lat="42.1261363" lon="13.6978338"><ele>666.0</ele><time>2026-05-02T11:23:18.928Z</time></trkpt><trkpt lat="42.1261339" lon="13.6977214"><ele>666.0</ele><time>2026-05-02T11:23:19.928Z</time></trkpt><trkpt lat="42.1261244" lon="13.6976328"><ele>666.0</ele><time>2026-05-02T11:23:20.927Z</time></trkpt><trkpt lat="42.1261023" lon="13.6975406"><ele>666.0</ele><time>2026-05-02T11:23:21.927Z</time></trkpt><trkpt lat="42.1260662" lon="13.6973835"><ele>666.0</ele><time>2026-05-02T11:23:23.928Z</time></trkpt><trkpt lat="42.1260362" lon="13.6972156"><ele>667.5714285714286</ele><time>2026-05-02T11:23:25.926Z</time></trkpt><trkpt lat="42.1260141" lon="13.6971278"><ele>669.1428571428571</ele><time>2026-05-02T11:23:26.928Z</time></trkpt><trkpt lat="42.1259976" lon="13.6970453"><ele>670.7142857142857</ele><time>2026-05-02T11:23:27.928Z</time></trkpt><trkpt lat="42.1259761" lon="13.6969602"><ele>672.2857142857142</ele><time>2026-05-02T11:23:28.929Z</time></trkpt><trkpt lat="42.1259474" lon="13.6968718"><ele>673.8571428571429</ele><time>2026-05-02T11:23:29.927Z</time></trkpt><trkpt lat="42.1259152" lon="13.6967867"><ele>675.4285714285713</ele><time>2026-05-02T11:23:30.927Z</time></trkpt><trkpt lat="42.1258912" lon="13.6966865"><ele>677.0</ele><time>2026-05-02T11:23:31.928Z</time></trkpt><trkpt lat="42.1258764" lon="13.6965787"><ele>679.4000000000001</ele><time>2026-05-02T11:23:32.928Z</time></trkpt><trkpt lat="42.1258583" lon="13.6964624"><ele>681.8000000000001</ele><time>2026-05-02T11:23:33.929Z</time></trkpt><trkpt lat="42.1258353" lon="13.6963345"><ele>684.2</ele><time>2026-05-02T11:23:34.927Z</time></trkpt><trkpt lat="42.1258137" lon="13.6962051"><ele>686.6</ele><time>2026-05-02T11:23:35.928Z</time></trkpt><trkpt lat="42.1257875" lon="13.696072"><ele>689.0</ele><time>2026-05-02T11:23:36.929Z</time></trkpt><trkpt lat="42.1257627" lon="13.6959224"><ele>692.5</ele><time>2026-05-02T11:23:37.928Z</time></trkpt><trkpt lat="42.1257341" lon="13.6957661"><ele>696.0</ele><time>2026-05-02T11:23:38.928Z</time></trkpt><trkpt lat="42.1257041" lon="13.695609"><ele>699.5</ele><time>2026-05-02T11:23:39.928Z</time></trkpt><trkpt lat="42.1256709" lon="13.6954553"><ele>703.0</ele><time>2026-05-02T11:23:40.927Z</time></trkpt><trkpt lat="42.1256398" lon="13.6952963"><ele>709.5</ele><time>2026-05-02T11:23:41.927Z</time></trkpt><trkpt lat="42.1256131" lon="13.6951366"><ele>716.0</ele><time>2026-05-02T11:23:42.926Z</time></trkpt><trkpt lat="42.1255857" lon="13.6949826"><ele>722.5</ele><time>2026-05-02T11:23:43.929Z</time></trkpt><trkpt lat="42.1255598" lon="13.6948233"><ele>729.0</ele><time>2026-05-02T11:23:44.928Z</time></trkpt><trkpt lat="42.1255269" lon="13.6946665"><ele>729.0</ele><time>2026-05-02T11:23:45.927Z</time></trkpt><trkpt lat="42.1254931" lon="13.6945159"><ele>729.0</ele><time>2026-05-02T11:23:46.926Z</time></trkpt><trkpt lat="42.125457" lon="13.6943675"><ele>729.0</ele><time>2026-05-02T11:23:47.929Z</time></trkpt><trkpt lat="42.1254234" lon="13.6942522"><ele>729.0</ele><time>2026-05-02T11:23:48.927Z</time></trkpt><trkpt lat="42.1253977" lon="13.6941658"><ele>729.0</ele><time>2026-05-02T11:23:49.928Z</time></trkpt><trkpt lat="42.1253691" lon="13.694089"><ele>729.8333333333334</ele><time>2026-05-02T11:23:50.927Z</time></trkpt><trkpt lat="42.1253169" lon="13.6939918"><ele>730.6666666666666</ele><time>2026-05-02T11:23:52.929Z</time></trkpt><trkpt lat="42.125254" lon="13.6939221"><ele>731.5</ele><time>2026-05-02T11:23:54.929Z</time></trkpt><trkpt lat="42.1252138" lon="13.6938383"><ele>732.3333333333333</ele><time>2026-05-02T11:23:56.928Z</time></trkpt><trkpt lat="42.1251793" lon="13.693724"><ele>733.1666666666666</ele><time>2026-05-02T11:23:58.928Z</time></trkpt><trkpt lat="42.125131" lon="13.693597"><ele>734.0</ele><time>2026-05-02T11:24:00.927Z</time></trkpt><trkpt lat="42.1250949" lon="13.6935081"><ele>735.3333333333333</ele><time>2026-05-02T11:24:02.927Z</time></trkpt><trkpt lat="42.1250499" lon="13.6934121"><ele>736.6666666666666</ele><time>2026-05-02T11:24:05.927Z</time></trkpt><trkpt lat="42.1250041" lon="13.6933242"><ele>738.0</ele><time>2026-05-02T11:24:07.928Z</time></trkpt><trkpt lat="42.1249421" lon="13.6932149"><ele>739.3333333333334</ele><time>2026-05-02T11:24:09.928Z</time></trkpt><trkpt lat="42.1248765" lon="13.6931267"><ele>740.6666666666667</ele><time>2026-05-02T11:24:11.928Z</time></trkpt><trkpt lat="42.1248309" lon="13.6930625"><ele>742.0</ele><time>2026-05-02T11:25:22.927Z</time></trkpt><trkpt lat="42.1247856" lon="13.6929874"><ele>746.0</ele><time>2026-05-02T11:25:26.929Z</time></trkpt><trkpt lat="42.1247396" lon="13.6929187"><ele>750.0</ele><time>2026-05-02T11:25:32.928Z</time></trkpt><trkpt lat="42.1246712" lon="13.6928441"><ele>754.0</ele><time>2026-05-02T11:25:35.926Z</time></trkpt><trkpt lat="42.1246165" lon="13.6927598"><ele>758.0</ele><time>2026-05-02T11:25:37.927Z</time></trkpt><trkpt lat="42.1245445" lon="13.6926438"><ele>762.0</ele><time>2026-05-02T11:25:39.926Z</time></trkpt><trkpt lat="42.1245017" lon="13.6925803"><ele>766.0</ele><time>2026-05-02T11:25:40.926Z</time></trkpt><trkpt lat="42.1244325" lon="13.6924432"><ele>766.1999999999999</ele><time>2026-05-02T11:25:42.927Z</time></trkpt><trkpt lat="42.1243909" lon="13.6923405"><ele>766.4</ele><time>2026-05-02T11:25:43.927Z</time></trkpt><trkpt lat="42.124356" lon="13.6922377"><ele>766.6</ele><time>2026-05-02T11:25:44.927Z</time></trkpt><trkpt lat="42.1243163" lon="13.6920882"><ele>766.8</ele><time>2026-05-02T11:25:46.927Z</time></trkpt><trkpt lat="42.1242016" lon="13.6920255"><ele>767.0</ele><time>2026-05-02T11:26:23.926Z</time></trkpt><trkpt lat="42.1241299" lon="13.6920649"><ele>767.0</ele><time>2026-05-02T11:26:24.926Z</time></trkpt><trkpt lat="42.1240655" lon="13.6921878"><ele>767.0</ele><time>2026-05-02T11:26:26.928Z</time></trkpt><trkpt lat="42.1240552" lon="13.6922824"><ele>767.0</ele><time>2026-05-02T11:26:27.927Z</time></trkpt><trkpt lat="42.1240495" lon="13.6924067"><ele>767.0</ele><time>2026-05-02T11:26:28.927Z</time></trkpt><trkpt lat="42.1240404" lon="13.6925412"><ele>767.0</ele><time>2026-05-02T11:26:29.926Z</time></trkpt><trkpt lat="42.1240346" lon="13.6926756"><ele>770.3333333333333</ele><time>2026-05-02T11:26:30.926Z</time></trkpt><trkpt lat="42.124031" lon="13.6928005"><ele>773.6666666666666</ele><time>2026-05-02T11:26:31.928Z</time></trkpt><trkpt lat="42.124026" lon="13.6929176"><ele>777.0</ele><time>2026-05-02T11:26:32.926Z</time></trkpt><trkpt lat="42.1240369" lon="13.6930372"><ele>780.3333333333333</ele><time>2026-05-02T11:26:33.928Z</time></trkpt><trkpt lat="42.1240498" lon="13.6931589"><ele>783.6666666666666</ele><time>2026-05-02T11:26:34.927Z</time></trkpt><trkpt lat="42.1240415" lon="13.6932641"><ele>787.0</ele><time>2026-05-02T11:26:35.928Z</time></trkpt><trkpt lat="42.1240248" lon="13.6933621"><ele>786.9999999999999</ele><time>2026-05-02T11:26:36.928Z</time></trkpt><trkpt lat="42.1240005" lon="13.6934521"><ele>787.0</ele><time>2026-05-02T11:26:37.928Z</time></trkpt><trkpt lat="42.1239575" lon="13.693534"><ele>787.0</ele><time>2026-05-02T11:26:38.928Z</time></trkpt><trkpt lat="42.1238963" lon="13.6936144"><ele>787.0</ele><time>2026-05-02T11:26:39.927Z</time></trkpt><trkpt lat="42.1238237" lon="13.6936915"><ele>786.9999999999999</ele><time>2026-05-02T11:26:40.927Z</time></trkpt><trkpt lat="42.1237358" lon="13.6937551"><ele>787.0</ele><time>2026-05-02T11:26:41.927Z</time></trkpt><trkpt lat="42.1236464" lon="13.6937992"><ele>788.6666666666666</ele><time>2026-05-02T11:26:42.928Z</time></trkpt><trkpt lat="42.1235604" lon="13.6938383"><ele>790.3333333333333</ele><time>2026-05-02T11:26:43.928Z</time></trkpt><trkpt lat="42.1234728" lon="13.6938699"><ele>792.0</ele><time>2026-05-02T11:26:44.928Z</time></trkpt><trkpt lat="42.1233885" lon="13.6939025"><ele>793.6666666666667</ele><time>2026-05-02T11:26:45.928Z</time></trkpt><trkpt lat="42.1233119" lon="13.6939488"><ele>795.3333333333334</ele><time>2026-05-02T11:26:46.927Z</time></trkpt><trkpt lat="42.1232385" lon="13.6940064"><ele>797.0</ele><time>2026-05-02T11:26:47.928Z</time></trkpt><trkpt lat="42.1231685" lon="13.6940829"><ele>797.0000000000001</ele><time>2026-05-02T11:26:48.927Z</time></trkpt><trkpt lat="42.1231039" lon="13.6941755"><ele>797.0</ele><time>2026-05-02T11:26:49.926Z</time></trkpt><trkpt lat="42.1230423" lon="13.6942633"><ele>797.0</ele><time>2026-05-02T11:26:50.927Z</time></trkpt><trkpt lat="42.122979" lon="13.6943405"><ele>797.0</ele><time>2026-05-02T11:26:51.929Z</time></trkpt><trkpt lat="42.1229079" lon="13.6944065"><ele>797.0000000000001</ele><time>2026-05-02T11:26:52.929Z</time></trkpt><trkpt lat="42.1228285" lon="13.6944648"><ele>797.0</ele><time>2026-05-02T11:26:53.927Z</time></trkpt><trkpt lat="42.1227442" lon="13.6945169"><ele>796.8333333333334</ele><time>2026-05-02T11:26:54.927Z</time></trkpt><trkpt lat="42.1226594" lon="13.6945612"><ele>796.6666666666667</ele><time>2026-05-02T11:26:55.927Z</time></trkpt><trkpt lat="42.1225723" lon="13.6945933"><ele>796.5</ele><time>2026-05-02T11:26:56.929Z</time></trkpt><trkpt lat="42.1224853" lon="13.6946176"><ele>796.3333333333333</ele><time>2026-05-02T11:26:57.927Z</time></trkpt><trkpt lat="42.1224021" lon="13.6946371"><ele>796.1666666666666</ele><time>2026-05-02T11:26:58.926Z</time></trkpt><trkpt lat="42.1223292" lon="13.6946449"><ele>796.0</ele><time>2026-05-02T11:26:59.927Z</time></trkpt><trkpt lat="42.1222651" lon="13.6946414"><ele>795.9999999999999</ele><time>2026-05-02T11:27:00.927Z</time></trkpt><trkpt lat="42.1221438" lon="13.6946142"><ele>796.0</ele><time>2026-05-02T11:27:02.927Z</time></trkpt><trkpt lat="42.1220645" lon="13.6945892"><ele>796.0</ele><time>2026-05-02T11:27:04.927Z</time></trkpt><trkpt lat="42.1220581" lon="13.6944922"><ele>796.0</ele><time>2026-05-02T11:27:08.927Z</time></trkpt><trkpt lat="42.1221018" lon="13.6944257"><ele>795.9999999999999</ele><time>2026-05-02T11:27:09.928Z</time></trkpt><trkpt lat="42.1221525" lon="13.6943532"><ele>796.0</ele><time>2026-05-02T11:27:10.927Z</time></trkpt><trkpt lat="42.1221968" lon="13.6942653"><ele>796.1666666666666</ele><time>2026-05-02T11:27:11.927Z</time></trkpt><trkpt lat="42.1222359" lon="13.6941648"><ele>796.3333333333333</ele><time>2026-05-02T11:27:12.926Z</time></trkpt><trkpt lat="42.1222752" lon="13.694056"><ele>796.5</ele><time>2026-05-02T11:27:13.928Z</time></trkpt><trkpt lat="42.1223115" lon="13.6939486"><ele>796.6666666666667</ele><time>2026-05-02T11:27:14.926Z</time></trkpt><trkpt lat="42.1223466" lon="13.6938418"><ele>796.8333333333334</ele><time>2026-05-02T11:27:15.927Z</time></trkpt><trkpt lat="42.1223783" lon="13.6937383"><ele>797.0</ele><time>2026-05-02T11:27:16.927Z</time></trkpt><trkpt lat="42.1224122" lon="13.6936378"><ele>798.6666666666667</ele><time>2026-05-02T11:27:17.928Z</time></trkpt><trkpt lat="42.1224458" lon="13.6935402"><ele>800.3333333333334</ele><time>2026-05-02T11:27:18.926Z</time></trkpt><trkpt lat="42.1224869" lon="13.6934404"><ele>802.0</ele><time>2026-05-02T11:27:19.928Z</time></trkpt><trkpt lat="42.1225279" lon="13.6933335"><ele>803.6666666666667</ele><time>2026-05-02T11:27:20.927Z</time></trkpt><trkpt lat="42.1225695" lon="13.6932259"><ele>805.3333333333334</ele><time>2026-05-02T11:27:21.927Z</time></trkpt><trkpt lat="42.1226056" lon="13.6931137"><ele>807.0</ele><time>2026-05-02T11:27:22.927Z</time></trkpt><trkpt lat="42.1226259" lon="13.6930049"><ele>807.0000000000001</ele><time>2026-05-02T11:27:23.928Z</time></trkpt><trkpt lat="42.1226328" lon="13.6929062"><ele>807.0</ele><time>2026-05-02T11:27:24.928Z</time></trkpt><trkpt lat="42.1225967" lon="13.6928255"><ele>807.0</ele><time>2026-05-02T11:27:25.926Z</time></trkpt><trkpt lat="42.1225407" lon="13.6927809"><ele>807.0</ele><time>2026-05-02T11:27:26.927Z</time></trkpt><trkpt lat="42.1224768" lon="13.6927728"><ele>807.0</ele><time>2026-05-02T11:27:27.927Z</time></trkpt><trkpt lat="42.1224084" lon="13.6927748"><ele>807.0000000000001</ele><time>2026-05-02T11:27:28.928Z</time></trkpt><trkpt lat="42.1223292" lon="13.6928317"><ele>807.0</ele><time>2026-05-02T11:27:29.927Z</time></trkpt><trkpt lat="42.122244" lon="13.6928913"><ele>812.0</ele><time>2026-05-02T11:27:30.928Z</time></trkpt><trkpt lat="42.1221544" lon="13.6929587"><ele>817.0</ele><time>2026-05-02T11:27:31.928Z</time></trkpt><trkpt lat="42.1220573" lon="13.6930314"><ele>822.0</ele><time>2026-05-02T11:27:32.927Z</time></trkpt><trkpt lat="42.1219366" lon="13.6931204"><ele>827.0</ele><time>2026-05-02T11:27:33.928Z</time></trkpt><trkpt lat="42.1218079" lon="13.6932093"><ele>827.0</ele><time>2026-05-02T11:27:34.928Z</time></trkpt><trkpt lat="42.1216837" lon="13.6932891"><ele>827.0</ele><time>2026-05-02T11:27:35.927Z</time></trkpt><trkpt lat="42.1215584" lon="13.6933567"><ele>827.0</ele><time>2026-05-02T11:27:36.927Z</time></trkpt><trkpt lat="42.121427" lon="13.6934188"><ele>827.0</ele><time>2026-05-02T11:27:37.926Z</time></trkpt><trkpt lat="42.1212924" lon="13.6934739"><ele>825.3333333333334</ele><time>2026-05-02T11:27:38.926Z</time></trkpt><trkpt lat="42.121154" lon="13.6935279"><ele>823.6666666666667</ele><time>2026-05-02T11:27:39.926Z</time></trkpt><trkpt lat="42.1210054" lon="13.6935828"><ele>822.0</ele><time>2026-05-02T11:27:40.929Z</time></trkpt><trkpt lat="42.1208571" lon="13.693635"><ele>827.6666666666667</ele><time>2026-05-02T11:27:41.928Z</time></trkpt><trkpt lat="42.1207085" lon="13.6936906"><ele>833.3333333333334</ele><time>2026-05-02T11:27:42.927Z</time></trkpt><trkpt lat="42.1205568" lon="13.693755"><ele>839.0</ele><time>2026-05-02T11:27:43.928Z</time></trkpt><trkpt lat="42.1204051" lon="13.693821"><ele>839.0</ele><time>2026-05-02T11:27:44.927Z</time></trkpt><trkpt lat="42.120253" lon="13.6938861"><ele>839.0</ele><time>2026-05-02T11:27:45.928Z</time></trkpt><trkpt lat="42.1201023" lon="13.6939514"><ele>839.0</ele><time>2026-05-02T11:27:46.928Z</time></trkpt><trkpt lat="42.1199514" lon="13.6940194"><ele>847.3333333333334</ele><time>2026-05-02T11:27:47.928Z</time></trkpt><trkpt lat="42.1197959" lon="13.6940917"><ele>855.6666666666667</ele><time>2026-05-02T11:27:48.927Z</time></trkpt><trkpt lat="42.1196434" lon="13.6941582"><ele>864.0</ele><time>2026-05-02T11:27:49.928Z</time></trkpt><trkpt lat="42.1194916" lon="13.6942153"><ele>864.0</ele><time>2026-05-02T11:27:50.927Z</time></trkpt><trkpt lat="42.1193331" lon="13.6942627"><ele>864.0</ele><time>2026-05-02T11:27:51.927Z</time></trkpt><trkpt lat="42.1191713" lon="13.6942967"><ele>864.0</ele><time>2026-05-02T11:27:52.926Z</time></trkpt><trkpt lat="42.1190164" lon="13.6943303"><ele>861.6666666666667</ele><time>2026-05-02T11:27:53.926Z</time></trkpt><trkpt lat="42.1188726" lon="13.694391"><ele>859.3333333333334</ele><time>2026-05-02T11:27:54.926Z</time></trkpt><trkpt lat="42.1187368" lon="13.6944798"><ele>857.0</ele><time>2026-05-02T11:27:55.927Z</time></trkpt><trkpt lat="42.1185972" lon="13.6945777"><ele>857.0</ele><time>2026-05-02T11:27:56.927Z</time></trkpt><trkpt lat="42.1184531" lon="13.6946689"><ele>857.0</ele><time>2026-05-02T11:27:57.927Z</time></trkpt><trkpt lat="42.1183236" lon="13.6947506"><ele>857.0</ele><time>2026-05-02T11:27:58.927Z</time></trkpt><trkpt lat="42.118209" lon="13.6948231"><ele>857.0</ele><time>2026-05-02T11:27:59.927Z</time></trkpt><trkpt lat="42.1181119" lon="13.6948905"><ele>862.0000000000001</ele><time>2026-05-02T11:28:00.927Z</time></trkpt><trkpt lat="42.1180326" lon="13.6949425"><ele>867.0</ele><time>2026-05-02T11:28:01.928Z</time></trkpt><trkpt lat="42.1179648" lon="13.6949813"><ele>872.0</ele><time>2026-05-02T11:28:02.927Z</time></trkpt><trkpt lat="42.1178773" lon="13.6950289"><ele>877.0</ele><time>2026-05-02T11:28:04.927Z</time></trkpt><trkpt lat="42.1178062" lon="13.6950777"><ele>882.0000000000001</ele><time>2026-05-02T11:28:11.928Z</time></trkpt><trkpt lat="42.1177417" lon="13.6951097"><ele>887.0</ele><time>2026-05-02T11:28:12.927Z</time></trkpt><trkpt lat="42.1176632" lon="13.6951442"><ele>887.0</ele><time>2026-05-02T11:28:13.927Z</time></trkpt><trkpt lat="42.1175676" lon="13.6951811"><ele>887.0</ele><time>2026-05-02T11:28:14.928Z</time></trkpt><trkpt lat="42.1174667" lon="13.6952107"><ele>887.0</ele><time>2026-05-02T11:28:15.927Z</time></trkpt><trkpt lat="42.1173583" lon="13.6952291"><ele>887.0</ele><time>2026-05-02T11:28:16.927Z</time></trkpt><trkpt lat="42.1172428" lon="13.6952473"><ele>887.0</ele><time>2026-05-02T11:28:17.927Z</time></trkpt><trkpt lat="42.1171238" lon="13.6952708"><ele>881.0</ele><time>2026-05-02T11:28:18.927Z</time></trkpt><trkpt lat="42.1170024" lon="13.6952967"><ele>875.0</ele><time>2026-05-02T11:28:19.926Z</time></trkpt><trkpt lat="42.1168811" lon="13.6953238"><ele>869.0</ele><time>2026-05-02T11:28:20.927Z</time></trkpt><trkpt lat="42.1167592" lon="13.6953538"><ele>863.0</ele><time>2026-05-02T11:28:21.926Z</time></trkpt><trkpt lat="42.1166356" lon="13.6953818"><ele>868.25</ele><time>2026-05-02T11:28:22.927Z</time></trkpt><trkpt lat="42.1165106" lon="13.6954046"><ele>873.5</ele><time>2026-05-02T11:28:23.927Z</time></trkpt><trkpt lat="42.1163843" lon="13.6954303"><ele>878.75</ele><time>2026-05-02T11:28:24.928Z</time></trkpt><trkpt lat="42.1162568" lon="13.6954619"><ele>884.0</ele><time>2026-05-02T11:28:25.927Z</time></trkpt><trkpt lat="42.1161303" lon="13.6954995"><ele>884.0</ele><time>2026-05-02T11:28:26.927Z</time></trkpt><trkpt lat="42.1160031" lon="13.6955407"><ele>884.0</ele><time>2026-05-02T11:28:27.928Z</time></trkpt><trkpt lat="42.1158782" lon="13.6955757"><ele>884.0</ele><time>2026-05-02T11:28:28.927Z</time></trkpt><trkpt lat="42.1157472" lon="13.6956124"><ele>884.0</ele><time>2026-05-02T11:28:29.927Z</time></trkpt><trkpt lat="42.1156044" lon="13.6956534"><ele>890.6666666666667</ele><time>2026-05-02T11:28:30.929Z</time></trkpt><trkpt lat="42.1154379" lon="13.6956979"><ele>897.3333333333333</ele><time>2026-05-02T11:28:31.927Z</time></trkpt><trkpt lat="42.1152477" lon="13.6957471"><ele>904.0</ele><time>2026-05-02T11:28:32.927Z</time></trkpt><trkpt lat="42.1150435" lon="13.6957976"><ele>913.0</ele><time>2026-05-02T11:28:33.927Z</time></trkpt><trkpt lat="42.1148159" lon="13.6958512"><ele>922.0</ele><time>2026-05-02T11:28:34.929Z</time></trkpt><trkpt lat="42.1145856" lon="13.695905"><ele>922.0</ele><time>2026-05-02T11:28:35.928Z</time></trkpt><trkpt lat="42.1143756" lon="13.6959564"><ele>922.0</ele><time>2026-05-02T11:28:36.927Z</time></trkpt><trkpt lat="42.1141802" lon="13.6960071"><ele>922.0</ele><time>2026-05-02T11:28:37.928Z</time></trkpt><trkpt lat="42.1139985" lon="13.6960558"><ele>913.0</ele><time>2026-05-02T11:28:38.927Z</time></trkpt><trkpt lat="42.1138294" lon="13.6961038"><ele>904.0</ele><time>2026-05-02T11:28:39.928Z</time></trkpt><trkpt lat="42.1136598" lon="13.6961558"><ele>895.0</ele><time>2026-05-02T11:28:40.927Z</time></trkpt><trkpt lat="42.1135051" lon="13.696207"><ele>895.0</ele><time>2026-05-02T11:28:41.927Z</time></trkpt><trkpt lat="42.1133603" lon="13.6962478"><ele>895.0</ele><time>2026-05-02T11:28:42.927Z</time></trkpt><trkpt lat="42.1132198" lon="13.6962902"><ele>895.0</ele><time>2026-05-02T11:28:43.926Z</time></trkpt><trkpt lat="42.1130771" lon="13.696344"><ele>895.0</ele><time>2026-05-02T11:28:44.928Z</time></trkpt><trkpt lat="42.1129383" lon="13.6964056"><ele>900.75</ele><time>2026-05-02T11:28:45.927Z</time></trkpt><trkpt lat="42.1128003" lon="13.6964693"><ele>906.5</ele><time>2026-05-02T11:28:46.927Z</time></trkpt><trkpt lat="42.1126615" lon="13.696547"><ele>912.25</ele><time>2026-05-02T11:28:47.927Z</time></trkpt><trkpt lat="42.1125263" lon="13.6966279"><ele>918.0</ele><time>2026-05-02T11:28:48.927Z</time></trkpt><trkpt lat="42.112388" lon="13.6967107"><ele>914.6666666666667</ele><time>2026-05-02T11:28:49.927Z</time></trkpt><trkpt lat="42.112247" lon="13.6967891"><ele>911.3333333333334</ele><time>2026-05-02T11:28:50.928Z</time></trkpt><trkpt lat="42.1121108" lon="13.696872"><ele>908.0</ele><time>2026-05-02T11:28:51.926Z</time></trkpt><trkpt lat="42.1119742" lon="13.6969536"><ele>908.0</ele><time>2026-05-02T11:28:52.926Z</time></trkpt><trkpt lat="42.111833" lon="13.6970424"><ele>908.0</ele><time>2026-05-02T11:28:53.927Z</time></trkpt><trkpt lat="42.1116903" lon="13.6971259"><ele>908.0</ele><time>2026-05-02T11:28:54.927Z</time></trkpt><trkpt lat="42.1115399" lon="13.6972014"><ele>918.0</ele><time>2026-05-02T11:28:55.926Z</time></trkpt><trkpt lat="42.111387" lon="13.697274"><ele>928.0</ele><time>2026-05-02T11:28:56.926Z</time></trkpt><trkpt lat="42.1112358" lon="13.6973477"><ele>938.0</ele><time>2026-05-02T11:28:57.927Z</time></trkpt><trkpt lat="42.1110903" lon="13.6974181"><ele>938.0</ele><time>2026-05-02T11:28:58.927Z</time></trkpt><trkpt lat="42.1109451" lon="13.6974903"><ele>938.0</ele><time>2026-05-02T11:28:59.926Z</time></trkpt><trkpt lat="42.1108045" lon="13.6975716"><ele>938.0</ele><time>2026-05-02T11:29:00.927Z</time></trkpt><trkpt lat="42.1106707" lon="13.6976577"><ele>936.3333333333334</ele><time>2026-05-02T11:29:01.927Z</time></trkpt><trkpt lat="42.1105381" lon="13.6977638"><ele>934.6666666666667</ele><time>2026-05-02T11:29:02.927Z</time></trkpt><trkpt lat="42.1103994" lon="13.6978578"><ele>933.0</ele><time>2026-05-02T11:29:03.926Z</time></trkpt><trkpt lat="42.1102471" lon="13.6979468"><ele>933.0</ele><time>2026-05-02T11:29:04.927Z</time></trkpt><trkpt lat="42.1100933" lon="13.6980231"><ele>933.0</ele><time>2026-05-02T11:29:05.927Z</time></trkpt><trkpt lat="42.1099407" lon="13.6980962"><ele>933.0</ele><time>2026-05-02T11:29:06.927Z</time></trkpt><trkpt lat="42.1097887" lon="13.6981686"><ele>941.3333333333333</ele><time>2026-05-02T11:29:07.926Z</time></trkpt><trkpt lat="42.1096355" lon="13.6982453"><ele>949.6666666666666</ele><time>2026-05-02T11:29:08.928Z</time></trkpt><trkpt lat="42.1094903" lon="13.6983163"><ele>958.0</ele><time>2026-05-02T11:29:09.926Z</time></trkpt><trkpt lat="42.1093594" lon="13.6983758"><ele>958.0</ele><time>2026-05-02T11:29:10.927Z</time></trkpt><trkpt lat="42.1092277" lon="13.6984205"><ele>958.0</ele><time>2026-05-02T11:29:11.927Z</time></trkpt><trkpt lat="42.109094" lon="13.6984585"><ele>958.0</ele><time>2026-05-02T11:29:12.927Z</time></trkpt><trkpt lat="42.1089548" lon="13.6984902"><ele>958.0</ele><time>2026-05-02T11:29:13.927Z</time></trkpt><trkpt lat="42.1088236" lon="13.698527"><ele>957.8</ele><time>2026-05-02T11:29:14.927Z</time></trkpt><trkpt lat="42.1087159" lon="13.6985485"><ele>957.5999999999999</ele><time>2026-05-02T11:29:15.927Z</time></trkpt><trkpt lat="42.1086158" lon="13.6985568"><ele>957.4000000000001</ele><time>2026-05-02T11:29:16.927Z</time></trkpt><trkpt lat="42.108518" lon="13.6985413"><ele>957.2</ele><time>2026-05-02T11:29:17.926Z</time></trkpt><trkpt lat="42.1084577" lon="13.6984851"><ele>957.0</ele><time>2026-05-02T11:29:18.926Z</time></trkpt><trkpt lat="42.1083879" lon="13.6984109"><ele>957.0</ele><time>2026-05-02T11:29:19.927Z</time></trkpt><trkpt lat="42.1083516" lon="13.6982711"><ele>957.0</ele><time>2026-05-02T11:29:20.927Z</time></trkpt><trkpt lat="42.1083104" lon="13.6981193"><ele>957.0</ele><time>2026-05-02T11:29:21.927Z</time></trkpt><trkpt lat="42.1082535" lon="13.6979562"><ele>957.0</ele><time>2026-05-02T11:29:22.927Z</time></trkpt><trkpt lat="42.1081892" lon="13.6978092"><ele>955.8</ele><time>2026-05-02T11:29:23.927Z</time></trkpt><trkpt lat="42.1081333" lon="13.697679"><ele>954.6</ele><time>2026-05-02T11:29:24.926Z</time></trkpt><trkpt lat="42.1081" lon="13.6975358"><ele>953.3999999999999</ele><time>2026-05-02T11:29:25.927Z</time></trkpt><trkpt lat="42.1080797" lon="13.6973926"><ele>952.1999999999999</ele><time>2026-05-02T11:29:26.927Z</time></trkpt><trkpt lat="42.1081007" lon="13.6972382"><ele>951.0</ele><time>2026-05-02T11:29:27.927Z</time></trkpt><trkpt lat="42.1081264" lon="13.6970848"><ele>951.0</ele><time>2026-05-02T11:29:28.927Z</time></trkpt><trkpt lat="42.108165" lon="13.6969398"><ele>951.0</ele><time>2026-05-02T11:29:29.926Z</time></trkpt><trkpt lat="42.1082195" lon="13.696797"><ele>951.0</ele><time>2026-05-02T11:29:30.927Z</time></trkpt><trkpt lat="42.1082776" lon="13.6966556"><ele>951.0</ele><time>2026-05-02T11:29:31.928Z</time></trkpt><trkpt lat="42.1083374" lon="13.6965125"><ele>956.0</ele><time>2026-05-02T11:29:32.927Z</time></trkpt><trkpt lat="42.1083992" lon="13.6963684"><ele>961.0</ele><time>2026-05-02T11:29:33.927Z</time></trkpt><trkpt lat="42.1084635" lon="13.6962297"><ele>966.0</ele><time>2026-05-02T11:29:34.927Z</time></trkpt><trkpt lat="42.1085199" lon="13.6960997"><ele>971.0</ele><time>2026-05-02T11:29:35.926Z</time></trkpt><trkpt lat="42.1085613" lon="13.6959819"><ele>971.0</ele><time>2026-05-02T11:29:36.927Z</time></trkpt><trkpt lat="42.1086012" lon="13.6958741"><ele>970.9999999999999</ele><time>2026-05-02T11:29:37.927Z</time></trkpt><trkpt lat="42.1086327" lon="13.6957678"><ele>970.9999999999999</ele><time>2026-05-02T11:29:38.927Z</time></trkpt><trkpt lat="42.1086572" lon="13.6956797"><ele>971.0</ele><time>2026-05-02T11:29:39.927Z</time></trkpt><trkpt lat="42.1087059" lon="13.6955512"><ele>971.0</ele><time>2026-05-02T11:29:41.927Z</time></trkpt><trkpt lat="42.1086483" lon="13.6956588"><ele>971.0000000000001</ele><time>2026-05-02T11:29:53.927Z</time></trkpt><trkpt lat="42.1086155" lon="13.6957378"><ele>971.0</ele><time>2026-05-02T11:29:55.927Z</time></trkpt><trkpt lat="42.1085914" lon="13.6958224"><ele>971.0</ele><time>2026-05-02T11:29:57.927Z</time></trkpt><trkpt lat="42.1085606" lon="13.6959536"><ele>971.0</ele><time>2026-05-02T11:29:59.927Z</time></trkpt><trkpt lat="42.1085392" lon="13.6960359"><ele>971.0000000000001</ele><time>2026-05-02T11:30:00.927Z</time></trkpt><trkpt lat="42.1085075" lon="13.6961329"><ele>971.0</ele><time>2026-05-02T11:30:01.927Z</time></trkpt><trkpt lat="42.1084578" lon="13.6962546"><ele>971.1999999999999</ele><time>2026-05-02T11:30:02.926Z</time></trkpt><trkpt lat="42.1084002" lon="13.6963777"><ele>971.3999999999999</ele><time>2026-05-02T11:30:03.925Z</time></trkpt><trkpt lat="42.1083406" lon="13.6965027"><ele>971.6</ele><time>2026-05-02T11:30:04.927Z</time></trkpt><trkpt lat="42.1082845" lon="13.696621"><ele>971.8</ele><time>2026-05-02T11:30:05.927Z</time></trkpt><trkpt lat="42.1082262" lon="13.6967454"><ele>972.0</ele><time>2026-05-02T11:30:06.928Z</time></trkpt><trkpt lat="42.1081763" lon="13.6968713"><ele>967.8</ele><time>2026-05-02T11:30:07.926Z</time></trkpt><trkpt lat="42.1081337" lon="13.6970008"><ele>963.6</ele><time>2026-05-02T11:30:08.927Z</time></trkpt><trkpt lat="42.1080996" lon="13.6971251"><ele>959.3999999999999</ele><time>2026-05-02T11:30:09.927Z</time></trkpt><trkpt lat="42.108076" lon="13.6972408"><ele>955.1999999999999</ele><time>2026-05-02T11:30:10.927Z</time></trkpt><trkpt lat="42.1080664" lon="13.6973404"><ele>951.0</ele><time>2026-05-02T11:30:11.927Z</time></trkpt><trkpt lat="42.1080672" lon="13.6974588"><ele>951.0</ele><time>2026-05-02T11:30:13.926Z</time></trkpt><trkpt lat="42.1079974" lon="13.6974476"><ele>951.0</ele><time>2026-05-02T11:30:16.927Z</time></trkpt><trkpt lat="42.1079465" lon="13.6973183"><ele>951.0</ele><time>2026-05-02T11:30:18.927Z</time></trkpt><trkpt lat="42.1079305" lon="13.6972225"><ele>951.0</ele><time>2026-05-02T11:30:19.927Z</time></trkpt><trkpt lat="42.1079151" lon="13.697126"><ele>951.0</ele><time>2026-05-02T11:30:20.926Z</time></trkpt><trkpt lat="42.1078964" lon="13.6970226"><ele>951.0</ele><time>2026-05-02T11:30:21.927Z</time></trkpt><trkpt lat="42.107875" lon="13.6969259"><ele>950.6666666666666</ele><time>2026-05-02T11:30:22.927Z</time></trkpt><trkpt lat="42.1078512" lon="13.696826"><ele>950.3333333333333</ele><time>2026-05-02T11:30:23.926Z</time></trkpt><trkpt lat="42.1078308" lon="13.6967106"><ele>950.0</ele><time>2026-05-02T11:30:24.927Z</time></trkpt><trkpt lat="42.107811" lon="13.696604"><ele>949.6666666666666</ele><time>2026-05-02T11:30:25.926Z</time></trkpt><trkpt lat="42.1077955" lon="13.6964857"><ele>949.3333333333333</ele><time>2026-05-02T11:30:26.926Z</time></trkpt><trkpt lat="42.1077762" lon="13.6963754"><ele>949.0</ele><time>2026-05-02T11:30:27.927Z</time></trkpt><trkpt lat="42.1077543" lon="13.6962481"><ele>949.0</ele><time>2026-05-02T11:30:28.928Z</time></trkpt><trkpt lat="42.1077362" lon="13.6961234"><ele>949.0000000000001</ele><time>2026-05-02T11:30:29.927Z</time></trkpt><trkpt lat="42.1077108" lon="13.6959964"><ele>949.0000000000001</ele><time>2026-05-02T11:30:30.926Z</time></trkpt><trkpt lat="42.1076932" lon="13.6958768"><ele>949.0</ele><time>2026-05-02T11:30:31.927Z</time></trkpt><trkpt lat="42.1076714" lon="13.6957493"><ele>949.0</ele><time>2026-05-02T11:30:32.927Z</time></trkpt><trkpt lat="42.1076529" lon="13.6956256"><ele>948.2</ele><time>2026-05-02T11:30:33.926Z</time></trkpt><trkpt lat="42.1076267" lon="13.6954959"><ele>947.4000000000001</ele><time>2026-05-02T11:30:34.927Z</time></trkpt><trkpt lat="42.1076063" lon="13.6953699"><ele>946.6</ele><time>2026-05-02T11:30:35.927Z</time></trkpt><trkpt lat="42.1075811" lon="13.6952501"><ele>945.8</ele><time>2026-05-02T11:30:36.927Z</time></trkpt><trkpt lat="42.1075614" lon="13.6951266"><ele>945.0</ele><time>2026-05-02T11:30:37.926Z</time></trkpt><trkpt lat="42.1075409" lon="13.6950002"><ele>944.6666666666666</ele><time>2026-05-02T11:30:38.927Z</time></trkpt><trkpt lat="42.1075251" lon="13.694879"><ele>944.3333333333333</ele><time>2026-05-02T11:30:39.927Z</time></trkpt><trkpt lat="42.1075118" lon="13.6947649"><ele>944.0</ele><time>2026-05-02T11:30:40.926Z</time></trkpt><trkpt lat="42.1074961" lon="13.6946479"><ele>943.6666666666666</ele><time>2026-05-02T11:30:41.928Z</time></trkpt><trkpt lat="42.1074714" lon="13.6945549"><ele>943.3333333333333</ele><time>2026-05-02T11:30:42.927Z</time></trkpt><trkpt lat="42.1074389" lon="13.6944766"><ele>943.0</ele><time>2026-05-02T11:30:43.926Z</time></trkpt><trkpt lat="42.1073162" lon="13.6943779"><ele>939.5999999999999</ele><time>2026-05-02T11:30:45.927Z</time></trkpt><trkpt lat="42.1072209" lon="13.6943597"><ele>936.1999999999999</ele><time>2026-05-02T11:30:46.927Z</time></trkpt><trkpt lat="42.107108" lon="13.6943538"><ele>932.8</ele><time>2026-05-02T11:30:47.926Z</time></trkpt><trkpt lat="42.1070004" lon="13.6943447"><ele>929.4</ele><time>2026-05-02T11:30:48.927Z</time></trkpt><trkpt lat="42.1068876" lon="13.6943279"><ele>926.0</ele><time>2026-05-02T11:30:49.927Z</time></trkpt><trkpt lat="42.1067761" lon="13.694303"><ele>926.0</ele><time>2026-05-02T11:30:50.928Z</time></trkpt><trkpt lat="42.1066662" lon="13.6942685"><ele>925.9999999999999</ele><time>2026-05-02T11:30:51.927Z</time></trkpt><trkpt lat="42.1065573" lon="13.6942334"><ele>925.9999999999999</ele><time>2026-05-02T11:30:52.926Z</time></trkpt><trkpt lat="42.1064508" lon="13.6942054"><ele>926.0</ele><time>2026-05-02T11:30:53.927Z</time></trkpt><trkpt lat="42.1063398" lon="13.6941779"><ele>926.0</ele><time>2026-05-02T11:30:54.927Z</time></trkpt><trkpt lat="42.1062303" lon="13.694154"><ele>923.0</ele><time>2026-05-02T11:30:55.927Z</time></trkpt><trkpt lat="42.1061121" lon="13.6941265"><ele>920.0</ele><time>2026-05-02T11:30:56.927Z</time></trkpt><trkpt lat="42.1059714" lon="13.6940949"><ele>917.0</ele><time>2026-05-02T11:30:57.926Z</time></trkpt><trkpt lat="42.1058468" lon="13.6940723"><ele>914.0</ele><time>2026-05-02T11:30:58.928Z</time></trkpt><trkpt lat="42.105729" lon="13.694044"><ele>912.0</ele><time>2026-05-02T11:30:59.927Z</time></trkpt><trkpt lat="42.1056189" lon="13.6940109"><ele>910.0</ele><time>2026-05-02T11:31:00.926Z</time></trkpt><trkpt lat="42.105499" lon="13.6939716"><ele>908.0</ele><time>2026-05-02T11:31:01.926Z</time></trkpt><trkpt lat="42.1053868" lon="13.6939415"><ele>906.0</ele><time>2026-05-02T11:31:02.927Z</time></trkpt><trkpt lat="42.1052902" lon="13.6939069"><ele>906.0</ele><time>2026-05-02T11:31:03.926Z</time></trkpt><trkpt lat="42.1052134" lon="13.6938757"><ele>906.0</ele><time>2026-05-02T11:31:04.926Z</time></trkpt><trkpt lat="42.1051504" lon="13.6938288"><ele>906.0</ele><time>2026-05-02T11:31:05.928Z</time></trkpt><trkpt lat="42.1051028" lon="13.6937685"><ele>906.0</ele><time>2026-05-02T11:31:06.927Z</time></trkpt><trkpt lat="42.1050421" lon="13.6936597"><ele>906.0</ele><time>2026-05-02T11:31:07.928Z</time></trkpt><trkpt lat="42.1049853" lon="13.6935403"><ele>906.0</ele><time>2026-05-02T11:31:08.927Z</time></trkpt><trkpt lat="42.1049311" lon="13.6934302"><ele>908.5999999999999</ele><time>2026-05-02T11:31:09.928Z</time></trkpt><trkpt lat="42.1048833" lon="13.6933467"><ele>911.1999999999999</ele><time>2026-05-02T11:31:10.927Z</time></trkpt><trkpt lat="42.104831" lon="13.6932871"><ele>913.8000000000001</ele><time>2026-05-02T11:31:11.927Z</time></trkpt><trkpt lat="42.1046967" lon="13.6932875"><ele>916.4000000000001</ele><time>2026-05-02T11:31:13.927Z</time></trkpt><trkpt lat="42.1046022" lon="13.6932999"><ele>919.0</ele><time>2026-05-02T11:31:14.927Z</time></trkpt><trkpt lat="42.1045041" lon="13.6932954"><ele>918.9999999999999</ele><time>2026-05-02T11:31:15.927Z</time></trkpt><trkpt lat="42.1044053" lon="13.6932771"><ele>919.0</ele><time>2026-05-02T11:31:16.927Z</time></trkpt><trkpt lat="42.1043192" lon="13.6932679"><ele>919.0</ele><time>2026-05-02T11:31:17.927Z</time></trkpt><trkpt lat="42.1042419" lon="13.6932808"><ele>919.0</ele><time>2026-05-02T11:31:18.927Z</time></trkpt><trkpt lat="42.104145" lon="13.6933564"><ele>918.9999999999999</ele><time>2026-05-02T11:31:20.927Z</time></trkpt><trkpt lat="42.1041104" lon="13.693429"><ele>919.0</ele><time>2026-05-02T11:31:21.927Z</time></trkpt><trkpt lat="42.1040785" lon="13.6935253"><ele>919.6666666666666</ele><time>2026-05-02T11:31:22.927Z</time></trkpt><trkpt lat="42.1040646" lon="13.693627"><ele>920.3333333333333</ele><time>2026-05-02T11:31:23.926Z</time></trkpt><trkpt lat="42.104047" lon="13.6937237"><ele>921.0</ele><time>2026-05-02T11:31:24.927Z</time></trkpt><trkpt lat="42.1040232" lon="13.6938174"><ele>921.6666666666667</ele><time>2026-05-02T11:31:25.926Z</time></trkpt><trkpt lat="42.1039905" lon="13.6938972"><ele>922.3333333333334</ele><time>2026-05-02T11:31:26.927Z</time></trkpt><trkpt lat="42.1039375" lon="13.6939789"><ele>923.0</ele><time>2026-05-02T11:31:27.928Z</time></trkpt><trkpt lat="42.103878" lon="13.6940528"><ele>923.0000000000001</ele><time>2026-05-02T11:31:28.927Z</time></trkpt><trkpt lat="42.1038125" lon="13.6940872"><ele>923.0</ele><time>2026-05-02T11:31:29.927Z</time></trkpt><trkpt lat="42.1037438" lon="13.6941159"><ele>923.0</ele><time>2026-05-02T11:31:30.926Z</time></trkpt><trkpt lat="42.1036701" lon="13.6941254"><ele>923.0</ele><time>2026-05-02T11:31:31.927Z</time></trkpt><trkpt lat="42.1035821" lon="13.6941081"><ele>923.0000000000001</ele><time>2026-05-02T11:31:32.928Z</time></trkpt><trkpt lat="42.1034842" lon="13.6940783"><ele>923.0</ele><time>2026-05-02T11:31:33.927Z</time></trkpt><trkpt lat="42.1033813" lon="13.6940666"><ele>923.0</ele><time>2026-05-02T11:31:34.927Z</time></trkpt><trkpt lat="42.1032784" lon="13.69407"><ele>923.0</ele><time>2026-05-02T11:31:35.926Z</time></trkpt><trkpt lat="42.1031731" lon="13.6940812"><ele>923.0</ele><time>2026-05-02T11:31:36.927Z</time></trkpt><trkpt lat="42.1030709" lon="13.694101"><ele>923.0</ele><time>2026-05-02T11:31:37.927Z</time></trkpt><trkpt lat="42.1029726" lon="13.6941202"><ele>923.0</ele><time>2026-05-02T11:31:38.926Z</time></trkpt><trkpt lat="42.1028701" lon="13.6941294"><ele>923.8</ele><time>2026-05-02T11:31:39.926Z</time></trkpt><trkpt lat="42.1027643" lon="13.694127"><ele>924.5999999999999</ele><time>2026-05-02T11:31:40.927Z</time></trkpt><trkpt lat="42.1026543" lon="13.6941218"><ele>925.4000000000001</ele><time>2026-05-02T11:31:41.927Z</time></trkpt><trkpt lat="42.1025411" lon="13.6941132"><ele>926.2</ele><time>2026-05-02T11:31:42.927Z</time></trkpt><trkpt lat="42.102432" lon="13.694099"><ele>927.0</ele><time>2026-05-02T11:31:43.926Z</time></trkpt><trkpt lat="42.1023311" lon="13.6940818"><ele>928.2</ele><time>2026-05-02T11:31:44.927Z</time></trkpt><trkpt lat="42.1022315" lon="13.6940625"><ele>929.4000000000001</ele><time>2026-05-02T11:31:45.926Z</time></trkpt><trkpt lat="42.1021255" lon="13.6940321"><ele>930.5999999999999</ele><time>2026-05-02T11:31:46.926Z</time></trkpt><trkpt lat="42.1020368" lon="13.693994"><ele>931.8</ele><time>2026-05-02T11:31:47.928Z</time></trkpt><trkpt lat="42.1019576" lon="13.6939454"><ele>933.0</ele><time>2026-05-02T11:31:48.927Z</time></trkpt><trkpt lat="42.1018924" lon="13.6938713"><ele>933.0</ele><time>2026-05-02T11:31:49.927Z</time></trkpt><trkpt lat="42.1018352" lon="13.6937786"><ele>933.0</ele><time>2026-05-02T11:31:50.928Z</time></trkpt><trkpt lat="42.1017836" lon="13.693688"><ele>933.0</ele><time>2026-05-02T11:31:51.927Z</time></trkpt><trkpt lat="42.1017252" lon="13.6936221"><ele>933.0</ele><time>2026-05-02T11:31:52.926Z</time></trkpt><trkpt lat="42.1016571" lon="13.6935637"><ele>933.0</ele><time>2026-05-02T11:31:53.925Z</time></trkpt><trkpt lat="42.10158" lon="13.6935253"><ele>933.0</ele><time>2026-05-02T11:31:54.927Z</time></trkpt><trkpt lat="42.101505" lon="13.6934876"><ele>935.8</ele><time>2026-05-02T11:31:55.927Z</time></trkpt><trkpt lat="42.1014307" lon="13.6934762"><ele>938.5999999999999</ele><time>2026-05-02T11:31:56.927Z</time></trkpt><trkpt lat="42.1013306" lon="13.6935315"><ele>941.4000000000001</ele><time>2026-05-02T11:31:58.925Z</time></trkpt><trkpt lat="42.1012416" lon="13.6936669"><ele>944.2</ele><time>2026-05-02T11:32:00.928Z</time></trkpt><trkpt lat="42.1011919" lon="13.6937721"><ele>947.0</ele><time>2026-05-02T11:32:01.927Z</time></trkpt><trkpt lat="42.1011325" lon="13.6938706"><ele>947.0000000000001</ele><time>2026-05-02T11:32:02.928Z</time></trkpt><trkpt lat="42.1010682" lon="13.6939636"><ele>947.0</ele><time>2026-05-02T11:32:03.928Z</time></trkpt><trkpt lat="42.1010031" lon="13.6940358"><ele>947.0</ele><time>2026-05-02T11:32:04.927Z</time></trkpt><trkpt lat="42.1009354" lon="13.6941057"><ele>947.0</ele><time>2026-05-02T11:32:05.926Z</time></trkpt><trkpt lat="42.1008792" lon="13.6941603"><ele>947.0000000000001</ele><time>2026-05-02T11:32:06.927Z</time></trkpt><trkpt lat="42.1008178" lon="13.6942218"><ele>947.0</ele><time>2026-05-02T11:32:07.927Z</time></trkpt><trkpt lat="42.1007588" lon="13.694286"><ele>949.0</ele><time>2026-05-02T11:32:08.926Z</time></trkpt><trkpt lat="42.1006972" lon="13.6943314"><ele>950.9999999999999</ele><time>2026-05-02T11:32:09.927Z</time></trkpt><trkpt lat="42.1006255" lon="13.6943584"><ele>953.0</ele><time>2026-05-02T11:32:10.927Z</time></trkpt><trkpt lat="42.1005562" lon="13.6943583"><ele>955.0</ele><time>2026-05-02T11:32:11.927Z</time></trkpt><trkpt lat="42.1004936" lon="13.6943417"><ele>956.9999999999999</ele><time>2026-05-02T11:32:12.926Z</time></trkpt><trkpt lat="42.1004209" lon="13.6942911"><ele>959.0</ele><time>2026-05-02T11:32:13.927Z</time></trkpt><trkpt lat="42.1003529" lon="13.6942624"><ele>961.0</ele><time>2026-05-02T11:32:14.926Z</time></trkpt><trkpt lat="42.1002828" lon="13.6942445"><ele>961.0</ele><time>2026-05-02T11:32:15.926Z</time></trkpt><trkpt lat="42.1001637" lon="13.6942531"><ele>960.9999999999999</ele><time>2026-05-02T11:32:17.927Z</time></trkpt><trkpt lat="42.1000392" lon="13.6942002"><ele>960.9999999999999</ele><time>2026-05-02T11:32:19.927Z</time></trkpt><trkpt lat="42.0999462" lon="13.6941572"><ele>961.0</ele><time>2026-05-02T11:32:20.927Z</time></trkpt><trkpt lat="42.0998614" lon="13.6941159"><ele>961.0</ele><time>2026-05-02T11:32:21.927Z</time></trkpt><trkpt lat="42.0998016" lon="13.6940667"><ele>963.8333333333333</ele><time>2026-05-02T11:32:22.927Z</time></trkpt><trkpt lat="42.0997566" lon="13.6939983"><ele>966.6666666666666</ele><time>2026-05-02T11:32:23.925Z</time></trkpt><trkpt lat="42.0997277" lon="13.6939084"><ele>969.5</ele><time>2026-05-02T11:32:24.925Z</time></trkpt><trkpt lat="42.0997064" lon="13.6938055"><ele>972.3333333333333</ele><time>2026-05-02T11:32:25.928Z</time></trkpt><trkpt lat="42.0996782" lon="13.6937009"><ele>975.1666666666666</ele><time>2026-05-02T11:32:26.928Z</time></trkpt><trkpt lat="42.0996431" lon="13.6935959"><ele>978.0</ele><time>2026-05-02T11:32:27.927Z</time></trkpt><trkpt lat="42.0996064" lon="13.6934893"><ele>979.2857142857143</ele><time>2026-05-02T11:32:28.926Z</time></trkpt><trkpt lat="42.0995651" lon="13.6934025"><ele>980.5714285714287</ele><time>2026-05-02T11:32:29.926Z</time></trkpt><trkpt lat="42.0995191" lon="13.6933366"><ele>981.8571428571429</ele><time>2026-05-02T11:32:30.926Z</time></trkpt><trkpt lat="42.0994647" lon="13.6932851"><ele>983.1428571428571</ele><time>2026-05-02T11:32:31.927Z</time></trkpt><trkpt lat="42.0994085" lon="13.6932332"><ele>984.4285714285714</ele><time>2026-05-02T11:32:32.927Z</time></trkpt><trkpt lat="42.0993409" lon="13.6931915"><ele>985.7142857142858</ele><time>2026-05-02T11:32:33.927Z</time></trkpt><trkpt lat="42.0992688" lon="13.6931723"><ele>987.0</ele><time>2026-05-02T11:32:34.927Z</time></trkpt><trkpt lat="42.0992012" lon="13.6931783"><ele>987.0</ele><time>2026-05-02T11:32:35.927Z</time></trkpt><trkpt lat="42.0991316" lon="13.6932111"><ele>987.0</ele><time>2026-05-02T11:32:36.926Z</time></trkpt><trkpt lat="42.0990696" lon="13.6932548"><ele>987.0</ele><time>2026-05-02T11:32:37.927Z</time></trkpt><trkpt lat="42.0989737" lon="13.6933597"><ele>987.0</ele><time>2026-05-02T11:32:39.927Z</time></trkpt><trkpt lat="42.0989442" lon="13.6934416"><ele>987.0</ele><time>2026-05-02T11:32:40.927Z</time></trkpt><trkpt lat="42.0989259" lon="13.6935324"><ele>987.0</ele><time>2026-05-02T11:32:41.926Z</time></trkpt><trkpt lat="42.0989225" lon="13.693643"><ele>989.8333333333334</ele><time>2026-05-02T11:32:42.927Z</time></trkpt><trkpt lat="42.098925" lon="13.6937681"><ele>992.6666666666667</ele><time>2026-05-02T11:32:43.927Z</time></trkpt><trkpt lat="42.0989261" lon="13.6938787"><ele>995.5</ele><time>2026-05-02T11:32:44.925Z</time></trkpt><trkpt lat="42.0989113" lon="13.6939713"><ele>998.3333333333334</ele><time>2026-05-02T11:32:45.926Z</time></trkpt><trkpt lat="42.0988849" lon="13.6940578"><ele>1001.1666666666667</ele><time>2026-05-02T11:32:46.927Z</time></trkpt><trkpt lat="42.0988038" lon="13.6941592"><ele>1004.0</ele><time>2026-05-02T11:32:48.927Z</time></trkpt><trkpt lat="42.0987217" lon="13.6941966"><ele>1004.0000000000001</ele><time>2026-05-02T11:32:49.927Z</time></trkpt><trkpt lat="42.0986585" lon="13.6942346"><ele>1004.0</ele><time>2026-05-02T11:32:50.927Z</time></trkpt><trkpt lat="42.0985893" lon="13.6942826"><ele>1004.0</ele><time>2026-05-02T11:32:51.927Z</time></trkpt><trkpt lat="42.0985209" lon="13.6943521"><ele>1004.0</ele><time>2026-05-02T11:32:52.927Z</time></trkpt><trkpt lat="42.0984616" lon="13.6944231"><ele>1004.0000000000001</ele><time>2026-05-02T11:32:53.927Z</time></trkpt><trkpt lat="42.0984089" lon="13.6945035"><ele>1004.0</ele><time>2026-05-02T11:32:54.927Z</time></trkpt><trkpt lat="42.0983565" lon="13.6945897"><ele>1004.0000000000001</ele><time>2026-05-02T11:32:55.927Z</time></trkpt><trkpt lat="42.0983089" lon="13.6946731"><ele>1004.0</ele><time>2026-05-02T11:32:56.927Z</time></trkpt><trkpt lat="42.0982781" lon="13.6947635"><ele>1004.0</ele><time>2026-05-02T11:32:57.927Z</time></trkpt><trkpt lat="42.0982373" lon="13.6948614"><ele>1004.0</ele><time>2026-05-02T11:32:58.927Z</time></trkpt><trkpt lat="42.0981937" lon="13.6949553"><ele>1004.0000000000001</ele><time>2026-05-02T11:32:59.927Z</time></trkpt><trkpt lat="42.0981357" lon="13.6950573"><ele>1004.0</ele><time>2026-05-02T11:33:00.928Z</time></trkpt><trkpt lat="42.0980792" lon="13.6951624"><ele>1002.6666666666667</ele><time>2026-05-02T11:33:01.927Z</time></trkpt><trkpt lat="42.0980267" lon="13.6952661"><ele>1001.3333333333334</ele><time>2026-05-02T11:33:02.927Z</time></trkpt><trkpt lat="42.097974" lon="13.6953622"><ele>1000.0</ele><time>2026-05-02T11:33:03.926Z</time></trkpt><trkpt lat="42.0979213" lon="13.6954396"><ele>998.6666666666667</ele><time>2026-05-02T11:33:04.927Z</time></trkpt><trkpt lat="42.097857" lon="13.6954815"><ele>997.3333333333334</ele><time>2026-05-02T11:33:05.927Z</time></trkpt><trkpt lat="42.097777" lon="13.6955274"><ele>996.0</ele><time>2026-05-02T11:33:06.926Z</time></trkpt><trkpt lat="42.0976855" lon="13.6955687"><ele>996.0</ele><time>2026-05-02T11:33:07.927Z</time></trkpt><trkpt lat="42.0975894" lon="13.6956061"><ele>995.9999999999999</ele><time>2026-05-02T11:33:08.926Z</time></trkpt><trkpt lat="42.0975014" lon="13.6956383"><ele>995.9999999999999</ele><time>2026-05-02T11:33:09.928Z</time></trkpt><trkpt lat="42.0974129" lon="13.6956754"><ele>996.0</ele><time>2026-05-02T11:33:10.927Z</time></trkpt><trkpt lat="42.0973295" lon="13.6957139"><ele>996.0</ele><time>2026-05-02T11:33:11.927Z</time></trkpt><trkpt lat="42.0972571" lon="13.6957581"><ele>996.3333333333334</ele><time>2026-05-02T11:33:12.926Z</time></trkpt><trkpt lat="42.0971801" lon="13.695803"><ele>996.6666666666667</ele><time>2026-05-02T11:33:13.927Z</time></trkpt><trkpt lat="42.0970886" lon="13.6958392"><ele>997.0</ele><time>2026-05-02T11:33:14.926Z</time></trkpt><trkpt lat="42.0970131" lon="13.6958587"><ele>997.3333333333334</ele><time>2026-05-02T11:33:15.926Z</time></trkpt><trkpt lat="42.0969453" lon="13.69587"><ele>997.6666666666667</ele><time>2026-05-02T11:33:16.927Z</time></trkpt><trkpt lat="42.09687" lon="13.6958721"><ele>998.0</ele><time>2026-05-02T11:33:17.925Z</time></trkpt><trkpt lat="42.0967965" lon="13.6958629"><ele>998.0</ele><time>2026-05-02T11:33:18.926Z</time></trkpt><trkpt lat="42.0967249" lon="13.695844"><ele>998.0</ele><time>2026-05-02T11:33:19.927Z</time></trkpt><trkpt lat="42.0966644" lon="13.695797"><ele>998.0</ele><time>2026-05-02T11:33:20.926Z</time></trkpt><trkpt lat="42.0965569" lon="13.6957024"><ele>998.0</ele><time>2026-05-02T11:33:22.927Z</time></trkpt><trkpt lat="42.0964415" lon="13.6956629"><ele>998.0</ele><time>2026-05-02T11:33:24.926Z</time></trkpt><trkpt lat="42.0963709" lon="13.695692"><ele>997.6666666666667</ele><time>2026-05-02T11:33:25.927Z</time></trkpt><trkpt lat="42.0962953" lon="13.6957362"><ele>997.3333333333334</ele><time>2026-05-02T11:33:26.928Z</time></trkpt><trkpt lat="42.0962202" lon="13.6957907"><ele>997.0</ele><time>2026-05-02T11:33:27.926Z</time></trkpt><trkpt lat="42.096141" lon="13.6958395"><ele>996.6666666666667</ele><time>2026-05-02T11:33:28.927Z</time></trkpt><trkpt lat="42.0960588" lon="13.6958829"><ele>996.3333333333334</ele><time>2026-05-02T11:33:29.927Z</time></trkpt><trkpt lat="42.0959781" lon="13.6959105"><ele>996.0</ele><time>2026-05-02T11:33:30.926Z</time></trkpt><trkpt lat="42.095852" lon="13.6958622"><ele>996.0</ele><time>2026-05-02T11:33:32.926Z</time></trkpt><trkpt lat="42.0957722" lon="13.695814"><ele>996.0</ele><time>2026-05-02T11:33:33.926Z</time></trkpt><trkpt lat="42.0956925" lon="13.6957679"><ele>996.0</ele><time>2026-05-02T11:33:34.927Z</time></trkpt><trkpt lat="42.0956188" lon="13.6957392"><ele>996.0</ele><time>2026-05-02T11:33:35.927Z</time></trkpt><trkpt lat="42.0955443" lon="13.6957226"><ele>996.0</ele><time>2026-05-02T11:33:36.927Z</time></trkpt><trkpt lat="42.0954727" lon="13.6957228"><ele>996.0</ele><time>2026-05-02T11:33:37.927Z</time></trkpt><trkpt lat="42.0953974" lon="13.695734"><ele>997.0</ele><time>2026-05-02T11:33:38.927Z</time></trkpt><trkpt lat="42.0953231" lon="13.6957514"><ele>997.9999999999999</ele><time>2026-05-02T11:33:39.927Z</time></trkpt><trkpt lat="42.0952528" lon="13.6957758"><ele>999.0</ele><time>2026-05-02T11:33:40.928Z</time></trkpt><trkpt lat="42.0951884" lon="13.6958126"><ele>1000.0</ele><time>2026-05-02T11:33:41.926Z</time></trkpt><trkpt lat="42.0951262" lon="13.6958525"><ele>1000.9999999999999</ele><time>2026-05-02T11:33:42.926Z</time></trkpt><trkpt lat="42.0950559" lon="13.6958965"><ele>1002.0</ele><time>2026-05-02T11:33:43.926Z</time></trkpt><trkpt lat="42.0949776" lon="13.6959349"><ele>1003.0</ele><time>2026-05-02T11:33:44.927Z</time></trkpt><trkpt lat="42.0948963" lon="13.6959706"><ele>1003.8</ele><time>2026-05-02T11:33:45.925Z</time></trkpt><trkpt lat="42.0948066" lon="13.6960013"><ele>1004.5999999999999</ele><time>2026-05-02T11:33:46.927Z</time></trkpt><trkpt lat="42.0947088" lon="13.6960366"><ele>1005.4000000000001</ele><time>2026-05-02T11:33:47.927Z</time></trkpt><trkpt lat="42.094616" lon="13.6960863"><ele>1006.2</ele><time>2026-05-02T11:33:48.926Z</time></trkpt><trkpt lat="42.0945257" lon="13.6961507"><ele>1007.0</ele><time>2026-05-02T11:33:49.927Z</time></trkpt><trkpt lat="42.0944417" lon="13.6962087"><ele>1007.2</ele><time>2026-05-02T11:33:50.927Z</time></trkpt><trkpt lat="42.0943521" lon="13.6962642"><ele>1007.4000000000001</ele><time>2026-05-02T11:33:51.927Z</time></trkpt><trkpt lat="42.0942512" lon="13.6962837"><ele>1007.5999999999999</ele><time>2026-05-02T11:33:52.927Z</time></trkpt><trkpt lat="42.0941558" lon="13.6963167"><ele>1007.8</ele><time>2026-05-02T11:33:53.926Z</time></trkpt><trkpt lat="42.0940606" lon="13.6963481"><ele>1008.0</ele><time>2026-05-02T11:33:54.927Z</time></trkpt><trkpt lat="42.0939623" lon="13.6963689"><ele>1008.0</ele><time>2026-05-02T11:33:55.927Z</time></trkpt><trkpt lat="42.0938712" lon="13.6964032"><ele>1008.0</ele><time>2026-05-02T11:33:56.928Z</time></trkpt><trkpt lat="42.0937835" lon="13.6964587"><ele>1008.0</ele><time>2026-05-02T11:33:57.927Z</time></trkpt><trkpt lat="42.0936991" lon="13.6965277"><ele>1008.0</ele><time>2026-05-02T11:33:58.927Z</time></trkpt><trkpt lat="42.0936261" lon="13.6966262"><ele>1008.0</ele><time>2026-05-02T11:33:59.927Z</time></trkpt><trkpt lat="42.0935657" lon="13.69672"><ele>1008.0</ele><time>2026-05-02T11:34:00.928Z</time></trkpt><trkpt lat="42.0935046" lon="13.6968191"><ele>1008.0</ele><time>2026-05-02T11:34:01.927Z</time></trkpt><trkpt lat="42.0934496" lon="13.696917"><ele>1008.0</ele><time>2026-05-02T11:34:02.926Z</time></trkpt><trkpt lat="42.0933983" lon="13.6970049"><ele>1008.0</ele><time>2026-05-02T11:34:03.927Z</time></trkpt><trkpt lat="42.0933463" lon="13.6971079"><ele>1008.0</ele><time>2026-05-02T11:34:04.927Z</time></trkpt><trkpt lat="42.0932979" lon="13.6971954"><ele>1008.0</ele><time>2026-05-02T11:34:05.927Z</time></trkpt><trkpt lat="42.0932521" lon="13.6972834"><ele>1007.1666666666666</ele><time>2026-05-02T11:34:06.928Z</time></trkpt><trkpt lat="42.0932039" lon="13.6973891"><ele>1006.3333333333333</ele><time>2026-05-02T11:34:07.927Z</time></trkpt><trkpt lat="42.093159" lon="13.6974931"><ele>1005.5</ele><time>2026-05-02T11:34:08.927Z</time></trkpt><trkpt lat="42.0931101" lon="13.697592"><ele>1004.6666666666666</ele><time>2026-05-02T11:34:09.927Z</time></trkpt><trkpt lat="42.0930529" lon="13.6976789"><ele>1003.8333333333333</ele><time>2026-05-02T11:34:10.927Z</time></trkpt><trkpt lat="42.0929896" lon="13.697746"><ele>1003.0</ele><time>2026-05-02T11:34:11.927Z</time></trkpt><trkpt lat="42.092921" lon="13.6977811"><ele>1002.9999999999999</ele><time>2026-05-02T11:34:12.927Z</time></trkpt><trkpt lat="42.0928531" lon="13.6977953"><ele>1003.0</ele><time>2026-05-02T11:34:13.927Z</time></trkpt><trkpt lat="42.0927731" lon="13.6977526"><ele>1003.0</ele><time>2026-05-02T11:34:14.927Z</time></trkpt><trkpt lat="42.0926977" lon="13.697711"><ele>1003.0</ele><time>2026-05-02T11:34:15.928Z</time></trkpt><trkpt lat="42.0926067" lon="13.6976852"><ele>1002.9999999999999</ele><time>2026-05-02T11:34:16.926Z</time></trkpt><trkpt lat="42.0924967" lon="13.697699"><ele>1003.0</ele><time>2026-05-02T11:34:17.927Z</time></trkpt><trkpt lat="42.0924013" lon="13.6977207"><ele>1002.2</ele><time>2026-05-02T11:34:18.927Z</time></trkpt><trkpt lat="42.0923126" lon="13.6977466"><ele>1001.4</ele><time>2026-05-02T11:34:19.928Z</time></trkpt><trkpt lat="42.0922218" lon="13.6977744"><ele>1000.6000000000001</ele><time>2026-05-02T11:34:20.926Z</time></trkpt><trkpt lat="42.0921323" lon="13.6978013"><ele>999.8000000000001</ele><time>2026-05-02T11:34:21.927Z</time></trkpt><trkpt lat="42.092046" lon="13.6978113"><ele>999.0</ele><time>2026-05-02T11:34:22.927Z</time></trkpt><trkpt lat="42.0919489" lon="13.6977922"><ele>998.2</ele><time>2026-05-02T11:34:23.926Z</time></trkpt><trkpt lat="42.0918431" lon="13.6977915"><ele>997.4000000000001</ele><time>2026-05-02T11:34:24.926Z</time></trkpt><trkpt lat="42.0917495" lon="13.6978101"><ele>996.6</ele><time>2026-05-02T11:34:25.927Z</time></trkpt><trkpt lat="42.0916525" lon="13.6978478"><ele>995.8</ele><time>2026-05-02T11:34:26.926Z</time></trkpt><trkpt lat="42.0915628" lon="13.6979093"><ele>995.0</ele><time>2026-05-02T11:34:27.927Z</time></trkpt><trkpt lat="42.0914575" lon="13.6979942"><ele>994.25</ele><time>2026-05-02T11:34:28.926Z</time></trkpt><trkpt lat="42.0913483" lon="13.6980636"><ele>993.5</ele><time>2026-05-02T11:34:29.928Z</time></trkpt><trkpt lat="42.091234" lon="13.6981436"><ele>992.75</ele><time>2026-05-02T11:34:30.927Z</time></trkpt><trkpt lat="42.0911199" lon="13.698213"><ele>992.0</ele><time>2026-05-02T11:34:31.926Z</time></trkpt><trkpt lat="42.0910151" lon="13.6982586"><ele>992.0000000000001</ele><time>2026-05-02T11:34:32.927Z</time></trkpt><trkpt lat="42.0909377" lon="13.6983149"><ele>992.0</ele><time>2026-05-02T11:34:33.926Z</time></trkpt><trkpt lat="42.0908881" lon="13.6983969"><ele>992.0</ele><time>2026-05-02T11:34:34.927Z</time></trkpt><trkpt lat="42.0908552" lon="13.6984804"><ele>992.0</ele><time>2026-05-02T11:34:35.927Z</time></trkpt><trkpt lat="42.0908621" lon="13.698594"><ele>992.0000000000001</ele><time>2026-05-02T11:34:36.927Z</time></trkpt><trkpt lat="42.0908496" lon="13.6987135"><ele>992.0</ele><time>2026-05-02T11:34:37.928Z</time></trkpt><trkpt lat="42.0908235" lon="13.6988182"><ele>992.5000000000001</ele><time>2026-05-02T11:34:38.927Z</time></trkpt><trkpt lat="42.0907815" lon="13.6989188"><ele>993.0</ele><time>2026-05-02T11:34:39.927Z</time></trkpt><trkpt lat="42.0907178" lon="13.6989876"><ele>993.5</ele><time>2026-05-02T11:34:40.927Z</time></trkpt><trkpt lat="42.0906418" lon="13.699051"><ele>994.0</ele><time>2026-05-02T11:34:41.927Z</time></trkpt><trkpt lat="42.0905732" lon="13.6991249"><ele>994.5000000000001</ele><time>2026-05-02T11:34:42.926Z</time></trkpt><trkpt lat="42.0904919" lon="13.6991942"><ele>995.0</ele><time>2026-05-02T11:34:43.925Z</time></trkpt><trkpt lat="42.0903973" lon="13.6992616"><ele>995.5</ele><time>2026-05-02T11:34:44.926Z</time></trkpt><trkpt lat="42.0902895" lon="13.6993273"><ele>996.0</ele><time>2026-05-02T11:34:45.927Z</time></trkpt><trkpt lat="42.0901848" lon="13.6994081"><ele>996.5</ele><time>2026-05-02T11:34:46.927Z</time></trkpt><trkpt lat="42.0900843" lon="13.6995006"><ele>997.0</ele><time>2026-05-02T11:34:47.927Z</time></trkpt><trkpt lat="42.0899901" lon="13.699565"><ele>997.4999999999999</ele><time>2026-05-02T11:34:48.927Z</time></trkpt><trkpt lat="42.0899081" lon="13.6995999"><ele>998.0</ele><time>2026-05-02T11:34:49.928Z</time></trkpt><trkpt lat="42.0898359" lon="13.6996136"><ele>998.5</ele><time>2026-05-02T11:34:50.926Z</time></trkpt><trkpt lat="42.0897359" lon="13.6995688"><ele>999.0</ele><time>2026-05-02T11:34:52.925Z</time></trkpt><trkpt lat="42.089686" lon="13.6995092"><ele>999.4999999999999</ele><time>2026-05-02T11:34:53.927Z</time></trkpt><trkpt lat="42.0896509" lon="13.6994313"><ele>1000.0</ele><time>2026-05-02T11:34:54.927Z</time></trkpt><trkpt lat="42.0896112" lon="13.6993194"><ele>999.9999999999999</ele><time>2026-05-02T11:34:55.928Z</time></trkpt><trkpt lat="42.0895878" lon="13.69921"><ele>1000.0</ele><time>2026-05-02T11:34:56.926Z</time></trkpt><trkpt lat="42.0895677" lon="13.6991012"><ele>1000.0</ele><time>2026-05-02T11:34:57.927Z</time></trkpt><trkpt lat="42.0895461" lon="13.6989935"><ele>1000.0</ele><time>2026-05-02T11:34:58.925Z</time></trkpt><trkpt lat="42.0895366" lon="13.6988931"><ele>999.9999999999999</ele><time>2026-05-02T11:34:59.925Z</time></trkpt><trkpt lat="42.0895365" lon="13.698778"><ele>1000.0</ele><time>2026-05-02T11:35:00.925Z</time></trkpt><trkpt lat="42.0895407" lon="13.6986599"><ele>999.1666666666666</ele><time>2026-05-02T11:35:01.927Z</time></trkpt><trkpt lat="42.0895482" lon="13.6985479"><ele>998.3333333333333</ele><time>2026-05-02T11:35:02.926Z</time></trkpt><trkpt lat="42.0895473" lon="13.6984307"><ele>997.5</ele><time>2026-05-02T11:35:03.926Z</time></trkpt><trkpt lat="42.089527" lon="13.6983306"><ele>996.6666666666667</ele><time>2026-05-02T11:35:04.927Z</time></trkpt><trkpt lat="42.0894907" lon="13.6982258"><ele>995.8333333333334</ele><time>2026-05-02T11:35:05.927Z</time></trkpt><trkpt lat="42.0894283" lon="13.698138"><ele>995.0</ele><time>2026-05-02T11:35:06.927Z</time></trkpt><trkpt lat="42.0893821" lon="13.6980739"><ele>995.0</ele><time>2026-05-02T11:35:07.925Z</time></trkpt><trkpt lat="42.0892745" lon="13.6980364"><ele>995.0</ele><time>2026-05-02T11:35:09.927Z</time></trkpt><trkpt lat="42.0892072" lon="13.6980556"><ele>995.0</ele><time>2026-05-02T11:35:10.927Z</time></trkpt><trkpt lat="42.0891144" lon="13.698104"><ele>995.0</ele><time>2026-05-02T11:35:11.927Z</time></trkpt><trkpt lat="42.0890248" lon="13.6981686"><ele>995.0</ele><time>2026-05-02T11:35:12.927Z</time></trkpt><trkpt lat="42.0889439" lon="13.6982529"><ele>995.0</ele><time>2026-05-02T11:35:13.928Z</time></trkpt><trkpt lat="42.0888718" lon="13.6983321"><ele>995.0</ele><time>2026-05-02T11:35:14.926Z</time></trkpt><trkpt lat="42.0887941" lon="13.6983854"><ele>995.0</ele><time>2026-05-02T11:35:15.928Z</time></trkpt><trkpt lat="42.0887093" lon="13.6984447"><ele>995.0</ele><time>2026-05-02T11:35:16.926Z</time></trkpt><trkpt lat="42.0886057" lon="13.6985057"><ele>995.0</ele><time>2026-05-02T11:35:17.927Z</time></trkpt><trkpt lat="42.0885038" lon="13.6985693"><ele>994.8</ele><time>2026-05-02T11:35:18.927Z</time></trkpt><trkpt lat="42.0884085" lon="13.6986322"><ele>994.6</ele><time>2026-05-02T11:35:19.927Z</time></trkpt><trkpt lat="42.0883094" lon="13.6986863"><ele>994.4000000000001</ele><time>2026-05-02T11:35:20.928Z</time></trkpt><trkpt lat="42.0882226" lon="13.6987687"><ele>994.2</ele><time>2026-05-02T11:35:21.926Z</time></trkpt><trkpt lat="42.0881425" lon="13.6988562"><ele>994.0</ele><time>2026-05-02T11:35:22.928Z</time></trkpt><trkpt lat="42.0880629" lon="13.698961"><ele>993.4999999999999</ele><time>2026-05-02T11:35:23.927Z</time></trkpt><trkpt lat="42.087998" lon="13.6990669"><ele>993.0</ele><time>2026-05-02T11:35:24.926Z</time></trkpt><trkpt lat="42.0879441" lon="13.6991691"><ele>992.5</ele><time>2026-05-02T11:35:25.928Z</time></trkpt><trkpt lat="42.0879065" lon="13.6992708"><ele>992.0</ele><time>2026-05-02T11:35:26.927Z</time></trkpt><trkpt lat="42.0878991" lon="13.6993803"><ele>991.4999999999999</ele><time>2026-05-02T11:35:27.927Z</time></trkpt><trkpt lat="42.0879003" lon="13.6994991"><ele>991.0</ele><time>2026-05-02T11:35:28.927Z</time></trkpt><trkpt lat="42.0878997" lon="13.6996221"><ele>989.3333333333333</ele><time>2026-05-02T11:35:29.925Z</time></trkpt><trkpt lat="42.0878922" lon="13.6997454"><ele>987.6666666666666</ele><time>2026-05-02T11:35:30.927Z</time></trkpt><trkpt lat="42.0878735" lon="13.6998602"><ele>986.0</ele><time>2026-05-02T11:35:31.927Z</time></trkpt><trkpt lat="42.0878417" lon="13.699956"><ele>984.3333333333333</ele><time>2026-05-02T11:35:32.927Z</time></trkpt><trkpt lat="42.0877941" lon="13.7000286"><ele>982.6666666666666</ele><time>2026-05-02T11:35:33.926Z</time></trkpt><trkpt lat="42.0877334" lon="13.7000871"><ele>981.0</ele><time>2026-05-02T11:35:34.926Z</time></trkpt><trkpt lat="42.0876442" lon="13.700124"><ele>981.0</ele><time>2026-05-02T11:35:35.927Z</time></trkpt><trkpt lat="42.0875546" lon="13.7001559"><ele>980.9999999999999</ele><time>2026-05-02T11:35:36.927Z</time></trkpt><trkpt lat="42.0874557" lon="13.7001884"><ele>980.9999999999999</ele><time>2026-05-02T11:35:37.928Z</time></trkpt><trkpt lat="42.0873627" lon="13.70023"><ele>981.0</ele><time>2026-05-02T11:35:38.926Z</time></trkpt><trkpt lat="42.0872734" lon="13.7002979"><ele>981.0</ele><time>2026-05-02T11:35:39.927Z</time></trkpt><trkpt lat="42.0871747" lon="13.7003744"><ele>980.25</ele><time>2026-05-02T11:35:40.927Z</time></trkpt><trkpt lat="42.0870751" lon="13.7004569"><ele>979.5</ele><time>2026-05-02T11:35:41.926Z</time></trkpt><trkpt lat="42.0869753" lon="13.7005456"><ele>978.75</ele><time>2026-05-02T11:35:42.926Z</time></trkpt><trkpt lat="42.0868785" lon="13.7006242"><ele>978.0</ele><time>2026-05-02T11:35:43.926Z</time></trkpt><trkpt lat="42.0867835" lon="13.7006975"><ele>978.0</ele><time>2026-05-02T11:35:44.928Z</time></trkpt><trkpt lat="42.0866891" lon="13.7007814"><ele>978.0</ele><time>2026-05-02T11:35:45.926Z</time></trkpt><trkpt lat="42.0866031" lon="13.7008879"><ele>978.0</ele><time>2026-05-02T11:35:46.926Z</time></trkpt><trkpt lat="42.0865241" lon="13.7009951"><ele>978.0</ele><time>2026-05-02T11:35:47.928Z</time></trkpt><trkpt lat="42.0864598" lon="13.7011013"><ele>978.0</ele><time>2026-05-02T11:35:48.927Z</time></trkpt><trkpt lat="42.0864121" lon="13.7012248"><ele>977.2</ele><time>2026-05-02T11:35:49.926Z</time></trkpt><trkpt lat="42.0863696" lon="13.7013501"><ele>976.4</ele><time>2026-05-02T11:35:50.926Z</time></trkpt><trkpt lat="42.0863223" lon="13.7014738"><ele>975.6000000000001</ele><time>2026-05-02T11:35:51.926Z</time></trkpt><trkpt lat="42.0862726" lon="13.7015967"><ele>974.8000000000001</ele><time>2026-05-02T11:35:52.926Z</time></trkpt><trkpt lat="42.086209" lon="13.7017164"><ele>974.0</ele><time>2026-05-02T11:35:53.926Z</time></trkpt><trkpt lat="42.0861504" lon="13.7018508"><ele>973.25</ele><time>2026-05-02T11:35:54.927Z</time></trkpt><trkpt lat="42.0860931" lon="13.7019903"><ele>972.5</ele><time>2026-05-02T11:35:55.926Z</time></trkpt><trkpt lat="42.0860313" lon="13.7021309"><ele>971.75</ele><time>2026-05-02T11:35:56.926Z</time></trkpt><trkpt lat="42.0859649" lon="13.7022738"><ele>971.0</ele><time>2026-05-02T11:35:57.927Z</time></trkpt><trkpt lat="42.0859052" lon="13.7024133"><ele>971.0</ele><time>2026-05-02T11:35:58.927Z</time></trkpt><trkpt lat="42.0858446" lon="13.7025593"><ele>971.0</ele><time>2026-05-02T11:35:59.926Z</time></trkpt><trkpt lat="42.0857907" lon="13.7027089"><ele>971.0</ele><time>2026-05-02T11:36:00.926Z</time></trkpt><trkpt lat="42.0857265" lon="13.7028414"><ele>971.0</ele><time>2026-05-02T11:36:01.927Z</time></trkpt><trkpt lat="42.0856435" lon="13.7029684"><ele>969.5</ele><time>2026-05-02T11:36:02.927Z</time></trkpt><trkpt lat="42.0855618" lon="13.7030978"><ele>968.0</ele><time>2026-05-02T11:36:03.927Z</time></trkpt><trkpt lat="42.085474" lon="13.7032185"><ele>966.5</ele><time>2026-05-02T11:36:04.926Z</time></trkpt><trkpt lat="42.0853843" lon="13.7033379"><ele>965.0</ele><time>2026-05-02T11:36:05.927Z</time></trkpt><trkpt lat="42.0852854" lon="13.7034495"><ele>965.0</ele><time>2026-05-02T11:36:06.927Z</time></trkpt><trkpt lat="42.0851935" lon="13.7035393"><ele>965.0</ele><time>2026-05-02T11:36:07.926Z</time></trkpt><trkpt lat="42.0851039" lon="13.7036186"><ele>965.0</ele><time>2026-05-02T11:36:08.926Z</time></trkpt><trkpt lat="42.0850177" lon="13.7036865"><ele>965.0</ele><time>2026-05-02T11:36:09.927Z</time></trkpt><trkpt lat="42.0849462" lon="13.7037385"><ele>965.0</ele><time>2026-05-02T11:36:10.926Z</time></trkpt><trkpt lat="42.0848696" lon="13.7037954"><ele>965.1666666666667</ele><time>2026-05-02T11:36:11.926Z</time></trkpt><trkpt lat="42.0848112" lon="13.7038576"><ele>965.3333333333334</ele><time>2026-05-02T11:36:12.926Z</time></trkpt><trkpt lat="42.0847482" lon="13.7039208"><ele>965.5</ele><time>2026-05-02T11:36:13.928Z</time></trkpt><trkpt lat="42.084685" lon="13.7039776"><ele>965.6666666666667</ele><time>2026-05-02T11:36:14.927Z</time></trkpt><trkpt lat="42.0846135" lon="13.7040515"><ele>965.8333333333334</ele><time>2026-05-02T11:36:15.927Z</time></trkpt><trkpt lat="42.0845427" lon="13.704134"><ele>966.0</ele><time>2026-05-02T11:36:16.925Z</time></trkpt><trkpt lat="42.0844572" lon="13.7042325"><ele>966.0</ele><time>2026-05-02T11:36:17.925Z</time></trkpt><trkpt lat="42.0843624" lon="13.7043329"><ele>966.0</ele><time>2026-05-02T11:36:18.926Z</time></trkpt><trkpt lat="42.0842655" lon="13.7044387"><ele>966.0</ele><time>2026-05-02T11:36:19.926Z</time></trkpt><trkpt lat="42.0841635" lon="13.7045488"><ele>966.0</ele><time>2026-05-02T11:36:20.925Z</time></trkpt><trkpt lat="42.0840705" lon="13.704663"><ele>966.5</ele><time>2026-05-02T11:36:21.926Z</time></trkpt><trkpt lat="42.0839811" lon="13.7047808"><ele>967.0</ele><time>2026-05-02T11:36:22.927Z</time></trkpt><trkpt lat="42.083887" lon="13.7048955"><ele>967.5</ele><time>2026-05-02T11:36:23.926Z</time></trkpt><trkpt lat="42.0837944" lon="13.7049901"><ele>968.0</ele><time>2026-05-02T11:36:24.926Z</time></trkpt><trkpt lat="42.0836959" lon="13.7050797"><ele>968.0</ele><time>2026-05-02T11:36:25.926Z</time></trkpt><trkpt lat="42.0836036" lon="13.7051591"><ele>968.0</ele><time>2026-05-02T11:36:26.926Z</time></trkpt><trkpt lat="42.0835179" lon="13.7052391"><ele>968.0</ele><time>2026-05-02T11:36:27.926Z</time></trkpt><trkpt lat="42.0834429" lon="13.7053178"><ele>968.0</ele><time>2026-05-02T11:36:28.927Z</time></trkpt><trkpt lat="42.0833737" lon="13.705398"><ele>968.0</ele><time>2026-05-02T11:36:29.927Z</time></trkpt><trkpt lat="42.0833086" lon="13.7054815"><ele>971.3333333333334</ele><time>2026-05-02T11:36:30.925Z</time></trkpt><trkpt lat="42.0832521" lon="13.7055732"><ele>974.6666666666667</ele><time>2026-05-02T11:36:31.926Z</time></trkpt><trkpt lat="42.0832079" lon="13.705658"><ele>978.0</ele><time>2026-05-02T11:36:32.926Z</time></trkpt><trkpt lat="42.0831678" lon="13.7057309"><ele>981.3333333333333</ele><time>2026-05-02T11:36:33.927Z</time></trkpt><trkpt lat="42.0831282" lon="13.7057984"><ele>984.6666666666666</ele><time>2026-05-02T11:36:34.927Z</time></trkpt><trkpt lat="42.0830505" lon="13.7059451"><ele>988.0</ele><time>2026-05-02T11:36:36.927Z</time></trkpt><trkpt lat="42.0830033" lon="13.7060279"><ele>984.2</ele><time>2026-05-02T11:36:37.926Z</time></trkpt><trkpt lat="42.0829589" lon="13.7061031"><ele>980.4</ele><time>2026-05-02T11:36:38.926Z</time></trkpt><trkpt lat="42.0829014" lon="13.7062061"><ele>976.6000000000001</ele><time>2026-05-02T11:36:40.926Z</time></trkpt><trkpt lat="42.0828126" lon="13.7063325"><ele>972.8000000000001</ele><time>2026-05-02T11:36:42.926Z</time></trkpt><trkpt lat="42.0827494" lon="13.7064075"><ele>969.0</ele><time>2026-05-02T11:36:43.926Z</time></trkpt><trkpt lat="42.082683" lon="13.7065011"><ele>969.0</ele><time>2026-05-02T11:36:44.927Z</time></trkpt><trkpt lat="42.0826226" lon="13.7066037"><ele>969.0000000000001</ele><time>2026-05-02T11:36:45.926Z</time></trkpt><trkpt lat="42.0825571" lon="13.7067136"><ele>969.0000000000001</ele><time>2026-05-02T11:36:46.926Z</time></trkpt><trkpt lat="42.0824852" lon="13.7068235"><ele>969.0</ele><time>2026-05-02T11:36:47.927Z</time></trkpt><trkpt lat="42.0824071" lon="13.7069402"><ele>969.0</ele><time>2026-05-02T11:36:48.926Z</time></trkpt><trkpt lat="42.0823376" lon="13.7070598"><ele>973.25</ele><time>2026-05-02T11:36:49.925Z</time></trkpt><trkpt lat="42.0822613" lon="13.7071887"><ele>977.5</ele><time>2026-05-02T11:36:50.928Z</time></trkpt><trkpt lat="42.0821744" lon="13.7073302"><ele>981.75</ele><time>2026-05-02T11:36:51.928Z</time></trkpt><trkpt lat="42.082081" lon="13.7074722"><ele>986.0</ele><time>2026-05-02T11:36:52.927Z</time></trkpt><trkpt lat="42.0819754" lon="13.7076235"><ele>975.6666666666667</ele><time>2026-05-02T11:36:53.927Z</time></trkpt><trkpt lat="42.081863" lon="13.7077849"><ele>965.3333333333333</ele><time>2026-05-02T11:36:54.927Z</time></trkpt><trkpt lat="42.0817557" lon="13.707939"><ele>955.0</ele><time>2026-05-02T11:36:55.927Z</time></trkpt><trkpt lat="42.0816528" lon="13.7080812"><ele>966.6666666666666</ele><time>2026-05-02T11:36:56.928Z</time></trkpt><trkpt lat="42.0815444" lon="13.708213"><ele>978.3333333333333</ele><time>2026-05-02T11:36:57.927Z</time></trkpt><trkpt lat="42.0814235" lon="13.7083359"><ele>990.0</ele><time>2026-05-02T11:36:58.927Z</time></trkpt><trkpt lat="42.081286" lon="13.7084366"><ele>990.0</ele><time>2026-05-02T11:36:59.927Z</time></trkpt><trkpt lat="42.0811429" lon="13.7085272"><ele>990.0</ele><time>2026-05-02T11:37:00.927Z</time></trkpt><trkpt lat="42.0809894" lon="13.7086165"><ele>990.0</ele><time>2026-05-02T11:37:01.927Z</time></trkpt><trkpt lat="42.0808356" lon="13.7087085"><ele>985.6666666666667</ele><time>2026-05-02T11:37:02.926Z</time></trkpt><trkpt lat="42.0806852" lon="13.7088001"><ele>981.3333333333334</ele><time>2026-05-02T11:37:03.926Z</time></trkpt><trkpt lat="42.0805371" lon="13.7088867"><ele>977.0</ele><time>2026-05-02T11:37:04.926Z</time></trkpt><trkpt lat="42.0803894" lon="13.708967"><ele>977.0</ele><time>2026-05-02T11:37:05.925Z</time></trkpt><trkpt lat="42.0802404" lon="13.7090525"><ele>977.0</ele><time>2026-05-02T11:37:06.927Z</time></trkpt><trkpt lat="42.0800929" lon="13.7091407"><ele>977.0</ele><time>2026-05-02T11:37:07.927Z</time></trkpt><trkpt lat="42.0799497" lon="13.7092312"><ele>979.3333333333334</ele><time>2026-05-02T11:37:08.927Z</time></trkpt><trkpt lat="42.0798036" lon="13.7093197"><ele>981.6666666666667</ele><time>2026-05-02T11:37:09.927Z</time></trkpt><trkpt lat="42.0796628" lon="13.709402"><ele>984.0</ele><time>2026-05-02T11:37:10.926Z</time></trkpt><trkpt lat="42.0795271" lon="13.7094653"><ele>978.5</ele><time>2026-05-02T11:37:11.926Z</time></trkpt><trkpt lat="42.0794005" lon="13.7094846"><ele>973.0</ele><time>2026-05-02T11:37:12.928Z</time></trkpt><trkpt lat="42.0792776" lon="13.7094684"><ele>967.5</ele><time>2026-05-02T11:37:13.926Z</time></trkpt><trkpt lat="42.079167" lon="13.7094235"><ele>962.0</ele><time>2026-05-02T11:37:14.927Z</time></trkpt><trkpt lat="42.0790702" lon="13.7093377"><ele>961.0</ele><time>2026-05-02T11:37:15.926Z</time></trkpt><trkpt lat="42.0789892" lon="13.7092175"><ele>960.0</ele><time>2026-05-02T11:37:16.927Z</time></trkpt><trkpt lat="42.0789213" lon="13.7090699"><ele>959.0</ele><time>2026-05-02T11:37:17.926Z</time></trkpt><trkpt lat="42.0788526" lon="13.7089074"><ele>958.0</ele><time>2026-05-02T11:37:18.927Z</time></trkpt><trkpt lat="42.0787831" lon="13.7087249"><ele>963.6666666666666</ele><time>2026-05-02T11:37:19.928Z</time></trkpt><trkpt lat="42.0787159" lon="13.7085195"><ele>969.3333333333333</ele><time>2026-05-02T11:37:20.925Z</time></trkpt><trkpt lat="42.0786598" lon="13.7083008"><ele>975.0</ele><time>2026-05-02T11:37:21.925Z</time></trkpt><trkpt lat="42.0786155" lon="13.7080785"><ele>975.0</ele><time>2026-05-02T11:37:22.927Z</time></trkpt><trkpt lat="42.0785763" lon="13.7078612"><ele>975.0</ele><time>2026-05-02T11:37:23.927Z</time></trkpt><trkpt lat="42.0785435" lon="13.7076593"><ele>975.0</ele><time>2026-05-02T11:37:24.928Z</time></trkpt><trkpt lat="42.0785098" lon="13.7074683"><ele>978.5</ele><time>2026-05-02T11:37:25.926Z</time></trkpt><trkpt lat="42.0784789" lon="13.7072799"><ele>982.0</ele><time>2026-05-02T11:37:26.926Z</time></trkpt><trkpt lat="42.0784533" lon="13.7071115"><ele>985.5</ele><time>2026-05-02T11:37:27.927Z</time></trkpt><trkpt lat="42.0784179" lon="13.7069642"><ele>989.0</ele><time>2026-05-02T11:37:28.926Z</time></trkpt><trkpt lat="42.0783538" lon="13.7068546"><ele>991.4000000000001</ele><time>2026-05-02T11:37:29.926Z</time></trkpt><trkpt lat="42.0782772" lon="13.7067864"><ele>993.8000000000001</ele><time>2026-05-02T11:37:30.926Z</time></trkpt><trkpt lat="42.078189" lon="13.7067605"><ele>996.1999999999999</ele><time>2026-05-02T11:37:31.927Z</time></trkpt><trkpt lat="42.0781043" lon="13.7068036"><ele>998.5999999999999</ele><time>2026-05-02T11:37:32.926Z</time></trkpt><trkpt lat="42.0780235" lon="13.7069083"><ele>1001.0</ele><time>2026-05-02T11:37:33.927Z</time></trkpt><trkpt lat="42.0779381" lon="13.7070277"><ele>1001.0</ele><time>2026-05-02T11:37:34.927Z</time></trkpt><trkpt lat="42.0778593" lon="13.7071682"><ele>1001.0</ele><time>2026-05-02T11:37:35.926Z</time></trkpt><trkpt lat="42.0777744" lon="13.7073019"><ele>1001.0</ele><time>2026-05-02T11:37:36.925Z</time></trkpt><trkpt lat="42.0776899" lon="13.7074467"><ele>1001.0</ele><time>2026-05-02T11:37:37.927Z</time></trkpt><trkpt lat="42.0776042" lon="13.7075891"><ele>1001.0</ele><time>2026-05-02T11:37:38.927Z</time></trkpt><trkpt lat="42.0775197" lon="13.7077269"><ele>1001.0</ele><time>2026-05-02T11:37:39.928Z</time></trkpt><trkpt lat="42.0774389" lon="13.7078298"><ele>1001.0</ele><time>2026-05-02T11:37:40.927Z</time></trkpt><trkpt lat="42.0773468" lon="13.7079135"><ele>1001.0</ele><time>2026-05-02T11:37:41.926Z</time></trkpt><trkpt lat="42.0772492" lon="13.7079578"><ele>995.75</ele><time>2026-05-02T11:37:42.927Z</time></trkpt><trkpt lat="42.0771374" lon="13.7079603"><ele>990.5</ele><time>2026-05-02T11:37:43.926Z</time></trkpt><trkpt lat="42.0770141" lon="13.7079309"><ele>985.25</ele><time>2026-05-02T11:37:44.927Z</time></trkpt><trkpt lat="42.0768813" lon="13.7078895"><ele>980.0</ele><time>2026-05-02T11:37:45.927Z</time></trkpt><trkpt lat="42.0767392" lon="13.7078446"><ele>977.6666666666667</ele><time>2026-05-02T11:37:46.926Z</time></trkpt><trkpt lat="42.0765931" lon="13.7077969"><ele>975.3333333333333</ele><time>2026-05-02T11:37:47.926Z</time></trkpt><trkpt lat="42.0764452" lon="13.7077489"><ele>973.0</ele><time>2026-05-02T11:37:48.927Z</time></trkpt><trkpt lat="42.0762896" lon="13.7076983"><ele>985.0</ele><time>2026-05-02T11:37:49.927Z</time></trkpt><trkpt lat="42.0761354" lon="13.707649"><ele>997.0</ele><time>2026-05-02T11:37:50.926Z</time></trkpt><trkpt lat="42.0759852" lon="13.7076039"><ele>1009.0</ele><time>2026-05-02T11:37:51.926Z</time></trkpt><trkpt lat="42.0758412" lon="13.7075637"><ele>1004.6666666666666</ele><time>2026-05-02T11:37:52.926Z</time></trkpt><trkpt lat="42.0756973" lon="13.7075097"><ele>1000.3333333333333</ele><time>2026-05-02T11:37:53.926Z</time></trkpt><trkpt lat="42.075557" lon="13.7074328"><ele>996.0</ele><time>2026-05-02T11:37:54.927Z</time></trkpt><trkpt lat="42.0754294" lon="13.7073291"><ele>996.0</ele><time>2026-05-02T11:37:55.926Z</time></trkpt><trkpt lat="42.0752982" lon="13.7072215"><ele>996.0</ele><time>2026-05-02T11:37:56.927Z</time></trkpt><trkpt lat="42.0751697" lon="13.707116"><ele>996.0</ele><time>2026-05-02T11:37:57.927Z</time></trkpt><trkpt lat="42.0750406" lon="13.7070057"><ele>998.3333333333333</ele><time>2026-05-02T11:37:58.925Z</time></trkpt><trkpt lat="42.0749171" lon="13.7068886"><ele>1000.6666666666666</ele><time>2026-05-02T11:37:59.926Z</time></trkpt><trkpt lat="42.0747983" lon="13.706763"><ele>1003.0</ele><time>2026-05-02T11:38:00.927Z</time></trkpt><trkpt lat="42.0746806" lon="13.7066361"><ele>1003.0</ele><time>2026-05-02T11:38:01.927Z</time></trkpt><trkpt lat="42.0745649" lon="13.7064902"><ele>1003.0</ele><time>2026-05-02T11:38:02.926Z</time></trkpt><trkpt lat="42.0744466" lon="13.706337"><ele>1003.0</ele><time>2026-05-02T11:38:03.926Z</time></trkpt><trkpt lat="42.0743294" lon="13.7061803"><ele>1006.6666666666666</ele><time>2026-05-02T11:38:04.927Z</time></trkpt><trkpt lat="42.0742178" lon="13.7060253"><ele>1010.3333333333333</ele><time>2026-05-02T11:38:05.927Z</time></trkpt><trkpt lat="42.0741034" lon="13.7058715"><ele>1014.0</ele><time>2026-05-02T11:38:06.927Z</time></trkpt><trkpt lat="42.0739903" lon="13.705709"><ele>1014.0</ele><time>2026-05-02T11:38:07.925Z</time></trkpt><trkpt lat="42.0738865" lon="13.7055455"><ele>1014.0</ele><time>2026-05-02T11:38:08.926Z</time></trkpt><trkpt lat="42.0737755" lon="13.7053901"><ele>1014.0</ele><time>2026-05-02T11:38:09.926Z</time></trkpt><trkpt lat="42.0736656" lon="13.705273"><ele>1018.0</ele><time>2026-05-02T11:38:10.927Z</time></trkpt><trkpt lat="42.0735494" lon="13.7052035"><ele>1022.0</ele><time>2026-05-02T11:38:11.926Z</time></trkpt><trkpt lat="42.0734193" lon="13.7051781"><ele>1026.0</ele><time>2026-05-02T11:38:12.928Z</time></trkpt><trkpt lat="42.073277" lon="13.7051888"><ele>1030.0</ele><time>2026-05-02T11:38:13.927Z</time></trkpt><trkpt lat="42.0731277" lon="13.7052054"><ele>1031.3333333333333</ele><time>2026-05-02T11:38:14.926Z</time></trkpt><trkpt lat="42.0729716" lon="13.7052247"><ele>1032.6666666666667</ele><time>2026-05-02T11:38:15.927Z</time></trkpt><trkpt lat="42.072804" lon="13.7052426"><ele>1034.0</ele><time>2026-05-02T11:38:16.927Z</time></trkpt><trkpt lat="42.0726363" lon="13.7052589"><ele>1031.0</ele><time>2026-05-02T11:38:17.926Z</time></trkpt><trkpt lat="42.0724725" lon="13.7052707"><ele>1028.0</ele><time>2026-05-02T11:38:18.927Z</time></trkpt><trkpt lat="42.07231" lon="13.7052821"><ele>1025.0</ele><time>2026-05-02T11:38:19.926Z</time></trkpt><trkpt lat="42.0721516" lon="13.705295"><ele>1025.0</ele><time>2026-05-02T11:38:20.926Z</time></trkpt><trkpt lat="42.071996" lon="13.7053115"><ele>1025.0</ele><time>2026-05-02T11:38:21.927Z</time></trkpt><trkpt lat="42.0718459" lon="13.7053578"><ele>1025.0</ele><time>2026-05-02T11:38:22.926Z</time></trkpt><trkpt lat="42.0717049" lon="13.7054343"><ele>1029.0</ele><time>2026-05-02T11:38:23.926Z</time></trkpt><trkpt lat="42.0715823" lon="13.7055418"><ele>1033.0</ele><time>2026-05-02T11:38:24.926Z</time></trkpt><trkpt lat="42.0714732" lon="13.7056748"><ele>1037.0</ele><time>2026-05-02T11:38:25.926Z</time></trkpt><trkpt lat="42.07138" lon="13.7058257"><ele>1041.0</ele><time>2026-05-02T11:38:26.926Z</time></trkpt><trkpt lat="42.0712857" lon="13.7059701"><ele>1037.75</ele><time>2026-05-02T11:38:27.928Z</time></trkpt><trkpt lat="42.0711752" lon="13.7060962"><ele>1034.5</ele><time>2026-05-02T11:38:28.926Z</time></trkpt><trkpt lat="42.0710453" lon="13.7061909"><ele>1031.25</ele><time>2026-05-02T11:38:29.926Z</time></trkpt><trkpt lat="42.0709036" lon="13.7062513"><ele>1028.0</ele><time>2026-05-02T11:38:30.927Z</time></trkpt><trkpt lat="42.0707554" lon="13.7062889"><ele>1028.0</ele><time>2026-05-02T11:38:31.925Z</time></trkpt><trkpt lat="42.0706184" lon="13.7063052"><ele>1028.0</ele><time>2026-05-02T11:38:32.927Z</time></trkpt><trkpt lat="42.0704917" lon="13.7063132"><ele>1028.0</ele><time>2026-05-02T11:38:33.926Z</time></trkpt><trkpt lat="42.070379" lon="13.7063078"><ele>1028.0</ele><time>2026-05-02T11:38:34.925Z</time></trkpt><trkpt lat="42.0702911" lon="13.7062702"><ele>1028.0</ele><time>2026-05-02T11:38:35.926Z</time></trkpt><trkpt lat="42.0702234" lon="13.7062099"><ele>1028.0</ele><time>2026-05-02T11:38:36.927Z</time></trkpt><trkpt lat="42.0701827" lon="13.7061336"><ele>1028.0</ele><time>2026-05-02T11:38:37.925Z</time></trkpt><trkpt lat="42.0701633" lon="13.7060462"><ele>1028.0</ele><time>2026-05-02T11:38:38.926Z</time></trkpt><trkpt lat="42.0701853" lon="13.7059482"><ele>1028.0</ele><time>2026-05-02T11:38:39.926Z</time></trkpt><trkpt lat="42.0702738" lon="13.7058931"><ele>1028.0</ele><time>2026-05-02T11:38:40.928Z</time></trkpt><trkpt lat="42.0703595" lon="13.705858"><ele>1031.25</ele><time>2026-05-02T11:38:41.926Z</time></trkpt><trkpt lat="42.0704603" lon="13.7058499"><ele>1034.5</ele><time>2026-05-02T11:38:42.926Z</time></trkpt><trkpt lat="42.0705838" lon="13.7058587"><ele>1037.75</ele><time>2026-05-02T11:38:43.927Z</time></trkpt><trkpt lat="42.0707114" lon="13.7058629"><ele>1041.0</ele><time>2026-05-02T11:38:44.926Z</time></trkpt><trkpt lat="42.070841" lon="13.7058586"><ele>1041.0</ele><time>2026-05-02T11:38:45.927Z</time></trkpt><trkpt lat="42.0709698" lon="13.7058176"><ele>1041.0</ele><time>2026-05-02T11:38:46.926Z</time></trkpt><trkpt lat="42.0710842" lon="13.7057266"><ele>1041.0</ele><time>2026-05-02T11:38:47.927Z</time></trkpt><trkpt lat="42.0711851" lon="13.7055936"><ele>1041.0</ele><time>2026-05-02T11:38:48.927Z</time></trkpt><trkpt lat="42.0712831" lon="13.7054561"><ele>1041.0</ele><time>2026-05-02T11:38:49.926Z</time></trkpt><trkpt lat="42.0713911" lon="13.7052955"><ele>1041.0</ele><time>2026-05-02T11:38:50.927Z</time></trkpt><trkpt lat="42.071504" lon="13.7051445"><ele>1041.0</ele><time>2026-05-02T11:38:51.926Z</time></trkpt><trkpt lat="42.0716491" lon="13.7050163"><ele>1042.6666666666667</ele><time>2026-05-02T11:38:52.926Z</time></trkpt><trkpt lat="42.0717914" lon="13.7048883"><ele>1044.3333333333335</ele><time>2026-05-02T11:38:53.927Z</time></trkpt><trkpt lat="42.0719313" lon="13.7047571"><ele>1046.0</ele><time>2026-05-02T11:38:54.926Z</time></trkpt><trkpt lat="42.0720713" lon="13.7046266"><ele>1046.0</ele><time>2026-05-02T11:38:55.927Z</time></trkpt><trkpt lat="42.0722043" lon="13.7044922"><ele>1046.0</ele><time>2026-05-02T11:38:56.925Z</time></trkpt><trkpt lat="42.0723294" lon="13.7043371"><ele>1046.0</ele><time>2026-05-02T11:38:57.927Z</time></trkpt><trkpt lat="42.0724369" lon="13.7041669"><ele>1047.5</ele><time>2026-05-02T11:38:58.927Z</time></trkpt><trkpt lat="42.0725284" lon="13.7040025"><ele>1049.0</ele><time>2026-05-02T11:38:59.928Z</time></trkpt><trkpt lat="42.0726198" lon="13.7038472"><ele>1050.5</ele><time>2026-05-02T11:39:00.926Z</time></trkpt><trkpt lat="42.072677" lon="13.703719"><ele>1052.0</ele><time>2026-05-02T11:39:01.927Z</time></trkpt><trkpt lat="42.0727118" lon="13.7035896"><ele>1054.3333333333335</ele><time>2026-05-02T11:39:02.927Z</time></trkpt><trkpt lat="42.0727047" lon="13.7034703"><ele>1056.6666666666667</ele><time>2026-05-02T11:39:03.927Z</time></trkpt><trkpt lat="42.0726627" lon="13.7033855"><ele>1059.0</ele><time>2026-05-02T11:39:04.927Z</time></trkpt><trkpt lat="42.0726011" lon="13.703322"><ele>1061.3333333333333</ele><time>2026-05-02T11:39:05.926Z</time></trkpt><trkpt lat="42.0725083" lon="13.7033682"><ele>1063.6666666666665</ele><time>2026-05-02T11:39:06.926Z</time></trkpt><trkpt lat="42.0724169" lon="13.7034359"><ele>1066.0</ele><time>2026-05-02T11:39:07.926Z</time></trkpt><trkpt lat="42.0723294" lon="13.7035603"><ele>1065.5</ele><time>2026-05-02T11:39:08.926Z</time></trkpt><trkpt lat="42.0722325" lon="13.7036902"><ele>1065.0</ele><time>2026-05-02T11:39:09.927Z</time></trkpt><trkpt lat="42.0721301" lon="13.7038222"><ele>1064.5</ele><time>2026-05-02T11:39:10.926Z</time></trkpt><trkpt lat="42.0720229" lon="13.7039552"><ele>1064.0</ele><time>2026-05-02T11:39:11.925Z</time></trkpt><trkpt lat="42.0719046" lon="13.7040861"><ele>1064.0</ele><time>2026-05-02T11:39:12.926Z</time></trkpt><trkpt lat="42.0717786" lon="13.7042144"><ele>1064.0</ele><time>2026-05-02T11:39:13.927Z</time></trkpt><trkpt lat="42.0716382" lon="13.7043087"><ele>1064.0</ele><time>2026-05-02T11:39:14.927Z</time></trkpt><trkpt lat="42.0714901" lon="13.7043594"><ele>1067.3333333333335</ele><time>2026-05-02T11:39:15.927Z</time></trkpt><trkpt lat="42.0713317" lon="13.7043759"><ele>1070.6666666666667</ele><time>2026-05-02T11:39:16.928Z</time></trkpt><trkpt lat="42.0711718" lon="13.7043701"><ele>1074.0</ele><time>2026-05-02T11:39:17.926Z</time></trkpt><trkpt lat="42.0710089" lon="13.7043519"><ele>1074.0</ele><time>2026-05-02T11:39:18.926Z</time></trkpt><trkpt lat="42.0708472" lon="13.7043319"><ele>1074.0</ele><time>2026-05-02T11:39:19.927Z</time></trkpt><trkpt lat="42.0706858" lon="13.7043245"><ele>1074.0</ele><time>2026-05-02T11:39:20.927Z</time></trkpt><trkpt lat="42.0705249" lon="13.7043284"><ele>1072.3333333333333</ele><time>2026-05-02T11:39:21.927Z</time></trkpt><trkpt lat="42.0703698" lon="13.7043675"><ele>1070.6666666666665</ele><time>2026-05-02T11:39:22.926Z</time></trkpt><trkpt lat="42.070222" lon="13.7044415"><ele>1069.0</ele><time>2026-05-02T11:39:23.928Z</time></trkpt><trkpt lat="42.0700888" lon="13.7045509"><ele>1069.0</ele><time>2026-05-02T11:39:24.925Z</time></trkpt><trkpt lat="42.0699639" lon="13.7046878"><ele>1069.0</ele><time>2026-05-02T11:39:25.926Z</time></trkpt><trkpt lat="42.0698428" lon="13.7048419"><ele>1069.0</ele><time>2026-05-02T11:39:26.925Z</time></trkpt><trkpt lat="42.0697206" lon="13.704998"><ele>1069.6666666666665</ele><time>2026-05-02T11:39:27.927Z</time></trkpt><trkpt lat="42.0695984" lon="13.7051424"><ele>1070.3333333333333</ele><time>2026-05-02T11:39:28.926Z</time></trkpt><trkpt lat="42.0694734" lon="13.7052668"><ele>1071.0</ele><time>2026-05-02T11:39:29.926Z</time></trkpt><trkpt lat="42.0693438" lon="13.7053755"><ele>1071.0</ele><time>2026-05-02T11:39:30.926Z</time></trkpt><trkpt lat="42.0692132" lon="13.7054753"><ele>1071.0</ele><time>2026-05-02T11:39:31.927Z</time></trkpt><trkpt lat="42.0690848" lon="13.7055626"><ele>1071.0</ele><time>2026-05-02T11:39:32.927Z</time></trkpt><trkpt lat="42.0689529" lon="13.7056415"><ele>1071.0</ele><time>2026-05-02T11:39:33.925Z</time></trkpt><trkpt lat="42.068812" lon="13.7057104"><ele>1077.0</ele><time>2026-05-02T11:39:34.926Z</time></trkpt><trkpt lat="42.0686668" lon="13.7057698"><ele>1083.0</ele><time>2026-05-02T11:39:35.926Z</time></trkpt><trkpt lat="42.0685189" lon="13.7058195"><ele>1089.0</ele><time>2026-05-02T11:39:36.927Z</time></trkpt><trkpt lat="42.0683677" lon="13.7058585"><ele>1093.6666666666667</ele><time>2026-05-02T11:39:37.926Z</time></trkpt><trkpt lat="42.0682169" lon="13.7058931"><ele>1098.3333333333335</ele><time>2026-05-02T11:39:38.925Z</time></trkpt><trkpt lat="42.0680642" lon="13.7059302"><ele>1103.0</ele><time>2026-05-02T11:39:39.925Z</time></trkpt><trkpt lat="42.067912" lon="13.7059667"><ele>1103.0</ele><time>2026-05-02T11:39:40.926Z</time></trkpt><trkpt lat="42.0677572" lon="13.7059985"><ele>1103.0</ele><time>2026-05-02T11:39:41.926Z</time></trkpt><trkpt lat="42.0676002" lon="13.7060219"><ele>1103.0</ele><time>2026-05-02T11:39:42.926Z</time></trkpt><trkpt lat="42.067443" lon="13.7060372"><ele>1105.0</ele><time>2026-05-02T11:39:43.925Z</time></trkpt><trkpt lat="42.0672819" lon="13.7060449"><ele>1107.0</ele><time>2026-05-02T11:39:44.926Z</time></trkpt><trkpt lat="42.0671259" lon="13.7060502"><ele>1109.0</ele><time>2026-05-02T11:39:45.926Z</time></trkpt><trkpt lat="42.0669666" lon="13.7060517"><ele>1109.0</ele><time>2026-05-02T11:39:46.926Z</time></trkpt><trkpt lat="42.0668059" lon="13.7060528"><ele>1109.0</ele><time>2026-05-02T11:39:47.927Z</time></trkpt><trkpt lat="42.0666458" lon="13.7060581"><ele>1109.0</ele><time>2026-05-02T11:39:48.926Z</time></trkpt><trkpt lat="42.0664855" lon="13.706066"><ele>1100.3333333333335</ele><time>2026-05-02T11:39:49.927Z</time></trkpt><trkpt lat="42.0663347" lon="13.7060982"><ele>1091.6666666666667</ele><time>2026-05-02T11:39:50.926Z</time></trkpt><trkpt lat="42.06618" lon="13.7061367"><ele>1083.0</ele><time>2026-05-02T11:39:51.927Z</time></trkpt><trkpt lat="42.0660278" lon="13.706182"><ele>1083.0</ele><time>2026-05-02T11:39:52.926Z</time></trkpt><trkpt lat="42.0658761" lon="13.7062149"><ele>1083.0</ele><time>2026-05-02T11:39:53.927Z</time></trkpt><trkpt lat="42.06572" lon="13.7062162"><ele>1083.0</ele><time>2026-05-02T11:39:54.927Z</time></trkpt><trkpt lat="42.0655655" lon="13.7062071"><ele>1086.6666666666667</ele><time>2026-05-02T11:39:55.925Z</time></trkpt><trkpt lat="42.0654133" lon="13.7061867"><ele>1090.3333333333335</ele><time>2026-05-02T11:39:56.927Z</time></trkpt><trkpt lat="42.0652621" lon="13.7061647"><ele>1094.0</ele><time>2026-05-02T11:39:57.925Z</time></trkpt><trkpt lat="42.0651095" lon="13.7061442"><ele>1094.0</ele><time>2026-05-02T11:39:58.926Z</time></trkpt><trkpt lat="42.0649575" lon="13.7061266"><ele>1094.0</ele><time>2026-05-02T11:39:59.926Z</time></trkpt><trkpt lat="42.0648066" lon="13.7061089"><ele>1094.0</ele><time>2026-05-02T11:40:00.925Z</time></trkpt><trkpt lat="42.0646595" lon="13.7061008"><ele>1098.25</ele><time>2026-05-02T11:40:01.926Z</time></trkpt><trkpt lat="42.0645186" lon="13.7060958"><ele>1102.5</ele><time>2026-05-02T11:40:02.925Z</time></trkpt><trkpt lat="42.0643851" lon="13.7060872"><ele>1106.75</ele><time>2026-05-02T11:40:03.926Z</time></trkpt><trkpt lat="42.0642613" lon="13.7060671"><ele>1111.0</ele><time>2026-05-02T11:40:04.926Z</time></trkpt><trkpt lat="42.0641651" lon="13.7060366"><ele>1111.1666666666665</ele><time>2026-05-02T11:40:05.927Z</time></trkpt><trkpt lat="42.0640856" lon="13.7059892"><ele>1111.3333333333333</ele><time>2026-05-02T11:40:06.926Z</time></trkpt><trkpt lat="42.0640177" lon="13.7059218"><ele>1111.5</ele><time>2026-05-02T11:40:07.926Z</time></trkpt><trkpt lat="42.0639545" lon="13.7058418"><ele>1111.6666666666667</ele><time>2026-05-02T11:40:08.926Z</time></trkpt><trkpt lat="42.0639077" lon="13.7057761"><ele>1111.8333333333335</ele><time>2026-05-02T11:40:09.927Z</time></trkpt><trkpt lat="42.0638635" lon="13.705711"><ele>1112.0</ele><time>2026-05-02T11:40:10.928Z</time></trkpt><trkpt lat="42.0638135" lon="13.7056422"><ele>1112.0</ele><time>2026-05-02T11:40:11.927Z</time></trkpt><trkpt lat="42.063759" lon="13.705564"><ele>1112.0</ele><time>2026-05-02T11:40:12.925Z</time></trkpt><trkpt lat="42.0637045" lon="13.7054831"><ele>1112.0</ele><time>2026-05-02T11:40:13.925Z</time></trkpt><trkpt lat="42.0636513" lon="13.7053981"><ele>1112.0</ele><time>2026-05-02T11:40:14.926Z</time></trkpt><trkpt lat="42.0636029" lon="13.7053159"><ele>1112.0</ele><time>2026-05-02T11:40:15.927Z</time></trkpt><trkpt lat="42.0635505" lon="13.7052355"><ele>1112.0</ele><time>2026-05-02T11:40:16.926Z</time></trkpt><trkpt lat="42.063503" lon="13.705154"><ele>1110.6</ele><time>2026-05-02T11:40:17.926Z</time></trkpt><trkpt lat="42.0634535" lon="13.7050609"><ele>1109.2</ele><time>2026-05-02T11:40:18.927Z</time></trkpt><trkpt lat="42.063396" lon="13.7049573"><ele>1107.8</ele><time>2026-05-02T11:40:19.926Z</time></trkpt><trkpt lat="42.0633354" lon="13.7048463"><ele>1106.4</ele><time>2026-05-02T11:40:20.927Z</time></trkpt><trkpt lat="42.0632917" lon="13.7047485"><ele>1105.0</ele><time>2026-05-02T11:40:21.926Z</time></trkpt><trkpt lat="42.063258" lon="13.7046281"><ele>1105.0</ele><time>2026-05-02T11:40:23.926Z</time></trkpt><trkpt lat="42.0632584" lon="13.704765"><ele>1105.0</ele><time>2026-05-02T11:40:28.928Z</time></trkpt><trkpt lat="42.0633054" lon="13.7048418"><ele>1105.0</ele><time>2026-05-02T11:40:29.927Z</time></trkpt><trkpt lat="42.0633553" lon="13.7049408"><ele>1105.0</ele><time>2026-05-02T11:40:30.927Z</time></trkpt><trkpt lat="42.0634102" lon="13.7050454"><ele>1105.0</ele><time>2026-05-02T11:40:31.927Z</time></trkpt><trkpt lat="42.0634575" lon="13.705139"><ele>1105.0</ele><time>2026-05-02T11:40:32.926Z</time></trkpt><trkpt lat="42.0635011" lon="13.7052247"><ele>1106.1666666666665</ele><time>2026-05-02T11:40:33.925Z</time></trkpt><trkpt lat="42.0635441" lon="13.7052989"><ele>1107.3333333333333</ele><time>2026-05-02T11:40:34.926Z</time></trkpt><trkpt lat="42.0635825" lon="13.7053722"><ele>1108.5</ele><time>2026-05-02T11:40:35.926Z</time></trkpt><trkpt lat="42.0636332" lon="13.7054583"><ele>1109.6666666666667</ele><time>2026-05-02T11:40:36.927Z</time></trkpt><trkpt lat="42.0636961" lon="13.7055488"><ele>1110.8333333333335</ele><time>2026-05-02T11:40:37.926Z</time></trkpt><trkpt lat="42.0637486" lon="13.7056236"><ele>1112.0</ele><time>2026-05-02T11:40:38.926Z</time></trkpt><trkpt lat="42.0638165" lon="13.705733"><ele>1112.0</ele><time>2026-05-02T11:40:40.927Z</time></trkpt><trkpt lat="42.0637735" lon="13.7057953"><ele>1112.0</ele><time>2026-05-02T11:40:45.926Z</time></trkpt><trkpt lat="42.0637172" lon="13.7057499"><ele>1112.0</ele><time>2026-05-02T11:41:26.926Z</time></trkpt><trkpt lat="42.0636401" lon="13.7057073"><ele>1112.0</ele><time>2026-05-02T11:41:28.926Z</time></trkpt><trkpt lat="42.0635505" lon="13.7056092"><ele>1112.0</ele><time>2026-05-02T11:41:30.927Z</time></trkpt><trkpt lat="42.0635016" lon="13.7055487"><ele>1112.0</ele><time>2026-05-02T11:41:31.927Z</time></trkpt><trkpt lat="42.0634471" lon="13.7054824"><ele>1112.0</ele><time>2026-05-02T11:41:32.928Z</time></trkpt><trkpt lat="42.0633917" lon="13.7054245"><ele>1112.0</ele><time>2026-05-02T11:41:33.925Z</time></trkpt><trkpt lat="42.0633302" lon="13.7053665"><ele>1112.0</ele><time>2026-05-02T11:41:34.927Z</time></trkpt><trkpt lat="42.0632796" lon="13.7053131"><ele>1112.0</ele><time>2026-05-02T11:41:35.926Z</time></trkpt><trkpt lat="42.0632263" lon="13.7052626"><ele>1112.0</ele><time>2026-05-02T11:41:36.927Z</time></trkpt><trkpt lat="42.063123" lon="13.7051688"><ele>1112.0</ele><time>2026-05-02T11:41:38.926Z</time></trkpt><trkpt lat="42.0630218" lon="13.7051052"><ele>1106.4</ele><time>2026-05-02T11:41:40.926Z</time></trkpt><trkpt lat="42.0629146" lon="13.7050286"><ele>1100.8000000000002</ele><time>2026-05-02T11:41:42.928Z</time></trkpt><trkpt lat="42.0627974" lon="13.7049678"><ele>1095.2</ele><time>2026-05-02T11:41:44.927Z</time></trkpt><trkpt lat="42.0627318" lon="13.7049571"><ele>1089.6000000000001</ele><time>2026-05-02T11:41:45.926Z</time></trkpt><trkpt lat="42.0626631" lon="13.7049499"><ele>1084.0</ele><time>2026-05-02T11:41:46.926Z</time></trkpt><trkpt lat="42.0625894" lon="13.7049382"><ele>1084.0</ele><time>2026-05-02T11:41:47.927Z</time></trkpt><trkpt lat="42.0625202" lon="13.7049296"><ele>1084.0</ele><time>2026-05-02T11:41:48.926Z</time></trkpt><trkpt lat="42.0624407" lon="13.7049192"><ele>1084.0</ele><time>2026-05-02T11:41:49.927Z</time></trkpt><trkpt lat="42.0623654" lon="13.7049193"><ele>1084.0</ele><time>2026-05-02T11:41:50.926Z</time></trkpt><trkpt lat="42.062287" lon="13.7049129"><ele>1084.0</ele><time>2026-05-02T11:41:51.927Z</time></trkpt><trkpt lat="42.0622125" lon="13.704908"><ele>1084.0</ele><time>2026-05-02T11:41:52.926Z</time></trkpt><trkpt lat="42.0621411" lon="13.7049087"><ele>1084.0</ele><time>2026-05-02T11:41:53.926Z</time></trkpt><trkpt lat="42.0620709" lon="13.7049017"><ele>1082.3333333333333</ele><time>2026-05-02T11:41:54.926Z</time></trkpt><trkpt lat="42.0619967" lon="13.7048899"><ele>1080.6666666666665</ele><time>2026-05-02T11:41:55.926Z</time></trkpt><trkpt lat="42.0619305" lon="13.7048795"><ele>1079.0</ele><time>2026-05-02T11:41:56.926Z</time></trkpt><trkpt lat="42.0618109" lon="13.7048323"><ele>1077.3333333333333</ele><time>2026-05-02T11:41:58.927Z</time></trkpt><trkpt lat="42.0617588" lon="13.7047831"><ele>1075.6666666666667</ele><time>2026-05-02T11:41:59.928Z</time></trkpt><trkpt lat="42.0617067" lon="13.7047239"><ele>1074.0</ele><time>2026-05-02T11:42:00.926Z</time></trkpt><trkpt lat="42.0616495" lon="13.7046517"><ele>1074.0</ele><time>2026-05-02T11:42:01.925Z</time></trkpt><trkpt lat="42.0615961" lon="13.7045753"><ele>1074.0</ele><time>2026-05-02T11:42:02.925Z</time></trkpt><trkpt lat="42.061542" lon="13.7044956"><ele>1074.0</ele><time>2026-05-02T11:42:03.926Z</time></trkpt><trkpt lat="42.061487" lon="13.7044039"><ele>1074.0</ele><time>2026-05-02T11:42:04.926Z</time></trkpt><trkpt lat="42.0614361" lon="13.7043203"><ele>1074.0</ele><time>2026-05-02T11:42:05.927Z</time></trkpt><trkpt lat="42.0613809" lon="13.7042273"><ele>1074.0</ele><time>2026-05-02T11:42:06.926Z</time></trkpt><trkpt lat="42.0613305" lon="13.7041396"><ele>1073.0</ele><time>2026-05-02T11:42:07.926Z</time></trkpt><trkpt lat="42.0612833" lon="13.7040665"><ele>1072.0</ele><time>2026-05-02T11:42:08.926Z</time></trkpt><trkpt lat="42.0612353" lon="13.7039908"><ele>1071.0</ele><time>2026-05-02T11:42:09.926Z</time></trkpt><trkpt lat="42.0611875" lon="13.7039106"><ele>1070.0</ele><time>2026-05-02T11:42:10.926Z</time></trkpt><trkpt lat="42.0611326" lon="13.7038294"><ele>1069.0</ele><time>2026-05-02T11:42:11.927Z</time></trkpt><trkpt lat="42.0610774" lon="13.703739"><ele>1068.0</ele><time>2026-05-02T11:42:12.926Z</time></trkpt><trkpt lat="42.0610189" lon="13.7036486"><ele>1068.5</ele><time>2026-05-02T11:42:13.925Z</time></trkpt><trkpt lat="42.060977" lon="13.7035584"><ele>1069.0</ele><time>2026-05-02T11:42:14.925Z</time></trkpt><trkpt lat="42.0609266" lon="13.7034696"><ele>1069.5</ele><time>2026-05-02T11:42:15.926Z</time></trkpt><trkpt lat="42.0608779" lon="13.703385"><ele>1070.0</ele><time>2026-05-02T11:42:16.926Z</time></trkpt><trkpt lat="42.0608307" lon="13.7032983"><ele>1070.5</ele><time>2026-05-02T11:42:17.926Z</time></trkpt><trkpt lat="42.0607895" lon="13.7032137"><ele>1071.0</ele><time>2026-05-02T11:42:18.927Z</time></trkpt><trkpt lat="42.0607385" lon="13.7031305"><ele>1071.0</ele><time>2026-05-02T11:42:19.926Z</time></trkpt><trkpt lat="42.060687" lon="13.7030449"><ele>1071.0</ele><time>2026-05-02T11:42:20.927Z</time></trkpt><trkpt lat="42.0606381" lon="13.7029642"><ele>1071.0</ele><time>2026-05-02T11:42:21.925Z</time></trkpt><trkpt lat="42.060587" lon="13.7028698"><ele>1071.0</ele><time>2026-05-02T11:42:22.927Z</time></trkpt><trkpt lat="42.0605386" lon="13.7027804"><ele>1071.0</ele><time>2026-05-02T11:42:23.926Z</time></trkpt><trkpt lat="42.0604917" lon="13.7026871"><ele>1071.0</ele><time>2026-05-02T11:42:24.926Z</time></trkpt><trkpt lat="42.0604478" lon="13.7025975"><ele>1070.0</ele><time>2026-05-02T11:42:25.927Z</time></trkpt><trkpt lat="42.0603993" lon="13.7025035"><ele>1069.0</ele><time>2026-05-02T11:42:26.926Z</time></trkpt><trkpt lat="42.06035" lon="13.7024129"><ele>1068.0</ele><time>2026-05-02T11:42:27.926Z</time></trkpt><trkpt lat="42.0602971" lon="13.702322"><ele>1067.0</ele><time>2026-05-02T11:42:28.927Z</time></trkpt><trkpt lat="42.0602372" lon="13.7022286"><ele>1066.0</ele><time>2026-05-02T11:42:29.927Z</time></trkpt><trkpt lat="42.0601821" lon="13.702138"><ele>1065.0</ele><time>2026-05-02T11:42:30.926Z</time></trkpt><trkpt lat="42.0601248" lon="13.7020475"><ele>1065.0</ele><time>2026-05-02T11:42:31.927Z</time></trkpt><trkpt lat="42.0600685" lon="13.7019475"><ele>1065.0</ele><time>2026-05-02T11:42:32.927Z</time></trkpt><trkpt lat="42.0600135" lon="13.7018466"><ele>1065.0</ele><time>2026-05-02T11:42:33.927Z</time></trkpt><trkpt lat="42.0599652" lon="13.7017512"><ele>1065.0</ele><time>2026-05-02T11:42:34.926Z</time></trkpt><trkpt lat="42.0599136" lon="13.7016576"><ele>1065.0</ele><time>2026-05-02T11:42:35.925Z</time></trkpt><trkpt lat="42.0598604" lon="13.7015607"><ele>1065.0</ele><time>2026-05-02T11:42:36.928Z</time></trkpt><trkpt lat="42.0598117" lon="13.701472"><ele>1064.3333333333333</ele><time>2026-05-02T11:42:37.928Z</time></trkpt><trkpt lat="42.0597586" lon="13.7013873"><ele>1063.6666666666667</ele><time>2026-05-02T11:42:38.926Z</time></trkpt><trkpt lat="42.0597092" lon="13.7012969"><ele>1063.0</ele><time>2026-05-02T11:42:39.926Z</time></trkpt><trkpt lat="42.0596591" lon="13.7012114"><ele>1062.3333333333335</ele><time>2026-05-02T11:42:40.927Z</time></trkpt><trkpt lat="42.0596031" lon="13.7011233"><ele>1061.6666666666667</ele><time>2026-05-02T11:42:41.926Z</time></trkpt><trkpt lat="42.0595504" lon="13.701028"><ele>1061.0</ele><time>2026-05-02T11:42:42.928Z</time></trkpt><trkpt lat="42.0594965" lon="13.7009422"><ele>1061.0</ele><time>2026-05-02T11:42:43.926Z</time></trkpt><trkpt lat="42.0594474" lon="13.7008679"><ele>1061.0</ele><time>2026-05-02T11:42:44.926Z</time></trkpt><trkpt lat="42.0593878" lon="13.7007918"><ele>1061.0</ele><time>2026-05-02T11:42:45.926Z</time></trkpt><trkpt lat="42.0593292" lon="13.7007227"><ele>1061.0</ele><time>2026-05-02T11:42:46.926Z</time></trkpt><trkpt lat="42.0592654" lon="13.7006593"><ele>1061.0</ele><time>2026-05-02T11:42:47.926Z</time></trkpt><trkpt lat="42.0591957" lon="13.7006075"><ele>1061.0</ele><time>2026-05-02T11:42:48.925Z</time></trkpt><trkpt lat="42.0591195" lon="13.7005586"><ele>1060.3333333333335</ele><time>2026-05-02T11:42:49.927Z</time></trkpt><trkpt lat="42.0590381" lon="13.7005142"><ele>1059.6666666666667</ele><time>2026-05-02T11:42:50.927Z</time></trkpt><trkpt lat="42.0589626" lon="13.7004762"><ele>1059.0</ele><time>2026-05-02T11:42:51.927Z</time></trkpt><trkpt lat="42.058883" lon="13.7004441"><ele>1058.3333333333333</ele><time>2026-05-02T11:42:52.926Z</time></trkpt><trkpt lat="42.0588126" lon="13.7004257"><ele>1057.6666666666665</ele><time>2026-05-02T11:42:53.926Z</time></trkpt><trkpt lat="42.0587331" lon="13.7004148"><ele>1057.0</ele><time>2026-05-02T11:42:54.926Z</time></trkpt><trkpt lat="42.0586565" lon="13.7004055"><ele>1057.0</ele><time>2026-05-02T11:42:55.926Z</time></trkpt><trkpt lat="42.0585806" lon="13.7003979"><ele>1057.0</ele><time>2026-05-02T11:42:56.927Z</time></trkpt><trkpt lat="42.0585017" lon="13.7003894"><ele>1057.0</ele><time>2026-05-02T11:42:57.926Z</time></trkpt><trkpt lat="42.0584296" lon="13.7003801"><ele>1057.0</ele><time>2026-05-02T11:42:58.927Z</time></trkpt><trkpt lat="42.0583558" lon="13.7003785"><ele>1057.0</ele><time>2026-05-02T11:42:59.926Z</time></trkpt><trkpt lat="42.0582878" lon="13.7003686"><ele>1057.0</ele><time>2026-05-02T11:43:00.926Z</time></trkpt><trkpt lat="42.0582033" lon="13.7003664"><ele>1056.1666666666665</ele><time>2026-05-02T11:43:01.927Z</time></trkpt><trkpt lat="42.0581276" lon="13.7003626"><ele>1055.3333333333333</ele><time>2026-05-02T11:43:02.927Z</time></trkpt><trkpt lat="42.0580449" lon="13.7003497"><ele>1054.5</ele><time>2026-05-02T11:43:03.927Z</time></trkpt><trkpt lat="42.0579714" lon="13.7003329"><ele>1053.6666666666667</ele><time>2026-05-02T11:43:04.927Z</time></trkpt><trkpt lat="42.057892" lon="13.7003215"><ele>1052.8333333333335</ele><time>2026-05-02T11:43:05.926Z</time></trkpt><trkpt lat="42.0578201" lon="13.7003174"><ele>1052.0</ele><time>2026-05-02T11:43:06.927Z</time></trkpt><trkpt lat="42.0577541" lon="13.7003026"><ele>1052.0</ele><time>2026-05-02T11:43:07.926Z</time></trkpt><trkpt lat="42.0576792" lon="13.700285"><ele>1052.0</ele><time>2026-05-02T11:43:08.928Z</time></trkpt><trkpt lat="42.0576073" lon="13.7002754"><ele>1052.0</ele><time>2026-05-02T11:43:09.927Z</time></trkpt><trkpt lat="42.0575319" lon="13.7002691"><ele>1052.0</ele><time>2026-05-02T11:43:10.928Z</time></trkpt><trkpt lat="42.057456" lon="13.7002626"><ele>1052.0</ele><time>2026-05-02T11:43:11.926Z</time></trkpt><trkpt lat="42.0573718" lon="13.700252"><ele>1052.0</ele><time>2026-05-02T11:43:12.926Z</time></trkpt><trkpt lat="42.0572892" lon="13.7002429"><ele>1051.8333333333335</ele><time>2026-05-02T11:43:13.927Z</time></trkpt><trkpt lat="42.0572115" lon="13.700234"><ele>1051.6666666666667</ele><time>2026-05-02T11:43:14.927Z</time></trkpt><trkpt lat="42.0571284" lon="13.7002233"><ele>1051.5</ele><time>2026-05-02T11:43:15.928Z</time></trkpt><trkpt lat="42.0570522" lon="13.7002099"><ele>1051.3333333333333</ele><time>2026-05-02T11:43:16.926Z</time></trkpt><trkpt lat="42.0569669" lon="13.7002019"><ele>1051.1666666666665</ele><time>2026-05-02T11:43:17.927Z</time></trkpt><trkpt lat="42.0568847" lon="13.7001869"><ele>1051.0</ele><time>2026-05-02T11:43:18.928Z</time></trkpt><trkpt lat="42.0568071" lon="13.7001799"><ele>1051.0</ele><time>2026-05-02T11:43:19.925Z</time></trkpt><trkpt lat="42.0567236" lon="13.7001667"><ele>1051.0</ele><time>2026-05-02T11:43:20.927Z</time></trkpt><trkpt lat="42.0566401" lon="13.7001575"><ele>1051.0</ele><time>2026-05-02T11:43:21.925Z</time></trkpt><trkpt lat="42.0565564" lon="13.7001452"><ele>1051.0</ele><time>2026-05-02T11:43:22.926Z</time></trkpt><trkpt lat="42.0564744" lon="13.7001308"><ele>1051.0</ele><time>2026-05-02T11:43:23.926Z</time></trkpt><trkpt lat="42.0563883" lon="13.7001168"><ele>1051.0</ele><time>2026-05-02T11:43:24.926Z</time></trkpt><trkpt lat="42.0563035" lon="13.7001029"><ele>1051.1666666666665</ele><time>2026-05-02T11:43:25.928Z</time></trkpt><trkpt lat="42.0562206" lon="13.7000916"><ele>1051.3333333333333</ele><time>2026-05-02T11:43:26.925Z</time></trkpt><trkpt lat="42.0561476" lon="13.7000752"><ele>1051.5</ele><time>2026-05-02T11:43:27.925Z</time></trkpt><trkpt lat="42.0560755" lon="13.7000626"><ele>1051.6666666666667</ele><time>2026-05-02T11:43:28.927Z</time></trkpt><trkpt lat="42.0560021" lon="13.7000462"><ele>1051.8333333333335</ele><time>2026-05-02T11:43:29.925Z</time></trkpt><trkpt lat="42.055926" lon="13.7000326"><ele>1052.0</ele><time>2026-05-02T11:43:30.927Z</time></trkpt><trkpt lat="42.0558462" lon="13.7000111"><ele>1051.6666666666667</ele><time>2026-05-02T11:43:31.926Z</time></trkpt><trkpt lat="42.0557695" lon="13.7000024"><ele>1051.3333333333335</ele><time>2026-05-02T11:43:32.926Z</time></trkpt><trkpt lat="42.0556877" lon="13.6999832"><ele>1051.0</ele><time>2026-05-02T11:43:33.926Z</time></trkpt><trkpt lat="42.0556123" lon="13.6999666"><ele>1050.6666666666667</ele><time>2026-05-02T11:43:34.927Z</time></trkpt><trkpt lat="42.055538" lon="13.6999543"><ele>1050.3333333333333</ele><time>2026-05-02T11:43:35.926Z</time></trkpt><trkpt lat="42.0554582" lon="13.6999391"><ele>1050.0</ele><time>2026-05-02T11:43:36.926Z</time></trkpt><trkpt lat="42.0553861" lon="13.6999242"><ele>1050.0</ele><time>2026-05-02T11:43:37.927Z</time></trkpt><trkpt lat="42.0553154" lon="13.6999043"><ele>1050.0</ele><time>2026-05-02T11:43:38.926Z</time></trkpt><trkpt lat="42.0552383" lon="13.6998859"><ele>1050.0</ele><time>2026-05-02T11:43:39.927Z</time></trkpt><trkpt lat="42.0551664" lon="13.6998651"><ele>1050.0</ele><time>2026-05-02T11:43:40.926Z</time></trkpt><trkpt lat="42.0550958" lon="13.6998407"><ele>1050.0</ele><time>2026-05-02T11:43:41.926Z</time></trkpt><trkpt lat="42.05503" lon="13.6998128"><ele>1050.0</ele><time>2026-05-02T11:43:42.927Z</time></trkpt><trkpt lat="42.0549645" lon="13.6997787"><ele>1050.0</ele><time>2026-05-02T11:43:43.925Z</time></trkpt><trkpt lat="42.0549025" lon="13.6997459"><ele>1049.6666666666667</ele><time>2026-05-02T11:43:44.926Z</time></trkpt><trkpt lat="42.0548377" lon="13.6997079"><ele>1049.3333333333333</ele><time>2026-05-02T11:43:45.926Z</time></trkpt><trkpt lat="42.0547325" lon="13.6996553"><ele>1049.0</ele><time>2026-05-02T11:43:47.926Z</time></trkpt><trkpt lat="42.0546383" lon="13.6995977"><ele>1048.6666666666665</ele><time>2026-05-02T11:43:49.925Z</time></trkpt><trkpt lat="42.0545637" lon="13.699555"><ele>1048.3333333333333</ele><time>2026-05-02T11:43:52.927Z</time></trkpt><trkpt lat="42.0544983" lon="13.6995745"><ele>1048.0</ele><time>2026-05-02T11:44:09.925Z</time></trkpt><trkpt lat="42.0544122" lon="13.699566"><ele>1048.0</ele><time>2026-05-02T11:44:12.927Z</time></trkpt><trkpt lat="42.0543351" lon="13.6995362"><ele>1048.0</ele><time>2026-05-02T11:44:14.926Z</time></trkpt><trkpt lat="42.0542378" lon="13.6994926"><ele>1048.0</ele><time>2026-05-02T11:44:16.926Z</time></trkpt><trkpt lat="42.0541461" lon="13.6994456"><ele>1048.0</ele><time>2026-05-02T11:44:18.927Z</time></trkpt><trkpt lat="42.0540556" lon="13.6994029"><ele>1048.0</ele><time>2026-05-02T11:44:20.926Z</time></trkpt><trkpt lat="42.053967" lon="13.6993513"><ele>1048.6666666666665</ele><time>2026-05-02T11:44:22.927Z</time></trkpt><trkpt lat="42.0538775" lon="13.6993059"><ele>1049.3333333333333</ele><time>2026-05-02T11:44:24.927Z</time></trkpt><trkpt lat="42.0537723" lon="13.6992601"><ele>1050.0</ele><time>2026-05-02T11:44:26.927Z</time></trkpt><trkpt lat="42.0537102" lon="13.6992275"><ele>1050.6666666666667</ele><time>2026-05-02T11:44:27.926Z</time></trkpt><trkpt lat="42.0536481" lon="13.6991936"><ele>1051.3333333333335</ele><time>2026-05-02T11:44:28.926Z</time></trkpt><trkpt lat="42.0535885" lon="13.6991542"><ele>1052.0</ele><time>2026-05-02T11:44:29.926Z</time></trkpt><trkpt lat="42.0535265" lon="13.6991232"><ele>1052.0</ele><time>2026-05-02T11:44:30.926Z</time></trkpt><trkpt lat="42.053461" lon="13.6990895"><ele>1052.0</ele><time>2026-05-02T11:44:31.926Z</time></trkpt><trkpt lat="42.053395" lon="13.6990523"><ele>1052.0</ele><time>2026-05-02T11:44:32.926Z</time></trkpt><trkpt lat="42.0532718" lon="13.6989835"><ele>1052.0</ele><time>2026-05-02T11:44:34.926Z</time></trkpt><trkpt lat="42.0532075" lon="13.6989363"><ele>1052.0</ele><time>2026-05-02T11:44:35.926Z</time></trkpt><trkpt lat="42.053141" lon="13.6988924"><ele>1052.0</ele><time>2026-05-02T11:44:36.925Z</time></trkpt><trkpt lat="42.0530785" lon="13.6988334"><ele>1052.3333333333335</ele><time>2026-05-02T11:44:37.927Z</time></trkpt><trkpt lat="42.0530153" lon="13.6987671"><ele>1052.6666666666667</ele><time>2026-05-02T11:44:38.926Z</time></trkpt><trkpt lat="42.0529518" lon="13.6987001"><ele>1053.0</ele><time>2026-05-02T11:44:39.926Z</time></trkpt><trkpt lat="42.0528946" lon="13.6986287"><ele>1053.3333333333333</ele><time>2026-05-02T11:44:40.925Z</time></trkpt><trkpt lat="42.0528332" lon="13.6985527"><ele>1053.6666666666665</ele><time>2026-05-02T11:44:41.926Z</time></trkpt><trkpt lat="42.0527708" lon="13.6984845"><ele>1054.0</ele><time>2026-05-02T11:44:42.926Z</time></trkpt><trkpt lat="42.0527122" lon="13.6984307"><ele>1054.3333333333333</ele><time>2026-05-02T11:44:43.927Z</time></trkpt><trkpt lat="42.0526561" lon="13.6983738"><ele>1054.6666666666665</ele><time>2026-05-02T11:44:44.927Z</time></trkpt><trkpt lat="42.0525974" lon="13.6983156"><ele>1055.0</ele><time>2026-05-02T11:44:45.927Z</time></trkpt><trkpt lat="42.0525292" lon="13.6982512"><ele>1055.3333333333333</ele><time>2026-05-02T11:44:46.926Z</time></trkpt><trkpt lat="42.0524616" lon="13.6981858"><ele>1055.6666666666667</ele><time>2026-05-02T11:44:47.926Z</time></trkpt><trkpt lat="42.0523986" lon="13.6981183"><ele>1056.0</ele><time>2026-05-02T11:44:48.926Z</time></trkpt><trkpt lat="42.052343" lon="13.6980562"><ele>1056.0</ele><time>2026-05-02T11:44:49.926Z</time></trkpt><trkpt lat="42.0522826" lon="13.6979868"><ele>1056.0</ele><time>2026-05-02T11:44:50.927Z</time></trkpt><trkpt lat="42.0522205" lon="13.6979149"><ele>1056.0</ele><time>2026-05-02T11:44:51.927Z</time></trkpt><trkpt lat="42.0521613" lon="13.6978467"><ele>1056.0</ele><time>2026-05-02T11:44:52.926Z</time></trkpt><trkpt lat="42.0521089" lon="13.6977745"><ele>1056.0</ele><time>2026-05-02T11:44:53.925Z</time></trkpt><trkpt lat="42.0520559" lon="13.6977015"><ele>1056.0</ele><time>2026-05-02T11:44:54.925Z</time></trkpt><trkpt lat="42.0519992" lon="13.6976314"><ele>1056.0</ele><time>2026-05-02T11:44:55.927Z</time></trkpt><trkpt lat="42.051944" lon="13.6975583"><ele>1056.0</ele><time>2026-05-02T11:44:56.927Z</time></trkpt><trkpt lat="42.0518873" lon="13.6974896"><ele>1056.0</ele><time>2026-05-02T11:44:57.927Z</time></trkpt><trkpt lat="42.0518279" lon="13.6974222"><ele>1056.0</ele><time>2026-05-02T11:44:58.926Z</time></trkpt><trkpt lat="42.0517658" lon="13.69736"><ele>1056.0</ele><time>2026-05-02T11:44:59.926Z</time></trkpt><trkpt lat="42.0517108" lon="13.6972981"><ele>1056.0</ele><time>2026-05-02T11:45:00.926Z</time></trkpt><trkpt lat="42.0516539" lon="13.6972487"><ele>1056.0</ele><time>2026-05-02T11:45:01.926Z</time></trkpt><trkpt lat="42.0516036" lon="13.6971958"><ele>1055.8333333333333</ele><time>2026-05-02T11:45:02.926Z</time></trkpt><trkpt lat="42.0515483" lon="13.6971319"><ele>1055.6666666666667</ele><time>2026-05-02T11:45:03.926Z</time></trkpt><trkpt lat="42.0514903" lon="13.6970603"><ele>1055.5</ele><time>2026-05-02T11:45:04.926Z</time></trkpt><trkpt lat="42.0514306" lon="13.6969874"><ele>1055.3333333333335</ele><time>2026-05-02T11:45:05.926Z</time></trkpt><trkpt lat="42.0513691" lon="13.6969242"><ele>1055.1666666666667</ele><time>2026-05-02T11:45:06.926Z</time></trkpt><trkpt lat="42.0513079" lon="13.696855"><ele>1055.0</ele><time>2026-05-02T11:45:07.927Z</time></trkpt><trkpt lat="42.0512494" lon="13.6967855"><ele>1055.0</ele><time>2026-05-02T11:45:08.926Z</time></trkpt><trkpt lat="42.0511933" lon="13.6967129"><ele>1055.0</ele><time>2026-05-02T11:45:09.927Z</time></trkpt><trkpt lat="42.0511367" lon="13.6966439"><ele>1055.0</ele><time>2026-05-02T11:45:10.926Z</time></trkpt><trkpt lat="42.0510781" lon="13.6965771"><ele>1055.0</ele><time>2026-05-02T11:45:11.928Z</time></trkpt><trkpt lat="42.0510199" lon="13.6965091"><ele>1055.0</ele><time>2026-05-02T11:45:12.925Z</time></trkpt><trkpt lat="42.0509588" lon="13.6964383"><ele>1055.0</ele><time>2026-05-02T11:45:13.925Z</time></trkpt><trkpt lat="42.0508948" lon="13.6963724"><ele>1055.0</ele><time>2026-05-02T11:45:14.926Z</time></trkpt><trkpt lat="42.0508382" lon="13.6963029"><ele>1055.0</ele><time>2026-05-02T11:45:15.926Z</time></trkpt><trkpt lat="42.0507808" lon="13.69623"><ele>1055.0</ele><time>2026-05-02T11:45:16.926Z</time></trkpt><trkpt lat="42.0507288" lon="13.6961601"><ele>1055.0</ele><time>2026-05-02T11:45:17.926Z</time></trkpt><trkpt lat="42.0506705" lon="13.6960854"><ele>1055.0</ele><time>2026-05-02T11:45:18.926Z</time></trkpt><trkpt lat="42.0506188" lon="13.696011"><ele>1055.0</ele><time>2026-05-02T11:45:19.926Z</time></trkpt><trkpt lat="42.0505652" lon="13.6959296"><ele>1054.3333333333335</ele><time>2026-05-02T11:45:20.925Z</time></trkpt><trkpt lat="42.0505112" lon="13.6958527"><ele>1053.6666666666667</ele><time>2026-05-02T11:45:21.926Z</time></trkpt><trkpt lat="42.0504554" lon="13.6957838"><ele>1053.0</ele><time>2026-05-02T11:45:22.926Z</time></trkpt><trkpt lat="42.0504003" lon="13.6957149"><ele>1052.3333333333333</ele><time>2026-05-02T11:45:23.928Z</time></trkpt><trkpt lat="42.0503485" lon="13.6956467"><ele>1051.6666666666665</ele><time>2026-05-02T11:45:24.927Z</time></trkpt><trkpt lat="42.0502916" lon="13.6955707"><ele>1051.0</ele><time>2026-05-02T11:45:25.928Z</time></trkpt><trkpt lat="42.0502328" lon="13.6954879"><ele>1051.0</ele><time>2026-05-02T11:45:26.926Z</time></trkpt><trkpt lat="42.0501751" lon="13.6954105"><ele>1051.0</ele><time>2026-05-02T11:45:27.927Z</time></trkpt><trkpt lat="42.0501144" lon="13.6953325"><ele>1051.0</ele><time>2026-05-02T11:45:28.927Z</time></trkpt><trkpt lat="42.0500567" lon="13.6952562"><ele>1051.0</ele><time>2026-05-02T11:45:29.926Z</time></trkpt><trkpt lat="42.0499995" lon="13.6951754"><ele>1051.0</ele><time>2026-05-02T11:45:30.926Z</time></trkpt><trkpt lat="42.0499422" lon="13.6950929"><ele>1051.0</ele><time>2026-05-02T11:45:31.925Z</time></trkpt><trkpt lat="42.049882" lon="13.6950053"><ele>1051.8333333333333</ele><time>2026-05-02T11:45:32.925Z</time></trkpt><trkpt lat="42.049822" lon="13.6949212"><ele>1052.6666666666665</ele><time>2026-05-02T11:45:33.926Z</time></trkpt><trkpt lat="42.0497617" lon="13.6948361"><ele>1053.5</ele><time>2026-05-02T11:45:34.926Z</time></trkpt><trkpt lat="42.0496986" lon="13.6947542"><ele>1054.3333333333333</ele><time>2026-05-02T11:45:35.926Z</time></trkpt><trkpt lat="42.0496329" lon="13.6946735"><ele>1055.1666666666667</ele><time>2026-05-02T11:45:36.925Z</time></trkpt><trkpt lat="42.0495797" lon="13.6945904"><ele>1056.0</ele><time>2026-05-02T11:45:37.925Z</time></trkpt><trkpt lat="42.0495259" lon="13.6945095"><ele>1056.0</ele><time>2026-05-02T11:45:38.926Z</time></trkpt><trkpt lat="42.0494713" lon="13.6944301"><ele>1056.0</ele><time>2026-05-02T11:45:39.926Z</time></trkpt><trkpt lat="42.0494115" lon="13.6943496"><ele>1056.0</ele><time>2026-05-02T11:45:40.926Z</time></trkpt><trkpt lat="42.0493567" lon="13.6942758"><ele>1056.0</ele><time>2026-05-02T11:45:41.926Z</time></trkpt><trkpt lat="42.0492884" lon="13.6942009"><ele>1056.0</ele><time>2026-05-02T11:45:42.925Z</time></trkpt><trkpt lat="42.0492224" lon="13.694132"><ele>1056.0</ele><time>2026-05-02T11:45:43.926Z</time></trkpt><trkpt lat="42.0491486" lon="13.6940569"><ele>1055.8</ele><time>2026-05-02T11:45:44.926Z</time></trkpt><trkpt lat="42.0490663" lon="13.6939795"><ele>1055.6</ele><time>2026-05-02T11:45:45.927Z</time></trkpt><trkpt lat="42.0489979" lon="13.6939022"><ele>1055.4</ele><time>2026-05-02T11:45:46.926Z</time></trkpt><trkpt lat="42.0489315" lon="13.693827"><ele>1055.2</ele><time>2026-05-02T11:45:47.926Z</time></trkpt><trkpt lat="42.0488634" lon="13.6937477"><ele>1055.0</ele><time>2026-05-02T11:45:48.926Z</time></trkpt><trkpt lat="42.0487973" lon="13.6936669"><ele>1055.0</ele><time>2026-05-02T11:45:49.925Z</time></trkpt><trkpt lat="42.0487292" lon="13.6935947"><ele>1055.0</ele><time>2026-05-02T11:45:50.925Z</time></trkpt><trkpt lat="42.0486589" lon="13.693522"><ele>1055.0</ele><time>2026-05-02T11:45:51.927Z</time></trkpt><trkpt lat="42.0485894" lon="13.693446"><ele>1055.0</ele><time>2026-05-02T11:45:52.925Z</time></trkpt><trkpt lat="42.0485145" lon="13.6933712"><ele>1055.0</ele><time>2026-05-02T11:45:53.926Z</time></trkpt><trkpt lat="42.0484394" lon="13.6932925"><ele>1054.6666666666667</ele><time>2026-05-02T11:45:54.926Z</time></trkpt><trkpt lat="42.0483705" lon="13.6932217"><ele>1054.3333333333335</ele><time>2026-05-02T11:45:55.927Z</time></trkpt><trkpt lat="42.0483" lon="13.6931423"><ele>1054.0</ele><time>2026-05-02T11:45:56.926Z</time></trkpt><trkpt lat="42.0482326" lon="13.6930665"><ele>1053.6666666666667</ele><time>2026-05-02T11:45:57.926Z</time></trkpt><trkpt lat="42.0481653" lon="13.6929852"><ele>1053.3333333333333</ele><time>2026-05-02T11:45:58.927Z</time></trkpt><trkpt lat="42.0480975" lon="13.692905"><ele>1053.0</ele><time>2026-05-02T11:45:59.927Z</time></trkpt><trkpt lat="42.0480289" lon="13.692823"><ele>1048.8</ele><time>2026-05-02T11:46:00.925Z</time></trkpt><trkpt lat="42.0479584" lon="13.6927432"><ele>1044.6</ele><time>2026-05-02T11:46:01.926Z</time></trkpt><trkpt lat="42.0478868" lon="13.6926616"><ele>1040.4</ele><time>2026-05-02T11:46:02.927Z</time></trkpt><trkpt lat="42.0478147" lon="13.6925858"><ele>1036.2</ele><time>2026-05-02T11:46:03.925Z</time></trkpt><trkpt lat="42.047739" lon="13.6925123"><ele>1032.0</ele><time>2026-05-02T11:46:04.926Z</time></trkpt><trkpt lat="42.0476683" lon="13.6924402"><ele>1032.0</ele><time>2026-05-02T11:46:05.925Z</time></trkpt><trkpt lat="42.0475925" lon="13.6923585"><ele>1032.0</ele><time>2026-05-02T11:46:06.927Z</time></trkpt><trkpt lat="42.047525" lon="13.6922895"><ele>1032.0</ele><time>2026-05-02T11:46:07.926Z</time></trkpt><trkpt lat="42.0474532" lon="13.6922188"><ele>1032.0</ele><time>2026-05-02T11:46:08.927Z</time></trkpt><trkpt lat="42.047379" lon="13.6921441"><ele>1032.0</ele><time>2026-05-02T11:46:09.927Z</time></trkpt><trkpt lat="42.0473048" lon="13.6920803"><ele>1033.1666666666667</ele><time>2026-05-02T11:46:10.926Z</time></trkpt><trkpt lat="42.0472314" lon="13.6920179"><ele>1034.3333333333333</ele><time>2026-05-02T11:46:11.926Z</time></trkpt><trkpt lat="42.0471578" lon="13.6919557"><ele>1035.5</ele><time>2026-05-02T11:46:12.926Z</time></trkpt><trkpt lat="42.0470793" lon="13.6918957"><ele>1036.6666666666665</ele><time>2026-05-02T11:46:13.925Z</time></trkpt><trkpt lat="42.0469956" lon="13.6918425"><ele>1037.8333333333333</ele><time>2026-05-02T11:46:14.926Z</time></trkpt><trkpt lat="42.0469159" lon="13.6917825"><ele>1039.0</ele><time>2026-05-02T11:46:15.926Z</time></trkpt><trkpt lat="42.0468349" lon="13.6917195"><ele>1036.3333333333333</ele><time>2026-05-02T11:46:16.926Z</time></trkpt><trkpt lat="42.0467497" lon="13.691659"><ele>1033.6666666666665</ele><time>2026-05-02T11:46:17.926Z</time></trkpt><trkpt lat="42.0466734" lon="13.6915976"><ele>1031.0</ele><time>2026-05-02T11:46:18.926Z</time></trkpt><trkpt lat="42.0466043" lon="13.6915419"><ele>1028.3333333333333</ele><time>2026-05-02T11:46:19.926Z</time></trkpt><trkpt lat="42.0465339" lon="13.6914908"><ele>1025.6666666666667</ele><time>2026-05-02T11:46:20.926Z</time></trkpt><trkpt lat="42.0464624" lon="13.6914308"><ele>1023.0</ele><time>2026-05-02T11:46:21.926Z</time></trkpt><trkpt lat="42.046382" lon="13.6913619"><ele>1023.0</ele><time>2026-05-02T11:46:22.927Z</time></trkpt><trkpt lat="42.0463071" lon="13.6913065"><ele>1023.0</ele><time>2026-05-02T11:46:23.925Z</time></trkpt><trkpt lat="42.0462231" lon="13.6912561"><ele>1023.0</ele><time>2026-05-02T11:46:24.927Z</time></trkpt><trkpt lat="42.0461411" lon="13.6911862"><ele>1023.0</ele><time>2026-05-02T11:46:25.926Z</time></trkpt><trkpt lat="42.0460633" lon="13.6911109"><ele>1023.0</ele><time>2026-05-02T11:46:26.926Z</time></trkpt><trkpt lat="42.0459934" lon="13.6910414"><ele>1021.8</ele><time>2026-05-02T11:46:27.926Z</time></trkpt><trkpt lat="42.0459159" lon="13.6909627"><ele>1020.5999999999999</ele><time>2026-05-02T11:46:28.925Z</time></trkpt><trkpt lat="42.0458453" lon="13.6908935"><ele>1019.4000000000001</ele><time>2026-05-02T11:46:29.926Z</time></trkpt><trkpt lat="42.0457699" lon="13.6908115"><ele>1018.2</ele><time>2026-05-02T11:46:30.926Z</time></trkpt><trkpt lat="42.0456973" lon="13.6907393"><ele>1017.0</ele><time>2026-05-02T11:46:31.926Z</time></trkpt><trkpt lat="42.0456195" lon="13.6906606"><ele>1017.0</ele><time>2026-05-02T11:46:32.926Z</time></trkpt><trkpt lat="42.0455454" lon="13.6905763"><ele>1017.0</ele><time>2026-05-02T11:46:33.926Z</time></trkpt><trkpt lat="42.0454751" lon="13.690481"><ele>1017.0</ele><time>2026-05-02T11:46:34.927Z</time></trkpt><trkpt lat="42.0454094" lon="13.6903839"><ele>1017.0</ele><time>2026-05-02T11:46:35.927Z</time></trkpt><trkpt lat="42.0453621" lon="13.6902825"><ele>1017.0</ele><time>2026-05-02T11:46:36.928Z</time></trkpt><trkpt lat="42.0453152" lon="13.6901819"><ele>1014.8333333333334</ele><time>2026-05-02T11:46:37.926Z</time></trkpt><trkpt lat="42.0452653" lon="13.69008"><ele>1012.6666666666667</ele><time>2026-05-02T11:46:38.926Z</time></trkpt><trkpt lat="42.0452128" lon="13.6899799"><ele>1010.5</ele><time>2026-05-02T11:46:39.926Z</time></trkpt><trkpt lat="42.0451657" lon="13.6898763"><ele>1008.3333333333334</ele><time>2026-05-02T11:46:40.926Z</time></trkpt><trkpt lat="42.0451226" lon="13.6897739"><ele>1006.1666666666667</ele><time>2026-05-02T11:46:41.926Z</time></trkpt><trkpt lat="42.0450747" lon="13.6896742"><ele>1004.0</ele><time>2026-05-02T11:46:42.925Z</time></trkpt><trkpt lat="42.0450364" lon="13.6895735"><ele>1004.0</ele><time>2026-05-02T11:46:43.926Z</time></trkpt><trkpt lat="42.0450012" lon="13.6894584"><ele>1004.0000000000001</ele><time>2026-05-02T11:46:44.926Z</time></trkpt><trkpt lat="42.0449711" lon="13.6893392"><ele>1004.0000000000001</ele><time>2026-05-02T11:46:45.926Z</time></trkpt><trkpt lat="42.044943" lon="13.689223"><ele>1004.0</ele><time>2026-05-02T11:46:46.927Z</time></trkpt><trkpt lat="42.0448991" lon="13.6891156"><ele>1004.0</ele><time>2026-05-02T11:46:47.928Z</time></trkpt><trkpt lat="42.0448628" lon="13.6890135"><ele>1003.0000000000001</ele><time>2026-05-02T11:46:48.926Z</time></trkpt><trkpt lat="42.0448256" lon="13.6889121"><ele>1002.0</ele><time>2026-05-02T11:46:49.927Z</time></trkpt><trkpt lat="42.0447911" lon="13.6888099"><ele>1001.0</ele><time>2026-05-02T11:46:50.926Z</time></trkpt><trkpt lat="42.0447486" lon="13.6887147"><ele>1000.0</ele><time>2026-05-02T11:46:51.926Z</time></trkpt><trkpt lat="42.0447044" lon="13.6886161"><ele>999.0000000000001</ele><time>2026-05-02T11:46:52.926Z</time></trkpt><trkpt lat="42.0446661" lon="13.6885151"><ele>998.0</ele><time>2026-05-02T11:46:53.925Z</time></trkpt><trkpt lat="42.0446326" lon="13.6884173"><ele>998.0000000000001</ele><time>2026-05-02T11:46:54.925Z</time></trkpt><trkpt lat="42.0445978" lon="13.6883123"><ele>998.0</ele><time>2026-05-02T11:46:55.927Z</time></trkpt><trkpt lat="42.0445594" lon="13.688216"><ele>998.0</ele><time>2026-05-02T11:46:56.926Z</time></trkpt><trkpt lat="42.0445187" lon="13.6881332"><ele>998.0</ele><time>2026-05-02T11:46:57.925Z</time></trkpt><trkpt lat="42.0444694" lon="13.6880456"><ele>998.0000000000001</ele><time>2026-05-02T11:46:58.927Z</time></trkpt><trkpt lat="42.0444214" lon="13.6879612"><ele>998.0</ele><time>2026-05-02T11:46:59.926Z</time></trkpt><trkpt lat="42.0443635" lon="13.6878763"><ele>998.0000000000001</ele><time>2026-05-02T11:47:00.927Z</time></trkpt><trkpt lat="42.0443106" lon="13.6877885"><ele>998.0</ele><time>2026-05-02T11:47:01.926Z</time></trkpt><trkpt lat="42.0442576" lon="13.6876962"><ele>998.0</ele><time>2026-05-02T11:47:02.926Z</time></trkpt><trkpt lat="42.0442188" lon="13.6875775"><ele>998.0</ele><time>2026-05-02T11:47:03.926Z</time></trkpt><trkpt lat="42.0441839" lon="13.6874786"><ele>998.0000000000001</ele><time>2026-05-02T11:47:04.926Z</time></trkpt><trkpt lat="42.0441425" lon="13.6873869"><ele>998.0</ele><time>2026-05-02T11:47:05.926Z</time></trkpt><trkpt lat="42.0441" lon="13.6873036"><ele>997.5999999999999</ele><time>2026-05-02T11:47:06.926Z</time></trkpt><trkpt lat="42.0440184" lon="13.6871743"><ele>997.1999999999999</ele><time>2026-05-02T11:47:08.926Z</time></trkpt><trkpt lat="42.0439516" lon="13.6870659"><ele>996.8</ele><time>2026-05-02T11:47:10.926Z</time></trkpt><trkpt lat="42.0438852" lon="13.6869807"><ele>996.4</ele><time>2026-05-02T11:47:12.926Z</time></trkpt><trkpt lat="42.0438303" lon="13.6868785"><ele>996.0</ele><time>2026-05-02T11:47:15.927Z</time></trkpt><trkpt lat="42.0437799" lon="13.6867969"><ele>991.1999999999999</ele><time>2026-05-02T11:47:18.927Z</time></trkpt><trkpt lat="42.0437101" lon="13.6867051"><ele>986.3999999999999</ele><time>2026-05-02T11:48:42.927Z</time></trkpt><trkpt lat="42.0436422" lon="13.6866214"><ele>981.6</ele><time>2026-05-02T11:48:44.927Z</time></trkpt><trkpt lat="42.0435814" lon="13.6865484"><ele>976.8</ele><time>2026-05-02T11:48:46.926Z</time></trkpt><trkpt lat="42.0435405" lon="13.6864455"><ele>972.0</ele><time>2026-05-02T11:48:48.926Z</time></trkpt><trkpt lat="42.0435033" lon="13.6863125"><ele>972.0</ele><time>2026-05-02T11:48:50.926Z</time></trkpt><trkpt lat="42.0434773" lon="13.6862331"><ele>972.0</ele><time>2026-05-02T11:48:51.926Z</time></trkpt><trkpt lat="42.0434333" lon="13.6860795"><ele>972.0</ele><time>2026-05-02T11:48:53.925Z</time></trkpt><trkpt lat="42.0433843" lon="13.6859443"><ele>972.0</ele><time>2026-05-02T11:48:55.925Z</time></trkpt><trkpt lat="42.0433115" lon="13.6858165"><ele>972.0</ele><time>2026-05-02T11:48:57.926Z</time></trkpt><trkpt lat="42.0432701" lon="13.685751"><ele>973.0</ele><time>2026-05-02T11:48:58.926Z</time></trkpt><trkpt lat="42.0432267" lon="13.685687"><ele>974.0</ele><time>2026-05-02T11:48:59.926Z</time></trkpt><trkpt lat="42.0431825" lon="13.6856249"><ele>975.0</ele><time>2026-05-02T11:49:00.926Z</time></trkpt><trkpt lat="42.043128" lon="13.6855033"><ele>976.0</ele><time>2026-05-02T11:49:02.927Z</time></trkpt><trkpt lat="42.0430664" lon="13.6853969"><ele>977.0</ele><time>2026-05-02T11:49:04.925Z</time></trkpt><trkpt lat="42.0429902" lon="13.6852911"><ele>978.0</ele><time>2026-05-02T11:49:06.926Z</time></trkpt><trkpt lat="42.0429515" lon="13.6852221"><ele>973.3333333333334</ele><time>2026-05-02T11:49:07.927Z</time></trkpt><trkpt lat="42.0429155" lon="13.6851502"><ele>968.6666666666667</ele><time>2026-05-02T11:49:08.926Z</time></trkpt><trkpt lat="42.04288" lon="13.6850751"><ele>964.0</ele><time>2026-05-02T11:49:09.926Z</time></trkpt><trkpt lat="42.0428483" lon="13.6850007"><ele>959.3333333333334</ele><time>2026-05-02T11:49:10.926Z</time></trkpt><trkpt lat="42.0427757" lon="13.6848695"><ele>954.6666666666667</ele><time>2026-05-02T11:49:12.927Z</time></trkpt><trkpt lat="42.0427436" lon="13.6847964"><ele>950.0</ele><time>2026-05-02T11:49:13.925Z</time></trkpt><trkpt lat="42.0426757" lon="13.684662"><ele>950.0000000000001</ele><time>2026-05-02T11:49:15.926Z</time></trkpt><trkpt lat="42.0425876" lon="13.6845425"><ele>950.0</ele><time>2026-05-02T11:49:17.926Z</time></trkpt><trkpt lat="42.0425389" lon="13.6844821"><ele>950.0</ele><time>2026-05-02T11:49:18.927Z</time></trkpt><trkpt lat="42.0424897" lon="13.6844205"><ele>950.0</ele><time>2026-05-02T11:49:19.927Z</time></trkpt><trkpt lat="42.0424492" lon="13.6843502"><ele>950.0000000000001</ele><time>2026-05-02T11:49:20.925Z</time></trkpt><trkpt lat="42.0423761" lon="13.6842173"><ele>950.0</ele><time>2026-05-02T11:49:22.926Z</time></trkpt><trkpt lat="42.0423305" lon="13.6841538"><ele>948.7142857142858</ele><time>2026-05-02T11:49:23.926Z</time></trkpt><trkpt lat="42.0422839" lon="13.6840894"><ele>947.4285714285716</ele><time>2026-05-02T11:49:24.927Z</time></trkpt><trkpt lat="42.0422389" lon="13.6840254"><ele>946.1428571428571</ele><time>2026-05-02T11:49:25.926Z</time></trkpt><trkpt lat="42.0421547" lon="13.6839157"><ele>944.8571428571429</ele><time>2026-05-02T11:49:27.926Z</time></trkpt><trkpt lat="42.0421059" lon="13.6838528"><ele>943.5714285714286</ele><time>2026-05-02T11:49:28.925Z</time></trkpt><trkpt lat="42.0420613" lon="13.6837867"><ele>942.2857142857142</ele><time>2026-05-02T11:49:29.926Z</time></trkpt><trkpt lat="42.0420233" lon="13.6837191"><ele>940.9999999999999</ele><time>2026-05-02T11:49:30.927Z</time></trkpt><trkpt lat="42.0419823" lon="13.6836444"><ele>937.2857142857142</ele><time>2026-05-02T11:49:31.926Z</time></trkpt><trkpt lat="42.0419414" lon="13.6835712"><ele>933.5714285714286</ele><time>2026-05-02T11:49:32.926Z</time></trkpt><trkpt lat="42.0418912" lon="13.6834994"><ele>929.8571428571429</ele><time>2026-05-02T11:49:33.925Z</time></trkpt><trkpt lat="42.0418444" lon="13.6834315"><ele>926.1428571428571</ele><time>2026-05-02T11:49:34.926Z</time></trkpt><trkpt lat="42.0417961" lon="13.683363"><ele>922.4285714285716</ele><time>2026-05-02T11:49:35.926Z</time></trkpt><trkpt lat="42.0417492" lon="13.6832899"><ele>918.7142857142858</ele><time>2026-05-02T11:49:36.926Z</time></trkpt><trkpt lat="42.0417038" lon="13.6832211"><ele>915.0</ele><time>2026-05-02T11:49:37.925Z</time></trkpt><trkpt lat="42.0416608" lon="13.6831476"><ele>912.6</ele><time>2026-05-02T11:49:38.926Z</time></trkpt><trkpt lat="42.0415865" lon="13.6830062"><ele>910.2</ele><time>2026-05-02T11:49:40.926Z</time></trkpt><trkpt lat="42.0415319" lon="13.6829223"><ele>907.8</ele><time>2026-05-02T11:49:41.926Z</time></trkpt><trkpt lat="42.0414815" lon="13.6828322"><ele>905.4</ele><time>2026-05-02T11:49:42.926Z</time></trkpt><trkpt lat="42.0414287" lon="13.6827484"><ele>903.0</ele><time>2026-05-02T11:49:43.927Z</time></trkpt><trkpt lat="42.0413727" lon="13.6826588"><ele>903.0</ele><time>2026-05-02T11:49:44.926Z</time></trkpt><trkpt lat="42.0413217" lon="13.6825683"><ele>903.0</ele><time>2026-05-02T11:49:45.926Z</time></trkpt><trkpt lat="42.0412761" lon="13.6824732"><ele>903.0</ele><time>2026-05-02T11:49:46.925Z</time></trkpt><trkpt lat="42.0412324" lon="13.6823676"><ele>903.0</ele><time>2026-05-02T11:49:47.926Z</time></trkpt><trkpt lat="42.0411938" lon="13.6822702"><ele>903.0</ele><time>2026-05-02T11:49:48.927Z</time></trkpt><trkpt lat="42.0411453" lon="13.6821762"><ele>903.0</ele><time>2026-05-02T11:49:49.926Z</time></trkpt><trkpt lat="42.0410943" lon="13.682087"><ele>903.0</ele><time>2026-05-02T11:49:50.926Z</time></trkpt><trkpt lat="42.0410346" lon="13.6819903"><ele>903.0</ele><time>2026-05-02T11:49:51.926Z</time></trkpt><trkpt lat="42.0409755" lon="13.6818973"><ele>903.0</ele><time>2026-05-02T11:49:52.926Z</time></trkpt><trkpt lat="42.0409088" lon="13.681806"><ele>903.0</ele><time>2026-05-02T11:49:53.926Z</time></trkpt><trkpt lat="42.0408364" lon="13.6817172"><ele>903.0</ele><time>2026-05-02T11:49:54.926Z</time></trkpt><trkpt lat="42.0407674" lon="13.6816244"><ele>901.8</ele><time>2026-05-02T11:49:55.925Z</time></trkpt><trkpt lat="42.0407049" lon="13.6815293"><ele>900.5999999999999</ele><time>2026-05-02T11:49:56.927Z</time></trkpt><trkpt lat="42.0406443" lon="13.6814386"><ele>899.4000000000001</ele><time>2026-05-02T11:49:57.927Z</time></trkpt><trkpt lat="42.0405868" lon="13.6813461"><ele>898.2</ele><time>2026-05-02T11:49:58.926Z</time></trkpt><trkpt lat="42.0405239" lon="13.6812586"><ele>897.0</ele><time>2026-05-02T11:49:59.925Z</time></trkpt><trkpt lat="42.0404638" lon="13.6811708"><ele>893.8</ele><time>2026-05-02T11:50:00.926Z</time></trkpt><trkpt lat="42.0404061" lon="13.6810809"><ele>890.6</ele><time>2026-05-02T11:50:01.926Z</time></trkpt><trkpt lat="42.0403415" lon="13.6809849"><ele>887.3999999999999</ele><time>2026-05-02T11:50:02.925Z</time></trkpt><trkpt lat="42.0402841" lon="13.6808824"><ele>884.1999999999999</ele><time>2026-05-02T11:50:03.925Z</time></trkpt><trkpt lat="42.0402241" lon="13.6807859"><ele>881.0</ele><time>2026-05-02T11:50:04.925Z</time></trkpt><trkpt lat="42.0401679" lon="13.6806867"><ele>881.0000000000001</ele><time>2026-05-02T11:50:05.926Z</time></trkpt><trkpt lat="42.0401193" lon="13.6805899"><ele>881.0</ele><time>2026-05-02T11:50:06.925Z</time></trkpt><trkpt lat="42.040069" lon="13.6804951"><ele>881.0</ele><time>2026-05-02T11:50:07.926Z</time></trkpt><trkpt lat="42.0400224" lon="13.6804085"><ele>881.0</ele><time>2026-05-02T11:50:08.925Z</time></trkpt><trkpt lat="42.0399728" lon="13.680324"><ele>881.0000000000001</ele><time>2026-05-02T11:50:09.926Z</time></trkpt><trkpt lat="42.0399207" lon="13.6802353"><ele>881.0</ele><time>2026-05-02T11:50:10.926Z</time></trkpt><trkpt lat="42.0398709" lon="13.6801503"><ele>881.8333333333334</ele><time>2026-05-02T11:50:11.926Z</time></trkpt><trkpt lat="42.0398219" lon="13.6800669"><ele>882.6666666666667</ele><time>2026-05-02T11:50:12.926Z</time></trkpt><trkpt lat="42.0397699" lon="13.6799824"><ele>883.5</ele><time>2026-05-02T11:50:13.926Z</time></trkpt><trkpt lat="42.0397177" lon="13.6798903"><ele>884.3333333333333</ele><time>2026-05-02T11:50:14.925Z</time></trkpt><trkpt lat="42.0396678" lon="13.6798015"><ele>885.1666666666666</ele><time>2026-05-02T11:50:15.927Z</time></trkpt><trkpt lat="42.0396177" lon="13.6797111"><ele>886.0</ele><time>2026-05-02T11:50:16.927Z</time></trkpt><trkpt lat="42.0395681" lon="13.679619"><ele>885.9999999999999</ele><time>2026-05-02T11:50:17.925Z</time></trkpt><trkpt lat="42.0395221" lon="13.6795277"><ele>886.0</ele><time>2026-05-02T11:50:18.926Z</time></trkpt><trkpt lat="42.0394686" lon="13.6794329"><ele>886.0</ele><time>2026-05-02T11:50:19.926Z</time></trkpt><trkpt lat="42.0394199" lon="13.6793462"><ele>886.0</ele><time>2026-05-02T11:50:20.926Z</time></trkpt><trkpt lat="42.0393779" lon="13.6792563"><ele>885.9999999999999</ele><time>2026-05-02T11:50:21.927Z</time></trkpt><trkpt lat="42.03934" lon="13.6791751"><ele>886.0</ele><time>2026-05-02T11:50:22.925Z</time></trkpt><trkpt lat="42.0392941" lon="13.6790884"><ele>886.4999999999999</ele><time>2026-05-02T11:50:23.926Z</time></trkpt><trkpt lat="42.0392568" lon="13.6790047"><ele>887.0</ele><time>2026-05-02T11:50:24.927Z</time></trkpt><trkpt lat="42.0392155" lon="13.6789188"><ele>887.5</ele><time>2026-05-02T11:50:25.926Z</time></trkpt><trkpt lat="42.039158" lon="13.6787923"><ele>888.0</ele><time>2026-05-02T11:50:27.926Z</time></trkpt><trkpt lat="42.0391024" lon="13.6786985"><ele>888.4999999999999</ele><time>2026-05-02T11:50:29.926Z</time></trkpt><trkpt lat="42.0390496" lon="13.6786085"><ele>889.0</ele><time>2026-05-02T11:50:31.926Z</time></trkpt><trkpt lat="42.0390053" lon="13.6785334"><ele>886.1666666666666</ele><time>2026-05-02T11:50:33.925Z</time></trkpt><trkpt lat="42.0389578" lon="13.6784547"><ele>883.3333333333333</ele><time>2026-05-02T11:50:35.926Z</time></trkpt><trkpt lat="42.0389031" lon="13.6783569"><ele>880.5</ele><time>2026-05-02T11:50:37.926Z</time></trkpt><trkpt lat="42.038835" lon="13.6782444"><ele>877.6666666666667</ele><time>2026-05-02T11:50:39.927Z</time></trkpt><trkpt lat="42.0387644" lon="13.6781345"><ele>874.8333333333334</ele><time>2026-05-02T11:50:41.926Z</time></trkpt><trkpt lat="42.0387231" lon="13.6780686"><ele>872.0</ele><time>2026-05-02T11:50:42.925Z</time></trkpt><trkpt lat="42.0386754" lon="13.6779898"><ele>872.0</ele><time>2026-05-02T11:50:43.925Z</time></trkpt><trkpt lat="42.0386171" lon="13.6778871"><ele>872.0</ele><time>2026-05-02T11:50:44.926Z</time></trkpt><trkpt lat="42.0385586" lon="13.6777888"><ele>872.0</ele><time>2026-05-02T11:50:45.927Z</time></trkpt><trkpt lat="42.038491" lon="13.6776982"><ele>872.0</ele><time>2026-05-02T11:50:46.926Z</time></trkpt><trkpt lat="42.0384263" lon="13.6776"><ele>872.0</ele><time>2026-05-02T11:50:47.926Z</time></trkpt><trkpt lat="42.0383625" lon="13.6775017"><ele>870.0</ele><time>2026-05-02T11:50:48.927Z</time></trkpt><trkpt lat="42.0383031" lon="13.6774072"><ele>868.0</ele><time>2026-05-02T11:50:49.926Z</time></trkpt><trkpt lat="42.0382437" lon="13.6773182"><ele>866.0</ele><time>2026-05-02T11:50:50.925Z</time></trkpt><trkpt lat="42.0381678" lon="13.6772337"><ele>864.0</ele><time>2026-05-02T11:50:51.926Z</time></trkpt><trkpt lat="42.0380804" lon="13.677142"><ele>862.0</ele><time>2026-05-02T11:50:52.927Z</time></trkpt><trkpt lat="42.0379957" lon="13.677045"><ele>862.0</ele><time>2026-05-02T11:50:53.926Z</time></trkpt><trkpt lat="42.0379111" lon="13.6769429"><ele>862.0</ele><time>2026-05-02T11:50:54.926Z</time></trkpt><trkpt lat="42.0378307" lon="13.6768474"><ele>862.0</ele><time>2026-05-02T11:50:55.926Z</time></trkpt><trkpt lat="42.0377584" lon="13.6767584"><ele>862.0</ele><time>2026-05-02T11:50:56.927Z</time></trkpt><trkpt lat="42.0376909" lon="13.6766638"><ele>862.0</ele><time>2026-05-02T11:50:57.926Z</time></trkpt><trkpt lat="42.0376271" lon="13.6765774"><ele>859.4000000000001</ele><time>2026-05-02T11:50:58.926Z</time></trkpt><trkpt lat="42.0375574" lon="13.6765077"><ele>856.8000000000001</ele><time>2026-05-02T11:50:59.926Z</time></trkpt><trkpt lat="42.0374898" lon="13.6764321"><ele>854.2</ele><time>2026-05-02T11:51:00.927Z</time></trkpt><trkpt lat="42.0374289" lon="13.6763398"><ele>851.6</ele><time>2026-05-02T11:51:01.926Z</time></trkpt><trkpt lat="42.0373724" lon="13.6762324"><ele>849.0</ele><time>2026-05-02T11:51:02.926Z</time></trkpt><trkpt lat="42.0373184" lon="13.6761397"><ele>847.0</ele><time>2026-05-02T11:51:03.926Z</time></trkpt><trkpt lat="42.0372508" lon="13.6760637"><ele>845.0</ele><time>2026-05-02T11:51:04.926Z</time></trkpt><trkpt lat="42.0371784" lon="13.6759937"><ele>843.0</ele><time>2026-05-02T11:51:05.926Z</time></trkpt><trkpt lat="42.0371141" lon="13.6759231"><ele>841.0</ele><time>2026-05-02T11:51:06.927Z</time></trkpt><trkpt lat="42.0370466" lon="13.6758474"><ele>839.0</ele><time>2026-05-02T11:51:07.927Z</time></trkpt><trkpt lat="42.0369906" lon="13.6757853"><ele>837.0</ele><time>2026-05-02T11:51:08.926Z</time></trkpt><trkpt lat="42.0369336" lon="13.6757355"><ele>837.0</ele><time>2026-05-02T11:51:09.926Z</time></trkpt><trkpt lat="42.0368776" lon="13.6756951"><ele>837.0</ele><time>2026-05-02T11:51:10.926Z</time></trkpt><trkpt lat="42.0368212" lon="13.6756468"><ele>837.0</ele><time>2026-05-02T11:51:11.927Z</time></trkpt><trkpt lat="42.0367615" lon="13.6755943"><ele>837.0</ele><time>2026-05-02T11:51:12.927Z</time></trkpt><trkpt lat="42.0367132" lon="13.6755397"><ele>837.0</ele><time>2026-05-02T11:51:13.926Z</time></trkpt><trkpt lat="42.0366546" lon="13.6754849"><ele>837.0</ele><time>2026-05-02T11:51:14.926Z</time></trkpt><trkpt lat="42.0365366" lon="13.6753978"><ele>837.1666666666666</ele><time>2026-05-02T11:51:16.927Z</time></trkpt><trkpt lat="42.0364776" lon="13.6753483"><ele>837.3333333333333</ele><time>2026-05-02T11:51:17.926Z</time></trkpt><trkpt lat="42.036418" lon="13.6753064"><ele>837.5</ele><time>2026-05-02T11:51:18.926Z</time></trkpt><trkpt lat="42.0363113" lon="13.6752603"><ele>837.6666666666666</ele><time>2026-05-02T11:51:20.925Z</time></trkpt><trkpt lat="42.03619" lon="13.6752722"><ele>837.8333333333333</ele><time>2026-05-02T11:51:22.926Z</time></trkpt><trkpt lat="42.0361249" lon="13.6752764"><ele>838.0</ele><time>2026-05-02T11:51:23.926Z</time></trkpt><trkpt lat="42.0360602" lon="13.6752657"><ele>836.4999999999999</ele><time>2026-05-02T11:51:24.927Z</time></trkpt><trkpt lat="42.0359964" lon="13.6752535"><ele>835.0</ele><time>2026-05-02T11:51:25.927Z</time></trkpt><trkpt lat="42.0359324" lon="13.6752369"><ele>833.5</ele><time>2026-05-02T11:51:26.926Z</time></trkpt><trkpt lat="42.0358124" lon="13.6752006"><ele>832.0</ele><time>2026-05-02T11:51:28.927Z</time></trkpt><trkpt lat="42.03575" lon="13.6751867"><ele>830.4999999999999</ele><time>2026-05-02T11:51:29.925Z</time></trkpt><trkpt lat="42.0356582" lon="13.6751201"><ele>829.0</ele><time>2026-05-02T11:51:31.927Z</time></trkpt><trkpt lat="42.0355668" lon="13.6750251"><ele>828.4000000000001</ele><time>2026-05-02T11:51:33.926Z</time></trkpt><trkpt lat="42.0354696" lon="13.6749208"><ele>827.8</ele><time>2026-05-02T11:51:35.927Z</time></trkpt><trkpt lat="42.0353907" lon="13.6748135"><ele>827.2</ele><time>2026-05-02T11:51:37.926Z</time></trkpt><trkpt lat="42.0352835" lon="13.6747409"><ele>826.5999999999999</ele><time>2026-05-02T11:51:39.926Z</time></trkpt><trkpt lat="42.0352199" lon="13.6747197"><ele>826.0</ele><time>2026-05-02T11:51:40.927Z</time></trkpt><trkpt lat="42.0351188" lon="13.6746901"><ele>826.0</ele><time>2026-05-02T11:51:42.926Z</time></trkpt><trkpt lat="42.0350279" lon="13.6746504"><ele>826.0</ele><time>2026-05-02T11:51:44.926Z</time></trkpt><trkpt lat="42.0349396" lon="13.6746058"><ele>826.0</ele><time>2026-05-02T11:51:46.925Z</time></trkpt><trkpt lat="42.0348579" lon="13.6745307"><ele>826.0</ele><time>2026-05-02T11:51:48.925Z</time></trkpt><trkpt lat="42.0347963" lon="13.6744261"><ele>826.0</ele><time>2026-05-02T11:51:50.926Z</time></trkpt><trkpt lat="42.0347588" lon="13.6742972"><ele>822.1999999999999</ele><time>2026-05-02T11:51:52.927Z</time></trkpt><trkpt lat="42.034734" lon="13.674131"><ele>818.4</ele><time>2026-05-02T11:51:54.926Z</time></trkpt><trkpt lat="42.0347263" lon="13.6740432"><ele>814.6</ele><time>2026-05-02T11:51:55.925Z</time></trkpt><trkpt lat="42.0347163" lon="13.673895"><ele>810.8</ele><time>2026-05-02T11:51:57.926Z</time></trkpt><trkpt lat="42.0347305" lon="13.6737372"><ele>807.0</ele><time>2026-05-02T11:51:59.925Z</time></trkpt><trkpt lat="42.0347591" lon="13.6736528"><ele>808.5</ele><time>2026-05-02T11:52:00.926Z</time></trkpt><trkpt lat="42.0347922" lon="13.6735556"><ele>810.0</ele><time>2026-05-02T11:52:01.925Z</time></trkpt><trkpt lat="42.0348245" lon="13.6734562"><ele>811.5</ele><time>2026-05-02T11:52:02.926Z</time></trkpt><trkpt lat="42.0348538" lon="13.6733473"><ele>813.0</ele><time>2026-05-02T11:52:03.926Z</time></trkpt><trkpt lat="42.0348806" lon="13.6732297"><ele>814.5</ele><time>2026-05-02T11:52:04.927Z</time></trkpt><trkpt lat="42.0349161" lon="13.6731052"><ele>816.0</ele><time>2026-05-02T11:52:05.926Z</time></trkpt><trkpt lat="42.034962" lon="13.6729782"><ele>818.25</ele><time>2026-05-02T11:52:06.926Z</time></trkpt><trkpt lat="42.0350111" lon="13.672844"><ele>820.5</ele><time>2026-05-02T11:52:07.925Z</time></trkpt><trkpt lat="42.0350603" lon="13.672701"><ele>822.75</ele><time>2026-05-02T11:52:08.926Z</time></trkpt><trkpt lat="42.035117" lon="13.6725522"><ele>825.0</ele><time>2026-05-02T11:52:09.925Z</time></trkpt><trkpt lat="42.0351811" lon="13.6723965"><ele>826.25</ele><time>2026-05-02T11:52:10.926Z</time></trkpt><trkpt lat="42.0352431" lon="13.672252"><ele>827.5</ele><time>2026-05-02T11:52:11.926Z</time></trkpt><trkpt lat="42.0352973" lon="13.6721157"><ele>828.75</ele><time>2026-05-02T11:52:12.924Z</time></trkpt><trkpt lat="42.0353465" lon="13.6719705"><ele>830.0</ele><time>2026-05-02T11:52:13.925Z</time></trkpt><trkpt lat="42.0353858" lon="13.6718146"><ele>831.25</ele><time>2026-05-02T11:52:14.926Z</time></trkpt><trkpt lat="42.0354191" lon="13.671656"><ele>832.5</ele><time>2026-05-02T11:52:15.926Z</time></trkpt><trkpt lat="42.0354542" lon="13.671504"><ele>833.75</ele><time>2026-05-02T11:52:16.926Z</time></trkpt><trkpt lat="42.0354928" lon="13.6713504"><ele>835.0</ele><time>2026-05-02T11:52:17.926Z</time></trkpt><trkpt lat="42.0355297" lon="13.6711931"><ele>836.5</ele><time>2026-05-02T11:52:18.926Z</time></trkpt><trkpt lat="42.0355629" lon="13.6710306"><ele>838.0</ele><time>2026-05-02T11:52:19.926Z</time></trkpt><trkpt lat="42.0355882" lon="13.6708675"><ele>839.5</ele><time>2026-05-02T11:52:20.926Z</time></trkpt><trkpt lat="42.0356086" lon="13.6707035"><ele>841.0</ele><time>2026-05-02T11:52:21.924Z</time></trkpt><trkpt lat="42.0356282" lon="13.6705462"><ele>841.0</ele><time>2026-05-02T11:52:22.926Z</time></trkpt><trkpt lat="42.0356439" lon="13.6703858"><ele>841.0</ele><time>2026-05-02T11:52:23.926Z</time></trkpt><trkpt lat="42.0356548" lon="13.6702407"><ele>841.0</ele><time>2026-05-02T11:52:24.926Z</time></trkpt><trkpt lat="42.0356568" lon="13.6700979"><ele>841.0</ele><time>2026-05-02T11:52:25.927Z</time></trkpt><trkpt lat="42.0356491" lon="13.6699453"><ele>841.0</ele><time>2026-05-02T11:52:26.926Z</time></trkpt><trkpt lat="42.0356226" lon="13.6697834"><ele>841.3333333333333</ele><time>2026-05-02T11:52:27.924Z</time></trkpt><trkpt lat="42.0355975" lon="13.6696415"><ele>841.6666666666666</ele><time>2026-05-02T11:52:28.926Z</time></trkpt><trkpt lat="42.0355825" lon="13.6695093"><ele>842.0</ele><time>2026-05-02T11:52:29.926Z</time></trkpt><trkpt lat="42.0355942" lon="13.6694013"><ele>842.3333333333333</ele><time>2026-05-02T11:52:30.925Z</time></trkpt><trkpt lat="42.0356247" lon="13.6693075"><ele>842.6666666666666</ele><time>2026-05-02T11:52:31.926Z</time></trkpt><trkpt lat="42.0356764" lon="13.6692198"><ele>843.0</ele><time>2026-05-02T11:52:32.926Z</time></trkpt><trkpt lat="42.0357444" lon="13.669141"><ele>842.5999999999999</ele><time>2026-05-02T11:52:33.926Z</time></trkpt><trkpt lat="42.0358181" lon="13.6690673"><ele>842.1999999999999</ele><time>2026-05-02T11:52:34.925Z</time></trkpt><trkpt lat="42.0358925" lon="13.6689893"><ele>841.8</ele><time>2026-05-02T11:52:35.925Z</time></trkpt><trkpt lat="42.0359674" lon="13.6689066"><ele>841.4</ele><time>2026-05-02T11:52:36.927Z</time></trkpt><trkpt lat="42.0360446" lon="13.6688325"><ele>841.0</ele><time>2026-05-02T11:52:37.925Z</time></trkpt><trkpt lat="42.0361223" lon="13.668764"><ele>840.9999999999999</ele><time>2026-05-02T11:52:38.926Z</time></trkpt><trkpt lat="42.0361991" lon="13.6687059"><ele>841.0</ele><time>2026-05-02T11:52:39.926Z</time></trkpt><trkpt lat="42.0362587" lon="13.668669"><ele>841.0</ele><time>2026-05-02T11:52:40.924Z</time></trkpt><trkpt lat="42.0363263" lon="13.6686144"><ele>841.0</ele><time>2026-05-02T11:52:42.926Z</time></trkpt><trkpt lat="42.0364364" lon="13.6685866"><ele>840.9999999999999</ele><time>2026-05-02T11:52:45.925Z</time></trkpt><trkpt lat="42.0365018" lon="13.6686075"><ele>841.0</ele><time>2026-05-02T11:52:46.926Z</time></trkpt><trkpt lat="42.0365922" lon="13.6686454"><ele>842.4999999999999</ele><time>2026-05-02T11:52:47.926Z</time></trkpt><trkpt lat="42.0366885" lon="13.6686839"><ele>844.0</ele><time>2026-05-02T11:52:48.925Z</time></trkpt><trkpt lat="42.0367824" lon="13.6687128"><ele>845.5</ele><time>2026-05-02T11:52:49.926Z</time></trkpt><trkpt lat="42.036861" lon="13.6687395"><ele>847.0</ele><time>2026-05-02T11:52:50.927Z</time></trkpt><trkpt lat="42.0369404" lon="13.6687724"><ele>848.4999999999999</ele><time>2026-05-02T11:52:51.926Z</time></trkpt><trkpt lat="42.0370153" lon="13.6687938"><ele>850.0</ele><time>2026-05-02T11:52:52.926Z</time></trkpt><trkpt lat="42.0370822" lon="13.66882"><ele>849.9999999999999</ele><time>2026-05-02T11:52:53.925Z</time></trkpt><trkpt lat="42.0371458" lon="13.6688392"><ele>850.0</ele><time>2026-05-02T11:52:54.926Z</time></trkpt><trkpt lat="42.0372106" lon="13.6688394"><ele>850.0</ele><time>2026-05-02T11:52:56.926Z</time></trkpt><trkpt lat="42.0372711" lon="13.6687524"><ele>850.0</ele><time>2026-05-02T11:52:59.925Z</time></trkpt><trkpt lat="42.0373005" lon="13.6686303"><ele>849.9999999999999</ele><time>2026-05-02T11:53:01.926Z</time></trkpt><trkpt lat="42.0373252" lon="13.6685116"><ele>850.0</ele><time>2026-05-02T11:53:03.925Z</time></trkpt><trkpt lat="42.0373511" lon="13.6683748"><ele>850.1666666666666</ele><time>2026-05-02T11:53:05.925Z</time></trkpt><trkpt lat="42.0373843" lon="13.6682226"><ele>850.3333333333333</ele><time>2026-05-02T11:53:07.925Z</time></trkpt><trkpt lat="42.0373992" lon="13.6681356"><ele>850.5</ele><time>2026-05-02T11:53:08.927Z</time></trkpt><trkpt lat="42.0374195" lon="13.6680351"><ele>850.6666666666667</ele><time>2026-05-02T11:53:09.926Z</time></trkpt><trkpt lat="42.0374384" lon="13.667932"><ele>850.8333333333334</ele><time>2026-05-02T11:53:10.925Z</time></trkpt><trkpt lat="42.0374562" lon="13.6678228"><ele>851.0</ele><time>2026-05-02T11:53:11.926Z</time></trkpt><trkpt lat="42.0374748" lon="13.6677243"><ele>851.5000000000001</ele><time>2026-05-02T11:53:12.927Z</time></trkpt><trkpt lat="42.0374897" lon="13.6676212"><ele>852.0</ele><time>2026-05-02T11:53:13.925Z</time></trkpt><trkpt lat="42.0375011" lon="13.6675126"><ele>852.5</ele><time>2026-05-02T11:53:14.927Z</time></trkpt><trkpt lat="42.0375102" lon="13.6674011"><ele>853.0</ele><time>2026-05-02T11:53:15.925Z</time></trkpt><trkpt lat="42.037522" lon="13.667287"><ele>853.5000000000001</ele><time>2026-05-02T11:53:16.925Z</time></trkpt><trkpt lat="42.0375382" lon="13.6671841"><ele>854.0</ele><time>2026-05-02T11:53:17.926Z</time></trkpt><trkpt lat="42.0375601" lon="13.6670781"><ele>854.0000000000001</ele><time>2026-05-02T11:53:18.926Z</time></trkpt><trkpt lat="42.0375896" lon="13.6669754"><ele>854.0</ele><time>2026-05-02T11:53:19.926Z</time></trkpt><trkpt lat="42.0376338" lon="13.6668677"><ele>854.0</ele><time>2026-05-02T11:53:20.926Z</time></trkpt><trkpt lat="42.0376922" lon="13.6667737"><ele>854.0</ele><time>2026-05-02T11:53:21.926Z</time></trkpt><trkpt lat="42.0377535" lon="13.6666818"><ele>854.0000000000001</ele><time>2026-05-02T11:53:22.926Z</time></trkpt><trkpt lat="42.0377975" lon="13.6665821"><ele>854.0</ele><time>2026-05-02T11:53:23.926Z</time></trkpt><trkpt lat="42.0378437" lon="13.666476"><ele>853.8000000000001</ele><time>2026-05-02T11:53:24.927Z</time></trkpt><trkpt lat="42.0378804" lon="13.6663597"><ele>853.6000000000001</ele><time>2026-05-02T11:53:25.926Z</time></trkpt><trkpt lat="42.0379134" lon="13.666245"><ele>853.4</ele><time>2026-05-02T11:53:26.925Z</time></trkpt><trkpt lat="42.0379384" lon="13.6661353"><ele>853.2</ele><time>2026-05-02T11:53:27.926Z</time></trkpt><trkpt lat="42.0379632" lon="13.6660213"><ele>853.0</ele><time>2026-05-02T11:53:28.926Z</time></trkpt><trkpt lat="42.0379912" lon="13.6658935"><ele>853.0</ele><time>2026-05-02T11:53:29.925Z</time></trkpt><trkpt lat="42.0380106" lon="13.6657565"><ele>853.0</ele><time>2026-05-02T11:53:30.927Z</time></trkpt><trkpt lat="42.0380333" lon="13.6656003"><ele>853.0</ele><time>2026-05-02T11:53:31.926Z</time></trkpt><trkpt lat="42.0380495" lon="13.6654325"><ele>853.0</ele><time>2026-05-02T11:53:32.925Z</time></trkpt><trkpt lat="42.0380731" lon="13.6652586"><ele>853.25</ele><time>2026-05-02T11:53:33.926Z</time></trkpt><trkpt lat="42.0381076" lon="13.665073"><ele>853.5</ele><time>2026-05-02T11:53:34.925Z</time></trkpt><trkpt lat="42.0381488" lon="13.6648939"><ele>853.75</ele><time>2026-05-02T11:53:35.926Z</time></trkpt><trkpt lat="42.0381945" lon="13.6647138"><ele>854.0</ele><time>2026-05-02T11:53:36.924Z</time></trkpt><trkpt lat="42.038242" lon="13.664534"><ele>854.5</ele><time>2026-05-02T11:53:37.925Z</time></trkpt><trkpt lat="42.0382875" lon="13.6643501"><ele>855.0</ele><time>2026-05-02T11:53:38.925Z</time></trkpt><trkpt lat="42.0383302" lon="13.6641681"><ele>855.5</ele><time>2026-05-02T11:53:39.926Z</time></trkpt><trkpt lat="42.0383653" lon="13.6639888"><ele>856.0</ele><time>2026-05-02T11:53:40.926Z</time></trkpt><trkpt lat="42.038394" lon="13.6638112"><ele>856.0</ele><time>2026-05-02T11:53:41.926Z</time></trkpt><trkpt lat="42.0384192" lon="13.6636325"><ele>856.0</ele><time>2026-05-02T11:53:42.926Z</time></trkpt><trkpt lat="42.0384458" lon="13.6634618"><ele>856.0</ele><time>2026-05-02T11:53:43.926Z</time></trkpt><trkpt lat="42.0384773" lon="13.6632917"><ele>856.0</ele><time>2026-05-02T11:53:44.925Z</time></trkpt><trkpt lat="42.0385186" lon="13.6631248"><ele>856.25</ele><time>2026-05-02T11:53:45.926Z</time></trkpt><trkpt lat="42.0385769" lon="13.6629627"><ele>856.5</ele><time>2026-05-02T11:53:46.927Z</time></trkpt><trkpt lat="42.038637" lon="13.6628004"><ele>856.75</ele><time>2026-05-02T11:53:47.926Z</time></trkpt><trkpt lat="42.038691" lon="13.6626324"><ele>857.0</ele><time>2026-05-02T11:53:48.926Z</time></trkpt><trkpt lat="42.038736" lon="13.6624637"><ele>857.75</ele><time>2026-05-02T11:53:49.926Z</time></trkpt><trkpt lat="42.0387777" lon="13.6622981"><ele>858.5</ele><time>2026-05-02T11:53:50.926Z</time></trkpt><trkpt lat="42.0388193" lon="13.6621314"><ele>859.25</ele><time>2026-05-02T11:53:51.926Z</time></trkpt><trkpt lat="42.0388623" lon="13.6619639"><ele>860.0</ele><time>2026-05-02T11:53:52.925Z</time></trkpt><trkpt lat="42.0389031" lon="13.6617978"><ele>860.75</ele><time>2026-05-02T11:53:53.925Z</time></trkpt><trkpt lat="42.0389433" lon="13.6616357"><ele>861.5</ele><time>2026-05-02T11:53:54.925Z</time></trkpt><trkpt lat="42.039005" lon="13.6614749"><ele>862.25</ele><time>2026-05-02T11:53:55.925Z</time></trkpt><trkpt lat="42.0390748" lon="13.6613054"><ele>863.0</ele><time>2026-05-02T11:53:56.927Z</time></trkpt><trkpt lat="42.0391406" lon="13.6611244"><ele>861.6666666666667</ele><time>2026-05-02T11:53:57.926Z</time></trkpt><trkpt lat="42.0392052" lon="13.6609381"><ele>860.3333333333333</ele><time>2026-05-02T11:53:58.926Z</time></trkpt><trkpt lat="42.0392696" lon="13.6607504"><ele>859.0</ele><time>2026-05-02T11:53:59.926Z</time></trkpt><trkpt lat="42.0393295" lon="13.6605554"><ele>859.0</ele><time>2026-05-02T11:54:00.924Z</time></trkpt><trkpt lat="42.0393846" lon="13.6603564"><ele>859.0</ele><time>2026-05-02T11:54:01.925Z</time></trkpt><trkpt lat="42.0394411" lon="13.6601616"><ele>859.0</ele><time>2026-05-02T11:54:02.926Z</time></trkpt><trkpt lat="42.0394965" lon="13.6599681"><ele>859.0</ele><time>2026-05-02T11:54:03.925Z</time></trkpt><trkpt lat="42.0395545" lon="13.6597765"><ele>859.0</ele><time>2026-05-02T11:54:04.924Z</time></trkpt><trkpt lat="42.0396181" lon="13.659596"><ele>859.0</ele><time>2026-05-02T11:54:05.926Z</time></trkpt><trkpt lat="42.0396874" lon="13.6594234"><ele>859.0</ele><time>2026-05-02T11:54:06.926Z</time></trkpt><trkpt lat="42.0397551" lon="13.659253"><ele>859.25</ele><time>2026-05-02T11:54:07.926Z</time></trkpt><trkpt lat="42.0398208" lon="13.6590906"><ele>859.5</ele><time>2026-05-02T11:54:08.926Z</time></trkpt><trkpt lat="42.0398883" lon="13.658946"><ele>859.75</ele><time>2026-05-02T11:54:09.927Z</time></trkpt><trkpt lat="42.0399793" lon="13.6588098"><ele>860.0</ele><time>2026-05-02T11:54:10.926Z</time></trkpt><trkpt lat="42.0400847" lon="13.6586882"><ele>859.25</ele><time>2026-05-02T11:54:11.925Z</time></trkpt><trkpt lat="42.0402044" lon="13.6585763"><ele>858.5</ele><time>2026-05-02T11:54:12.924Z</time></trkpt><trkpt lat="42.0403318" lon="13.6584708"><ele>857.75</ele><time>2026-05-02T11:54:13.926Z</time></trkpt><trkpt lat="42.0404652" lon="13.6583714"><ele>857.0</ele><time>2026-05-02T11:54:14.927Z</time></trkpt><trkpt lat="42.0406124" lon="13.6582676"><ele>857.0</ele><time>2026-05-02T11:54:15.926Z</time></trkpt><trkpt lat="42.0407634" lon="13.6581609"><ele>857.0</ele><time>2026-05-02T11:54:16.924Z</time></trkpt><trkpt lat="42.0409107" lon="13.65806"><ele>857.0</ele><time>2026-05-02T11:54:17.926Z</time></trkpt><trkpt lat="42.0410594" lon="13.6579598"><ele>857.3333333333334</ele><time>2026-05-02T11:54:18.925Z</time></trkpt><trkpt lat="42.0412076" lon="13.6578566"><ele>857.6666666666667</ele><time>2026-05-02T11:54:19.925Z</time></trkpt><trkpt lat="42.041349" lon="13.657757"><ele>858.0</ele><time>2026-05-02T11:54:20.926Z</time></trkpt><trkpt lat="42.0414799" lon="13.6576743"><ele>858.0</ele><time>2026-05-02T11:54:21.926Z</time></trkpt><trkpt lat="42.0415967" lon="13.6576045"><ele>858.0</ele><time>2026-05-02T11:54:22.925Z</time></trkpt><trkpt lat="42.0416939" lon="13.6575478"><ele>858.0</ele><time>2026-05-02T11:54:23.926Z</time></trkpt><trkpt lat="42.0417789" lon="13.6575013"><ele>858.0</ele><time>2026-05-02T11:54:24.926Z</time></trkpt><trkpt lat="42.0418524" lon="13.6574656"><ele>858.0</ele><time>2026-05-02T11:54:25.925Z</time></trkpt><trkpt lat="42.0419221" lon="13.6574296"><ele>858.3333333333334</ele><time>2026-05-02T11:54:26.926Z</time></trkpt><trkpt lat="42.0419931" lon="13.6573904"><ele>858.6666666666667</ele><time>2026-05-02T11:54:27.926Z</time></trkpt><trkpt lat="42.0420534" lon="13.6573543"><ele>859.0</ele><time>2026-05-02T11:54:28.924Z</time></trkpt><trkpt lat="42.0421763" lon="13.6572848"><ele>859.3333333333334</ele><time>2026-05-02T11:54:30.925Z</time></trkpt><trkpt lat="42.0422421" lon="13.6572513"><ele>859.6666666666667</ele><time>2026-05-02T11:54:31.926Z</time></trkpt><trkpt lat="42.0423115" lon="13.6572185"><ele>860.0</ele><time>2026-05-02T11:54:32.925Z</time></trkpt><trkpt lat="42.0423796" lon="13.6571969"><ele>859.8</ele><time>2026-05-02T11:54:33.926Z</time></trkpt><trkpt lat="42.0424833" lon="13.6572343"><ele>859.6</ele><time>2026-05-02T11:54:35.925Z</time></trkpt><trkpt lat="42.0425505" lon="13.6573758"><ele>859.4000000000001</ele><time>2026-05-02T11:54:37.925Z</time></trkpt><trkpt lat="42.0425954" lon="13.6575171"><ele>859.2</ele><time>2026-05-02T11:54:39.926Z</time></trkpt><trkpt lat="42.042607" lon="13.6576188"><ele>859.0</ele><time>2026-05-02T11:54:40.925Z</time></trkpt><trkpt lat="42.0426225" lon="13.6577343"><ele>858.9999999999999</ele><time>2026-05-02T11:54:41.927Z</time></trkpt><trkpt lat="42.0426498" lon="13.657854"><ele>859.0</ele><time>2026-05-02T11:54:42.925Z</time></trkpt><trkpt lat="42.0426824" lon="13.6579861"><ele>859.0</ele><time>2026-05-02T11:54:43.926Z</time></trkpt><trkpt lat="42.0427067" lon="13.6580921"><ele>859.0</ele><time>2026-05-02T11:54:44.924Z</time></trkpt><trkpt lat="42.0427433" lon="13.6581784"><ele>858.9999999999999</ele><time>2026-05-02T11:54:46.926Z</time></trkpt><trkpt lat="42.0428055" lon="13.65816"><ele>859.0</ele><time>2026-05-02T11:54:48.925Z</time></trkpt><trkpt lat="42.0428756" lon="13.6581141"><ele>859.0</ele><time>2026-05-02T11:54:49.926Z</time></trkpt><trkpt lat="42.0429595" lon="13.6580555"><ele>859.0</ele><time>2026-05-02T11:54:50.926Z</time></trkpt><trkpt lat="42.0430612" lon="13.6579884"><ele>859.0</ele><time>2026-05-02T11:54:51.927Z</time></trkpt><trkpt lat="42.0431768" lon="13.657917"><ele>859.0</ele><time>2026-05-02T11:54:52.926Z</time></trkpt><trkpt lat="42.043299" lon="13.6578418"><ele>858.75</ele><time>2026-05-02T11:54:53.926Z</time></trkpt><trkpt lat="42.0434244" lon="13.6577663"><ele>858.5</ele><time>2026-05-02T11:54:54.926Z</time></trkpt><trkpt lat="42.0435526" lon="13.6576974"><ele>858.25</ele><time>2026-05-02T11:54:55.924Z</time></trkpt><trkpt lat="42.0436726" lon="13.657639"><ele>858.0</ele><time>2026-05-02T11:54:56.926Z</time></trkpt><trkpt lat="42.0437874" lon="13.6575786"><ele>858.0</ele><time>2026-05-02T11:54:57.926Z</time></trkpt><trkpt lat="42.0438883" lon="13.6575273"><ele>858.0</ele><time>2026-05-02T11:54:58.926Z</time></trkpt><trkpt lat="42.0439835" lon="13.6574893"><ele>858.0</ele><time>2026-05-02T11:54:59.925Z</time></trkpt><trkpt lat="42.04406" lon="13.6574856"><ele>858.0</ele><time>2026-05-02T11:55:00.926Z</time></trkpt><trkpt lat="42.0441537" lon="13.6575086"><ele>858.0</ele><time>2026-05-02T11:55:01.925Z</time></trkpt><trkpt lat="42.0442484" lon="13.6575256"><ele>858.75</ele><time>2026-05-02T11:55:02.926Z</time></trkpt><trkpt lat="42.04436" lon="13.6575185"><ele>859.5</ele><time>2026-05-02T11:55:03.924Z</time></trkpt><trkpt lat="42.0444849" lon="13.6574765"><ele>860.25</ele><time>2026-05-02T11:55:04.926Z</time></trkpt><trkpt lat="42.0445913" lon="13.657438"><ele>861.0</ele><time>2026-05-02T11:55:05.925Z</time></trkpt><trkpt lat="42.0446904" lon="13.6573988"><ele>861.0</ele><time>2026-05-02T11:55:06.926Z</time></trkpt><trkpt lat="42.0447803" lon="13.657351"><ele>860.9999999999999</ele><time>2026-05-02T11:55:07.927Z</time></trkpt><trkpt lat="42.0448873" lon="13.6573149"><ele>860.9999999999999</ele><time>2026-05-02T11:55:08.924Z</time></trkpt><trkpt lat="42.0449932" lon="13.6572907"><ele>861.0</ele><time>2026-05-02T11:55:09.926Z</time></trkpt><trkpt lat="42.0450871" lon="13.6572548"><ele>861.0</ele><time>2026-05-02T11:55:10.926Z</time></trkpt><trkpt lat="42.0451762" lon="13.6572292"><ele>861.4</ele><time>2026-05-02T11:55:11.925Z</time></trkpt><trkpt lat="42.0452772" lon="13.6572259"><ele>861.8</ele><time>2026-05-02T11:55:12.925Z</time></trkpt><trkpt lat="42.045385" lon="13.6572103"><ele>862.1999999999999</ele><time>2026-05-02T11:55:13.926Z</time></trkpt><trkpt lat="42.045496" lon="13.6571759"><ele>862.5999999999999</ele><time>2026-05-02T11:55:14.925Z</time></trkpt><trkpt lat="42.0456143" lon="13.6571328"><ele>863.0</ele><time>2026-05-02T11:55:15.924Z</time></trkpt><trkpt lat="42.0457248" lon="13.6570785"><ele>863.0</ele><time>2026-05-02T11:55:16.926Z</time></trkpt><trkpt lat="42.0458281" lon="13.6570298"><ele>863.0</ele><time>2026-05-02T11:55:17.925Z</time></trkpt><trkpt lat="42.0459285" lon="13.6569767"><ele>863.0</ele><time>2026-05-02T11:55:18.924Z</time></trkpt><trkpt lat="42.0460176" lon="13.6569151"><ele>863.0</ele><time>2026-05-02T11:55:19.925Z</time></trkpt><trkpt lat="42.0460958" lon="13.6568312"><ele>863.0</ele><time>2026-05-02T11:55:20.926Z</time></trkpt><trkpt lat="42.0461741" lon="13.6567459"><ele>863.2</ele><time>2026-05-02T11:55:21.925Z</time></trkpt><trkpt lat="42.0462557" lon="13.6566748"><ele>863.4</ele><time>2026-05-02T11:55:22.926Z</time></trkpt><trkpt lat="42.0463543" lon="13.6566216"><ele>863.6000000000001</ele><time>2026-05-02T11:55:23.926Z</time></trkpt><trkpt lat="42.0464543" lon="13.6565635"><ele>863.8000000000001</ele><time>2026-05-02T11:55:24.926Z</time></trkpt><trkpt lat="42.0465446" lon="13.6564754"><ele>864.0</ele><time>2026-05-02T11:55:25.926Z</time></trkpt><trkpt lat="42.046636" lon="13.6563752"><ele>864.0</ele><time>2026-05-02T11:55:26.927Z</time></trkpt><trkpt lat="42.0467315" lon="13.6562917"><ele>864.0</ele><time>2026-05-02T11:55:27.926Z</time></trkpt><trkpt lat="42.046844" lon="13.6562168"><ele>864.0</ele><time>2026-05-02T11:55:28.925Z</time></trkpt><trkpt lat="42.0469716" lon="13.6561494"><ele>864.0</ele><time>2026-05-02T11:55:29.926Z</time></trkpt><trkpt lat="42.0470987" lon="13.6560846"><ele>863.5</ele><time>2026-05-02T11:55:30.926Z</time></trkpt><trkpt lat="42.047211" lon="13.6559997"><ele>863.0</ele><time>2026-05-02T11:55:31.926Z</time></trkpt><trkpt lat="42.0473225" lon="13.6558958"><ele>862.5</ele><time>2026-05-02T11:55:32.925Z</time></trkpt><trkpt lat="42.0474293" lon="13.6557913"><ele>862.0</ele><time>2026-05-02T11:55:33.926Z</time></trkpt><trkpt lat="42.0475315" lon="13.6556929"><ele>862.0</ele><time>2026-05-02T11:55:34.926Z</time></trkpt><trkpt lat="42.0476272" lon="13.6556111"><ele>862.0</ele><time>2026-05-02T11:55:35.925Z</time></trkpt><trkpt lat="42.0477152" lon="13.6555337"><ele>862.0</ele><time>2026-05-02T11:55:36.925Z</time></trkpt><trkpt lat="42.0478038" lon="13.6554384"><ele>862.0</ele><time>2026-05-02T11:55:37.925Z</time></trkpt><trkpt lat="42.0478924" lon="13.6553229"><ele>861.0</ele><time>2026-05-02T11:55:38.926Z</time></trkpt><trkpt lat="42.0479711" lon="13.6551974"><ele>860.0</ele><time>2026-05-02T11:55:39.926Z</time></trkpt><trkpt lat="42.0480457" lon="13.6550827"><ele>859.0</ele><time>2026-05-02T11:55:40.926Z</time></trkpt><trkpt lat="42.0481165" lon="13.6549826"><ele>858.0</ele><time>2026-05-02T11:55:41.925Z</time></trkpt><trkpt lat="42.0481862" lon="13.6548902"><ele>857.0</ele><time>2026-05-02T11:55:42.925Z</time></trkpt><trkpt lat="42.0482587" lon="13.6547984"><ele>857.4000000000001</ele><time>2026-05-02T11:55:43.925Z</time></trkpt><trkpt lat="42.048324" lon="13.6546913"><ele>857.8000000000001</ele><time>2026-05-02T11:55:44.926Z</time></trkpt><trkpt lat="42.0483789" lon="13.654573"><ele>858.2</ele><time>2026-05-02T11:55:45.926Z</time></trkpt><trkpt lat="42.0484354" lon="13.6544594"><ele>858.6</ele><time>2026-05-02T11:55:46.926Z</time></trkpt><trkpt lat="42.0485021" lon="13.6543654"><ele>859.0</ele><time>2026-05-02T11:55:47.926Z</time></trkpt><trkpt lat="42.0485831" lon="13.6542847"><ele>858.9999999999999</ele><time>2026-05-02T11:55:48.925Z</time></trkpt><trkpt lat="42.0486644" lon="13.6542253"><ele>859.0</ele><time>2026-05-02T11:55:49.924Z</time></trkpt><trkpt lat="42.0487348" lon="13.6541582"><ele>859.0</ele><time>2026-05-02T11:55:50.926Z</time></trkpt><trkpt lat="42.0487931" lon="13.6540746"><ele>859.0</ele><time>2026-05-02T11:55:51.925Z</time></trkpt><trkpt lat="42.0488496" lon="13.6539825"><ele>858.9999999999999</ele><time>2026-05-02T11:55:52.926Z</time></trkpt><trkpt lat="42.0489075" lon="13.6539011"><ele>859.0</ele><time>2026-05-02T11:55:53.925Z</time></trkpt><trkpt lat="42.0489757" lon="13.6538321"><ele>859.0</ele><time>2026-05-02T11:55:54.925Z</time></trkpt><trkpt lat="42.0490573" lon="13.6537556"><ele>859.0000000000001</ele><time>2026-05-02T11:55:55.926Z</time></trkpt><trkpt lat="42.0491471" lon="13.653679"><ele>859.0000000000001</ele><time>2026-05-02T11:55:56.925Z</time></trkpt><trkpt lat="42.0492363" lon="13.6536021"><ele>859.0</ele><time>2026-05-02T11:55:57.924Z</time></trkpt><trkpt lat="42.0493026" lon="13.6535144"><ele>859.0</ele><time>2026-05-02T11:55:58.926Z</time></trkpt><trkpt lat="42.0493581" lon="13.6534102"><ele>858.6</ele><time>2026-05-02T11:55:59.927Z</time></trkpt><trkpt lat="42.0494221" lon="13.6533029"><ele>858.2</ele><time>2026-05-02T11:56:00.924Z</time></trkpt><trkpt lat="42.0494982" lon="13.6532005"><ele>857.8000000000001</ele><time>2026-05-02T11:56:01.925Z</time></trkpt><trkpt lat="42.0495804" lon="13.6531103"><ele>857.4000000000001</ele><time>2026-05-02T11:56:02.925Z</time></trkpt><trkpt lat="42.0496521" lon="13.6530281"><ele>857.0</ele><time>2026-05-02T11:56:03.926Z</time></trkpt><trkpt lat="42.0497043" lon="13.652959"><ele>857.0000000000001</ele><time>2026-05-02T11:56:04.926Z</time></trkpt><trkpt lat="42.0497377" lon="13.6528803"><ele>857.0</ele><time>2026-05-02T11:56:05.925Z</time></trkpt><trkpt lat="42.0497693" lon="13.6527836"><ele>857.0</ele><time>2026-05-02T11:56:06.925Z</time></trkpt><trkpt lat="42.0498159" lon="13.6526893"><ele>857.0</ele><time>2026-05-02T11:56:07.925Z</time></trkpt><trkpt lat="42.0498738" lon="13.65261"><ele>857.0000000000001</ele><time>2026-05-02T11:56:08.926Z</time></trkpt><trkpt lat="42.0499283" lon="13.6525457"><ele>857.0</ele><time>2026-05-02T11:56:09.926Z</time></trkpt><trkpt lat="42.050029" lon="13.6525034"><ele>857.1666666666667</ele><time>2026-05-02T11:56:11.926Z</time></trkpt><trkpt lat="42.0500931" lon="13.6524997"><ele>857.3333333333334</ele><time>2026-05-02T11:56:12.926Z</time></trkpt><trkpt lat="42.0501633" lon="13.6524824"><ele>857.5</ele><time>2026-05-02T11:56:13.925Z</time></trkpt><trkpt lat="42.0502345" lon="13.6524453"><ele>857.6666666666667</ele><time>2026-05-02T11:56:14.925Z</time></trkpt><trkpt lat="42.0503084" lon="13.6523885"><ele>857.8333333333334</ele><time>2026-05-02T11:56:15.925Z</time></trkpt><trkpt lat="42.050381" lon="13.6523084"><ele>858.0</ele><time>2026-05-02T11:56:16.926Z</time></trkpt><trkpt lat="42.0504595" lon="13.6522117"><ele>858.0</ele><time>2026-05-02T11:56:17.925Z</time></trkpt><trkpt lat="42.0505441" lon="13.6521153"><ele>858.0</ele><time>2026-05-02T11:56:18.926Z</time></trkpt><trkpt lat="42.0506246" lon="13.6520223"><ele>858.0</ele><time>2026-05-02T11:56:19.924Z</time></trkpt><trkpt lat="42.0506869" lon="13.6519336"><ele>858.0</ele><time>2026-05-02T11:56:20.925Z</time></trkpt><trkpt lat="42.0507361" lon="13.651845"><ele>858.0</ele><time>2026-05-02T11:56:21.924Z</time></trkpt><trkpt lat="42.0507799" lon="13.6517599"><ele>858.5714285714286</ele><time>2026-05-02T11:56:22.925Z</time></trkpt><trkpt lat="42.0508222" lon="13.6516764"><ele>859.1428571428571</ele><time>2026-05-02T11:56:23.925Z</time></trkpt><trkpt lat="42.0508579" lon="13.6515968"><ele>859.7142857142858</ele><time>2026-05-02T11:56:24.926Z</time></trkpt><trkpt lat="42.0508888" lon="13.6515223"><ele>860.2857142857142</ele><time>2026-05-02T11:56:25.925Z</time></trkpt><trkpt lat="42.0509203" lon="13.6514425"><ele>860.8571428571428</ele><time>2026-05-02T11:56:26.925Z</time></trkpt><trkpt lat="42.0509521" lon="13.6513515"><ele>861.4285714285714</ele><time>2026-05-02T11:56:27.925Z</time></trkpt><trkpt lat="42.0509773" lon="13.651258"><ele>862.0</ele><time>2026-05-02T11:56:28.924Z</time></trkpt><trkpt lat="42.050996" lon="13.6511646"><ele>861.3333333333333</ele><time>2026-05-02T11:56:29.925Z</time></trkpt><trkpt lat="42.0509945" lon="13.6510707"><ele>860.6666666666666</ele><time>2026-05-02T11:56:30.925Z</time></trkpt><trkpt lat="42.0509757" lon="13.6509696"><ele>860.0</ele><time>2026-05-02T11:56:31.926Z</time></trkpt><trkpt lat="42.050942" lon="13.6508753"><ele>859.3333333333333</ele><time>2026-05-02T11:56:32.926Z</time></trkpt><trkpt lat="42.0509157" lon="13.6507719"><ele>858.6666666666666</ele><time>2026-05-02T11:56:33.925Z</time></trkpt><trkpt lat="42.0508891" lon="13.6506666"><ele>858.0</ele><time>2026-05-02T11:56:34.926Z</time></trkpt><trkpt lat="42.0508792" lon="13.6505625"><ele>858.0</ele><time>2026-05-02T11:56:35.925Z</time></trkpt><trkpt lat="42.050876" lon="13.6504668"><ele>858.0</ele><time>2026-05-02T11:56:36.927Z</time></trkpt><trkpt lat="42.0508837" lon="13.6503732"><ele>858.0</ele><time>2026-05-02T11:56:37.924Z</time></trkpt><trkpt lat="42.0509173" lon="13.6502842"><ele>858.0</ele><time>2026-05-02T11:56:38.925Z</time></trkpt><trkpt lat="42.0509726" lon="13.6501806"><ele>858.0</ele><time>2026-05-02T11:56:39.926Z</time></trkpt><trkpt lat="42.0510372" lon="13.6500758"><ele>858.0</ele><time>2026-05-02T11:56:40.924Z</time></trkpt><trkpt lat="42.0511084" lon="13.6499678"><ele>856.75</ele><time>2026-05-02T11:56:41.926Z</time></trkpt><trkpt lat="42.0511857" lon="13.6498535"><ele>855.5</ele><time>2026-05-02T11:56:42.925Z</time></trkpt><trkpt lat="42.0512631" lon="13.6497342"><ele>854.25</ele><time>2026-05-02T11:56:43.924Z</time></trkpt><trkpt lat="42.0513476" lon="13.6496124"><ele>853.0</ele><time>2026-05-02T11:56:44.927Z</time></trkpt><trkpt lat="42.0514299" lon="13.6494874"><ele>852.75</ele><time>2026-05-02T11:56:45.926Z</time></trkpt><trkpt lat="42.0514907" lon="13.6493591"><ele>852.5</ele><time>2026-05-02T11:56:46.924Z</time></trkpt><trkpt lat="42.0515482" lon="13.6492197"><ele>852.25</ele><time>2026-05-02T11:56:47.925Z</time></trkpt><trkpt lat="42.0515967" lon="13.6490699"><ele>852.0</ele><time>2026-05-02T11:56:48.925Z</time></trkpt><trkpt lat="42.0516435" lon="13.6489229"><ele>852.0</ele><time>2026-05-02T11:56:49.925Z</time></trkpt><trkpt lat="42.0517012" lon="13.6487803"><ele>852.0</ele><time>2026-05-02T11:56:50.925Z</time></trkpt><trkpt lat="42.0517728" lon="13.6486506"><ele>852.0</ele><time>2026-05-02T11:56:51.926Z</time></trkpt><trkpt lat="42.051856" lon="13.6485247"><ele>852.0</ele><time>2026-05-02T11:56:52.924Z</time></trkpt><trkpt lat="42.051954" lon="13.6483956"><ele>852.0</ele><time>2026-05-02T11:56:53.926Z</time></trkpt><trkpt lat="42.0520482" lon="13.6482737"><ele>852.0</ele><time>2026-05-02T11:56:54.926Z</time></trkpt><trkpt lat="42.0521436" lon="13.6481595"><ele>852.0</ele><time>2026-05-02T11:56:55.927Z</time></trkpt><trkpt lat="42.0522371" lon="13.6480498"><ele>852.0</ele><time>2026-05-02T11:56:56.925Z</time></trkpt><trkpt lat="42.0523327" lon="13.6479397"><ele>852.0</ele><time>2026-05-02T11:56:57.925Z</time></trkpt><trkpt lat="42.0524273" lon="13.6478321"><ele>852.0</ele><time>2026-05-02T11:56:58.925Z</time></trkpt><trkpt lat="42.0525272" lon="13.6477416"><ele>852.0</ele><time>2026-05-02T11:56:59.924Z</time></trkpt><trkpt lat="42.0526141" lon="13.6476387"><ele>852.0</ele><time>2026-05-02T11:57:00.926Z</time></trkpt><trkpt lat="42.0527038" lon="13.647511"><ele>852.25</ele><time>2026-05-02T11:57:01.927Z</time></trkpt><trkpt lat="42.0527919" lon="13.6473987"><ele>852.5</ele><time>2026-05-02T11:57:02.925Z</time></trkpt><trkpt lat="42.0528804" lon="13.6472937"><ele>852.75</ele><time>2026-05-02T11:57:03.926Z</time></trkpt><trkpt lat="42.0529777" lon="13.6471813"><ele>853.0</ele><time>2026-05-02T11:57:04.927Z</time></trkpt><trkpt lat="42.0530726" lon="13.6470901"><ele>853.0</ele><time>2026-05-02T11:57:05.925Z</time></trkpt><trkpt lat="42.0531644" lon="13.6470096"><ele>853.0</ele><time>2026-05-02T11:57:06.925Z</time></trkpt><trkpt lat="42.0532472" lon="13.6469403"><ele>853.0</ele><time>2026-05-02T11:57:07.924Z</time></trkpt><trkpt lat="42.0533212" lon="13.6468756"><ele>853.0</ele><time>2026-05-02T11:57:08.926Z</time></trkpt><trkpt lat="42.0533923" lon="13.6468099"><ele>853.0</ele><time>2026-05-02T11:57:09.927Z</time></trkpt><trkpt lat="42.0534551" lon="13.6467364"><ele>853.3333333333333</ele><time>2026-05-02T11:57:10.925Z</time></trkpt><trkpt lat="42.0535168" lon="13.6466691"><ele>853.6666666666666</ele><time>2026-05-02T11:57:11.926Z</time></trkpt><trkpt lat="42.0535818" lon="13.6465969"><ele>854.0</ele><time>2026-05-02T11:57:12.925Z</time></trkpt><trkpt lat="42.0536467" lon="13.6465257"><ele>854.3333333333333</ele><time>2026-05-02T11:57:13.924Z</time></trkpt><trkpt lat="42.0537081" lon="13.6464618"><ele>854.6666666666666</ele><time>2026-05-02T11:57:14.925Z</time></trkpt><trkpt lat="42.0537738" lon="13.6463932"><ele>855.0</ele><time>2026-05-02T11:57:15.927Z</time></trkpt><trkpt lat="42.0538395" lon="13.646314"><ele>855.0</ele><time>2026-05-02T11:57:16.926Z</time></trkpt><trkpt lat="42.0539141" lon="13.6462257"><ele>855.0</ele><time>2026-05-02T11:57:17.925Z</time></trkpt><trkpt lat="42.0539889" lon="13.6461351"><ele>855.0</ele><time>2026-05-02T11:57:18.927Z</time></trkpt><trkpt lat="42.054071" lon="13.6460387"><ele>855.0</ele><time>2026-05-02T11:57:19.925Z</time></trkpt><trkpt lat="42.0541597" lon="13.6459418"><ele>855.0</ele><time>2026-05-02T11:57:20.926Z</time></trkpt><trkpt lat="42.0542516" lon="13.6458358"><ele>854.5</ele><time>2026-05-02T11:57:21.924Z</time></trkpt><trkpt lat="42.0543502" lon="13.6457247"><ele>854.0</ele><time>2026-05-02T11:57:22.926Z</time></trkpt><trkpt lat="42.0544517" lon="13.6456155"><ele>853.5</ele><time>2026-05-02T11:57:23.925Z</time></trkpt><trkpt lat="42.0545441" lon="13.6455017"><ele>853.0</ele><time>2026-05-02T11:57:24.926Z</time></trkpt><trkpt lat="42.054638" lon="13.6453873"><ele>852.0</ele><time>2026-05-02T11:57:25.925Z</time></trkpt><trkpt lat="42.0547259" lon="13.6452735"><ele>851.0</ele><time>2026-05-02T11:57:26.925Z</time></trkpt><trkpt lat="42.0547958" lon="13.6451397"><ele>850.0</ele><time>2026-05-02T11:57:27.926Z</time></trkpt><trkpt lat="42.0548687" lon="13.6450083"><ele>849.0</ele><time>2026-05-02T11:57:28.925Z</time></trkpt><trkpt lat="42.0549226" lon="13.6448655"><ele>849.4000000000001</ele><time>2026-05-02T11:57:29.925Z</time></trkpt><trkpt lat="42.0549688" lon="13.6447162"><ele>849.8</ele><time>2026-05-02T11:57:30.925Z</time></trkpt><trkpt lat="42.0550001" lon="13.6445637"><ele>850.2</ele><time>2026-05-02T11:57:31.926Z</time></trkpt><trkpt lat="42.0550253" lon="13.6444204"><ele>850.5999999999999</ele><time>2026-05-02T11:57:32.927Z</time></trkpt><trkpt lat="42.0550505" lon="13.6442928"><ele>851.0</ele><time>2026-05-02T11:57:33.927Z</time></trkpt><trkpt lat="42.0550796" lon="13.6441883"><ele>851.0</ele><time>2026-05-02T11:57:34.925Z</time></trkpt><trkpt lat="42.0551168" lon="13.6440873"><ele>851.0</ele><time>2026-05-02T11:57:35.925Z</time></trkpt><trkpt lat="42.0551533" lon="13.6439713"><ele>851.0</ele><time>2026-05-02T11:57:36.926Z</time></trkpt><trkpt lat="42.0551896" lon="13.6438293"><ele>851.0</ele><time>2026-05-02T11:57:37.925Z</time></trkpt><trkpt lat="42.0552227" lon="13.6436764"><ele>851.0</ele><time>2026-05-02T11:57:38.925Z</time></trkpt><trkpt lat="42.055255" lon="13.6435269"><ele>851.25</ele><time>2026-05-02T11:57:39.925Z</time></trkpt><trkpt lat="42.0552856" lon="13.6433785"><ele>851.5</ele><time>2026-05-02T11:57:40.926Z</time></trkpt><trkpt lat="42.0553108" lon="13.6432248"><ele>851.75</ele><time>2026-05-02T11:57:41.925Z</time></trkpt><trkpt lat="42.0553378" lon="13.6430744"><ele>852.0</ele><time>2026-05-02T11:57:42.926Z</time></trkpt><trkpt lat="42.0553748" lon="13.6429307"><ele>851.8</ele><time>2026-05-02T11:57:43.927Z</time></trkpt><trkpt lat="42.055421" lon="13.6427894"><ele>851.6</ele><time>2026-05-02T11:57:44.925Z</time></trkpt><trkpt lat="42.0554775" lon="13.6426472"><ele>851.4</ele><time>2026-05-02T11:57:45.925Z</time></trkpt><trkpt lat="42.0555326" lon="13.6425144"><ele>851.1999999999999</ele><time>2026-05-02T11:57:46.925Z</time></trkpt><trkpt lat="42.0555828" lon="13.6423999"><ele>851.0</ele><time>2026-05-02T11:57:47.926Z</time></trkpt><trkpt lat="42.0556377" lon="13.6423132"><ele>851.0</ele><time>2026-05-02T11:57:48.924Z</time></trkpt><trkpt lat="42.0557091" lon="13.6422454"><ele>851.0</ele><time>2026-05-02T11:57:49.926Z</time></trkpt><trkpt lat="42.0557995" lon="13.6421944"><ele>851.0</ele><time>2026-05-02T11:57:50.926Z</time></trkpt><trkpt lat="42.0559022" lon="13.6421531"><ele>851.0</ele><time>2026-05-02T11:57:51.926Z</time></trkpt><trkpt lat="42.0560191" lon="13.6421173"><ele>851.0</ele><time>2026-05-02T11:57:52.924Z</time></trkpt><trkpt lat="42.0561402" lon="13.6420736"><ele>851.5</ele><time>2026-05-02T11:57:53.925Z</time></trkpt><trkpt lat="42.0562577" lon="13.6420062"><ele>852.0</ele><time>2026-05-02T11:57:54.925Z</time></trkpt><trkpt lat="42.0563812" lon="13.6419371"><ele>852.5</ele><time>2026-05-02T11:57:55.925Z</time></trkpt><trkpt lat="42.0565046" lon="13.6418819"><ele>853.0</ele><time>2026-05-02T11:57:56.926Z</time></trkpt><trkpt lat="42.0566346" lon="13.6418301"><ele>853.0</ele><time>2026-05-02T11:57:57.925Z</time></trkpt><trkpt lat="42.0567618" lon="13.6417793"><ele>853.0</ele><time>2026-05-02T11:57:58.926Z</time></trkpt><trkpt lat="42.0568763" lon="13.6417367"><ele>853.0</ele><time>2026-05-02T11:57:59.925Z</time></trkpt><trkpt lat="42.0569901" lon="13.6417104"><ele>853.0</ele><time>2026-05-02T11:58:00.926Z</time></trkpt><trkpt lat="42.0571033" lon="13.6417116"><ele>853.0</ele><time>2026-05-02T11:58:01.925Z</time></trkpt><trkpt lat="42.0572124" lon="13.641732"><ele>853.0</ele><time>2026-05-02T11:58:02.925Z</time></trkpt><trkpt lat="42.0573202" lon="13.6417496"><ele>853.0</ele><time>2026-05-02T11:58:03.925Z</time></trkpt><trkpt lat="42.0574284" lon="13.6417565"><ele>853.0</ele><time>2026-05-02T11:58:04.925Z</time></trkpt><trkpt lat="42.0575358" lon="13.6417541"><ele>853.0</ele><time>2026-05-02T11:58:05.926Z</time></trkpt><trkpt lat="42.057644" lon="13.6417417"><ele>853.5</ele><time>2026-05-02T11:58:06.925Z</time></trkpt><trkpt lat="42.0577567" lon="13.6417043"><ele>854.0</ele><time>2026-05-02T11:58:07.926Z</time></trkpt><trkpt lat="42.057869" lon="13.6416428"><ele>854.5</ele><time>2026-05-02T11:58:08.925Z</time></trkpt><trkpt lat="42.0579818" lon="13.6415813"><ele>855.0</ele><time>2026-05-02T11:58:09.925Z</time></trkpt><trkpt lat="42.0581014" lon="13.6415301"><ele>855.0</ele><time>2026-05-02T11:58:10.925Z</time></trkpt><trkpt lat="42.0582154" lon="13.6414803"><ele>855.0</ele><time>2026-05-02T11:58:11.925Z</time></trkpt><trkpt lat="42.0583233" lon="13.6414235"><ele>855.0</ele><time>2026-05-02T11:58:12.924Z</time></trkpt><trkpt lat="42.0584305" lon="13.6413642"><ele>855.0</ele><time>2026-05-02T11:58:13.926Z</time></trkpt><trkpt lat="42.05854" lon="13.6413116"><ele>855.5</ele><time>2026-05-02T11:58:14.925Z</time></trkpt><trkpt lat="42.0586482" lon="13.6412607"><ele>856.0</ele><time>2026-05-02T11:58:15.925Z</time></trkpt><trkpt lat="42.0587598" lon="13.6412184"><ele>856.5</ele><time>2026-05-02T11:58:16.924Z</time></trkpt><trkpt lat="42.0588768" lon="13.6411891"><ele>857.0</ele><time>2026-05-02T11:58:17.925Z</time></trkpt><trkpt lat="42.0589996" lon="13.641172"><ele>857.5</ele><time>2026-05-02T11:58:18.926Z</time></trkpt><trkpt lat="42.0591228" lon="13.6411562"><ele>858.0</ele><time>2026-05-02T11:58:19.926Z</time></trkpt><trkpt lat="42.0592456" lon="13.6411357"><ele>858.5</ele><time>2026-05-02T11:58:20.925Z</time></trkpt><trkpt lat="42.0593679" lon="13.6411227"><ele>859.0</ele><time>2026-05-02T11:58:21.925Z</time></trkpt><trkpt lat="42.0594806" lon="13.6411203"><ele>858.9999999999999</ele><time>2026-05-02T11:58:22.926Z</time></trkpt><trkpt lat="42.0595772" lon="13.6411158"><ele>859.0</ele><time>2026-05-02T11:58:23.926Z</time></trkpt><trkpt lat="42.0596525" lon="13.6411123"><ele>859.0</ele><time>2026-05-02T11:58:24.924Z</time></trkpt><trkpt lat="42.0597165" lon="13.641118"><ele>859.0</ele><time>2026-05-02T11:58:25.924Z</time></trkpt><trkpt lat="42.0598139" lon="13.6411319"><ele>858.9999999999999</ele><time>2026-05-02T11:58:27.926Z</time></trkpt><trkpt lat="42.0598938" lon="13.6411379"><ele>859.0</ele><time>2026-05-02T11:58:29.925Z</time></trkpt><trkpt lat="42.0599653" lon="13.6411253"><ele>859.2</ele><time>2026-05-02T11:58:48.925Z</time></trkpt><trkpt lat="42.060057" lon="13.6411355"><ele>859.4000000000001</ele><time>2026-05-02T11:58:50.925Z</time></trkpt><trkpt lat="42.0601765" lon="13.6411577"><ele>859.6</ele><time>2026-05-02T11:58:52.926Z</time></trkpt><trkpt lat="42.0602501" lon="13.6411761"><ele>859.8</ele><time>2026-05-02T11:58:53.924Z</time></trkpt><trkpt lat="42.0603392" lon="13.6411865"><ele>860.0</ele><time>2026-05-02T11:58:54.925Z</time></trkpt><trkpt lat="42.0604302" lon="13.6411919"><ele>860.0</ele><time>2026-05-02T11:58:55.926Z</time></trkpt><trkpt lat="42.0605319" lon="13.6411903"><ele>860.0</ele><time>2026-05-02T11:58:56.925Z</time></trkpt><trkpt lat="42.0606412" lon="13.6411855"><ele>860.0</ele><time>2026-05-02T11:58:57.924Z</time></trkpt><trkpt lat="42.0607551" lon="13.641177"><ele>860.0</ele><time>2026-05-02T11:58:58.925Z</time></trkpt><trkpt lat="42.0608712" lon="13.6411679"><ele>860.0</ele><time>2026-05-02T11:58:59.926Z</time></trkpt><trkpt lat="42.0609889" lon="13.6411473"><ele>860.0</ele><time>2026-05-02T11:59:00.925Z</time></trkpt><trkpt lat="42.0611105" lon="13.6411137"><ele>860.0</ele><time>2026-05-02T11:59:01.924Z</time></trkpt><trkpt lat="42.0612296" lon="13.6410775"><ele>860.0</ele><time>2026-05-02T11:59:02.925Z</time></trkpt><trkpt lat="42.0613481" lon="13.6410421"><ele>860.0</ele><time>2026-05-02T11:59:03.924Z</time></trkpt><trkpt lat="42.0614643" lon="13.6410058"><ele>860.0</ele><time>2026-05-02T11:59:04.925Z</time></trkpt><trkpt lat="42.0615801" lon="13.6409659"><ele>860.0</ele><time>2026-05-02T11:59:05.925Z</time></trkpt><trkpt lat="42.0616895" lon="13.640915"><ele>860.0</ele><time>2026-05-02T11:59:06.924Z</time></trkpt><trkpt lat="42.0617904" lon="13.640855"><ele>860.0</ele><time>2026-05-02T11:59:07.925Z</time></trkpt><trkpt lat="42.0618845" lon="13.6407711"><ele>861.75</ele><time>2026-05-02T11:59:08.926Z</time></trkpt><trkpt lat="42.0619865" lon="13.6406809"><ele>863.5</ele><time>2026-05-02T11:59:09.926Z</time></trkpt><trkpt lat="42.062083" lon="13.6405872"><ele>865.25</ele><time>2026-05-02T11:59:10.926Z</time></trkpt><trkpt lat="42.0621781" lon="13.6404871"><ele>867.0</ele><time>2026-05-02T11:59:11.925Z</time></trkpt><trkpt lat="42.0622768" lon="13.6403855"><ele>867.0</ele><time>2026-05-02T11:59:12.926Z</time></trkpt><trkpt lat="42.0623667" lon="13.6402794"><ele>867.0</ele><time>2026-05-02T11:59:13.925Z</time></trkpt><trkpt lat="42.0624482" lon="13.6401771"><ele>867.0</ele><time>2026-05-02T11:59:14.924Z</time></trkpt><trkpt lat="42.062529" lon="13.6400719"><ele>867.0</ele><time>2026-05-02T11:59:15.926Z</time></trkpt><trkpt lat="42.0626115" lon="13.6399774"><ele>867.0</ele><time>2026-05-02T11:59:16.925Z</time></trkpt><trkpt lat="42.0627025" lon="13.6398873"><ele>867.0</ele><time>2026-05-02T11:59:17.925Z</time></trkpt><trkpt lat="42.0628028" lon="13.6398027"><ele>867.0</ele><time>2026-05-02T11:59:18.925Z</time></trkpt><trkpt lat="42.0629136" lon="13.6397134"><ele>867.0</ele><time>2026-05-02T11:59:19.926Z</time></trkpt><trkpt lat="42.0630358" lon="13.6396222"><ele>867.0</ele><time>2026-05-02T11:59:20.925Z</time></trkpt><trkpt lat="42.0631545" lon="13.6395376"><ele>867.0</ele><time>2026-05-02T11:59:21.924Z</time></trkpt><trkpt lat="42.0632716" lon="13.6394516"><ele>867.0</ele><time>2026-05-02T11:59:22.925Z</time></trkpt><trkpt lat="42.0633915" lon="13.6393597"><ele>867.0</ele><time>2026-05-02T11:59:23.926Z</time></trkpt><trkpt lat="42.0634907" lon="13.6392852"><ele>866.6666666666666</ele><time>2026-05-02T11:59:24.924Z</time></trkpt><trkpt lat="42.0635819" lon="13.6392215"><ele>866.3333333333333</ele><time>2026-05-02T11:59:25.926Z</time></trkpt><trkpt lat="42.0636598" lon="13.6391591"><ele>866.0</ele><time>2026-05-02T11:59:26.925Z</time></trkpt><trkpt lat="42.0637282" lon="13.6391029"><ele>865.6666666666666</ele><time>2026-05-02T11:59:27.926Z</time></trkpt><trkpt lat="42.0637974" lon="13.6390413"><ele>865.3333333333333</ele><time>2026-05-02T11:59:28.926Z</time></trkpt><trkpt lat="42.063865" lon="13.6389723"><ele>865.0</ele><time>2026-05-02T11:59:29.926Z</time></trkpt><trkpt lat="42.0639364" lon="13.6388977"><ele>865.0</ele><time>2026-05-02T11:59:30.925Z</time></trkpt><trkpt lat="42.0640129" lon="13.6388232"><ele>865.0</ele><time>2026-05-02T11:59:31.926Z</time></trkpt><trkpt lat="42.0640941" lon="13.6387502"><ele>865.0</ele><time>2026-05-02T11:59:32.926Z</time></trkpt><trkpt lat="42.0641756" lon="13.6386796"><ele>865.0</ele><time>2026-05-02T11:59:33.924Z</time></trkpt><trkpt lat="42.0642597" lon="13.6386053"><ele>865.0</ele><time>2026-05-02T11:59:34.925Z</time></trkpt><trkpt lat="42.0643445" lon="13.6385222"><ele>864.75</ele><time>2026-05-02T11:59:35.924Z</time></trkpt><trkpt lat="42.0644309" lon="13.6384356"><ele>864.5</ele><time>2026-05-02T11:59:36.925Z</time></trkpt><trkpt lat="42.0645168" lon="13.6383511"><ele>864.25</ele><time>2026-05-02T11:59:37.926Z</time></trkpt><trkpt lat="42.0646095" lon="13.6382634"><ele>864.0</ele><time>2026-05-02T11:59:38.926Z</time></trkpt><trkpt lat="42.064708" lon="13.6381659"><ele>864.0</ele><time>2026-05-02T11:59:39.925Z</time></trkpt><trkpt lat="42.0648088" lon="13.6380561"><ele>864.0</ele><time>2026-05-02T11:59:40.925Z</time></trkpt><trkpt lat="42.0649139" lon="13.637939"><ele>864.0</ele><time>2026-05-02T11:59:41.924Z</time></trkpt><trkpt lat="42.0650251" lon="13.6378175"><ele>864.0</ele><time>2026-05-02T11:59:42.926Z</time></trkpt><trkpt lat="42.0651334" lon="13.6376992"><ele>864.25</ele><time>2026-05-02T11:59:43.925Z</time></trkpt><trkpt lat="42.0652345" lon="13.6375859"><ele>864.5</ele><time>2026-05-02T11:59:44.926Z</time></trkpt><trkpt lat="42.0653289" lon="13.6374658"><ele>864.75</ele><time>2026-05-02T11:59:45.925Z</time></trkpt><trkpt lat="42.0654259" lon="13.6373509"><ele>865.0</ele><time>2026-05-02T11:59:46.926Z</time></trkpt><trkpt lat="42.0655267" lon="13.6372499"><ele>865.0</ele><time>2026-05-02T11:59:47.926Z</time></trkpt><trkpt lat="42.0656343" lon="13.6371596"><ele>865.0</ele><time>2026-05-02T11:59:48.926Z</time></trkpt><trkpt lat="42.0657467" lon="13.6370709"><ele>865.0</ele><time>2026-05-02T11:59:49.924Z</time></trkpt><trkpt lat="42.0658582" lon="13.6369799"><ele>865.0</ele><time>2026-05-02T11:59:50.926Z</time></trkpt><trkpt lat="42.0659672" lon="13.6368956"><ele>865.25</ele><time>2026-05-02T11:59:51.924Z</time></trkpt><trkpt lat="42.0660775" lon="13.63681"><ele>865.5</ele><time>2026-05-02T11:59:52.926Z</time></trkpt><trkpt lat="42.0661974" lon="13.636721"><ele>865.75</ele><time>2026-05-02T11:59:53.925Z</time></trkpt><trkpt lat="42.0663165" lon="13.6366289"><ele>866.0</ele><time>2026-05-02T11:59:54.925Z</time></trkpt><trkpt lat="42.0664287" lon="13.6365373"><ele>866.0</ele><time>2026-05-02T11:59:55.924Z</time></trkpt><trkpt lat="42.0665377" lon="13.6364542"><ele>866.0</ele><time>2026-05-02T11:59:56.926Z</time></trkpt><trkpt lat="42.0666397" lon="13.6363734"><ele>866.0</ele><time>2026-05-02T11:59:57.924Z</time></trkpt><trkpt lat="42.0667371" lon="13.6362894"><ele>866.0</ele><time>2026-05-02T11:59:58.926Z</time></trkpt><trkpt lat="42.0668298" lon="13.6362063"><ele>867.0</ele><time>2026-05-02T11:59:59.925Z</time></trkpt><trkpt lat="42.0669202" lon="13.6361312"><ele>867.9999999999999</ele><time>2026-05-02T12:00:00.926Z</time></trkpt><trkpt lat="42.0670102" lon="13.6360549"><ele>868.9999999999999</ele><time>2026-05-02T12:00:01.925Z</time></trkpt><trkpt lat="42.0670993" lon="13.6359701"><ele>870.0</ele><time>2026-05-02T12:00:02.924Z</time></trkpt><trkpt lat="42.0671883" lon="13.6358981"><ele>871.0</ele><time>2026-05-02T12:00:03.925Z</time></trkpt><trkpt lat="42.0672732" lon="13.6358486"><ele>871.0</ele><time>2026-05-02T12:00:04.926Z</time></trkpt><trkpt lat="42.0673578" lon="13.6358309"><ele>870.9999999999999</ele><time>2026-05-02T12:00:05.924Z</time></trkpt><trkpt lat="42.0674472" lon="13.6358173"><ele>870.9999999999999</ele><time>2026-05-02T12:00:06.925Z</time></trkpt><trkpt lat="42.0675324" lon="13.6357837"><ele>871.0</ele><time>2026-05-02T12:00:07.925Z</time></trkpt><trkpt lat="42.0676147" lon="13.6357153"><ele>871.0</ele><time>2026-05-02T12:00:08.926Z</time></trkpt><trkpt lat="42.0676995" lon="13.6356335"><ele>872.25</ele><time>2026-05-02T12:00:09.924Z</time></trkpt><trkpt lat="42.0677901" lon="13.635548"><ele>873.5</ele><time>2026-05-02T12:00:10.925Z</time></trkpt><trkpt lat="42.0678838" lon="13.635457"><ele>874.75</ele><time>2026-05-02T12:00:11.925Z</time></trkpt><trkpt lat="42.0679809" lon="13.6353657"><ele>876.0</ele><time>2026-05-02T12:00:12.926Z</time></trkpt><trkpt lat="42.0680821" lon="13.6352769"><ele>876.0</ele><time>2026-05-02T12:00:13.926Z</time></trkpt><trkpt lat="42.068177" lon="13.6351946"><ele>876.0</ele><time>2026-05-02T12:00:14.925Z</time></trkpt><trkpt lat="42.0682671" lon="13.6351066"><ele>876.0</ele><time>2026-05-02T12:00:15.926Z</time></trkpt><trkpt lat="42.0683606" lon="13.6350069"><ele>876.0</ele><time>2026-05-02T12:00:16.925Z</time></trkpt><trkpt lat="42.0684559" lon="13.6349"><ele>877.5</ele><time>2026-05-02T12:00:17.925Z</time></trkpt><trkpt lat="42.0685492" lon="13.6347936"><ele>879.0</ele><time>2026-05-02T12:00:18.926Z</time></trkpt><trkpt lat="42.0686389" lon="13.6346842"><ele>880.5</ele><time>2026-05-02T12:00:19.926Z</time></trkpt><trkpt lat="42.0687355" lon="13.6345675"><ele>882.0</ele><time>2026-05-02T12:00:20.926Z</time></trkpt><trkpt lat="42.0688258" lon="13.6344562"><ele>882.0</ele><time>2026-05-02T12:00:21.926Z</time></trkpt><trkpt lat="42.068917" lon="13.6343495"><ele>882.0</ele><time>2026-05-02T12:00:22.924Z</time></trkpt><trkpt lat="42.0690015" lon="13.6342497"><ele>882.0</ele><time>2026-05-02T12:00:23.925Z</time></trkpt><trkpt lat="42.0690781" lon="13.6341582"><ele>882.0</ele><time>2026-05-02T12:00:24.925Z</time></trkpt><trkpt lat="42.0691462" lon="13.6340551"><ele>882.0</ele><time>2026-05-02T12:00:25.925Z</time></trkpt><trkpt lat="42.069207" lon="13.6339539"><ele>883.2</ele><time>2026-05-02T12:00:26.924Z</time></trkpt><trkpt lat="42.0692655" lon="13.6338858"><ele>884.4000000000001</ele><time>2026-05-02T12:00:27.926Z</time></trkpt><trkpt lat="42.0693258" lon="13.6338432"><ele>885.5999999999999</ele><time>2026-05-02T12:00:28.925Z</time></trkpt><trkpt lat="42.0694409" lon="13.6338357"><ele>886.8</ele><time>2026-05-02T12:00:30.925Z</time></trkpt><trkpt lat="42.0695317" lon="13.6338855"><ele>888.0</ele><time>2026-05-02T12:00:32.924Z</time></trkpt><trkpt lat="42.0696075" lon="13.6339584"><ele>888.0</ele><time>2026-05-02T12:03:45.925Z</time></trkpt><trkpt lat="42.0696643" lon="13.6340436"><ele>888.0</ele><time>2026-05-02T12:03:47.925Z</time></trkpt><trkpt lat="42.0696844" lon="13.6341279"><ele>888.0</ele><time>2026-05-02T12:03:48.925Z</time></trkpt><trkpt lat="42.0697027" lon="13.634232"><ele>888.0</ele><time>2026-05-02T12:03:49.925Z</time></trkpt><trkpt lat="42.0697444" lon="13.6343471"><ele>888.0</ele><time>2026-05-02T12:03:50.925Z</time></trkpt><trkpt lat="42.0697932" lon="13.6344552"><ele>888.0</ele><time>2026-05-02T12:03:51.926Z</time></trkpt><trkpt lat="42.0698389" lon="13.6345472"><ele>888.1666666666666</ele><time>2026-05-02T12:03:52.926Z</time></trkpt><trkpt lat="42.0698814" lon="13.6346372"><ele>888.3333333333333</ele><time>2026-05-02T12:03:53.926Z</time></trkpt><trkpt lat="42.0699282" lon="13.6347249"><ele>888.5</ele><time>2026-05-02T12:03:54.926Z</time></trkpt><trkpt lat="42.0699805" lon="13.6348106"><ele>888.6666666666666</ele><time>2026-05-02T12:03:55.924Z</time></trkpt><trkpt lat="42.07003" lon="13.6348965"><ele>888.8333333333333</ele><time>2026-05-02T12:03:56.925Z</time></trkpt><trkpt lat="42.0700814" lon="13.6349885"><ele>889.0</ele><time>2026-05-02T12:03:57.925Z</time></trkpt><trkpt lat="42.0701373" lon="13.6350834"><ele>888.9999999999999</ele><time>2026-05-02T12:03:58.925Z</time></trkpt><trkpt lat="42.0701926" lon="13.6351744"><ele>889.0</ele><time>2026-05-02T12:03:59.925Z</time></trkpt><trkpt lat="42.0702468" lon="13.6352681"><ele>889.0</ele><time>2026-05-02T12:04:00.925Z</time></trkpt><trkpt lat="42.0702973" lon="13.6353599"><ele>889.0</ele><time>2026-05-02T12:04:01.926Z</time></trkpt><trkpt lat="42.0703429" lon="13.6354429"><ele>888.9999999999999</ele><time>2026-05-02T12:04:02.926Z</time></trkpt><trkpt lat="42.0703891" lon="13.6355188"><ele>889.0</ele><time>2026-05-02T12:04:03.925Z</time></trkpt><trkpt lat="42.0704363" lon="13.6355983"><ele>891.6666666666666</ele><time>2026-05-02T12:04:04.925Z</time></trkpt><trkpt lat="42.0704824" lon="13.6356797"><ele>894.3333333333333</ele><time>2026-05-02T12:04:05.925Z</time></trkpt><trkpt lat="42.0705291" lon="13.6357642"><ele>897.0</ele><time>2026-05-02T12:04:06.925Z</time></trkpt><trkpt lat="42.0705715" lon="13.6358501"><ele>899.6666666666667</ele><time>2026-05-02T12:04:07.925Z</time></trkpt><trkpt lat="42.0706125" lon="13.6359359"><ele>902.3333333333334</ele><time>2026-05-02T12:04:08.925Z</time></trkpt><trkpt lat="42.0706503" lon="13.6360094"><ele>905.0</ele><time>2026-05-02T12:04:09.926Z</time></trkpt><trkpt lat="42.0707155" lon="13.6361392"><ele>905.0</ele><time>2026-05-02T12:04:11.925Z</time></trkpt><trkpt lat="42.0707762" lon="13.6362497"><ele>905.0</ele><time>2026-05-02T12:04:13.926Z</time></trkpt><trkpt lat="42.0708269" lon="13.6363402"><ele>905.0</ele><time>2026-05-02T12:04:15.926Z</time></trkpt><trkpt lat="42.0708756" lon="13.6364154"><ele>905.0</ele><time>2026-05-02T12:04:18.926Z</time></trkpt><trkpt lat="42.0709314" lon="13.636497"><ele>905.0</ele><time>2026-05-02T12:04:59.926Z</time></trkpt><trkpt lat="42.0710431" lon="13.6366317"><ele>905.0</ele><time>2026-05-02T12:05:01.924Z</time></trkpt><trkpt lat="42.0711301" lon="13.6367292"><ele>905.0</ele><time>2026-05-02T12:05:02.924Z</time></trkpt><trkpt lat="42.0712615" lon="13.636854"><ele>905.0</ele><time>2026-05-02T12:05:03.925Z</time></trkpt><trkpt lat="42.071384" lon="13.6369903"><ele>905.0</ele><time>2026-05-02T12:05:04.925Z</time></trkpt><trkpt lat="42.0714919" lon="13.6371364"><ele>904.3333333333334</ele><time>2026-05-02T12:05:05.924Z</time></trkpt><trkpt lat="42.071612" lon="13.63728"><ele>903.6666666666667</ele><time>2026-05-02T12:05:06.925Z</time></trkpt><trkpt lat="42.0717461" lon="13.6374155"><ele>903.0</ele><time>2026-05-02T12:05:07.925Z</time></trkpt><trkpt lat="42.0718816" lon="13.6375517"><ele>903.0</ele><time>2026-05-02T12:05:08.926Z</time></trkpt><trkpt lat="42.0720268" lon="13.6376777"><ele>903.0</ele><time>2026-05-02T12:05:09.925Z</time></trkpt><trkpt lat="42.0721839" lon="13.6377816"><ele>903.0</ele><time>2026-05-02T12:05:10.925Z</time></trkpt><trkpt lat="42.0723348" lon="13.6378842"><ele>905.3333333333333</ele><time>2026-05-02T12:05:11.926Z</time></trkpt><trkpt lat="42.07249" lon="13.6379715"><ele>907.6666666666666</ele><time>2026-05-02T12:05:12.925Z</time></trkpt><trkpt lat="42.0726428" lon="13.6380607"><ele>910.0</ele><time>2026-05-02T12:05:13.925Z</time></trkpt><trkpt lat="42.0727862" lon="13.6381462"><ele>910.0</ele><time>2026-05-02T12:05:14.925Z</time></trkpt><trkpt lat="42.0729173" lon="13.6382348"><ele>910.0</ele><time>2026-05-02T12:05:15.924Z</time></trkpt><trkpt lat="42.0730319" lon="13.6383429"><ele>910.0</ele><time>2026-05-02T12:05:16.925Z</time></trkpt><trkpt lat="42.0731334" lon="13.6384737"><ele>910.0</ele><time>2026-05-02T12:05:17.926Z</time></trkpt><trkpt lat="42.0732285" lon="13.6386245"><ele>912.3333333333333</ele><time>2026-05-02T12:05:18.926Z</time></trkpt><trkpt lat="42.0733246" lon="13.6387848"><ele>914.6666666666667</ele><time>2026-05-02T12:05:19.925Z</time></trkpt><trkpt lat="42.0734223" lon="13.6389457"><ele>917.0</ele><time>2026-05-02T12:05:20.925Z</time></trkpt><trkpt lat="42.0735359" lon="13.6391017"><ele>917.0</ele><time>2026-05-02T12:05:21.924Z</time></trkpt><trkpt lat="42.0736504" lon="13.6392639"><ele>917.0</ele><time>2026-05-02T12:05:22.925Z</time></trkpt><trkpt lat="42.0737786" lon="13.639408"><ele>917.0</ele><time>2026-05-02T12:05:23.925Z</time></trkpt><trkpt lat="42.0739094" lon="13.6395475"><ele>918.6666666666667</ele><time>2026-05-02T12:05:24.925Z</time></trkpt><trkpt lat="42.0740363" lon="13.6396884"><ele>920.3333333333333</ele><time>2026-05-02T12:05:25.925Z</time></trkpt><trkpt lat="42.0741611" lon="13.6398194"><ele>922.0</ele><time>2026-05-02T12:05:26.925Z</time></trkpt><trkpt lat="42.0742821" lon="13.639951"><ele>922.0</ele><time>2026-05-02T12:05:27.925Z</time></trkpt><trkpt lat="42.0743997" lon="13.6400886"><ele>922.0</ele><time>2026-05-02T12:05:28.925Z</time></trkpt><trkpt lat="42.0745127" lon="13.6402313"><ele>922.0</ele><time>2026-05-02T12:05:29.925Z</time></trkpt><trkpt lat="42.074624" lon="13.6403771"><ele>924.0</ele><time>2026-05-02T12:05:30.925Z</time></trkpt><trkpt lat="42.0747378" lon="13.6405303"><ele>926.0</ele><time>2026-05-02T12:05:31.924Z</time></trkpt><trkpt lat="42.0748456" lon="13.6406869"><ele>928.0</ele><time>2026-05-02T12:05:32.924Z</time></trkpt><trkpt lat="42.0749531" lon="13.6408406"><ele>928.0</ele><time>2026-05-02T12:05:33.924Z</time></trkpt><trkpt lat="42.0750585" lon="13.6409991"><ele>928.0</ele><time>2026-05-02T12:05:34.925Z</time></trkpt><trkpt lat="42.0751636" lon="13.6411622"><ele>928.0</ele><time>2026-05-02T12:05:35.925Z</time></trkpt><trkpt lat="42.075269" lon="13.641319"><ele>930.6666666666666</ele><time>2026-05-02T12:05:36.925Z</time></trkpt><trkpt lat="42.0753717" lon="13.6414793"><ele>933.3333333333333</ele><time>2026-05-02T12:05:37.926Z</time></trkpt><trkpt lat="42.0754788" lon="13.6416415"><ele>936.0</ele><time>2026-05-02T12:05:38.924Z</time></trkpt><trkpt lat="42.0755884" lon="13.6417889"><ele>936.0</ele><time>2026-05-02T12:05:39.925Z</time></trkpt><trkpt lat="42.075701" lon="13.6419361"><ele>936.0</ele><time>2026-05-02T12:05:40.925Z</time></trkpt><trkpt lat="42.0758198" lon="13.6420822"><ele>936.0</ele><time>2026-05-02T12:05:41.923Z</time></trkpt><trkpt lat="42.0759493" lon="13.6422141"><ele>936.0</ele><time>2026-05-02T12:05:42.925Z</time></trkpt><trkpt lat="42.0760775" lon="13.6423496"><ele>936.0</ele><time>2026-05-02T12:05:43.925Z</time></trkpt><trkpt lat="42.0761983" lon="13.6424906"><ele>936.0</ele><time>2026-05-02T12:05:44.925Z</time></trkpt><trkpt lat="42.0763186" lon="13.6426354"><ele>936.0</ele><time>2026-05-02T12:05:45.925Z</time></trkpt><trkpt lat="42.0764352" lon="13.6427812"><ele>936.0</ele><time>2026-05-02T12:05:46.925Z</time></trkpt><trkpt lat="42.0765495" lon="13.6429295"><ele>936.0</ele><time>2026-05-02T12:05:47.925Z</time></trkpt><trkpt lat="42.0766598" lon="13.6430868"><ele>938.0</ele><time>2026-05-02T12:05:48.925Z</time></trkpt><trkpt lat="42.0767671" lon="13.6432427"><ele>940.0</ele><time>2026-05-02T12:05:49.926Z</time></trkpt><trkpt lat="42.0768755" lon="13.6434022"><ele>942.0</ele><time>2026-05-02T12:05:50.925Z</time></trkpt><trkpt lat="42.0769823" lon="13.6435598"><ele>948.0</ele><time>2026-05-02T12:05:51.924Z</time></trkpt><trkpt lat="42.0770921" lon="13.6437099"><ele>954.0</ele><time>2026-05-02T12:05:52.925Z</time></trkpt><trkpt lat="42.0772065" lon="13.6438605"><ele>960.0</ele><time>2026-05-02T12:05:53.925Z</time></trkpt><trkpt lat="42.077323" lon="13.6440026"><ele>956.3333333333333</ele><time>2026-05-02T12:05:54.926Z</time></trkpt><trkpt lat="42.0774491" lon="13.6441361"><ele>952.6666666666666</ele><time>2026-05-02T12:05:55.924Z</time></trkpt><trkpt lat="42.0775826" lon="13.644263"><ele>949.0</ele><time>2026-05-02T12:05:56.926Z</time></trkpt><trkpt lat="42.0777129" lon="13.644392"><ele>953.3333333333333</ele><time>2026-05-02T12:05:57.926Z</time></trkpt><trkpt lat="42.0778401" lon="13.6445316"><ele>957.6666666666667</ele><time>2026-05-02T12:05:58.925Z</time></trkpt><trkpt lat="42.0779416" lon="13.6447101"><ele>962.0</ele><time>2026-05-02T12:05:59.924Z</time></trkpt><trkpt lat="42.0780392" lon="13.6448936"><ele>962.0</ele><time>2026-05-02T12:06:00.926Z</time></trkpt><trkpt lat="42.0781374" lon="13.645073"><ele>962.0</ele><time>2026-05-02T12:06:01.925Z</time></trkpt><trkpt lat="42.0782344" lon="13.6452486"><ele>962.0</ele><time>2026-05-02T12:06:02.925Z</time></trkpt><trkpt lat="42.0783291" lon="13.6454208"><ele>961.5</ele><time>2026-05-02T12:06:03.925Z</time></trkpt><trkpt lat="42.0784184" lon="13.6455851"><ele>961.0</ele><time>2026-05-02T12:06:04.926Z</time></trkpt><trkpt lat="42.0785171" lon="13.6457257"><ele>960.5</ele><time>2026-05-02T12:06:05.924Z</time></trkpt><trkpt lat="42.0786339" lon="13.6458511"><ele>960.0</ele><time>2026-05-02T12:06:06.924Z</time></trkpt><trkpt lat="42.0787573" lon="13.6459602"><ele>960.0</ele><time>2026-05-02T12:06:07.925Z</time></trkpt><trkpt lat="42.0788796" lon="13.6460803"><ele>960.0</ele><time>2026-05-02T12:06:08.925Z</time></trkpt><trkpt lat="42.0789938" lon="13.6462189"><ele>960.0</ele><time>2026-05-02T12:06:09.925Z</time></trkpt><trkpt lat="42.0790997" lon="13.6463615"><ele>960.3333333333333</ele><time>2026-05-02T12:06:10.924Z</time></trkpt><trkpt lat="42.0791932" lon="13.6465225"><ele>960.6666666666666</ele><time>2026-05-02T12:06:11.925Z</time></trkpt><trkpt lat="42.079277" lon="13.6466916"><ele>961.0</ele><time>2026-05-02T12:06:12.925Z</time></trkpt><trkpt lat="42.0793526" lon="13.6468683"><ele>963.75</ele><time>2026-05-02T12:06:13.925Z</time></trkpt><trkpt lat="42.0794265" lon="13.6470336"><ele>966.5</ele><time>2026-05-02T12:06:14.926Z</time></trkpt><trkpt lat="42.0794994" lon="13.647179"><ele>969.25</ele><time>2026-05-02T12:06:15.924Z</time></trkpt><trkpt lat="42.0795833" lon="13.6473038"><ele>972.0</ele><time>2026-05-02T12:06:16.926Z</time></trkpt><trkpt lat="42.0796733" lon="13.6474095"><ele>972.0</ele><time>2026-05-02T12:06:17.926Z</time></trkpt><trkpt lat="42.0797685" lon="13.6474963"><ele>972.0</ele><time>2026-05-02T12:06:18.925Z</time></trkpt><trkpt lat="42.0798657" lon="13.6475658"><ele>972.0</ele><time>2026-05-02T12:06:19.925Z</time></trkpt><trkpt lat="42.0799656" lon="13.6476329"><ele>972.0</ele><time>2026-05-02T12:06:20.925Z</time></trkpt><trkpt lat="42.08007" lon="13.6476938"><ele>969.4000000000001</ele><time>2026-05-02T12:06:21.925Z</time></trkpt><trkpt lat="42.0801698" lon="13.647744"><ele>966.8000000000001</ele><time>2026-05-02T12:06:22.925Z</time></trkpt><trkpt lat="42.0802794" lon="13.6477782"><ele>964.2</ele><time>2026-05-02T12:06:23.925Z</time></trkpt><trkpt lat="42.0803934" lon="13.647793"><ele>961.6</ele><time>2026-05-02T12:06:24.925Z</time></trkpt><trkpt lat="42.0805073" lon="13.6477824"><ele>959.0</ele><time>2026-05-02T12:06:25.926Z</time></trkpt><trkpt lat="42.0806298" lon="13.6477413"><ele>959.0</ele><time>2026-05-02T12:06:26.925Z</time></trkpt><trkpt lat="42.0807543" lon="13.6476902"><ele>959.0</ele><time>2026-05-02T12:06:27.925Z</time></trkpt><trkpt lat="42.0808824" lon="13.6476323"><ele>959.0</ele><time>2026-05-02T12:06:28.925Z</time></trkpt><trkpt lat="42.0810062" lon="13.6475759"><ele>959.0</ele><time>2026-05-02T12:06:29.925Z</time></trkpt><trkpt lat="42.0811276" lon="13.6475079"><ele>960.25</ele><time>2026-05-02T12:06:30.925Z</time></trkpt><trkpt lat="42.0812463" lon="13.64743"><ele>961.5</ele><time>2026-05-02T12:06:31.926Z</time></trkpt><trkpt lat="42.081367" lon="13.6473432"><ele>962.75</ele><time>2026-05-02T12:06:32.924Z</time></trkpt><trkpt lat="42.0814767" lon="13.6472469"><ele>964.0</ele><time>2026-05-02T12:06:33.926Z</time></trkpt><trkpt lat="42.0815813" lon="13.6471337"><ele>965.25</ele><time>2026-05-02T12:06:34.926Z</time></trkpt><trkpt lat="42.0816846" lon="13.6470106"><ele>966.5</ele><time>2026-05-02T12:06:35.924Z</time></trkpt><trkpt lat="42.0817958" lon="13.6468804"><ele>967.75</ele><time>2026-05-02T12:06:36.925Z</time></trkpt><trkpt lat="42.0818909" lon="13.6467559"><ele>969.0</ele><time>2026-05-02T12:06:37.924Z</time></trkpt><trkpt lat="42.0819842" lon="13.6466275"><ele>970.25</ele><time>2026-05-02T12:06:38.924Z</time></trkpt><trkpt lat="42.0820732" lon="13.6464882"><ele>971.5</ele><time>2026-05-02T12:06:39.924Z</time></trkpt><trkpt lat="42.0821729" lon="13.6463647"><ele>972.75</ele><time>2026-05-02T12:06:40.924Z</time></trkpt><trkpt lat="42.0822798" lon="13.6462499"><ele>974.0</ele><time>2026-05-02T12:06:41.925Z</time></trkpt><trkpt lat="42.0823945" lon="13.6461625"><ele>976.25</ele><time>2026-05-02T12:06:42.925Z</time></trkpt><trkpt lat="42.0825162" lon="13.6460836"><ele>978.5</ele><time>2026-05-02T12:06:43.925Z</time></trkpt><trkpt lat="42.0826467" lon="13.6460237"><ele>980.75</ele><time>2026-05-02T12:06:44.925Z</time></trkpt><trkpt lat="42.0827926" lon="13.6459755"><ele>983.0</ele><time>2026-05-02T12:06:45.926Z</time></trkpt><trkpt lat="42.0829258" lon="13.6458956"><ele>983.0</ele><time>2026-05-02T12:06:46.925Z</time></trkpt><trkpt lat="42.0830532" lon="13.6458096"><ele>983.0</ele><time>2026-05-02T12:06:47.925Z</time></trkpt><trkpt lat="42.0831743" lon="13.645718"><ele>983.0</ele><time>2026-05-02T12:06:48.925Z</time></trkpt><trkpt lat="42.0832939" lon="13.6456149"><ele>983.0</ele><time>2026-05-02T12:06:49.925Z</time></trkpt><trkpt lat="42.0834125" lon="13.6455062"><ele>985.5</ele><time>2026-05-02T12:06:50.925Z</time></trkpt><trkpt lat="42.0835295" lon="13.6453891"><ele>988.0</ele><time>2026-05-02T12:06:51.926Z</time></trkpt><trkpt lat="42.0836481" lon="13.6452672"><ele>990.5</ele><time>2026-05-02T12:06:52.925Z</time></trkpt><trkpt lat="42.0837616" lon="13.6451342"><ele>993.0</ele><time>2026-05-02T12:06:53.926Z</time></trkpt><trkpt lat="42.0838628" lon="13.645002"><ele>994.0</ele><time>2026-05-02T12:06:54.924Z</time></trkpt><trkpt lat="42.0839483" lon="13.6448558"><ele>995.0</ele><time>2026-05-02T12:06:55.925Z</time></trkpt><trkpt lat="42.0840169" lon="13.6446935"><ele>996.0</ele><time>2026-05-02T12:06:56.925Z</time></trkpt><trkpt lat="42.0840688" lon="13.6445237"><ele>997.0</ele><time>2026-05-02T12:06:57.925Z</time></trkpt><trkpt lat="42.0841043" lon="13.6443463"><ele>999.0</ele><time>2026-05-02T12:06:58.925Z</time></trkpt><trkpt lat="42.0841455" lon="13.6441562"><ele>1001.0</ele><time>2026-05-02T12:06:59.925Z</time></trkpt><trkpt lat="42.0841929" lon="13.6439741"><ele>1003.0</ele><time>2026-05-02T12:07:00.926Z</time></trkpt><trkpt lat="42.0842554" lon="13.6437939"><ele>1005.0</ele><time>2026-05-02T12:07:01.925Z</time></trkpt><trkpt lat="42.0843219" lon="13.6436081"><ele>1007.0</ele><time>2026-05-02T12:07:02.925Z</time></trkpt><trkpt lat="42.0843832" lon="13.643421"><ele>1009.0</ele><time>2026-05-02T12:07:03.924Z</time></trkpt><trkpt lat="42.0844478" lon="13.6432337"><ele>1011.0</ele><time>2026-05-02T12:07:04.925Z</time></trkpt><trkpt lat="42.0845201" lon="13.6430545"><ele>1011.0</ele><time>2026-05-02T12:07:05.924Z</time></trkpt><trkpt lat="42.0846044" lon="13.6428881"><ele>1011.0</ele><time>2026-05-02T12:07:06.924Z</time></trkpt><trkpt lat="42.0846899" lon="13.6427296"><ele>1011.0</ele><time>2026-05-02T12:07:07.925Z</time></trkpt><trkpt lat="42.0847682" lon="13.6425625"><ele>1011.0</ele><time>2026-05-02T12:07:08.925Z</time></trkpt><trkpt lat="42.0848343" lon="13.6423932"><ele>1012.0</ele><time>2026-05-02T12:07:09.925Z</time></trkpt><trkpt lat="42.0848838" lon="13.6422181"><ele>1013.0</ele><time>2026-05-02T12:07:10.924Z</time></trkpt><trkpt lat="42.0849191" lon="13.6420316"><ele>1014.0</ele><time>2026-05-02T12:07:11.926Z</time></trkpt><trkpt lat="42.0849458" lon="13.6418383"><ele>1015.0</ele><time>2026-05-02T12:07:12.925Z</time></trkpt><trkpt lat="42.084983" lon="13.6416542"><ele>1018.5</ele><time>2026-05-02T12:07:13.925Z</time></trkpt><trkpt lat="42.0850308" lon="13.6414666"><ele>1022.0</ele><time>2026-05-02T12:07:14.925Z</time></trkpt><trkpt lat="42.0850843" lon="13.6412843"><ele>1025.5</ele><time>2026-05-02T12:07:15.925Z</time></trkpt><trkpt lat="42.0851378" lon="13.641105"><ele>1029.0</ele><time>2026-05-02T12:07:16.925Z</time></trkpt><trkpt lat="42.0851867" lon="13.640927"><ele>1030.75</ele><time>2026-05-02T12:07:17.924Z</time></trkpt><trkpt lat="42.08522" lon="13.6407513"><ele>1032.5</ele><time>2026-05-02T12:07:18.925Z</time></trkpt><trkpt lat="42.0852314" lon="13.6405771"><ele>1034.25</ele><time>2026-05-02T12:07:19.925Z</time></trkpt><trkpt lat="42.0852219" lon="13.6404072"><ele>1036.0</ele><time>2026-05-02T12:07:20.923Z</time></trkpt><trkpt lat="42.085194" lon="13.6402554"><ele>1037.0</ele><time>2026-05-02T12:07:21.925Z</time></trkpt><trkpt lat="42.0851701" lon="13.6401234"><ele>1038.0</ele><time>2026-05-02T12:07:22.924Z</time></trkpt><trkpt lat="42.0851628" lon="13.6400083"><ele>1039.0</ele><time>2026-05-02T12:07:23.924Z</time></trkpt><trkpt lat="42.0851819" lon="13.6398933"><ele>1040.0</ele><time>2026-05-02T12:07:24.926Z</time></trkpt><trkpt lat="42.0852282" lon="13.6397769"><ele>1041.0</ele><time>2026-05-02T12:07:25.925Z</time></trkpt><trkpt lat="42.0852847" lon="13.6396688"><ele>1041.0</ele><time>2026-05-02T12:07:26.925Z</time></trkpt><trkpt lat="42.0853373" lon="13.6395537"><ele>1041.0</ele><time>2026-05-02T12:07:27.925Z</time></trkpt><trkpt lat="42.0853846" lon="13.6394398"><ele>1041.0</ele><time>2026-05-02T12:07:28.925Z</time></trkpt><trkpt lat="42.0853937" lon="13.6393248"><ele>1041.0</ele><time>2026-05-02T12:07:29.926Z</time></trkpt><trkpt lat="42.0853856" lon="13.6392085"><ele>1041.0</ele><time>2026-05-02T12:07:30.924Z</time></trkpt><trkpt lat="42.085359" lon="13.6390895"><ele>1042.3999999999999</ele><time>2026-05-02T12:07:31.925Z</time></trkpt><trkpt lat="42.0853213" lon="13.6389642"><ele>1043.8</ele><time>2026-05-02T12:07:32.924Z</time></trkpt><trkpt lat="42.0852873" lon="13.6388249"><ele>1045.1999999999998</ele><time>2026-05-02T12:07:33.925Z</time></trkpt><trkpt lat="42.0852529" lon="13.6386783"><ele>1046.6</ele><time>2026-05-02T12:07:34.925Z</time></trkpt><trkpt lat="42.0852222" lon="13.6385137"><ele>1048.0</ele><time>2026-05-02T12:07:35.925Z</time></trkpt><trkpt lat="42.0851902" lon="13.6383495"><ele>1050.25</ele><time>2026-05-02T12:07:36.926Z</time></trkpt><trkpt lat="42.0851556" lon="13.6381886"><ele>1052.5</ele><time>2026-05-02T12:07:37.925Z</time></trkpt><trkpt lat="42.0851185" lon="13.6380232"><ele>1054.75</ele><time>2026-05-02T12:07:38.924Z</time></trkpt><trkpt lat="42.0850912" lon="13.6378568"><ele>1057.0</ele><time>2026-05-02T12:07:39.925Z</time></trkpt><trkpt lat="42.0850684" lon="13.6377081"><ele>1058.5</ele><time>2026-05-02T12:07:40.926Z</time></trkpt><trkpt lat="42.0850531" lon="13.6375668"><ele>1060.0</ele><time>2026-05-02T12:07:41.925Z</time></trkpt><trkpt lat="42.0850477" lon="13.6374188"><ele>1061.5</ele><time>2026-05-02T12:07:42.924Z</time></trkpt><trkpt lat="42.0850441" lon="13.637262"><ele>1063.0</ele><time>2026-05-02T12:07:43.925Z</time></trkpt><trkpt lat="42.08503" lon="13.6370946"><ele>1064.75</ele><time>2026-05-02T12:07:44.925Z</time></trkpt><trkpt lat="42.0850003" lon="13.6369333"><ele>1066.5</ele><time>2026-05-02T12:07:45.925Z</time></trkpt><trkpt lat="42.0849513" lon="13.6367844"><ele>1068.25</ele><time>2026-05-02T12:07:46.926Z</time></trkpt><trkpt lat="42.0848903" lon="13.6366602"><ele>1070.0</ele><time>2026-05-02T12:07:47.925Z</time></trkpt><trkpt lat="42.0848192" lon="13.6365413"><ele>1070.25</ele><time>2026-05-02T12:07:48.924Z</time></trkpt><trkpt lat="42.0847458" lon="13.6364119"><ele>1070.5</ele><time>2026-05-02T12:07:49.925Z</time></trkpt><trkpt lat="42.0846695" lon="13.6362776"><ele>1070.75</ele><time>2026-05-02T12:07:50.926Z</time></trkpt><trkpt lat="42.0845971" lon="13.636143"><ele>1071.0</ele><time>2026-05-02T12:07:51.925Z</time></trkpt><trkpt lat="42.0845023" lon="13.6360111"><ele>1072.75</ele><time>2026-05-02T12:07:52.925Z</time></trkpt><trkpt lat="42.084403" lon="13.6358855"><ele>1074.5</ele><time>2026-05-02T12:07:53.924Z</time></trkpt><trkpt lat="42.0843093" lon="13.635785"><ele>1076.25</ele><time>2026-05-02T12:07:54.924Z</time></trkpt><trkpt lat="42.0842364" lon="13.6356962"><ele>1078.0</ele><time>2026-05-02T12:07:55.925Z</time></trkpt><trkpt lat="42.0841749" lon="13.6355941"><ele>1078.0</ele><time>2026-05-02T12:07:56.925Z</time></trkpt><trkpt lat="42.0841559" lon="13.6354849"><ele>1078.0</ele><time>2026-05-02T12:07:57.926Z</time></trkpt><trkpt lat="42.0841332" lon="13.6353674"><ele>1078.0</ele><time>2026-05-02T12:07:58.924Z</time></trkpt><trkpt lat="42.0841227" lon="13.6352284"><ele>1078.0</ele><time>2026-05-02T12:07:59.924Z</time></trkpt><trkpt lat="42.0841004" lon="13.6350875"><ele>1078.0</ele><time>2026-05-02T12:08:00.925Z</time></trkpt><trkpt lat="42.0840717" lon="13.6349328"><ele>1078.75</ele><time>2026-05-02T12:08:01.925Z</time></trkpt><trkpt lat="42.0840308" lon="13.6347725"><ele>1079.5</ele><time>2026-05-02T12:08:02.925Z</time></trkpt><trkpt lat="42.0839967" lon="13.6346138"><ele>1080.25</ele><time>2026-05-02T12:08:03.926Z</time></trkpt><trkpt lat="42.0839743" lon="13.6344696"><ele>1081.0</ele><time>2026-05-02T12:08:04.925Z</time></trkpt><trkpt lat="42.0839644" lon="13.6343356"><ele>1081.0</ele><time>2026-05-02T12:08:05.924Z</time></trkpt><trkpt lat="42.083979" lon="13.6342184"><ele>1081.0</ele><time>2026-05-02T12:08:06.924Z</time></trkpt><trkpt lat="42.0840125" lon="13.6341236"><ele>1081.0</ele><time>2026-05-02T12:08:07.925Z</time></trkpt><trkpt lat="42.0840532" lon="13.6340391"><ele>1081.0</ele><time>2026-05-02T12:08:08.925Z</time></trkpt><trkpt lat="42.084111" lon="13.63397"><ele>1081.0</ele><time>2026-05-02T12:08:09.925Z</time></trkpt><trkpt lat="42.084188" lon="13.6339122"><ele>1081.0</ele><time>2026-05-02T12:08:10.923Z</time></trkpt><trkpt lat="42.0842677" lon="13.6338689"><ele>1081.6666666666665</ele><time>2026-05-02T12:08:11.925Z</time></trkpt><trkpt lat="42.0843492" lon="13.6338247"><ele>1082.3333333333333</ele><time>2026-05-02T12:08:12.925Z</time></trkpt><trkpt lat="42.0844199" lon="13.633776"><ele>1083.0</ele><time>2026-05-02T12:08:13.925Z</time></trkpt><trkpt lat="42.0844864" lon="13.6337173"><ele>1083.6666666666667</ele><time>2026-05-02T12:08:14.924Z</time></trkpt><trkpt lat="42.0845396" lon="13.6336404"><ele>1084.3333333333335</ele><time>2026-05-02T12:08:15.925Z</time></trkpt><trkpt lat="42.084592" lon="13.6335518"><ele>1085.0</ele><time>2026-05-02T12:08:16.924Z</time></trkpt><trkpt lat="42.0846356" lon="13.6334579"><ele>1085.0</ele><time>2026-05-02T12:08:17.924Z</time></trkpt><trkpt lat="42.0846855" lon="13.6333481"><ele>1085.0</ele><time>2026-05-02T12:08:18.926Z</time></trkpt><trkpt lat="42.0847457" lon="13.6332444"><ele>1085.0</ele><time>2026-05-02T12:08:19.925Z</time></trkpt><trkpt lat="42.084822" lon="13.6331484"><ele>1085.0</ele><time>2026-05-02T12:08:20.925Z</time></trkpt><trkpt lat="42.0848967" lon="13.6330648"><ele>1085.0</ele><time>2026-05-02T12:08:21.925Z</time></trkpt><trkpt lat="42.0849775" lon="13.6329784"><ele>1087.4</ele><time>2026-05-02T12:08:22.924Z</time></trkpt><trkpt lat="42.0850727" lon="13.6328767"><ele>1089.8</ele><time>2026-05-02T12:08:23.925Z</time></trkpt><trkpt lat="42.0851502" lon="13.6327723"><ele>1092.2</ele><time>2026-05-02T12:08:24.925Z</time></trkpt><trkpt lat="42.0851998" lon="13.6326602"><ele>1094.6</ele><time>2026-05-02T12:08:25.924Z</time></trkpt><trkpt lat="42.085226" lon="13.632521"><ele>1097.0</ele><time>2026-05-02T12:08:26.924Z</time></trkpt><trkpt lat="42.0852308" lon="13.6323551"><ele>1098.0</ele><time>2026-05-02T12:08:27.925Z</time></trkpt><trkpt lat="42.0852192" lon="13.6321751"><ele>1099.0</ele><time>2026-05-02T12:08:28.925Z</time></trkpt><trkpt lat="42.0852057" lon="13.6320032"><ele>1100.0</ele><time>2026-05-02T12:08:29.925Z</time></trkpt><trkpt lat="42.0852071" lon="13.631845"><ele>1101.0</ele><time>2026-05-02T12:08:30.925Z</time></trkpt><trkpt lat="42.0852405" lon="13.6316996"><ele>1102.0</ele><time>2026-05-02T12:08:31.924Z</time></trkpt><trkpt lat="42.0852925" lon="13.6315633"><ele>1103.0</ele><time>2026-05-02T12:08:32.926Z</time></trkpt><trkpt lat="42.0853625" lon="13.6314356"><ele>1104.0</ele><time>2026-05-02T12:08:33.925Z</time></trkpt><trkpt lat="42.0854416" lon="13.6313217"><ele>1105.0</ele><time>2026-05-02T12:08:34.925Z</time></trkpt><trkpt lat="42.0855073" lon="13.6312061"><ele>1106.0</ele><time>2026-05-02T12:08:35.924Z</time></trkpt><trkpt lat="42.0855407" lon="13.6310856"><ele>1107.0</ele><time>2026-05-02T12:08:36.925Z</time></trkpt><trkpt lat="42.0855399" lon="13.6309571"><ele>1108.0</ele><time>2026-05-02T12:08:37.925Z</time></trkpt><trkpt lat="42.0855153" lon="13.6308211"><ele>1109.0</ele><time>2026-05-02T12:08:38.923Z</time></trkpt><trkpt lat="42.0854942" lon="13.6306655"><ele>1110.0</ele><time>2026-05-02T12:08:39.925Z</time></trkpt><trkpt lat="42.0854863" lon="13.6305002"><ele>1110.0</ele><time>2026-05-02T12:08:40.925Z</time></trkpt><trkpt lat="42.0854909" lon="13.6303345"><ele>1110.0</ele><time>2026-05-02T12:08:41.924Z</time></trkpt><trkpt lat="42.0854891" lon="13.6301788"><ele>1110.0</ele><time>2026-05-02T12:08:42.925Z</time></trkpt><trkpt lat="42.0854839" lon="13.6300286"><ele>1110.0</ele><time>2026-05-02T12:08:43.925Z</time></trkpt><trkpt lat="42.0854865" lon="13.6298835"><ele>1111.2</ele><time>2026-05-02T12:08:44.926Z</time></trkpt><trkpt lat="42.0854976" lon="13.6297477"><ele>1112.4</ele><time>2026-05-02T12:08:45.924Z</time></trkpt><trkpt lat="42.0855166" lon="13.6296114"><ele>1113.6</ele><time>2026-05-02T12:08:46.925Z</time></trkpt><trkpt lat="42.0855447" lon="13.6294773"><ele>1114.8</ele><time>2026-05-02T12:08:47.926Z</time></trkpt><trkpt lat="42.0855757" lon="13.6293434"><ele>1116.0</ele><time>2026-05-02T12:08:48.925Z</time></trkpt><trkpt lat="42.0856079" lon="13.6292071"><ele>1116.6</ele><time>2026-05-02T12:08:49.924Z</time></trkpt><trkpt lat="42.0856411" lon="13.6290719"><ele>1117.1999999999998</ele><time>2026-05-02T12:08:50.925Z</time></trkpt><trkpt lat="42.0856693" lon="13.6289316"><ele>1117.8000000000002</ele><time>2026-05-02T12:08:51.925Z</time></trkpt><trkpt lat="42.0856932" lon="13.628791"><ele>1118.4</ele><time>2026-05-02T12:08:52.924Z</time></trkpt><trkpt lat="42.0857146" lon="13.6286594"><ele>1119.0</ele><time>2026-05-02T12:08:53.925Z</time></trkpt><trkpt lat="42.0857431" lon="13.6285282"><ele>1121.6000000000001</ele><time>2026-05-02T12:08:54.925Z</time></trkpt><trkpt lat="42.085773" lon="13.6284048"><ele>1124.2</ele><time>2026-05-02T12:08:55.925Z</time></trkpt><trkpt lat="42.0858087" lon="13.6282999"><ele>1126.8000000000002</ele><time>2026-05-02T12:08:56.924Z</time></trkpt><trkpt lat="42.0858579" lon="13.6281955"><ele>1129.4</ele><time>2026-05-02T12:08:57.924Z</time></trkpt><trkpt lat="42.0859234" lon="13.6280903"><ele>1132.0</ele><time>2026-05-02T12:08:58.926Z</time></trkpt><trkpt lat="42.0859878" lon="13.6279736"><ele>1132.0</ele><time>2026-05-02T12:08:59.926Z</time></trkpt><trkpt lat="42.0860407" lon="13.6278423"><ele>1132.0</ele><time>2026-05-02T12:09:00.924Z</time></trkpt><trkpt lat="42.0860816" lon="13.6276931"><ele>1132.0</ele><time>2026-05-02T12:09:01.925Z</time></trkpt><trkpt lat="42.0861204" lon="13.6275406"><ele>1132.0</ele><time>2026-05-02T12:09:02.925Z</time></trkpt><trkpt lat="42.0861582" lon="13.6274002"><ele>1133.0</ele><time>2026-05-02T12:09:03.925Z</time></trkpt><trkpt lat="42.0862014" lon="13.6272643"><ele>1134.0</ele><time>2026-05-02T12:09:04.925Z</time></trkpt><trkpt lat="42.0862489" lon="13.6271352"><ele>1135.0</ele><time>2026-05-02T12:09:05.925Z</time></trkpt><trkpt lat="42.0862993" lon="13.6270012"><ele>1136.0</ele><time>2026-05-02T12:09:06.926Z</time></trkpt><trkpt lat="42.0863462" lon="13.6268649"><ele>1137.0</ele><time>2026-05-02T12:09:07.924Z</time></trkpt><trkpt lat="42.0863882" lon="13.6267263"><ele>1137.75</ele><time>2026-05-02T12:09:08.925Z</time></trkpt><trkpt lat="42.0864183" lon="13.6265675"><ele>1138.5</ele><time>2026-05-02T12:09:09.925Z</time></trkpt><trkpt lat="42.0864344" lon="13.626386"><ele>1139.25</ele><time>2026-05-02T12:09:10.925Z</time></trkpt><trkpt lat="42.0864355" lon="13.6261937"><ele>1140.0</ele><time>2026-05-02T12:09:11.926Z</time></trkpt><trkpt lat="42.0864145" lon="13.6259956"><ele>1141.6666666666667</ele><time>2026-05-02T12:09:12.925Z</time></trkpt><trkpt lat="42.0863791" lon="13.6257765"><ele>1143.3333333333335</ele><time>2026-05-02T12:09:13.924Z</time></trkpt><trkpt lat="42.0863316" lon="13.6255414"><ele>1145.0</ele><time>2026-05-02T12:09:14.925Z</time></trkpt><trkpt lat="42.0862735" lon="13.625293"><ele>1148.3333333333335</ele><time>2026-05-02T12:09:15.924Z</time></trkpt><trkpt lat="42.086222" lon="13.6250653"><ele>1151.6666666666667</ele><time>2026-05-02T12:09:16.925Z</time></trkpt><trkpt lat="42.0861783" lon="13.6248464"><ele>1155.0</ele><time>2026-05-02T12:09:17.925Z</time></trkpt><trkpt lat="42.0861476" lon="13.6246353"><ele>1156.3333333333333</ele><time>2026-05-02T12:09:18.925Z</time></trkpt><trkpt lat="42.0861265" lon="13.6244279"><ele>1157.6666666666665</ele><time>2026-05-02T12:09:19.924Z</time></trkpt><trkpt lat="42.0861135" lon="13.6242118"><ele>1159.0</ele><time>2026-05-02T12:09:20.925Z</time></trkpt><trkpt lat="42.0860977" lon="13.6240063"><ele>1159.0</ele><time>2026-05-02T12:09:21.925Z</time></trkpt><trkpt lat="42.0860783" lon="13.623808"><ele>1159.0</ele><time>2026-05-02T12:09:22.923Z</time></trkpt><trkpt lat="42.0860248" lon="13.6236352"><ele>1159.0</ele><time>2026-05-02T12:09:23.924Z</time></trkpt><trkpt lat="42.0859682" lon="13.6234652"><ele>1159.0</ele><time>2026-05-02T12:09:24.923Z</time></trkpt><trkpt lat="42.085917" lon="13.6233331"><ele>1161.0</ele><time>2026-05-02T12:09:25.925Z</time></trkpt><trkpt lat="42.0858593" lon="13.6232259"><ele>1163.0</ele><time>2026-05-02T12:09:26.924Z</time></trkpt><trkpt lat="42.0857861" lon="13.6231455"><ele>1165.0</ele><time>2026-05-02T12:09:27.924Z</time></trkpt><trkpt lat="42.085706" lon="13.6231024"><ele>1167.0</ele><time>2026-05-02T12:09:28.925Z</time></trkpt><trkpt lat="42.0856165" lon="13.6230881"><ele>1169.0</ele><time>2026-05-02T12:09:29.924Z</time></trkpt><trkpt lat="42.0855247" lon="13.623104"><ele>1169.75</ele><time>2026-05-02T12:09:30.924Z</time></trkpt><trkpt lat="42.0854277" lon="13.6231542"><ele>1170.5</ele><time>2026-05-02T12:09:31.924Z</time></trkpt><trkpt lat="42.0853164" lon="13.623234"><ele>1171.25</ele><time>2026-05-02T12:09:32.924Z</time></trkpt><trkpt lat="42.0851875" lon="13.6233338"><ele>1172.0</ele><time>2026-05-02T12:09:33.925Z</time></trkpt><trkpt lat="42.0850451" lon="13.6234402"><ele>1171.0</ele><time>2026-05-02T12:09:34.925Z</time></trkpt><trkpt lat="42.0848824" lon="13.6235512"><ele>1170.0</ele><time>2026-05-02T12:09:35.924Z</time></trkpt><trkpt lat="42.0847261" lon="13.6236615"><ele>1169.0</ele><time>2026-05-02T12:09:36.926Z</time></trkpt><trkpt lat="42.0845972" lon="13.6237526"><ele>1169.0</ele><time>2026-05-02T12:09:37.925Z</time></trkpt><trkpt lat="42.0844823" lon="13.6238396"><ele>1169.0</ele><time>2026-05-02T12:09:38.925Z</time></trkpt><trkpt lat="42.0843759" lon="13.6239184"><ele>1169.0</ele><time>2026-05-02T12:09:39.925Z</time></trkpt><trkpt lat="42.0842779" lon="13.6239916"><ele>1169.0</ele><time>2026-05-02T12:09:40.926Z</time></trkpt><trkpt lat="42.0841932" lon="13.6240727"><ele>1169.0</ele><time>2026-05-02T12:09:41.925Z</time></trkpt><trkpt lat="42.084125" lon="13.6241716"><ele>1169.0</ele><time>2026-05-02T12:09:42.925Z</time></trkpt><trkpt lat="42.0840715" lon="13.6242946"><ele>1169.0</ele><time>2026-05-02T12:09:43.925Z</time></trkpt><trkpt lat="42.0840313" lon="13.6244429"><ele>1169.0</ele><time>2026-05-02T12:09:44.924Z</time></trkpt><trkpt lat="42.0840034" lon="13.6246092"><ele>1167.75</ele><time>2026-05-02T12:09:45.925Z</time></trkpt><trkpt lat="42.0839778" lon="13.6247875"><ele>1166.5</ele><time>2026-05-02T12:09:46.924Z</time></trkpt><trkpt lat="42.0839475" lon="13.6249884"><ele>1165.25</ele><time>2026-05-02T12:09:47.925Z</time></trkpt><trkpt lat="42.0839195" lon="13.6251964"><ele>1164.0</ele><time>2026-05-02T12:09:48.924Z</time></trkpt><trkpt lat="42.0838941" lon="13.6253932"><ele>1161.75</ele><time>2026-05-02T12:09:49.926Z</time></trkpt><trkpt lat="42.0838701" lon="13.6255796"><ele>1159.5</ele><time>2026-05-02T12:09:50.925Z</time></trkpt><trkpt lat="42.0838448" lon="13.6257604"><ele>1157.25</ele><time>2026-05-02T12:09:51.925Z</time></trkpt><trkpt lat="42.0838226" lon="13.6259375"><ele>1155.0</ele><time>2026-05-02T12:09:52.925Z</time></trkpt><trkpt lat="42.0837993" lon="13.6261069"><ele>1152.25</ele><time>2026-05-02T12:09:53.925Z</time></trkpt><trkpt lat="42.0837774" lon="13.6262778"><ele>1149.5</ele><time>2026-05-02T12:09:54.925Z</time></trkpt><trkpt lat="42.0837541" lon="13.6264437"><ele>1146.75</ele><time>2026-05-02T12:09:55.925Z</time></trkpt><trkpt lat="42.0837331" lon="13.6265937"><ele>1144.0</ele><time>2026-05-02T12:09:56.924Z</time></trkpt><trkpt lat="42.0837133" lon="13.6267324"><ele>1144.0</ele><time>2026-05-02T12:09:57.924Z</time></trkpt><trkpt lat="42.0836947" lon="13.6268443"><ele>1144.0</ele><time>2026-05-02T12:09:58.925Z</time></trkpt><trkpt lat="42.0836613" lon="13.6269868"><ele>1144.0</ele><time>2026-05-02T12:10:00.925Z</time></trkpt><trkpt lat="42.0835983" lon="13.6270811"><ele>1144.0</ele><time>2026-05-02T12:10:02.925Z</time></trkpt><trkpt lat="42.0834797" lon="13.6271571"><ele>1144.0</ele><time>2026-05-02T12:10:04.925Z</time></trkpt><trkpt lat="42.0833859" lon="13.6272131"><ele>1142.4</ele><time>2026-05-02T12:10:05.926Z</time></trkpt><trkpt lat="42.0832942" lon="13.6272639"><ele>1140.8000000000002</ele><time>2026-05-02T12:10:06.926Z</time></trkpt><trkpt lat="42.0831957" lon="13.6272953"><ele>1139.1999999999998</ele><time>2026-05-02T12:10:07.925Z</time></trkpt><trkpt lat="42.0830867" lon="13.6273051"><ele>1137.6</ele><time>2026-05-02T12:10:08.925Z</time></trkpt><trkpt lat="42.0829666" lon="13.6272867"><ele>1136.0</ele><time>2026-05-02T12:10:09.925Z</time></trkpt><trkpt lat="42.0828394" lon="13.6272522"><ele>1135.8333333333335</ele><time>2026-05-02T12:10:10.925Z</time></trkpt><trkpt lat="42.0827225" lon="13.6272165"><ele>1135.6666666666667</ele><time>2026-05-02T12:10:11.925Z</time></trkpt><trkpt lat="42.0826405" lon="13.6271872"><ele>1135.5</ele><time>2026-05-02T12:10:12.926Z</time></trkpt><trkpt lat="42.0825741" lon="13.6271514"><ele>1135.3333333333333</ele><time>2026-05-02T12:10:13.925Z</time></trkpt><trkpt lat="42.0825102" lon="13.627111"><ele>1135.1666666666665</ele><time>2026-05-02T12:10:14.925Z</time></trkpt><trkpt lat="42.0824462" lon="13.6270575"><ele>1135.0</ele><time>2026-05-02T12:10:15.925Z</time></trkpt><trkpt lat="42.082387" lon="13.6269899"><ele>1135.3333333333333</ele><time>2026-05-02T12:10:16.925Z</time></trkpt><trkpt lat="42.0823378" lon="13.6269101"><ele>1135.6666666666665</ele><time>2026-05-02T12:10:17.924Z</time></trkpt><trkpt lat="42.0822938" lon="13.6268151"><ele>1136.0</ele><time>2026-05-02T12:10:18.925Z</time></trkpt><trkpt lat="42.0822483" lon="13.6267119"><ele>1136.3333333333333</ele><time>2026-05-02T12:10:19.925Z</time></trkpt><trkpt lat="42.0822038" lon="13.62661"><ele>1136.6666666666667</ele><time>2026-05-02T12:10:20.925Z</time></trkpt><trkpt lat="42.0821744" lon="13.6265207"><ele>1137.0</ele><time>2026-05-02T12:10:21.925Z</time></trkpt><trkpt lat="42.0821474" lon="13.6264248"><ele>1137.0</ele><time>2026-05-02T12:10:23.926Z</time></trkpt><trkpt lat="42.0821376" lon="13.6265139"><ele>1137.0</ele><time>2026-05-02T12:10:29.925Z</time></trkpt><trkpt lat="42.0822102" lon="13.6266267"><ele>1137.0</ele><time>2026-05-02T12:10:32.925Z</time></trkpt><trkpt lat="42.0822493" lon="13.6267118"><ele>1137.0</ele><time>2026-05-02T12:10:33.925Z</time></trkpt><trkpt lat="42.0822937" lon="13.6268091"><ele>1137.0</ele><time>2026-05-02T12:10:34.924Z</time></trkpt><trkpt lat="42.0823432" lon="13.6269038"><ele>1137.0</ele><time>2026-05-02T12:10:35.925Z</time></trkpt><trkpt lat="42.0824178" lon="13.6270091"><ele>1136.6</ele><time>2026-05-02T12:10:36.925Z</time></trkpt><trkpt lat="42.0824897" lon="13.6270845"><ele>1136.2</ele><time>2026-05-02T12:10:37.926Z</time></trkpt><trkpt lat="42.0825634" lon="13.6271449"><ele>1135.8</ele><time>2026-05-02T12:10:38.924Z</time></trkpt><trkpt lat="42.082644" lon="13.6271907"><ele>1135.4</ele><time>2026-05-02T12:10:39.925Z</time></trkpt><trkpt lat="42.0827384" lon="13.6272255"><ele>1135.0</ele><time>2026-05-02T12:10:40.923Z</time></trkpt><trkpt lat="42.0828316" lon="13.6272542"><ele>1135.0</ele><time>2026-05-02T12:10:41.924Z</time></trkpt><trkpt lat="42.0829326" lon="13.6272776"><ele>1135.0</ele><time>2026-05-02T12:10:42.926Z</time></trkpt><trkpt lat="42.0830245" lon="13.6272934"><ele>1135.0</ele><time>2026-05-02T12:10:43.925Z</time></trkpt><trkpt lat="42.0831324" lon="13.6272926"><ele>1135.0</ele><time>2026-05-02T12:10:44.926Z</time></trkpt><trkpt lat="42.0832319" lon="13.6272798"><ele>1135.0</ele><time>2026-05-02T12:10:45.925Z</time></trkpt><trkpt lat="42.0833387" lon="13.627232"><ele>1135.1666666666665</ele><time>2026-05-02T12:10:46.925Z</time></trkpt><trkpt lat="42.0834316" lon="13.6271816"><ele>1135.3333333333333</ele><time>2026-05-02T12:10:47.924Z</time></trkpt><trkpt lat="42.0835072" lon="13.6271321"><ele>1135.5</ele><time>2026-05-02T12:10:48.924Z</time></trkpt><trkpt lat="42.0835596" lon="13.6270792"><ele>1135.6666666666667</ele><time>2026-05-02T12:10:49.925Z</time></trkpt><trkpt lat="42.0836369" lon="13.6270208"><ele>1135.8333333333335</ele><time>2026-05-02T12:10:51.925Z</time></trkpt><trkpt lat="42.0836392" lon="13.6271526"><ele>1136.0</ele><time>2026-05-02T12:10:54.925Z</time></trkpt><trkpt lat="42.0836265" lon="13.6272493"><ele>1136.0</ele><time>2026-05-02T12:10:55.925Z</time></trkpt><trkpt lat="42.083597" lon="13.6273872"><ele>1136.0</ele><time>2026-05-02T12:10:57.926Z</time></trkpt><trkpt lat="42.0835636" lon="13.6274813"><ele>1136.0</ele><time>2026-05-02T12:11:00.925Z</time></trkpt><trkpt lat="42.0835156" lon="13.627557"><ele>1136.0</ele><time>2026-05-02T12:11:02.924Z</time></trkpt><trkpt lat="42.083451" lon="13.6276235"><ele>1136.0</ele><time>2026-05-02T12:11:03.925Z</time></trkpt><trkpt lat="42.0833618" lon="13.6277026"><ele>1136.0</ele><time>2026-05-02T12:11:04.924Z</time></trkpt><trkpt lat="42.0832521" lon="13.6277877"><ele>1133.25</ele><time>2026-05-02T12:11:05.925Z</time></trkpt><trkpt lat="42.0831288" lon="13.62787"><ele>1130.5</ele><time>2026-05-02T12:11:06.924Z</time></trkpt><trkpt lat="42.0829819" lon="13.6279731"><ele>1127.75</ele><time>2026-05-02T12:11:07.925Z</time></trkpt><trkpt lat="42.0828532" lon="13.6280611"><ele>1125.0</ele><time>2026-05-02T12:11:08.923Z</time></trkpt><trkpt lat="42.0827295" lon="13.6281496"><ele>1125.0</ele><time>2026-05-02T12:11:09.925Z</time></trkpt><trkpt lat="42.0826107" lon="13.6282306"><ele>1125.0</ele><time>2026-05-02T12:11:10.925Z</time></trkpt><trkpt lat="42.0825314" lon="13.628286"><ele>1125.0</ele><time>2026-05-02T12:11:11.925Z</time></trkpt><trkpt lat="42.0824343" lon="13.6283529"><ele>1125.0</ele><time>2026-05-02T12:11:12.924Z</time></trkpt><trkpt lat="42.0823459" lon="13.6284112"><ele>1125.0</ele><time>2026-05-02T12:11:13.925Z</time></trkpt><trkpt lat="42.0822588" lon="13.6284613"><ele>1123.8333333333333</ele><time>2026-05-02T12:11:14.925Z</time></trkpt><trkpt lat="42.0821783" lon="13.6285099"><ele>1122.6666666666667</ele><time>2026-05-02T12:11:15.925Z</time></trkpt><trkpt lat="42.0821023" lon="13.6285475"><ele>1121.5</ele><time>2026-05-02T12:11:16.925Z</time></trkpt><trkpt lat="42.0820153" lon="13.6285804"><ele>1120.3333333333335</ele><time>2026-05-02T12:11:17.923Z</time></trkpt><trkpt lat="42.0819329" lon="13.6285994"><ele>1119.1666666666667</ele><time>2026-05-02T12:11:18.924Z</time></trkpt><trkpt lat="42.0818519" lon="13.6286027"><ele>1118.0</ele><time>2026-05-02T12:11:19.924Z</time></trkpt><trkpt lat="42.0817844" lon="13.6285949"><ele>1118.0</ele><time>2026-05-02T12:11:20.924Z</time></trkpt><trkpt lat="42.0817191" lon="13.6285749"><ele>1118.0</ele><time>2026-05-02T12:11:21.925Z</time></trkpt><trkpt lat="42.0816576" lon="13.6285538"><ele>1118.0</ele><time>2026-05-02T12:11:22.924Z</time></trkpt><trkpt lat="42.0815445" lon="13.6285078"><ele>1118.0</ele><time>2026-05-02T12:11:24.924Z</time></trkpt><trkpt lat="42.0814443" lon="13.6284454"><ele>1118.0</ele><time>2026-05-02T12:11:26.924Z</time></trkpt><trkpt lat="42.0813329" lon="13.6283916"><ele>1115.7142857142858</ele><time>2026-05-02T12:11:28.925Z</time></trkpt><trkpt lat="42.0812723" lon="13.6283601"><ele>1113.4285714285716</ele><time>2026-05-02T12:11:29.924Z</time></trkpt><trkpt lat="42.0812095" lon="13.6283144"><ele>1111.142857142857</ele><time>2026-05-02T12:11:30.925Z</time></trkpt><trkpt lat="42.0811468" lon="13.6282568"><ele>1108.857142857143</ele><time>2026-05-02T12:11:31.925Z</time></trkpt><trkpt lat="42.0810881" lon="13.6281933"><ele>1106.5714285714284</ele><time>2026-05-02T12:11:32.926Z</time></trkpt><trkpt lat="42.081034" lon="13.6281279"><ele>1104.2857142857142</ele><time>2026-05-02T12:11:33.925Z</time></trkpt><trkpt lat="42.0809765" lon="13.6280562"><ele>1102.0</ele><time>2026-05-02T12:11:34.925Z</time></trkpt><trkpt lat="42.0809233" lon="13.6279797"><ele>1101.9999999999998</ele><time>2026-05-02T12:11:35.925Z</time></trkpt><trkpt lat="42.0808646" lon="13.627904"><ele>1102.0</ele><time>2026-05-02T12:11:36.924Z</time></trkpt><trkpt lat="42.080814" lon="13.6278315"><ele>1102.0</ele><time>2026-05-02T12:11:37.925Z</time></trkpt><trkpt lat="42.0807604" lon="13.6277597"><ele>1102.0</ele><time>2026-05-02T12:11:38.925Z</time></trkpt><trkpt lat="42.0807104" lon="13.6276846"><ele>1102.0</ele><time>2026-05-02T12:11:39.925Z</time></trkpt><trkpt lat="42.0806601" lon="13.6276124"><ele>1101.9999999999998</ele><time>2026-05-02T12:11:40.924Z</time></trkpt><trkpt lat="42.0806126" lon="13.6275438"><ele>1102.0</ele><time>2026-05-02T12:11:41.925Z</time></trkpt><trkpt lat="42.0805736" lon="13.6274758"><ele>1100.6666666666665</ele><time>2026-05-02T12:11:42.924Z</time></trkpt><trkpt lat="42.0805005" lon="13.6273438"><ele>1099.3333333333333</ele><time>2026-05-02T12:11:44.925Z</time></trkpt><trkpt lat="42.080463" lon="13.6272747"><ele>1098.0</ele><time>2026-05-02T12:11:45.925Z</time></trkpt><trkpt lat="42.080429" lon="13.6271993"><ele>1096.6666666666667</ele><time>2026-05-02T12:11:46.924Z</time></trkpt><trkpt lat="42.0803768" lon="13.6270615"><ele>1095.3333333333335</ele><time>2026-05-02T12:11:48.925Z</time></trkpt><trkpt lat="42.0803564" lon="13.6269793"><ele>1094.0</ele><time>2026-05-02T12:11:49.926Z</time></trkpt><trkpt lat="42.0803467" lon="13.6268683"><ele>1094.0</ele><time>2026-05-02T12:11:50.925Z</time></trkpt><trkpt lat="42.0803472" lon="13.6267437"><ele>1094.0</ele><time>2026-05-02T12:11:51.923Z</time></trkpt><trkpt lat="42.0803615" lon="13.6266138"><ele>1094.0</ele><time>2026-05-02T12:11:52.925Z</time></trkpt><trkpt lat="42.0803849" lon="13.6264892"><ele>1094.0</ele><time>2026-05-02T12:11:53.925Z</time></trkpt><trkpt lat="42.0804136" lon="13.6263769"><ele>1094.0</ele><time>2026-05-02T12:11:54.925Z</time></trkpt><trkpt lat="42.0804367" lon="13.6262748"><ele>1094.0</ele><time>2026-05-02T12:11:55.925Z</time></trkpt><trkpt lat="42.0804548" lon="13.6261768"><ele>1094.0</ele><time>2026-05-02T12:11:56.926Z</time></trkpt><trkpt lat="42.080462" lon="13.6260801"><ele>1094.0</ele><time>2026-05-02T12:11:57.923Z</time></trkpt><trkpt lat="42.0804574" lon="13.6259836"><ele>1094.0</ele><time>2026-05-02T12:11:58.924Z</time></trkpt><trkpt lat="42.0804418" lon="13.6258927"><ele>1094.0</ele><time>2026-05-02T12:11:59.925Z</time></trkpt><trkpt lat="42.0804245" lon="13.6258045"><ele>1094.0</ele><time>2026-05-02T12:12:00.925Z</time></trkpt><trkpt lat="42.0804079" lon="13.6257175"><ele>1094.0</ele><time>2026-05-02T12:12:01.925Z</time></trkpt><trkpt lat="42.0803987" lon="13.6256246"><ele>1094.3333333333335</ele><time>2026-05-02T12:12:02.923Z</time></trkpt><trkpt lat="42.0803891" lon="13.6255296"><ele>1094.6666666666667</ele><time>2026-05-02T12:12:03.925Z</time></trkpt><trkpt lat="42.0803772" lon="13.625425"><ele>1095.0</ele><time>2026-05-02T12:12:04.924Z</time></trkpt><trkpt lat="42.0803715" lon="13.625312"><ele>1095.3333333333333</ele><time>2026-05-02T12:12:05.925Z</time></trkpt><trkpt lat="42.0803656" lon="13.6252024"><ele>1095.6666666666665</ele><time>2026-05-02T12:12:06.924Z</time></trkpt><trkpt lat="42.0803638" lon="13.6250958"><ele>1096.0</ele><time>2026-05-02T12:12:07.926Z</time></trkpt><trkpt lat="42.0803608" lon="13.624986"><ele>1096.5</ele><time>2026-05-02T12:12:08.926Z</time></trkpt><trkpt lat="42.0803566" lon="13.6248668"><ele>1097.0</ele><time>2026-05-02T12:12:09.924Z</time></trkpt><trkpt lat="42.0803583" lon="13.6247454"><ele>1097.5</ele><time>2026-05-02T12:12:10.924Z</time></trkpt><trkpt lat="42.0803648" lon="13.624622"><ele>1098.0</ele><time>2026-05-02T12:12:11.924Z</time></trkpt><trkpt lat="42.0803827" lon="13.6245047"><ele>1098.5</ele><time>2026-05-02T12:12:12.924Z</time></trkpt><trkpt lat="42.0804105" lon="13.62439"><ele>1099.0</ele><time>2026-05-02T12:12:13.926Z</time></trkpt><trkpt lat="42.0804411" lon="13.6242707"><ele>1099.0</ele><time>2026-05-02T12:12:14.924Z</time></trkpt><trkpt lat="42.0804611" lon="13.6241594"><ele>1099.0</ele><time>2026-05-02T12:12:15.923Z</time></trkpt><trkpt lat="42.0804703" lon="13.6240371"><ele>1099.0</ele><time>2026-05-02T12:12:16.925Z</time></trkpt><trkpt lat="42.0804606" lon="13.6239101"><ele>1099.0</ele><time>2026-05-02T12:12:17.924Z</time></trkpt><trkpt lat="42.0804485" lon="13.6237974"><ele>1099.0</ele><time>2026-05-02T12:12:18.926Z</time></trkpt><trkpt lat="42.080434" lon="13.6236842"><ele>1099.0</ele><time>2026-05-02T12:12:19.925Z</time></trkpt><trkpt lat="42.0804191" lon="13.6235709"><ele>1099.6666666666665</ele><time>2026-05-02T12:12:20.924Z</time></trkpt><trkpt lat="42.0804094" lon="13.6234632"><ele>1100.3333333333333</ele><time>2026-05-02T12:12:21.925Z</time></trkpt><trkpt lat="42.0804033" lon="13.6233569"><ele>1101.0</ele><time>2026-05-02T12:12:22.925Z</time></trkpt><trkpt lat="42.0804042" lon="13.6232443"><ele>1101.6666666666667</ele><time>2026-05-02T12:12:23.924Z</time></trkpt><trkpt lat="42.0804109" lon="13.6231287"><ele>1102.3333333333335</ele><time>2026-05-02T12:12:24.925Z</time></trkpt><trkpt lat="42.0804231" lon="13.6230073"><ele>1103.0</ele><time>2026-05-02T12:12:25.924Z</time></trkpt><trkpt lat="42.0804333" lon="13.62289"><ele>1102.6666666666667</ele><time>2026-05-02T12:12:26.924Z</time></trkpt><trkpt lat="42.0804545" lon="13.6228043"><ele>1102.3333333333335</ele><time>2026-05-02T12:12:27.924Z</time></trkpt><trkpt lat="42.0804723" lon="13.6226849"><ele>1102.0</ele><time>2026-05-02T12:12:29.925Z</time></trkpt><trkpt lat="42.0804716" lon="13.6225856"><ele>1101.6666666666667</ele><time>2026-05-02T12:13:17.925Z</time></trkpt><trkpt lat="42.0804832" lon="13.6224937"><ele>1101.3333333333333</ele><time>2026-05-02T12:13:18.925Z</time></trkpt><trkpt lat="42.0805093" lon="13.6223798"><ele>1101.0</ele><time>2026-05-02T12:13:19.923Z</time></trkpt><trkpt lat="42.0805614" lon="13.6222333"><ele>1101.0</ele><time>2026-05-02T12:13:20.923Z</time></trkpt><trkpt lat="42.0806008" lon="13.6221231"><ele>1101.0</ele><time>2026-05-02T12:13:21.925Z</time></trkpt><trkpt lat="42.0806499" lon="13.6220189"><ele>1101.0</ele><time>2026-05-02T12:13:22.923Z</time></trkpt><trkpt lat="42.0806983" lon="13.6219268"><ele>1101.0</ele><time>2026-05-02T12:13:23.925Z</time></trkpt><trkpt lat="42.0807414" lon="13.6218563"><ele>1101.0</ele><time>2026-05-02T12:13:24.923Z</time></trkpt><trkpt lat="42.0808261" lon="13.6217563"><ele>1101.0</ele><time>2026-05-02T12:13:26.925Z</time></trkpt><trkpt lat="42.0808983" lon="13.6216468"><ele>1102.3333333333333</ele><time>2026-05-02T12:13:28.925Z</time></trkpt><trkpt lat="42.0809271" lon="13.6215662"><ele>1103.6666666666667</ele><time>2026-05-02T12:13:29.923Z</time></trkpt><trkpt lat="42.0809492" lon="13.6214831"><ele>1105.0</ele><time>2026-05-02T12:13:30.925Z</time></trkpt><trkpt lat="42.0809833" lon="13.621384"><ele>1106.3333333333335</ele><time>2026-05-02T12:13:31.925Z</time></trkpt><trkpt lat="42.0810313" lon="13.621265"><ele>1107.6666666666667</ele><time>2026-05-02T12:13:32.925Z</time></trkpt><trkpt lat="42.0810918" lon="13.6211268"><ele>1109.0</ele><time>2026-05-02T12:13:33.924Z</time></trkpt><trkpt lat="42.0811504" lon="13.6209755"><ele>1109.0</ele><time>2026-05-02T12:13:34.924Z</time></trkpt><trkpt lat="42.0812045" lon="13.6208199"><ele>1109.0</ele><time>2026-05-02T12:13:35.924Z</time></trkpt><trkpt lat="42.0812393" lon="13.6206645"><ele>1109.0</ele><time>2026-05-02T12:13:36.924Z</time></trkpt><trkpt lat="42.0812719" lon="13.6205014"><ele>1109.0</ele><time>2026-05-02T12:13:37.923Z</time></trkpt><trkpt lat="42.0813125" lon="13.6203503"><ele>1107.6000000000001</ele><time>2026-05-02T12:13:38.926Z</time></trkpt><trkpt lat="42.0813507" lon="13.6202001"><ele>1106.2</ele><time>2026-05-02T12:13:39.925Z</time></trkpt><trkpt lat="42.0813924" lon="13.6200619"><ele>1104.8000000000002</ele><time>2026-05-02T12:13:40.924Z</time></trkpt><trkpt lat="42.0814257" lon="13.6199268"><ele>1103.4</ele><time>2026-05-02T12:13:41.923Z</time></trkpt><trkpt lat="42.081461" lon="13.6197918"><ele>1102.0</ele><time>2026-05-02T12:13:42.924Z</time></trkpt><trkpt lat="42.0814956" lon="13.6196574"><ele>1102.0</ele><time>2026-05-02T12:13:43.925Z</time></trkpt><trkpt lat="42.0815291" lon="13.6195268"><ele>1102.0</ele><time>2026-05-02T12:13:44.925Z</time></trkpt><trkpt lat="42.0815686" lon="13.6193922"><ele>1102.0</ele><time>2026-05-02T12:13:45.925Z</time></trkpt><trkpt lat="42.081607" lon="13.6192687"><ele>1102.0</ele><time>2026-05-02T12:13:46.925Z</time></trkpt><trkpt lat="42.0816485" lon="13.6191391"><ele>1102.0</ele><time>2026-05-02T12:13:47.923Z</time></trkpt><trkpt lat="42.081681" lon="13.6190038"><ele>1101.2</ele><time>2026-05-02T12:13:48.924Z</time></trkpt><trkpt lat="42.0817245" lon="13.618879"><ele>1100.4</ele><time>2026-05-02T12:13:49.925Z</time></trkpt><trkpt lat="42.0817684" lon="13.6187416"><ele>1099.6</ele><time>2026-05-02T12:13:50.926Z</time></trkpt><trkpt lat="42.0818064" lon="13.6186028"><ele>1098.8</ele><time>2026-05-02T12:13:51.925Z</time></trkpt><trkpt lat="42.0818512" lon="13.6184713"><ele>1098.0</ele><time>2026-05-02T12:13:52.923Z</time></trkpt><trkpt lat="42.0818965" lon="13.6183405"><ele>1098.0</ele><time>2026-05-02T12:13:53.925Z</time></trkpt><trkpt lat="42.0819376" lon="13.6182051"><ele>1098.0</ele><time>2026-05-02T12:13:54.923Z</time></trkpt><trkpt lat="42.0819783" lon="13.6180688"><ele>1098.0</ele><time>2026-05-02T12:13:55.926Z</time></trkpt><trkpt lat="42.0820163" lon="13.6179352"><ele>1098.0</ele><time>2026-05-02T12:13:56.923Z</time></trkpt><trkpt lat="42.0820518" lon="13.6178055"><ele>1098.0</ele><time>2026-05-02T12:13:57.925Z</time></trkpt><trkpt lat="42.0820856" lon="13.6176657"><ele>1095.8</ele><time>2026-05-02T12:13:58.925Z</time></trkpt><trkpt lat="42.0821201" lon="13.6175183"><ele>1093.6</ele><time>2026-05-02T12:13:59.924Z</time></trkpt><trkpt lat="42.0821468" lon="13.6173769"><ele>1091.4</ele><time>2026-05-02T12:14:00.925Z</time></trkpt><trkpt lat="42.0821716" lon="13.6172437"><ele>1089.2</ele><time>2026-05-02T12:14:01.923Z</time></trkpt><trkpt lat="42.0821956" lon="13.6171172"><ele>1087.0</ele><time>2026-05-02T12:14:02.924Z</time></trkpt><trkpt lat="42.0822216" lon="13.6169923"><ele>1085.6</ele><time>2026-05-02T12:14:03.925Z</time></trkpt><trkpt lat="42.0822416" lon="13.616866"><ele>1084.2</ele><time>2026-05-02T12:14:04.924Z</time></trkpt><trkpt lat="42.0822494" lon="13.6167476"><ele>1082.8</ele><time>2026-05-02T12:14:05.924Z</time></trkpt><trkpt lat="42.082247" lon="13.6166263"><ele>1081.4</ele><time>2026-05-02T12:14:06.925Z</time></trkpt><trkpt lat="42.082237" lon="13.6165037"><ele>1080.0</ele><time>2026-05-02T12:14:07.924Z</time></trkpt><trkpt lat="42.0822328" lon="13.6163752"><ele>1080.0</ele><time>2026-05-02T12:14:08.924Z</time></trkpt><trkpt lat="42.082231" lon="13.6162404"><ele>1080.0</ele><time>2026-05-02T12:14:09.925Z</time></trkpt><trkpt lat="42.0822269" lon="13.6161016"><ele>1080.0</ele><time>2026-05-02T12:14:10.924Z</time></trkpt><trkpt lat="42.0822216" lon="13.61596"><ele>1080.0</ele><time>2026-05-02T12:14:11.926Z</time></trkpt><trkpt lat="42.082222" lon="13.6158118"><ele>1080.0</ele><time>2026-05-02T12:14:12.925Z</time></trkpt><trkpt lat="42.0822281" lon="13.6156704"><ele>1078.4</ele><time>2026-05-02T12:14:13.924Z</time></trkpt><trkpt lat="42.0822282" lon="13.6155341"><ele>1076.8</ele><time>2026-05-02T12:14:14.926Z</time></trkpt><trkpt lat="42.082223" lon="13.6153935"><ele>1075.2</ele><time>2026-05-02T12:14:15.924Z</time></trkpt><trkpt lat="42.0822173" lon="13.6152629"><ele>1073.6</ele><time>2026-05-02T12:14:16.926Z</time></trkpt><trkpt lat="42.0822093" lon="13.6151303"><ele>1072.0</ele><time>2026-05-02T12:14:17.926Z</time></trkpt><trkpt lat="42.0821994" lon="13.614988"><ele>1070.8</ele><time>2026-05-02T12:14:18.925Z</time></trkpt><trkpt lat="42.0821925" lon="13.6148519"><ele>1069.6</ele><time>2026-05-02T12:14:19.923Z</time></trkpt><trkpt lat="42.0821853" lon="13.6147066"><ele>1068.3999999999999</ele><time>2026-05-02T12:14:20.925Z</time></trkpt><trkpt lat="42.0821807" lon="13.6145532"><ele>1067.2</ele><time>2026-05-02T12:14:21.924Z</time></trkpt><trkpt lat="42.0821761" lon="13.614406"><ele>1066.0</ele><time>2026-05-02T12:14:22.923Z</time></trkpt><trkpt lat="42.082173" lon="13.6142592"><ele>1064.25</ele><time>2026-05-02T12:14:23.924Z</time></trkpt><trkpt lat="42.08217" lon="13.614097"><ele>1062.5</ele><time>2026-05-02T12:14:24.925Z</time></trkpt><trkpt lat="42.0821662" lon="13.613931"><ele>1060.75</ele><time>2026-05-02T12:14:25.923Z</time></trkpt><trkpt lat="42.0821587" lon="13.6137587"><ele>1059.0</ele><time>2026-05-02T12:14:26.924Z</time></trkpt><trkpt lat="42.0821453" lon="13.6135977"><ele>1057.75</ele><time>2026-05-02T12:14:27.925Z</time></trkpt><trkpt lat="42.0821363" lon="13.6134249"><ele>1056.5</ele><time>2026-05-02T12:14:28.924Z</time></trkpt><trkpt lat="42.0821289" lon="13.6132398"><ele>1055.25</ele><time>2026-05-02T12:14:29.924Z</time></trkpt><trkpt lat="42.0821159" lon="13.6130517"><ele>1054.0</ele><time>2026-05-02T12:14:30.925Z</time></trkpt><trkpt lat="42.0821056" lon="13.6128707"><ele>1052.75</ele><time>2026-05-02T12:14:31.925Z</time></trkpt><trkpt lat="42.0821018" lon="13.6126966"><ele>1051.5</ele><time>2026-05-02T12:14:32.924Z</time></trkpt><trkpt lat="42.0820977" lon="13.6125393"><ele>1050.25</ele><time>2026-05-02T12:14:33.924Z</time></trkpt><trkpt lat="42.0820861" lon="13.6123893"><ele>1049.0</ele><time>2026-05-02T12:14:34.923Z</time></trkpt><trkpt lat="42.0820737" lon="13.6122468"><ele>1049.0</ele><time>2026-05-02T12:14:35.924Z</time></trkpt><trkpt lat="42.0820642" lon="13.6120986"><ele>1049.0</ele><time>2026-05-02T12:14:36.924Z</time></trkpt><trkpt lat="42.0820531" lon="13.611956"><ele>1049.0</ele><time>2026-05-02T12:14:37.926Z</time></trkpt><trkpt lat="42.0820506" lon="13.6118109"><ele>1049.0</ele><time>2026-05-02T12:14:38.924Z</time></trkpt><trkpt lat="42.0820456" lon="13.6116667"><ele>1049.0</ele><time>2026-05-02T12:14:39.924Z</time></trkpt><trkpt lat="42.0820396" lon="13.6115299"><ele>1047.6000000000001</ele><time>2026-05-02T12:14:40.925Z</time></trkpt><trkpt lat="42.0820337" lon="13.6113804"><ele>1046.2</ele><time>2026-05-02T12:14:41.925Z</time></trkpt><trkpt lat="42.0820278" lon="13.6112401"><ele>1044.8000000000002</ele><time>2026-05-02T12:14:42.923Z</time></trkpt><trkpt lat="42.0820373" lon="13.6111078"><ele>1043.4</ele><time>2026-05-02T12:14:43.925Z</time></trkpt><trkpt lat="42.0820417" lon="13.61098"><ele>1042.0</ele><time>2026-05-02T12:14:44.924Z</time></trkpt><trkpt lat="42.082059" lon="13.6108654"><ele>1039.8</ele><time>2026-05-02T12:14:45.925Z</time></trkpt><trkpt lat="42.0820846" lon="13.6107643"><ele>1037.6</ele><time>2026-05-02T12:14:46.925Z</time></trkpt><trkpt lat="42.0821252" lon="13.610671"><ele>1035.3999999999999</ele><time>2026-05-02T12:14:47.925Z</time></trkpt><trkpt lat="42.0821563" lon="13.6105928"><ele>1033.2</ele><time>2026-05-02T12:14:48.924Z</time></trkpt><trkpt lat="42.0822489" lon="13.610502"><ele>1031.0</ele><time>2026-05-02T12:14:50.923Z</time></trkpt><trkpt lat="42.0823828" lon="13.6104618"><ele>1031.6666666666667</ele><time>2026-05-02T12:14:52.924Z</time></trkpt><trkpt lat="42.0824699" lon="13.6104511"><ele>1032.3333333333335</ele><time>2026-05-02T12:14:53.924Z</time></trkpt><trkpt lat="42.0825532" lon="13.6104467"><ele>1033.0</ele><time>2026-05-02T12:14:54.924Z</time></trkpt><trkpt lat="42.0826279" lon="13.6104332"><ele>1033.6666666666667</ele><time>2026-05-02T12:14:55.925Z</time></trkpt><trkpt lat="42.0826969" lon="13.6104061"><ele>1034.3333333333333</ele><time>2026-05-02T12:14:56.924Z</time></trkpt><trkpt lat="42.0827572" lon="13.6103751"><ele>1035.0</ele><time>2026-05-02T12:14:57.926Z</time></trkpt><trkpt lat="42.0828296" lon="13.6102767"><ele>1035.0</ele><time>2026-05-02T12:14:59.925Z</time></trkpt><trkpt lat="42.082844" lon="13.6101834"><ele>1035.0</ele><time>2026-05-02T12:15:02.924Z</time></trkpt><trkpt lat="42.0827526" lon="13.6101249"><ele>1035.0</ele><time>2026-05-02T12:15:43.926Z</time></trkpt><trkpt lat="42.08265" lon="13.610079"><ele>1035.0</ele><time>2026-05-02T12:15:45.925Z</time></trkpt><trkpt lat="42.0825429" lon="13.6100485"><ele>1035.0</ele><time>2026-05-02T12:15:47.925Z</time></trkpt><trkpt lat="42.0824284" lon="13.6100324"><ele>1032.6666666666667</ele><time>2026-05-02T12:15:49.926Z</time></trkpt><trkpt lat="42.0822994" lon="13.610005"><ele>1030.3333333333333</ele><time>2026-05-02T12:15:51.925Z</time></trkpt><trkpt lat="42.0822276" lon="13.6099977"><ele>1028.0</ele><time>2026-05-02T12:15:52.924Z</time></trkpt><trkpt lat="42.0821608" lon="13.6099862"><ele>1025.6666666666665</ele><time>2026-05-02T12:15:53.925Z</time></trkpt><trkpt lat="42.0820941" lon="13.6099773"><ele>1023.3333333333333</ele><time>2026-05-02T12:15:54.925Z</time></trkpt><trkpt lat="42.0820252" lon="13.6099734"><ele>1021.0</ele><time>2026-05-02T12:15:55.924Z</time></trkpt><trkpt lat="42.081955" lon="13.6099831"><ele>1021.0</ele><time>2026-05-02T12:15:56.925Z</time></trkpt><trkpt lat="42.081891" lon="13.6099913"><ele>1020.9999999999999</ele><time>2026-05-02T12:15:57.924Z</time></trkpt><trkpt lat="42.0818256" lon="13.6099949"><ele>1020.9999999999999</ele><time>2026-05-02T12:15:58.924Z</time></trkpt><trkpt lat="42.0817158" lon="13.6099836"><ele>1021.0</ele><time>2026-05-02T12:16:00.925Z</time></trkpt><trkpt lat="42.0816127" lon="13.6099951"><ele>1021.0</ele><time>2026-05-02T12:16:02.926Z</time></trkpt><trkpt lat="42.0814998" lon="13.6100418"><ele>1018.5999999999999</ele><time>2026-05-02T12:16:04.925Z</time></trkpt><trkpt lat="42.0813904" lon="13.6101124"><ele>1016.1999999999999</ele><time>2026-05-02T12:16:06.925Z</time></trkpt><trkpt lat="42.0813299" lon="13.6101532"><ele>1013.8000000000001</ele><time>2026-05-02T12:16:07.924Z</time></trkpt><trkpt lat="42.0812186" lon="13.6102298"><ele>1011.4000000000001</ele><time>2026-05-02T12:16:09.923Z</time></trkpt><trkpt lat="42.0811133" lon="13.6102651"><ele>1009.0</ele><time>2026-05-02T12:16:11.926Z</time></trkpt><trkpt lat="42.0809918" lon="13.6102361"><ele>1008.9999999999999</ele><time>2026-05-02T12:16:13.924Z</time></trkpt><trkpt lat="42.0808713" lon="13.6102037"><ele>1009.0</ele><time>2026-05-02T12:16:15.925Z</time></trkpt><trkpt lat="42.0808043" lon="13.6101982"><ele>1009.0</ele><time>2026-05-02T12:16:16.925Z</time></trkpt><trkpt lat="42.080739" lon="13.6102052"><ele>1009.0</ele><time>2026-05-02T12:16:17.924Z</time></trkpt><trkpt lat="42.0806696" lon="13.610215"><ele>1008.9999999999999</ele><time>2026-05-02T12:16:18.925Z</time></trkpt><trkpt lat="42.0806062" lon="13.6102335"><ele>1009.0</ele><time>2026-05-02T12:16:19.925Z</time></trkpt><trkpt lat="42.0805397" lon="13.6102471"><ele>1007.1666666666666</ele><time>2026-05-02T12:16:20.924Z</time></trkpt><trkpt lat="42.080477" lon="13.6102616"><ele>1005.3333333333333</ele><time>2026-05-02T12:16:21.925Z</time></trkpt><trkpt lat="42.0804117" lon="13.6102798"><ele>1003.5</ele><time>2026-05-02T12:16:22.925Z</time></trkpt><trkpt lat="42.0803431" lon="13.6102986"><ele>1001.6666666666667</ele><time>2026-05-02T12:16:23.924Z</time></trkpt><trkpt lat="42.0802793" lon="13.610317"><ele>999.8333333333334</ele><time>2026-05-02T12:16:24.926Z</time></trkpt><trkpt lat="42.0802087" lon="13.6103228"><ele>998.0</ele><time>2026-05-02T12:16:25.924Z</time></trkpt><trkpt lat="42.0800798" lon="13.6103182"><ele>998.1428571428573</ele><time>2026-05-02T12:16:27.925Z</time></trkpt><trkpt lat="42.0800004" lon="13.610328"><ele>998.2857142857143</ele><time>2026-05-02T12:16:28.925Z</time></trkpt><trkpt lat="42.079926" lon="13.6103411"><ele>998.4285714285716</ele><time>2026-05-02T12:16:29.923Z</time></trkpt><trkpt lat="42.0798563" lon="13.6103562"><ele>998.5714285714287</ele><time>2026-05-02T12:16:30.925Z</time></trkpt><trkpt lat="42.079785" lon="13.6103798"><ele>998.7142857142858</ele><time>2026-05-02T12:16:31.925Z</time></trkpt><trkpt lat="42.0797173" lon="13.6104029"><ele>998.8571428571429</ele><time>2026-05-02T12:16:32.925Z</time></trkpt><trkpt lat="42.0796518" lon="13.6104214"><ele>999.0</ele><time>2026-05-02T12:16:33.923Z</time></trkpt><trkpt lat="42.0795321" lon="13.6104122"><ele>996.4000000000001</ele><time>2026-05-02T12:16:35.926Z</time></trkpt><trkpt lat="42.0794704" lon="13.6103811"><ele>993.8000000000001</ele><time>2026-05-02T12:16:36.924Z</time></trkpt><trkpt lat="42.0793528" lon="13.6103247"><ele>991.1999999999999</ele><time>2026-05-02T12:16:38.925Z</time></trkpt><trkpt lat="42.079291" lon="13.6102981"><ele>988.5999999999999</ele><time>2026-05-02T12:16:39.924Z</time></trkpt><trkpt lat="42.0792192" lon="13.6102735"><ele>986.0</ele><time>2026-05-02T12:16:40.925Z</time></trkpt><trkpt lat="42.0790973" lon="13.6102307"><ele>983.8571428571429</ele><time>2026-05-02T12:16:42.924Z</time></trkpt><trkpt lat="42.0790292" lon="13.61022"><ele>981.7142857142858</ele><time>2026-05-02T12:16:43.924Z</time></trkpt><trkpt lat="42.078966" lon="13.6102198"><ele>979.5714285714287</ele><time>2026-05-02T12:16:44.924Z</time></trkpt><trkpt lat="42.0789011" lon="13.6102286"><ele>977.4285714285714</ele><time>2026-05-02T12:16:45.924Z</time></trkpt><trkpt lat="42.0788295" lon="13.6102438"><ele>975.2857142857144</ele><time>2026-05-02T12:16:46.925Z</time></trkpt><trkpt lat="42.0787568" lon="13.6102559"><ele>973.1428571428572</ele><time>2026-05-02T12:16:47.923Z</time></trkpt><trkpt lat="42.0786832" lon="13.6102568"><ele>971.0</ele><time>2026-05-02T12:16:48.924Z</time></trkpt><trkpt lat="42.0786076" lon="13.6102513"><ele>971.0000000000001</ele><time>2026-05-02T12:16:49.925Z</time></trkpt><trkpt lat="42.0785211" lon="13.610233"><ele>971.0</ele><time>2026-05-02T12:16:50.924Z</time></trkpt><trkpt lat="42.0784453" lon="13.610217"><ele>971.0</ele><time>2026-05-02T12:16:51.924Z</time></trkpt><trkpt lat="42.0783618" lon="13.6102092"><ele>971.0</ele><time>2026-05-02T12:16:52.925Z</time></trkpt><trkpt lat="42.0782819" lon="13.6102184"><ele>971.0000000000001</ele><time>2026-05-02T12:16:53.925Z</time></trkpt><trkpt lat="42.0782061" lon="13.6102336"><ele>971.0</ele><time>2026-05-02T12:16:54.923Z</time></trkpt><trkpt lat="42.0780787" lon="13.6102716"><ele>969.4285714285714</ele><time>2026-05-02T12:16:56.924Z</time></trkpt><trkpt lat="42.0780111" lon="13.6102827"><ele>967.8571428571429</ele><time>2026-05-02T12:16:57.925Z</time></trkpt><trkpt lat="42.077933" lon="13.6102826"><ele>966.2857142857143</ele><time>2026-05-02T12:16:58.924Z</time></trkpt><trkpt lat="42.0778556" lon="13.6102754"><ele>964.7142857142858</ele><time>2026-05-02T12:16:59.925Z</time></trkpt><trkpt lat="42.0777857" lon="13.6102624"><ele>963.1428571428571</ele><time>2026-05-02T12:17:00.925Z</time></trkpt><trkpt lat="42.0777218" lon="13.6102633"><ele>961.5714285714287</ele><time>2026-05-02T12:17:01.924Z</time></trkpt><trkpt lat="42.0776539" lon="13.6102834"><ele>960.0</ele><time>2026-05-02T12:17:02.924Z</time></trkpt><trkpt lat="42.0775867" lon="13.610306"><ele>960.0</ele><time>2026-05-02T12:17:03.925Z</time></trkpt><trkpt lat="42.077471" lon="13.6103054"><ele>960.0</ele><time>2026-05-02T12:17:05.925Z</time></trkpt><trkpt lat="42.0774081" lon="13.6103104"><ele>960.0</ele><time>2026-05-02T12:17:06.923Z</time></trkpt><trkpt lat="42.0772827" lon="13.6103443"><ele>960.0</ele><time>2026-05-02T12:17:08.924Z</time></trkpt><trkpt lat="42.0771694" lon="13.6103961"><ele>960.0</ele><time>2026-05-02T12:17:10.924Z</time></trkpt><trkpt lat="42.0771046" lon="13.6104066"><ele>957.8333333333334</ele><time>2026-05-02T12:17:11.924Z</time></trkpt><trkpt lat="42.0769909" lon="13.6104005"><ele>955.6666666666667</ele><time>2026-05-02T12:17:13.925Z</time></trkpt><trkpt lat="42.0768757" lon="13.6103875"><ele>953.5</ele><time>2026-05-02T12:17:15.924Z</time></trkpt><trkpt lat="42.0768121" lon="13.6103856"><ele>951.3333333333334</ele><time>2026-05-02T12:17:16.925Z</time></trkpt><trkpt lat="42.0767459" lon="13.6103834"><ele>949.1666666666667</ele><time>2026-05-02T12:17:17.925Z</time></trkpt><trkpt lat="42.0766752" lon="13.6103832"><ele>947.0</ele><time>2026-05-02T12:17:18.925Z</time></trkpt><trkpt lat="42.0766043" lon="13.6103838"><ele>944.3333333333334</ele><time>2026-05-02T12:17:19.925Z</time></trkpt><trkpt lat="42.0765369" lon="13.6103816"><ele>941.6666666666667</ele><time>2026-05-02T12:17:20.925Z</time></trkpt><trkpt lat="42.0764682" lon="13.6103868"><ele>939.0</ele><time>2026-05-02T12:17:21.924Z</time></trkpt><trkpt lat="42.0763388" lon="13.610409"><ele>936.3333333333333</ele><time>2026-05-02T12:17:23.925Z</time></trkpt><trkpt lat="42.0762684" lon="13.6104164"><ele>933.6666666666666</ele><time>2026-05-02T12:17:24.925Z</time></trkpt><trkpt lat="42.0762061" lon="13.610439"><ele>931.0</ele><time>2026-05-02T12:17:25.926Z</time></trkpt><trkpt lat="42.076103" lon="13.6105223"><ele>930.9999999999999</ele><time>2026-05-02T12:17:27.924Z</time></trkpt><trkpt lat="42.0760145" lon="13.6106171"><ele>931.0</ele><time>2026-05-02T12:17:29.925Z</time></trkpt><trkpt lat="42.0759367" lon="13.6107149"><ele>931.0</ele><time>2026-05-02T12:17:31.923Z</time></trkpt><trkpt lat="42.0758552" lon="13.6107823"><ele>931.0</ele><time>2026-05-02T12:17:33.925Z</time></trkpt><trkpt lat="42.075801" lon="13.6108276"><ele>930.9999999999999</ele><time>2026-05-02T12:17:37.924Z</time></trkpt><trkpt lat="42.0757433" lon="13.6108737"><ele>931.0</ele><time>2026-05-02T12:17:41.925Z</time></trkpt><trkpt lat="42.0756692" lon="13.610911"><ele>928.9999999999999</ele><time>2026-05-02T12:17:44.925Z</time></trkpt><trkpt lat="42.0756101" lon="13.6109526"><ele>927.0</ele><time>2026-05-02T12:17:46.924Z</time></trkpt><trkpt lat="42.0755476" lon="13.6110033"><ele>925.0</ele><time>2026-05-02T12:17:48.925Z</time></trkpt><trkpt lat="42.0754712" lon="13.6110529"><ele>923.0</ele><time>2026-05-02T12:17:51.924Z</time></trkpt><trkpt lat="42.0753891" lon="13.6110818"><ele>920.9999999999999</ele><time>2026-05-02T12:17:54.924Z</time></trkpt><trkpt lat="42.0753318" lon="13.6111287"><ele>919.0</ele><time>2026-05-02T12:17:56.924Z</time></trkpt><trkpt lat="42.0752703" lon="13.6112173"><ele>918.8333333333333</ele><time>2026-05-02T12:17:59.925Z</time></trkpt><trkpt lat="42.0751833" lon="13.6112887"><ele>918.6666666666666</ele><time>2026-05-02T12:18:02.924Z</time></trkpt><trkpt lat="42.0751108" lon="13.6113079"><ele>918.5</ele><time>2026-05-02T12:18:05.924Z</time></trkpt><trkpt lat="42.0751789" lon="13.611282"><ele>918.3333333333333</ele><time>2026-05-02T12:18:40.925Z</time></trkpt><trkpt lat="42.0752792" lon="13.611312"><ele>918.1666666666666</ele><time>2026-05-02T12:18:45.924Z</time></trkpt><trkpt lat="42.0753407" lon="13.6113378"><ele>918.0</ele><time>2026-05-02T12:18:46.924Z</time></trkpt><trkpt lat="42.0754231" lon="13.6113636"><ele>918.0</ele><time>2026-05-02T12:18:49.924Z</time></trkpt><trkpt lat="42.075489" lon="13.6113367"><ele>918.0</ele><time>2026-05-02T12:19:05.923Z</time></trkpt><trkpt lat="42.0761836" lon="13.6110359"><ele>922.3333333333333</ele><time>2026-05-02T12:31:53.158Z</time></trkpt><trkpt lat="42.076095" lon="13.6109384"><ele>926.6666666666666</ele><time>2026-05-02T12:58:41.92Z</time></trkpt><trkpt lat="42.0761399" lon="13.6110476"><ele>931.0</ele><time>2026-05-02T12:59:59.919Z</time></trkpt><trkpt lat="42.0274181" lon="13.6487531"><ele>931.0</ele><time>2026-05-02T13:06:10.514Z</time></trkpt><trkpt lat="42.0760547" lon="13.6109763"><ele>931.0</ele><time>2026-05-02T13:07:20.157Z</time></trkpt><trkpt lat="42.076121" lon="13.610985"><ele>931.0</ele><time>2026-05-02T13:08:14.918Z</time></trkpt><trkpt lat="42.0755026" lon="13.6113415"><ele>929.1428571428571</ele><time>2026-05-02T13:11:14.668Z</time></trkpt><trkpt lat="42.0754313" lon="13.6113338"><ele>927.2857142857142</ele><time>2026-05-02T13:16:08.917Z</time></trkpt><trkpt lat="42.0753496" lon="13.6113551"><ele>925.4285714285714</ele><time>2026-05-02T13:16:53.916Z</time></trkpt><trkpt lat="42.0752808" lon="13.6113281"><ele>923.5714285714286</ele><time>2026-05-02T13:16:55.916Z</time></trkpt><trkpt lat="42.0752149" lon="13.6112877"><ele>921.7142857142857</ele><time>2026-05-02T13:16:58.915Z</time></trkpt><trkpt lat="42.0751455" lon="13.6112806"><ele>919.8571428571429</ele><time>2026-05-02T13:17:02.916Z</time></trkpt><trkpt lat="42.0750802" lon="13.6113001"><ele>918.0</ele><time>2026-05-02T13:17:05.916Z</time></trkpt><trkpt lat="42.0750061" lon="13.6113201"><ele>916.6666666666666</ele><time>2026-05-02T13:17:08.916Z</time></trkpt><trkpt lat="42.0749327" lon="13.6113235"><ele>915.3333333333333</ele><time>2026-05-02T13:17:11.916Z</time></trkpt><trkpt lat="42.0748524" lon="13.6113111"><ele>914.0</ele><time>2026-05-02T13:17:14.916Z</time></trkpt><trkpt lat="42.0747861" lon="13.6112837"><ele>912.6666666666666</ele><time>2026-05-02T13:17:16.916Z</time></trkpt><trkpt lat="42.0747058" lon="13.6112625"><ele>911.3333333333333</ele><time>2026-05-02T13:17:18.916Z</time></trkpt><trkpt lat="42.0746262" lon="13.6112327"><ele>910.0</ele><time>2026-05-02T13:17:20.916Z</time></trkpt><trkpt lat="42.0745142" lon="13.6111766"><ele>909.8</ele><time>2026-05-02T13:17:22.916Z</time></trkpt><trkpt lat="42.0744321" lon="13.6111379"><ele>909.6</ele><time>2026-05-02T13:17:23.917Z</time></trkpt><trkpt lat="42.0743365" lon="13.6110926"><ele>909.4000000000001</ele><time>2026-05-02T13:17:24.916Z</time></trkpt><trkpt lat="42.0742371" lon="13.611031"><ele>909.2</ele><time>2026-05-02T13:17:25.915Z</time></trkpt><trkpt lat="42.0741348" lon="13.6109705"><ele>909.0</ele><time>2026-05-02T13:17:26.915Z</time></trkpt><trkpt lat="42.0740385" lon="13.6109107"><ele>907.6</ele><time>2026-05-02T13:17:27.916Z</time></trkpt><trkpt lat="42.0739473" lon="13.6108454"><ele>906.2</ele><time>2026-05-02T13:17:28.916Z</time></trkpt><trkpt lat="42.0738564" lon="13.6107841"><ele>904.8000000000001</ele><time>2026-05-02T13:17:29.917Z</time></trkpt><trkpt lat="42.073775" lon="13.6107252"><ele>903.4000000000001</ele><time>2026-05-02T13:17:30.917Z</time></trkpt><trkpt lat="42.0736956" lon="13.6106686"><ele>902.0</ele><time>2026-05-02T13:17:31.916Z</time></trkpt><trkpt lat="42.0736195" lon="13.6106051"><ele>902.0</ele><time>2026-05-02T13:17:32.917Z</time></trkpt><trkpt lat="42.0735415" lon="13.6105376"><ele>902.0</ele><time>2026-05-02T13:17:33.916Z</time></trkpt><trkpt lat="42.0734663" lon="13.6104643"><ele>902.0</ele><time>2026-05-02T13:17:34.916Z</time></trkpt><trkpt lat="42.0733852" lon="13.610373"><ele>902.0</ele><time>2026-05-02T13:17:35.916Z</time></trkpt><trkpt lat="42.0732954" lon="13.6102845"><ele>902.0</ele><time>2026-05-02T13:17:36.916Z</time></trkpt><trkpt lat="42.0732075" lon="13.6101935"><ele>899.25</ele><time>2026-05-02T13:17:37.915Z</time></trkpt><trkpt lat="42.0731179" lon="13.610097"><ele>896.5</ele><time>2026-05-02T13:17:38.916Z</time></trkpt><trkpt lat="42.0730326" lon="13.6099964"><ele>893.75</ele><time>2026-05-02T13:17:39.915Z</time></trkpt><trkpt lat="42.072945" lon="13.6098945"><ele>891.0</ele><time>2026-05-02T13:17:40.916Z</time></trkpt><trkpt lat="42.0728572" lon="13.6098015"><ele>891.0</ele><time>2026-05-02T13:17:41.916Z</time></trkpt><trkpt lat="42.0727716" lon="13.6097007"><ele>891.0</ele><time>2026-05-02T13:17:42.917Z</time></trkpt><trkpt lat="42.0726859" lon="13.6095897"><ele>891.0</ele><time>2026-05-02T13:17:43.916Z</time></trkpt><trkpt lat="42.072594" lon="13.6094861"><ele>891.0</ele><time>2026-05-02T13:17:44.916Z</time></trkpt><trkpt lat="42.0725137" lon="13.6093865"><ele>889.3333333333334</ele><time>2026-05-02T13:17:45.917Z</time></trkpt><trkpt lat="42.0724373" lon="13.6092954"><ele>887.6666666666667</ele><time>2026-05-02T13:17:46.916Z</time></trkpt><trkpt lat="42.0723731" lon="13.6092155"><ele>886.0</ele><time>2026-05-02T13:17:47.916Z</time></trkpt><trkpt lat="42.0723154" lon="13.609144"><ele>884.3333333333334</ele><time>2026-05-02T13:17:48.916Z</time></trkpt><trkpt lat="42.0722632" lon="13.6090617"><ele>882.6666666666667</ele><time>2026-05-02T13:17:49.915Z</time></trkpt><trkpt lat="42.0722257" lon="13.6089668"><ele>881.0</ele><time>2026-05-02T13:17:50.916Z</time></trkpt><trkpt lat="42.0721985" lon="13.6088455"><ele>881.0</ele><time>2026-05-02T13:17:51.917Z</time></trkpt><trkpt lat="42.0721756" lon="13.6087096"><ele>881.0</ele><time>2026-05-02T13:17:52.916Z</time></trkpt><trkpt lat="42.0721474" lon="13.6085305"><ele>881.0</ele><time>2026-05-02T13:17:53.917Z</time></trkpt><trkpt lat="42.0721215" lon="13.6083639"><ele>881.0</ele><time>2026-05-02T13:17:54.916Z</time></trkpt><trkpt lat="42.0721003" lon="13.6082042"><ele>880.25</ele><time>2026-05-02T13:17:55.916Z</time></trkpt><trkpt lat="42.0720893" lon="13.6080443"><ele>879.5</ele><time>2026-05-02T13:17:56.917Z</time></trkpt><trkpt lat="42.0720866" lon="13.6078898"><ele>878.75</ele><time>2026-05-02T13:17:57.916Z</time></trkpt><trkpt lat="42.0720853" lon="13.6077376"><ele>878.0</ele><time>2026-05-02T13:17:58.915Z</time></trkpt><trkpt lat="42.0720842" lon="13.6075819"><ele>876.5</ele><time>2026-05-02T13:17:59.916Z</time></trkpt><trkpt lat="42.0720822" lon="13.6074242"><ele>875.0</ele><time>2026-05-02T13:18:00.917Z</time></trkpt><trkpt lat="42.07208" lon="13.6072702"><ele>873.5</ele><time>2026-05-02T13:18:01.916Z</time></trkpt><trkpt lat="42.07207" lon="13.6071199"><ele>872.0</ele><time>2026-05-02T13:18:02.916Z</time></trkpt><trkpt lat="42.0720492" lon="13.606971"><ele>869.75</ele><time>2026-05-02T13:18:03.916Z</time></trkpt><trkpt lat="42.0720096" lon="13.6068325"><ele>867.5</ele><time>2026-05-02T13:18:04.917Z</time></trkpt><trkpt lat="42.0719515" lon="13.6066998"><ele>865.25</ele><time>2026-05-02T13:18:05.915Z</time></trkpt><trkpt lat="42.0718766" lon="13.6065703"><ele>863.0</ele><time>2026-05-02T13:18:06.916Z</time></trkpt><trkpt lat="42.0717932" lon="13.6064549"><ele>863.0</ele><time>2026-05-02T13:18:07.916Z</time></trkpt><trkpt lat="42.0717015" lon="13.6063465"><ele>863.0</ele><time>2026-05-02T13:18:08.916Z</time></trkpt><trkpt lat="42.0716035" lon="13.6062422"><ele>863.0</ele><time>2026-05-02T13:18:09.917Z</time></trkpt><trkpt lat="42.0715017" lon="13.6061566"><ele>863.0</ele><time>2026-05-02T13:18:10.916Z</time></trkpt><trkpt lat="42.0713913" lon="13.6060877"><ele>859.25</ele><time>2026-05-02T13:18:11.916Z</time></trkpt><trkpt lat="42.0712772" lon="13.6060236"><ele>855.5</ele><time>2026-05-02T13:18:12.917Z</time></trkpt><trkpt lat="42.0711681" lon="13.6059589"><ele>851.75</ele><time>2026-05-02T13:18:13.916Z</time></trkpt><trkpt lat="42.0710649" lon="13.6058675"><ele>848.0</ele><time>2026-05-02T13:18:14.917Z</time></trkpt><trkpt lat="42.0709614" lon="13.6057678"><ele>848.0</ele><time>2026-05-02T13:18:15.917Z</time></trkpt><trkpt lat="42.0708576" lon="13.6056657"><ele>848.0</ele><time>2026-05-02T13:18:16.917Z</time></trkpt><trkpt lat="42.0707553" lon="13.6055642"><ele>848.0</ele><time>2026-05-02T13:18:17.916Z</time></trkpt><trkpt lat="42.0706489" lon="13.605468"><ele>848.0</ele><time>2026-05-02T13:18:18.916Z</time></trkpt><trkpt lat="42.0705432" lon="13.6053644"><ele>844.0</ele><time>2026-05-02T13:18:19.916Z</time></trkpt><trkpt lat="42.0704295" lon="13.6052577"><ele>840.0</ele><time>2026-05-02T13:18:20.915Z</time></trkpt><trkpt lat="42.0703172" lon="13.6051524"><ele>836.0</ele><time>2026-05-02T13:18:21.916Z</time></trkpt><trkpt lat="42.0702065" lon="13.6050468"><ele>832.0</ele><time>2026-05-02T13:18:22.917Z</time></trkpt><trkpt lat="42.0700906" lon="13.6049356"><ele>832.0</ele><time>2026-05-02T13:18:23.915Z</time></trkpt><trkpt lat="42.0699687" lon="13.6048191"><ele>832.0</ele><time>2026-05-02T13:18:24.916Z</time></trkpt><trkpt lat="42.0698406" lon="13.604699"><ele>832.0</ele><time>2026-05-02T13:18:25.916Z</time></trkpt><trkpt lat="42.0697053" lon="13.6045749"><ele>825.6666666666666</ele><time>2026-05-02T13:18:26.915Z</time></trkpt><trkpt lat="42.0695709" lon="13.6044494"><ele>819.3333333333333</ele><time>2026-05-02T13:18:27.916Z</time></trkpt><trkpt lat="42.0694357" lon="13.6043206"><ele>813.0</ele><time>2026-05-02T13:18:28.916Z</time></trkpt><trkpt lat="42.0693055" lon="13.6041898"><ele>813.0</ele><time>2026-05-02T13:18:29.916Z</time></trkpt><trkpt lat="42.0691772" lon="13.6040525"><ele>813.0</ele><time>2026-05-02T13:18:30.916Z</time></trkpt><trkpt lat="42.0690496" lon="13.603913"><ele>813.0</ele><time>2026-05-02T13:18:31.915Z</time></trkpt><trkpt lat="42.0689302" lon="13.6037795"><ele>811.75</ele><time>2026-05-02T13:18:32.916Z</time></trkpt><trkpt lat="42.0688128" lon="13.603652"><ele>810.5</ele><time>2026-05-02T13:18:33.916Z</time></trkpt><trkpt lat="42.0687114" lon="13.6035371"><ele>809.25</ele><time>2026-05-02T13:18:34.916Z</time></trkpt><trkpt lat="42.0686175" lon="13.6034438"><ele>808.0</ele><time>2026-05-02T13:18:35.916Z</time></trkpt><trkpt lat="42.0685369" lon="13.6033814"><ele>807.9999999999999</ele><time>2026-05-02T13:18:36.916Z</time></trkpt><trkpt lat="42.0684573" lon="13.6033494"><ele>808.0</ele><time>2026-05-02T13:18:37.916Z</time></trkpt><trkpt lat="42.0683849" lon="13.6033657"><ele>808.0</ele><time>2026-05-02T13:18:38.916Z</time></trkpt><trkpt lat="42.0683194" lon="13.6034097"><ele>808.0</ele><time>2026-05-02T13:18:39.916Z</time></trkpt><trkpt lat="42.0682411" lon="13.6034738"><ele>807.9999999999999</ele><time>2026-05-02T13:18:40.917Z</time></trkpt><trkpt lat="42.0681647" lon="13.6035156"><ele>808.0</ele><time>2026-05-02T13:18:41.916Z</time></trkpt><trkpt lat="42.0680784" lon="13.6035457"><ele>809.8</ele><time>2026-05-02T13:18:42.915Z</time></trkpt><trkpt lat="42.0679843" lon="13.6035494"><ele>811.5999999999999</ele><time>2026-05-02T13:18:43.917Z</time></trkpt><trkpt lat="42.0678791" lon="13.6035451"><ele>813.4000000000001</ele><time>2026-05-02T13:18:44.916Z</time></trkpt><trkpt lat="42.067767" lon="13.6035459"><ele>815.2</ele><time>2026-05-02T13:18:45.915Z</time></trkpt><trkpt lat="42.0676557" lon="13.6035382"><ele>817.0</ele><time>2026-05-02T13:18:46.915Z</time></trkpt><trkpt lat="42.0675311" lon="13.603534"><ele>818.0</ele><time>2026-05-02T13:18:47.916Z</time></trkpt><trkpt lat="42.0674074" lon="13.6035276"><ele>819.0</ele><time>2026-05-02T13:18:48.916Z</time></trkpt><trkpt lat="42.0672705" lon="13.6035217"><ele>820.0</ele><time>2026-05-02T13:18:49.916Z</time></trkpt><trkpt lat="42.0671382" lon="13.6035029"><ele>821.0</ele><time>2026-05-02T13:18:50.916Z</time></trkpt><trkpt lat="42.0670052" lon="13.6034653"><ele>821.0</ele><time>2026-05-02T13:18:51.916Z</time></trkpt><trkpt lat="42.0668772" lon="13.6034264"><ele>821.0</ele><time>2026-05-02T13:18:52.916Z</time></trkpt><trkpt lat="42.0667545" lon="13.6033835"><ele>821.0</ele><time>2026-05-02T13:18:53.916Z</time></trkpt><trkpt lat="42.0666323" lon="13.60335"><ele>821.0</ele><time>2026-05-02T13:18:54.916Z</time></trkpt><trkpt lat="42.0665147" lon="13.6033157"><ele>822.4</ele><time>2026-05-02T13:18:55.915Z</time></trkpt><trkpt lat="42.0664084" lon="13.6032919"><ele>823.8</ele><time>2026-05-02T13:18:56.916Z</time></trkpt><trkpt lat="42.0662913" lon="13.6032851"><ele>825.1999999999999</ele><time>2026-05-02T13:18:57.916Z</time></trkpt><trkpt lat="42.0661777" lon="13.6032947"><ele>826.5999999999999</ele><time>2026-05-02T13:18:58.916Z</time></trkpt><trkpt lat="42.0660802" lon="13.6033089"><ele>828.0</ele><time>2026-05-02T13:18:59.916Z</time></trkpt><trkpt lat="42.0660007" lon="13.6033162"><ele>828.0</ele><time>2026-05-02T13:19:00.916Z</time></trkpt><trkpt lat="42.0659353" lon="13.603329"><ele>828.0</ele><time>2026-05-02T13:19:01.917Z</time></trkpt><trkpt lat="42.0658198" lon="13.6033415"><ele>828.0</ele><time>2026-05-02T13:19:03.916Z</time></trkpt><trkpt lat="42.065754" lon="13.6032544"><ele>828.0</ele><time>2026-05-02T13:19:05.916Z</time></trkpt><trkpt lat="42.0657382" lon="13.6031673"><ele>828.0</ele><time>2026-05-02T13:19:06.916Z</time></trkpt><trkpt lat="42.0657185" lon="13.6030528"><ele>828.0</ele><time>2026-05-02T13:19:07.916Z</time></trkpt><trkpt lat="42.0656908" lon="13.6029458"><ele>828.1666666666666</ele><time>2026-05-02T13:19:08.916Z</time></trkpt><trkpt lat="42.0656831" lon="13.6028463"><ele>828.3333333333333</ele><time>2026-05-02T13:19:09.916Z</time></trkpt><trkpt lat="42.0656865" lon="13.6027567"><ele>828.5</ele><time>2026-05-02T13:19:10.917Z</time></trkpt><trkpt lat="42.0657159" lon="13.602678"><ele>828.6666666666666</ele><time>2026-05-02T13:19:11.916Z</time></trkpt><trkpt lat="42.0657984" lon="13.6025602"><ele>828.8333333333333</ele><time>2026-05-02T13:19:13.915Z</time></trkpt><trkpt lat="42.065831" lon="13.6024816"><ele>829.0</ele><time>2026-05-02T13:19:14.915Z</time></trkpt><trkpt lat="42.0658546" lon="13.6023702"><ele>828.8000000000001</ele><time>2026-05-02T13:19:15.916Z</time></trkpt><trkpt lat="42.0658826" lon="13.6022514"><ele>828.6</ele><time>2026-05-02T13:19:16.916Z</time></trkpt><trkpt lat="42.0659139" lon="13.6021177"><ele>828.4</ele><time>2026-05-02T13:19:17.915Z</time></trkpt><trkpt lat="42.0659458" lon="13.6019842"><ele>828.2</ele><time>2026-05-02T13:19:18.916Z</time></trkpt><trkpt lat="42.0659731" lon="13.6018393"><ele>828.0</ele><time>2026-05-02T13:19:19.915Z</time></trkpt><trkpt lat="42.0660042" lon="13.6016898"><ele>828.0</ele><time>2026-05-02T13:19:20.914Z</time></trkpt><trkpt lat="42.0660296" lon="13.6015446"><ele>828.0</ele><time>2026-05-02T13:19:21.916Z</time></trkpt><trkpt lat="42.0660463" lon="13.6013971"><ele>828.0</ele><time>2026-05-02T13:19:22.917Z</time></trkpt><trkpt lat="42.0660554" lon="13.6012553"><ele>828.0</ele><time>2026-05-02T13:19:23.916Z</time></trkpt><trkpt lat="42.0660595" lon="13.6011207"><ele>828.0</ele><time>2026-05-02T13:19:24.917Z</time></trkpt><trkpt lat="42.0660655" lon="13.6009962"><ele>828.0</ele><time>2026-05-02T13:19:25.916Z</time></trkpt><trkpt lat="42.0660681" lon="13.6008782"><ele>828.0</ele><time>2026-05-02T13:19:26.916Z</time></trkpt><trkpt lat="42.066079" lon="13.6007702"><ele>828.0</ele><time>2026-05-02T13:19:27.916Z</time></trkpt><trkpt lat="42.0660953" lon="13.6006711"><ele>828.0</ele><time>2026-05-02T13:19:28.915Z</time></trkpt><trkpt lat="42.0661127" lon="13.6005593"><ele>828.0</ele><time>2026-05-02T13:19:29.917Z</time></trkpt><trkpt lat="42.0661291" lon="13.6004583"><ele>828.0</ele><time>2026-05-02T13:19:30.916Z</time></trkpt><trkpt lat="42.0661415" lon="13.6003191"><ele>828.0</ele><time>2026-05-02T13:19:32.916Z</time></trkpt><trkpt lat="42.0661031" lon="13.6002253"><ele>828.0</ele><time>2026-05-02T13:19:35.916Z</time></trkpt><trkpt lat="42.0660231" lon="13.6001982"><ele>828.0</ele><time>2026-05-02T13:19:37.917Z</time></trkpt><trkpt lat="42.0659586" lon="13.6002032"><ele>828.0</ele><time>2026-05-02T13:19:38.916Z</time></trkpt><trkpt lat="42.0658305" lon="13.6002058"><ele>828.0</ele><time>2026-05-02T13:19:40.915Z</time></trkpt><trkpt lat="42.0657623" lon="13.600199"><ele>828.0</ele><time>2026-05-02T13:19:41.916Z</time></trkpt><trkpt lat="42.0656839" lon="13.6001903"><ele>826.2</ele><time>2026-05-02T13:19:42.917Z</time></trkpt><trkpt lat="42.0655977" lon="13.6001804"><ele>824.4</ele><time>2026-05-02T13:19:43.914Z</time></trkpt><trkpt lat="42.0655011" lon="13.6001716"><ele>822.6</ele><time>2026-05-02T13:19:44.916Z</time></trkpt><trkpt lat="42.0654069" lon="13.6001631"><ele>820.8000000000001</ele><time>2026-05-02T13:19:45.914Z</time></trkpt><trkpt lat="42.0653117" lon="13.600155"><ele>819.0</ele><time>2026-05-02T13:19:46.916Z</time></trkpt><trkpt lat="42.0652225" lon="13.6001524"><ele>819.0</ele><time>2026-05-02T13:19:47.917Z</time></trkpt><trkpt lat="42.0651364" lon="13.6001424"><ele>819.0</ele><time>2026-05-02T13:19:48.917Z</time></trkpt><trkpt lat="42.0650538" lon="13.6001341"><ele>819.0</ele><time>2026-05-02T13:19:49.916Z</time></trkpt><trkpt lat="42.0649681" lon="13.6001252"><ele>819.0</ele><time>2026-05-02T13:19:50.917Z</time></trkpt><trkpt lat="42.0648812" lon="13.6001263"><ele>819.0</ele><time>2026-05-02T13:19:51.915Z</time></trkpt><trkpt lat="42.0647881" lon="13.60013"><ele>819.0</ele><time>2026-05-02T13:19:52.916Z</time></trkpt><trkpt lat="42.0646894" lon="13.600134"><ele>817.5</ele><time>2026-05-02T13:19:53.915Z</time></trkpt><trkpt lat="42.064583" lon="13.6001505"><ele>816.0</ele><time>2026-05-02T13:19:54.916Z</time></trkpt><trkpt lat="42.0644789" lon="13.6001594"><ele>814.5</ele><time>2026-05-02T13:19:55.915Z</time></trkpt><trkpt lat="42.0643987" lon="13.600153"><ele>813.0</ele><time>2026-05-02T13:19:56.916Z</time></trkpt><trkpt lat="42.0643272" lon="13.6001378"><ele>811.5</ele><time>2026-05-02T13:19:57.915Z</time></trkpt><trkpt lat="42.0642643" lon="13.6001299"><ele>810.0</ele><time>2026-05-02T13:19:58.915Z</time></trkpt><trkpt lat="42.064169" lon="13.6001057"><ele>810.0</ele><time>2026-05-02T13:20:00.916Z</time></trkpt><trkpt lat="42.0641342" lon="13.5999993"><ele>810.0</ele><time>2026-05-02T13:20:03.916Z</time></trkpt><trkpt lat="42.0641677" lon="13.5998476"><ele>810.0</ele><time>2026-05-02T13:20:05.915Z</time></trkpt><trkpt lat="42.0642244" lon="13.5997477"><ele>810.0</ele><time>2026-05-02T13:20:07.916Z</time></trkpt><trkpt lat="42.0643173" lon="13.5997418"><ele>810.0</ele><time>2026-05-02T13:20:09.916Z</time></trkpt><trkpt lat="42.0644473" lon="13.5997755"><ele>810.0</ele><time>2026-05-02T13:20:11.916Z</time></trkpt><trkpt lat="42.0645355" lon="13.5997923"><ele>810.0</ele><time>2026-05-02T13:20:13.916Z</time></trkpt><trkpt lat="42.0645712" lon="13.5997169"><ele>810.0</ele><time>2026-05-02T13:20:15.915Z</time></trkpt><trkpt lat="42.064584" lon="13.5996335"><ele>810.0</ele><time>2026-05-02T13:20:17.916Z</time></trkpt><trkpt lat="42.0646694" lon="13.5996334"><ele>810.0</ele><time>2026-05-02T13:20:20.916Z</time></trkpt><trkpt lat="42.0646955" lon="13.5997538"><ele>810.0</ele><time>2026-05-02T13:20:23.916Z</time></trkpt><trkpt lat="42.0647135" lon="13.5998458"><ele>810.0</ele><time>2026-05-02T13:20:26.916Z</time></trkpt><trkpt lat="42.0647992" lon="13.5998749"><ele>810.0</ele><time>2026-05-02T13:20:28.915Z</time></trkpt><trkpt lat="42.0648956" lon="13.599901"><ele>810.0</ele><time>2026-05-02T13:20:30.917Z</time></trkpt><trkpt lat="42.0649591" lon="13.5999158"><ele>810.0</ele><time>2026-05-02T13:20:32.916Z</time></trkpt><trkpt lat="42.0649963" lon="13.5998057"><ele>810.0</ele><time>2026-05-02T13:20:35.916Z</time></trkpt><trkpt lat="42.064983" lon="13.5997111"><ele>810.0</ele><time>2026-05-02T13:20:37.915Z</time></trkpt><trkpt lat="42.0649146" lon="13.5997107"><ele>810.0</ele><time>2026-05-02T13:20:38.915Z</time></trkpt><trkpt lat="42.0647934" lon="13.5996681"><ele>810.0</ele><time>2026-05-02T13:20:40.916Z</time></trkpt><trkpt lat="42.0647225" lon="13.5996466"><ele>810.0</ele><time>2026-05-02T13:20:41.916Z</time></trkpt><trkpt lat="42.0646551" lon="13.5996217"><ele>810.0</ele><time>2026-05-02T13:20:42.916Z</time></trkpt><trkpt lat="42.0645854" lon="13.5996054"><ele>810.0</ele><time>2026-05-02T13:20:43.916Z</time></trkpt><trkpt lat="42.0645203" lon="13.5995851"><ele>810.0</ele><time>2026-05-02T13:20:44.916Z</time></trkpt><trkpt lat="42.0644404" lon="13.5995618"><ele>809.0</ele><time>2026-05-02T13:20:46.916Z</time></trkpt><trkpt lat="42.0644309" lon="13.5994624"><ele>808.0</ele><time>2026-05-02T13:20:49.916Z</time></trkpt><trkpt lat="42.0644858" lon="13.599383"><ele>807.0</ele><time>2026-05-02T13:20:52.916Z</time></trkpt><trkpt lat="42.0645886" lon="13.599398"><ele>806.0</ele><time>2026-05-02T13:20:54.915Z</time></trkpt><trkpt lat="42.0646608" lon="13.5994171"><ele>805.0</ele><time>2026-05-02T13:20:55.917Z</time></trkpt><trkpt lat="42.0647409" lon="13.5994393"><ele>804.0</ele><time>2026-05-02T13:20:56.916Z</time></trkpt><trkpt lat="42.0648239" lon="13.5994579"><ele>804.0</ele><time>2026-05-02T13:20:57.916Z</time></trkpt><trkpt lat="42.064903" lon="13.599479"><ele>804.0</ele><time>2026-05-02T13:20:58.916Z</time></trkpt><trkpt lat="42.0649819" lon="13.5994993"><ele>804.0</ele><time>2026-05-02T13:20:59.914Z</time></trkpt><trkpt lat="42.065052" lon="13.5995156"><ele>804.0</ele><time>2026-05-02T13:21:00.916Z</time></trkpt><trkpt lat="42.0651308" lon="13.5995287"><ele>804.0</ele><time>2026-05-02T13:21:02.917Z</time></trkpt><trkpt lat="42.0651812" lon="13.5994511"><ele>804.0</ele><time>2026-05-02T13:21:04.915Z</time></trkpt><trkpt lat="42.0651898" lon="13.5992654"><ele>806.2</ele><time>2026-05-02T13:21:06.916Z</time></trkpt><trkpt lat="42.0651973" lon="13.599142"><ele>808.4000000000001</ele><time>2026-05-02T13:21:07.915Z</time></trkpt><trkpt lat="42.0652088" lon="13.5990458"><ele>810.6</ele><time>2026-05-02T13:21:08.916Z</time></trkpt><trkpt lat="42.065261" lon="13.5989788"><ele>812.8</ele><time>2026-05-02T13:21:12.915Z</time></trkpt><trkpt lat="42.0653891" lon="13.5989918"><ele>815.0</ele><time>2026-05-02T13:21:14.915Z</time></trkpt><trkpt lat="42.0654784" lon="13.5990022"><ele>815.0</ele><time>2026-05-02T13:21:15.915Z</time></trkpt><trkpt lat="42.0655861" lon="13.5990106"><ele>815.0</ele><time>2026-05-02T13:21:16.915Z</time></trkpt><trkpt lat="42.0656944" lon="13.5990121"><ele>815.0</ele><time>2026-05-02T13:21:17.915Z</time></trkpt><trkpt lat="42.0658145" lon="13.5990182"><ele>815.0</ele><time>2026-05-02T13:21:18.915Z</time></trkpt><trkpt lat="42.0659391" lon="13.5990284"><ele>817.0</ele><time>2026-05-02T13:21:19.916Z</time></trkpt><trkpt lat="42.0660544" lon="13.5990431"><ele>819.0</ele><time>2026-05-02T13:21:20.916Z</time></trkpt><trkpt lat="42.0661606" lon="13.5990567"><ele>821.0</ele><time>2026-05-02T13:21:21.916Z</time></trkpt><trkpt lat="42.0662562" lon="13.5990634"><ele>823.0</ele><time>2026-05-02T13:21:22.916Z</time></trkpt><trkpt lat="42.0663385" lon="13.5990909"><ele>825.0</ele><time>2026-05-02T13:21:24.916Z</time></trkpt><trkpt lat="42.0664021" lon="13.5990595"><ele>825.0</ele><time>2026-05-02T13:21:26.916Z</time></trkpt><trkpt lat="42.066441" lon="13.5989772"><ele>825.0</ele><time>2026-05-02T13:21:27.916Z</time></trkpt><trkpt lat="42.0664684" lon="13.5988666"><ele>825.0</ele><time>2026-05-02T13:21:28.915Z</time></trkpt><trkpt lat="42.0664959" lon="13.5987432"><ele>825.0</ele><time>2026-05-02T13:21:29.915Z</time></trkpt><trkpt lat="42.06653" lon="13.5986137"><ele>825.0</ele><time>2026-05-02T13:21:30.915Z</time></trkpt><trkpt lat="42.0665958" lon="13.5984742"><ele>825.8</ele><time>2026-05-02T13:21:31.916Z</time></trkpt><trkpt lat="42.0666573" lon="13.5983582"><ele>826.6</ele><time>2026-05-02T13:21:32.916Z</time></trkpt><trkpt lat="42.066725" lon="13.5982309"><ele>827.4000000000001</ele><time>2026-05-02T13:21:33.917Z</time></trkpt><trkpt lat="42.0667813" lon="13.5980848"><ele>828.2</ele><time>2026-05-02T13:21:34.914Z</time></trkpt><trkpt lat="42.066823" lon="13.5979551"><ele>829.0</ele><time>2026-05-02T13:21:35.916Z</time></trkpt><trkpt lat="42.0668533" lon="13.5978667"><ele>829.1666666666666</ele><time>2026-05-02T13:21:36.916Z</time></trkpt><trkpt lat="42.0668863" lon="13.5977199"><ele>829.3333333333333</ele><time>2026-05-02T13:21:38.914Z</time></trkpt><trkpt lat="42.0669072" lon="13.5976395"><ele>829.5</ele><time>2026-05-02T13:21:39.916Z</time></trkpt><trkpt lat="42.0669474" lon="13.5975684"><ele>829.6666666666667</ele><time>2026-05-02T13:21:40.916Z</time></trkpt><trkpt lat="42.0669748" lon="13.5974788"><ele>829.8333333333334</ele><time>2026-05-02T13:21:41.916Z</time></trkpt><trkpt lat="42.0670269" lon="13.5973278"><ele>830.0</ele><time>2026-05-02T13:21:43.916Z</time></trkpt><trkpt lat="42.0670516" lon="13.5972416"><ele>830.0000000000001</ele><time>2026-05-02T13:21:45.915Z</time></trkpt><trkpt lat="42.0669851" lon="13.5973605"><ele>830.0</ele><time>2026-05-02T13:21:49.916Z</time></trkpt><trkpt lat="42.0669679" lon="13.5974458"><ele>830.0</ele><time>2026-05-02T13:21:50.914Z</time></trkpt><trkpt lat="42.0669378" lon="13.5975523"><ele>830.0</ele><time>2026-05-02T13:21:51.916Z</time></trkpt><trkpt lat="42.0669082" lon="13.5976565"><ele>830.0000000000001</ele><time>2026-05-02T13:21:52.915Z</time></trkpt><trkpt lat="42.0668823" lon="13.5977444"><ele>830.0</ele><time>2026-05-02T13:21:53.915Z</time></trkpt><trkpt lat="42.0668569" lon="13.5978791"><ele>829.8</ele><time>2026-05-02T13:21:55.916Z</time></trkpt><trkpt lat="42.0669381" lon="13.5979352"><ele>829.6</ele><time>2026-05-02T13:21:57.916Z</time></trkpt><trkpt lat="42.0670698" lon="13.5979411"><ele>829.4000000000001</ele><time>2026-05-02T13:21:59.916Z</time></trkpt><trkpt lat="42.0671713" lon="13.597925"><ele>829.2</ele><time>2026-05-02T13:22:00.917Z</time></trkpt><trkpt lat="42.0672665" lon="13.5979368"><ele>829.0</ele><time>2026-05-02T13:22:01.917Z</time></trkpt><trkpt lat="42.06737" lon="13.5979552"><ele>831.2</ele><time>2026-05-02T13:22:02.915Z</time></trkpt><trkpt lat="42.0674731" lon="13.5979854"><ele>833.4000000000001</ele><time>2026-05-02T13:22:03.915Z</time></trkpt><trkpt lat="42.0675857" lon="13.5980284"><ele>835.6</ele><time>2026-05-02T13:22:04.916Z</time></trkpt><trkpt lat="42.0676929" lon="13.5980576"><ele>837.8</ele><time>2026-05-02T13:22:05.914Z</time></trkpt><trkpt lat="42.0678013" lon="13.5980882"><ele>840.0</ele><time>2026-05-02T13:22:06.915Z</time></trkpt><trkpt lat="42.0679108" lon="13.5981135"><ele>840.0</ele><time>2026-05-02T13:22:07.916Z</time></trkpt><trkpt lat="42.0680266" lon="13.5981474"><ele>840.0</ele><time>2026-05-02T13:22:08.915Z</time></trkpt><trkpt lat="42.0681393" lon="13.5981826"><ele>840.0</ele><time>2026-05-02T13:22:09.916Z</time></trkpt><trkpt lat="42.0682559" lon="13.5982127"><ele>840.0</ele><time>2026-05-02T13:22:10.916Z</time></trkpt><trkpt lat="42.0683719" lon="13.598241"><ele>842.0</ele><time>2026-05-02T13:22:11.916Z</time></trkpt><trkpt lat="42.0684928" lon="13.5982678"><ele>844.0</ele><time>2026-05-02T13:22:12.915Z</time></trkpt><trkpt lat="42.0686178" lon="13.5982961"><ele>846.0</ele><time>2026-05-02T13:22:13.915Z</time></trkpt><trkpt lat="42.0687429" lon="13.5983277"><ele>848.0</ele><time>2026-05-02T13:22:14.916Z</time></trkpt><trkpt lat="42.0688671" lon="13.5983582"><ele>848.0</ele><time>2026-05-02T13:22:15.917Z</time></trkpt><trkpt lat="42.0689844" lon="13.5983868"><ele>848.0</ele><time>2026-05-02T13:22:16.916Z</time></trkpt><trkpt lat="42.0690984" lon="13.5984253"><ele>848.0</ele><time>2026-05-02T13:22:17.915Z</time></trkpt><trkpt lat="42.06919" lon="13.5984519"><ele>848.0</ele><time>2026-05-02T13:22:18.917Z</time></trkpt><trkpt lat="42.0692603" lon="13.5984809"><ele>848.0</ele><time>2026-05-02T13:22:19.916Z</time></trkpt><trkpt lat="42.0693275" lon="13.598567"><ele>850.5999999999999</ele><time>2026-05-02T13:22:21.915Z</time></trkpt><trkpt lat="42.0693249" lon="13.5987107"><ele>853.1999999999999</ele><time>2026-05-02T13:22:23.916Z</time></trkpt><trkpt lat="42.0693035" lon="13.5988362"><ele>855.8</ele><time>2026-05-02T13:22:24.916Z</time></trkpt><trkpt lat="42.0692917" lon="13.5989773"><ele>858.4</ele><time>2026-05-02T13:22:25.916Z</time></trkpt><trkpt lat="42.069286" lon="13.5991389"><ele>861.0</ele><time>2026-05-02T13:22:26.915Z</time></trkpt><trkpt lat="42.0692887" lon="13.5993045"><ele>861.0</ele><time>2026-05-02T13:22:27.916Z</time></trkpt><trkpt lat="42.0692908" lon="13.5994507"><ele>861.0</ele><time>2026-05-02T13:22:28.915Z</time></trkpt><trkpt lat="42.0692978" lon="13.5995689"><ele>861.0</ele><time>2026-05-02T13:22:29.914Z</time></trkpt><trkpt lat="42.0693155" lon="13.5996703"><ele>861.0</ele><time>2026-05-02T13:22:30.915Z</time></trkpt><trkpt lat="42.069336" lon="13.5997669"><ele>861.0</ele><time>2026-05-02T13:22:31.914Z</time></trkpt><trkpt lat="42.0693772" lon="13.5998735"><ele>861.0</ele><time>2026-05-02T13:22:33.914Z</time></trkpt><trkpt lat="42.0694541" lon="13.5999283"><ele>861.5</ele><time>2026-05-02T13:22:35.916Z</time></trkpt><trkpt lat="42.0695828" lon="13.5998911"><ele>862.0</ele><time>2026-05-02T13:22:37.916Z</time></trkpt><trkpt lat="42.0696923" lon="13.5998312"><ele>862.5</ele><time>2026-05-02T13:22:38.916Z</time></trkpt><trkpt lat="42.0697953" lon="13.5997943"><ele>863.0</ele><time>2026-05-02T13:22:39.916Z</time></trkpt><trkpt lat="42.0698958" lon="13.5997776"><ele>864.1666666666667</ele><time>2026-05-02T13:22:40.916Z</time></trkpt><trkpt lat="42.0699857" lon="13.5997662"><ele>865.3333333333334</ele><time>2026-05-02T13:22:41.916Z</time></trkpt><trkpt lat="42.0700662" lon="13.5997612"><ele>866.5</ele><time>2026-05-02T13:22:42.916Z</time></trkpt><trkpt lat="42.0701428" lon="13.5997605"><ele>867.6666666666667</ele><time>2026-05-02T13:22:43.915Z</time></trkpt><trkpt lat="42.0702161" lon="13.5997536"><ele>868.8333333333334</ele><time>2026-05-02T13:22:44.916Z</time></trkpt><trkpt lat="42.0702839" lon="13.599747"><ele>870.0</ele><time>2026-05-02T13:22:45.915Z</time></trkpt><trkpt lat="42.0703873" lon="13.5997476"><ele>870.0</ele><time>2026-05-02T13:22:47.916Z</time></trkpt><trkpt lat="42.0704552" lon="13.5997393"><ele>870.0</ele><time>2026-05-02T13:22:49.914Z</time></trkpt><trkpt lat="42.0705194" lon="13.5997301"><ele>870.0</ele><time>2026-05-02T13:24:31.914Z</time></trkpt><trkpt lat="42.0706294" lon="13.5996804"><ele>870.0</ele><time>2026-05-02T13:24:33.916Z</time></trkpt><trkpt lat="42.0707247" lon="13.5996321"><ele>870.0</ele><time>2026-05-02T13:24:34.915Z</time></trkpt><trkpt lat="42.0708171" lon="13.5995933"><ele>870.0</ele><time>2026-05-02T13:24:35.915Z</time></trkpt><trkpt lat="42.0709215" lon="13.5995504"><ele>870.0</ele><time>2026-05-02T13:24:36.915Z</time></trkpt><trkpt lat="42.0710278" lon="13.5995013"><ele>870.0</ele><time>2026-05-02T13:24:37.915Z</time></trkpt><trkpt lat="42.0711433" lon="13.5994504"><ele>870.0</ele><time>2026-05-02T13:24:38.916Z</time></trkpt><trkpt lat="42.0712615" lon="13.5993965"><ele>870.0</ele><time>2026-05-02T13:24:39.915Z</time></trkpt><trkpt lat="42.07138" lon="13.5993487"><ele>871.5</ele><time>2026-05-02T13:24:40.914Z</time></trkpt><trkpt lat="42.0714978" lon="13.5992928"><ele>873.0</ele><time>2026-05-02T13:24:41.916Z</time></trkpt><trkpt lat="42.071619" lon="13.5992379"><ele>874.5</ele><time>2026-05-02T13:24:42.915Z</time></trkpt><trkpt lat="42.07174" lon="13.5991833"><ele>876.0</ele><time>2026-05-02T13:24:43.915Z</time></trkpt><trkpt lat="42.0718583" lon="13.599129"><ele>877.75</ele><time>2026-05-02T13:24:44.916Z</time></trkpt><trkpt lat="42.0719791" lon="13.5990732"><ele>879.5</ele><time>2026-05-02T13:24:45.916Z</time></trkpt><trkpt lat="42.0721082" lon="13.5990152"><ele>881.25</ele><time>2026-05-02T13:24:46.915Z</time></trkpt><trkpt lat="42.0722405" lon="13.5989582"><ele>883.0</ele><time>2026-05-02T13:24:47.915Z</time></trkpt><trkpt lat="42.0723721" lon="13.598897"><ele>885.3333333333333</ele><time>2026-05-02T13:24:48.916Z</time></trkpt><trkpt lat="42.0725097" lon="13.5988361"><ele>887.6666666666667</ele><time>2026-05-02T13:24:49.914Z</time></trkpt><trkpt lat="42.0726519" lon="13.598769"><ele>890.0</ele><time>2026-05-02T13:24:50.915Z</time></trkpt><trkpt lat="42.0727994" lon="13.5986989"><ele>892.0</ele><time>2026-05-02T13:24:51.915Z</time></trkpt><trkpt lat="42.0729491" lon="13.5986369"><ele>894.0</ele><time>2026-05-02T13:24:52.915Z</time></trkpt><trkpt lat="42.0730962" lon="13.5985705"><ele>896.0</ele><time>2026-05-02T13:24:53.916Z</time></trkpt><trkpt lat="42.0732449" lon="13.5985078"><ele>898.6666666666667</ele><time>2026-05-02T13:24:54.917Z</time></trkpt><trkpt lat="42.0733974" lon="13.5984332"><ele>901.3333333333333</ele><time>2026-05-02T13:24:55.916Z</time></trkpt><trkpt lat="42.0735583" lon="13.5983635"><ele>904.0</ele><time>2026-05-02T13:24:56.914Z</time></trkpt><trkpt lat="42.0737208" lon="13.5982894"><ele>904.0</ele><time>2026-05-02T13:24:57.914Z</time></trkpt><trkpt lat="42.073882" lon="13.5982371"><ele>904.0</ele><time>2026-05-02T13:24:58.915Z</time></trkpt><trkpt lat="42.074045" lon="13.5981983"><ele>904.0</ele><time>2026-05-02T13:24:59.916Z</time></trkpt><trkpt lat="42.074207" lon="13.5981699"><ele>907.0</ele><time>2026-05-02T13:25:00.917Z</time></trkpt><trkpt lat="42.0743786" lon="13.598172"><ele>910.0</ele><time>2026-05-02T13:25:01.915Z</time></trkpt><trkpt lat="42.0745476" lon="13.5981733"><ele>913.0</ele><time>2026-05-02T13:25:02.914Z</time></trkpt><trkpt lat="42.0747103" lon="13.5981795"><ele>913.0</ele><time>2026-05-02T13:25:03.915Z</time></trkpt><trkpt lat="42.0748706" lon="13.5981868"><ele>913.0</ele><time>2026-05-02T13:25:04.915Z</time></trkpt><trkpt lat="42.0750355" lon="13.5981959"><ele>913.0</ele><time>2026-05-02T13:25:05.916Z</time></trkpt><trkpt lat="42.0752014" lon="13.598206"><ele>916.6666666666666</ele><time>2026-05-02T13:25:06.915Z</time></trkpt><trkpt lat="42.0753653" lon="13.5982098"><ele>920.3333333333333</ele><time>2026-05-02T13:25:07.916Z</time></trkpt><trkpt lat="42.075529" lon="13.5982177"><ele>924.0</ele><time>2026-05-02T13:25:08.914Z</time></trkpt><trkpt lat="42.0756975" lon="13.5982239"><ele>927.3333333333333</ele><time>2026-05-02T13:25:09.917Z</time></trkpt><trkpt lat="42.0758651" lon="13.598216"><ele>930.6666666666666</ele><time>2026-05-02T13:25:10.916Z</time></trkpt><trkpt lat="42.0760278" lon="13.5982044"><ele>934.0</ele><time>2026-05-02T13:25:11.915Z</time></trkpt><trkpt lat="42.076184" lon="13.5981628"><ele>934.0</ele><time>2026-05-02T13:25:12.915Z</time></trkpt><trkpt lat="42.0763193" lon="13.5980987"><ele>934.0</ele><time>2026-05-02T13:25:13.915Z</time></trkpt><trkpt lat="42.0764374" lon="13.5980035"><ele>934.0</ele><time>2026-05-02T13:25:14.916Z</time></trkpt><trkpt lat="42.0765324" lon="13.5978738"><ele>934.0</ele><time>2026-05-02T13:25:15.915Z</time></trkpt><trkpt lat="42.0766126" lon="13.5977195"><ele>937.5</ele><time>2026-05-02T13:25:16.915Z</time></trkpt><trkpt lat="42.0766928" lon="13.5975625"><ele>941.0</ele><time>2026-05-02T13:25:17.915Z</time></trkpt><trkpt lat="42.0767836" lon="13.5974444"><ele>944.5</ele><time>2026-05-02T13:25:18.915Z</time></trkpt><trkpt lat="42.0768795" lon="13.5973638"><ele>948.0</ele><time>2026-05-02T13:25:19.916Z</time></trkpt><trkpt lat="42.0769797" lon="13.5973151"><ele>948.0</ele><time>2026-05-02T13:25:20.916Z</time></trkpt><trkpt lat="42.0770751" lon="13.5973028"><ele>948.0</ele><time>2026-05-02T13:25:21.915Z</time></trkpt><trkpt lat="42.0771566" lon="13.597326"><ele>948.0</ele><time>2026-05-02T13:25:22.915Z</time></trkpt><trkpt lat="42.0772257" lon="13.5973735"><ele>948.0</ele><time>2026-05-02T13:25:23.917Z</time></trkpt><trkpt lat="42.0772754" lon="13.597495"><ele>948.0</ele><time>2026-05-02T13:25:24.914Z</time></trkpt><trkpt lat="42.0773196" lon="13.5976343"><ele>948.0</ele><time>2026-05-02T13:25:25.915Z</time></trkpt><trkpt lat="42.0773709" lon="13.5977845"><ele>948.0</ele><time>2026-05-02T13:25:26.916Z</time></trkpt><trkpt lat="42.0774254" lon="13.5979077"><ele>948.0</ele><time>2026-05-02T13:25:27.915Z</time></trkpt><trkpt lat="42.0774934" lon="13.5979756"><ele>948.0</ele><time>2026-05-02T13:25:28.914Z</time></trkpt><trkpt lat="42.0775617" lon="13.5979928"><ele>948.0</ele><time>2026-05-02T13:25:29.915Z</time></trkpt><trkpt lat="42.0776475" lon="13.597868"><ele>951.0</ele><time>2026-05-02T13:25:31.915Z</time></trkpt><trkpt lat="42.0776458" lon="13.5977623"><ele>954.0</ele><time>2026-05-02T13:25:32.914Z</time></trkpt><trkpt lat="42.0776112" lon="13.5976485"><ele>957.0</ele><time>2026-05-02T13:25:33.916Z</time></trkpt><trkpt lat="42.0775639" lon="13.5975214"><ele>960.0</ele><time>2026-05-02T13:25:34.915Z</time></trkpt><trkpt lat="42.0775103" lon="13.5973861"><ele>963.0</ele><time>2026-05-02T13:25:35.915Z</time></trkpt><trkpt lat="42.0774471" lon="13.5972231"><ele>961.25</ele><time>2026-05-02T13:25:36.915Z</time></trkpt><trkpt lat="42.0773861" lon="13.5970548"><ele>959.5</ele><time>2026-05-02T13:25:37.915Z</time></trkpt><trkpt lat="42.0773183" lon="13.5968841"><ele>957.75</ele><time>2026-05-02T13:25:38.916Z</time></trkpt><trkpt lat="42.0772497" lon="13.5967104"><ele>956.0</ele><time>2026-05-02T13:25:39.915Z</time></trkpt><trkpt lat="42.077183" lon="13.5965357"><ele>956.0</ele><time>2026-05-02T13:25:40.917Z</time></trkpt><trkpt lat="42.0771272" lon="13.5963747"><ele>956.0</ele><time>2026-05-02T13:25:41.914Z</time></trkpt><trkpt lat="42.0770985" lon="13.5962186"><ele>956.0</ele><time>2026-05-02T13:25:42.916Z</time></trkpt><trkpt lat="42.0770851" lon="13.5960723"><ele>956.0</ele><time>2026-05-02T13:25:43.915Z</time></trkpt><trkpt lat="42.0771311" lon="13.5959271"><ele>955.75</ele><time>2026-05-02T13:25:44.916Z</time></trkpt><trkpt lat="42.0771751" lon="13.5957794"><ele>955.5</ele><time>2026-05-02T13:25:45.915Z</time></trkpt><trkpt lat="42.0772743" lon="13.5956309"><ele>955.25</ele><time>2026-05-02T13:25:46.916Z</time></trkpt><trkpt lat="42.0773766" lon="13.5954903"><ele>955.0</ele><time>2026-05-02T13:25:47.915Z</time></trkpt><trkpt lat="42.0775018" lon="13.5953456"><ele>959.6666666666666</ele><time>2026-05-02T13:25:48.914Z</time></trkpt><trkpt lat="42.0776296" lon="13.5952048"><ele>964.3333333333333</ele><time>2026-05-02T13:25:49.915Z</time></trkpt><trkpt lat="42.0777575" lon="13.595059"><ele>969.0</ele><time>2026-05-02T13:25:50.914Z</time></trkpt><trkpt lat="42.0778821" lon="13.5949167"><ele>969.0</ele><time>2026-05-02T13:25:51.916Z</time></trkpt><trkpt lat="42.0780023" lon="13.5948036"><ele>969.0</ele><time>2026-05-02T13:25:52.914Z</time></trkpt><trkpt lat="42.0781202" lon="13.594714"><ele>969.0</ele><time>2026-05-02T13:25:53.916Z</time></trkpt><trkpt lat="42.0782284" lon="13.5946408"><ele>969.0</ele><time>2026-05-02T13:25:54.914Z</time></trkpt><trkpt lat="42.0782913" lon="13.5945181"><ele>972.4000000000001</ele><time>2026-05-02T13:25:55.915Z</time></trkpt><trkpt lat="42.0783323" lon="13.594384"><ele>975.8000000000001</ele><time>2026-05-02T13:25:56.915Z</time></trkpt><trkpt lat="42.0783451" lon="13.5942457"><ele>979.1999999999999</ele><time>2026-05-02T13:25:57.916Z</time></trkpt><trkpt lat="42.0783237" lon="13.5941006"><ele>982.5999999999999</ele><time>2026-05-02T13:25:58.915Z</time></trkpt><trkpt lat="42.0783134" lon="13.5939521"><ele>986.0</ele><time>2026-05-02T13:25:59.915Z</time></trkpt><trkpt lat="42.0783344" lon="13.5938215"><ele>986.0</ele><time>2026-05-02T13:26:00.915Z</time></trkpt><trkpt lat="42.0783895" lon="13.5937044"><ele>986.0</ele><time>2026-05-02T13:26:01.916Z</time></trkpt><trkpt lat="42.0784687" lon="13.59359"><ele>986.0</ele><time>2026-05-02T13:26:02.915Z</time></trkpt><trkpt lat="42.0785542" lon="13.5934863"><ele>986.0</ele><time>2026-05-02T13:26:03.915Z</time></trkpt><trkpt lat="42.0786589" lon="13.5933771"><ele>983.5</ele><time>2026-05-02T13:26:04.915Z</time></trkpt><trkpt lat="42.078768" lon="13.5932743"><ele>981.0</ele><time>2026-05-02T13:26:05.915Z</time></trkpt><trkpt lat="42.0788831" lon="13.5931602"><ele>978.5</ele><time>2026-05-02T13:26:06.915Z</time></trkpt><trkpt lat="42.0789998" lon="13.5930501"><ele>976.0</ele><time>2026-05-02T13:26:07.915Z</time></trkpt><trkpt lat="42.0791218" lon="13.5929432"><ele>979.5</ele><time>2026-05-02T13:26:08.915Z</time></trkpt><trkpt lat="42.0792406" lon="13.5928382"><ele>983.0</ele><time>2026-05-02T13:26:09.915Z</time></trkpt><trkpt lat="42.0793474" lon="13.592731"><ele>986.5</ele><time>2026-05-02T13:26:10.916Z</time></trkpt><trkpt lat="42.0794614" lon="13.5926301"><ele>990.0</ele><time>2026-05-02T13:26:11.916Z</time></trkpt><trkpt lat="42.0795748" lon="13.5925259"><ele>990.0</ele><time>2026-05-02T13:26:12.916Z</time></trkpt><trkpt lat="42.0796886" lon="13.5924235"><ele>990.0</ele><time>2026-05-02T13:26:13.914Z</time></trkpt><trkpt lat="42.0798013" lon="13.5923223"><ele>990.0</ele><time>2026-05-02T13:26:14.916Z</time></trkpt><trkpt lat="42.0799129" lon="13.5922233"><ele>990.0</ele><time>2026-05-02T13:26:15.915Z</time></trkpt><trkpt lat="42.0800257" lon="13.5921195"><ele>993.5</ele><time>2026-05-02T13:26:16.914Z</time></trkpt><trkpt lat="42.0801299" lon="13.5920409"><ele>997.0</ele><time>2026-05-02T13:26:17.915Z</time></trkpt><trkpt lat="42.0802335" lon="13.5919558"><ele>1000.5</ele><time>2026-05-02T13:26:18.915Z</time></trkpt><trkpt lat="42.0803424" lon="13.5918731"><ele>1004.0</ele><time>2026-05-02T13:26:19.914Z</time></trkpt><trkpt lat="42.080449" lon="13.591794"><ele>1004.0</ele><time>2026-05-02T13:26:20.915Z</time></trkpt><trkpt lat="42.0805521" lon="13.5917032"><ele>1004.0000000000001</ele><time>2026-05-02T13:26:21.916Z</time></trkpt><trkpt lat="42.0806352" lon="13.5916084"><ele>1004.0000000000001</ele><time>2026-05-02T13:26:22.914Z</time></trkpt><trkpt lat="42.0806929" lon="13.5915159"><ele>1004.0</ele><time>2026-05-02T13:26:23.916Z</time></trkpt><trkpt lat="42.0807377" lon="13.5914263"><ele>1004.0</ele><time>2026-05-02T13:26:24.914Z</time></trkpt><trkpt lat="42.0807296" lon="13.5912939"><ele>1004.0</ele><time>2026-05-02T13:26:26.916Z</time></trkpt><trkpt lat="42.0806224" lon="13.5911863"><ele>1004.0000000000001</ele><time>2026-05-02T13:26:28.917Z</time></trkpt><trkpt lat="42.0805416" lon="13.5911222"><ele>1004.0000000000001</ele><time>2026-05-02T13:26:29.914Z</time></trkpt><trkpt lat="42.0804497" lon="13.5910563"><ele>1004.0</ele><time>2026-05-02T13:26:30.914Z</time></trkpt><trkpt lat="42.0803501" lon="13.5909746"><ele>1004.0</ele><time>2026-05-02T13:26:31.914Z</time></trkpt><trkpt lat="42.0802512" lon="13.5909022"><ele>1005.0</ele><time>2026-05-02T13:26:32.915Z</time></trkpt><trkpt lat="42.080152" lon="13.5908368"><ele>1006.0000000000001</ele><time>2026-05-02T13:26:33.914Z</time></trkpt><trkpt lat="42.0800646" lon="13.5907732"><ele>1007.0000000000001</ele><time>2026-05-02T13:26:34.916Z</time></trkpt><trkpt lat="42.0799866" lon="13.5907126"><ele>1008.0</ele><time>2026-05-02T13:26:35.915Z</time></trkpt><trkpt lat="42.0799133" lon="13.590662"><ele>1009.0</ele><time>2026-05-02T13:26:36.914Z</time></trkpt><trkpt lat="42.0798455" lon="13.5906093"><ele>1003.4000000000001</ele><time>2026-05-02T13:26:37.915Z</time></trkpt><trkpt lat="42.0797943" lon="13.5905518"><ele>997.8000000000001</ele><time>2026-05-02T13:26:38.914Z</time></trkpt><trkpt lat="42.0797264" lon="13.5904169"><ele>992.1999999999999</ele><time>2026-05-02T13:26:40.916Z</time></trkpt><trkpt lat="42.0797091" lon="13.5902902"><ele>986.5999999999999</ele><time>2026-05-02T13:26:42.915Z</time></trkpt><trkpt lat="42.0796902" lon="13.5902013"><ele>981.0</ele><time>2026-05-02T13:26:44.914Z</time></trkpt><trkpt lat="42.0796908" lon="13.5903447"><ele>981.0</ele><time>2026-05-02T13:26:48.915Z</time></trkpt><trkpt lat="42.0797237" lon="13.5904417"><ele>980.9999999999999</ele><time>2026-05-02T13:26:49.915Z</time></trkpt><trkpt lat="42.0797815" lon="13.5905346"><ele>980.9999999999999</ele><time>2026-05-02T13:26:50.915Z</time></trkpt><trkpt lat="42.0798552" lon="13.590619"><ele>981.0</ele><time>2026-05-02T13:26:51.915Z</time></trkpt><trkpt lat="42.0799446" lon="13.590694"><ele>981.0</ele><time>2026-05-02T13:26:52.915Z</time></trkpt><trkpt lat="42.0800393" lon="13.5907699"><ele>986.5999999999999</ele><time>2026-05-02T13:26:53.915Z</time></trkpt><trkpt lat="42.0801483" lon="13.5908431"><ele>992.1999999999999</ele><time>2026-05-02T13:26:54.916Z</time></trkpt><trkpt lat="42.0802364" lon="13.5909108"><ele>997.8000000000001</ele><time>2026-05-02T13:26:55.915Z</time></trkpt><trkpt lat="42.0803244" lon="13.5909718"><ele>1003.4000000000001</ele><time>2026-05-02T13:26:56.915Z</time></trkpt><trkpt lat="42.0804092" lon="13.5910286"><ele>1009.0</ele><time>2026-05-02T13:26:57.915Z</time></trkpt><trkpt lat="42.0804858" lon="13.5910906"><ele>1008.9999999999999</ele><time>2026-05-02T13:26:58.915Z</time></trkpt><trkpt lat="42.0805539" lon="13.5911381"><ele>1009.0</ele><time>2026-05-02T13:26:59.914Z</time></trkpt><trkpt lat="42.0806439" lon="13.591201"><ele>1009.0</ele><time>2026-05-02T13:27:01.915Z</time></trkpt><trkpt lat="42.0807026" lon="13.59124"><ele>1009.0</ele><time>2026-05-02T13:27:11.916Z</time></trkpt><trkpt lat="42.0807854" lon="13.5911861"><ele>1008.9999999999999</ele><time>2026-05-02T13:27:13.915Z</time></trkpt><trkpt lat="42.0807933" lon="13.5910685"><ele>1009.0</ele><time>2026-05-02T13:27:15.914Z</time></trkpt><trkpt lat="42.0807119" lon="13.5909474"><ele>1009.0</ele><time>2026-05-02T13:27:17.915Z</time></trkpt><trkpt lat="42.0806438" lon="13.5908919"><ele>1009.0000000000001</ele><time>2026-05-02T13:27:18.914Z</time></trkpt><trkpt lat="42.0805705" lon="13.5908259"><ele>1009.0000000000001</ele><time>2026-05-02T13:27:19.914Z</time></trkpt><trkpt lat="42.0804921" lon="13.5907579"><ele>1009.0</ele><time>2026-05-02T13:27:20.915Z</time></trkpt><trkpt lat="42.080412" lon="13.5906863"><ele>1009.0</ele><time>2026-05-02T13:27:21.915Z</time></trkpt><trkpt lat="42.0803323" lon="13.5906169"><ele>1008.9999999999999</ele><time>2026-05-02T13:27:22.915Z</time></trkpt><trkpt lat="42.0802593" lon="13.5905497"><ele>1009.0</ele><time>2026-05-02T13:27:23.914Z</time></trkpt><trkpt lat="42.0801919" lon="13.5904855"><ele>1009.0</ele><time>2026-05-02T13:27:24.916Z</time></trkpt><trkpt lat="42.0801382" lon="13.5904222"><ele>1009.0</ele><time>2026-05-02T13:27:25.916Z</time></trkpt><trkpt lat="42.0801282" lon="13.5902998"><ele>1008.9999999999999</ele><time>2026-05-02T13:27:27.915Z</time></trkpt><trkpt lat="42.0801757" lon="13.5901989"><ele>1009.0</ele><time>2026-05-02T13:27:30.914Z</time></trkpt><trkpt lat="42.080213" lon="13.5900569"><ele>1009.3333333333333</ele><time>2026-05-02T13:27:32.916Z</time></trkpt><trkpt lat="42.0802441" lon="13.5899585"><ele>1009.6666666666666</ele><time>2026-05-02T13:27:33.915Z</time></trkpt><trkpt lat="42.080268" lon="13.5898636"><ele>1010.0</ele><time>2026-05-02T13:27:34.915Z</time></trkpt><trkpt lat="42.0802937" lon="13.5897717"><ele>1010.3333333333333</ele><time>2026-05-02T13:27:35.914Z</time></trkpt><trkpt lat="42.0803114" lon="13.5896821"><ele>1010.6666666666666</ele><time>2026-05-02T13:27:36.915Z</time></trkpt><trkpt lat="42.080335" lon="13.5895983"><ele>1011.0</ele><time>2026-05-02T13:27:37.915Z</time></trkpt><trkpt lat="42.0803658" lon="13.5894487"><ele>1010.1999999999999</ele><time>2026-05-02T13:27:39.915Z</time></trkpt><trkpt lat="42.0804122" lon="13.5893399"><ele>1009.3999999999999</ele><time>2026-05-02T13:27:41.915Z</time></trkpt><trkpt lat="42.0804958" lon="13.5893153"><ele>1008.6</ele><time>2026-05-02T13:27:43.915Z</time></trkpt><trkpt lat="42.0806008" lon="13.5893244"><ele>1007.8</ele><time>2026-05-02T13:27:45.915Z</time></trkpt><trkpt lat="42.0806982" lon="13.5893194"><ele>1007.0</ele><time>2026-05-02T13:27:47.915Z</time></trkpt><trkpt lat="42.0808063" lon="13.5893021"><ele>1007.0000000000001</ele><time>2026-05-02T13:27:49.914Z</time></trkpt><trkpt lat="42.080876" lon="13.5893025"><ele>1007.0</ele><time>2026-05-02T13:27:50.915Z</time></trkpt><trkpt lat="42.080957" lon="13.589312"><ele>1007.0</ele><time>2026-05-02T13:27:51.916Z</time></trkpt><trkpt lat="42.0810514" lon="13.5893381"><ele>1007.0</ele><time>2026-05-02T13:27:52.916Z</time></trkpt><trkpt lat="42.081143" lon="13.5893697"><ele>1007.0000000000001</ele><time>2026-05-02T13:27:53.916Z</time></trkpt><trkpt lat="42.081232" lon="13.5894284"><ele>1007.0</ele><time>2026-05-02T13:27:54.916Z</time></trkpt><trkpt lat="42.0813213" lon="13.589469"><ele>1009.6666666666667</ele><time>2026-05-02T13:27:55.915Z</time></trkpt><trkpt lat="42.0814055" lon="13.5895191"><ele>1012.3333333333334</ele><time>2026-05-02T13:27:56.915Z</time></trkpt><trkpt lat="42.0814915" lon="13.5895566"><ele>1015.0</ele><time>2026-05-02T13:27:57.916Z</time></trkpt><trkpt lat="42.0815745" lon="13.5896035"><ele>1017.6666666666667</ele><time>2026-05-02T13:27:58.915Z</time></trkpt><trkpt lat="42.0816572" lon="13.5896159"><ele>1020.3333333333334</ele><time>2026-05-02T13:27:59.915Z</time></trkpt><trkpt lat="42.0817417" lon="13.5896156"><ele>1023.0</ele><time>2026-05-02T13:28:00.915Z</time></trkpt><trkpt lat="42.0818195" lon="13.5896014"><ele>1023.3333333333334</ele><time>2026-05-02T13:28:01.914Z</time></trkpt><trkpt lat="42.0818944" lon="13.5895808"><ele>1023.6666666666667</ele><time>2026-05-02T13:28:02.914Z</time></trkpt><trkpt lat="42.0819613" lon="13.5895723"><ele>1024.0</ele><time>2026-05-02T13:28:03.915Z</time></trkpt><trkpt lat="42.0820668" lon="13.5895746"><ele>1024.3333333333335</ele><time>2026-05-02T13:28:05.914Z</time></trkpt><trkpt lat="42.0821536" lon="13.5896329"><ele>1024.6666666666667</ele><time>2026-05-02T13:28:07.915Z</time></trkpt><trkpt lat="42.0822159" lon="13.5896662"><ele>1025.0</ele><time>2026-05-02T13:28:09.915Z</time></trkpt><trkpt lat="42.0822989" lon="13.5896879"><ele>1025.0</ele><time>2026-05-02T13:28:11.915Z</time></trkpt><trkpt lat="42.0823796" lon="13.5896887"><ele>1025.0</ele><time>2026-05-02T13:28:13.915Z</time></trkpt><trkpt lat="42.0824766" lon="13.5896918"><ele>1025.0</ele><time>2026-05-02T13:28:16.915Z</time></trkpt><trkpt lat="42.082592" lon="13.5896908"><ele>1025.0</ele><time>2026-05-02T13:28:18.915Z</time></trkpt><trkpt lat="42.0827054" lon="13.5897401"><ele>1025.0</ele><time>2026-05-02T13:28:20.915Z</time></trkpt><trkpt lat="42.0827806" lon="13.5897752"><ele>1025.5</ele><time>2026-05-02T13:28:22.915Z</time></trkpt><trkpt lat="42.0827777" lon="13.5896875"><ele>1026.0</ele><time>2026-05-02T13:28:25.915Z</time></trkpt><trkpt lat="42.0827264" lon="13.5896318"><ele>1026.5</ele><time>2026-05-02T13:28:27.915Z</time></trkpt><trkpt lat="42.0827068" lon="13.5895184"><ele>1027.0</ele><time>2026-05-02T13:28:29.916Z</time></trkpt><trkpt lat="42.0826878" lon="13.5893716"><ele>1027.5</ele><time>2026-05-02T13:28:31.915Z</time></trkpt><trkpt lat="42.0826701" lon="13.5892898"><ele>1028.0</ele><time>2026-05-02T13:28:32.914Z</time></trkpt><trkpt lat="42.0826273" lon="13.5891383"><ele>1024.6666666666667</ele><time>2026-05-02T13:28:34.915Z</time></trkpt><trkpt lat="42.0826093" lon="13.5889876"><ele>1021.3333333333334</ele><time>2026-05-02T13:28:36.914Z</time></trkpt><trkpt lat="42.0825997" lon="13.588875"><ele>1018.0</ele><time>2026-05-02T13:28:38.915Z</time></trkpt><trkpt lat="42.0825915" lon="13.5887812"><ele>1014.6666666666667</ele><time>2026-05-02T13:28:45.915Z</time></trkpt><trkpt lat="42.0825392" lon="13.5887318"><ele>1011.3333333333334</ele><time>2026-05-02T13:28:47.916Z</time></trkpt><trkpt lat="42.0825796" lon="13.5886641"><ele>1008.0</ele><time>2026-05-02T13:28:50.914Z</time></trkpt><trkpt lat="42.0827008" lon="13.5886851"><ele>1008.0</ele><time>2026-05-02T13:28:52.916Z</time></trkpt><trkpt lat="42.0827676" lon="13.5887082"><ele>1008.0</ele><time>2026-05-02T13:28:53.916Z</time></trkpt><trkpt lat="42.0828384" lon="13.5887275"><ele>1008.0</ele><time>2026-05-02T13:28:54.916Z</time></trkpt><trkpt lat="42.0829143" lon="13.588752"><ele>1008.0</ele><time>2026-05-02T13:28:55.915Z</time></trkpt><trkpt lat="42.082992" lon="13.5887723"><ele>1008.0</ele><time>2026-05-02T13:28:56.915Z</time></trkpt><trkpt lat="42.0830735" lon="13.5887872"><ele>1008.0</ele><time>2026-05-02T13:28:57.915Z</time></trkpt><trkpt lat="42.0831583" lon="13.5887989"><ele>1008.0</ele><time>2026-05-02T13:28:58.916Z</time></trkpt><trkpt lat="42.0832385" lon="13.5888113"><ele>1008.0</ele><time>2026-05-02T13:28:59.915Z</time></trkpt><trkpt lat="42.0833156" lon="13.5888197"><ele>1008.0</ele><time>2026-05-02T13:29:00.915Z</time></trkpt><trkpt lat="42.083392" lon="13.5888232"><ele>1008.0</ele><time>2026-05-02T13:29:01.915Z</time></trkpt><trkpt lat="42.0834759" lon="13.5888225"><ele>1008.0</ele><time>2026-05-02T13:29:02.915Z</time></trkpt><trkpt lat="42.0835636" lon="13.5888257"><ele>1008.0</ele><time>2026-05-02T13:29:03.914Z</time></trkpt><trkpt lat="42.0836534" lon="13.5888311"><ele>1006.5</ele><time>2026-05-02T13:29:04.914Z</time></trkpt><trkpt lat="42.0837435" lon="13.5888313"><ele>1005.0</ele><time>2026-05-02T13:29:05.915Z</time></trkpt><trkpt lat="42.0838342" lon="13.5888361"><ele>1003.5</ele><time>2026-05-02T13:29:06.916Z</time></trkpt><trkpt lat="42.0839206" lon="13.5888483"><ele>1002.0</ele><time>2026-05-02T13:29:07.916Z</time></trkpt><trkpt lat="42.0840103" lon="13.5888547"><ele>1000.5</ele><time>2026-05-02T13:29:08.915Z</time></trkpt><trkpt lat="42.0840944" lon="13.5888489"><ele>999.0</ele><time>2026-05-02T13:29:09.914Z</time></trkpt><trkpt lat="42.0841702" lon="13.5888408"><ele>997.3333333333334</ele><time>2026-05-02T13:29:10.915Z</time></trkpt><trkpt lat="42.084235" lon="13.5888356"><ele>995.6666666666667</ele><time>2026-05-02T13:29:11.915Z</time></trkpt><trkpt lat="42.08431" lon="13.5888299"><ele>994.0</ele><time>2026-05-02T13:29:12.914Z</time></trkpt><trkpt lat="42.0843861" lon="13.5888242"><ele>992.3333333333334</ele><time>2026-05-02T13:29:13.916Z</time></trkpt><trkpt lat="42.0844732" lon="13.5888079"><ele>990.6666666666667</ele><time>2026-05-02T13:29:14.915Z</time></trkpt><trkpt lat="42.0845543" lon="13.5887942"><ele>989.0</ele><time>2026-05-02T13:29:15.914Z</time></trkpt><trkpt lat="42.0846286" lon="13.5887917"><ele>989.0000000000001</ele><time>2026-05-02T13:29:16.915Z</time></trkpt><trkpt lat="42.0846979" lon="13.588784"><ele>989.0</ele><time>2026-05-02T13:29:17.915Z</time></trkpt><trkpt lat="42.084781" lon="13.5887449"><ele>989.0</ele><time>2026-05-02T13:29:19.915Z</time></trkpt><trkpt lat="42.0847787" lon="13.5886529"><ele>989.0</ele><time>2026-05-02T13:29:21.915Z</time></trkpt><trkpt lat="42.0846983" lon="13.5886125"><ele>989.0000000000001</ele><time>2026-05-02T13:29:23.915Z</time></trkpt><trkpt lat="42.084584" lon="13.5886216"><ele>989.0</ele><time>2026-05-02T13:29:25.915Z</time></trkpt><trkpt lat="42.0844713" lon="13.5885704"><ele>985.5000000000001</ele><time>2026-05-02T13:29:27.915Z</time></trkpt><trkpt lat="42.0844093" lon="13.5885154"><ele>982.0</ele><time>2026-05-02T13:29:28.914Z</time></trkpt><trkpt lat="42.0843481" lon="13.588455"><ele>978.5</ele><time>2026-05-02T13:29:29.915Z</time></trkpt><trkpt lat="42.0842862" lon="13.588389"><ele>975.0</ele><time>2026-05-02T13:29:30.913Z</time></trkpt><trkpt lat="42.0842335" lon="13.588327"><ele>971.5000000000001</ele><time>2026-05-02T13:29:31.914Z</time></trkpt><trkpt lat="42.0841731" lon="13.5882129"><ele>968.0</ele><time>2026-05-02T13:29:33.915Z</time></trkpt><trkpt lat="42.0841634" lon="13.5881124"><ele>968.0000000000001</ele><time>2026-05-02T13:29:35.914Z</time></trkpt><trkpt lat="42.0842048" lon="13.5880324"><ele>968.0</ele><time>2026-05-02T13:29:37.914Z</time></trkpt><trkpt lat="42.0842858" lon="13.5879697"><ele>968.0</ele><time>2026-05-02T13:29:39.914Z</time></trkpt><trkpt lat="42.0843559" lon="13.5879147"><ele>968.0</ele><time>2026-05-02T13:29:41.915Z</time></trkpt><trkpt lat="42.0844139" lon="13.587849"><ele>968.0000000000001</ele><time>2026-05-02T13:29:43.914Z</time></trkpt><trkpt lat="42.0844912" lon="13.5877668"><ele>968.0</ele><time>2026-05-02T13:29:50.916Z</time></trkpt><trkpt lat="42.0845619" lon="13.5876628"><ele>966.1428571428571</ele><time>2026-05-02T13:29:52.914Z</time></trkpt><trkpt lat="42.0846034" lon="13.587595"><ele>964.2857142857142</ele><time>2026-05-02T13:29:53.916Z</time></trkpt><trkpt lat="42.0846528" lon="13.5875186"><ele>962.4285714285713</ele><time>2026-05-02T13:29:54.916Z</time></trkpt><trkpt lat="42.0846957" lon="13.587455"><ele>960.5714285714284</ele><time>2026-05-02T13:29:55.915Z</time></trkpt><trkpt lat="42.0847488" lon="13.5873857"><ele>958.7142857142857</ele><time>2026-05-02T13:29:56.915Z</time></trkpt><trkpt lat="42.0848037" lon="13.5873251"><ele>956.8571428571427</ele><time>2026-05-02T13:29:57.914Z</time></trkpt><trkpt lat="42.0848666" lon="13.587266"><ele>954.9999999999999</ele><time>2026-05-02T13:29:58.915Z</time></trkpt><trkpt lat="42.0849247" lon="13.5872087"><ele>954.3333333333333</ele><time>2026-05-02T13:29:59.914Z</time></trkpt><trkpt lat="42.0849889" lon="13.5871514"><ele>953.6666666666666</ele><time>2026-05-02T13:30:00.913Z</time></trkpt><trkpt lat="42.08506" lon="13.5871125"><ele>953.0</ele><time>2026-05-02T13:30:01.915Z</time></trkpt><trkpt lat="42.0851299" lon="13.5870748"><ele>952.3333333333333</ele><time>2026-05-02T13:30:02.915Z</time></trkpt><trkpt lat="42.0852114" lon="13.5870623"><ele>951.6666666666666</ele><time>2026-05-02T13:30:03.915Z</time></trkpt><trkpt lat="42.0852859" lon="13.5870432"><ele>951.0</ele><time>2026-05-02T13:30:04.915Z</time></trkpt><trkpt lat="42.0853484" lon="13.5870127"><ele>950.1428571428571</ele><time>2026-05-02T13:30:05.914Z</time></trkpt><trkpt lat="42.0854088" lon="13.5869724"><ele>949.2857142857143</ele><time>2026-05-02T13:30:06.915Z</time></trkpt><trkpt lat="42.0854541" lon="13.5869093"><ele>948.4285714285714</ele><time>2026-05-02T13:30:07.915Z</time></trkpt><trkpt lat="42.085492" lon="13.5868239"><ele>947.5714285714286</ele><time>2026-05-02T13:30:08.915Z</time></trkpt><trkpt lat="42.0855281" lon="13.5867443"><ele>946.7142857142858</ele><time>2026-05-02T13:30:09.915Z</time></trkpt><trkpt lat="42.0855272" lon="13.5866471"><ele>945.8571428571429</ele><time>2026-05-02T13:30:10.916Z</time></trkpt><trkpt lat="42.0854957" lon="13.5865644"><ele>945.0</ele><time>2026-05-02T13:30:11.915Z</time></trkpt><trkpt lat="42.0854661" lon="13.5864882"><ele>945.0</ele><time>2026-05-02T13:30:12.914Z</time></trkpt><trkpt lat="42.0854314" lon="13.5863993"><ele>945.0</ele><time>2026-05-02T13:30:13.914Z</time></trkpt><trkpt lat="42.0854002" lon="13.586306"><ele>945.0</ele><time>2026-05-02T13:30:14.915Z</time></trkpt><trkpt lat="42.0853717" lon="13.5861867"><ele>945.0</ele><time>2026-05-02T13:30:15.915Z</time></trkpt><trkpt lat="42.085349" lon="13.586064"><ele>945.0</ele><time>2026-05-02T13:30:16.913Z</time></trkpt><trkpt lat="42.0853461" lon="13.5859352"><ele>945.0</ele><time>2026-05-02T13:30:17.915Z</time></trkpt><trkpt lat="42.0853611" lon="13.5858125"><ele>944.8</ele><time>2026-05-02T13:30:18.916Z</time></trkpt><trkpt lat="42.0853908" lon="13.5856859"><ele>944.6</ele><time>2026-05-02T13:30:19.915Z</time></trkpt><trkpt lat="42.085426" lon="13.5855593"><ele>944.4000000000001</ele><time>2026-05-02T13:30:20.915Z</time></trkpt><trkpt lat="42.0854763" lon="13.5854283"><ele>944.2</ele><time>2026-05-02T13:30:21.914Z</time></trkpt><trkpt lat="42.085524" lon="13.5853126"><ele>944.0</ele><time>2026-05-02T13:30:22.915Z</time></trkpt><trkpt lat="42.0855768" lon="13.5851965"><ele>943.6</ele><time>2026-05-02T13:30:23.915Z</time></trkpt><trkpt lat="42.0856216" lon="13.5850808"><ele>943.2</ele><time>2026-05-02T13:30:24.916Z</time></trkpt><trkpt lat="42.0856719" lon="13.5849521"><ele>942.8000000000001</ele><time>2026-05-02T13:30:25.915Z</time></trkpt><trkpt lat="42.0857204" lon="13.5848278"><ele>942.4000000000001</ele><time>2026-05-02T13:30:26.915Z</time></trkpt><trkpt lat="42.0857652" lon="13.5847255"><ele>942.0</ele><time>2026-05-02T13:30:27.915Z</time></trkpt><trkpt lat="42.0858006" lon="13.584633"><ele>945.1666666666666</ele><time>2026-05-02T13:30:28.914Z</time></trkpt><trkpt lat="42.0858439" lon="13.5845509"><ele>948.3333333333333</ele><time>2026-05-02T13:30:29.915Z</time></trkpt><trkpt lat="42.0858904" lon="13.5844937"><ele>951.5</ele><time>2026-05-02T13:30:30.915Z</time></trkpt><trkpt lat="42.0859301" lon="13.5844259"><ele>954.6666666666666</ele><time>2026-05-02T13:30:31.914Z</time></trkpt><trkpt lat="42.0860134" lon="13.5843365"><ele>957.8333333333333</ele><time>2026-05-02T13:30:33.915Z</time></trkpt><trkpt lat="42.0860803" lon="13.5843174"><ele>961.0</ele><time>2026-05-02T13:30:35.913Z</time></trkpt><trkpt lat="42.0861366" lon="13.5842466"><ele>961.5999999999999</ele><time>2026-05-02T13:30:38.914Z</time></trkpt><trkpt lat="42.0861172" lon="13.5841617"><ele>962.1999999999999</ele><time>2026-05-02T13:30:40.915Z</time></trkpt><trkpt lat="42.0860817" lon="13.5840087"><ele>962.8000000000001</ele><time>2026-05-02T13:30:42.915Z</time></trkpt><trkpt lat="42.0860611" lon="13.5838852"><ele>963.4000000000001</ele><time>2026-05-02T13:30:43.915Z</time></trkpt><trkpt lat="42.0860315" lon="13.5837496"><ele>964.0</ele><time>2026-05-02T13:30:44.915Z</time></trkpt><trkpt lat="42.0860037" lon="13.5836379"><ele>964.75</ele><time>2026-05-02T13:30:45.916Z</time></trkpt><trkpt lat="42.0859509" lon="13.5834845"><ele>965.5</ele><time>2026-05-02T13:30:46.915Z</time></trkpt><trkpt lat="42.0858944" lon="13.5833507"><ele>966.25</ele><time>2026-05-02T13:30:47.914Z</time></trkpt><trkpt lat="42.085828" lon="13.583213"><ele>967.0</ele><time>2026-05-02T13:30:48.915Z</time></trkpt><trkpt lat="42.0857564" lon="13.5830799"><ele>965.8333333333333</ele><time>2026-05-02T13:30:49.913Z</time></trkpt><trkpt lat="42.0856913" lon="13.5829594"><ele>964.6666666666666</ele><time>2026-05-02T13:30:50.915Z</time></trkpt><trkpt lat="42.0856364" lon="13.5828542"><ele>963.5</ele><time>2026-05-02T13:30:51.914Z</time></trkpt><trkpt lat="42.0855942" lon="13.5827641"><ele>962.3333333333333</ele><time>2026-05-02T13:30:52.914Z</time></trkpt><trkpt lat="42.0855583" lon="13.5826887"><ele>961.1666666666666</ele><time>2026-05-02T13:30:53.915Z</time></trkpt><trkpt lat="42.0855294" lon="13.5826128"><ele>960.0</ele><time>2026-05-02T13:30:54.916Z</time></trkpt><trkpt lat="42.0855039" lon="13.5825291"><ele>960.0</ele><time>2026-05-02T13:30:55.915Z</time></trkpt><trkpt lat="42.0854805" lon="13.5824353"><ele>960.0</ele><time>2026-05-02T13:30:56.915Z</time></trkpt><trkpt lat="42.0854553" lon="13.5823497"><ele>960.0</ele><time>2026-05-02T13:30:57.914Z</time></trkpt><trkpt lat="42.0854241" lon="13.5822548"><ele>960.0</ele><time>2026-05-02T13:30:58.914Z</time></trkpt><trkpt lat="42.085393" lon="13.5821458"><ele>960.0</ele><time>2026-05-02T13:30:59.915Z</time></trkpt><trkpt lat="42.0853583" lon="13.5820232"><ele>960.0</ele><time>2026-05-02T13:31:00.913Z</time></trkpt><trkpt lat="42.0853129" lon="13.5819003"><ele>962.25</ele><time>2026-05-02T13:31:01.915Z</time></trkpt><trkpt lat="42.0852623" lon="13.5817633"><ele>964.5</ele><time>2026-05-02T13:31:02.914Z</time></trkpt><trkpt lat="42.0852108" lon="13.5816104"><ele>966.75</ele><time>2026-05-02T13:31:03.914Z</time></trkpt><trkpt lat="42.0851592" lon="13.5814527"><ele>969.0</ele><time>2026-05-02T13:31:04.915Z</time></trkpt><trkpt lat="42.0851073" lon="13.5812989"><ele>970.5</ele><time>2026-05-02T13:31:05.913Z</time></trkpt><trkpt lat="42.0850571" lon="13.581146"><ele>972.0</ele><time>2026-05-02T13:31:06.915Z</time></trkpt><trkpt lat="42.0850086" lon="13.5809984"><ele>973.5</ele><time>2026-05-02T13:31:07.915Z</time></trkpt><trkpt lat="42.084966" lon="13.5808492"><ele>975.0</ele><time>2026-05-02T13:31:08.914Z</time></trkpt><trkpt lat="42.0849255" lon="13.5807081"><ele>975.0</ele><time>2026-05-02T13:31:09.916Z</time></trkpt><trkpt lat="42.0848932" lon="13.5805872"><ele>975.0</ele><time>2026-05-02T13:31:10.915Z</time></trkpt><trkpt lat="42.0848712" lon="13.58049"><ele>975.0</ele><time>2026-05-02T13:31:11.914Z</time></trkpt><trkpt lat="42.0848567" lon="13.5804055"><ele>975.0</ele><time>2026-05-02T13:31:12.915Z</time></trkpt><trkpt lat="42.0848493" lon="13.5803157"><ele>975.0</ele><time>2026-05-02T13:31:13.913Z</time></trkpt><trkpt lat="42.084847" lon="13.5802309"><ele>975.0</ele><time>2026-05-02T13:31:14.914Z</time></trkpt><trkpt lat="42.0848352" lon="13.5800684"><ele>975.4285714285713</ele><time>2026-05-02T13:31:16.914Z</time></trkpt><trkpt lat="42.0848336" lon="13.5799818"><ele>975.8571428571428</ele><time>2026-05-02T13:31:17.914Z</time></trkpt><trkpt lat="42.0848418" lon="13.5798923"><ele>976.2857142857142</ele><time>2026-05-02T13:31:18.915Z</time></trkpt><trkpt lat="42.0848566" lon="13.5798092"><ele>976.7142857142858</ele><time>2026-05-02T13:31:19.915Z</time></trkpt><trkpt lat="42.0849075" lon="13.5796614"><ele>977.1428571428572</ele><time>2026-05-02T13:31:21.915Z</time></trkpt><trkpt lat="42.0849381" lon="13.5795867"><ele>977.5714285714287</ele><time>2026-05-02T13:31:22.915Z</time></trkpt><trkpt lat="42.0849758" lon="13.5795113"><ele>978.0</ele><time>2026-05-02T13:31:23.915Z</time></trkpt><trkpt lat="42.0850545" lon="13.5793812"><ele>976.0</ele><time>2026-05-02T13:31:25.915Z</time></trkpt><trkpt lat="42.0851013" lon="13.5793159"><ele>974.0000000000001</ele><time>2026-05-02T13:31:26.915Z</time></trkpt><trkpt lat="42.0851556" lon="13.5792356"><ele>972.0</ele><time>2026-05-02T13:31:27.915Z</time></trkpt><trkpt lat="42.0852085" lon="13.5791683"><ele>970.0</ele><time>2026-05-02T13:31:28.915Z</time></trkpt><trkpt lat="42.0852636" lon="13.5791003"><ele>968.0000000000001</ele><time>2026-05-02T13:31:29.913Z</time></trkpt><trkpt lat="42.0853204" lon="13.5790322"><ele>966.0</ele><time>2026-05-02T13:31:30.916Z</time></trkpt><trkpt lat="42.0853782" lon="13.5789642"><ele>964.0</ele><time>2026-05-02T13:31:31.915Z</time></trkpt><trkpt lat="42.0854272" lon="13.5788859"><ele>963.9999999999999</ele><time>2026-05-02T13:31:32.915Z</time></trkpt><trkpt lat="42.0854766" lon="13.5788076"><ele>964.0</ele><time>2026-05-02T13:31:33.914Z</time></trkpt><trkpt lat="42.0855286" lon="13.5787317"><ele>964.0</ele><time>2026-05-02T13:31:34.914Z</time></trkpt><trkpt lat="42.0855763" lon="13.5786574"><ele>964.0</ele><time>2026-05-02T13:31:35.914Z</time></trkpt><trkpt lat="42.0856282" lon="13.5785817"><ele>963.9999999999999</ele><time>2026-05-02T13:31:36.915Z</time></trkpt><trkpt lat="42.0856831" lon="13.5784982"><ele>964.0</ele><time>2026-05-02T13:31:37.915Z</time></trkpt><trkpt lat="42.0857256" lon="13.5784187"><ele>963.7142857142858</ele><time>2026-05-02T13:31:38.916Z</time></trkpt><trkpt lat="42.085768" lon="13.5783266"><ele>963.4285714285716</ele><time>2026-05-02T13:31:39.914Z</time></trkpt><trkpt lat="42.0858118" lon="13.5782424"><ele>963.1428571428571</ele><time>2026-05-02T13:31:40.916Z</time></trkpt><trkpt lat="42.0858557" lon="13.5781633"><ele>962.8571428571429</ele><time>2026-05-02T13:31:41.915Z</time></trkpt><trkpt lat="42.0858887" lon="13.578079"><ele>962.5714285714286</ele><time>2026-05-02T13:31:42.915Z</time></trkpt><trkpt lat="42.0859169" lon="13.5779936"><ele>962.2857142857142</ele><time>2026-05-02T13:31:43.914Z</time></trkpt><trkpt lat="42.0859429" lon="13.5779111"><ele>961.9999999999999</ele><time>2026-05-02T13:31:44.914Z</time></trkpt><trkpt lat="42.0859621" lon="13.5778261"><ele>959.5000000000001</ele><time>2026-05-02T13:31:45.915Z</time></trkpt><trkpt lat="42.0859829" lon="13.5777424"><ele>957.0</ele><time>2026-05-02T13:31:46.915Z</time></trkpt><trkpt lat="42.0860052" lon="13.5776623"><ele>954.5</ele><time>2026-05-02T13:31:47.915Z</time></trkpt><trkpt lat="42.086041" lon="13.5775889"><ele>952.0</ele><time>2026-05-02T13:31:48.914Z</time></trkpt><trkpt lat="42.0860694" lon="13.5775094"><ele>949.5000000000001</ele><time>2026-05-02T13:31:49.914Z</time></trkpt><trkpt lat="42.0861067" lon="13.577363"><ele>947.0</ele><time>2026-05-02T13:31:51.915Z</time></trkpt><trkpt lat="42.0861102" lon="13.5772424"><ele>947.0</ele><time>2026-05-02T13:31:53.914Z</time></trkpt><trkpt lat="42.0860733" lon="13.577156"><ele>946.9999999999999</ele><time>2026-05-02T13:31:55.915Z</time></trkpt><trkpt lat="42.0860021" lon="13.5771141"><ele>947.0</ele><time>2026-05-02T13:31:57.914Z</time></trkpt><trkpt lat="42.0859161" lon="13.5771232"><ele>947.0</ele><time>2026-05-02T13:31:59.914Z</time></trkpt><trkpt lat="42.0858475" lon="13.5771603"><ele>946.9999999999999</ele><time>2026-05-02T13:32:01.915Z</time></trkpt><trkpt lat="42.0857831" lon="13.5771683"><ele>947.0</ele><time>2026-05-02T13:32:03.914Z</time></trkpt><trkpt lat="42.0857145" lon="13.5771795"><ele>947.0</ele><time>2026-05-02T13:32:05.915Z</time></trkpt><trkpt lat="42.0856477" lon="13.5771787"><ele>944.2</ele><time>2026-05-02T13:32:07.82Z</time></trkpt><trkpt lat="42.0855652" lon="13.5772004"><ele>941.4000000000001</ele><time>2026-05-02T13:32:09.915Z</time></trkpt><trkpt lat="42.0854839" lon="13.5772223"><ele>938.5999999999999</ele><time>2026-05-02T13:32:11.916Z</time></trkpt><trkpt lat="42.0853939" lon="13.5772423"><ele>935.8</ele><time>2026-05-02T13:32:13.915Z</time></trkpt><trkpt lat="42.0852797" lon="13.5772713"><ele>933.0</ele><time>2026-05-02T13:32:15.915Z</time></trkpt><trkpt lat="42.0851717" lon="13.5773182"><ele>933.0</ele><time>2026-05-02T13:32:17.916Z</time></trkpt><trkpt lat="42.0850755" lon="13.5773398"><ele>933.0</ele><time>2026-05-02T13:32:19.914Z</time></trkpt><trkpt lat="42.0849927" lon="13.5772814"><ele>933.0</ele><time>2026-05-02T13:32:21.914Z</time></trkpt><trkpt lat="42.084967" lon="13.5771392"><ele>933.0</ele><time>2026-05-02T13:32:23.914Z</time></trkpt><trkpt lat="42.0850286" lon="13.5770051"><ele>933.0</ele><time>2026-05-02T13:32:25.915Z</time></trkpt><trkpt lat="42.0851256" lon="13.5769079"><ele>930.0</ele><time>2026-05-02T13:32:27.915Z</time></trkpt><trkpt lat="42.0852266" lon="13.5768296"><ele>927.0</ele><time>2026-05-02T13:32:29.915Z</time></trkpt><trkpt lat="42.0853274" lon="13.5767837"><ele>924.0</ele><time>2026-05-02T13:32:31.915Z</time></trkpt><trkpt lat="42.0854193" lon="13.576705"><ele>921.0</ele><time>2026-05-02T13:32:33.914Z</time></trkpt><trkpt lat="42.0854526" lon="13.5765655"><ele>918.0</ele><time>2026-05-02T13:32:35.915Z</time></trkpt><trkpt lat="42.0854433" lon="13.5764626"><ele>918.0</ele><time>2026-05-02T13:32:37.914Z</time></trkpt><trkpt lat="42.0854883" lon="13.5763941"><ele>918.0</ele><time>2026-05-02T13:32:48.916Z</time></trkpt><trkpt lat="42.0855285" lon="13.5763158"><ele>918.0</ele><time>2026-05-02T13:32:50.915Z</time></trkpt><trkpt lat="42.0855105" lon="13.5762026"><ele>918.0</ele><time>2026-05-02T13:32:52.915Z</time></trkpt><trkpt lat="42.0854802" lon="13.5760729"><ele>918.0</ele><time>2026-05-02T13:32:54.914Z</time></trkpt><trkpt lat="42.0854281" lon="13.5759435"><ele>918.0</ele><time>2026-05-02T13:32:56.915Z</time></trkpt><trkpt lat="42.085355" lon="13.5758104"><ele>914.75</ele><time>2026-05-02T13:32:58.914Z</time></trkpt><trkpt lat="42.0852761" lon="13.5756893"><ele>911.5</ele><time>2026-05-02T13:33:00.915Z</time></trkpt><trkpt lat="42.0852201" lon="13.575558"><ele>908.25</ele><time>2026-05-02T13:33:02.915Z</time></trkpt><trkpt lat="42.0851893" lon="13.5754092"><ele>905.0</ele><time>2026-05-02T13:33:04.914Z</time></trkpt><trkpt lat="42.08518" lon="13.5752615"><ele>902.4</ele><time>2026-05-02T13:33:06.915Z</time></trkpt><trkpt lat="42.0851634" lon="13.5751267"><ele>899.8</ele><time>2026-05-02T13:33:08.915Z</time></trkpt><trkpt lat="42.0851554" lon="13.5749853"><ele>897.2</ele><time>2026-05-02T13:33:10.915Z</time></trkpt><trkpt lat="42.0851652" lon="13.5748478"><ele>894.6</ele><time>2026-05-02T13:33:12.914Z</time></trkpt><trkpt lat="42.0851496" lon="13.5747118"><ele>892.0</ele><time>2026-05-02T13:33:14.915Z</time></trkpt><trkpt lat="42.0851194" lon="13.5745846"><ele>889.2</ele><time>2026-05-02T13:33:16.915Z</time></trkpt><trkpt lat="42.0850931" lon="13.5744541"><ele>886.4000000000001</ele><time>2026-05-02T13:33:18.914Z</time></trkpt><trkpt lat="42.0850586" lon="13.5743495"><ele>883.5999999999999</ele><time>2026-05-02T13:33:20.915Z</time></trkpt><trkpt lat="42.0850251" lon="13.5742276"><ele>880.8</ele><time>2026-05-02T13:33:22.915Z</time></trkpt><trkpt lat="42.0850051" lon="13.5741082"><ele>878.0</ele><time>2026-05-02T13:33:24.913Z</time></trkpt><trkpt lat="42.0850136" lon="13.5739849"><ele>878.0000000000001</ele><time>2026-05-02T13:33:26.914Z</time></trkpt><trkpt lat="42.0849773" lon="13.5738622"><ele>878.0</ele><time>2026-05-02T13:33:28.914Z</time></trkpt><trkpt lat="42.0849533" lon="13.5737286"><ele>878.0</ele><time>2026-05-02T13:33:30.914Z</time></trkpt><trkpt lat="42.0849389" lon="13.5736186"><ele>878.0</ele><time>2026-05-02T13:33:32.914Z</time></trkpt><trkpt lat="42.0849303" lon="13.5735091"><ele>878.0000000000001</ele><time>2026-05-02T13:33:34.914Z</time></trkpt><trkpt lat="42.084919" lon="13.5734038"><ele>878.0</ele><time>2026-05-02T13:33:36.914Z</time></trkpt><trkpt lat="42.084909" lon="13.5733176"><ele>875.3333333333334</ele><time>2026-05-02T13:33:38.915Z</time></trkpt><trkpt lat="42.0849005" lon="13.5732197"><ele>872.6666666666667</ele><time>2026-05-02T13:33:40.914Z</time></trkpt><trkpt lat="42.0849211" lon="13.5731119"><ele>870.0</ele><time>2026-05-02T13:33:43.888Z</time></trkpt><trkpt lat="42.0849609" lon="13.5730231"><ele>867.3333333333333</ele><time>2026-05-02T13:33:46.913Z</time></trkpt><trkpt lat="42.0850186" lon="13.5729476"><ele>864.6666666666666</ele><time>2026-05-02T13:33:50.915Z</time></trkpt><trkpt lat="42.0850447" lon="13.5728429"><ele>862.0</ele><time>2026-05-02T13:33:53.914Z</time></trkpt><trkpt lat="42.0850327" lon="13.5727462"><ele>859.8</ele><time>2026-05-02T13:33:55.913Z</time></trkpt><trkpt lat="42.0850156" lon="13.5726452"><ele>857.6</ele><time>2026-05-02T13:33:58.915Z</time></trkpt><trkpt lat="42.0850398" lon="13.5725466"><ele>855.4</ele><time>2026-05-02T13:35:37.914Z</time></trkpt><trkpt lat="42.0850788" lon="13.5724464"><ele>853.1999999999999</ele><time>2026-05-02T13:35:40.914Z</time></trkpt><trkpt lat="42.0850402" lon="13.5721807"><ele>851.0</ele><time>2026-05-02T13:35:43.914Z</time></trkpt><trkpt lat="42.085077" lon="13.5721076"><ele>851.0</ele><time>2026-05-02T13:35:45.914Z</time></trkpt><trkpt lat="42.0850344" lon="13.5722158"><ele>851.0</ele><time>2026-05-02T13:35:58.913Z</time></trkpt><trkpt lat="42.0849938" lon="13.5723287"><ele>851.0</ele><time>2026-05-02T13:36:00.913Z</time></trkpt><trkpt lat="42.0849904" lon="13.572463"><ele>851.0</ele><time>2026-05-02T13:36:02.915Z</time></trkpt><trkpt lat="42.0850027" lon="13.5726122"><ele>851.0</ele><time>2026-05-02T13:36:04.915Z</time></trkpt><trkpt lat="42.0850172" lon="13.5727021"><ele>851.0</ele><time>2026-05-02T13:36:05.914Z</time></trkpt><trkpt lat="42.0850352" lon="13.5727879"><ele>851.0</ele><time>2026-05-02T13:36:06.914Z</time></trkpt><trkpt lat="42.084999" lon="13.572936"><ele>851.0</ele><time>2026-05-02T13:36:08.914Z</time></trkpt><trkpt lat="42.084947" lon="13.5730814"><ele>851.0</ele><time>2026-05-02T13:36:10.914Z</time></trkpt><trkpt lat="42.0849157" lon="13.5732234"><ele>851.0</ele><time>2026-05-02T13:36:12.914Z</time></trkpt><trkpt lat="42.084918" lon="13.5733759"><ele>852.6666666666667</ele><time>2026-05-02T13:36:14.915Z</time></trkpt><trkpt lat="42.0849265" lon="13.5734654"><ele>854.3333333333334</ele><time>2026-05-02T13:36:15.913Z</time></trkpt><trkpt lat="42.0849372" lon="13.5735518"><ele>856.0</ele><time>2026-05-02T13:36:16.915Z</time></trkpt><trkpt lat="42.0849537" lon="13.5736364"><ele>857.6666666666667</ele><time>2026-05-02T13:36:17.916Z</time></trkpt><trkpt lat="42.0849793" lon="13.5737936"><ele>859.3333333333334</ele><time>2026-05-02T13:36:19.914Z</time></trkpt><trkpt lat="42.0850122" lon="13.5739424"><ele>861.0</ele><time>2026-05-02T13:36:21.915Z</time></trkpt><trkpt lat="42.0850269" lon="13.5740861"><ele>864.4</ele><time>2026-05-02T13:36:23.915Z</time></trkpt><trkpt lat="42.0850437" lon="13.5742461"><ele>867.8</ele><time>2026-05-02T13:36:25.914Z</time></trkpt><trkpt lat="42.0850674" lon="13.5743949"><ele>871.1999999999999</ele><time>2026-05-02T13:36:27.915Z</time></trkpt><trkpt lat="42.0850983" lon="13.5745227"><ele>874.5999999999999</ele><time>2026-05-02T13:36:29.913Z</time></trkpt><trkpt lat="42.0851264" lon="13.5746749"><ele>878.0</ele><time>2026-05-02T13:36:31.913Z</time></trkpt><trkpt lat="42.0851646" lon="13.5748073"><ele>880.8</ele><time>2026-05-02T13:36:33.913Z</time></trkpt><trkpt lat="42.0852037" lon="13.5749466"><ele>883.5999999999999</ele><time>2026-05-02T13:36:35.914Z</time></trkpt><trkpt lat="42.0851917" lon="13.5751011"><ele>886.4000000000001</ele><time>2026-05-02T13:36:37.914Z</time></trkpt><trkpt lat="42.0851929" lon="13.5752437"><ele>889.2</ele><time>2026-05-02T13:36:39.915Z</time></trkpt><trkpt lat="42.0852255" lon="13.5753732"><ele>892.0</ele><time>2026-05-02T13:36:41.913Z</time></trkpt><trkpt lat="42.0852502" lon="13.575524"><ele>894.6</ele><time>2026-05-02T13:36:43.913Z</time></trkpt><trkpt lat="42.0852709" lon="13.5756131"><ele>897.2</ele><time>2026-05-02T13:36:44.915Z</time></trkpt><trkpt lat="42.0853195" lon="13.5757583"><ele>899.8</ele><time>2026-05-02T13:36:46.914Z</time></trkpt><trkpt lat="42.0853966" lon="13.5758698"><ele>902.4</ele><time>2026-05-02T13:36:48.914Z</time></trkpt><trkpt lat="42.0854681" lon="13.5759971"><ele>905.0</ele><time>2026-05-02T13:36:50.914Z</time></trkpt><trkpt lat="42.0855067" lon="13.5761209"><ele>907.1666666666667</ele><time>2026-05-02T13:36:52.915Z</time></trkpt><trkpt lat="42.0855262" lon="13.5762584"><ele>909.3333333333334</ele><time>2026-05-02T13:36:54.915Z</time></trkpt><trkpt lat="42.0855151" lon="13.5763814"><ele>911.5</ele><time>2026-05-02T13:36:56.914Z</time></trkpt><trkpt lat="42.0854269" lon="13.576474"><ele>913.6666666666667</ele><time>2026-05-02T13:36:58.913Z</time></trkpt><trkpt lat="42.0853626" lon="13.5764857"><ele>915.8333333333334</ele><time>2026-05-02T13:37:00.913Z</time></trkpt><trkpt lat="42.0853026" lon="13.576444"><ele>918.0</ele><time>2026-05-02T13:37:53.914Z</time></trkpt><trkpt lat="42.0852256" lon="13.5764513"><ele>918.0</ele><time>2026-05-02T13:37:55.914Z</time></trkpt><trkpt lat="42.0851301" lon="13.5764587"><ele>918.0</ele><time>2026-05-02T13:37:57.914Z</time></trkpt><trkpt lat="42.0850406" lon="13.576407"><ele>918.0</ele><time>2026-05-02T13:37:59.913Z</time></trkpt><trkpt lat="42.0849785" lon="13.5763714"><ele>918.0</ele><time>2026-05-02T13:38:00.914Z</time></trkpt><trkpt lat="42.0848711" lon="13.5763254"><ele>918.0</ele><time>2026-05-02T13:38:02.914Z</time></trkpt><trkpt lat="42.0847861" lon="13.5762812"><ele>916.8333333333334</ele><time>2026-05-02T13:38:04.914Z</time></trkpt><trkpt lat="42.0846969" lon="13.5762447"><ele>915.6666666666667</ele><time>2026-05-02T13:38:06.914Z</time></trkpt><trkpt lat="42.0846118" lon="13.5762241"><ele>914.5</ele><time>2026-05-02T13:38:08.914Z</time></trkpt><trkpt lat="42.0845486" lon="13.5762037"><ele>913.3333333333334</ele><time>2026-05-02T13:38:10.915Z</time></trkpt><trkpt lat="42.0844819" lon="13.576195"><ele>912.1666666666667</ele><time>2026-05-02T13:38:13.915Z</time></trkpt><trkpt lat="42.0843982" lon="13.5761825"><ele>911.0</ele><time>2026-05-02T13:38:16.914Z</time></trkpt><trkpt lat="42.0843301" lon="13.5761945"><ele>911.0000000000001</ele><time>2026-05-02T13:38:19.915Z</time></trkpt><trkpt lat="42.0842538" lon="13.5761982"><ele>911.0</ele><time>2026-05-02T13:38:35.914Z</time></trkpt><trkpt lat="42.0841692" lon="13.5761655"><ele>911.0</ele><time>2026-05-02T13:38:38.914Z</time></trkpt><trkpt lat="42.0840922" lon="13.5761458"><ele>911.0</ele><time>2026-05-02T13:38:41.914Z</time></trkpt><trkpt lat="42.0840125" lon="13.5761031"><ele>911.0000000000001</ele><time>2026-05-02T13:38:44.913Z</time></trkpt><trkpt lat="42.0839179" lon="13.5760727"><ele>911.0</ele><time>2026-05-02T13:38:46.914Z</time></trkpt><trkpt lat="42.0838003" lon="13.5760723"><ele>907.4</ele><time>2026-05-02T13:38:48.916Z</time></trkpt><trkpt lat="42.0836915" lon="13.5760618"><ele>903.8</ele><time>2026-05-02T13:38:50.914Z</time></trkpt><trkpt lat="42.0835922" lon="13.57599"><ele>900.1999999999999</ele><time>2026-05-02T13:38:52.914Z</time></trkpt><trkpt lat="42.0835104" lon="13.5758924"><ele>896.5999999999999</ele><time>2026-05-02T13:38:54.914Z</time></trkpt><trkpt lat="42.0834322" lon="13.5757913"><ele>893.0</ele><time>2026-05-02T13:38:56.914Z</time></trkpt><trkpt lat="42.0833692" lon="13.5756848"><ele>893.0</ele><time>2026-05-02T13:38:58.914Z</time></trkpt><trkpt lat="42.083315" lon="13.5755673"><ele>893.0</ele><time>2026-05-02T13:39:00.914Z</time></trkpt><trkpt lat="42.0832478" lon="13.5754649"><ele>893.0</ele><time>2026-05-02T13:39:02.915Z</time></trkpt><trkpt lat="42.0831807" lon="13.5753375"><ele>893.0</ele><time>2026-05-02T13:39:04.914Z</time></trkpt><trkpt lat="42.0831496" lon="13.5752618"><ele>893.0</ele><time>2026-05-02T13:39:05.913Z</time></trkpt><trkpt lat="42.0831172" lon="13.5751629"><ele>891.6666666666667</ele><time>2026-05-02T13:39:06.915Z</time></trkpt><trkpt lat="42.0830865" lon="13.5750734"><ele>890.3333333333334</ele><time>2026-05-02T13:39:07.914Z</time></trkpt><trkpt lat="42.0830547" lon="13.5749775"><ele>889.0</ele><time>2026-05-02T13:39:08.914Z</time></trkpt><trkpt lat="42.0830267" lon="13.5748728"><ele>887.6666666666667</ele><time>2026-05-02T13:39:09.915Z</time></trkpt><trkpt lat="42.0829971" lon="13.5747736"><ele>886.3333333333334</ele><time>2026-05-02T13:39:10.914Z</time></trkpt><trkpt lat="42.0829554" lon="13.5746831"><ele>885.0</ele><time>2026-05-02T13:39:11.914Z</time></trkpt><trkpt lat="42.0829239" lon="13.5745926"><ele>884.0</ele><time>2026-05-02T13:39:12.913Z</time></trkpt><trkpt lat="42.082887" lon="13.5745014"><ele>883.0</ele><time>2026-05-02T13:39:13.915Z</time></trkpt><trkpt lat="42.0828293" lon="13.5743937"><ele>882.0</ele><time>2026-05-02T13:39:14.914Z</time></trkpt><trkpt lat="42.0827932" lon="13.5742894"><ele>881.0</ele><time>2026-05-02T13:39:15.914Z</time></trkpt><trkpt lat="42.0827591" lon="13.5741931"><ele>880.0</ele><time>2026-05-02T13:39:16.915Z</time></trkpt><trkpt lat="42.0827161" lon="13.5741066"><ele>879.0</ele><time>2026-05-02T13:39:17.913Z</time></trkpt><trkpt lat="42.0826649" lon="13.5740132"><ele>879.0</ele><time>2026-05-02T13:39:18.914Z</time></trkpt><trkpt lat="42.0826101" lon="13.5739125"><ele>879.0</ele><time>2026-05-02T13:39:19.915Z</time></trkpt><trkpt lat="42.0825529" lon="13.5738232"><ele>879.0</ele><time>2026-05-02T13:39:20.915Z</time></trkpt><trkpt lat="42.0824989" lon="13.5737314"><ele>879.0</ele><time>2026-05-02T13:39:21.914Z</time></trkpt><trkpt lat="42.0824514" lon="13.5736418"><ele>879.0</ele><time>2026-05-02T13:39:22.914Z</time></trkpt><trkpt lat="42.0824085" lon="13.573563"><ele>879.0</ele><time>2026-05-02T13:39:23.914Z</time></trkpt><trkpt lat="42.0823664" lon="13.5734769"><ele>878.2</ele><time>2026-05-02T13:39:24.914Z</time></trkpt><trkpt lat="42.0822771" lon="13.5733327"><ele>877.4000000000001</ele><time>2026-05-02T13:39:26.915Z</time></trkpt><trkpt lat="42.0822336" lon="13.5732567"><ele>876.6</ele><time>2026-05-02T13:39:27.914Z</time></trkpt><trkpt lat="42.0821884" lon="13.5731864"><ele>875.8</ele><time>2026-05-02T13:39:28.914Z</time></trkpt><trkpt lat="42.0820981" lon="13.5730703"><ele>875.0</ele><time>2026-05-02T13:39:30.914Z</time></trkpt><trkpt lat="42.0820446" lon="13.5730132"><ele>875.0000000000001</ele><time>2026-05-02T13:39:31.914Z</time></trkpt><trkpt lat="42.0819883" lon="13.5729495"><ele>875.0</ele><time>2026-05-02T13:39:32.914Z</time></trkpt><trkpt lat="42.0819314" lon="13.5729052"><ele>875.0</ele><time>2026-05-02T13:39:33.914Z</time></trkpt><trkpt lat="42.0818321" lon="13.5727919"><ele>875.0</ele><time>2026-05-02T13:39:35.913Z</time></trkpt><trkpt lat="42.0817873" lon="13.5727283"><ele>875.0000000000001</ele><time>2026-05-02T13:39:36.913Z</time></trkpt><trkpt lat="42.0817431" lon="13.5726588"><ele>875.0</ele><time>2026-05-02T13:39:37.913Z</time></trkpt><trkpt lat="42.0817011" lon="13.572593"><ele>874.6</ele><time>2026-05-02T13:39:38.914Z</time></trkpt><trkpt lat="42.0816659" lon="13.5725226"><ele>874.2</ele><time>2026-05-02T13:39:39.914Z</time></trkpt><trkpt lat="42.0815979" lon="13.5724013"><ele>873.8</ele><time>2026-05-02T13:39:41.914Z</time></trkpt><trkpt lat="42.0815153" lon="13.5722981"><ele>873.4</ele><time>2026-05-02T13:39:43.914Z</time></trkpt><trkpt lat="42.0814566" lon="13.5721903"><ele>873.0</ele><time>2026-05-02T13:39:45.914Z</time></trkpt><trkpt lat="42.0814497" lon="13.5720685"><ele>871.6666666666666</ele><time>2026-05-02T13:39:47.913Z</time></trkpt><trkpt lat="42.0814901" lon="13.5719418"><ele>870.3333333333333</ele><time>2026-05-02T13:39:49.913Z</time></trkpt><trkpt lat="42.0814903" lon="13.5718475"><ele>869.0</ele><time>2026-05-02T13:39:51.915Z</time></trkpt><trkpt lat="42.0814314" lon="13.5717267"><ele>867.6666666666666</ele><time>2026-05-02T13:39:53.914Z</time></trkpt><trkpt lat="42.0813836" lon="13.5716592"><ele>866.3333333333333</ele><time>2026-05-02T13:39:54.914Z</time></trkpt><trkpt lat="42.0813278" lon="13.5715987"><ele>865.0</ele><time>2026-05-02T13:39:55.913Z</time></trkpt><trkpt lat="42.0812687" lon="13.5715405"><ele>865.0</ele><time>2026-05-02T13:39:56.914Z</time></trkpt><trkpt lat="42.0812122" lon="13.5714765"><ele>865.0</ele><time>2026-05-02T13:39:57.915Z</time></trkpt><trkpt lat="42.0811569" lon="13.5714142"><ele>865.0</ele><time>2026-05-02T13:39:58.914Z</time></trkpt><trkpt lat="42.0810973" lon="13.5713684"><ele>865.0</ele><time>2026-05-02T13:39:59.915Z</time></trkpt><trkpt lat="42.0810401" lon="13.5713197"><ele>865.0</ele><time>2026-05-02T13:40:00.914Z</time></trkpt><trkpt lat="42.0809814" lon="13.5712611"><ele>865.0</ele><time>2026-05-02T13:40:01.915Z</time></trkpt><trkpt lat="42.0809306" lon="13.5712046"><ele>865.0</ele><time>2026-05-02T13:40:02.914Z</time></trkpt><trkpt lat="42.0808617" lon="13.5710989"><ele>863.3333333333333</ele><time>2026-05-02T13:40:04.914Z</time></trkpt><trkpt lat="42.0808244" lon="13.5710254"><ele>861.6666666666666</ele><time>2026-05-02T13:40:05.915Z</time></trkpt><trkpt lat="42.0807918" lon="13.5709368"><ele>860.0</ele><time>2026-05-02T13:40:06.914Z</time></trkpt><trkpt lat="42.0807545" lon="13.5708313"><ele>858.3333333333333</ele><time>2026-05-02T13:40:07.914Z</time></trkpt><trkpt lat="42.0807077" lon="13.5707333"><ele>856.6666666666666</ele><time>2026-05-02T13:40:08.914Z</time></trkpt><trkpt lat="42.080668" lon="13.5706444"><ele>855.0</ele><time>2026-05-02T13:40:09.914Z</time></trkpt><trkpt lat="42.0806264" lon="13.5705634"><ele>857.1666666666666</ele><time>2026-05-02T13:40:10.914Z</time></trkpt><trkpt lat="42.080597" lon="13.5704769"><ele>859.3333333333333</ele><time>2026-05-02T13:40:11.914Z</time></trkpt><trkpt lat="42.0805632" lon="13.570385"><ele>861.5</ele><time>2026-05-02T13:40:12.914Z</time></trkpt><trkpt lat="42.0805208" lon="13.5702989"><ele>863.6666666666666</ele><time>2026-05-02T13:40:13.914Z</time></trkpt><trkpt lat="42.0804847" lon="13.5702018"><ele>865.8333333333333</ele><time>2026-05-02T13:40:14.913Z</time></trkpt><trkpt lat="42.0804571" lon="13.5700929"><ele>868.0</ele><time>2026-05-02T13:40:15.915Z</time></trkpt><trkpt lat="42.0804302" lon="13.5699738"><ele>867.9999999999999</ele><time>2026-05-02T13:40:16.914Z</time></trkpt><trkpt lat="42.0804078" lon="13.56987"><ele>868.0</ele><time>2026-05-02T13:40:17.914Z</time></trkpt><trkpt lat="42.0803881" lon="13.5697773"><ele>868.0</ele><time>2026-05-02T13:40:18.914Z</time></trkpt><trkpt lat="42.0803676" lon="13.5696791"><ele>868.0</ele><time>2026-05-02T13:40:19.913Z</time></trkpt><trkpt lat="42.0803564" lon="13.5695713"><ele>867.9999999999999</ele><time>2026-05-02T13:40:20.915Z</time></trkpt><trkpt lat="42.0803515" lon="13.5694638"><ele>868.0</ele><time>2026-05-02T13:40:21.914Z</time></trkpt><trkpt lat="42.0803502" lon="13.5693643"><ele>866.4285714285714</ele><time>2026-05-02T13:40:22.914Z</time></trkpt><trkpt lat="42.0803403" lon="13.5692699"><ele>864.8571428571429</ele><time>2026-05-02T13:40:23.914Z</time></trkpt><trkpt lat="42.0803273" lon="13.5691839"><ele>863.2857142857142</ele><time>2026-05-02T13:40:24.913Z</time></trkpt><trkpt lat="42.0803031" lon="13.5691048"><ele>861.7142857142858</ele><time>2026-05-02T13:40:25.914Z</time></trkpt><trkpt lat="42.0802717" lon="13.5690124"><ele>860.1428571428571</ele><time>2026-05-02T13:40:26.914Z</time></trkpt><trkpt lat="42.0802227" lon="13.5689257"><ele>858.5714285714286</ele><time>2026-05-02T13:40:27.914Z</time></trkpt><trkpt lat="42.08018" lon="13.5688274"><ele>857.0</ele><time>2026-05-02T13:40:28.913Z</time></trkpt><trkpt lat="42.0801456" lon="13.5687242"><ele>854.8333333333334</ele><time>2026-05-02T13:40:29.914Z</time></trkpt><trkpt lat="42.0801103" lon="13.5686005"><ele>852.6666666666667</ele><time>2026-05-02T13:40:30.914Z</time></trkpt><trkpt lat="42.0800782" lon="13.568486"><ele>850.5</ele><time>2026-05-02T13:40:31.913Z</time></trkpt><trkpt lat="42.0800655" lon="13.5683662"><ele>848.3333333333333</ele><time>2026-05-02T13:40:32.913Z</time></trkpt><trkpt lat="42.0800451" lon="13.5682525"><ele>846.1666666666666</ele><time>2026-05-02T13:40:33.913Z</time></trkpt><trkpt lat="42.0800367" lon="13.5681438"><ele>844.0</ele><time>2026-05-02T13:40:34.913Z</time></trkpt><trkpt lat="42.0800239" lon="13.5680392"><ele>843.9999999999999</ele><time>2026-05-02T13:40:35.913Z</time></trkpt><trkpt lat="42.0800267" lon="13.5679365"><ele>844.0</ele><time>2026-05-02T13:40:36.915Z</time></trkpt><trkpt lat="42.0800439" lon="13.5678316"><ele>844.0</ele><time>2026-05-02T13:40:37.913Z</time></trkpt><trkpt lat="42.0800621" lon="13.5677272"><ele>844.0</ele><time>2026-05-02T13:40:38.914Z</time></trkpt><trkpt lat="42.080092" lon="13.5676216"><ele>843.9999999999999</ele><time>2026-05-02T13:40:39.913Z</time></trkpt><trkpt lat="42.0801296" lon="13.5675223"><ele>844.0</ele><time>2026-05-02T13:40:40.914Z</time></trkpt><trkpt lat="42.0801695" lon="13.5674156"><ele>842.9999999999999</ele><time>2026-05-02T13:40:41.914Z</time></trkpt><trkpt lat="42.0802332" lon="13.5673005"><ele>842.0</ele><time>2026-05-02T13:40:42.913Z</time></trkpt><trkpt lat="42.0802935" lon="13.5672004"><ele>841.0</ele><time>2026-05-02T13:40:43.915Z</time></trkpt><trkpt lat="42.0803442" lon="13.5671107"><ele>840.0</ele><time>2026-05-02T13:40:44.914Z</time></trkpt><trkpt lat="42.0803932" lon="13.5670374"><ele>838.9999999999999</ele><time>2026-05-02T13:40:45.914Z</time></trkpt><trkpt lat="42.0804499" lon="13.5669712"><ele>838.0</ele><time>2026-05-02T13:40:46.914Z</time></trkpt><trkpt lat="42.0804998" lon="13.5669152"><ele>838.0</ele><time>2026-05-02T13:40:47.915Z</time></trkpt><trkpt lat="42.080567" lon="13.5667798"><ele>838.0</ele><time>2026-05-02T13:40:49.914Z</time></trkpt><trkpt lat="42.0805794" lon="13.5666466"><ele>838.0</ele><time>2026-05-02T13:40:51.913Z</time></trkpt><trkpt lat="42.0805382" lon="13.5664588"><ele>838.0</ele><time>2026-05-02T13:40:53.914Z</time></trkpt><trkpt lat="42.0805025" lon="13.5663642"><ele>838.0</ele><time>2026-05-02T13:40:54.914Z</time></trkpt><trkpt lat="42.0804888" lon="13.5662535"><ele>837.9999999999999</ele><time>2026-05-02T13:40:55.914Z</time></trkpt><trkpt lat="42.0804664" lon="13.5661301"><ele>838.0</ele><time>2026-05-02T13:40:56.914Z</time></trkpt><trkpt lat="42.0804637" lon="13.5660126"><ele>838.0</ele><time>2026-05-02T13:40:57.914Z</time></trkpt><trkpt lat="42.0804689" lon="13.5658936"><ele>838.0</ele><time>2026-05-02T13:40:58.914Z</time></trkpt><trkpt lat="42.0804629" lon="13.5657854"><ele>837.9999999999999</ele><time>2026-05-02T13:40:59.915Z</time></trkpt><trkpt lat="42.0804437" lon="13.5656748"><ele>838.0</ele><time>2026-05-02T13:41:00.914Z</time></trkpt><trkpt lat="42.0804113" lon="13.5655593"><ele>838.0</ele><time>2026-05-02T13:41:01.914Z</time></trkpt><trkpt lat="42.0803721" lon="13.5654647"><ele>838.0</ele><time>2026-05-02T13:41:02.913Z</time></trkpt><trkpt lat="42.0803357" lon="13.5653444"><ele>838.0</ele><time>2026-05-02T13:41:03.913Z</time></trkpt><trkpt lat="42.0802945" lon="13.5652266"><ele>838.0</ele><time>2026-05-02T13:41:04.914Z</time></trkpt><trkpt lat="42.0802551" lon="13.5651123"><ele>838.0</ele><time>2026-05-02T13:41:05.914Z</time></trkpt><trkpt lat="42.0802191" lon="13.5649885"><ele>835.5999999999999</ele><time>2026-05-02T13:41:06.913Z</time></trkpt><trkpt lat="42.08018" lon="13.5648663"><ele>833.1999999999999</ele><time>2026-05-02T13:41:07.914Z</time></trkpt><trkpt lat="42.0801402" lon="13.5647438"><ele>830.8</ele><time>2026-05-02T13:41:08.913Z</time></trkpt><trkpt lat="42.0800991" lon="13.5646049"><ele>828.4</ele><time>2026-05-02T13:41:09.913Z</time></trkpt><trkpt lat="42.0800753" lon="13.564468"><ele>826.0</ele><time>2026-05-02T13:41:10.913Z</time></trkpt><trkpt lat="42.0800606" lon="13.5643259"><ele>824.0</ele><time>2026-05-02T13:41:11.915Z</time></trkpt><trkpt lat="42.0800572" lon="13.5641772"><ele>822.0</ele><time>2026-05-02T13:41:12.913Z</time></trkpt><trkpt lat="42.0800595" lon="13.5640209"><ele>820.0</ele><time>2026-05-02T13:41:13.915Z</time></trkpt><trkpt lat="42.0800567" lon="13.5638521"><ele>818.0</ele><time>2026-05-02T13:41:14.913Z</time></trkpt><trkpt lat="42.0800423" lon="13.5637016"><ele>817.8</ele><time>2026-05-02T13:41:15.914Z</time></trkpt><trkpt lat="42.0800315" lon="13.5635514"><ele>817.5999999999999</ele><time>2026-05-02T13:41:16.914Z</time></trkpt><trkpt lat="42.0800343" lon="13.5634028"><ele>817.4000000000001</ele><time>2026-05-02T13:41:17.914Z</time></trkpt><trkpt lat="42.0800313" lon="13.5632507"><ele>817.2</ele><time>2026-05-02T13:41:18.914Z</time></trkpt><trkpt lat="42.0800258" lon="13.5631127"><ele>817.0</ele><time>2026-05-02T13:41:19.915Z</time></trkpt><trkpt lat="42.0800335" lon="13.5629763"><ele>815.4999999999999</ele><time>2026-05-02T13:41:20.914Z</time></trkpt><trkpt lat="42.0800459" lon="13.5628504"><ele>814.0</ele><time>2026-05-02T13:41:21.914Z</time></trkpt><trkpt lat="42.0800584" lon="13.5627287"><ele>812.5</ele><time>2026-05-02T13:41:22.914Z</time></trkpt><trkpt lat="42.0800647" lon="13.5626145"><ele>811.0</ele><time>2026-05-02T13:41:23.914Z</time></trkpt><trkpt lat="42.0800492" lon="13.5624956"><ele>809.4999999999999</ele><time>2026-05-02T13:41:24.914Z</time></trkpt><trkpt lat="42.0800294" lon="13.5623923"><ele>808.0</ele><time>2026-05-02T13:41:25.914Z</time></trkpt><trkpt lat="42.0799936" lon="13.5622916"><ele>807.9999999999999</ele><time>2026-05-02T13:41:26.914Z</time></trkpt><trkpt lat="42.0799472" lon="13.5622005"><ele>808.0</ele><time>2026-05-02T13:41:27.915Z</time></trkpt><trkpt lat="42.0799096" lon="13.5621033"><ele>808.0</ele><time>2026-05-02T13:41:28.915Z</time></trkpt><trkpt lat="42.0798845" lon="13.5619994"><ele>808.0</ele><time>2026-05-02T13:41:29.914Z</time></trkpt><trkpt lat="42.0798687" lon="13.5618892"><ele>807.9999999999999</ele><time>2026-05-02T13:41:30.914Z</time></trkpt><trkpt lat="42.0798575" lon="13.56176"><ele>808.0</ele><time>2026-05-02T13:41:31.913Z</time></trkpt><trkpt lat="42.0798602" lon="13.5616385"><ele>806.6666666666666</ele><time>2026-05-02T13:41:32.913Z</time></trkpt><trkpt lat="42.0798664" lon="13.5615213"><ele>805.3333333333333</ele><time>2026-05-02T13:41:33.914Z</time></trkpt><trkpt lat="42.0798777" lon="13.5614106"><ele>804.0</ele><time>2026-05-02T13:41:34.914Z</time></trkpt><trkpt lat="42.0799182" lon="13.5613221"><ele>802.6666666666667</ele><time>2026-05-02T13:41:35.913Z</time></trkpt><trkpt lat="42.0799566" lon="13.5612392"><ele>801.3333333333334</ele><time>2026-05-02T13:41:36.914Z</time></trkpt><trkpt lat="42.0800214" lon="13.5611635"><ele>800.0</ele><time>2026-05-02T13:41:37.914Z</time></trkpt><trkpt lat="42.0800638" lon="13.5610832"><ele>799.0000000000001</ele><time>2026-05-02T13:41:38.914Z</time></trkpt><trkpt lat="42.0800972" lon="13.5610025"><ele>798.0</ele><time>2026-05-02T13:41:39.913Z</time></trkpt><trkpt lat="42.0801181" lon="13.5609034"><ele>797.0</ele><time>2026-05-02T13:41:40.914Z</time></trkpt><trkpt lat="42.0801222" lon="13.5608071"><ele>796.0</ele><time>2026-05-02T13:41:41.914Z</time></trkpt><trkpt lat="42.0801188" lon="13.5607088"><ele>795.0000000000001</ele><time>2026-05-02T13:41:42.913Z</time></trkpt><trkpt lat="42.0800836" lon="13.5605807"><ele>794.0</ele><time>2026-05-02T13:41:43.913Z</time></trkpt><trkpt lat="42.0800404" lon="13.5604614"><ele>796.4000000000001</ele><time>2026-05-02T13:41:44.915Z</time></trkpt><trkpt lat="42.0799994" lon="13.5603323"><ele>798.8</ele><time>2026-05-02T13:41:45.914Z</time></trkpt><trkpt lat="42.079956" lon="13.560217"><ele>801.2</ele><time>2026-05-02T13:41:46.915Z</time></trkpt><trkpt lat="42.079908" lon="13.5601155"><ele>803.5999999999999</ele><time>2026-05-02T13:41:47.915Z</time></trkpt><trkpt lat="42.0798622" lon="13.5600141"><ele>806.0</ele><time>2026-05-02T13:41:48.913Z</time></trkpt><trkpt lat="42.0798007" lon="13.559916"><ele>806.0</ele><time>2026-05-02T13:41:49.914Z</time></trkpt><trkpt lat="42.0797427" lon="13.5598218"><ele>806.0</ele><time>2026-05-02T13:41:50.913Z</time></trkpt><trkpt lat="42.0796869" lon="13.559716"><ele>806.0</ele><time>2026-05-02T13:41:51.914Z</time></trkpt><trkpt lat="42.0796361" lon="13.5596106"><ele>806.0</ele><time>2026-05-02T13:41:52.914Z</time></trkpt><trkpt lat="42.0795825" lon="13.5595095"><ele>806.0</ele><time>2026-05-02T13:41:53.913Z</time></trkpt><trkpt lat="42.0795306" lon="13.5594115"><ele>801.1999999999999</ele><time>2026-05-02T13:41:54.915Z</time></trkpt><trkpt lat="42.0794759" lon="13.5593008"><ele>796.4</ele><time>2026-05-02T13:41:55.914Z</time></trkpt><trkpt lat="42.0794253" lon="13.5591923"><ele>791.6</ele><time>2026-05-02T13:41:56.914Z</time></trkpt><trkpt lat="42.0793766" lon="13.5590911"><ele>786.8</ele><time>2026-05-02T13:41:57.913Z</time></trkpt><trkpt lat="42.0793302" lon="13.5589914"><ele>782.0</ele><time>2026-05-02T13:41:58.914Z</time></trkpt><trkpt lat="42.0792858" lon="13.5588974"><ele>782.0000000000001</ele><time>2026-05-02T13:41:59.913Z</time></trkpt><trkpt lat="42.0792348" lon="13.5588091"><ele>782.0</ele><time>2026-05-02T13:42:00.914Z</time></trkpt><trkpt lat="42.0791832" lon="13.558721"><ele>782.0</ele><time>2026-05-02T13:42:01.915Z</time></trkpt><trkpt lat="42.0791308" lon="13.5586296"><ele>782.0</ele><time>2026-05-02T13:42:02.914Z</time></trkpt><trkpt lat="42.0790707" lon="13.5585463"><ele>782.0000000000001</ele><time>2026-05-02T13:42:03.915Z</time></trkpt><trkpt lat="42.079016" lon="13.5584577"><ele>782.0</ele><time>2026-05-02T13:42:04.915Z</time></trkpt><trkpt lat="42.0789618" lon="13.5583609"><ele>782.3333333333334</ele><time>2026-05-02T13:42:05.913Z</time></trkpt><trkpt lat="42.0789092" lon="13.5582651"><ele>782.6666666666667</ele><time>2026-05-02T13:42:06.914Z</time></trkpt><trkpt lat="42.0788591" lon="13.5581658"><ele>783.0</ele><time>2026-05-02T13:42:07.915Z</time></trkpt><trkpt lat="42.0788155" lon="13.5580764"><ele>783.3333333333333</ele><time>2026-05-02T13:42:08.914Z</time></trkpt><trkpt lat="42.0787704" lon="13.5579811"><ele>783.6666666666666</ele><time>2026-05-02T13:42:09.913Z</time></trkpt><trkpt lat="42.0787268" lon="13.5578965"><ele>784.0</ele><time>2026-05-02T13:42:10.915Z</time></trkpt><trkpt lat="42.0786774" lon="13.5577962"><ele>780.0</ele><time>2026-05-02T13:42:11.913Z</time></trkpt><trkpt lat="42.0786262" lon="13.5576915"><ele>776.0</ele><time>2026-05-02T13:42:12.913Z</time></trkpt><trkpt lat="42.0785838" lon="13.5575908"><ele>772.0</ele><time>2026-05-02T13:42:13.914Z</time></trkpt><trkpt lat="42.0785449" lon="13.5574797"><ele>768.0</ele><time>2026-05-02T13:42:14.913Z</time></trkpt><trkpt lat="42.0784966" lon="13.5573661"><ele>764.0</ele><time>2026-05-02T13:42:15.914Z</time></trkpt><trkpt lat="42.0784539" lon="13.5572596"><ele>764.0</ele><time>2026-05-02T13:42:16.913Z</time></trkpt><trkpt lat="42.0784098" lon="13.5571526"><ele>764.0</ele><time>2026-05-02T13:42:17.913Z</time></trkpt><trkpt lat="42.0783658" lon="13.5570606"><ele>764.0</ele><time>2026-05-02T13:42:18.913Z</time></trkpt><trkpt lat="42.0783243" lon="13.5569775"><ele>764.0</ele><time>2026-05-02T13:42:19.913Z</time></trkpt><trkpt lat="42.0782847" lon="13.5568943"><ele>764.0</ele><time>2026-05-02T13:42:20.914Z</time></trkpt><trkpt lat="42.0782483" lon="13.5568062"><ele>764.0</ele><time>2026-05-02T13:42:21.913Z</time></trkpt><trkpt lat="42.0782197" lon="13.5567108"><ele>765.8000000000001</ele><time>2026-05-02T13:42:22.914Z</time></trkpt><trkpt lat="42.0781933" lon="13.5565998"><ele>767.6</ele><time>2026-05-02T13:42:23.914Z</time></trkpt><trkpt lat="42.0781782" lon="13.556484"><ele>769.4</ele><time>2026-05-02T13:42:24.914Z</time></trkpt><trkpt lat="42.0781589" lon="13.5563472"><ele>771.2</ele><time>2026-05-02T13:42:25.913Z</time></trkpt><trkpt lat="42.0781384" lon="13.5562187"><ele>773.0</ele><time>2026-05-02T13:42:26.915Z</time></trkpt><trkpt lat="42.0781208" lon="13.5560882"><ele>773.0</ele><time>2026-05-02T13:42:27.914Z</time></trkpt><trkpt lat="42.0780826" lon="13.5559651"><ele>773.0</ele><time>2026-05-02T13:42:28.913Z</time></trkpt><trkpt lat="42.0780336" lon="13.5558524"><ele>773.0</ele><time>2026-05-02T13:42:29.913Z</time></trkpt><trkpt lat="42.0779706" lon="13.5557336"><ele>773.0</ele><time>2026-05-02T13:42:30.914Z</time></trkpt><trkpt lat="42.0779108" lon="13.5556293"><ele>773.0</ele><time>2026-05-02T13:42:31.914Z</time></trkpt><trkpt lat="42.0778601" lon="13.5555278"><ele>773.0000000000001</ele><time>2026-05-02T13:42:32.915Z</time></trkpt><trkpt lat="42.077822" lon="13.5554176"><ele>773.0</ele><time>2026-05-02T13:42:33.913Z</time></trkpt><trkpt lat="42.0778086" lon="13.5553074"><ele>773.0</ele><time>2026-05-02T13:42:34.914Z</time></trkpt><trkpt lat="42.0778066" lon="13.5551898"><ele>773.0</ele><time>2026-05-02T13:42:35.914Z</time></trkpt><trkpt lat="42.0778182" lon="13.5550801"><ele>773.0000000000001</ele><time>2026-05-02T13:42:36.915Z</time></trkpt><trkpt lat="42.0778254" lon="13.5549707"><ele>773.0</ele><time>2026-05-02T13:42:37.915Z</time></trkpt><trkpt lat="42.0778069" lon="13.5548654"><ele>770.0</ele><time>2026-05-02T13:42:38.914Z</time></trkpt><trkpt lat="42.0777818" lon="13.5547684"><ele>767.0</ele><time>2026-05-02T13:42:39.914Z</time></trkpt><trkpt lat="42.0777371" lon="13.5546701"><ele>764.0</ele><time>2026-05-02T13:42:40.913Z</time></trkpt><trkpt lat="42.0776859" lon="13.5545695"><ele>761.0</ele><time>2026-05-02T13:42:41.914Z</time></trkpt><trkpt lat="42.0776086" lon="13.5544756"><ele>758.0</ele><time>2026-05-02T13:42:42.914Z</time></trkpt><trkpt lat="42.0775325" lon="13.5543918"><ele>758.6666666666666</ele><time>2026-05-02T13:42:43.913Z</time></trkpt><trkpt lat="42.0774477" lon="13.5543182"><ele>759.3333333333333</ele><time>2026-05-02T13:42:44.914Z</time></trkpt><trkpt lat="42.0773747" lon="13.5542526"><ele>760.0</ele><time>2026-05-02T13:42:45.914Z</time></trkpt><trkpt lat="42.0773092" lon="13.5541863"><ele>760.6666666666666</ele><time>2026-05-02T13:42:46.913Z</time></trkpt><trkpt lat="42.0772481" lon="13.5541132"><ele>761.3333333333334</ele><time>2026-05-02T13:42:47.914Z</time></trkpt><trkpt lat="42.0772038" lon="13.5540212"><ele>762.0</ele><time>2026-05-02T13:42:48.914Z</time></trkpt><trkpt lat="42.0771662" lon="13.553913"><ele>762.0</ele><time>2026-05-02T13:42:49.913Z</time></trkpt><trkpt lat="42.0771444" lon="13.5538068"><ele>762.0</ele><time>2026-05-02T13:42:50.913Z</time></trkpt><trkpt lat="42.0771198" lon="13.5537185"><ele>762.0</ele><time>2026-05-02T13:42:51.914Z</time></trkpt><trkpt lat="42.0770944" lon="13.5536269"><ele>762.0</ele><time>2026-05-02T13:42:52.914Z</time></trkpt><trkpt lat="42.0770312" lon="13.5535014"><ele>762.0</ele><time>2026-05-02T13:42:54.913Z</time></trkpt><trkpt lat="42.0770337" lon="13.5534029"><ele>762.0</ele><time>2026-05-02T13:42:56.914Z</time></trkpt><trkpt lat="42.0770948" lon="13.5533616"><ele>759.0</ele><time>2026-05-02T13:42:57.915Z</time></trkpt><trkpt lat="42.0771717" lon="13.5533373"><ele>756.0</ele><time>2026-05-02T13:42:58.914Z</time></trkpt><trkpt lat="42.077261" lon="13.5533126"><ele>753.0</ele><time>2026-05-02T13:42:59.912Z</time></trkpt><trkpt lat="42.0773701" lon="13.553262"><ele>750.0</ele><time>2026-05-02T13:43:00.915Z</time></trkpt><trkpt lat="42.0774532" lon="13.5531851"><ele>747.0</ele><time>2026-05-02T13:43:01.914Z</time></trkpt><trkpt lat="42.0775244" lon="13.5530776"><ele>747.0</ele><time>2026-05-02T13:43:02.914Z</time></trkpt><trkpt lat="42.077564" lon="13.5529449"><ele>747.0</ele><time>2026-05-02T13:43:03.914Z</time></trkpt><trkpt lat="42.0775652" lon="13.5527915"><ele>747.0</ele><time>2026-05-02T13:43:04.914Z</time></trkpt><trkpt lat="42.0775468" lon="13.5526407"><ele>747.0</ele><time>2026-05-02T13:43:05.914Z</time></trkpt><trkpt lat="42.0775109" lon="13.5524783"><ele>747.0</ele><time>2026-05-02T13:43:06.915Z</time></trkpt><trkpt lat="42.0774687" lon="13.5523103"><ele>747.0</ele><time>2026-05-02T13:43:07.914Z</time></trkpt><trkpt lat="42.0774239" lon="13.5521412"><ele>747.0</ele><time>2026-05-02T13:43:08.914Z</time></trkpt><trkpt lat="42.0773743" lon="13.5519577"><ele>747.0</ele><time>2026-05-02T13:43:09.915Z</time></trkpt><trkpt lat="42.0773153" lon="13.5517815"><ele>747.0</ele><time>2026-05-02T13:43:10.914Z</time></trkpt><trkpt lat="42.0772417" lon="13.5516122"><ele>747.0</ele><time>2026-05-02T13:43:11.914Z</time></trkpt><trkpt lat="42.0771564" lon="13.5514614"><ele>747.0</ele><time>2026-05-02T13:43:12.913Z</time></trkpt><trkpt lat="42.0770605" lon="13.5513157"><ele>747.0</ele><time>2026-05-02T13:43:13.915Z</time></trkpt><trkpt lat="42.0769558" lon="13.5511892"><ele>745.8</ele><time>2026-05-02T13:43:14.914Z</time></trkpt><trkpt lat="42.0768511" lon="13.5510994"><ele>744.6</ele><time>2026-05-02T13:43:15.913Z</time></trkpt><trkpt lat="42.0767549" lon="13.5510263"><ele>743.4</ele><time>2026-05-02T13:43:16.914Z</time></trkpt><trkpt lat="42.0766641" lon="13.5509627"><ele>742.1999999999999</ele><time>2026-05-02T13:43:17.914Z</time></trkpt><trkpt lat="42.0766179" lon="13.5508885"><ele>741.0</ele><time>2026-05-02T13:43:18.913Z</time></trkpt><trkpt lat="42.0765739" lon="13.550812"><ele>741.0</ele><time>2026-05-02T13:43:19.915Z</time></trkpt><trkpt lat="42.076571" lon="13.5506843"><ele>741.0</ele><time>2026-05-02T13:43:21.913Z</time></trkpt><trkpt lat="42.0766339" lon="13.5506454"><ele>741.0</ele><time>2026-05-02T13:43:23.914Z</time></trkpt><trkpt lat="42.0767512" lon="13.5506749"><ele>741.0</ele><time>2026-05-02T13:43:25.914Z</time></trkpt><trkpt lat="42.0768345" lon="13.5506765"><ele>741.0</ele><time>2026-05-02T13:43:26.914Z</time></trkpt><trkpt lat="42.0769164" lon="13.550661"><ele>741.0</ele><time>2026-05-02T13:43:27.914Z</time></trkpt><trkpt lat="42.0770039" lon="13.550622"><ele>743.8</ele><time>2026-05-02T13:43:28.914Z</time></trkpt><trkpt lat="42.0770998" lon="13.5505643"><ele>746.5999999999999</ele><time>2026-05-02T13:43:29.913Z</time></trkpt><trkpt lat="42.0771962" lon="13.5505204"><ele>749.4</ele><time>2026-05-02T13:43:30.913Z</time></trkpt><trkpt lat="42.0772982" lon="13.5504748"><ele>752.2</ele><time>2026-05-02T13:43:31.914Z</time></trkpt><trkpt lat="42.0774107" lon="13.5504274"><ele>755.0</ele><time>2026-05-02T13:43:32.913Z</time></trkpt><trkpt lat="42.0775298" lon="13.5503868"><ele>757.0</ele><time>2026-05-02T13:43:33.914Z</time></trkpt><trkpt lat="42.0776502" lon="13.5503384"><ele>759.0</ele><time>2026-05-02T13:43:34.913Z</time></trkpt><trkpt lat="42.0777667" lon="13.5502814"><ele>761.0</ele><time>2026-05-02T13:43:35.914Z</time></trkpt><trkpt lat="42.0778769" lon="13.5502294"><ele>763.0</ele><time>2026-05-02T13:43:36.914Z</time></trkpt><trkpt lat="42.0779942" lon="13.5501772"><ele>763.0</ele><time>2026-05-02T13:43:37.914Z</time></trkpt><trkpt lat="42.0781085" lon="13.550131"><ele>763.0</ele><time>2026-05-02T13:43:38.913Z</time></trkpt><trkpt lat="42.078224" lon="13.550084"><ele>763.0</ele><time>2026-05-02T13:43:39.913Z</time></trkpt><trkpt lat="42.0783384" lon="13.550037"><ele>763.0</ele><time>2026-05-02T13:43:40.914Z</time></trkpt><trkpt lat="42.0784593" lon="13.5499838"><ele>766.5</ele><time>2026-05-02T13:43:41.913Z</time></trkpt><trkpt lat="42.0785728" lon="13.5499353"><ele>770.0</ele><time>2026-05-02T13:43:42.914Z</time></trkpt><trkpt lat="42.0786861" lon="13.5498878"><ele>773.5</ele><time>2026-05-02T13:43:43.914Z</time></trkpt><trkpt lat="42.0788056" lon="13.5498366"><ele>777.0</ele><time>2026-05-02T13:43:44.914Z</time></trkpt><trkpt lat="42.0789168" lon="13.5497939"><ele>777.0</ele><time>2026-05-02T13:43:45.914Z</time></trkpt><trkpt lat="42.0790238" lon="13.5497509"><ele>777.0</ele><time>2026-05-02T13:43:46.914Z</time></trkpt><trkpt lat="42.0791271" lon="13.5497115"><ele>777.0</ele><time>2026-05-02T13:43:47.914Z</time></trkpt><trkpt lat="42.0792312" lon="13.5496612"><ele>777.0</ele><time>2026-05-02T13:43:48.913Z</time></trkpt><trkpt lat="42.0793237" lon="13.549613"><ele>777.0</ele><time>2026-05-02T13:43:49.914Z</time></trkpt><trkpt lat="42.0793931" lon="13.5495707"><ele>777.5</ele><time>2026-05-02T13:43:50.912Z</time></trkpt><trkpt lat="42.0794972" lon="13.5495149"><ele>778.0</ele><time>2026-05-02T13:43:52.914Z</time></trkpt><trkpt lat="42.0795598" lon="13.549502"><ele>778.5</ele><time>2026-05-02T13:43:54.914Z</time></trkpt><trkpt lat="42.0796534" lon="13.5494726"><ele>779.0</ele><time>2026-05-02T13:43:56.914Z</time></trkpt><trkpt lat="42.0797107" lon="13.5494332"><ele>779.5</ele><time>2026-05-02T13:43:57.914Z</time></trkpt><trkpt lat="42.0797704" lon="13.5493781"><ele>780.0</ele><time>2026-05-02T13:43:58.914Z</time></trkpt><trkpt lat="42.0798375" lon="13.5493232"><ele>780.0</ele><time>2026-05-02T13:43:59.915Z</time></trkpt><trkpt lat="42.0798992" lon="13.5492644"><ele>780.0</ele><time>2026-05-02T13:44:00.913Z</time></trkpt><trkpt lat="42.0799617" lon="13.5491987"><ele>780.0</ele><time>2026-05-02T13:44:01.914Z</time></trkpt><trkpt lat="42.0800288" lon="13.5491239"><ele>780.0</ele><time>2026-05-02T13:44:02.914Z</time></trkpt><trkpt lat="42.0800958" lon="13.549055"><ele>780.0</ele><time>2026-05-02T13:44:03.913Z</time></trkpt><trkpt lat="42.0801593" lon="13.5489871"><ele>780.0</ele><time>2026-05-02T13:44:04.913Z</time></trkpt><trkpt lat="42.0802187" lon="13.5489192"><ele>779.8333333333334</ele><time>2026-05-02T13:44:05.915Z</time></trkpt><trkpt lat="42.0802789" lon="13.5488493"><ele>779.6666666666667</ele><time>2026-05-02T13:44:06.913Z</time></trkpt><trkpt lat="42.0803408" lon="13.5487848"><ele>779.5</ele><time>2026-05-02T13:44:07.913Z</time></trkpt><trkpt lat="42.0804066" lon="13.5487128"><ele>779.3333333333334</ele><time>2026-05-02T13:44:08.913Z</time></trkpt><trkpt lat="42.0804691" lon="13.5486446"><ele>779.1666666666667</ele><time>2026-05-02T13:44:09.913Z</time></trkpt><trkpt lat="42.080535" lon="13.5485805"><ele>779.0</ele><time>2026-05-02T13:44:10.914Z</time></trkpt><trkpt lat="42.0805986" lon="13.5485124"><ele>779.0000000000001</ele><time>2026-05-02T13:44:11.913Z</time></trkpt><trkpt lat="42.0806613" lon="13.5484442"><ele>779.0</ele><time>2026-05-02T13:44:12.912Z</time></trkpt><trkpt lat="42.0807223" lon="13.5483752"><ele>779.0</ele><time>2026-05-02T13:44:13.914Z</time></trkpt><trkpt lat="42.080784" lon="13.5483056"><ele>779.0</ele><time>2026-05-02T13:44:14.915Z</time></trkpt><trkpt lat="42.0808477" lon="13.5482428"><ele>779.0000000000001</ele><time>2026-05-02T13:44:15.913Z</time></trkpt><trkpt lat="42.080907" lon="13.5481782"><ele>779.0</ele><time>2026-05-02T13:44:16.914Z</time></trkpt><trkpt lat="42.0809625" lon="13.5481145"><ele>780.0000000000001</ele><time>2026-05-02T13:44:17.913Z</time></trkpt><trkpt lat="42.0810168" lon="13.5480512"><ele>781.0</ele><time>2026-05-02T13:44:18.913Z</time></trkpt><trkpt lat="42.0810674" lon="13.5479932"><ele>782.0</ele><time>2026-05-02T13:44:19.914Z</time></trkpt><trkpt lat="42.0811249" lon="13.5479269"><ele>783.0</ele><time>2026-05-02T13:44:21.912Z</time></trkpt><trkpt lat="42.0811907" lon="13.5478817"><ele>784.0000000000001</ele><time>2026-05-02T13:44:26.914Z</time></trkpt><trkpt lat="42.0812594" lon="13.5478045"><ele>785.0</ele><time>2026-05-02T13:44:28.913Z</time></trkpt><trkpt lat="42.0813484" lon="13.5477015"><ele>783.2857142857143</ele><time>2026-05-02T13:44:30.913Z</time></trkpt><trkpt lat="42.0813999" lon="13.5476431"><ele>781.5714285714286</ele><time>2026-05-02T13:44:31.912Z</time></trkpt><trkpt lat="42.0814568" lon="13.5475849"><ele>779.8571428571429</ele><time>2026-05-02T13:44:32.915Z</time></trkpt><trkpt lat="42.0815152" lon="13.5475352"><ele>778.1428571428571</ele><time>2026-05-02T13:44:33.915Z</time></trkpt><trkpt lat="42.0815812" lon="13.5474875"><ele>776.4285714285713</ele><time>2026-05-02T13:44:34.915Z</time></trkpt><trkpt lat="42.0816495" lon="13.5474473"><ele>774.7142857142857</ele><time>2026-05-02T13:44:35.915Z</time></trkpt><trkpt lat="42.0817205" lon="13.5474053"><ele>773.0</ele><time>2026-05-02T13:44:36.915Z</time></trkpt><trkpt lat="42.0817938" lon="13.5473699"><ele>773.0</ele><time>2026-05-02T13:44:37.913Z</time></trkpt><trkpt lat="42.0818626" lon="13.547338"><ele>773.0</ele><time>2026-05-02T13:44:38.914Z</time></trkpt><trkpt lat="42.081928" lon="13.5473101"><ele>773.0</ele><time>2026-05-02T13:44:39.913Z</time></trkpt><trkpt lat="42.0819911" lon="13.5472833"><ele>773.0</ele><time>2026-05-02T13:44:40.913Z</time></trkpt><trkpt lat="42.0820536" lon="13.5472591"><ele>773.0</ele><time>2026-05-02T13:44:41.914Z</time></trkpt><trkpt lat="42.0821179" lon="13.5472221"><ele>773.0</ele><time>2026-05-02T13:44:42.912Z</time></trkpt><trkpt lat="42.08218" lon="13.5471719"><ele>773.0</ele><time>2026-05-02T13:44:43.913Z</time></trkpt><trkpt lat="42.0822357" lon="13.5470964"><ele>773.4285714285714</ele><time>2026-05-02T13:44:44.914Z</time></trkpt><trkpt lat="42.0822797" lon="13.5470226"><ele>773.8571428571429</ele><time>2026-05-02T13:44:45.913Z</time></trkpt><trkpt lat="42.082318" lon="13.5469383"><ele>774.2857142857142</ele><time>2026-05-02T13:44:46.913Z</time></trkpt><trkpt lat="42.0823527" lon="13.5468503"><ele>774.7142857142858</ele><time>2026-05-02T13:44:47.913Z</time></trkpt><trkpt lat="42.0823804" lon="13.546761"><ele>775.1428571428572</ele><time>2026-05-02T13:44:48.913Z</time></trkpt><trkpt lat="42.0824091" lon="13.546671"><ele>775.5714285714286</ele><time>2026-05-02T13:44:49.914Z</time></trkpt><trkpt lat="42.0824355" lon="13.5465817"><ele>776.0</ele><time>2026-05-02T13:44:50.914Z</time></trkpt><trkpt lat="42.0824554" lon="13.5464863"><ele>776.0000000000001</ele><time>2026-05-02T13:44:51.914Z</time></trkpt><trkpt lat="42.0824833" lon="13.5463859"><ele>776.0</ele><time>2026-05-02T13:44:52.912Z</time></trkpt><trkpt lat="42.0825039" lon="13.5462933"><ele>776.0</ele><time>2026-05-02T13:44:53.912Z</time></trkpt><trkpt lat="42.0825257" lon="13.5462016"><ele>776.0</ele><time>2026-05-02T13:44:54.913Z</time></trkpt><trkpt lat="42.0825398" lon="13.5461054"><ele>776.0000000000001</ele><time>2026-05-02T13:44:55.914Z</time></trkpt><trkpt lat="42.0825516" lon="13.5460034"><ele>776.0</ele><time>2026-05-02T13:44:56.914Z</time></trkpt><trkpt lat="42.082555" lon="13.5458796"><ele>774.8</ele><time>2026-05-02T13:44:57.913Z</time></trkpt><trkpt lat="42.0825607" lon="13.5457582"><ele>773.5999999999999</ele><time>2026-05-02T13:44:58.914Z</time></trkpt><trkpt lat="42.082566" lon="13.5456404"><ele>772.4</ele><time>2026-05-02T13:44:59.912Z</time></trkpt><trkpt lat="42.0825634" lon="13.545519"><ele>771.2</ele><time>2026-05-02T13:45:00.915Z</time></trkpt><trkpt lat="42.0825531" lon="13.5453956"><ele>770.0</ele><time>2026-05-02T13:45:01.915Z</time></trkpt><trkpt lat="42.0825317" lon="13.5452775"><ele>769.6</ele><time>2026-05-02T13:45:02.912Z</time></trkpt><trkpt lat="42.0825096" lon="13.5451535"><ele>769.2</ele><time>2026-05-02T13:45:03.914Z</time></trkpt><trkpt lat="42.0824856" lon="13.5450332"><ele>768.8</ele><time>2026-05-02T13:45:04.913Z</time></trkpt><trkpt lat="42.082469" lon="13.5449121"><ele>768.4</ele><time>2026-05-02T13:45:05.913Z</time></trkpt><trkpt lat="42.0824521" lon="13.544786"><ele>768.0</ele><time>2026-05-02T13:45:06.913Z</time></trkpt><trkpt lat="42.0824325" lon="13.5446573"><ele>765.2</ele><time>2026-05-02T13:45:07.913Z</time></trkpt><trkpt lat="42.082408" lon="13.5445262"><ele>762.4</ele><time>2026-05-02T13:45:08.915Z</time></trkpt><trkpt lat="42.0823893" lon="13.5443959"><ele>759.6</ele><time>2026-05-02T13:45:09.914Z</time></trkpt><trkpt lat="42.0823806" lon="13.5442736"><ele>756.8000000000001</ele><time>2026-05-02T13:45:10.915Z</time></trkpt><trkpt lat="42.0823765" lon="13.5441525"><ele>754.0</ele><time>2026-05-02T13:45:11.913Z</time></trkpt><trkpt lat="42.0823796" lon="13.5440357"><ele>754.0</ele><time>2026-05-02T13:45:12.914Z</time></trkpt><trkpt lat="42.0823853" lon="13.5439275"><ele>754.0</ele><time>2026-05-02T13:45:13.914Z</time></trkpt><trkpt lat="42.0823893" lon="13.5438243"><ele>754.0</ele><time>2026-05-02T13:45:14.915Z</time></trkpt><trkpt lat="42.0823703" lon="13.543681"><ele>754.0</ele><time>2026-05-02T13:45:16.914Z</time></trkpt><trkpt lat="42.082338" lon="13.5435938"><ele>754.0</ele><time>2026-05-02T13:45:18.914Z</time></trkpt><trkpt lat="42.0822397" lon="13.543525"><ele>754.0</ele><time>2026-05-02T13:45:21.914Z</time></trkpt><trkpt lat="42.0821709" lon="13.5435262"><ele>753.5</ele><time>2026-05-02T13:45:22.912Z</time></trkpt><trkpt lat="42.0821011" lon="13.5435231"><ele>753.0</ele><time>2026-05-02T13:45:23.914Z</time></trkpt><trkpt lat="42.082033" lon="13.543517"><ele>752.5</ele><time>2026-05-02T13:45:24.913Z</time></trkpt><trkpt lat="42.0819668" lon="13.5435144"><ele>752.0</ele><time>2026-05-02T13:45:25.914Z</time></trkpt><trkpt lat="42.0818369" lon="13.5435023"><ele>751.5</ele><time>2026-05-02T13:45:27.913Z</time></trkpt><trkpt lat="42.0817542" lon="13.5434981"><ele>751.0</ele><time>2026-05-02T13:45:28.914Z</time></trkpt><trkpt lat="42.0816603" lon="13.5434955"><ele>750.3333333333334</ele><time>2026-05-02T13:45:29.913Z</time></trkpt><trkpt lat="42.0815733" lon="13.5434947"><ele>749.6666666666667</ele><time>2026-05-02T13:45:30.914Z</time></trkpt><trkpt lat="42.081489" lon="13.543495"><ele>749.0</ele><time>2026-05-02T13:45:31.914Z</time></trkpt><trkpt lat="42.0814112" lon="13.5434898"><ele>748.3333333333334</ele><time>2026-05-02T13:45:32.914Z</time></trkpt><trkpt lat="42.0813352" lon="13.5434886"><ele>747.6666666666666</ele><time>2026-05-02T13:45:33.913Z</time></trkpt><trkpt lat="42.0812654" lon="13.5434867"><ele>747.0</ele><time>2026-05-02T13:45:34.913Z</time></trkpt><trkpt lat="42.081198" lon="13.5434801"><ele>747.0</ele><time>2026-05-02T13:45:35.914Z</time></trkpt><trkpt lat="42.0811302" lon="13.54347"><ele>747.0</ele><time>2026-05-02T13:45:36.913Z</time></trkpt><trkpt lat="42.0810443" lon="13.5434729"><ele>747.0</ele><time>2026-05-02T13:45:37.914Z</time></trkpt><trkpt lat="42.0809565" lon="13.543482"><ele>747.0</ele><time>2026-05-02T13:45:38.914Z</time></trkpt><trkpt lat="42.080872" lon="13.5434845"><ele>747.0</ele><time>2026-05-02T13:45:39.913Z</time></trkpt><trkpt lat="42.0807933" lon="13.5434898"><ele>747.0</ele><time>2026-05-02T13:45:40.913Z</time></trkpt><trkpt lat="42.0807013" lon="13.5435041"><ele>746.5</ele><time>2026-05-02T13:45:41.913Z</time></trkpt><trkpt lat="42.0806032" lon="13.5435099"><ele>746.0</ele><time>2026-05-02T13:45:42.914Z</time></trkpt><trkpt lat="42.0805116" lon="13.5435151"><ele>745.5</ele><time>2026-05-02T13:45:43.912Z</time></trkpt><trkpt lat="42.0804291" lon="13.543508"><ele>745.0</ele><time>2026-05-02T13:45:44.912Z</time></trkpt><trkpt lat="42.0803555" lon="13.5435084"><ele>744.5</ele><time>2026-05-02T13:45:45.913Z</time></trkpt><trkpt lat="42.0802795" lon="13.5435105"><ele>744.0</ele><time>2026-05-02T13:45:46.915Z</time></trkpt><trkpt lat="42.0802057" lon="13.5435057"><ele>744.0</ele><time>2026-05-02T13:45:47.914Z</time></trkpt><trkpt lat="42.0801202" lon="13.5435027"><ele>744.0</ele><time>2026-05-02T13:45:48.914Z</time></trkpt><trkpt lat="42.0800354" lon="13.5434965"><ele>744.0</ele><time>2026-05-02T13:45:49.914Z</time></trkpt><trkpt lat="42.0799602" lon="13.5434979"><ele>744.0</ele><time>2026-05-02T13:45:50.913Z</time></trkpt><trkpt lat="42.0798971" lon="13.5435"><ele>744.0</ele><time>2026-05-02T13:45:51.913Z</time></trkpt><trkpt lat="42.0798072" lon="13.5434415"><ele>744.0</ele><time>2026-05-02T13:45:53.913Z</time></trkpt><trkpt lat="42.0797405" lon="13.5432914"><ele>743.5</ele><time>2026-05-02T13:45:55.913Z</time></trkpt><trkpt lat="42.079708" lon="13.5431829"><ele>743.0</ele><time>2026-05-02T13:45:56.912Z</time></trkpt><trkpt lat="42.0796727" lon="13.5430864"><ele>742.5</ele><time>2026-05-02T13:45:57.914Z</time></trkpt><trkpt lat="42.0796427" lon="13.5430092"><ele>742.0</ele><time>2026-05-02T13:45:58.913Z</time></trkpt><trkpt lat="42.0795992" lon="13.5429478"><ele>741.5</ele><time>2026-05-02T13:45:59.914Z</time></trkpt><trkpt lat="42.0795403" lon="13.5428924"><ele>741.0</ele><time>2026-05-02T13:46:00.915Z</time></trkpt><trkpt lat="42.079458" lon="13.542865"><ele>741.0</ele><time>2026-05-02T13:46:01.914Z</time></trkpt><trkpt lat="42.0793701" lon="13.5428364"><ele>741.0</ele><time>2026-05-02T13:46:02.914Z</time></trkpt><trkpt lat="42.0792685" lon="13.5428089"><ele>741.0</ele><time>2026-05-02T13:46:03.913Z</time></trkpt><trkpt lat="42.0791741" lon="13.5427772"><ele>741.0</ele><time>2026-05-02T13:46:04.913Z</time></trkpt><trkpt lat="42.0790828" lon="13.5427426"><ele>741.0</ele><time>2026-05-02T13:46:05.915Z</time></trkpt><trkpt lat="42.0790072" lon="13.5426827"><ele>740.4</ele><time>2026-05-02T13:46:06.914Z</time></trkpt><trkpt lat="42.0789309" lon="13.542614"><ele>739.8</ele><time>2026-05-02T13:46:07.914Z</time></trkpt><trkpt lat="42.0788635" lon="13.5425367"><ele>739.1999999999999</ele><time>2026-05-02T13:46:08.915Z</time></trkpt><trkpt lat="42.0787988" lon="13.5424562"><ele>738.5999999999999</ele><time>2026-05-02T13:46:09.914Z</time></trkpt><trkpt lat="42.0787341" lon="13.5423686"><ele>738.0</ele><time>2026-05-02T13:46:10.913Z</time></trkpt><trkpt lat="42.0786671" lon="13.5422852"><ele>738.0</ele><time>2026-05-02T13:46:11.915Z</time></trkpt><trkpt lat="42.078598" lon="13.542202"><ele>738.0</ele><time>2026-05-02T13:46:12.914Z</time></trkpt><trkpt lat="42.0785297" lon="13.5421218"><ele>738.0</ele><time>2026-05-02T13:46:13.913Z</time></trkpt><trkpt lat="42.0784693" lon="13.542047"><ele>738.0</ele><time>2026-05-02T13:46:14.915Z</time></trkpt><trkpt lat="42.0784143" lon="13.5419751"><ele>738.0</ele><time>2026-05-02T13:46:15.914Z</time></trkpt><trkpt lat="42.078363" lon="13.5418913"><ele>738.0</ele><time>2026-05-02T13:46:16.913Z</time></trkpt><trkpt lat="42.0783322" lon="13.5418173"><ele>738.4</ele><time>2026-05-02T13:46:17.914Z</time></trkpt><trkpt lat="42.0783453" lon="13.5416984"><ele>738.8</ele><time>2026-05-02T13:46:19.914Z</time></trkpt><trkpt lat="42.0784211" lon="13.541595"><ele>739.2</ele><time>2026-05-02T13:46:21.913Z</time></trkpt><trkpt lat="42.0784055" lon="13.5414475"><ele>739.6</ele><time>2026-05-02T13:46:23.914Z</time></trkpt><trkpt lat="42.0783661" lon="13.5413803"><ele>740.0</ele><time>2026-05-02T13:46:24.914Z</time></trkpt><trkpt lat="42.0783386" lon="13.5412483"><ele>740.3333333333333</ele><time>2026-05-02T13:46:26.913Z</time></trkpt><trkpt lat="42.0783882" lon="13.5411484"><ele>740.6666666666666</ele><time>2026-05-02T13:46:28.914Z</time></trkpt><trkpt lat="42.0783992" lon="13.5410432"><ele>741.0</ele><time>2026-05-02T13:46:30.914Z</time></trkpt><trkpt lat="42.0783391" lon="13.5409271"><ele>741.3333333333334</ele><time>2026-05-02T13:46:32.914Z</time></trkpt><trkpt lat="42.0783052" lon="13.5408419"><ele>741.6666666666667</ele><time>2026-05-02T13:46:33.915Z</time></trkpt><trkpt lat="42.078261" lon="13.5407569"><ele>742.0</ele><time>2026-05-02T13:46:34.913Z</time></trkpt><trkpt lat="42.0782189" lon="13.540661"><ele>740.5</ele><time>2026-05-02T13:46:35.913Z</time></trkpt><trkpt lat="42.0781558" lon="13.5405711"><ele>739.0</ele><time>2026-05-02T13:46:36.912Z</time></trkpt><trkpt lat="42.078103" lon="13.5404724"><ele>737.5</ele><time>2026-05-02T13:46:37.915Z</time></trkpt><trkpt lat="42.0780595" lon="13.5403914"><ele>736.0</ele><time>2026-05-02T13:46:38.913Z</time></trkpt><trkpt lat="42.0780153" lon="13.5403203"><ele>734.5</ele><time>2026-05-02T13:46:39.913Z</time></trkpt><trkpt lat="42.0779952" lon="13.5401921"><ele>733.0</ele><time>2026-05-02T13:46:41.913Z</time></trkpt><trkpt lat="42.0780555" lon="13.5400806"><ele>733.0</ele><time>2026-05-02T13:46:43.914Z</time></trkpt><trkpt lat="42.0781165" lon="13.5400211"><ele>733.0</ele><time>2026-05-02T13:46:44.914Z</time></trkpt><trkpt lat="42.0781717" lon="13.5399748"><ele>733.0</ele><time>2026-05-02T13:46:45.913Z</time></trkpt><trkpt lat="42.0782598" lon="13.5399063"><ele>733.0</ele><time>2026-05-02T13:46:47.914Z</time></trkpt><trkpt lat="42.0783339" lon="13.5399482"><ele>733.0</ele><time>2026-05-02T13:46:50.914Z</time></trkpt><trkpt lat="42.0783936" lon="13.5399954"><ele>733.0</ele><time>2026-05-02T13:46:52.914Z</time></trkpt><trkpt lat="42.078508" lon="13.5399998"><ele>734.4285714285713</ele><time>2026-05-02T13:46:54.913Z</time></trkpt><trkpt lat="42.0785764" lon="13.5400072"><ele>735.8571428571429</ele><time>2026-05-02T13:46:55.913Z</time></trkpt><trkpt lat="42.0786524" lon="13.5399984"><ele>737.2857142857142</ele><time>2026-05-02T13:46:56.915Z</time></trkpt><trkpt lat="42.0787232" lon="13.5399966"><ele>738.7142857142857</ele><time>2026-05-02T13:46:57.913Z</time></trkpt><trkpt lat="42.0787964" lon="13.5399917"><ele>740.1428571428571</ele><time>2026-05-02T13:46:58.913Z</time></trkpt><trkpt lat="42.0788718" lon="13.5399858"><ele>741.5714285714286</ele><time>2026-05-02T13:46:59.914Z</time></trkpt><trkpt lat="42.0789454" lon="13.5399798"><ele>743.0</ele><time>2026-05-02T13:47:00.913Z</time></trkpt><trkpt lat="42.0790464" lon="13.5399741"><ele>743.4</ele><time>2026-05-02T13:47:02.914Z</time></trkpt><trkpt lat="42.0791051" lon="13.5400453"><ele>743.8</ele><time>2026-05-02T13:47:05.914Z</time></trkpt><trkpt lat="42.0791452" lon="13.5401892"><ele>744.2</ele><time>2026-05-02T13:47:07.914Z</time></trkpt><trkpt lat="42.0791804" lon="13.5402675"><ele>744.6</ele><time>2026-05-02T13:47:08.914Z</time></trkpt><trkpt lat="42.0792571" lon="13.5403543"><ele>745.0</ele><time>2026-05-02T13:47:10.913Z</time></trkpt><trkpt lat="42.079374" lon="13.5403432"><ele>745.0</ele><time>2026-05-02T13:47:12.914Z</time></trkpt><trkpt lat="42.0794667" lon="13.5403172"><ele>745.0</ele><time>2026-05-02T13:47:14.913Z</time></trkpt><trkpt lat="42.0795357" lon="13.5402899"><ele>745.0</ele><time>2026-05-02T13:47:17.913Z</time></trkpt><trkpt lat="42.0795685" lon="13.5402049"><ele>745.0</ele><time>2026-05-02T13:47:20.913Z</time></trkpt><trkpt lat="42.0795613" lon="13.5401049"><ele>745.0</ele><time>2026-05-02T13:47:21.913Z</time></trkpt><trkpt lat="42.0795398" lon="13.5399981"><ele>745.0</ele><time>2026-05-02T13:47:22.914Z</time></trkpt><trkpt lat="42.0794999" lon="13.5398715"><ele>745.0</ele><time>2026-05-02T13:47:23.913Z</time></trkpt><trkpt lat="42.0794489" lon="13.5397564"><ele>745.0</ele><time>2026-05-02T13:47:24.913Z</time></trkpt><trkpt lat="42.079395" lon="13.5396586"><ele>745.0</ele><time>2026-05-02T13:47:25.913Z</time></trkpt><trkpt lat="42.0793533" lon="13.5395667"><ele>745.0</ele><time>2026-05-02T13:47:26.913Z</time></trkpt><trkpt lat="42.0793089" lon="13.5394846"><ele>745.0</ele><time>2026-05-02T13:47:27.914Z</time></trkpt><trkpt lat="42.0792636" lon="13.5394093"><ele>745.0</ele><time>2026-05-02T13:47:28.913Z</time></trkpt><trkpt lat="42.0792156" lon="13.5392962"><ele>745.0</ele><time>2026-05-02T13:47:30.913Z</time></trkpt><trkpt lat="42.0791814" lon="13.5392183"><ele>745.0</ele><time>2026-05-02T13:47:32.914Z</time></trkpt><trkpt lat="42.0791351" lon="13.5392995"><ele>745.0</ele><time>2026-05-02T13:47:45.913Z</time></trkpt><trkpt lat="42.0791924" lon="13.5393755"><ele>745.0</ele><time>2026-05-02T13:47:46.914Z</time></trkpt><trkpt lat="42.0792476" lon="13.5394555"><ele>745.0</ele><time>2026-05-02T13:47:47.913Z</time></trkpt><trkpt lat="42.0793129" lon="13.5395649"><ele>745.0</ele><time>2026-05-02T13:47:48.912Z</time></trkpt><trkpt lat="42.079382" lon="13.5396853"><ele>745.0</ele><time>2026-05-02T13:47:49.912Z</time></trkpt><trkpt lat="42.0794468" lon="13.5398235"><ele>745.0</ele><time>2026-05-02T13:47:50.913Z</time></trkpt><trkpt lat="42.0794949" lon="13.5399777"><ele>745.0</ele><time>2026-05-02T13:47:51.913Z</time></trkpt><trkpt lat="42.0795308" lon="13.5401496"><ele>745.0</ele><time>2026-05-02T13:47:52.914Z</time></trkpt><trkpt lat="42.079558" lon="13.5403181"><ele>744.5</ele><time>2026-05-02T13:47:53.913Z</time></trkpt><trkpt lat="42.0795951" lon="13.5404886"><ele>744.0</ele><time>2026-05-02T13:47:54.913Z</time></trkpt><trkpt lat="42.0796434" lon="13.5406426"><ele>743.5</ele><time>2026-05-02T13:47:55.912Z</time></trkpt><trkpt lat="42.0797002" lon="13.5407757"><ele>743.0</ele><time>2026-05-02T13:47:56.913Z</time></trkpt><trkpt lat="42.0797753" lon="13.5408839"><ele>743.0</ele><time>2026-05-02T13:47:57.915Z</time></trkpt><trkpt lat="42.0798694" lon="13.5409656"><ele>743.0</ele><time>2026-05-02T13:47:58.914Z</time></trkpt><trkpt lat="42.0799674" lon="13.5410177"><ele>743.0</ele><time>2026-05-02T13:47:59.913Z</time></trkpt><trkpt lat="42.0800663" lon="13.5410433"><ele>743.0</ele><time>2026-05-02T13:48:00.914Z</time></trkpt><trkpt lat="42.0801645" lon="13.5410575"><ele>743.0</ele><time>2026-05-02T13:48:01.915Z</time></trkpt><trkpt lat="42.0802575" lon="13.5410666"><ele>743.25</ele><time>2026-05-02T13:48:02.913Z</time></trkpt><trkpt lat="42.0803673" lon="13.5410622"><ele>743.5</ele><time>2026-05-02T13:48:03.913Z</time></trkpt><trkpt lat="42.080493" lon="13.5410566"><ele>743.75</ele><time>2026-05-02T13:48:04.913Z</time></trkpt><trkpt lat="42.0806237" lon="13.5410522"><ele>744.0</ele><time>2026-05-02T13:48:05.914Z</time></trkpt><trkpt lat="42.080761" lon="13.5410489"><ele>744.25</ele><time>2026-05-02T13:48:06.912Z</time></trkpt><trkpt lat="42.080905" lon="13.541042"><ele>744.5</ele><time>2026-05-02T13:48:07.913Z</time></trkpt><trkpt lat="42.0810433" lon="13.5410432"><ele>744.75</ele><time>2026-05-02T13:48:08.913Z</time></trkpt><trkpt lat="42.0811779" lon="13.5410478"><ele>745.0</ele><time>2026-05-02T13:48:09.913Z</time></trkpt><trkpt lat="42.0813062" lon="13.5410603"><ele>745.0</ele><time>2026-05-02T13:48:10.913Z</time></trkpt><trkpt lat="42.0814314" lon="13.5410764"><ele>745.0</ele><time>2026-05-02T13:48:11.914Z</time></trkpt><trkpt lat="42.081544" lon="13.5411008"><ele>745.0</ele><time>2026-05-02T13:48:12.913Z</time></trkpt><trkpt lat="42.0816507" lon="13.5411381"><ele>745.0</ele><time>2026-05-02T13:48:13.914Z</time></trkpt><trkpt lat="42.0817474" lon="13.541173"><ele>745.1666666666667</ele><time>2026-05-02T13:48:14.913Z</time></trkpt><trkpt lat="42.0818271" lon="13.5412387"><ele>745.3333333333334</ele><time>2026-05-02T13:48:15.914Z</time></trkpt><trkpt lat="42.0818942" lon="13.5413092"><ele>745.5</ele><time>2026-05-02T13:48:16.913Z</time></trkpt><trkpt lat="42.0819486" lon="13.5413725"><ele>745.6666666666666</ele><time>2026-05-02T13:48:17.914Z</time></trkpt><trkpt lat="42.0820398" lon="13.5414691"><ele>745.8333333333333</ele><time>2026-05-02T13:48:19.912Z</time></trkpt><trkpt lat="42.0821164" lon="13.5414994"><ele>746.0</ele><time>2026-05-02T13:48:21.913Z</time></trkpt><trkpt lat="42.0821892" lon="13.5415974"><ele>746.0</ele><time>2026-05-02T13:48:25.913Z</time></trkpt><trkpt lat="42.0822518" lon="13.5415858"><ele>746.0</ele><time>2026-05-02T13:48:28.913Z</time></trkpt><trkpt lat="42.0822182" lon="13.5414961"><ele>746.0</ele><time>2026-05-02T13:48:31.913Z</time></trkpt><trkpt lat="42.0821843" lon="13.541416"><ele>746.0</ele><time>2026-05-02T13:48:43.914Z</time></trkpt><trkpt lat="42.0823363" lon="13.5414763"><ele>746.0</ele><time>2026-05-02T13:53:24.912Z</time></trkpt><trkpt lat="42.0823739" lon="13.5413253"><ele>746.0</ele><time>2026-05-02T14:01:01.912Z</time></trkpt><trkpt lat="42.0823574" lon="13.5411951"><ele>746.0</ele><time>2026-05-02T14:01:03.912Z</time></trkpt><trkpt lat="42.0823201" lon="13.5411086"><ele>746.0</ele><time>2026-05-02T14:01:05.912Z</time></trkpt><trkpt lat="42.0822554" lon="13.5411287"><ele>746.0</ele><time>2026-05-02T14:01:07.912Z</time></trkpt><trkpt lat="42.0822101" lon="13.5412369"><ele>746.0</ele><time>2026-05-02T14:01:09.913Z</time></trkpt><trkpt lat="42.0821955" lon="13.5413346"><ele>746.0</ele><time>2026-05-02T14:01:11.911Z</time></trkpt><trkpt lat="42.0821488" lon="13.5413945"><ele>746.0</ele><time>2026-05-02T14:01:13.912Z</time></trkpt><trkpt lat="42.082071" lon="13.5415178"><ele>746.0</ele><time>2026-05-02T14:01:26.912Z</time></trkpt><trkpt lat="42.082096" lon="13.5416141"><ele>746.0</ele><time>2026-05-02T14:01:28.912Z</time></trkpt><trkpt lat="42.0821645" lon="13.5417538"><ele>746.0</ele><time>2026-05-02T14:01:30.911Z</time></trkpt><trkpt lat="42.0822108" lon="13.5418426"><ele>746.0</ele><time>2026-05-02T14:01:31.918Z</time></trkpt><trkpt lat="42.0822602" lon="13.5419425"><ele>746.1999999999999</ele><time>2026-05-02T14:01:32.917Z</time></trkpt><trkpt lat="42.0823102" lon="13.5420538"><ele>746.4</ele><time>2026-05-02T14:01:33.913Z</time></trkpt><trkpt lat="42.0823608" lon="13.5421772"><ele>746.6</ele><time>2026-05-02T14:01:34.913Z</time></trkpt><trkpt lat="42.0824157" lon="13.5422929"><ele>746.8</ele><time>2026-05-02T14:01:35.914Z</time></trkpt><trkpt lat="42.0824615" lon="13.542393"><ele>747.0</ele><time>2026-05-02T14:01:36.912Z</time></trkpt><trkpt lat="42.0825051" lon="13.5425144"><ele>748.0</ele><time>2026-05-02T14:01:38.914Z</time></trkpt><trkpt lat="42.0825362" lon="13.5425895"><ele>749.0</ele><time>2026-05-02T14:01:41.914Z</time></trkpt><trkpt lat="42.0826413" lon="13.5426388"><ele>750.0</ele><time>2026-05-02T14:01:54.912Z</time></trkpt><trkpt lat="42.0827113" lon="13.5426267"><ele>751.0</ele><time>2026-05-02T14:01:55.912Z</time></trkpt><trkpt lat="42.0827632" lon="13.5425276"><ele>752.0</ele><time>2026-05-02T14:01:56.913Z</time></trkpt><trkpt lat="42.0828077" lon="13.5424306"><ele>753.0</ele><time>2026-05-02T14:01:57.914Z</time></trkpt><trkpt lat="42.0828475" lon="13.5423372"><ele>753.0</ele><time>2026-05-02T14:01:58.912Z</time></trkpt><trkpt lat="42.0828842" lon="13.5422609"><ele>753.0</ele><time>2026-05-02T14:01:59.911Z</time></trkpt><trkpt lat="42.082935" lon="13.5421093"><ele>753.0</ele><time>2026-05-02T14:02:01.911Z</time></trkpt><trkpt lat="42.0829885" lon="13.541983"><ele>753.0</ele><time>2026-05-02T14:02:03.911Z</time></trkpt><trkpt lat="42.0829985" lon="13.5418917"><ele>753.0</ele><time>2026-05-02T14:02:05.912Z</time></trkpt><trkpt lat="42.0829401" lon="13.5419979"><ele>753.0</ele><time>2026-05-02T14:02:08.912Z</time></trkpt><trkpt lat="42.0829055" lon="13.5420819"><ele>753.0</ele><time>2026-05-02T14:02:09.912Z</time></trkpt><trkpt lat="42.0828768" lon="13.5421613"><ele>753.0</ele><time>2026-05-02T14:02:10.914Z</time></trkpt><trkpt lat="42.0828462" lon="13.5422396"><ele>753.0</ele><time>2026-05-02T14:02:11.912Z</time></trkpt><trkpt lat="42.0827971" lon="13.5423526"><ele>753.0</ele><time>2026-05-02T14:02:13.912Z</time></trkpt><trkpt lat="42.0827513" lon="13.5424738"><ele>753.0</ele><time>2026-05-02T14:02:15.914Z</time></trkpt><trkpt lat="42.0826642" lon="13.5425598"><ele>753.0</ele><time>2026-05-02T14:02:17.914Z</time></trkpt><trkpt lat="42.0825781" lon="13.5426067"><ele>753.0</ele><time>2026-05-02T14:02:19.913Z</time></trkpt><trkpt lat="42.0824664" lon="13.5426944"><ele>753.0</ele><time>2026-05-02T14:02:21.913Z</time></trkpt><trkpt lat="42.0824089" lon="13.5427549"><ele>753.0</ele><time>2026-05-02T14:02:22.913Z</time></trkpt><trkpt lat="42.082359" lon="13.5428114"><ele>753.0</ele><time>2026-05-02T14:02:23.911Z</time></trkpt><trkpt lat="42.0823324" lon="13.5428942"><ele>753.0</ele><time>2026-05-02T14:02:24.911Z</time></trkpt><trkpt lat="42.0823014" lon="13.5430582"><ele>752.6666666666666</ele><time>2026-05-02T14:02:26.912Z</time></trkpt><trkpt lat="42.0822928" lon="13.5431805"><ele>752.3333333333334</ele><time>2026-05-02T14:02:28.912Z</time></trkpt><trkpt lat="42.0822975" lon="13.5432777"><ele>752.0</ele><time>2026-05-02T14:02:30.913Z</time></trkpt><trkpt lat="42.0823633" lon="13.5433105"><ele>751.6666666666667</ele><time>2026-05-02T14:02:32.912Z</time></trkpt><trkpt lat="42.0824377" lon="13.5432207"><ele>751.3333333333334</ele><time>2026-05-02T14:02:34.911Z</time></trkpt><trkpt lat="42.0824825" lon="13.5431389"><ele>751.0</ele><time>2026-05-02T14:02:35.913Z</time></trkpt><trkpt lat="42.0825397" lon="13.5430597"><ele>752.6666666666667</ele><time>2026-05-02T14:02:36.912Z</time></trkpt><trkpt lat="42.0825956" lon="13.5429872"><ele>754.3333333333334</ele><time>2026-05-02T14:02:37.912Z</time></trkpt><trkpt lat="42.0826564" lon="13.5429561"><ele>756.0</ele><time>2026-05-02T14:02:38.912Z</time></trkpt><trkpt lat="42.0827891" lon="13.542962"><ele>757.6666666666666</ele><time>2026-05-02T14:02:40.912Z</time></trkpt><trkpt lat="42.0828638" lon="13.5429821"><ele>759.3333333333333</ele><time>2026-05-02T14:02:41.912Z</time></trkpt><trkpt lat="42.0829576" lon="13.5430033"><ele>761.0</ele><time>2026-05-02T14:02:42.913Z</time></trkpt><trkpt lat="42.0830689" lon="13.5430138"><ele>761.0</ele><time>2026-05-02T14:02:43.912Z</time></trkpt><trkpt lat="42.0831823" lon="13.5430516"><ele>761.0</ele><time>2026-05-02T14:02:44.912Z</time></trkpt><trkpt lat="42.0833052" lon="13.5430576"><ele>761.0</ele><time>2026-05-02T14:02:45.912Z</time></trkpt><trkpt lat="42.083433" lon="13.5430641"><ele>761.0</ele><time>2026-05-02T14:02:46.912Z</time></trkpt><trkpt lat="42.0835502" lon="13.5430705"><ele>764.1999999999999</ele><time>2026-05-02T14:02:47.912Z</time></trkpt><trkpt lat="42.0836658" lon="13.5430687"><ele>767.4</ele><time>2026-05-02T14:02:48.913Z</time></trkpt><trkpt lat="42.0837748" lon="13.543066"><ele>770.6</ele><time>2026-05-02T14:02:49.911Z</time></trkpt><trkpt lat="42.0838847" lon="13.5430327"><ele>773.8</ele><time>2026-05-02T14:02:50.913Z</time></trkpt><trkpt lat="42.0839922" lon="13.5430005"><ele>777.0</ele><time>2026-05-02T14:02:51.912Z</time></trkpt><trkpt lat="42.0841003" lon="13.5429621"><ele>778.8</ele><time>2026-05-02T14:02:52.913Z</time></trkpt><trkpt lat="42.084207" lon="13.5429355"><ele>780.6</ele><time>2026-05-02T14:02:53.912Z</time></trkpt><trkpt lat="42.0843137" lon="13.5429264"><ele>782.4</ele><time>2026-05-02T14:02:54.913Z</time></trkpt><trkpt lat="42.0844245" lon="13.5429324"><ele>784.1999999999999</ele><time>2026-05-02T14:02:55.912Z</time></trkpt><trkpt lat="42.0845359" lon="13.5429458"><ele>786.0</ele><time>2026-05-02T14:02:56.912Z</time></trkpt><trkpt lat="42.084652" lon="13.542954"><ele>786.0</ele><time>2026-05-02T14:02:57.913Z</time></trkpt><trkpt lat="42.0847621" lon="13.5429622"><ele>786.0</ele><time>2026-05-02T14:02:58.912Z</time></trkpt><trkpt lat="42.0848727" lon="13.5429714"><ele>786.0</ele><time>2026-05-02T14:02:59.912Z</time></trkpt><trkpt lat="42.0849809" lon="13.5429797"><ele>786.0</ele><time>2026-05-02T14:03:00.912Z</time></trkpt><trkpt lat="42.0850821" lon="13.5429857"><ele>786.0</ele><time>2026-05-02T14:03:01.912Z</time></trkpt><trkpt lat="42.0851789" lon="13.5430007"><ele>787.8</ele><time>2026-05-02T14:03:02.912Z</time></trkpt><trkpt lat="42.0852722" lon="13.5430362"><ele>789.5999999999999</ele><time>2026-05-02T14:03:03.913Z</time></trkpt><trkpt lat="42.0853675" lon="13.5430767"><ele>791.4</ele><time>2026-05-02T14:03:04.912Z</time></trkpt><trkpt lat="42.0854608" lon="13.5431274"><ele>793.2</ele><time>2026-05-02T14:03:05.914Z</time></trkpt><trkpt lat="42.0855478" lon="13.5431816"><ele>795.0</ele><time>2026-05-02T14:03:06.913Z</time></trkpt><trkpt lat="42.0856241" lon="13.5432252"><ele>795.0</ele><time>2026-05-02T14:03:07.913Z</time></trkpt><trkpt lat="42.0856938" lon="13.5432635"><ele>795.0</ele><time>2026-05-02T14:03:08.913Z</time></trkpt><trkpt lat="42.085762" lon="13.5432986"><ele>795.0</ele><time>2026-05-02T14:03:09.912Z</time></trkpt><trkpt lat="42.0858308" lon="13.5433294"><ele>795.0</ele><time>2026-05-02T14:03:10.911Z</time></trkpt><trkpt lat="42.0858991" lon="13.5433661"><ele>795.0</ele><time>2026-05-02T14:03:11.911Z</time></trkpt><trkpt lat="42.0859682" lon="13.5434013"><ele>795.0</ele><time>2026-05-02T14:03:12.914Z</time></trkpt><trkpt lat="42.0860461" lon="13.5434242"><ele>795.0</ele><time>2026-05-02T14:03:13.912Z</time></trkpt><trkpt lat="42.0861248" lon="13.5434398"><ele>794.8333333333334</ele><time>2026-05-02T14:03:14.913Z</time></trkpt><trkpt lat="42.0861978" lon="13.5434654"><ele>794.6666666666667</ele><time>2026-05-02T14:03:15.911Z</time></trkpt><trkpt lat="42.086271" lon="13.5434929"><ele>794.5</ele><time>2026-05-02T14:03:16.913Z</time></trkpt><trkpt lat="42.0863424" lon="13.5435119"><ele>794.3333333333334</ele><time>2026-05-02T14:03:17.912Z</time></trkpt><trkpt lat="42.086414" lon="13.5435235"><ele>794.1666666666667</ele><time>2026-05-02T14:03:18.911Z</time></trkpt><trkpt lat="42.0864892" lon="13.5435346"><ele>794.0</ele><time>2026-05-02T14:03:19.912Z</time></trkpt><trkpt lat="42.086566" lon="13.5435534"><ele>793.6666666666667</ele><time>2026-05-02T14:03:20.912Z</time></trkpt><trkpt lat="42.0866462" lon="13.5435622"><ele>793.3333333333334</ele><time>2026-05-02T14:03:21.912Z</time></trkpt><trkpt lat="42.0867262" lon="13.5435677"><ele>793.0</ele><time>2026-05-02T14:03:22.912Z</time></trkpt><trkpt lat="42.0868095" lon="13.5435623"><ele>792.6666666666667</ele><time>2026-05-02T14:03:23.913Z</time></trkpt><trkpt lat="42.0868877" lon="13.5435539"><ele>792.3333333333334</ele><time>2026-05-02T14:03:24.913Z</time></trkpt><trkpt lat="42.0869542" lon="13.5435341"><ele>792.0</ele><time>2026-05-02T14:03:25.911Z</time></trkpt><trkpt lat="42.0870145" lon="13.5435087"><ele>792.0</ele><time>2026-05-02T14:03:26.912Z</time></trkpt><trkpt lat="42.0870731" lon="13.5434736"><ele>792.0</ele><time>2026-05-02T14:03:27.913Z</time></trkpt><trkpt lat="42.0871258" lon="13.5434173"><ele>792.0</ele><time>2026-05-02T14:03:28.912Z</time></trkpt><trkpt lat="42.0871789" lon="13.5433602"><ele>792.0</ele><time>2026-05-02T14:03:29.912Z</time></trkpt><trkpt lat="42.0872314" lon="13.5433034"><ele>792.0</ele><time>2026-05-02T14:03:30.912Z</time></trkpt><trkpt lat="42.0873134" lon="13.5432019"><ele>792.0</ele><time>2026-05-02T14:03:32.914Z</time></trkpt><trkpt lat="42.087355" lon="13.5431348"><ele>792.0</ele><time>2026-05-02T14:03:34.911Z</time></trkpt><trkpt lat="42.0874062" lon="13.5430349"><ele>792.0</ele><time>2026-05-02T14:03:39.912Z</time></trkpt><trkpt lat="42.0874666" lon="13.5429375"><ele>792.0</ele><time>2026-05-02T14:03:41.911Z</time></trkpt><trkpt lat="42.0875221" lon="13.5428321"><ele>792.0</ele><time>2026-05-02T14:03:43.912Z</time></trkpt><trkpt lat="42.0875552" lon="13.5427579"><ele>792.0</ele><time>2026-05-02T14:03:45.913Z</time></trkpt><trkpt lat="42.0876017" lon="13.5426793"><ele>792.0</ele><time>2026-05-02T14:03:57.913Z</time></trkpt><trkpt lat="42.0876867" lon="13.5426569"><ele>792.0</ele><time>2026-05-02T14:04:02.912Z</time></trkpt><trkpt lat="42.0877125" lon="13.5425726"><ele>792.0</ele><time>2026-05-02T14:04:03.911Z</time></trkpt><trkpt lat="42.0877465" lon="13.5424836"><ele>792.0</ele><time>2026-05-02T14:04:04.911Z</time></trkpt><trkpt lat="42.0877981" lon="13.5423826"><ele>792.0</ele><time>2026-05-02T14:04:05.911Z</time></trkpt><trkpt lat="42.0878665" lon="13.5422846"><ele>792.0</ele><time>2026-05-02T14:04:06.912Z</time></trkpt><trkpt lat="42.0879513" lon="13.5421884"><ele>792.0</ele><time>2026-05-02T14:04:07.914Z</time></trkpt><trkpt lat="42.0880326" lon="13.5421135"><ele>792.0</ele><time>2026-05-02T14:04:08.912Z</time></trkpt><trkpt lat="42.0881238" lon="13.5420565"><ele>792.0</ele><time>2026-05-02T14:04:09.914Z</time></trkpt><trkpt lat="42.088219" lon="13.5419997"><ele>792.0</ele><time>2026-05-02T14:04:10.913Z</time></trkpt><trkpt lat="42.0883173" lon="13.5419438"><ele>792.0</ele><time>2026-05-02T14:04:11.913Z</time></trkpt><trkpt lat="42.0884121" lon="13.5418905"><ele>792.0</ele><time>2026-05-02T14:04:12.912Z</time></trkpt><trkpt lat="42.0884961" lon="13.541838"><ele>792.6666666666666</ele><time>2026-05-02T14:04:13.914Z</time></trkpt><trkpt lat="42.0885718" lon="13.5417788"><ele>793.3333333333333</ele><time>2026-05-02T14:04:14.911Z</time></trkpt><trkpt lat="42.0886301" lon="13.5416988"><ele>794.0</ele><time>2026-05-02T14:04:15.913Z</time></trkpt><trkpt lat="42.088681" lon="13.5416081"><ele>794.6666666666666</ele><time>2026-05-02T14:04:16.912Z</time></trkpt><trkpt lat="42.0886782" lon="13.5414787"><ele>795.3333333333333</ele><time>2026-05-02T14:04:17.912Z</time></trkpt><trkpt lat="42.0886712" lon="13.5413536"><ele>796.0</ele><time>2026-05-02T14:04:18.913Z</time></trkpt><trkpt lat="42.0886472" lon="13.5412278"><ele>795.8</ele><time>2026-05-02T14:04:19.913Z</time></trkpt><trkpt lat="42.0886036" lon="13.5410961"><ele>795.5999999999999</ele><time>2026-05-02T14:04:20.911Z</time></trkpt><trkpt lat="42.0885512" lon="13.5409755"><ele>795.4</ele><time>2026-05-02T14:04:21.913Z</time></trkpt><trkpt lat="42.0884919" lon="13.5408719"><ele>795.2</ele><time>2026-05-02T14:04:22.912Z</time></trkpt><trkpt lat="42.0884377" lon="13.5407753"><ele>795.0</ele><time>2026-05-02T14:04:23.912Z</time></trkpt><trkpt lat="42.088381" lon="13.5406752"><ele>795.0</ele><time>2026-05-02T14:04:24.912Z</time></trkpt><trkpt lat="42.0883452" lon="13.540553"><ele>795.0</ele><time>2026-05-02T14:04:25.912Z</time></trkpt><trkpt lat="42.088322" lon="13.5404188"><ele>795.0</ele><time>2026-05-02T14:04:26.914Z</time></trkpt><trkpt lat="42.0883088" lon="13.5402834"><ele>795.0</ele><time>2026-05-02T14:04:27.911Z</time></trkpt><trkpt lat="42.0882985" lon="13.5401356"><ele>795.0</ele><time>2026-05-02T14:04:28.912Z</time></trkpt><trkpt lat="42.088296" lon="13.5399926"><ele>794.8</ele><time>2026-05-02T14:04:29.912Z</time></trkpt><trkpt lat="42.0883002" lon="13.5398559"><ele>794.6</ele><time>2026-05-02T14:04:30.912Z</time></trkpt><trkpt lat="42.0883024" lon="13.5397185"><ele>794.4000000000001</ele><time>2026-05-02T14:04:31.912Z</time></trkpt><trkpt lat="42.0883152" lon="13.5395967"><ele>794.2</ele><time>2026-05-02T14:04:32.913Z</time></trkpt><trkpt lat="42.088328" lon="13.5394793"><ele>794.0</ele><time>2026-05-02T14:04:33.911Z</time></trkpt><trkpt lat="42.088342" lon="13.5393619"><ele>794.0000000000001</ele><time>2026-05-02T14:04:34.911Z</time></trkpt><trkpt lat="42.0883519" lon="13.5392455"><ele>794.0</ele><time>2026-05-02T14:04:35.912Z</time></trkpt><trkpt lat="42.0883581" lon="13.5391266"><ele>794.0</ele><time>2026-05-02T14:04:36.912Z</time></trkpt><trkpt lat="42.0883575" lon="13.5390121"><ele>794.0</ele><time>2026-05-02T14:04:37.913Z</time></trkpt><trkpt lat="42.0883522" lon="13.5389118"><ele>794.0000000000001</ele><time>2026-05-02T14:04:38.913Z</time></trkpt><trkpt lat="42.0883451" lon="13.5388252"><ele>794.0</ele><time>2026-05-02T14:04:39.912Z</time></trkpt><trkpt lat="42.0883431" lon="13.5387178"><ele>794.0</ele><time>2026-05-02T14:04:41.912Z</time></trkpt><trkpt lat="42.0883683" lon="13.5386176"><ele>794.0</ele><time>2026-05-02T14:04:45.912Z</time></trkpt><trkpt lat="42.0884399" lon="13.5385776"><ele>794.0</ele><time>2026-05-02T14:04:47.912Z</time></trkpt><trkpt lat="42.0885365" lon="13.5385372"><ele>794.0</ele><time>2026-05-02T14:04:49.912Z</time></trkpt><trkpt lat="42.0885978" lon="13.5385058"><ele>794.0</ele><time>2026-05-02T14:04:50.913Z</time></trkpt><trkpt lat="42.0887159" lon="13.5384384"><ele>794.0</ele><time>2026-05-02T14:04:52.912Z</time></trkpt><trkpt lat="42.088829" lon="13.5383661"><ele>794.0</ele><time>2026-05-02T14:04:54.912Z</time></trkpt><trkpt lat="42.088921" lon="13.5382763"><ele>794.0</ele><time>2026-05-02T14:04:56.913Z</time></trkpt><trkpt lat="42.0890036" lon="13.5381245"><ele>794.0</ele><time>2026-05-02T14:04:58.911Z</time></trkpt><trkpt lat="42.0890372" lon="13.5380372"><ele>795.5000000000001</ele><time>2026-05-02T14:04:59.912Z</time></trkpt><trkpt lat="42.0890947" lon="13.537954"><ele>797.0</ele><time>2026-05-02T14:05:00.913Z</time></trkpt><trkpt lat="42.0891431" lon="13.5378522"><ele>798.5</ele><time>2026-05-02T14:05:01.912Z</time></trkpt><trkpt lat="42.0891903" lon="13.5377573"><ele>800.0</ele><time>2026-05-02T14:05:02.912Z</time></trkpt><trkpt lat="42.0892436" lon="13.5376636"><ele>801.5000000000001</ele><time>2026-05-02T14:05:03.912Z</time></trkpt><trkpt lat="42.0893053" lon="13.5375859"><ele>803.0</ele><time>2026-05-02T14:05:04.913Z</time></trkpt><trkpt lat="42.0893739" lon="13.5375153"><ele>803.0000000000001</ele><time>2026-05-02T14:05:05.913Z</time></trkpt><trkpt lat="42.0894303" lon="13.537455"><ele>803.0</ele><time>2026-05-02T14:05:06.912Z</time></trkpt><trkpt lat="42.0894812" lon="13.5373987"><ele>803.0</ele><time>2026-05-02T14:05:07.912Z</time></trkpt><trkpt lat="42.0895372" lon="13.5373411"><ele>803.0</ele><time>2026-05-02T14:05:08.912Z</time></trkpt><trkpt lat="42.0895943" lon="13.5372753"><ele>803.0000000000001</ele><time>2026-05-02T14:05:09.911Z</time></trkpt><trkpt lat="42.0896576" lon="13.5371992"><ele>803.0</ele><time>2026-05-02T14:05:10.912Z</time></trkpt><trkpt lat="42.089723" lon="13.5371268"><ele>802.5000000000001</ele><time>2026-05-02T14:05:11.912Z</time></trkpt><trkpt lat="42.0897864" lon="13.5370486"><ele>802.0</ele><time>2026-05-02T14:05:12.912Z</time></trkpt><trkpt lat="42.089851" lon="13.5369759"><ele>801.5</ele><time>2026-05-02T14:05:13.912Z</time></trkpt><trkpt lat="42.0899125" lon="13.5369046"><ele>801.0</ele><time>2026-05-02T14:05:14.912Z</time></trkpt><trkpt lat="42.0899757" lon="13.5368221"><ele>800.5000000000001</ele><time>2026-05-02T14:05:15.912Z</time></trkpt><trkpt lat="42.0900353" lon="13.536742"><ele>800.0</ele><time>2026-05-02T14:05:16.912Z</time></trkpt><trkpt lat="42.0900928" lon="13.5366662"><ele>801.6</ele><time>2026-05-02T14:05:17.911Z</time></trkpt><trkpt lat="42.0901532" lon="13.5365874"><ele>803.2</ele><time>2026-05-02T14:05:18.912Z</time></trkpt><trkpt lat="42.0902013" lon="13.5365279"><ele>804.8</ele><time>2026-05-02T14:05:19.912Z</time></trkpt><trkpt lat="42.0902756" lon="13.5364216"><ele>806.4</ele><time>2026-05-02T14:05:21.912Z</time></trkpt><trkpt lat="42.0903082" lon="13.5362655"><ele>808.0</ele><time>2026-05-02T14:05:23.912Z</time></trkpt><trkpt lat="42.0902909" lon="13.536143"><ele>807.9999999999999</ele><time>2026-05-02T14:05:24.911Z</time></trkpt><trkpt lat="42.090272" lon="13.5360304"><ele>808.0</ele><time>2026-05-02T14:05:25.912Z</time></trkpt><trkpt lat="42.0902548" lon="13.5359243"><ele>808.0</ele><time>2026-05-02T14:05:26.913Z</time></trkpt><trkpt lat="42.0902397" lon="13.5358126"><ele>808.0</ele><time>2026-05-02T14:05:27.912Z</time></trkpt><trkpt lat="42.0902194" lon="13.5357173"><ele>807.9999999999999</ele><time>2026-05-02T14:05:28.912Z</time></trkpt><trkpt lat="42.0902056" lon="13.5356261"><ele>808.0</ele><time>2026-05-02T14:05:29.912Z</time></trkpt><trkpt lat="42.0902" lon="13.535533"><ele>807.9999999999999</ele><time>2026-05-02T14:05:30.912Z</time></trkpt><trkpt lat="42.0901896" lon="13.5354138"><ele>808.0</ele><time>2026-05-02T14:05:32.913Z</time></trkpt><trkpt lat="42.090202" lon="13.5353153"><ele>808.0</ele><time>2026-05-02T14:05:34.912Z</time></trkpt><trkpt lat="42.0902271" lon="13.5351644"><ele>808.0</ele><time>2026-05-02T14:05:36.912Z</time></trkpt><trkpt lat="42.0902432" lon="13.5350643"><ele>807.9999999999999</ele><time>2026-05-02T14:05:37.912Z</time></trkpt><trkpt lat="42.0902595" lon="13.5349383"><ele>808.0</ele><time>2026-05-02T14:05:38.913Z</time></trkpt><trkpt lat="42.0902638" lon="13.534838"><ele>808.0</ele><time>2026-05-02T14:05:39.911Z</time></trkpt><trkpt lat="42.0902779" lon="13.534738"><ele>808.0</ele><time>2026-05-02T14:05:40.911Z</time></trkpt><trkpt lat="42.0902946" lon="13.5346418"><ele>808.0</ele><time>2026-05-02T14:05:41.912Z</time></trkpt><trkpt lat="42.0903596" lon="13.5344769"><ele>808.0</ele><time>2026-05-02T14:05:43.912Z</time></trkpt><trkpt lat="42.0904126" lon="13.5343805"><ele>808.0</ele><time>2026-05-02T14:05:44.912Z</time></trkpt><trkpt lat="42.0904725" lon="13.534284"><ele>808.0</ele><time>2026-05-02T14:05:45.912Z</time></trkpt><trkpt lat="42.0905426" lon="13.5341793"><ele>808.0</ele><time>2026-05-02T14:05:46.912Z</time></trkpt><trkpt lat="42.0906123" lon="13.5340625"><ele>808.0</ele><time>2026-05-02T14:05:47.913Z</time></trkpt><trkpt lat="42.090683" lon="13.5339379"><ele>808.0</ele><time>2026-05-02T14:05:48.913Z</time></trkpt><trkpt lat="42.0907481" lon="13.5338155"><ele>808.0</ele><time>2026-05-02T14:05:49.913Z</time></trkpt><trkpt lat="42.0908164" lon="13.5336922"><ele>809.2</ele><time>2026-05-02T14:05:50.912Z</time></trkpt><trkpt lat="42.0908851" lon="13.5335754"><ele>810.4</ele><time>2026-05-02T14:05:51.911Z</time></trkpt><trkpt lat="42.0909473" lon="13.5334512"><ele>811.6</ele><time>2026-05-02T14:05:52.912Z</time></trkpt><trkpt lat="42.0910081" lon="13.5333228"><ele>812.8000000000001</ele><time>2026-05-02T14:05:53.912Z</time></trkpt><trkpt lat="42.0910616" lon="13.5331934"><ele>814.0</ele><time>2026-05-02T14:05:54.911Z</time></trkpt><trkpt lat="42.0911069" lon="13.5330804"><ele>813.9999999999999</ele><time>2026-05-02T14:05:55.911Z</time></trkpt><trkpt lat="42.091149" lon="13.5329832"><ele>814.0</ele><time>2026-05-02T14:05:56.911Z</time></trkpt><trkpt lat="42.0911954" lon="13.5328889"><ele>814.0</ele><time>2026-05-02T14:05:57.913Z</time></trkpt><trkpt lat="42.0912558" lon="13.5328056"><ele>814.0</ele><time>2026-05-02T14:05:58.913Z</time></trkpt><trkpt lat="42.0913151" lon="13.5327298"><ele>813.9999999999999</ele><time>2026-05-02T14:05:59.912Z</time></trkpt><trkpt lat="42.0913799" lon="13.5326566"><ele>814.0</ele><time>2026-05-02T14:06:00.912Z</time></trkpt><trkpt lat="42.0914415" lon="13.5325691"><ele>814.25</ele><time>2026-05-02T14:06:01.912Z</time></trkpt><trkpt lat="42.0915165" lon="13.5324798"><ele>814.5</ele><time>2026-05-02T14:06:02.913Z</time></trkpt><trkpt lat="42.0916007" lon="13.5323675"><ele>814.75</ele><time>2026-05-02T14:06:03.912Z</time></trkpt><trkpt lat="42.09168" lon="13.5322403"><ele>815.0</ele><time>2026-05-02T14:06:04.912Z</time></trkpt><trkpt lat="42.0917509" lon="13.5321031"><ele>816.25</ele><time>2026-05-02T14:06:05.912Z</time></trkpt><trkpt lat="42.0918185" lon="13.5319748"><ele>817.5</ele><time>2026-05-02T14:06:06.911Z</time></trkpt><trkpt lat="42.091876" lon="13.5318266"><ele>818.75</ele><time>2026-05-02T14:06:07.912Z</time></trkpt><trkpt lat="42.0919267" lon="13.531657"><ele>820.0</ele><time>2026-05-02T14:06:08.912Z</time></trkpt><trkpt lat="42.091977" lon="13.5314599"><ele>820.0</ele><time>2026-05-02T14:06:09.912Z</time></trkpt><trkpt lat="42.092029" lon="13.5312359"><ele>820.0</ele><time>2026-05-02T14:06:10.912Z</time></trkpt><trkpt lat="42.0920902" lon="13.5309996"><ele>820.0</ele><time>2026-05-02T14:06:11.91Z</time></trkpt><trkpt lat="42.0921562" lon="13.5307579"><ele>819.3333333333333</ele><time>2026-05-02T14:06:12.911Z</time></trkpt><trkpt lat="42.0922208" lon="13.5305335"><ele>818.6666666666667</ele><time>2026-05-02T14:06:13.912Z</time></trkpt><trkpt lat="42.092292" lon="13.5303151"><ele>818.0</ele><time>2026-05-02T14:06:14.911Z</time></trkpt><trkpt lat="42.0923724" lon="13.5300931"><ele>820.3333333333334</ele><time>2026-05-02T14:06:15.913Z</time></trkpt><trkpt lat="42.092471" lon="13.5298637"><ele>822.6666666666667</ele><time>2026-05-02T14:06:16.911Z</time></trkpt><trkpt lat="42.0925607" lon="13.5296533"><ele>825.0</ele><time>2026-05-02T14:06:17.912Z</time></trkpt><trkpt lat="42.0926472" lon="13.5294508"><ele>825.0</ele><time>2026-05-02T14:06:18.912Z</time></trkpt><trkpt lat="42.0927227" lon="13.5292454"><ele>825.0</ele><time>2026-05-02T14:06:19.912Z</time></trkpt><trkpt lat="42.0927873" lon="13.5290379"><ele>825.0</ele><time>2026-05-02T14:06:20.911Z</time></trkpt><trkpt lat="42.092853" lon="13.5288485"><ele>824.0</ele><time>2026-05-02T14:06:21.911Z</time></trkpt><trkpt lat="42.0929168" lon="13.5286722"><ele>823.0</ele><time>2026-05-02T14:06:22.912Z</time></trkpt><trkpt lat="42.0929752" lon="13.5285227"><ele>822.0</ele><time>2026-05-02T14:06:23.912Z</time></trkpt><trkpt lat="42.0930353" lon="13.5283816"><ele>821.0</ele><time>2026-05-02T14:06:24.911Z</time></trkpt><trkpt lat="42.0931013" lon="13.528258"><ele>821.0</ele><time>2026-05-02T14:06:25.912Z</time></trkpt><trkpt lat="42.0931825" lon="13.5281315"><ele>821.0</ele><time>2026-05-02T14:06:26.912Z</time></trkpt><trkpt lat="42.0932786" lon="13.5280119"><ele>821.0</ele><time>2026-05-02T14:06:27.912Z</time></trkpt><trkpt lat="42.0933793" lon="13.5279019"><ele>821.0</ele><time>2026-05-02T14:06:28.912Z</time></trkpt><trkpt lat="42.0934783" lon="13.5277956"><ele>822.4</ele><time>2026-05-02T14:06:29.912Z</time></trkpt><trkpt lat="42.0935615" lon="13.5277258"><ele>823.8</ele><time>2026-05-02T14:06:30.912Z</time></trkpt><trkpt lat="42.0936462" lon="13.5276602"><ele>825.1999999999999</ele><time>2026-05-02T14:06:31.911Z</time></trkpt><trkpt lat="42.0937074" lon="13.5276317"><ele>826.5999999999999</ele><time>2026-05-02T14:06:32.912Z</time></trkpt><trkpt lat="42.0938018" lon="13.5275506"><ele>828.0</ele><time>2026-05-02T14:06:34.912Z</time></trkpt><trkpt lat="42.0938444" lon="13.5274639"><ele>828.0</ele><time>2026-05-02T14:06:37.913Z</time></trkpt><trkpt lat="42.0938582" lon="13.5273457"><ele>828.0</ele><time>2026-05-02T14:06:40.911Z</time></trkpt><trkpt lat="42.0938742" lon="13.5272565"><ele>828.0</ele><time>2026-05-02T14:06:42.912Z</time></trkpt><trkpt lat="42.0938836" lon="13.5271445"><ele>828.0</ele><time>2026-05-02T14:06:45.911Z</time></trkpt><trkpt lat="42.0938969" lon="13.5270044"><ele>828.0</ele><time>2026-05-02T14:06:48.912Z</time></trkpt><trkpt lat="42.0939015" lon="13.5268834"><ele>828.0</ele><time>2026-05-02T14:06:50.913Z</time></trkpt><trkpt lat="42.0939253" lon="13.5267259"><ele>827.6666666666666</ele><time>2026-05-02T14:06:52.913Z</time></trkpt><trkpt lat="42.0939485" lon="13.5266219"><ele>827.3333333333333</ele><time>2026-05-02T14:06:53.912Z</time></trkpt><trkpt lat="42.0939682" lon="13.5265321"><ele>827.0</ele><time>2026-05-02T14:06:54.912Z</time></trkpt><trkpt lat="42.0939924" lon="13.5264008"><ele>826.6666666666666</ele><time>2026-05-02T14:06:56.913Z</time></trkpt><trkpt lat="42.0940124" lon="13.5262972"><ele>826.3333333333333</ele><time>2026-05-02T14:07:14.913Z</time></trkpt><trkpt lat="42.0940197" lon="13.5261996"><ele>826.0</ele><time>2026-05-02T14:07:16.91Z</time></trkpt><trkpt lat="42.0940276" lon="13.526108"><ele>826.8333333333333</ele><time>2026-05-02T14:07:17.91Z</time></trkpt><trkpt lat="42.0940427" lon="13.5260167"><ele>827.6666666666666</ele><time>2026-05-02T14:07:18.913Z</time></trkpt><trkpt lat="42.0940584" lon="13.5259254"><ele>828.5</ele><time>2026-05-02T14:07:19.912Z</time></trkpt><trkpt lat="42.0940969" lon="13.5258267"><ele>829.3333333333333</ele><time>2026-05-02T14:07:20.912Z</time></trkpt><trkpt lat="42.0941313" lon="13.5257262"><ele>830.1666666666666</ele><time>2026-05-02T14:07:21.912Z</time></trkpt><trkpt lat="42.0941632" lon="13.5256472"><ele>831.0</ele><time>2026-05-02T14:07:22.913Z</time></trkpt><trkpt lat="42.0941967" lon="13.5255051"><ele>828.6666666666666</ele><time>2026-05-02T14:07:24.912Z</time></trkpt><trkpt lat="42.0942215" lon="13.5253473"><ele>826.3333333333333</ele><time>2026-05-02T14:07:26.912Z</time></trkpt><trkpt lat="42.0942511" lon="13.5252712"><ele>824.0</ele><time>2026-05-02T14:07:27.911Z</time></trkpt><trkpt lat="42.0943007" lon="13.5251921"><ele>821.6666666666666</ele><time>2026-05-02T14:07:28.912Z</time></trkpt><trkpt lat="42.0943673" lon="13.5251114"><ele>819.3333333333333</ele><time>2026-05-02T14:07:29.911Z</time></trkpt><trkpt lat="42.094434" lon="13.5250255"><ele>817.0</ele><time>2026-05-02T14:07:30.912Z</time></trkpt><trkpt lat="42.0944962" lon="13.5249518"><ele>816.9999999999999</ele><time>2026-05-02T14:07:31.913Z</time></trkpt><trkpt lat="42.0945616" lon="13.5248721"><ele>817.0</ele><time>2026-05-02T14:07:32.911Z</time></trkpt><trkpt lat="42.0946271" lon="13.5247979"><ele>817.0</ele><time>2026-05-02T14:07:33.911Z</time></trkpt><trkpt lat="42.0946885" lon="13.5247346"><ele>817.0</ele><time>2026-05-02T14:07:34.911Z</time></trkpt><trkpt lat="42.0947454" lon="13.5246696"><ele>816.9999999999999</ele><time>2026-05-02T14:07:35.911Z</time></trkpt><trkpt lat="42.0948029" lon="13.5245995"><ele>817.0</ele><time>2026-05-02T14:07:36.912Z</time></trkpt><trkpt lat="42.0948544" lon="13.524536"><ele>817.6666666666666</ele><time>2026-05-02T14:07:37.912Z</time></trkpt><trkpt lat="42.0949158" lon="13.5244788"><ele>818.3333333333333</ele><time>2026-05-02T14:07:38.912Z</time></trkpt><trkpt lat="42.0949772" lon="13.5244372"><ele>819.0</ele><time>2026-05-02T14:07:39.912Z</time></trkpt><trkpt lat="42.0950438" lon="13.5243912"><ele>819.6666666666667</ele><time>2026-05-02T14:07:40.912Z</time></trkpt><trkpt lat="42.0951138" lon="13.5243366"><ele>820.3333333333334</ele><time>2026-05-02T14:07:41.91Z</time></trkpt><trkpt lat="42.0951866" lon="13.5242817"><ele>821.0</ele><time>2026-05-02T14:07:42.911Z</time></trkpt><trkpt lat="42.0952609" lon="13.5242123"><ele>821.0</ele><time>2026-05-02T14:07:43.912Z</time></trkpt><trkpt lat="42.0953295" lon="13.5241419"><ele>821.0</ele><time>2026-05-02T14:07:44.912Z</time></trkpt><trkpt lat="42.0954018" lon="13.5240616"><ele>821.0</ele><time>2026-05-02T14:07:45.912Z</time></trkpt><trkpt lat="42.0954808" lon="13.5239776"><ele>821.0</ele><time>2026-05-02T14:07:46.911Z</time></trkpt><trkpt lat="42.0955653" lon="13.5239004"><ele>821.0</ele><time>2026-05-02T14:07:47.911Z</time></trkpt><trkpt lat="42.0956389" lon="13.5238337"><ele>821.0000000000001</ele><time>2026-05-02T14:07:48.913Z</time></trkpt><trkpt lat="42.0956879" lon="13.52377"><ele>821.0</ele><time>2026-05-02T14:07:49.91Z</time></trkpt><trkpt lat="42.0957244" lon="13.5236847"><ele>821.0</ele><time>2026-05-02T14:07:50.912Z</time></trkpt><trkpt lat="42.0957591" lon="13.5235785"><ele>821.0</ele><time>2026-05-02T14:07:51.911Z</time></trkpt><trkpt lat="42.0957876" lon="13.523476"><ele>821.0000000000001</ele><time>2026-05-02T14:07:52.911Z</time></trkpt><trkpt lat="42.0958087" lon="13.5233809"><ele>821.0</ele><time>2026-05-02T14:07:53.912Z</time></trkpt><trkpt lat="42.0958262" lon="13.5232919"><ele>822.3333333333334</ele><time>2026-05-02T14:07:54.911Z</time></trkpt><trkpt lat="42.0958461" lon="13.523209"><ele>823.6666666666667</ele><time>2026-05-02T14:07:55.911Z</time></trkpt><trkpt lat="42.0958819" lon="13.5231227"><ele>825.0</ele><time>2026-05-02T14:07:56.912Z</time></trkpt><trkpt lat="42.0959336" lon="13.5230086"><ele>826.3333333333333</ele><time>2026-05-02T14:07:57.912Z</time></trkpt><trkpt lat="42.0959843" lon="13.5228798"><ele>827.6666666666666</ele><time>2026-05-02T14:07:58.912Z</time></trkpt><trkpt lat="42.096024" lon="13.5227714"><ele>829.0</ele><time>2026-05-02T14:07:59.912Z</time></trkpt><trkpt lat="42.0960523" lon="13.5226645"><ele>829.6666666666666</ele><time>2026-05-02T14:08:00.911Z</time></trkpt><trkpt lat="42.0960794" lon="13.5225687"><ele>830.3333333333333</ele><time>2026-05-02T14:08:01.911Z</time></trkpt><trkpt lat="42.0961115" lon="13.5224815"><ele>831.0</ele><time>2026-05-02T14:08:02.912Z</time></trkpt><trkpt lat="42.0961353" lon="13.5224016"><ele>831.6666666666667</ele><time>2026-05-02T14:08:03.912Z</time></trkpt><trkpt lat="42.0961663" lon="13.5222535"><ele>832.3333333333334</ele><time>2026-05-02T14:08:05.912Z</time></trkpt><trkpt lat="42.0962293" lon="13.5221506"><ele>833.0</ele><time>2026-05-02T14:08:07.911Z</time></trkpt><trkpt lat="42.0963044" lon="13.5220424"><ele>833.2857142857143</ele><time>2026-05-02T14:08:09.913Z</time></trkpt><trkpt lat="42.0963427" lon="13.5219702"><ele>833.5714285714286</ele><time>2026-05-02T14:08:10.911Z</time></trkpt><trkpt lat="42.0964144" lon="13.5218697"><ele>833.8571428571429</ele><time>2026-05-02T14:08:12.913Z</time></trkpt><trkpt lat="42.0963672" lon="13.5218102"><ele>834.1428571428571</ele><time>2026-05-02T14:08:16.911Z</time></trkpt><trkpt lat="42.0962993" lon="13.5218139"><ele>834.4285714285714</ele><time>2026-05-02T14:08:26.914Z</time></trkpt><trkpt lat="42.0962716" lon="13.5217308"><ele>834.7142857142858</ele><time>2026-05-02T14:08:51.912Z</time></trkpt><trkpt lat="42.0962974" lon="13.5216479"><ele>835.0</ele><time>2026-05-02T14:08:56.911Z</time></trkpt><trkpt lat="42.0963483" lon="13.5215503"><ele>834.9999999999999</ele><time>2026-05-02T14:09:00.912Z</time></trkpt><trkpt lat="42.09637" lon="13.5214313"><ele>835.0</ele><time>2026-05-02T14:09:02.911Z</time></trkpt><trkpt lat="42.0963826" lon="13.5213274"><ele>835.0</ele><time>2026-05-02T14:09:04.911Z</time></trkpt><trkpt lat="42.0964069" lon="13.5212295"><ele>835.0</ele><time>2026-05-02T14:09:06.912Z</time></trkpt><trkpt lat="42.0964536" lon="13.521111"><ele>834.9999999999999</ele><time>2026-05-02T14:09:08.912Z</time></trkpt><trkpt lat="42.0965015" lon="13.5210179"><ele>835.0</ele><time>2026-05-02T14:09:10.913Z</time></trkpt><trkpt lat="42.0965822" lon="13.5209028"><ele>836.1666666666666</ele><time>2026-05-02T14:09:12.912Z</time></trkpt><trkpt lat="42.0966395" lon="13.5208171"><ele>837.3333333333333</ele><time>2026-05-02T14:09:13.912Z</time></trkpt><trkpt lat="42.0966986" lon="13.5207306"><ele>838.5</ele><time>2026-05-02T14:09:14.913Z</time></trkpt><trkpt lat="42.0967557" lon="13.5206401"><ele>839.6666666666667</ele><time>2026-05-02T14:09:15.912Z</time></trkpt><trkpt lat="42.0968066" lon="13.520557"><ele>840.8333333333334</ele><time>2026-05-02T14:09:16.911Z</time></trkpt><trkpt lat="42.0968546" lon="13.5204774"><ele>842.0</ele><time>2026-05-02T14:09:17.911Z</time></trkpt><trkpt lat="42.0968998" lon="13.5203961"><ele>842.0</ele><time>2026-05-02T14:09:18.911Z</time></trkpt><trkpt lat="42.0969531" lon="13.5203174"><ele>842.0</ele><time>2026-05-02T14:09:19.912Z</time></trkpt><trkpt lat="42.0970446" lon="13.5202134"><ele>842.0</ele><time>2026-05-02T14:09:21.91Z</time></trkpt><trkpt lat="42.0971665" lon="13.5201318"><ele>842.0</ele><time>2026-05-02T14:09:23.912Z</time></trkpt><trkpt lat="42.097237" lon="13.5200994"><ele>842.0</ele><time>2026-05-02T14:09:24.912Z</time></trkpt><trkpt lat="42.0973439" lon="13.5200644"><ele>842.0</ele><time>2026-05-02T14:09:26.912Z</time></trkpt><trkpt lat="42.0974079" lon="13.5200268"><ele>842.0</ele><time>2026-05-02T14:09:28.913Z</time></trkpt><trkpt lat="42.0974233" lon="13.519916"><ele>842.0</ele><time>2026-05-02T14:09:31.911Z</time></trkpt><trkpt lat="42.0973665" lon="13.5197669"><ele>842.0</ele><time>2026-05-02T14:09:33.912Z</time></trkpt><trkpt lat="42.0973291" lon="13.5196412"><ele>842.0</ele><time>2026-05-02T14:09:35.912Z</time></trkpt><trkpt lat="42.097327" lon="13.5195322"><ele>844.1666666666667</ele><time>2026-05-02T14:09:37.911Z</time></trkpt><trkpt lat="42.0973236" lon="13.5194406"><ele>846.3333333333334</ele><time>2026-05-02T14:09:39.912Z</time></trkpt><trkpt lat="42.0973196" lon="13.5193546"><ele>848.5</ele><time>2026-05-02T14:09:41.912Z</time></trkpt><trkpt lat="42.0972875" lon="13.5192574"><ele>850.6666666666667</ele><time>2026-05-02T14:09:43.911Z</time></trkpt><trkpt lat="42.0972236" lon="13.5191615"><ele>852.8333333333334</ele><time>2026-05-02T14:09:45.912Z</time></trkpt><trkpt lat="42.0971937" lon="13.5190368"><ele>855.0</ele><time>2026-05-02T14:09:47.912Z</time></trkpt><trkpt lat="42.0972102" lon="13.5188978"><ele>855.0</ele><time>2026-05-02T14:09:49.912Z</time></trkpt><trkpt lat="42.097257" lon="13.5187555"><ele>855.0</ele><time>2026-05-02T14:09:51.91Z</time></trkpt><trkpt lat="42.097297" lon="13.5186035"><ele>855.0</ele><time>2026-05-02T14:09:53.911Z</time></trkpt><trkpt lat="42.0973211" lon="13.5185022"><ele>855.0</ele><time>2026-05-02T14:09:55.912Z</time></trkpt><trkpt lat="42.0973622" lon="13.5183889"><ele>855.0</ele><time>2026-05-02T14:10:02.912Z</time></trkpt><trkpt lat="42.0974205" lon="13.5182316"><ele>858.5</ele><time>2026-05-02T14:10:04.911Z</time></trkpt><trkpt lat="42.0974583" lon="13.5181402"><ele>862.0</ele><time>2026-05-02T14:10:05.911Z</time></trkpt><trkpt lat="42.0974994" lon="13.5180497"><ele>865.5</ele><time>2026-05-02T14:10:06.912Z</time></trkpt><trkpt lat="42.0975472" lon="13.5179571"><ele>869.0</ele><time>2026-05-02T14:10:07.911Z</time></trkpt><trkpt lat="42.0975942" lon="13.5178656"><ele>872.5</ele><time>2026-05-02T14:10:08.91Z</time></trkpt><trkpt lat="42.0976325" lon="13.5177826"><ele>876.0</ele><time>2026-05-02T14:10:09.912Z</time></trkpt><trkpt lat="42.0976709" lon="13.5177036"><ele>876.0</ele><time>2026-05-02T14:10:10.912Z</time></trkpt><trkpt lat="42.0977096" lon="13.5176289"><ele>876.0</ele><time>2026-05-02T14:10:11.911Z</time></trkpt><trkpt lat="42.0977474" lon="13.5175568"><ele>876.0</ele><time>2026-05-02T14:10:12.911Z</time></trkpt><trkpt lat="42.0977821" lon="13.5174828"><ele>876.0</ele><time>2026-05-02T14:10:13.911Z</time></trkpt><trkpt lat="42.0978171" lon="13.5174007"><ele>876.0</ele><time>2026-05-02T14:10:14.911Z</time></trkpt><trkpt lat="42.0978495" lon="13.5173125"><ele>876.0</ele><time>2026-05-02T14:10:15.911Z</time></trkpt><trkpt lat="42.0978781" lon="13.5172244"><ele>876.0</ele><time>2026-05-02T14:10:16.912Z</time></trkpt><trkpt lat="42.0979061" lon="13.5171385"><ele>876.0</ele><time>2026-05-02T14:10:17.911Z</time></trkpt><trkpt lat="42.0979346" lon="13.5170562"><ele>876.0</ele><time>2026-05-02T14:10:18.911Z</time></trkpt><trkpt lat="42.0979551" lon="13.5169685"><ele>876.0</ele><time>2026-05-02T14:10:19.911Z</time></trkpt><trkpt lat="42.0979698" lon="13.5168659"><ele>876.0</ele><time>2026-05-02T14:10:20.913Z</time></trkpt><trkpt lat="42.0979833" lon="13.5167582"><ele>876.0</ele><time>2026-05-02T14:10:21.911Z</time></trkpt><trkpt lat="42.098002" lon="13.5166493"><ele>876.0</ele><time>2026-05-02T14:10:22.912Z</time></trkpt><trkpt lat="42.0980223" lon="13.5165489"><ele>876.0</ele><time>2026-05-02T14:10:23.91Z</time></trkpt><trkpt lat="42.0980462" lon="13.5164497"><ele>876.0</ele><time>2026-05-02T14:10:24.911Z</time></trkpt><trkpt lat="42.0980681" lon="13.5163463"><ele>876.0</ele><time>2026-05-02T14:10:25.913Z</time></trkpt><trkpt lat="42.0980891" lon="13.5162416"><ele>876.0</ele><time>2026-05-02T14:10:26.912Z</time></trkpt><trkpt lat="42.0981162" lon="13.5161351"><ele>876.0</ele><time>2026-05-02T14:10:27.912Z</time></trkpt><trkpt lat="42.0981431" lon="13.5160375"><ele>876.0</ele><time>2026-05-02T14:10:28.911Z</time></trkpt><trkpt lat="42.0981736" lon="13.515953"><ele>877.3333333333334</ele><time>2026-05-02T14:10:29.91Z</time></trkpt><trkpt lat="42.0982138" lon="13.5158663"><ele>878.6666666666667</ele><time>2026-05-02T14:10:30.913Z</time></trkpt><trkpt lat="42.0982662" lon="13.5157868"><ele>880.0</ele><time>2026-05-02T14:10:31.911Z</time></trkpt><trkpt lat="42.0983256" lon="13.5157086"><ele>881.3333333333334</ele><time>2026-05-02T14:10:32.912Z</time></trkpt><trkpt lat="42.098382" lon="13.5156311"><ele>882.6666666666667</ele><time>2026-05-02T14:10:33.912Z</time></trkpt><trkpt lat="42.0984297" lon="13.5155495"><ele>884.0</ele><time>2026-05-02T14:10:34.911Z</time></trkpt><trkpt lat="42.0984705" lon="13.5154526"><ele>888.2</ele><time>2026-05-02T14:10:35.911Z</time></trkpt><trkpt lat="42.0985125" lon="13.515371"><ele>892.4000000000001</ele><time>2026-05-02T14:10:36.911Z</time></trkpt><trkpt lat="42.0985542" lon="13.5152832"><ele>896.6</ele><time>2026-05-02T14:10:37.911Z</time></trkpt><trkpt lat="42.0986124" lon="13.5151799"><ele>900.8</ele><time>2026-05-02T14:10:38.912Z</time></trkpt><trkpt lat="42.0986706" lon="13.5150672"><ele>905.0</ele><time>2026-05-02T14:10:39.912Z</time></trkpt><trkpt lat="42.0987311" lon="13.5149521"><ele>905.0000000000001</ele><time>2026-05-02T14:10:40.912Z</time></trkpt><trkpt lat="42.0987889" lon="13.5148303"><ele>905.0</ele><time>2026-05-02T14:10:41.912Z</time></trkpt><trkpt lat="42.0988403" lon="13.5147291"><ele>905.0</ele><time>2026-05-02T14:10:42.911Z</time></trkpt><trkpt lat="42.098884" lon="13.514626"><ele>905.0</ele><time>2026-05-02T14:10:43.911Z</time></trkpt><trkpt lat="42.0989182" lon="13.5145386"><ele>905.0000000000001</ele><time>2026-05-02T14:10:44.912Z</time></trkpt><trkpt lat="42.0989429" lon="13.5144529"><ele>905.0</ele><time>2026-05-02T14:10:45.913Z</time></trkpt><trkpt lat="42.0989743" lon="13.5143335"><ele>906.0</ele><time>2026-05-02T14:10:47.912Z</time></trkpt><trkpt lat="42.098908" lon="13.5142358"><ele>907.0</ele><time>2026-05-02T14:10:49.911Z</time></trkpt><trkpt lat="42.09886" lon="13.5141729"><ele>908.0</ele><time>2026-05-02T14:10:50.912Z</time></trkpt><trkpt lat="42.0988018" lon="13.5140585"><ele>909.0</ele><time>2026-05-02T14:10:51.912Z</time></trkpt><trkpt lat="42.0987455" lon="13.5139087"><ele>910.0</ele><time>2026-05-02T14:10:52.912Z</time></trkpt><trkpt lat="42.0986891" lon="13.5137241"><ele>912.2</ele><time>2026-05-02T14:10:53.912Z</time></trkpt><trkpt lat="42.0986354" lon="13.5135711"><ele>914.4</ele><time>2026-05-02T14:10:54.912Z</time></trkpt><trkpt lat="42.0985944" lon="13.5134252"><ele>916.5999999999999</ele><time>2026-05-02T14:10:55.911Z</time></trkpt><trkpt lat="42.0985614" lon="13.513296"><ele>918.8</ele><time>2026-05-02T14:10:56.911Z</time></trkpt><trkpt lat="42.0985533" lon="13.5131725"><ele>921.0</ele><time>2026-05-02T14:10:57.912Z</time></trkpt><trkpt lat="42.0985438" lon="13.5130458"><ele>921.0</ele><time>2026-05-02T14:10:58.911Z</time></trkpt><trkpt lat="42.0985192" lon="13.51293"><ele>921.0</ele><time>2026-05-02T14:10:59.912Z</time></trkpt><trkpt lat="42.0984922" lon="13.5128277"><ele>921.0</ele><time>2026-05-02T14:11:00.912Z</time></trkpt><trkpt lat="42.0984608" lon="13.5127344"><ele>921.0</ele><time>2026-05-02T14:11:01.912Z</time></trkpt><trkpt lat="42.0984366" lon="13.5126231"><ele>921.0</ele><time>2026-05-02T14:11:02.911Z</time></trkpt><trkpt lat="42.0984216" lon="13.5125042"><ele>921.0</ele><time>2026-05-02T14:11:03.91Z</time></trkpt><trkpt lat="42.0984101" lon="13.5123763"><ele>921.8</ele><time>2026-05-02T14:11:04.912Z</time></trkpt><trkpt lat="42.098397" lon="13.5122355"><ele>922.5999999999999</ele><time>2026-05-02T14:11:05.912Z</time></trkpt><trkpt lat="42.0983937" lon="13.5120977"><ele>923.4</ele><time>2026-05-02T14:11:06.91Z</time></trkpt><trkpt lat="42.0984019" lon="13.5119576"><ele>924.2</ele><time>2026-05-02T14:11:07.912Z</time></trkpt><trkpt lat="42.0984194" lon="13.5118155"><ele>925.0</ele><time>2026-05-02T14:11:08.913Z</time></trkpt><trkpt lat="42.0984381" lon="13.5116665"><ele>925.6666666666666</ele><time>2026-05-02T14:11:09.912Z</time></trkpt><trkpt lat="42.098439" lon="13.5115306"><ele>926.3333333333333</ele><time>2026-05-02T14:11:10.912Z</time></trkpt><trkpt lat="42.0984272" lon="13.5114148"><ele>927.0</ele><time>2026-05-02T14:11:11.912Z</time></trkpt><trkpt lat="42.0984103" lon="13.5113018"><ele>927.6666666666667</ele><time>2026-05-02T14:11:12.911Z</time></trkpt><trkpt lat="42.0983559" lon="13.5112066"><ele>928.3333333333334</ele><time>2026-05-02T14:11:13.911Z</time></trkpt><trkpt lat="42.0983099" lon="13.5111092"><ele>929.0</ele><time>2026-05-02T14:11:14.913Z</time></trkpt><trkpt lat="42.0982485" lon="13.511017"><ele>925.6</ele><time>2026-05-02T14:11:15.911Z</time></trkpt><trkpt lat="42.0981898" lon="13.5109156"><ele>922.2</ele><time>2026-05-02T14:11:16.911Z</time></trkpt><trkpt lat="42.0981426" lon="13.5108142"><ele>918.8000000000001</ele><time>2026-05-02T14:11:17.913Z</time></trkpt><trkpt lat="42.0980966" lon="13.5106921"><ele>915.4000000000001</ele><time>2026-05-02T14:11:18.911Z</time></trkpt><trkpt lat="42.0980554" lon="13.5105507"><ele>912.0</ele><time>2026-05-02T14:11:19.912Z</time></trkpt><trkpt lat="42.0980173" lon="13.5104143"><ele>912.0</ele><time>2026-05-02T14:11:20.912Z</time></trkpt><trkpt lat="42.0979669" lon="13.510291"><ele>912.0</ele><time>2026-05-02T14:11:21.912Z</time></trkpt><trkpt lat="42.0979098" lon="13.5101816"><ele>912.0</ele><time>2026-05-02T14:11:22.912Z</time></trkpt><trkpt lat="42.0978598" lon="13.5100719"><ele>912.0</ele><time>2026-05-02T14:11:23.911Z</time></trkpt><trkpt lat="42.0978119" lon="13.5099672"><ele>912.0</ele><time>2026-05-02T14:11:24.912Z</time></trkpt><trkpt lat="42.0977664" lon="13.5098644"><ele>912.0</ele><time>2026-05-02T14:11:25.911Z</time></trkpt><trkpt lat="42.0977303" lon="13.5097651"><ele>912.0</ele><time>2026-05-02T14:11:26.911Z</time></trkpt><trkpt lat="42.0976931" lon="13.509667"><ele>912.0</ele><time>2026-05-02T14:11:27.912Z</time></trkpt><trkpt lat="42.0976665" lon="13.5095632"><ele>912.0</ele><time>2026-05-02T14:11:28.91Z</time></trkpt><trkpt lat="42.0976343" lon="13.5094587"><ele>912.0</ele><time>2026-05-02T14:11:29.912Z</time></trkpt><trkpt lat="42.0976267" lon="13.5093578"><ele>912.0</ele><time>2026-05-02T14:11:30.911Z</time></trkpt><trkpt lat="42.0976364" lon="13.5092479"><ele>912.0</ele><time>2026-05-02T14:11:31.911Z</time></trkpt><trkpt lat="42.097666" lon="13.5091336"><ele>912.0</ele><time>2026-05-02T14:11:32.91Z</time></trkpt><trkpt lat="42.0977017" lon="13.5089992"><ele>912.0</ele><time>2026-05-02T14:11:33.911Z</time></trkpt><trkpt lat="42.0977388" lon="13.5088461"><ele>912.0</ele><time>2026-05-02T14:11:34.911Z</time></trkpt><trkpt lat="42.0977718" lon="13.508695"><ele>912.0</ele><time>2026-05-02T14:11:35.912Z</time></trkpt><trkpt lat="42.0977886" lon="13.5085349"><ele>912.0</ele><time>2026-05-02T14:11:36.911Z</time></trkpt><trkpt lat="42.0978041" lon="13.508375"><ele>912.0</ele><time>2026-05-02T14:11:37.911Z</time></trkpt><trkpt lat="42.0978129" lon="13.5082195"><ele>912.0</ele><time>2026-05-02T14:11:38.91Z</time></trkpt><trkpt lat="42.097828" lon="13.508067"><ele>912.0</ele><time>2026-05-02T14:11:39.911Z</time></trkpt><trkpt lat="42.0978468" lon="13.5079064"><ele>912.2</ele><time>2026-05-02T14:11:40.912Z</time></trkpt><trkpt lat="42.0978752" lon="13.5077589"><ele>912.4000000000001</ele><time>2026-05-02T14:11:41.912Z</time></trkpt><trkpt lat="42.0978987" lon="13.507621"><ele>912.5999999999999</ele><time>2026-05-02T14:11:42.912Z</time></trkpt><trkpt lat="42.097932" lon="13.5074903"><ele>912.8</ele><time>2026-05-02T14:11:43.911Z</time></trkpt><trkpt lat="42.0979822" lon="13.5073751"><ele>913.0</ele><time>2026-05-02T14:11:44.913Z</time></trkpt><trkpt lat="42.0980328" lon="13.5072774"><ele>913.0</ele><time>2026-05-02T14:11:45.912Z</time></trkpt><trkpt lat="42.0981081" lon="13.5071972"><ele>913.0</ele><time>2026-05-02T14:11:46.91Z</time></trkpt><trkpt lat="42.0981837" lon="13.5071144"><ele>913.0</ele><time>2026-05-02T14:11:47.911Z</time></trkpt><trkpt lat="42.0982705" lon="13.5070243"><ele>913.0</ele><time>2026-05-02T14:11:48.911Z</time></trkpt><trkpt lat="42.0983574" lon="13.5069282"><ele>913.0</ele><time>2026-05-02T14:11:49.913Z</time></trkpt><trkpt lat="42.0984252" lon="13.5068445"><ele>913.4</ele><time>2026-05-02T14:11:50.911Z</time></trkpt><trkpt lat="42.0984864" lon="13.5067497"><ele>913.8</ele><time>2026-05-02T14:11:51.912Z</time></trkpt><trkpt lat="42.0985324" lon="13.5066497"><ele>914.2</ele><time>2026-05-02T14:11:52.912Z</time></trkpt><trkpt lat="42.0985646" lon="13.5065354"><ele>914.6</ele><time>2026-05-02T14:11:53.912Z</time></trkpt><trkpt lat="42.0985963" lon="13.5064029"><ele>915.0</ele><time>2026-05-02T14:11:54.911Z</time></trkpt><trkpt lat="42.098632" lon="13.5062671"><ele>915.0</ele><time>2026-05-02T14:11:55.912Z</time></trkpt><trkpt lat="42.0986687" lon="13.5061373"><ele>915.0</ele><time>2026-05-02T14:11:56.912Z</time></trkpt><trkpt lat="42.0987106" lon="13.5060006"><ele>915.0</ele><time>2026-05-02T14:11:57.911Z</time></trkpt><trkpt lat="42.0987563" lon="13.5058652"><ele>915.0</ele><time>2026-05-02T14:11:58.91Z</time></trkpt><trkpt lat="42.0987958" lon="13.5057448"><ele>915.0</ele><time>2026-05-02T14:11:59.91Z</time></trkpt><trkpt lat="42.0988312" lon="13.5056142"><ele>915.0</ele><time>2026-05-02T14:12:00.912Z</time></trkpt><trkpt lat="42.0988705" lon="13.505508"><ele>915.0</ele><time>2026-05-02T14:12:01.911Z</time></trkpt><trkpt lat="42.0989174" lon="13.5054092"><ele>915.0</ele><time>2026-05-02T14:12:02.911Z</time></trkpt><trkpt lat="42.0989796" lon="13.5053015"><ele>915.0</ele><time>2026-05-02T14:12:03.913Z</time></trkpt><trkpt lat="42.0990464" lon="13.5051979"><ele>915.0</ele><time>2026-05-02T14:12:04.91Z</time></trkpt><trkpt lat="42.0991251" lon="13.5050987"><ele>917.2</ele><time>2026-05-02T14:12:05.911Z</time></trkpt><trkpt lat="42.0992037" lon="13.504996"><ele>919.4</ele><time>2026-05-02T14:12:06.911Z</time></trkpt><trkpt lat="42.0992812" lon="13.5048989"><ele>921.5999999999999</ele><time>2026-05-02T14:12:07.911Z</time></trkpt><trkpt lat="42.0993423" lon="13.5047774"><ele>923.8</ele><time>2026-05-02T14:12:08.91Z</time></trkpt><trkpt lat="42.0994171" lon="13.5046499"><ele>926.0</ele><time>2026-05-02T14:12:09.911Z</time></trkpt><trkpt lat="42.0994855" lon="13.5045186"><ele>927.25</ele><time>2026-05-02T14:12:10.91Z</time></trkpt><trkpt lat="42.0995453" lon="13.5043956"><ele>928.5</ele><time>2026-05-02T14:12:11.912Z</time></trkpt><trkpt lat="42.0996105" lon="13.5042709"><ele>929.75</ele><time>2026-05-02T14:12:12.911Z</time></trkpt><trkpt lat="42.0996725" lon="13.504147"><ele>931.0</ele><time>2026-05-02T14:12:13.911Z</time></trkpt><trkpt lat="42.0997359" lon="13.5040122"><ele>931.0</ele><time>2026-05-02T14:12:14.912Z</time></trkpt><trkpt lat="42.0997955" lon="13.5038858"><ele>931.0</ele><time>2026-05-02T14:12:15.91Z</time></trkpt><trkpt lat="42.0998571" lon="13.5037508"><ele>931.0</ele><time>2026-05-02T14:12:16.912Z</time></trkpt><trkpt lat="42.0999206" lon="13.5036201"><ele>931.0</ele><time>2026-05-02T14:12:17.91Z</time></trkpt><trkpt lat="42.0999801" lon="13.5034845"><ele>931.5</ele><time>2026-05-02T14:12:18.912Z</time></trkpt><trkpt lat="42.1000387" lon="13.5033565"><ele>932.0</ele><time>2026-05-02T14:12:19.911Z</time></trkpt><trkpt lat="42.1000968" lon="13.503224"><ele>932.5</ele><time>2026-05-02T14:12:20.911Z</time></trkpt><trkpt lat="42.100157" lon="13.5030928"><ele>933.0</ele><time>2026-05-02T14:12:21.911Z</time></trkpt><trkpt lat="42.1002224" lon="13.5029634"><ele>935.5</ele><time>2026-05-02T14:12:22.911Z</time></trkpt><trkpt lat="42.1002919" lon="13.5028253"><ele>938.0</ele><time>2026-05-02T14:12:23.91Z</time></trkpt><trkpt lat="42.1003611" lon="13.50269"><ele>940.5</ele><time>2026-05-02T14:12:24.91Z</time></trkpt><trkpt lat="42.1004354" lon="13.502551"><ele>943.0</ele><time>2026-05-02T14:12:25.912Z</time></trkpt><trkpt lat="42.1005135" lon="13.5024186"><ele>943.0</ele><time>2026-05-02T14:12:26.912Z</time></trkpt><trkpt lat="42.1005923" lon="13.5022983"><ele>943.0</ele><time>2026-05-02T14:12:27.911Z</time></trkpt><trkpt lat="42.1006707" lon="13.502185"><ele>943.0</ele><time>2026-05-02T14:12:28.912Z</time></trkpt><trkpt lat="42.1007587" lon="13.5020705"><ele>943.0</ele><time>2026-05-02T14:12:29.912Z</time></trkpt><trkpt lat="42.1008495" lon="13.5019588"><ele>944.25</ele><time>2026-05-02T14:12:30.911Z</time></trkpt><trkpt lat="42.100946" lon="13.5018632"><ele>945.5</ele><time>2026-05-02T14:12:31.912Z</time></trkpt><trkpt lat="42.1010386" lon="13.5017503"><ele>946.75</ele><time>2026-05-02T14:12:32.912Z</time></trkpt><trkpt lat="42.1011241" lon="13.5016386"><ele>948.0</ele><time>2026-05-02T14:12:33.911Z</time></trkpt><trkpt lat="42.1011876" lon="13.5015138"><ele>948.0</ele><time>2026-05-02T14:12:34.912Z</time></trkpt><trkpt lat="42.1012604" lon="13.5014012"><ele>948.0</ele><time>2026-05-02T14:12:35.911Z</time></trkpt><trkpt lat="42.1013262" lon="13.5012887"><ele>948.0</ele><time>2026-05-02T14:12:36.912Z</time></trkpt><trkpt lat="42.1013677" lon="13.5012071"><ele>948.0</ele><time>2026-05-02T14:12:37.912Z</time></trkpt><trkpt lat="42.1014123" lon="13.5011345"><ele>948.0</ele><time>2026-05-02T14:12:38.911Z</time></trkpt><trkpt lat="42.1015005" lon="13.5011309"><ele>948.0</ele><time>2026-05-02T14:12:41.912Z</time></trkpt><trkpt lat="42.1015604" lon="13.5012679"><ele>949.25</ele><time>2026-05-02T14:12:44.911Z</time></trkpt><trkpt lat="42.1015907" lon="13.5013744"><ele>950.5</ele><time>2026-05-02T14:12:45.913Z</time></trkpt><trkpt lat="42.1016315" lon="13.501541"><ele>951.75</ele><time>2026-05-02T14:12:46.911Z</time></trkpt><trkpt lat="42.1016685" lon="13.5017106"><ele>953.0</ele><time>2026-05-02T14:12:47.912Z</time></trkpt><trkpt lat="42.1017136" lon="13.501886"><ele>953.0</ele><time>2026-05-02T14:12:48.91Z</time></trkpt><trkpt lat="42.1017516" lon="13.5020528"><ele>953.0</ele><time>2026-05-02T14:12:49.911Z</time></trkpt><trkpt lat="42.1017931" lon="13.5021906"><ele>953.0</ele><time>2026-05-02T14:12:50.911Z</time></trkpt><trkpt lat="42.1018306" lon="13.5023161"><ele>953.0</ele><time>2026-05-02T14:12:51.911Z</time></trkpt><trkpt lat="42.1018636" lon="13.5024364"><ele>953.0</ele><time>2026-05-02T14:12:52.91Z</time></trkpt><trkpt lat="42.1019001" lon="13.5025474"><ele>951.6666666666667</ele><time>2026-05-02T14:12:53.912Z</time></trkpt><trkpt lat="42.1019416" lon="13.5026521"><ele>950.3333333333334</ele><time>2026-05-02T14:12:54.912Z</time></trkpt><trkpt lat="42.1019839" lon="13.5027416"><ele>949.0</ele><time>2026-05-02T14:12:55.911Z</time></trkpt><trkpt lat="42.1020346" lon="13.5028125"><ele>947.6666666666667</ele><time>2026-05-02T14:12:56.911Z</time></trkpt><trkpt lat="42.1020786" lon="13.5028835"><ele>946.3333333333334</ele><time>2026-05-02T14:12:57.91Z</time></trkpt><trkpt lat="42.1021542" lon="13.5030107"><ele>945.0</ele><time>2026-05-02T14:12:59.911Z</time></trkpt><trkpt lat="42.1021899" lon="13.5031597"><ele>944.1666666666666</ele><time>2026-05-02T14:13:01.91Z</time></trkpt><trkpt lat="42.1021529" lon="13.5033069"><ele>943.3333333333333</ele><time>2026-05-02T14:13:03.91Z</time></trkpt><trkpt lat="42.102121" lon="13.5033966"><ele>942.5</ele><time>2026-05-02T14:13:04.911Z</time></trkpt><trkpt lat="42.1020911" lon="13.5034866"><ele>941.6666666666666</ele><time>2026-05-02T14:13:05.912Z</time></trkpt><trkpt lat="42.1020569" lon="13.5035744"><ele>940.8333333333333</ele><time>2026-05-02T14:13:06.911Z</time></trkpt><trkpt lat="42.1020173" lon="13.5036735"><ele>940.0</ele><time>2026-05-02T14:13:07.912Z</time></trkpt><trkpt lat="42.1019847" lon="13.5037653"><ele>939.0</ele><time>2026-05-02T14:13:08.912Z</time></trkpt><trkpt lat="42.1019391" lon="13.5038673"><ele>938.0</ele><time>2026-05-02T14:13:09.911Z</time></trkpt><trkpt lat="42.1018916" lon="13.5039675"><ele>937.0</ele><time>2026-05-02T14:13:10.911Z</time></trkpt><trkpt lat="42.1018434" lon="13.504088"><ele>936.0</ele><time>2026-05-02T14:13:11.912Z</time></trkpt><trkpt lat="42.1017896" lon="13.504214"><ele>935.0</ele><time>2026-05-02T14:13:12.912Z</time></trkpt><trkpt lat="42.1017398" lon="13.5043407"><ele>935.0</ele><time>2026-05-02T14:13:13.911Z</time></trkpt><trkpt lat="42.1016803" lon="13.5044712"><ele>935.0</ele><time>2026-05-02T14:13:14.912Z</time></trkpt><trkpt lat="42.1016196" lon="13.5045958"><ele>935.0</ele><time>2026-05-02T14:13:15.911Z</time></trkpt><trkpt lat="42.1015565" lon="13.50472"><ele>935.0</ele><time>2026-05-02T14:13:16.912Z</time></trkpt><trkpt lat="42.1015007" lon="13.5048382"><ele>935.0</ele><time>2026-05-02T14:13:17.911Z</time></trkpt><trkpt lat="42.1014496" lon="13.5049721"><ele>934.0</ele><time>2026-05-02T14:13:18.911Z</time></trkpt><trkpt lat="42.1014079" lon="13.5051087"><ele>933.0</ele><time>2026-05-02T14:13:19.91Z</time></trkpt><trkpt lat="42.1013851" lon="13.5052699"><ele>932.0</ele><time>2026-05-02T14:13:20.912Z</time></trkpt><trkpt lat="42.1013538" lon="13.505432"><ele>931.0</ele><time>2026-05-02T14:13:21.911Z</time></trkpt><trkpt lat="42.1013253" lon="13.5055822"><ele>931.0</ele><time>2026-05-02T14:13:22.91Z</time></trkpt><trkpt lat="42.1013" lon="13.5057354"><ele>930.9999999999999</ele><time>2026-05-02T14:13:23.912Z</time></trkpt><trkpt lat="42.1012766" lon="13.5058707"><ele>930.9999999999999</ele><time>2026-05-02T14:13:24.912Z</time></trkpt><trkpt lat="42.1012473" lon="13.5060036"><ele>931.0</ele><time>2026-05-02T14:13:25.912Z</time></trkpt><trkpt lat="42.1012221" lon="13.506143"><ele>931.0</ele><time>2026-05-02T14:13:26.911Z</time></trkpt><trkpt lat="42.1012026" lon="13.5062832"><ele>931.0</ele><time>2026-05-02T14:13:27.911Z</time></trkpt><trkpt lat="42.1011915" lon="13.5064413"><ele>931.0</ele><time>2026-05-02T14:13:28.912Z</time></trkpt><trkpt lat="42.1011788" lon="13.5065977"><ele>931.0</ele><time>2026-05-02T14:13:29.912Z</time></trkpt><trkpt lat="42.10116" lon="13.5067585"><ele>931.0</ele><time>2026-05-02T14:13:30.91Z</time></trkpt><trkpt lat="42.1011536" lon="13.5069262"><ele>931.0</ele><time>2026-05-02T14:13:31.911Z</time></trkpt><trkpt lat="42.101155" lon="13.5070733"><ele>931.0</ele><time>2026-05-02T14:13:32.911Z</time></trkpt><trkpt lat="42.1011702" lon="13.5072276"><ele>931.0</ele><time>2026-05-02T14:13:33.911Z</time></trkpt><trkpt lat="42.1011841" lon="13.5073736"><ele>931.0</ele><time>2026-05-02T14:13:34.91Z</time></trkpt><trkpt lat="42.1011873" lon="13.5075299"><ele>933.0</ele><time>2026-05-02T14:13:35.912Z</time></trkpt><trkpt lat="42.101184" lon="13.507682"><ele>935.0</ele><time>2026-05-02T14:13:36.91Z</time></trkpt><trkpt lat="42.1011601" lon="13.5078384"><ele>937.0</ele><time>2026-05-02T14:13:37.911Z</time></trkpt><trkpt lat="42.1011346" lon="13.5079977"><ele>939.0</ele><time>2026-05-02T14:13:38.911Z</time></trkpt><trkpt lat="42.1011096" lon="13.5081618"><ele>940.75</ele><time>2026-05-02T14:13:39.911Z</time></trkpt><trkpt lat="42.1010854" lon="13.5083245"><ele>942.5</ele><time>2026-05-02T14:13:40.912Z</time></trkpt><trkpt lat="42.1010705" lon="13.5084786"><ele>944.25</ele><time>2026-05-02T14:13:41.912Z</time></trkpt><trkpt lat="42.1010473" lon="13.5086339"><ele>946.0</ele><time>2026-05-02T14:13:42.911Z</time></trkpt><trkpt lat="42.1010271" lon="13.5087803"><ele>948.0</ele><time>2026-05-02T14:13:43.911Z</time></trkpt><trkpt lat="42.1009955" lon="13.5089208"><ele>949.9999999999999</ele><time>2026-05-02T14:13:44.912Z</time></trkpt><trkpt lat="42.1009679" lon="13.5090685"><ele>951.9999999999999</ele><time>2026-05-02T14:13:45.912Z</time></trkpt><trkpt lat="42.1009188" lon="13.5091831"><ele>954.0</ele><time>2026-05-02T14:13:46.912Z</time></trkpt><trkpt lat="42.1008623" lon="13.5093018"><ele>956.0</ele><time>2026-05-02T14:13:47.911Z</time></trkpt><trkpt lat="42.1008126" lon="13.5094068"><ele>956.0</ele><time>2026-05-02T14:13:48.912Z</time></trkpt><trkpt lat="42.1007647" lon="13.5095244"><ele>956.0</ele><time>2026-05-02T14:13:50.91Z</time></trkpt><trkpt lat="42.1008454" lon="13.5095498"><ele>956.0</ele><time>2026-05-02T14:13:54.911Z</time></trkpt><trkpt lat="42.100951" lon="13.5093767"><ele>956.0</ele><time>2026-05-02T14:13:56.912Z</time></trkpt><trkpt lat="42.1010182" lon="13.5092707"><ele>956.0</ele><time>2026-05-02T14:13:57.91Z</time></trkpt><trkpt lat="42.1010877" lon="13.5091661"><ele>956.0</ele><time>2026-05-02T14:13:58.912Z</time></trkpt><trkpt lat="42.1011689" lon="13.5090447"><ele>956.0</ele><time>2026-05-02T14:13:59.911Z</time></trkpt><trkpt lat="42.1012639" lon="13.5089189"><ele>956.0</ele><time>2026-05-02T14:14:00.911Z</time></trkpt><trkpt lat="42.1013504" lon="13.5088012"><ele>955.25</ele><time>2026-05-02T14:14:01.912Z</time></trkpt><trkpt lat="42.1014357" lon="13.5086889"><ele>954.5</ele><time>2026-05-02T14:14:02.911Z</time></trkpt><trkpt lat="42.1015213" lon="13.5085776"><ele>953.75</ele><time>2026-05-02T14:14:03.912Z</time></trkpt><trkpt lat="42.1016076" lon="13.5084681"><ele>953.0</ele><time>2026-05-02T14:14:04.911Z</time></trkpt><trkpt lat="42.1016931" lon="13.508356"><ele>953.0</ele><time>2026-05-02T14:14:05.913Z</time></trkpt><trkpt lat="42.1017757" lon="13.5082462"><ele>953.0</ele><time>2026-05-02T14:14:06.912Z</time></trkpt><trkpt lat="42.101861" lon="13.508138"><ele>953.0</ele><time>2026-05-02T14:14:07.911Z</time></trkpt><trkpt lat="42.1019344" lon="13.5080524"><ele>953.0</ele><time>2026-05-02T14:14:08.911Z</time></trkpt><trkpt lat="42.102008" lon="13.5079495"><ele>953.0</ele><time>2026-05-02T14:14:09.913Z</time></trkpt><trkpt lat="42.1020755" lon="13.5078401"><ele>951.8</ele><time>2026-05-02T14:14:10.913Z</time></trkpt><trkpt lat="42.1021431" lon="13.5077311"><ele>950.5999999999999</ele><time>2026-05-02T14:14:11.911Z</time></trkpt><trkpt lat="42.1022082" lon="13.5076278"><ele>949.4000000000001</ele><time>2026-05-02T14:14:12.911Z</time></trkpt><trkpt lat="42.1022734" lon="13.5075245"><ele>948.2</ele><time>2026-05-02T14:14:13.911Z</time></trkpt><trkpt lat="42.1023276" lon="13.5074195"><ele>947.0</ele><time>2026-05-02T14:14:14.91Z</time></trkpt><trkpt lat="42.1023783" lon="13.5073086"><ele>949.0000000000001</ele><time>2026-05-02T14:14:15.912Z</time></trkpt><trkpt lat="42.1024275" lon="13.5071996"><ele>951.0</ele><time>2026-05-02T14:14:16.911Z</time></trkpt><trkpt lat="42.1024717" lon="13.5071016"><ele>953.0</ele><time>2026-05-02T14:14:17.911Z</time></trkpt><trkpt lat="42.1025084" lon="13.5070118"><ele>955.0</ele><time>2026-05-02T14:14:18.911Z</time></trkpt><trkpt lat="42.1025434" lon="13.5069349"><ele>957.0000000000001</ele><time>2026-05-02T14:14:19.911Z</time></trkpt><trkpt lat="42.1025955" lon="13.5068266"><ele>959.0</ele><time>2026-05-02T14:14:21.913Z</time></trkpt><trkpt lat="42.1026261" lon="13.5067509"><ele>959.0</ele><time>2026-05-02T14:14:23.912Z</time></trkpt><trkpt lat="42.102663" lon="13.5066301"><ele>959.0</ele><time>2026-05-02T14:14:32.912Z</time></trkpt><trkpt lat="42.1027153" lon="13.506456"><ele>959.0</ele><time>2026-05-02T14:14:34.91Z</time></trkpt><trkpt lat="42.102756" lon="13.5063194"><ele>959.0</ele><time>2026-05-02T14:14:35.912Z</time></trkpt><trkpt lat="42.1027959" lon="13.5061789"><ele>957.0</ele><time>2026-05-02T14:14:36.91Z</time></trkpt><trkpt lat="42.1028393" lon="13.5060295"><ele>955.0</ele><time>2026-05-02T14:14:37.91Z</time></trkpt><trkpt lat="42.1028816" lon="13.5058785"><ele>953.0</ele><time>2026-05-02T14:14:38.911Z</time></trkpt><trkpt lat="42.1029266" lon="13.5057161"><ele>951.0</ele><time>2026-05-02T14:14:39.911Z</time></trkpt><trkpt lat="42.1029756" lon="13.5055442"><ele>949.75</ele><time>2026-05-02T14:14:40.911Z</time></trkpt><trkpt lat="42.1030296" lon="13.5053697"><ele>948.5</ele><time>2026-05-02T14:14:41.912Z</time></trkpt><trkpt lat="42.1030952" lon="13.5052043"><ele>947.25</ele><time>2026-05-02T14:14:42.91Z</time></trkpt><trkpt lat="42.103176" lon="13.5050666"><ele>946.0</ele><time>2026-05-02T14:14:43.911Z</time></trkpt><trkpt lat="42.1032696" lon="13.5049539"><ele>951.25</ele><time>2026-05-02T14:14:44.912Z</time></trkpt><trkpt lat="42.1033726" lon="13.5048697"><ele>956.5</ele><time>2026-05-02T14:14:45.911Z</time></trkpt><trkpt lat="42.1034814" lon="13.5047998"><ele>961.75</ele><time>2026-05-02T14:14:46.912Z</time></trkpt><trkpt lat="42.1035955" lon="13.5047265"><ele>967.0</ele><time>2026-05-02T14:14:47.911Z</time></trkpt><trkpt lat="42.1037103" lon="13.5046564"><ele>968.0</ele><time>2026-05-02T14:14:48.911Z</time></trkpt><trkpt lat="42.1038167" lon="13.5045768"><ele>969.0</ele><time>2026-05-02T14:14:49.911Z</time></trkpt><trkpt lat="42.1039201" lon="13.5044902"><ele>970.0</ele><time>2026-05-02T14:14:50.912Z</time></trkpt><trkpt lat="42.104022" lon="13.5043939"><ele>971.0</ele><time>2026-05-02T14:14:51.912Z</time></trkpt><trkpt lat="42.1041207" lon="13.5042804"><ele>971.0</ele><time>2026-05-02T14:14:52.911Z</time></trkpt><trkpt lat="42.1042102" lon="13.504164"><ele>971.0</ele><time>2026-05-02T14:14:53.912Z</time></trkpt><trkpt lat="42.1042996" lon="13.5040463"><ele>971.0</ele><time>2026-05-02T14:14:54.91Z</time></trkpt><trkpt lat="42.1043842" lon="13.5039167"><ele>971.0</ele><time>2026-05-02T14:14:55.91Z</time></trkpt><trkpt lat="42.1044571" lon="13.5037788"><ele>970.25</ele><time>2026-05-02T14:14:56.911Z</time></trkpt><trkpt lat="42.1045278" lon="13.5036383"><ele>969.5</ele><time>2026-05-02T14:14:57.91Z</time></trkpt><trkpt lat="42.104598" lon="13.5034914"><ele>968.75</ele><time>2026-05-02T14:14:58.91Z</time></trkpt><trkpt lat="42.1046627" lon="13.5033492"><ele>968.0</ele><time>2026-05-02T14:14:59.911Z</time></trkpt><trkpt lat="42.1047278" lon="13.5032035"><ele>968.0</ele><time>2026-05-02T14:15:00.911Z</time></trkpt><trkpt lat="42.1047868" lon="13.5030529"><ele>968.0</ele><time>2026-05-02T14:15:01.911Z</time></trkpt><trkpt lat="42.1048429" lon="13.5028981"><ele>968.0</ele><time>2026-05-02T14:15:02.912Z</time></trkpt><trkpt lat="42.104899" lon="13.5027426"><ele>968.0</ele><time>2026-05-02T14:15:03.91Z</time></trkpt><trkpt lat="42.1049504" lon="13.5025784"><ele>972.25</ele><time>2026-05-02T14:15:04.911Z</time></trkpt><trkpt lat="42.1050022" lon="13.5024106"><ele>976.5</ele><time>2026-05-02T14:15:05.912Z</time></trkpt><trkpt lat="42.1050499" lon="13.5022401"><ele>980.75</ele><time>2026-05-02T14:15:06.91Z</time></trkpt><trkpt lat="42.1050968" lon="13.5020698"><ele>985.0</ele><time>2026-05-02T14:15:07.911Z</time></trkpt><trkpt lat="42.1051417" lon="13.5018962"><ele>985.0</ele><time>2026-05-02T14:15:08.912Z</time></trkpt><trkpt lat="42.1051867" lon="13.5017224"><ele>985.0</ele><time>2026-05-02T14:15:09.911Z</time></trkpt><trkpt lat="42.1052295" lon="13.5015512"><ele>985.0</ele><time>2026-05-02T14:15:10.911Z</time></trkpt><trkpt lat="42.1052723" lon="13.5013845"><ele>985.0</ele><time>2026-05-02T14:15:11.911Z</time></trkpt><trkpt lat="42.1053066" lon="13.5012126"><ele>984.75</ele><time>2026-05-02T14:15:12.911Z</time></trkpt><trkpt lat="42.1053426" lon="13.5010449"><ele>984.5</ele><time>2026-05-02T14:15:13.91Z</time></trkpt><trkpt lat="42.105369" lon="13.5008732"><ele>984.25</ele><time>2026-05-02T14:15:14.912Z</time></trkpt><trkpt lat="42.1053897" lon="13.5007027"><ele>984.0</ele><time>2026-05-02T14:15:15.911Z</time></trkpt><trkpt lat="42.1054065" lon="13.5005451"><ele>986.0</ele><time>2026-05-02T14:15:16.912Z</time></trkpt><trkpt lat="42.1054203" lon="13.5003821"><ele>988.0</ele><time>2026-05-02T14:15:17.911Z</time></trkpt><trkpt lat="42.1054304" lon="13.5002179"><ele>990.0</ele><time>2026-05-02T14:15:18.911Z</time></trkpt><trkpt lat="42.1054261" lon="13.5000607"><ele>992.0</ele><time>2026-05-02T14:15:19.911Z</time></trkpt><trkpt lat="42.1053991" lon="13.4999091"><ele>992.0</ele><time>2026-05-02T14:15:20.91Z</time></trkpt><trkpt lat="42.1053527" lon="13.4997681"><ele>992.0</ele><time>2026-05-02T14:15:21.912Z</time></trkpt><trkpt lat="42.1052876" lon="13.4996409"><ele>992.0</ele><time>2026-05-02T14:15:22.911Z</time></trkpt><trkpt lat="42.1052083" lon="13.4995131"><ele>992.0</ele><time>2026-05-02T14:15:23.912Z</time></trkpt><trkpt lat="42.105121" lon="13.4993935"><ele>992.0</ele><time>2026-05-02T14:15:24.911Z</time></trkpt><trkpt lat="42.1050263" lon="13.499279"><ele>992.0</ele><time>2026-05-02T14:15:25.912Z</time></trkpt><trkpt lat="42.1049309" lon="13.4991668"><ele>992.0</ele><time>2026-05-02T14:15:26.912Z</time></trkpt><trkpt lat="42.1048398" lon="13.4990597"><ele>992.0</ele><time>2026-05-02T14:15:27.911Z</time></trkpt><trkpt lat="42.1047519" lon="13.4989439"><ele>992.0</ele><time>2026-05-02T14:15:28.911Z</time></trkpt><trkpt lat="42.1046848" lon="13.498818"><ele>992.0</ele><time>2026-05-02T14:15:29.91Z</time></trkpt><trkpt lat="42.1046251" lon="13.4986876"><ele>992.0</ele><time>2026-05-02T14:15:30.911Z</time></trkpt><trkpt lat="42.1045814" lon="13.4985459"><ele>992.0</ele><time>2026-05-02T14:15:31.911Z</time></trkpt><trkpt lat="42.1045557" lon="13.4983942"><ele>992.5</ele><time>2026-05-02T14:15:32.911Z</time></trkpt><trkpt lat="42.1045494" lon="13.4982417"><ele>993.0</ele><time>2026-05-02T14:15:33.91Z</time></trkpt><trkpt lat="42.1045613" lon="13.4980842"><ele>993.5</ele><time>2026-05-02T14:15:34.911Z</time></trkpt><trkpt lat="42.1046033" lon="13.4979425"><ele>994.0</ele><time>2026-05-02T14:15:35.911Z</time></trkpt><trkpt lat="42.1046724" lon="13.4978185"><ele>994.0</ele><time>2026-05-02T14:15:36.912Z</time></trkpt><trkpt lat="42.1047499" lon="13.4977118"><ele>994.0</ele><time>2026-05-02T14:15:37.911Z</time></trkpt><trkpt lat="42.1048413" lon="13.4976103"><ele>994.0</ele><time>2026-05-02T14:15:38.91Z</time></trkpt><trkpt lat="42.1049427" lon="13.4975128"><ele>994.0</ele><time>2026-05-02T14:15:39.913Z</time></trkpt><trkpt lat="42.1050542" lon="13.4974201"><ele>995.75</ele><time>2026-05-02T14:15:40.91Z</time></trkpt><trkpt lat="42.105166" lon="13.4973231"><ele>997.5</ele><time>2026-05-02T14:15:41.913Z</time></trkpt><trkpt lat="42.105283" lon="13.4972258"><ele>999.25</ele><time>2026-05-02T14:15:42.911Z</time></trkpt><trkpt lat="42.1054061" lon="13.4971263"><ele>1001.0</ele><time>2026-05-02T14:15:43.911Z</time></trkpt><trkpt lat="42.1055256" lon="13.4970271"><ele>1001.0</ele><time>2026-05-02T14:15:44.912Z</time></trkpt><trkpt lat="42.1056421" lon="13.4969364"><ele>1001.0</ele><time>2026-05-02T14:15:45.912Z</time></trkpt><trkpt lat="42.1057566" lon="13.4968449"><ele>1001.0</ele><time>2026-05-02T14:15:46.911Z</time></trkpt><trkpt lat="42.1058653" lon="13.4967593"><ele>1001.0</ele><time>2026-05-02T14:15:47.911Z</time></trkpt><trkpt lat="42.1059738" lon="13.4966712"><ele>1002.5</ele><time>2026-05-02T14:15:48.911Z</time></trkpt><trkpt lat="42.106081" lon="13.4965819"><ele>1004.0</ele><time>2026-05-02T14:15:49.91Z</time></trkpt><trkpt lat="42.1061853" lon="13.496485"><ele>1005.5</ele><time>2026-05-02T14:15:50.913Z</time></trkpt><trkpt lat="42.1062837" lon="13.4963769"><ele>1007.0</ele><time>2026-05-02T14:15:51.911Z</time></trkpt><trkpt lat="42.1063758" lon="13.4962501"><ele>1007.0</ele><time>2026-05-02T14:15:52.91Z</time></trkpt><trkpt lat="42.1064593" lon="13.496116"><ele>1007.0</ele><time>2026-05-02T14:15:53.912Z</time></trkpt><trkpt lat="42.1065374" lon="13.4959631"><ele>1007.0</ele><time>2026-05-02T14:15:54.912Z</time></trkpt><trkpt lat="42.1065957" lon="13.4958153"><ele>1007.0</ele><time>2026-05-02T14:15:55.912Z</time></trkpt><trkpt lat="42.1066461" lon="13.4956507"><ele>1009.75</ele><time>2026-05-02T14:15:56.912Z</time></trkpt><trkpt lat="42.1066795" lon="13.4954808"><ele>1012.5</ele><time>2026-05-02T14:15:57.91Z</time></trkpt><trkpt lat="42.1067086" lon="13.4953099"><ele>1015.25</ele><time>2026-05-02T14:15:58.912Z</time></trkpt><trkpt lat="42.106744" lon="13.4951418"><ele>1018.0</ele><time>2026-05-02T14:15:59.912Z</time></trkpt><trkpt lat="42.1067766" lon="13.4949739"><ele>1018.0</ele><time>2026-05-02T14:16:00.911Z</time></trkpt><trkpt lat="42.1068128" lon="13.4948124"><ele>1018.0</ele><time>2026-05-02T14:16:01.911Z</time></trkpt><trkpt lat="42.1068502" lon="13.4946439"><ele>1018.0</ele><time>2026-05-02T14:16:02.912Z</time></trkpt><trkpt lat="42.106896" lon="13.4944821"><ele>1018.0</ele><time>2026-05-02T14:16:03.911Z</time></trkpt><trkpt lat="42.1069567" lon="13.4943343"><ele>1017.5</ele><time>2026-05-02T14:16:04.911Z</time></trkpt><trkpt lat="42.1070254" lon="13.4941924"><ele>1017.0</ele><time>2026-05-02T14:16:05.911Z</time></trkpt><trkpt lat="42.1071099" lon="13.4940638"><ele>1016.5</ele><time>2026-05-02T14:16:06.911Z</time></trkpt><trkpt lat="42.1072013" lon="13.493927"><ele>1016.0</ele><time>2026-05-02T14:16:07.91Z</time></trkpt><trkpt lat="42.1072977" lon="13.4937938"><ele>1015.25</ele><time>2026-05-02T14:16:08.911Z</time></trkpt><trkpt lat="42.1073902" lon="13.493664"><ele>1014.5</ele><time>2026-05-02T14:16:09.911Z</time></trkpt><trkpt lat="42.1074744" lon="13.4935374"><ele>1013.75</ele><time>2026-05-02T14:16:10.912Z</time></trkpt><trkpt lat="42.1075523" lon="13.4934156"><ele>1013.0</ele><time>2026-05-02T14:16:11.912Z</time></trkpt><trkpt lat="42.1076169" lon="13.493284"><ele>1017.25</ele><time>2026-05-02T14:16:12.912Z</time></trkpt><trkpt lat="42.1076613" lon="13.4931385"><ele>1021.5</ele><time>2026-05-02T14:16:13.911Z</time></trkpt><trkpt lat="42.1076771" lon="13.4929803"><ele>1025.75</ele><time>2026-05-02T14:16:14.913Z</time></trkpt><trkpt lat="42.1076687" lon="13.4928198"><ele>1030.0</ele><time>2026-05-02T14:16:15.911Z</time></trkpt><trkpt lat="42.1076339" lon="13.4926612"><ele>1031.5</ele><time>2026-05-02T14:16:16.912Z</time></trkpt><trkpt lat="42.107605" lon="13.4925023"><ele>1033.0</ele><time>2026-05-02T14:16:17.91Z</time></trkpt><trkpt lat="42.1075666" lon="13.4923461"><ele>1034.5</ele><time>2026-05-02T14:16:18.911Z</time></trkpt><trkpt lat="42.1075338" lon="13.4921854"><ele>1036.0</ele><time>2026-05-02T14:16:19.912Z</time></trkpt><trkpt lat="42.1074974" lon="13.492033"><ele>1038.5</ele><time>2026-05-02T14:16:20.911Z</time></trkpt><trkpt lat="42.1074506" lon="13.4918759"><ele>1041.0</ele><time>2026-05-02T14:16:21.911Z</time></trkpt><trkpt lat="42.107387" lon="13.4917274"><ele>1043.5</ele><time>2026-05-02T14:16:22.912Z</time></trkpt><trkpt lat="42.1073069" lon="13.4915876"><ele>1046.0</ele><time>2026-05-02T14:16:23.912Z</time></trkpt><trkpt lat="42.107233" lon="13.4914556"><ele>1041.75</ele><time>2026-05-02T14:16:24.91Z</time></trkpt><trkpt lat="42.1071661" lon="13.4913269"><ele>1037.5</ele><time>2026-05-02T14:16:25.911Z</time></trkpt><trkpt lat="42.1071214" lon="13.4911893"><ele>1033.25</ele><time>2026-05-02T14:16:26.911Z</time></trkpt><trkpt lat="42.1070995" lon="13.4910323"><ele>1029.0</ele><time>2026-05-02T14:16:27.911Z</time></trkpt><trkpt lat="42.1071016" lon="13.4908605"><ele>1029.0</ele><time>2026-05-02T14:16:28.911Z</time></trkpt><trkpt lat="42.1071186" lon="13.4906785"><ele>1029.0</ele><time>2026-05-02T14:16:29.91Z</time></trkpt><trkpt lat="42.1071467" lon="13.4904975"><ele>1029.0</ele><time>2026-05-02T14:16:30.911Z</time></trkpt><trkpt lat="42.1071822" lon="13.4903017"><ele>1029.0</ele><time>2026-05-02T14:16:31.911Z</time></trkpt><trkpt lat="42.1072178" lon="13.4901019"><ele>1030.3333333333333</ele><time>2026-05-02T14:16:32.911Z</time></trkpt><trkpt lat="42.107259" lon="13.4899023"><ele>1031.6666666666665</ele><time>2026-05-02T14:16:33.911Z</time></trkpt><trkpt lat="42.1072979" lon="13.4897025"><ele>1033.0</ele><time>2026-05-02T14:16:34.91Z</time></trkpt><trkpt lat="42.1073317" lon="13.4895085"><ele>1034.5</ele><time>2026-05-02T14:16:35.911Z</time></trkpt><trkpt lat="42.1073743" lon="13.4893183"><ele>1036.0</ele><time>2026-05-02T14:16:36.912Z</time></trkpt><trkpt lat="42.1074165" lon="13.489137"><ele>1037.5</ele><time>2026-05-02T14:16:37.91Z</time></trkpt><trkpt lat="42.1074697" lon="13.4889645"><ele>1039.0</ele><time>2026-05-02T14:16:38.912Z</time></trkpt><trkpt lat="42.1075418" lon="13.4888142"><ele>1041.0</ele><time>2026-05-02T14:16:39.912Z</time></trkpt><trkpt lat="42.1076354" lon="13.4886873"><ele>1043.0</ele><time>2026-05-02T14:16:40.912Z</time></trkpt><trkpt lat="42.107751" lon="13.4885922"><ele>1045.0</ele><time>2026-05-02T14:16:41.91Z</time></trkpt><trkpt lat="42.1078809" lon="13.4885163"><ele>1047.0</ele><time>2026-05-02T14:16:42.911Z</time></trkpt><trkpt lat="42.1080148" lon="13.4884653"><ele>1047.0</ele><time>2026-05-02T14:16:43.911Z</time></trkpt><trkpt lat="42.1081618" lon="13.4884029"><ele>1047.0</ele><time>2026-05-02T14:16:44.912Z</time></trkpt><trkpt lat="42.1083088" lon="13.4883268"><ele>1047.0</ele><time>2026-05-02T14:16:45.911Z</time></trkpt><trkpt lat="42.1084581" lon="13.4882424"><ele>1050.3333333333333</ele><time>2026-05-02T14:16:46.912Z</time></trkpt><trkpt lat="42.1085998" lon="13.4881135"><ele>1053.6666666666665</ele><time>2026-05-02T14:16:47.911Z</time></trkpt><trkpt lat="42.1087252" lon="13.4879848"><ele>1057.0</ele><time>2026-05-02T14:16:48.91Z</time></trkpt><trkpt lat="42.1088294" lon="13.4878465"><ele>1057.0</ele><time>2026-05-02T14:16:49.911Z</time></trkpt><trkpt lat="42.1089172" lon="13.4877173"><ele>1057.0</ele><time>2026-05-02T14:16:50.912Z</time></trkpt><trkpt lat="42.1089831" lon="13.487602"><ele>1057.0</ele><time>2026-05-02T14:16:51.911Z</time></trkpt><trkpt lat="42.1090251" lon="13.4875092"><ele>1057.0</ele><time>2026-05-02T14:16:52.911Z</time></trkpt><trkpt lat="42.1090622" lon="13.4873694"><ele>1057.0</ele><time>2026-05-02T14:16:54.91Z</time></trkpt><trkpt lat="42.1090699" lon="13.4872576"><ele>1059.4</ele><time>2026-05-02T14:16:57.912Z</time></trkpt><trkpt lat="42.1091355" lon="13.4872008"><ele>1061.8000000000002</ele><time>2026-05-02T14:18:13.912Z</time></trkpt><trkpt lat="42.1092166" lon="13.4871002"><ele>1064.2</ele><time>2026-05-02T14:18:15.912Z</time></trkpt><trkpt lat="42.1092677" lon="13.4870104"><ele>1066.6000000000001</ele><time>2026-05-02T14:18:16.911Z</time></trkpt><trkpt lat="42.1093314" lon="13.4869005"><ele>1069.0</ele><time>2026-05-02T14:18:17.912Z</time></trkpt><trkpt lat="42.1093941" lon="13.4867787"><ele>1069.0</ele><time>2026-05-02T14:18:18.911Z</time></trkpt><trkpt lat="42.1094673" lon="13.4866387"><ele>1069.0</ele><time>2026-05-02T14:18:19.911Z</time></trkpt><trkpt lat="42.1095368" lon="13.4864882"><ele>1069.0</ele><time>2026-05-02T14:18:20.912Z</time></trkpt><trkpt lat="42.1096115" lon="13.4863317"><ele>1069.0</ele><time>2026-05-02T14:18:21.912Z</time></trkpt><trkpt lat="42.1096889" lon="13.4861675"><ele>1067.3333333333333</ele><time>2026-05-02T14:18:22.912Z</time></trkpt><trkpt lat="42.1097713" lon="13.485994"><ele>1065.6666666666667</ele><time>2026-05-02T14:18:23.911Z</time></trkpt><trkpt lat="42.1098585" lon="13.4858117"><ele>1064.0</ele><time>2026-05-02T14:18:24.912Z</time></trkpt><trkpt lat="42.1099346" lon="13.4856193"><ele>1070.3333333333335</ele><time>2026-05-02T14:18:25.91Z</time></trkpt><trkpt lat="42.1099859" lon="13.4854143"><ele>1076.6666666666667</ele><time>2026-05-02T14:18:26.91Z</time></trkpt><trkpt lat="42.1100107" lon="13.4852032"><ele>1083.0</ele><time>2026-05-02T14:18:27.91Z</time></trkpt><trkpt lat="42.1100088" lon="13.4849896"><ele>1083.0</ele><time>2026-05-02T14:18:28.912Z</time></trkpt><trkpt lat="42.109991" lon="13.4847754"><ele>1083.0</ele><time>2026-05-02T14:18:29.911Z</time></trkpt><trkpt lat="42.1099694" lon="13.4845539"><ele>1083.0</ele><time>2026-05-02T14:18:30.912Z</time></trkpt><trkpt lat="42.1099536" lon="13.4843413"><ele>1084.25</ele><time>2026-05-02T14:18:31.912Z</time></trkpt><trkpt lat="42.1099464" lon="13.4841338"><ele>1085.5</ele><time>2026-05-02T14:18:32.912Z</time></trkpt><trkpt lat="42.1099531" lon="13.4839377"><ele>1086.75</ele><time>2026-05-02T14:18:33.912Z</time></trkpt><trkpt lat="42.1099759" lon="13.4837414"><ele>1088.0</ele><time>2026-05-02T14:18:34.911Z</time></trkpt><trkpt lat="42.1100152" lon="13.4835541"><ele>1088.0</ele><time>2026-05-02T14:18:35.911Z</time></trkpt><trkpt lat="42.1100707" lon="13.4833789"><ele>1088.0</ele><time>2026-05-02T14:18:36.911Z</time></trkpt><trkpt lat="42.1101397" lon="13.4832086"><ele>1088.0</ele><time>2026-05-02T14:18:37.912Z</time></trkpt><trkpt lat="42.1102225" lon="13.483046"><ele>1088.0</ele><time>2026-05-02T14:18:38.911Z</time></trkpt><trkpt lat="42.1103202" lon="13.4828933"><ele>1085.6666666666667</ele><time>2026-05-02T14:18:39.912Z</time></trkpt><trkpt lat="42.1104231" lon="13.482745"><ele>1083.3333333333333</ele><time>2026-05-02T14:18:40.912Z</time></trkpt><trkpt lat="42.1105377" lon="13.4826038"><ele>1081.0</ele><time>2026-05-02T14:18:41.911Z</time></trkpt><trkpt lat="42.110653" lon="13.4824697"><ele>1084.75</ele><time>2026-05-02T14:18:42.911Z</time></trkpt><trkpt lat="42.1107649" lon="13.4823378"><ele>1088.5</ele><time>2026-05-02T14:18:43.911Z</time></trkpt><trkpt lat="42.110866" lon="13.4821895"><ele>1092.25</ele><time>2026-05-02T14:18:44.912Z</time></trkpt><trkpt lat="42.110951" lon="13.4820268"><ele>1096.0</ele><time>2026-05-02T14:18:45.91Z</time></trkpt><trkpt lat="42.1110243" lon="13.4818422"><ele>1096.0</ele><time>2026-05-02T14:18:46.91Z</time></trkpt><trkpt lat="42.1110786" lon="13.4816507"><ele>1096.0</ele><time>2026-05-02T14:18:47.911Z</time></trkpt><trkpt lat="42.1111289" lon="13.4814468"><ele>1096.0</ele><time>2026-05-02T14:18:48.912Z</time></trkpt><trkpt lat="42.1111739" lon="13.4812325"><ele>1096.3333333333333</ele><time>2026-05-02T14:18:49.911Z</time></trkpt><trkpt lat="42.1112139" lon="13.4810181"><ele>1096.6666666666667</ele><time>2026-05-02T14:18:50.911Z</time></trkpt><trkpt lat="42.111252" lon="13.4808039"><ele>1097.0</ele><time>2026-05-02T14:18:51.912Z</time></trkpt><trkpt lat="42.1112895" lon="13.4805911"><ele>1097.6666666666667</ele><time>2026-05-02T14:18:52.911Z</time></trkpt><trkpt lat="42.1113167" lon="13.4803788"><ele>1098.3333333333333</ele><time>2026-05-02T14:18:53.911Z</time></trkpt><trkpt lat="42.1113333" lon="13.4801658"><ele>1099.0</ele><time>2026-05-02T14:18:54.911Z</time></trkpt><trkpt lat="42.1113306" lon="13.4799415"><ele>1099.0</ele><time>2026-05-02T14:18:55.911Z</time></trkpt><trkpt lat="42.1113076" lon="13.479721"><ele>1099.0</ele><time>2026-05-02T14:18:56.91Z</time></trkpt><trkpt lat="42.1112662" lon="13.4794968"><ele>1099.0</ele><time>2026-05-02T14:18:57.911Z</time></trkpt><trkpt lat="42.1112149" lon="13.479275"><ele>1102.0</ele><time>2026-05-02T14:18:58.912Z</time></trkpt><trkpt lat="42.1111546" lon="13.4790574"><ele>1105.0</ele><time>2026-05-02T14:18:59.911Z</time></trkpt><trkpt lat="42.1110975" lon="13.4788398"><ele>1108.0</ele><time>2026-05-02T14:19:00.911Z</time></trkpt><trkpt lat="42.1110458" lon="13.4786188"><ele>1108.6666666666665</ele><time>2026-05-02T14:19:01.911Z</time></trkpt><trkpt lat="42.1110092" lon="13.4783909"><ele>1109.3333333333333</ele><time>2026-05-02T14:19:02.911Z</time></trkpt><trkpt lat="42.1109848" lon="13.4781564"><ele>1110.0</ele><time>2026-05-02T14:19:03.911Z</time></trkpt><trkpt lat="42.1109714" lon="13.4779235"><ele>1110.0</ele><time>2026-05-02T14:19:04.911Z</time></trkpt><trkpt lat="42.1109528" lon="13.4776947"><ele>1110.0</ele><time>2026-05-02T14:19:05.912Z</time></trkpt><trkpt lat="42.1109213" lon="13.4774764"><ele>1110.0</ele><time>2026-05-02T14:19:06.912Z</time></trkpt><trkpt lat="42.1108745" lon="13.4772771"><ele>1112.3333333333333</ele><time>2026-05-02T14:19:07.912Z</time></trkpt><trkpt lat="42.1108156" lon="13.4770919"><ele>1114.6666666666665</ele><time>2026-05-02T14:19:08.912Z</time></trkpt><trkpt lat="42.1107365" lon="13.476911"><ele>1117.0</ele><time>2026-05-02T14:19:09.911Z</time></trkpt><trkpt lat="42.1106406" lon="13.4767384"><ele>1112.0</ele><time>2026-05-02T14:19:10.911Z</time></trkpt><trkpt lat="42.1105407" lon="13.4765623"><ele>1107.0</ele><time>2026-05-02T14:19:11.911Z</time></trkpt><trkpt lat="42.1104412" lon="13.4763797"><ele>1102.0</ele><time>2026-05-02T14:19:12.911Z</time></trkpt><trkpt lat="42.1103521" lon="13.4761819"><ele>1102.0</ele><time>2026-05-02T14:19:13.91Z</time></trkpt><trkpt lat="42.1102818" lon="13.4759733"><ele>1102.0</ele><time>2026-05-02T14:19:14.911Z</time></trkpt><trkpt lat="42.1102272" lon="13.4757525"><ele>1102.0</ele><time>2026-05-02T14:19:15.91Z</time></trkpt><trkpt lat="42.1101885" lon="13.4755234"><ele>1101.6666666666665</ele><time>2026-05-02T14:19:16.912Z</time></trkpt><trkpt lat="42.1101489" lon="13.4752924"><ele>1101.3333333333333</ele><time>2026-05-02T14:19:17.911Z</time></trkpt><trkpt lat="42.1101062" lon="13.4750659"><ele>1101.0</ele><time>2026-05-02T14:19:18.912Z</time></trkpt><trkpt lat="42.1100499" lon="13.4748451"><ele>1101.0</ele><time>2026-05-02T14:19:19.911Z</time></trkpt><trkpt lat="42.1099743" lon="13.4746231"><ele>1101.0</ele><time>2026-05-02T14:19:20.91Z</time></trkpt><trkpt lat="42.1098881" lon="13.4744077"><ele>1101.0</ele><time>2026-05-02T14:19:21.912Z</time></trkpt><trkpt lat="42.1098011" lon="13.4742017"><ele>1098.6666666666667</ele><time>2026-05-02T14:19:22.912Z</time></trkpt><trkpt lat="42.1097135" lon="13.4739939"><ele>1096.3333333333335</ele><time>2026-05-02T14:19:23.912Z</time></trkpt><trkpt lat="42.1096249" lon="13.4737905"><ele>1094.0</ele><time>2026-05-02T14:19:24.912Z</time></trkpt><trkpt lat="42.1095369" lon="13.4735866"><ele>1094.0</ele><time>2026-05-02T14:19:25.91Z</time></trkpt><trkpt lat="42.1094471" lon="13.4733775"><ele>1094.0</ele><time>2026-05-02T14:19:26.912Z</time></trkpt><trkpt lat="42.1093662" lon="13.4731686"><ele>1094.0</ele><time>2026-05-02T14:19:27.911Z</time></trkpt><trkpt lat="42.1092816" lon="13.472955"><ele>1095.0</ele><time>2026-05-02T14:19:28.911Z</time></trkpt><trkpt lat="42.1092051" lon="13.4727413"><ele>1096.0</ele><time>2026-05-02T14:19:29.911Z</time></trkpt><trkpt lat="42.1091409" lon="13.4725188"><ele>1097.0</ele><time>2026-05-02T14:19:30.912Z</time></trkpt><trkpt lat="42.1090823" lon="13.4723029"><ele>1094.6666666666667</ele><time>2026-05-02T14:19:31.911Z</time></trkpt><trkpt lat="42.1090288" lon="13.4720895"><ele>1092.3333333333333</ele><time>2026-05-02T14:19:32.912Z</time></trkpt><trkpt lat="42.1089743" lon="13.4718836"><ele>1090.0</ele><time>2026-05-02T14:19:33.912Z</time></trkpt><trkpt lat="42.1089268" lon="13.4716734"><ele>1090.0</ele><time>2026-05-02T14:19:34.911Z</time></trkpt><trkpt lat="42.1088824" lon="13.4714768"><ele>1090.0</ele><time>2026-05-02T14:19:35.911Z</time></trkpt><trkpt lat="42.1088508" lon="13.4712754"><ele>1090.0</ele><time>2026-05-02T14:19:36.912Z</time></trkpt><trkpt lat="42.1088339" lon="13.4710689"><ele>1090.3333333333333</ele><time>2026-05-02T14:19:37.91Z</time></trkpt><trkpt lat="42.1088267" lon="13.4708663"><ele>1090.6666666666667</ele><time>2026-05-02T14:19:38.91Z</time></trkpt><trkpt lat="42.1088253" lon="13.4706624"><ele>1091.0</ele><time>2026-05-02T14:19:39.911Z</time></trkpt><trkpt lat="42.1088317" lon="13.4704568"><ele>1089.6666666666667</ele><time>2026-05-02T14:19:40.911Z</time></trkpt><trkpt lat="42.1088336" lon="13.4702579"><ele>1088.3333333333333</ele><time>2026-05-02T14:19:41.911Z</time></trkpt><trkpt lat="42.1088221" lon="13.4700558"><ele>1087.0</ele><time>2026-05-02T14:19:42.91Z</time></trkpt><trkpt lat="42.1087949" lon="13.4698547"><ele>1087.0</ele><time>2026-05-02T14:19:43.911Z</time></trkpt><trkpt lat="42.1087541" lon="13.4696605"><ele>1087.0</ele><time>2026-05-02T14:19:44.91Z</time></trkpt><trkpt lat="42.1086847" lon="13.4694726"><ele>1087.0</ele><time>2026-05-02T14:19:45.912Z</time></trkpt><trkpt lat="42.108619" lon="13.4692724"><ele>1086.6666666666665</ele><time>2026-05-02T14:19:46.912Z</time></trkpt><trkpt lat="42.1085501" lon="13.4690688"><ele>1086.3333333333333</ele><time>2026-05-02T14:19:47.911Z</time></trkpt><trkpt lat="42.1084808" lon="13.4688644"><ele>1086.0</ele><time>2026-05-02T14:19:48.912Z</time></trkpt><trkpt lat="42.1084079" lon="13.4686672"><ele>1084.6666666666667</ele><time>2026-05-02T14:19:49.91Z</time></trkpt><trkpt lat="42.1083371" lon="13.4684682"><ele>1083.3333333333335</ele><time>2026-05-02T14:19:50.91Z</time></trkpt><trkpt lat="42.1082678" lon="13.4682757"><ele>1082.0</ele><time>2026-05-02T14:19:51.911Z</time></trkpt><trkpt lat="42.108203" lon="13.4680846"><ele>1084.0</ele><time>2026-05-02T14:19:52.913Z</time></trkpt><trkpt lat="42.1081382" lon="13.4678979"><ele>1086.0</ele><time>2026-05-02T14:19:53.912Z</time></trkpt><trkpt lat="42.1080719" lon="13.4677165"><ele>1088.0</ele><time>2026-05-02T14:19:54.912Z</time></trkpt><trkpt lat="42.1080047" lon="13.4675328"><ele>1088.0</ele><time>2026-05-02T14:19:55.912Z</time></trkpt><trkpt lat="42.1079369" lon="13.4673515"><ele>1088.0</ele><time>2026-05-02T14:19:56.912Z</time></trkpt><trkpt lat="42.1078756" lon="13.4671758"><ele>1088.0</ele><time>2026-05-02T14:19:57.911Z</time></trkpt><trkpt lat="42.1078128" lon="13.4669968"><ele>1088.0</ele><time>2026-05-02T14:19:58.912Z</time></trkpt><trkpt lat="42.1077555" lon="13.4668165"><ele>1089.25</ele><time>2026-05-02T14:19:59.912Z</time></trkpt><trkpt lat="42.1076939" lon="13.4666392"><ele>1090.5</ele><time>2026-05-02T14:20:00.912Z</time></trkpt><trkpt lat="42.1076275" lon="13.4664671"><ele>1091.75</ele><time>2026-05-02T14:20:01.91Z</time></trkpt><trkpt lat="42.1075664" lon="13.4662927"><ele>1093.0</ele><time>2026-05-02T14:20:02.912Z</time></trkpt><trkpt lat="42.1075071" lon="13.4661187"><ele>1093.75</ele><time>2026-05-02T14:20:03.912Z</time></trkpt><trkpt lat="42.1074576" lon="13.4659427"><ele>1094.5</ele><time>2026-05-02T14:20:04.911Z</time></trkpt><trkpt lat="42.1074213" lon="13.465767"><ele>1095.25</ele><time>2026-05-02T14:20:05.911Z</time></trkpt><trkpt lat="42.1073982" lon="13.4655976"><ele>1096.0</ele><time>2026-05-02T14:20:06.912Z</time></trkpt><trkpt lat="42.1073926" lon="13.4654282"><ele>1096.0</ele><time>2026-05-02T14:20:07.911Z</time></trkpt><trkpt lat="42.107402" lon="13.4652581"><ele>1096.0</ele><time>2026-05-02T14:20:08.911Z</time></trkpt><trkpt lat="42.1074233" lon="13.4650882"><ele>1096.0</ele><time>2026-05-02T14:20:09.911Z</time></trkpt><trkpt lat="42.1074575" lon="13.4649204"><ele>1096.0</ele><time>2026-05-02T14:20:10.91Z</time></trkpt><trkpt lat="42.1075175" lon="13.4647649"><ele>1096.75</ele><time>2026-05-02T14:20:11.911Z</time></trkpt><trkpt lat="42.1075877" lon="13.4646153"><ele>1097.5</ele><time>2026-05-02T14:20:12.91Z</time></trkpt><trkpt lat="42.1076655" lon="13.4644624"><ele>1098.25</ele><time>2026-05-02T14:20:13.911Z</time></trkpt><trkpt lat="42.1077409" lon="13.4643209"><ele>1099.0</ele><time>2026-05-02T14:20:14.911Z</time></trkpt><trkpt lat="42.107822" lon="13.4641742"><ele>1099.0</ele><time>2026-05-02T14:20:15.911Z</time></trkpt><trkpt lat="42.1079067" lon="13.4640202"><ele>1099.0</ele><time>2026-05-02T14:20:16.912Z</time></trkpt><trkpt lat="42.107991" lon="13.4638695"><ele>1099.0</ele><time>2026-05-02T14:20:17.911Z</time></trkpt><trkpt lat="42.1080633" lon="13.4637267"><ele>1099.0</ele><time>2026-05-02T14:20:18.912Z</time></trkpt><trkpt lat="42.1081321" lon="13.4635977"><ele>1099.0</ele><time>2026-05-02T14:20:19.911Z</time></trkpt><trkpt lat="42.1082014" lon="13.4634688"><ele>1099.0</ele><time>2026-05-02T14:20:20.911Z</time></trkpt><trkpt lat="42.1082675" lon="13.463341"><ele>1099.0</ele><time>2026-05-02T14:20:21.911Z</time></trkpt><trkpt lat="42.1083303" lon="13.4632133"><ele>1099.0</ele><time>2026-05-02T14:20:22.913Z</time></trkpt><trkpt lat="42.1083855" lon="13.4630938"><ele>1100.3333333333333</ele><time>2026-05-02T14:20:23.91Z</time></trkpt><trkpt lat="42.1084368" lon="13.4629796"><ele>1101.6666666666665</ele><time>2026-05-02T14:20:24.911Z</time></trkpt><trkpt lat="42.1084772" lon="13.4628776"><ele>1103.0</ele><time>2026-05-02T14:20:25.912Z</time></trkpt><trkpt lat="42.108515" lon="13.4627701"><ele>1104.3333333333333</ele><time>2026-05-02T14:20:26.912Z</time></trkpt><trkpt lat="42.1085505" lon="13.4626623"><ele>1105.6666666666667</ele><time>2026-05-02T14:20:27.911Z</time></trkpt><trkpt lat="42.1085816" lon="13.4625563"><ele>1107.0</ele><time>2026-05-02T14:20:28.911Z</time></trkpt><trkpt lat="42.1086102" lon="13.4624469"><ele>1107.6666666666667</ele><time>2026-05-02T14:20:29.911Z</time></trkpt><trkpt lat="42.1086364" lon="13.4623515"><ele>1108.3333333333333</ele><time>2026-05-02T14:20:30.911Z</time></trkpt><trkpt lat="42.1086586" lon="13.4622694"><ele>1109.0</ele><time>2026-05-02T14:20:31.911Z</time></trkpt><trkpt lat="42.108688" lon="13.4621506"><ele>1109.6666666666665</ele><time>2026-05-02T14:20:33.913Z</time></trkpt><trkpt lat="42.1087145" lon="13.4620561"><ele>1110.3333333333333</ele><time>2026-05-02T14:20:36.911Z</time></trkpt><trkpt lat="42.1087248" lon="13.4619368"><ele>1111.0</ele><time>2026-05-02T14:20:39.912Z</time></trkpt><trkpt lat="42.1087606" lon="13.4618312"><ele>1111.1666666666665</ele><time>2026-05-02T14:20:41.911Z</time></trkpt><trkpt lat="42.108796" lon="13.4617543"><ele>1111.3333333333333</ele><time>2026-05-02T14:20:43.91Z</time></trkpt><trkpt lat="42.1088207" lon="13.4616566"><ele>1111.5</ele><time>2026-05-02T14:20:51.911Z</time></trkpt><trkpt lat="42.108723" lon="13.4616433"><ele>1111.6666666666667</ele><time>2026-05-02T14:20:54.911Z</time></trkpt><trkpt lat="42.1086192" lon="13.4616877"><ele>1111.8333333333335</ele><time>2026-05-02T14:20:56.911Z</time></trkpt><trkpt lat="42.1085322" lon="13.4617342"><ele>1112.0</ele><time>2026-05-02T14:20:58.91Z</time></trkpt><trkpt lat="42.1084773" lon="13.4617908"><ele>1112.0</ele><time>2026-05-02T14:21:00.912Z</time></trkpt><trkpt lat="42.1084019" lon="13.461827"><ele>1112.0</ele><time>2026-05-02T14:21:02.91Z</time></trkpt><trkpt lat="42.1083329" lon="13.4618807"><ele>1112.0</ele><time>2026-05-02T14:21:05.912Z</time></trkpt><trkpt lat="42.1082715" lon="13.4619195"><ele>1112.0</ele><time>2026-05-02T14:21:07.913Z</time></trkpt><trkpt lat="42.1083424" lon="13.4618723"><ele>1112.0</ele><time>2026-05-02T14:21:15.912Z</time></trkpt><trkpt lat="42.1084156" lon="13.4618411"><ele>1112.0</ele><time>2026-05-02T14:21:18.911Z</time></trkpt><trkpt lat="42.1084802" lon="13.4617601"><ele>1112.0</ele><time>2026-05-02T14:22:59.911Z</time></trkpt><trkpt lat="42.1085504" lon="13.4617138"><ele>1112.0</ele><time>2026-05-02T14:23:01.912Z</time></trkpt><trkpt lat="42.108617" lon="13.4616808"><ele>1112.0</ele><time>2026-05-02T14:23:03.911Z</time></trkpt><trkpt lat="42.10869" lon="13.4616671"><ele>1112.0</ele><time>2026-05-02T14:23:06.91Z</time></trkpt><trkpt lat="42.1087317" lon="13.4615709"><ele>1112.0</ele><time>2026-05-02T14:23:09.912Z</time></trkpt><trkpt lat="42.1087154" lon="13.4614704"><ele>1112.0</ele><time>2026-05-02T14:23:11.911Z</time></trkpt><trkpt lat="42.1087028" lon="13.4613767"><ele>1112.0</ele><time>2026-05-02T14:23:13.911Z</time></trkpt><trkpt lat="42.1086844" lon="13.4612921"><ele>1112.0</ele><time>2026-05-02T14:23:15.911Z</time></trkpt><trkpt lat="42.1086579" lon="13.4611854"><ele>1112.0</ele><time>2026-05-02T14:23:17.91Z</time></trkpt><trkpt lat="42.1086216" lon="13.4610496"><ele>1112.0</ele><time>2026-05-02T14:23:19.911Z</time></trkpt><trkpt lat="42.1085842" lon="13.4608842"><ele>1112.0</ele><time>2026-05-02T14:23:21.911Z</time></trkpt><trkpt lat="42.1085742" lon="13.4607992"><ele>1112.0</ele><time>2026-05-02T14:23:22.911Z</time></trkpt><trkpt lat="42.1085649" lon="13.4607139"><ele>1110.6</ele><time>2026-05-02T14:23:23.911Z</time></trkpt><trkpt lat="42.1085525" lon="13.4606299"><ele>1109.2</ele><time>2026-05-02T14:23:24.911Z</time></trkpt><trkpt lat="42.1085235" lon="13.4604766"><ele>1107.8</ele><time>2026-05-02T14:23:26.911Z</time></trkpt><trkpt lat="42.1085017" lon="13.4603957"><ele>1106.4</ele><time>2026-05-02T14:23:27.911Z</time></trkpt><trkpt lat="42.1084515" lon="13.4602487"><ele>1105.0</ele><time>2026-05-02T14:23:29.911Z</time></trkpt><trkpt lat="42.1084239" lon="13.4601222"><ele>1103.0</ele><time>2026-05-02T14:23:31.911Z</time></trkpt><trkpt lat="42.1084548" lon="13.4600353"><ele>1101.0</ele><time>2026-05-02T14:23:33.913Z</time></trkpt><trkpt lat="42.1085025" lon="13.4599636"><ele>1099.0</ele><time>2026-05-02T14:23:35.91Z</time></trkpt><trkpt lat="42.1085444" lon="13.4598953"><ele>1097.0</ele><time>2026-05-02T14:23:37.911Z</time></trkpt><trkpt lat="42.1085743" lon="13.4598074"><ele>1095.0</ele><time>2026-05-02T14:23:46.912Z</time></trkpt><trkpt lat="42.108575" lon="13.4596739"><ele>1093.0</ele><time>2026-05-02T14:23:48.911Z</time></trkpt><trkpt lat="42.1085472" lon="13.4595305"><ele>1091.1666666666665</ele><time>2026-05-02T14:23:50.911Z</time></trkpt><trkpt lat="42.1085244" lon="13.4593826"><ele>1089.3333333333333</ele><time>2026-05-02T14:23:52.912Z</time></trkpt><trkpt lat="42.1085154" lon="13.459289"><ele>1087.5</ele><time>2026-05-02T14:23:53.912Z</time></trkpt><trkpt lat="42.1085073" lon="13.4591999"><ele>1085.6666666666667</ele><time>2026-05-02T14:23:54.912Z</time></trkpt><trkpt lat="42.1085018" lon="13.4591063"><ele>1083.8333333333335</ele><time>2026-05-02T14:23:55.911Z</time></trkpt><trkpt lat="42.1084988" lon="13.4589379"><ele>1082.0</ele><time>2026-05-02T14:23:57.911Z</time></trkpt><trkpt lat="42.1085019" lon="13.458767"><ele>1080.2</ele><time>2026-05-02T14:23:59.911Z</time></trkpt><trkpt lat="42.1085262" lon="13.4586317"><ele>1078.4</ele><time>2026-05-02T14:24:01.91Z</time></trkpt><trkpt lat="42.1085311" lon="13.4585054"><ele>1076.6</ele><time>2026-05-02T14:24:03.912Z</time></trkpt><trkpt lat="42.1085336" lon="13.4583624"><ele>1074.8</ele><time>2026-05-02T14:24:05.912Z</time></trkpt><trkpt lat="42.1085466" lon="13.4582153"><ele>1073.0</ele><time>2026-05-02T14:24:07.911Z</time></trkpt><trkpt lat="42.1085454" lon="13.4580444"><ele>1071.5</ele><time>2026-05-02T14:24:09.912Z</time></trkpt><trkpt lat="42.1085535" lon="13.4579471"><ele>1070.0</ele><time>2026-05-02T14:24:10.91Z</time></trkpt><trkpt lat="42.1085667" lon="13.4578556"><ele>1068.5</ele><time>2026-05-02T14:24:11.911Z</time></trkpt><trkpt lat="42.108585" lon="13.4577646"><ele>1067.0</ele><time>2026-05-02T14:24:12.912Z</time></trkpt><trkpt lat="42.1086192" lon="13.4576832"><ele>1065.5</ele><time>2026-05-02T14:24:13.912Z</time></trkpt><trkpt lat="42.1086402" lon="13.4575977"><ele>1064.0</ele><time>2026-05-02T14:24:14.911Z</time></trkpt><trkpt lat="42.1086522" lon="13.4574244"><ele>1064.0</ele><time>2026-05-02T14:24:16.911Z</time></trkpt><trkpt lat="42.1086493" lon="13.4573307"><ele>1064.0</ele><time>2026-05-02T14:24:17.911Z</time></trkpt><trkpt lat="42.1086518" lon="13.4572287"><ele>1064.0</ele><time>2026-05-02T14:24:18.911Z</time></trkpt><trkpt lat="42.1086498" lon="13.4571319"><ele>1064.0</ele><time>2026-05-02T14:24:19.913Z</time></trkpt><trkpt lat="42.1086481" lon="13.4569628"><ele>1064.0</ele><time>2026-05-02T14:24:21.911Z</time></trkpt><trkpt lat="42.1086499" lon="13.4567877"><ele>1062.3333333333335</ele><time>2026-05-02T14:24:23.911Z</time></trkpt><trkpt lat="42.1086506" lon="13.4566041"><ele>1060.6666666666667</ele><time>2026-05-02T14:24:25.911Z</time></trkpt><trkpt lat="42.1086525" lon="13.4565043"><ele>1059.0</ele><time>2026-05-02T14:24:26.911Z</time></trkpt><trkpt lat="42.1086457" lon="13.4564019"><ele>1057.3333333333333</ele><time>2026-05-02T14:24:27.912Z</time></trkpt><trkpt lat="42.1086388" lon="13.4562991"><ele>1055.6666666666665</ele><time>2026-05-02T14:24:28.911Z</time></trkpt><trkpt lat="42.1086256" lon="13.456203"><ele>1054.0</ele><time>2026-05-02T14:24:29.911Z</time></trkpt><trkpt lat="42.1086055" lon="13.4561011"><ele>1052.8333333333333</ele><time>2026-05-02T14:24:30.912Z</time></trkpt><trkpt lat="42.1085727" lon="13.4559908"><ele>1051.6666666666665</ele><time>2026-05-02T14:24:31.911Z</time></trkpt><trkpt lat="42.1085418" lon="13.4558969"><ele>1050.5</ele><time>2026-05-02T14:24:32.912Z</time></trkpt><trkpt lat="42.1085136" lon="13.4557982"><ele>1049.3333333333333</ele><time>2026-05-02T14:24:33.911Z</time></trkpt><trkpt lat="42.10849" lon="13.4556972"><ele>1048.1666666666667</ele><time>2026-05-02T14:24:34.91Z</time></trkpt><trkpt lat="42.108478" lon="13.4555914"><ele>1047.0</ele><time>2026-05-02T14:24:35.911Z</time></trkpt><trkpt lat="42.108464" lon="13.4554732"><ele>1046.0</ele><time>2026-05-02T14:24:36.911Z</time></trkpt><trkpt lat="42.1084539" lon="13.4553648"><ele>1045.0</ele><time>2026-05-02T14:24:37.912Z</time></trkpt><trkpt lat="42.1084327" lon="13.4552673"><ele>1044.0</ele><time>2026-05-02T14:24:38.911Z</time></trkpt><trkpt lat="42.1084084" lon="13.4551797"><ele>1043.0</ele><time>2026-05-02T14:24:39.911Z</time></trkpt><trkpt lat="42.1084038" lon="13.4550812"><ele>1042.0</ele><time>2026-05-02T14:24:40.911Z</time></trkpt><trkpt lat="42.1083869" lon="13.4549813"><ele>1041.0</ele><time>2026-05-02T14:24:41.911Z</time></trkpt><trkpt lat="42.1083642" lon="13.4548764"><ele>1041.0</ele><time>2026-05-02T14:24:42.911Z</time></trkpt><trkpt lat="42.1083422" lon="13.4547764"><ele>1041.0</ele><time>2026-05-02T14:24:43.911Z</time></trkpt><trkpt lat="42.108324" lon="13.4546783"><ele>1041.0</ele><time>2026-05-02T14:24:44.911Z</time></trkpt><trkpt lat="42.1083098" lon="13.4545779"><ele>1041.0</ele><time>2026-05-02T14:24:45.911Z</time></trkpt><trkpt lat="42.1083001" lon="13.4544688"><ele>1041.0</ele><time>2026-05-02T14:24:46.911Z</time></trkpt><trkpt lat="42.1082855" lon="13.4543666"><ele>1041.0</ele><time>2026-05-02T14:24:47.911Z</time></trkpt><trkpt lat="42.1082758" lon="13.4542548"><ele>1040.0</ele><time>2026-05-02T14:24:48.911Z</time></trkpt><trkpt lat="42.1082594" lon="13.4541108"><ele>1039.0</ele><time>2026-05-02T14:24:49.912Z</time></trkpt><trkpt lat="42.1082524" lon="13.4539574"><ele>1038.0</ele><time>2026-05-02T14:24:50.91Z</time></trkpt><trkpt lat="42.1082429" lon="13.4538316"><ele>1037.0</ele><time>2026-05-02T14:24:51.911Z</time></trkpt><trkpt lat="42.1082325" lon="13.4536984"><ele>1036.0</ele><time>2026-05-02T14:24:52.912Z</time></trkpt><trkpt lat="42.1082213" lon="13.4535624"><ele>1032.8</ele><time>2026-05-02T14:24:53.911Z</time></trkpt><trkpt lat="42.1082046" lon="13.4534391"><ele>1029.6</ele><time>2026-05-02T14:24:54.91Z</time></trkpt><trkpt lat="42.1081715" lon="13.4533124"><ele>1026.4</ele><time>2026-05-02T14:24:55.91Z</time></trkpt><trkpt lat="42.108132" lon="13.4531902"><ele>1023.2</ele><time>2026-05-02T14:24:56.91Z</time></trkpt><trkpt lat="42.1080951" lon="13.4530743"><ele>1020.0</ele><time>2026-05-02T14:24:57.911Z</time></trkpt><trkpt lat="42.1080677" lon="13.4529556"><ele>1018.8</ele><time>2026-05-02T14:24:58.911Z</time></trkpt><trkpt lat="42.1080492" lon="13.4528324"><ele>1017.6</ele><time>2026-05-02T14:24:59.911Z</time></trkpt><trkpt lat="42.108038" lon="13.4527017"><ele>1016.4000000000001</ele><time>2026-05-02T14:25:00.911Z</time></trkpt><trkpt lat="42.1080383" lon="13.4525614"><ele>1015.2</ele><time>2026-05-02T14:25:01.912Z</time></trkpt><trkpt lat="42.1080416" lon="13.4524183"><ele>1014.0</ele><time>2026-05-02T14:25:02.91Z</time></trkpt><trkpt lat="42.1080413" lon="13.4522802"><ele>1014.0</ele><time>2026-05-02T14:25:03.912Z</time></trkpt><trkpt lat="42.1080443" lon="13.4521438"><ele>1014.0000000000001</ele><time>2026-05-02T14:25:04.91Z</time></trkpt><trkpt lat="42.1080396" lon="13.4520279"><ele>1014.0000000000001</ele><time>2026-05-02T14:25:05.912Z</time></trkpt><trkpt lat="42.1080183" lon="13.4519004"><ele>1014.0</ele><time>2026-05-02T14:25:06.912Z</time></trkpt><trkpt lat="42.1079857" lon="13.4517886"><ele>1014.0</ele><time>2026-05-02T14:25:07.911Z</time></trkpt><trkpt lat="42.1079621" lon="13.4516763"><ele>1014.0</ele><time>2026-05-02T14:25:08.911Z</time></trkpt><trkpt lat="42.1079561" lon="13.4515641"><ele>1014.0</ele><time>2026-05-02T14:25:09.911Z</time></trkpt><trkpt lat="42.1079492" lon="13.4514783"><ele>1014.0</ele><time>2026-05-02T14:25:10.911Z</time></trkpt><trkpt lat="42.1079338" lon="13.4513938"><ele>1014.0</ele><time>2026-05-02T14:25:11.912Z</time></trkpt><trkpt lat="42.1079008" lon="13.451304"><ele>1014.0</ele><time>2026-05-02T14:25:12.911Z</time></trkpt><trkpt lat="42.1078738" lon="13.4512021"><ele>1014.0</ele><time>2026-05-02T14:25:13.911Z</time></trkpt><trkpt lat="42.107829" lon="13.4510831"><ele>1013.8000000000001</ele><time>2026-05-02T14:25:14.911Z</time></trkpt><trkpt lat="42.107782" lon="13.4509578"><ele>1013.6000000000001</ele><time>2026-05-02T14:25:15.911Z</time></trkpt><trkpt lat="42.1077317" lon="13.4508263"><ele>1013.4</ele><time>2026-05-02T14:25:16.912Z</time></trkpt><trkpt lat="42.1076774" lon="13.4507046"><ele>1013.2</ele><time>2026-05-02T14:25:17.91Z</time></trkpt><trkpt lat="42.1076206" lon="13.4505831"><ele>1013.0</ele><time>2026-05-02T14:25:18.91Z</time></trkpt><trkpt lat="42.1075618" lon="13.4504659"><ele>1012.2</ele><time>2026-05-02T14:25:19.91Z</time></trkpt><trkpt lat="42.1075103" lon="13.4503451"><ele>1011.4</ele><time>2026-05-02T14:25:20.911Z</time></trkpt><trkpt lat="42.107462" lon="13.4502303"><ele>1010.6000000000001</ele><time>2026-05-02T14:25:21.911Z</time></trkpt><trkpt lat="42.1073985" lon="13.4501104"><ele>1009.8000000000001</ele><time>2026-05-02T14:25:22.911Z</time></trkpt><trkpt lat="42.107345" lon="13.4499995"><ele>1009.0</ele><time>2026-05-02T14:25:23.911Z</time></trkpt><trkpt lat="42.1072933" lon="13.4498989"><ele>1008.3333333333333</ele><time>2026-05-02T14:25:24.91Z</time></trkpt><trkpt lat="42.1072394" lon="13.4497964"><ele>1007.6666666666666</ele><time>2026-05-02T14:25:25.911Z</time></trkpt><trkpt lat="42.1071916" lon="13.4496965"><ele>1007.0</ele><time>2026-05-02T14:25:26.911Z</time></trkpt><trkpt lat="42.1071424" lon="13.4495919"><ele>1006.3333333333333</ele><time>2026-05-02T14:25:27.912Z</time></trkpt><trkpt lat="42.1071025" lon="13.4495027"><ele>1005.6666666666666</ele><time>2026-05-02T14:25:28.911Z</time></trkpt><trkpt lat="42.1070577" lon="13.4494052"><ele>1005.0</ele><time>2026-05-02T14:25:29.911Z</time></trkpt><trkpt lat="42.1070107" lon="13.4493018"><ele>1004.5</ele><time>2026-05-02T14:25:30.91Z</time></trkpt><trkpt lat="42.1069669" lon="13.4492074"><ele>1004.0</ele><time>2026-05-02T14:25:31.911Z</time></trkpt><trkpt lat="42.1069273" lon="13.4491081"><ele>1003.5</ele><time>2026-05-02T14:25:32.91Z</time></trkpt><trkpt lat="42.1068808" lon="13.4490058"><ele>1003.0</ele><time>2026-05-02T14:25:33.911Z</time></trkpt><trkpt lat="42.1068409" lon="13.4489012"><ele>1002.5</ele><time>2026-05-02T14:25:34.91Z</time></trkpt><trkpt lat="42.1068053" lon="13.4487962"><ele>1002.0</ele><time>2026-05-02T14:25:35.911Z</time></trkpt><trkpt lat="42.1067682" lon="13.4486884"><ele>1001.6666666666666</ele><time>2026-05-02T14:25:36.912Z</time></trkpt><trkpt lat="42.1067218" lon="13.4485737"><ele>1001.3333333333333</ele><time>2026-05-02T14:25:37.911Z</time></trkpt><trkpt lat="42.1066773" lon="13.4484644"><ele>1001.0</ele><time>2026-05-02T14:25:38.911Z</time></trkpt><trkpt lat="42.1066373" lon="13.4483612"><ele>1000.6666666666666</ele><time>2026-05-02T14:25:39.911Z</time></trkpt><trkpt lat="42.1065979" lon="13.4482676"><ele>1000.3333333333333</ele><time>2026-05-02T14:25:40.911Z</time></trkpt><trkpt lat="42.1065655" lon="13.4481832"><ele>1000.0</ele><time>2026-05-02T14:25:41.91Z</time></trkpt><trkpt lat="42.1064604" lon="13.4480772"><ele>998.9999999999999</ele><time>2026-05-02T14:25:43.911Z</time></trkpt><trkpt lat="42.1063892" lon="13.448052"><ele>998.0</ele><time>2026-05-02T14:25:44.91Z</time></trkpt><trkpt lat="42.1063179" lon="13.4480332"><ele>997.0</ele><time>2026-05-02T14:25:45.91Z</time></trkpt><trkpt lat="42.1062545" lon="13.4480155"><ele>996.0</ele><time>2026-05-02T14:25:46.912Z</time></trkpt><trkpt lat="42.1061443" lon="13.4479879"><ele>994.9999999999999</ele><time>2026-05-02T14:25:48.911Z</time></trkpt><trkpt lat="42.1060821" lon="13.4479636"><ele>994.0</ele><time>2026-05-02T14:25:49.91Z</time></trkpt><trkpt lat="42.1059878" lon="13.4478863"><ele>993.6666666666666</ele><time>2026-05-02T14:25:51.911Z</time></trkpt><trkpt lat="42.1059074" lon="13.447746"><ele>993.3333333333333</ele><time>2026-05-02T14:25:53.913Z</time></trkpt><trkpt lat="42.1058781" lon="13.4476659"><ele>993.0</ele><time>2026-05-02T14:25:54.911Z</time></trkpt><trkpt lat="42.1058489" lon="13.4475878"><ele>992.6666666666667</ele><time>2026-05-02T14:25:55.91Z</time></trkpt><trkpt lat="42.1058256" lon="13.4474988"><ele>992.3333333333334</ele><time>2026-05-02T14:25:56.91Z</time></trkpt><trkpt lat="42.1058018" lon="13.4474086"><ele>992.0</ele><time>2026-05-02T14:25:57.912Z</time></trkpt><trkpt lat="42.1057824" lon="13.447318"><ele>992.0</ele><time>2026-05-02T14:25:58.911Z</time></trkpt><trkpt lat="42.1057602" lon="13.4472231"><ele>992.0</ele><time>2026-05-02T14:25:59.911Z</time></trkpt><trkpt lat="42.1057431" lon="13.4471282"><ele>992.0</ele><time>2026-05-02T14:26:00.911Z</time></trkpt><trkpt lat="42.105731" lon="13.4470395"><ele>992.0</ele><time>2026-05-02T14:26:01.911Z</time></trkpt><trkpt lat="42.1057292" lon="13.4468802"><ele>992.0</ele><time>2026-05-02T14:26:03.911Z</time></trkpt><trkpt lat="42.1057623" lon="13.4467252"><ele>990.8</ele><time>2026-05-02T14:26:05.911Z</time></trkpt><trkpt lat="42.1057827" lon="13.4466422"><ele>989.6</ele><time>2026-05-02T14:26:06.911Z</time></trkpt><trkpt lat="42.105817" lon="13.44648"><ele>988.3999999999999</ele><time>2026-05-02T14:26:08.912Z</time></trkpt><trkpt lat="42.1058081" lon="13.4463242"><ele>987.1999999999999</ele><time>2026-05-02T14:26:10.911Z</time></trkpt><trkpt lat="42.1057559" lon="13.4461861"><ele>986.0</ele><time>2026-05-02T14:26:12.91Z</time></trkpt><trkpt lat="42.1056936" lon="13.4460627"><ele>984.5000000000001</ele><time>2026-05-02T14:26:14.911Z</time></trkpt><trkpt lat="42.1056282" lon="13.445908"><ele>983.0</ele><time>2026-05-02T14:26:16.911Z</time></trkpt><trkpt lat="42.1055964" lon="13.4458193"><ele>981.5</ele><time>2026-05-02T14:26:17.911Z</time></trkpt><trkpt lat="42.1055605" lon="13.4457349"><ele>980.0</ele><time>2026-05-02T14:26:18.911Z</time></trkpt><trkpt lat="42.1055206" lon="13.4456532"><ele>978.5000000000001</ele><time>2026-05-02T14:26:19.911Z</time></trkpt><trkpt lat="42.1054826" lon="13.4455831"><ele>977.0</ele><time>2026-05-02T14:26:20.911Z</time></trkpt><trkpt lat="42.1054431" lon="13.4454972"><ele>977.0000000000001</ele><time>2026-05-02T14:26:21.91Z</time></trkpt><trkpt lat="42.1054121" lon="13.445413"><ele>977.0</ele><time>2026-05-02T14:26:22.911Z</time></trkpt><trkpt lat="42.105386" lon="13.4453349"><ele>977.0</ele><time>2026-05-02T14:26:23.911Z</time></trkpt><trkpt lat="42.105341" lon="13.4451903"><ele>977.0</ele><time>2026-05-02T14:26:25.911Z</time></trkpt><trkpt lat="42.1053109" lon="13.4450995"><ele>977.0000000000001</ele><time>2026-05-02T14:26:26.91Z</time></trkpt><trkpt lat="42.1052692" lon="13.4450067"><ele>977.0</ele><time>2026-05-02T14:26:27.911Z</time></trkpt><trkpt lat="42.1052284" lon="13.4448934"><ele>977.0</ele><time>2026-05-02T14:26:28.911Z</time></trkpt><trkpt lat="42.1051794" lon="13.4447653"><ele>977.0</ele><time>2026-05-02T14:26:29.911Z</time></trkpt><trkpt lat="42.1051311" lon="13.4446349"><ele>977.0</ele><time>2026-05-02T14:26:30.911Z</time></trkpt><trkpt lat="42.1050923" lon="13.4445158"><ele>977.0</ele><time>2026-05-02T14:26:31.911Z</time></trkpt><trkpt lat="42.105046" lon="13.4443807"><ele>977.0</ele><time>2026-05-02T14:26:32.911Z</time></trkpt><trkpt lat="42.1050005" lon="13.4442535"><ele>976.6</ele><time>2026-05-02T14:26:33.91Z</time></trkpt><trkpt lat="42.1049512" lon="13.4441329"><ele>976.2</ele><time>2026-05-02T14:26:34.91Z</time></trkpt><trkpt lat="42.104902" lon="13.4440094"><ele>975.8</ele><time>2026-05-02T14:26:35.91Z</time></trkpt><trkpt lat="42.1048473" lon="13.4438961"><ele>975.4</ele><time>2026-05-02T14:26:36.911Z</time></trkpt><trkpt lat="42.1047832" lon="13.4437831"><ele>975.0</ele><time>2026-05-02T14:26:37.912Z</time></trkpt><trkpt lat="42.1047175" lon="13.4436763"><ele>974.6</ele><time>2026-05-02T14:26:38.91Z</time></trkpt><trkpt lat="42.1046655" lon="13.4435697"><ele>974.2</ele><time>2026-05-02T14:26:39.911Z</time></trkpt><trkpt lat="42.1046162" lon="13.4434464"><ele>973.8</ele><time>2026-05-02T14:26:40.912Z</time></trkpt><trkpt lat="42.1045616" lon="13.4432932"><ele>973.4</ele><time>2026-05-02T14:26:41.911Z</time></trkpt><trkpt lat="42.1045024" lon="13.443159"><ele>973.0</ele><time>2026-05-02T14:26:42.912Z</time></trkpt><trkpt lat="42.1044317" lon="13.4430235"><ele>973.0</ele><time>2026-05-02T14:26:43.91Z</time></trkpt><trkpt lat="42.1043521" lon="13.442898"><ele>973.0</ele><time>2026-05-02T14:26:44.911Z</time></trkpt><trkpt lat="42.1042796" lon="13.4427697"><ele>973.0</ele><time>2026-05-02T14:26:45.911Z</time></trkpt><trkpt lat="42.1042027" lon="13.4426311"><ele>973.0</ele><time>2026-05-02T14:26:46.911Z</time></trkpt><trkpt lat="42.1041307" lon="13.4424892"><ele>972.25</ele><time>2026-05-02T14:26:47.911Z</time></trkpt><trkpt lat="42.10407" lon="13.4423483"><ele>971.5</ele><time>2026-05-02T14:26:48.912Z</time></trkpt><trkpt lat="42.1040066" lon="13.4421906"><ele>970.75</ele><time>2026-05-02T14:26:49.911Z</time></trkpt><trkpt lat="42.1039489" lon="13.4420215"><ele>970.0</ele><time>2026-05-02T14:26:50.911Z</time></trkpt><trkpt lat="42.1038894" lon="13.4418605"><ele>970.0</ele><time>2026-05-02T14:26:51.91Z</time></trkpt><trkpt lat="42.1038225" lon="13.4416934"><ele>970.0</ele><time>2026-05-02T14:26:52.911Z</time></trkpt><trkpt lat="42.1037489" lon="13.441547"><ele>970.0</ele><time>2026-05-02T14:26:53.912Z</time></trkpt><trkpt lat="42.1036684" lon="13.4414106"><ele>970.0</ele><time>2026-05-02T14:26:54.911Z</time></trkpt><trkpt lat="42.1035833" lon="13.4412828"><ele>970.6</ele><time>2026-05-02T14:26:55.91Z</time></trkpt><trkpt lat="42.1034944" lon="13.441153"><ele>971.2</ele><time>2026-05-02T14:26:56.911Z</time></trkpt><trkpt lat="42.1034161" lon="13.4410406"><ele>971.8</ele><time>2026-05-02T14:26:57.912Z</time></trkpt><trkpt lat="42.1033525" lon="13.4409418"><ele>972.4</ele><time>2026-05-02T14:26:58.91Z</time></trkpt><trkpt lat="42.1033059" lon="13.4408261"><ele>973.0</ele><time>2026-05-02T14:26:59.91Z</time></trkpt><trkpt lat="42.1032643" lon="13.4407257"><ele>972.8333333333333</ele><time>2026-05-02T14:27:00.911Z</time></trkpt><trkpt lat="42.103227" lon="13.4406447"><ele>972.6666666666666</ele><time>2026-05-02T14:27:01.911Z</time></trkpt><trkpt lat="42.1031794" lon="13.4405727"><ele>972.5</ele><time>2026-05-02T14:27:02.911Z</time></trkpt><trkpt lat="42.1031235" lon="13.440498"><ele>972.3333333333333</ele><time>2026-05-02T14:27:03.91Z</time></trkpt><trkpt lat="42.1030556" lon="13.44041"><ele>972.1666666666666</ele><time>2026-05-02T14:27:04.912Z</time></trkpt><trkpt lat="42.1030001" lon="13.4403258"><ele>972.0</ele><time>2026-05-02T14:27:05.91Z</time></trkpt><trkpt lat="42.1029487" lon="13.4402496"><ele>972.0</ele><time>2026-05-02T14:27:06.912Z</time></trkpt><trkpt lat="42.1028868" lon="13.4401792"><ele>972.0</ele><time>2026-05-02T14:27:07.911Z</time></trkpt><trkpt lat="42.1028211" lon="13.4401284"><ele>972.0</ele><time>2026-05-02T14:27:08.911Z</time></trkpt><trkpt lat="42.1027367" lon="13.4400822"><ele>972.0</ele><time>2026-05-02T14:27:09.911Z</time></trkpt><trkpt lat="42.1026427" lon="13.4400414"><ele>972.0</ele><time>2026-05-02T14:27:10.91Z</time></trkpt><trkpt lat="42.1025419" lon="13.4399933"><ele>972.0</ele><time>2026-05-02T14:27:11.911Z</time></trkpt><trkpt lat="42.1024557" lon="13.4399422"><ele>972.0</ele><time>2026-05-02T14:27:12.912Z</time></trkpt><trkpt lat="42.1023724" lon="13.4398711"><ele>972.0</ele><time>2026-05-02T14:27:13.911Z</time></trkpt><trkpt lat="42.1022916" lon="13.4397853"><ele>972.0</ele><time>2026-05-02T14:27:14.911Z</time></trkpt><trkpt lat="42.1022127" lon="13.439684"><ele>972.0</ele><time>2026-05-02T14:27:15.911Z</time></trkpt><trkpt lat="42.1021441" lon="13.4395877"><ele>972.8</ele><time>2026-05-02T14:27:16.912Z</time></trkpt><trkpt lat="42.1020833" lon="13.4394894"><ele>973.6</ele><time>2026-05-02T14:27:17.91Z</time></trkpt><trkpt lat="42.1020233" lon="13.4393874"><ele>974.3999999999999</ele><time>2026-05-02T14:27:18.911Z</time></trkpt><trkpt lat="42.1019634" lon="13.4392799"><ele>975.1999999999999</ele><time>2026-05-02T14:27:19.911Z</time></trkpt><trkpt lat="42.1018953" lon="13.4391782"><ele>976.0</ele><time>2026-05-02T14:27:20.911Z</time></trkpt><trkpt lat="42.1018151" lon="13.4390758"><ele>976.0</ele><time>2026-05-02T14:27:21.911Z</time></trkpt><trkpt lat="42.1017327" lon="13.4389731"><ele>975.9999999999999</ele><time>2026-05-02T14:27:22.91Z</time></trkpt><trkpt lat="42.1016582" lon="13.438882"><ele>975.9999999999999</ele><time>2026-05-02T14:27:23.911Z</time></trkpt><trkpt lat="42.1015911" lon="13.4387839"><ele>976.0</ele><time>2026-05-02T14:27:24.912Z</time></trkpt><trkpt lat="42.1015193" lon="13.4386755"><ele>976.0</ele><time>2026-05-02T14:27:25.912Z</time></trkpt><trkpt lat="42.1014509" lon="13.4385715"><ele>975.8333333333333</ele><time>2026-05-02T14:27:26.91Z</time></trkpt><trkpt lat="42.1013872" lon="13.438458"><ele>975.6666666666666</ele><time>2026-05-02T14:27:27.91Z</time></trkpt><trkpt lat="42.1013337" lon="13.4383516"><ele>975.5</ele><time>2026-05-02T14:27:28.911Z</time></trkpt><trkpt lat="42.1012883" lon="13.4382533"><ele>975.3333333333333</ele><time>2026-05-02T14:27:29.91Z</time></trkpt><trkpt lat="42.101249" lon="13.4381729"><ele>975.1666666666666</ele><time>2026-05-02T14:27:30.911Z</time></trkpt><trkpt lat="42.1012101" lon="13.4381059"><ele>975.0</ele><time>2026-05-02T14:27:31.91Z</time></trkpt><trkpt lat="42.101146" lon="13.4379985"><ele>975.0</ele><time>2026-05-02T14:27:33.911Z</time></trkpt><trkpt lat="42.1010969" lon="13.4379185"><ele>975.0</ele><time>2026-05-02T14:27:35.912Z</time></trkpt><trkpt lat="42.1010227" lon="13.4378322"><ele>975.0</ele><time>2026-05-02T14:27:37.911Z</time></trkpt><trkpt lat="42.1009691" lon="13.4377602"><ele>975.0</ele><time>2026-05-02T14:27:38.911Z</time></trkpt><trkpt lat="42.100919" lon="13.4376713"><ele>975.0</ele><time>2026-05-02T14:27:39.912Z</time></trkpt><trkpt lat="42.1008726" lon="13.437579"><ele>975.0</ele><time>2026-05-02T14:27:40.91Z</time></trkpt><trkpt lat="42.100831" lon="13.4374888"><ele>975.0</ele><time>2026-05-02T14:27:41.911Z</time></trkpt><trkpt lat="42.1007891" lon="13.4374062"><ele>975.0</ele><time>2026-05-02T14:27:42.911Z</time></trkpt><trkpt lat="42.100748" lon="13.4373366"><ele>975.0</ele><time>2026-05-02T14:27:43.911Z</time></trkpt><trkpt lat="42.1006867" lon="13.4372497"><ele>975.0</ele><time>2026-05-02T14:27:45.911Z</time></trkpt><trkpt lat="42.1006082" lon="13.4371127"><ele>975.0</ele><time>2026-05-02T14:27:47.911Z</time></trkpt><trkpt lat="42.1005647" lon="13.4370267"><ele>975.0</ele><time>2026-05-02T14:27:48.91Z</time></trkpt><trkpt lat="42.1005185" lon="13.4369365"><ele>974.5</ele><time>2026-05-02T14:27:49.911Z</time></trkpt><trkpt lat="42.1004738" lon="13.4368565"><ele>974.0</ele><time>2026-05-02T14:27:50.911Z</time></trkpt><trkpt lat="42.1004298" lon="13.4367681"><ele>973.5</ele><time>2026-05-02T14:27:51.911Z</time></trkpt><trkpt lat="42.1003849" lon="13.4366705"><ele>973.0</ele><time>2026-05-02T14:27:52.913Z</time></trkpt><trkpt lat="42.1003392" lon="13.4365743"><ele>972.5</ele><time>2026-05-02T14:27:53.912Z</time></trkpt><trkpt lat="42.1002828" lon="13.4364646"><ele>972.0</ele><time>2026-05-02T14:27:54.911Z</time></trkpt><trkpt lat="42.1002207" lon="13.4363423"><ele>972.75</ele><time>2026-05-02T14:27:55.911Z</time></trkpt><trkpt lat="42.1001612" lon="13.4362114"><ele>973.5</ele><time>2026-05-02T14:27:56.911Z</time></trkpt><trkpt lat="42.1000926" lon="13.4360533"><ele>974.25</ele><time>2026-05-02T14:27:57.912Z</time></trkpt><trkpt lat="42.1000229" lon="13.4358773"><ele>975.0</ele><time>2026-05-02T14:27:58.911Z</time></trkpt><trkpt lat="42.0999589" lon="13.4357181"><ele>974.75</ele><time>2026-05-02T14:27:59.911Z</time></trkpt><trkpt lat="42.0999068" lon="13.4355711"><ele>974.5</ele><time>2026-05-02T14:28:00.911Z</time></trkpt><trkpt lat="42.0998583" lon="13.4354369"><ele>974.25</ele><time>2026-05-02T14:28:01.912Z</time></trkpt><trkpt lat="42.0998108" lon="13.4352991"><ele>974.0</ele><time>2026-05-02T14:28:02.911Z</time></trkpt><trkpt lat="42.0997652" lon="13.4351572"><ele>974.0</ele><time>2026-05-02T14:28:03.911Z</time></trkpt><trkpt lat="42.0997222" lon="13.435026"><ele>974.0000000000001</ele><time>2026-05-02T14:28:04.91Z</time></trkpt><trkpt lat="42.0996736" lon="13.4348865"><ele>974.0000000000001</ele><time>2026-05-02T14:28:05.911Z</time></trkpt><trkpt lat="42.0996209" lon="13.43475"><ele>974.0</ele><time>2026-05-02T14:28:06.91Z</time></trkpt><trkpt lat="42.0995656" lon="13.4346189"><ele>974.0</ele><time>2026-05-02T14:28:07.911Z</time></trkpt><trkpt lat="42.0995108" lon="13.4344918"><ele>974.1666666666667</ele><time>2026-05-02T14:28:08.912Z</time></trkpt><trkpt lat="42.0994667" lon="13.4343686"><ele>974.3333333333334</ele><time>2026-05-02T14:28:09.911Z</time></trkpt><trkpt lat="42.0994272" lon="13.4342587"><ele>974.5</ele><time>2026-05-02T14:28:10.912Z</time></trkpt><trkpt lat="42.0994014" lon="13.4341636"><ele>974.6666666666667</ele><time>2026-05-02T14:28:11.91Z</time></trkpt><trkpt lat="42.0993791" lon="13.4340776"><ele>974.8333333333334</ele><time>2026-05-02T14:28:12.911Z</time></trkpt><trkpt lat="42.0993636" lon="13.4339682"><ele>975.0</ele><time>2026-05-02T14:28:14.911Z</time></trkpt><trkpt lat="42.0992993" lon="13.4338323"><ele>974.4</ele><time>2026-05-02T14:28:16.912Z</time></trkpt><trkpt lat="42.0992481" lon="13.433772"><ele>973.8</ele><time>2026-05-02T14:28:17.91Z</time></trkpt><trkpt lat="42.0991759" lon="13.4336976"><ele>973.2</ele><time>2026-05-02T14:28:18.911Z</time></trkpt><trkpt lat="42.0990966" lon="13.4336277"><ele>972.6</ele><time>2026-05-02T14:28:19.911Z</time></trkpt><trkpt lat="42.0990126" lon="13.4335411"><ele>972.0</ele><time>2026-05-02T14:28:20.911Z</time></trkpt><trkpt lat="42.0989334" lon="13.4334461"><ele>972.0</ele><time>2026-05-02T14:28:21.911Z</time></trkpt><trkpt lat="42.0988484" lon="13.4333509"><ele>972.0</ele><time>2026-05-02T14:28:22.911Z</time></trkpt><trkpt lat="42.098754" lon="13.4332588"><ele>972.0</ele><time>2026-05-02T14:28:23.911Z</time></trkpt><trkpt lat="42.0986546" lon="13.433165"><ele>972.0</ele><time>2026-05-02T14:28:24.911Z</time></trkpt><trkpt lat="42.0985496" lon="13.4330604"><ele>971.25</ele><time>2026-05-02T14:28:25.911Z</time></trkpt><trkpt lat="42.0984465" lon="13.4329548"><ele>970.5</ele><time>2026-05-02T14:28:26.911Z</time></trkpt><trkpt lat="42.0983488" lon="13.4328543"><ele>969.75</ele><time>2026-05-02T14:28:27.911Z</time></trkpt><trkpt lat="42.0982541" lon="13.432764"><ele>969.0</ele><time>2026-05-02T14:28:28.912Z</time></trkpt><trkpt lat="42.0981653" lon="13.4326808"><ele>969.0</ele><time>2026-05-02T14:28:29.911Z</time></trkpt><trkpt lat="42.0980834" lon="13.4325963"><ele>969.0</ele><time>2026-05-02T14:28:30.911Z</time></trkpt><trkpt lat="42.0980154" lon="13.4325202"><ele>969.0</ele><time>2026-05-02T14:28:31.911Z</time></trkpt><trkpt lat="42.0979569" lon="13.4324585"><ele>969.0</ele><time>2026-05-02T14:28:32.91Z</time></trkpt><trkpt lat="42.097909" lon="13.4324024"><ele>969.0</ele><time>2026-05-02T14:28:33.911Z</time></trkpt><trkpt lat="42.0978783" lon="13.4323281"><ele>969.0</ele><time>2026-05-02T14:28:35.911Z</time></trkpt><trkpt lat="42.0979427" lon="13.4322919"><ele>969.0</ele><time>2026-05-02T14:28:40.911Z</time></trkpt><trkpt lat="42.0980168" lon="13.4322665"><ele>969.0000000000001</ele><time>2026-05-02T14:28:42.911Z</time></trkpt><trkpt lat="42.0981459" lon="13.4322861"><ele>969.0000000000001</ele><time>2026-05-02T14:28:44.911Z</time></trkpt><trkpt lat="42.0982234" lon="13.4323364"><ele>969.0</ele><time>2026-05-02T14:28:45.911Z</time></trkpt><trkpt lat="42.098313" lon="13.4324112"><ele>969.0</ele><time>2026-05-02T14:28:46.911Z</time></trkpt><trkpt lat="42.0984032" lon="13.4324879"><ele>967.8000000000001</ele><time>2026-05-02T14:28:47.91Z</time></trkpt><trkpt lat="42.0984955" lon="13.4325715"><ele>966.6000000000001</ele><time>2026-05-02T14:28:48.911Z</time></trkpt><trkpt lat="42.0985856" lon="13.432654"><ele>965.4</ele><time>2026-05-02T14:28:49.911Z</time></trkpt><trkpt lat="42.0986764" lon="13.4327335"><ele>964.2</ele><time>2026-05-02T14:28:50.911Z</time></trkpt><trkpt lat="42.0987691" lon="13.432794"><ele>963.0</ele><time>2026-05-02T14:28:51.912Z</time></trkpt><trkpt lat="42.098864" lon="13.4328447"><ele>963.0</ele><time>2026-05-02T14:28:52.911Z</time></trkpt><trkpt lat="42.0989652" lon="13.4328867"><ele>963.0</ele><time>2026-05-02T14:28:53.911Z</time></trkpt><trkpt lat="42.0990676" lon="13.4329144"><ele>963.0</ele><time>2026-05-02T14:28:54.912Z</time></trkpt><trkpt lat="42.0991642" lon="13.4329446"><ele>963.0</ele><time>2026-05-02T14:28:55.911Z</time></trkpt><trkpt lat="42.0992346" lon="13.4329768"><ele>963.0</ele><time>2026-05-02T14:28:56.911Z</time></trkpt><trkpt lat="42.099299" lon="13.4330109"><ele>964.2</ele><time>2026-05-02T14:28:57.911Z</time></trkpt><trkpt lat="42.0994013" lon="13.4330658"><ele>965.4</ele><time>2026-05-02T14:28:59.912Z</time></trkpt><trkpt lat="42.0994965" lon="13.4330414"><ele>966.6000000000001</ele><time>2026-05-02T14:29:01.911Z</time></trkpt><trkpt lat="42.0995902" lon="13.4329873"><ele>967.8000000000001</ele><time>2026-05-02T14:29:03.91Z</time></trkpt><trkpt lat="42.0996891" lon="13.4329456"><ele>969.0</ele><time>2026-05-02T14:29:05.91Z</time></trkpt><trkpt lat="42.0997739" lon="13.4329088"><ele>965.2</ele><time>2026-05-02T14:29:07.911Z</time></trkpt><trkpt lat="42.0998541" lon="13.4328551"><ele>961.4000000000001</ele><time>2026-05-02T14:29:09.912Z</time></trkpt><trkpt lat="42.0999341" lon="13.4327889"><ele>957.6</ele><time>2026-05-02T14:29:11.911Z</time></trkpt><trkpt lat="42.1000098" lon="13.4326993"><ele>953.8</ele><time>2026-05-02T14:29:13.911Z</time></trkpt><trkpt lat="42.1000823" lon="13.4325909"><ele>950.0</ele><time>2026-05-02T14:29:15.911Z</time></trkpt><trkpt lat="42.1001382" lon="13.4324857"><ele>950.0</ele><time>2026-05-02T14:29:17.911Z</time></trkpt><trkpt lat="42.1001768" lon="13.4323792"><ele>950.0000000000001</ele><time>2026-05-02T14:29:19.912Z</time></trkpt><trkpt lat="42.1002168" lon="13.4322967"><ele>950.0</ele><time>2026-05-02T14:29:21.912Z</time></trkpt><trkpt lat="42.1002649" lon="13.4322073"><ele>950.0</ele><time>2026-05-02T14:29:24.91Z</time></trkpt><trkpt lat="42.100309" lon="13.4321276"><ele>950.0000000000001</ele><time>2026-05-02T14:30:08.911Z</time></trkpt><trkpt lat="42.1002768" lon="13.4320518"><ele>950.0</ele><time>2026-05-02T14:30:38.911Z</time></trkpt><trkpt lat="42.1002202" lon="13.4320078"><ele>950.0</ele><time>2026-05-02T14:30:54.91Z</time></trkpt><trkpt lat="42.1001632" lon="13.4319331"><ele>949.3333333333334</ele><time>2026-05-02T14:30:59.911Z</time></trkpt><trkpt lat="42.1001282" lon="13.4318603"><ele>948.6666666666667</ele><time>2026-05-02T14:31:03.911Z</time></trkpt><trkpt lat="42.1000623" lon="13.4318502"><ele>948.0</ele><time>2026-05-02T14:31:08.91Z</time></trkpt><trkpt lat="42.0999919" lon="13.4318997"><ele>947.3333333333333</ele><time>2026-05-02T14:31:10.911Z</time></trkpt><trkpt lat="42.0998874" lon="13.4319584"><ele>946.6666666666666</ele><time>2026-05-02T14:31:12.911Z</time></trkpt><trkpt lat="42.0998255" lon="13.4319979"><ele>946.0</ele><time>2026-05-02T14:31:13.911Z</time></trkpt><trkpt lat="42.0997553" lon="13.432039"><ele>945.0</ele><time>2026-05-02T14:31:14.911Z</time></trkpt><trkpt lat="42.0996834" lon="13.4320742"><ele>944.0</ele><time>2026-05-02T14:31:15.91Z</time></trkpt><trkpt lat="42.0996165" lon="13.4320923"><ele>943.0</ele><time>2026-05-02T14:31:16.912Z</time></trkpt><trkpt lat="42.0995419" lon="13.4320949"><ele>942.0</ele><time>2026-05-02T14:31:17.911Z</time></trkpt><trkpt lat="42.0994654" lon="13.4320883"><ele>941.0</ele><time>2026-05-02T14:31:18.911Z</time></trkpt><trkpt lat="42.0994061" lon="13.4320597"><ele>940.0</ele><time>2026-05-02T14:31:19.91Z</time></trkpt><trkpt lat="42.0993394" lon="13.4320115"><ele>939.0</ele><time>2026-05-02T14:31:20.911Z</time></trkpt><trkpt lat="42.0992559" lon="13.4319718"><ele>939.0</ele><time>2026-05-02T14:31:21.911Z</time></trkpt><trkpt lat="42.0991721" lon="13.4319335"><ele>939.0000000000001</ele><time>2026-05-02T14:31:22.911Z</time></trkpt><trkpt lat="42.0990944" lon="13.4318784"><ele>939.0000000000001</ele><time>2026-05-02T14:31:23.911Z</time></trkpt><trkpt lat="42.0990189" lon="13.4318085"><ele>939.0</ele><time>2026-05-02T14:31:24.911Z</time></trkpt><trkpt lat="42.0989453" lon="13.4317306"><ele>939.0</ele><time>2026-05-02T14:31:25.911Z</time></trkpt><trkpt lat="42.0988753" lon="13.4316405"><ele>938.6666666666666</ele><time>2026-05-02T14:31:26.911Z</time></trkpt><trkpt lat="42.0988171" lon="13.4315547"><ele>938.3333333333333</ele><time>2026-05-02T14:31:27.911Z</time></trkpt><trkpt lat="42.0987583" lon="13.4314714"><ele>938.0</ele><time>2026-05-02T14:31:28.911Z</time></trkpt><trkpt lat="42.0986925" lon="13.431385"><ele>937.6666666666666</ele><time>2026-05-02T14:31:29.911Z</time></trkpt><trkpt lat="42.0986321" lon="13.4313023"><ele>937.3333333333333</ele><time>2026-05-02T14:31:30.911Z</time></trkpt><trkpt lat="42.0985697" lon="13.4312216"><ele>937.0</ele><time>2026-05-02T14:31:31.912Z</time></trkpt><trkpt lat="42.0985018" lon="13.4311409"><ele>936.9999999999999</ele><time>2026-05-02T14:31:32.91Z</time></trkpt><trkpt lat="42.0984303" lon="13.431062"><ele>937.0</ele><time>2026-05-02T14:31:33.91Z</time></trkpt><trkpt lat="42.0983594" lon="13.4309895"><ele>937.0</ele><time>2026-05-02T14:31:34.91Z</time></trkpt><trkpt lat="42.0982963" lon="13.4309171"><ele>937.0</ele><time>2026-05-02T14:31:35.911Z</time></trkpt><trkpt lat="42.0982404" lon="13.4308285"><ele>936.9999999999999</ele><time>2026-05-02T14:31:36.911Z</time></trkpt><trkpt lat="42.0981916" lon="13.4307415"><ele>937.0</ele><time>2026-05-02T14:31:37.911Z</time></trkpt><trkpt lat="42.0981434" lon="13.4306596"><ele>937.4999999999999</ele><time>2026-05-02T14:31:38.911Z</time></trkpt><trkpt lat="42.0980834" lon="13.4305768"><ele>938.0</ele><time>2026-05-02T14:31:39.911Z</time></trkpt><trkpt lat="42.0980315" lon="13.4305032"><ele>938.5</ele><time>2026-05-02T14:31:40.91Z</time></trkpt><trkpt lat="42.0979869" lon="13.4304228"><ele>939.0</ele><time>2026-05-02T14:31:41.912Z</time></trkpt><trkpt lat="42.0979413" lon="13.4303267"><ele>939.4999999999999</ele><time>2026-05-02T14:31:42.911Z</time></trkpt><trkpt lat="42.0978953" lon="13.4302259"><ele>940.0</ele><time>2026-05-02T14:31:43.912Z</time></trkpt><trkpt lat="42.0978501" lon="13.4301354"><ele>939.9999999999999</ele><time>2026-05-02T14:31:44.91Z</time></trkpt><trkpt lat="42.0978076" lon="13.4300486"><ele>940.0</ele><time>2026-05-02T14:31:45.911Z</time></trkpt><trkpt lat="42.0977732" lon="13.4299531"><ele>940.0</ele><time>2026-05-02T14:31:46.91Z</time></trkpt><trkpt lat="42.0977385" lon="13.4298562"><ele>940.0</ele><time>2026-05-02T14:31:47.911Z</time></trkpt><trkpt lat="42.0977035" lon="13.4297613"><ele>939.9999999999999</ele><time>2026-05-02T14:31:48.91Z</time></trkpt><trkpt lat="42.0976711" lon="13.4296624"><ele>940.0</ele><time>2026-05-02T14:31:49.911Z</time></trkpt><trkpt lat="42.0976426" lon="13.4295551"><ele>938.6</ele><time>2026-05-02T14:31:50.909Z</time></trkpt><trkpt lat="42.0976129" lon="13.4294435"><ele>937.2</ele><time>2026-05-02T14:31:51.911Z</time></trkpt><trkpt lat="42.0975905" lon="13.429323"><ele>935.8</ele><time>2026-05-02T14:31:52.912Z</time></trkpt><trkpt lat="42.0975659" lon="13.4292036"><ele>934.4</ele><time>2026-05-02T14:31:53.91Z</time></trkpt><trkpt lat="42.0975402" lon="13.4290795"><ele>933.0</ele><time>2026-05-02T14:31:54.911Z</time></trkpt><trkpt lat="42.0975077" lon="13.428955"><ele>933.0</ele><time>2026-05-02T14:31:55.911Z</time></trkpt><trkpt lat="42.0974812" lon="13.4288367"><ele>933.0</ele><time>2026-05-02T14:31:56.911Z</time></trkpt><trkpt lat="42.0974541" lon="13.4287182"><ele>933.0</ele><time>2026-05-02T14:31:57.911Z</time></trkpt><trkpt lat="42.0974218" lon="13.4286032"><ele>933.0</ele><time>2026-05-02T14:31:58.91Z</time></trkpt><trkpt lat="42.0973863" lon="13.4284808"><ele>933.0</ele><time>2026-05-02T14:31:59.911Z</time></trkpt><trkpt lat="42.0973543" lon="13.4283583"><ele>933.1666666666666</ele><time>2026-05-02T14:32:00.91Z</time></trkpt><trkpt lat="42.0973187" lon="13.4282437"><ele>933.3333333333333</ele><time>2026-05-02T14:32:01.912Z</time></trkpt><trkpt lat="42.0972911" lon="13.4281448"><ele>933.5</ele><time>2026-05-02T14:32:02.911Z</time></trkpt><trkpt lat="42.0972713" lon="13.4280549"><ele>933.6666666666666</ele><time>2026-05-02T14:32:03.911Z</time></trkpt><trkpt lat="42.0972498" lon="13.4279631"><ele>933.8333333333333</ele><time>2026-05-02T14:32:04.91Z</time></trkpt><trkpt lat="42.0972202" lon="13.4278668"><ele>934.0</ele><time>2026-05-02T14:32:05.911Z</time></trkpt><trkpt lat="42.0971991" lon="13.4277751"><ele>933.9999999999999</ele><time>2026-05-02T14:32:06.91Z</time></trkpt><trkpt lat="42.0971881" lon="13.4276747"><ele>934.0</ele><time>2026-05-02T14:32:07.911Z</time></trkpt><trkpt lat="42.0971765" lon="13.4275706"><ele>934.0</ele><time>2026-05-02T14:32:08.91Z</time></trkpt><trkpt lat="42.0971561" lon="13.4274822"><ele>934.0</ele><time>2026-05-02T14:32:09.91Z</time></trkpt><trkpt lat="42.0971276" lon="13.4273782"><ele>933.9999999999999</ele><time>2026-05-02T14:32:10.911Z</time></trkpt><trkpt lat="42.0971037" lon="13.4272591"><ele>934.0</ele><time>2026-05-02T14:32:11.91Z</time></trkpt><trkpt lat="42.0970764" lon="13.4271341"><ele>932.6</ele><time>2026-05-02T14:32:12.912Z</time></trkpt><trkpt lat="42.0970526" lon="13.427006"><ele>931.2</ele><time>2026-05-02T14:32:13.912Z</time></trkpt><trkpt lat="42.0970292" lon="13.426887"><ele>929.8000000000001</ele><time>2026-05-02T14:32:14.911Z</time></trkpt><trkpt lat="42.0970095" lon="13.4267654"><ele>928.4000000000001</ele><time>2026-05-02T14:32:15.912Z</time></trkpt><trkpt lat="42.0969939" lon="13.4266414"><ele>927.0</ele><time>2026-05-02T14:32:16.91Z</time></trkpt><trkpt lat="42.0969725" lon="13.4265132"><ele>927.0</ele><time>2026-05-02T14:32:17.91Z</time></trkpt><trkpt lat="42.0969549" lon="13.4263969"><ele>927.0</ele><time>2026-05-02T14:32:18.911Z</time></trkpt><trkpt lat="42.0969459" lon="13.4262868"><ele>927.0</ele><time>2026-05-02T14:32:19.912Z</time></trkpt><trkpt lat="42.0969265" lon="13.4261657"><ele>927.0</ele><time>2026-05-02T14:32:20.912Z</time></trkpt><trkpt lat="42.0968981" lon="13.4260476"><ele>927.0</ele><time>2026-05-02T14:32:21.911Z</time></trkpt><trkpt lat="42.0968732" lon="13.4259298"><ele>927.0</ele><time>2026-05-02T14:32:22.912Z</time></trkpt><trkpt lat="42.0968521" lon="13.4258109"><ele>926.2</ele><time>2026-05-02T14:32:23.912Z</time></trkpt><trkpt lat="42.0968299" lon="13.4256812"><ele>925.4000000000001</ele><time>2026-05-02T14:32:24.911Z</time></trkpt><trkpt lat="42.0968122" lon="13.4255616"><ele>924.5999999999999</ele><time>2026-05-02T14:32:25.911Z</time></trkpt><trkpt lat="42.0967839" lon="13.4254421"><ele>923.8</ele><time>2026-05-02T14:32:26.911Z</time></trkpt><trkpt lat="42.0967508" lon="13.4253207"><ele>923.0</ele><time>2026-05-02T14:32:27.909Z</time></trkpt><trkpt lat="42.0967113" lon="13.4251812"><ele>922.5</ele><time>2026-05-02T14:32:28.911Z</time></trkpt><trkpt lat="42.0966739" lon="13.4250359"><ele>922.0</ele><time>2026-05-02T14:32:29.911Z</time></trkpt><trkpt lat="42.0966266" lon="13.4248824"><ele>921.5</ele><time>2026-05-02T14:32:30.91Z</time></trkpt><trkpt lat="42.0965745" lon="13.4247315"><ele>921.0</ele><time>2026-05-02T14:32:31.91Z</time></trkpt><trkpt lat="42.0965152" lon="13.4245891"><ele>921.0</ele><time>2026-05-02T14:32:32.911Z</time></trkpt><trkpt lat="42.0964542" lon="13.4244417"><ele>921.0</ele><time>2026-05-02T14:32:33.911Z</time></trkpt><trkpt lat="42.0963916" lon="13.4242966"><ele>921.0</ele><time>2026-05-02T14:32:34.911Z</time></trkpt><trkpt lat="42.0963128" lon="13.4241638"><ele>921.0</ele><time>2026-05-02T14:32:35.91Z</time></trkpt><trkpt lat="42.0962339" lon="13.424027"><ele>921.0</ele><time>2026-05-02T14:32:36.911Z</time></trkpt><trkpt lat="42.0961555" lon="13.4239022"><ele>921.0</ele><time>2026-05-02T14:32:37.911Z</time></trkpt><trkpt lat="42.0960824" lon="13.4237746"><ele>921.0</ele><time>2026-05-02T14:32:38.91Z</time></trkpt><trkpt lat="42.0960212" lon="13.4236492"><ele>921.0</ele><time>2026-05-02T14:32:39.91Z</time></trkpt><trkpt lat="42.095962" lon="13.423523"><ele>922.5</ele><time>2026-05-02T14:32:40.912Z</time></trkpt><trkpt lat="42.0959025" lon="13.4233873"><ele>924.0</ele><time>2026-05-02T14:32:41.911Z</time></trkpt><trkpt lat="42.0958474" lon="13.4232427"><ele>925.5</ele><time>2026-05-02T14:32:42.911Z</time></trkpt><trkpt lat="42.0957946" lon="13.4231011"><ele>927.0</ele><time>2026-05-02T14:32:43.91Z</time></trkpt><trkpt lat="42.0957455" lon="13.4229558"><ele>927.0</ele><time>2026-05-02T14:32:44.911Z</time></trkpt><trkpt lat="42.0957027" lon="13.422823"><ele>927.0</ele><time>2026-05-02T14:32:45.911Z</time></trkpt><trkpt lat="42.0956738" lon="13.4226967"><ele>927.0</ele><time>2026-05-02T14:32:46.91Z</time></trkpt><trkpt lat="42.0956512" lon="13.4225607"><ele>927.0</ele><time>2026-05-02T14:32:47.911Z</time></trkpt><trkpt lat="42.0956341" lon="13.4224134"><ele>927.0</ele><time>2026-05-02T14:32:48.911Z</time></trkpt><trkpt lat="42.0956149" lon="13.422258"><ele>925.75</ele><time>2026-05-02T14:32:49.911Z</time></trkpt><trkpt lat="42.095598" lon="13.4220906"><ele>924.5</ele><time>2026-05-02T14:32:50.911Z</time></trkpt><trkpt lat="42.0955836" lon="13.4219063"><ele>923.25</ele><time>2026-05-02T14:32:51.91Z</time></trkpt><trkpt lat="42.09558" lon="13.4217265"><ele>922.0</ele><time>2026-05-02T14:32:52.911Z</time></trkpt><trkpt lat="42.0955738" lon="13.421545"><ele>922.0</ele><time>2026-05-02T14:32:53.911Z</time></trkpt><trkpt lat="42.095571" lon="13.4213669"><ele>922.0</ele><time>2026-05-02T14:32:54.911Z</time></trkpt><trkpt lat="42.095563" lon="13.4211877"><ele>922.0</ele><time>2026-05-02T14:32:55.91Z</time></trkpt><trkpt lat="42.0955536" lon="13.4210063"><ele>922.0</ele><time>2026-05-02T14:32:56.91Z</time></trkpt><trkpt lat="42.0955479" lon="13.4208315"><ele>920.0</ele><time>2026-05-02T14:32:57.911Z</time></trkpt><trkpt lat="42.0955507" lon="13.4206524"><ele>918.0</ele><time>2026-05-02T14:32:58.911Z</time></trkpt><trkpt lat="42.0955546" lon="13.4204826"><ele>916.0</ele><time>2026-05-02T14:32:59.911Z</time></trkpt><trkpt lat="42.0955515" lon="13.4203196"><ele>914.0</ele><time>2026-05-02T14:33:00.91Z</time></trkpt><trkpt lat="42.0955345" lon="13.4201624"><ele>913.8000000000001</ele><time>2026-05-02T14:33:01.911Z</time></trkpt><trkpt lat="42.09551" lon="13.4200132"><ele>913.6000000000001</ele><time>2026-05-02T14:33:02.912Z</time></trkpt><trkpt lat="42.0954899" lon="13.4198768"><ele>913.4</ele><time>2026-05-02T14:33:03.911Z</time></trkpt><trkpt lat="42.0954823" lon="13.419753"><ele>913.2</ele><time>2026-05-02T14:33:04.91Z</time></trkpt><trkpt lat="42.0954838" lon="13.4196368"><ele>913.0</ele><time>2026-05-02T14:33:05.91Z</time></trkpt><trkpt lat="42.0954833" lon="13.419521"><ele>912.2</ele><time>2026-05-02T14:33:06.911Z</time></trkpt><trkpt lat="42.0954835" lon="13.4193968"><ele>911.4</ele><time>2026-05-02T14:33:07.912Z</time></trkpt><trkpt lat="42.095481" lon="13.4192765"><ele>910.6000000000001</ele><time>2026-05-02T14:33:08.911Z</time></trkpt><trkpt lat="42.0954841" lon="13.4191516"><ele>909.8000000000001</ele><time>2026-05-02T14:33:09.911Z</time></trkpt><trkpt lat="42.0954894" lon="13.4190174"><ele>909.0</ele><time>2026-05-02T14:33:10.911Z</time></trkpt><trkpt lat="42.0954885" lon="13.418885"><ele>908.0</ele><time>2026-05-02T14:33:11.91Z</time></trkpt><trkpt lat="42.0954888" lon="13.4187529"><ele>907.0000000000001</ele><time>2026-05-02T14:33:12.91Z</time></trkpt><trkpt lat="42.0954934" lon="13.4186323"><ele>906.0000000000001</ele><time>2026-05-02T14:33:13.911Z</time></trkpt><trkpt lat="42.0954899" lon="13.4185189"><ele>905.0</ele><time>2026-05-02T14:33:14.911Z</time></trkpt><trkpt lat="42.0954829" lon="13.4183951"><ele>904.0</ele><time>2026-05-02T14:33:15.911Z</time></trkpt><trkpt lat="42.0954795" lon="13.4182682"><ele>904.0</ele><time>2026-05-02T14:33:16.911Z</time></trkpt><trkpt lat="42.0954809" lon="13.4181407"><ele>904.0000000000001</ele><time>2026-05-02T14:33:17.911Z</time></trkpt><trkpt lat="42.0954757" lon="13.4180112"><ele>904.0000000000001</ele><time>2026-05-02T14:33:18.911Z</time></trkpt><trkpt lat="42.095467" lon="13.4178832"><ele>904.0</ele><time>2026-05-02T14:33:19.911Z</time></trkpt><trkpt lat="42.0954532" lon="13.4177446"><ele>904.0</ele><time>2026-05-02T14:33:20.911Z</time></trkpt><trkpt lat="42.0954317" lon="13.4176178"><ele>903.0</ele><time>2026-05-02T14:33:21.911Z</time></trkpt><trkpt lat="42.0953981" lon="13.4174894"><ele>902.0000000000001</ele><time>2026-05-02T14:33:22.912Z</time></trkpt><trkpt lat="42.095359" lon="13.4173541"><ele>901.0000000000001</ele><time>2026-05-02T14:33:23.91Z</time></trkpt><trkpt lat="42.0953292" lon="13.4172172"><ele>900.0</ele><time>2026-05-02T14:33:24.911Z</time></trkpt><trkpt lat="42.0953003" lon="13.4170652"><ele>899.0</ele><time>2026-05-02T14:33:25.911Z</time></trkpt><trkpt lat="42.0952721" lon="13.4168957"><ele>897.8000000000001</ele><time>2026-05-02T14:33:26.912Z</time></trkpt><trkpt lat="42.0952455" lon="13.4167466"><ele>896.6000000000001</ele><time>2026-05-02T14:33:27.912Z</time></trkpt><trkpt lat="42.0952273" lon="13.4166441"><ele>895.4</ele><time>2026-05-02T14:33:28.911Z</time></trkpt><trkpt lat="42.095207" lon="13.4165197"><ele>894.2</ele><time>2026-05-02T14:33:30.911Z</time></trkpt><trkpt lat="42.0953059" lon="13.4164739"><ele>893.0</ele><time>2026-05-02T14:33:33.912Z</time></trkpt><trkpt lat="42.0953689" lon="13.416437"><ele>892.0</ele><time>2026-05-02T14:33:34.911Z</time></trkpt><trkpt lat="42.0954694" lon="13.4163145"><ele>891.0</ele><time>2026-05-02T14:33:36.912Z</time></trkpt><trkpt lat="42.0955311" lon="13.4162256"><ele>890.0</ele><time>2026-05-02T14:33:37.911Z</time></trkpt><trkpt lat="42.0955711" lon="13.4161445"><ele>889.0</ele><time>2026-05-02T14:33:38.911Z</time></trkpt><trkpt lat="42.095608" lon="13.4160482"><ele>888.0</ele><time>2026-05-02T14:33:39.911Z</time></trkpt><trkpt lat="42.0956347" lon="13.4159409"><ele>888.0</ele><time>2026-05-02T14:33:40.911Z</time></trkpt><trkpt lat="42.0956483" lon="13.4158436"><ele>888.0</ele><time>2026-05-02T14:33:41.912Z</time></trkpt><trkpt lat="42.0956516" lon="13.4157312"><ele>888.0</ele><time>2026-05-02T14:33:42.912Z</time></trkpt><trkpt lat="42.0956557" lon="13.4156201"><ele>888.0</ele><time>2026-05-02T14:33:43.911Z</time></trkpt><trkpt lat="42.0956762" lon="13.4155261"><ele>888.0</ele><time>2026-05-02T14:33:44.911Z</time></trkpt><trkpt lat="42.0957121" lon="13.4154418"><ele>888.0</ele><time>2026-05-02T14:33:45.911Z</time></trkpt><trkpt lat="42.0957657" lon="13.4153529"><ele>889.4</ele><time>2026-05-02T14:33:46.91Z</time></trkpt><trkpt lat="42.0958424" lon="13.4152523"><ele>890.8</ele><time>2026-05-02T14:33:47.911Z</time></trkpt><trkpt lat="42.0959223" lon="13.4151424"><ele>892.2</ele><time>2026-05-02T14:33:48.91Z</time></trkpt><trkpt lat="42.0959877" lon="13.4150479"><ele>893.6</ele><time>2026-05-02T14:33:49.91Z</time></trkpt><trkpt lat="42.0960594" lon="13.4149649"><ele>895.0</ele><time>2026-05-02T14:33:50.911Z</time></trkpt><trkpt lat="42.0961355" lon="13.4148879"><ele>895.0</ele><time>2026-05-02T14:33:51.91Z</time></trkpt><trkpt lat="42.0962223" lon="13.4148156"><ele>895.0</ele><time>2026-05-02T14:33:52.91Z</time></trkpt><trkpt lat="42.0963214" lon="13.4147436"><ele>895.0</ele><time>2026-05-02T14:33:53.911Z</time></trkpt><trkpt lat="42.0964209" lon="13.4146792"><ele>895.0</ele><time>2026-05-02T14:33:54.909Z</time></trkpt><trkpt lat="42.0965161" lon="13.4146139"><ele>895.0</ele><time>2026-05-02T14:33:55.911Z</time></trkpt><trkpt lat="42.0966204" lon="13.4145483"><ele>895.8</ele><time>2026-05-02T14:33:56.911Z</time></trkpt><trkpt lat="42.0967239" lon="13.4144821"><ele>896.6</ele><time>2026-05-02T14:33:57.911Z</time></trkpt><trkpt lat="42.0968152" lon="13.4144263"><ele>897.4000000000001</ele><time>2026-05-02T14:33:58.909Z</time></trkpt><trkpt lat="42.0968969" lon="13.4143813"><ele>898.2</ele><time>2026-05-02T14:33:59.911Z</time></trkpt><trkpt lat="42.0969838" lon="13.4143442"><ele>899.0</ele><time>2026-05-02T14:34:00.911Z</time></trkpt><trkpt lat="42.0970741" lon="13.4143053"><ele>899.0</ele><time>2026-05-02T14:34:01.911Z</time></trkpt><trkpt lat="42.0971614" lon="13.414259"><ele>899.0000000000001</ele><time>2026-05-02T14:34:02.911Z</time></trkpt><trkpt lat="42.0972441" lon="13.4141985"><ele>899.0000000000001</ele><time>2026-05-02T14:34:03.911Z</time></trkpt><trkpt lat="42.0973193" lon="13.4141092"><ele>899.0</ele><time>2026-05-02T14:34:04.911Z</time></trkpt><trkpt lat="42.0973858" lon="13.4140105"><ele>899.0</ele><time>2026-05-02T14:34:05.911Z</time></trkpt><trkpt lat="42.0974571" lon="13.413932"><ele>898.6</ele><time>2026-05-02T14:34:06.911Z</time></trkpt><trkpt lat="42.0975446" lon="13.4138667"><ele>898.2</ele><time>2026-05-02T14:34:07.911Z</time></trkpt><trkpt lat="42.0976381" lon="13.4138145"><ele>897.8000000000001</ele><time>2026-05-02T14:34:08.91Z</time></trkpt><trkpt lat="42.0977362" lon="13.4137722"><ele>897.4000000000001</ele><time>2026-05-02T14:34:09.91Z</time></trkpt><trkpt lat="42.0978403" lon="13.4137393"><ele>897.0</ele><time>2026-05-02T14:34:10.911Z</time></trkpt><trkpt lat="42.0979327" lon="13.4137202"><ele>897.0</ele><time>2026-05-02T14:34:11.91Z</time></trkpt><trkpt lat="42.098009" lon="13.4137001"><ele>897.0</ele><time>2026-05-02T14:34:12.91Z</time></trkpt><trkpt lat="42.0980786" lon="13.4136754"><ele>897.0</ele><time>2026-05-02T14:34:13.91Z</time></trkpt><trkpt lat="42.0981553" lon="13.413629"><ele>897.0</ele><time>2026-05-02T14:34:14.911Z</time></trkpt><trkpt lat="42.0982426" lon="13.4135628"><ele>897.0</ele><time>2026-05-02T14:34:15.911Z</time></trkpt><trkpt lat="42.0983386" lon="13.4134834"><ele>897.0</ele><time>2026-05-02T14:34:16.911Z</time></trkpt><trkpt lat="42.0984353" lon="13.4133965"><ele>897.25</ele><time>2026-05-02T14:34:17.912Z</time></trkpt><trkpt lat="42.0985314" lon="13.4133088"><ele>897.5</ele><time>2026-05-02T14:34:18.91Z</time></trkpt><trkpt lat="42.0986274" lon="13.4132143"><ele>897.75</ele><time>2026-05-02T14:34:19.911Z</time></trkpt><trkpt lat="42.0987296" lon="13.4131002"><ele>898.0</ele><time>2026-05-02T14:34:20.911Z</time></trkpt><trkpt lat="42.0988311" lon="13.4129764"><ele>897.25</ele><time>2026-05-02T14:34:21.91Z</time></trkpt><trkpt lat="42.0989289" lon="13.412847"><ele>896.5</ele><time>2026-05-02T14:34:22.911Z</time></trkpt><trkpt lat="42.0990276" lon="13.4127113"><ele>895.75</ele><time>2026-05-02T14:34:23.91Z</time></trkpt><trkpt lat="42.0991141" lon="13.4125652"><ele>895.0</ele><time>2026-05-02T14:34:24.911Z</time></trkpt><trkpt lat="42.0991929" lon="13.4124175"><ele>894.75</ele><time>2026-05-02T14:34:25.912Z</time></trkpt><trkpt lat="42.0992622" lon="13.4122602"><ele>894.5</ele><time>2026-05-02T14:34:26.91Z</time></trkpt><trkpt lat="42.0993217" lon="13.4120983"><ele>894.25</ele><time>2026-05-02T14:34:27.91Z</time></trkpt><trkpt lat="42.0993831" lon="13.4119499"><ele>894.0</ele><time>2026-05-02T14:34:28.911Z</time></trkpt><trkpt lat="42.0994539" lon="13.4118109"><ele>893.0</ele><time>2026-05-02T14:34:29.912Z</time></trkpt><trkpt lat="42.09954" lon="13.4116891"><ele>892.0000000000001</ele><time>2026-05-02T14:34:30.911Z</time></trkpt><trkpt lat="42.0996096" lon="13.4115774"><ele>891.0000000000001</ele><time>2026-05-02T14:34:31.911Z</time></trkpt><trkpt lat="42.0996706" lon="13.4114882"><ele>890.0</ele><time>2026-05-02T14:34:32.911Z</time></trkpt><trkpt lat="42.0997254" lon="13.411428"><ele>889.0</ele><time>2026-05-02T14:34:33.911Z</time></trkpt><trkpt lat="42.099842" lon="13.4113828"><ele>889.0</ele><time>2026-05-02T14:34:35.909Z</time></trkpt><trkpt lat="42.0999009" lon="13.4113527"><ele>889.0000000000001</ele><time>2026-05-02T14:34:36.91Z</time></trkpt><trkpt lat="42.0999641" lon="13.411301"><ele>889.0000000000001</ele><time>2026-05-02T14:34:37.911Z</time></trkpt><trkpt lat="42.1000335" lon="13.4111986"><ele>889.0</ele><time>2026-05-02T14:34:38.911Z</time></trkpt><trkpt lat="42.1001003" lon="13.4110913"><ele>889.0</ele><time>2026-05-02T14:34:39.911Z</time></trkpt><trkpt lat="42.1001722" lon="13.4109769"><ele>888.0</ele><time>2026-05-02T14:34:40.911Z</time></trkpt><trkpt lat="42.1002425" lon="13.4108402"><ele>887.0</ele><time>2026-05-02T14:34:41.911Z</time></trkpt><trkpt lat="42.1003175" lon="13.410715"><ele>886.0</ele><time>2026-05-02T14:34:42.911Z</time></trkpt><trkpt lat="42.1003992" lon="13.410583"><ele>885.0</ele><time>2026-05-02T14:34:43.911Z</time></trkpt><trkpt lat="42.1004781" lon="13.4104425"><ele>884.0</ele><time>2026-05-02T14:34:44.911Z</time></trkpt><trkpt lat="42.1005627" lon="13.4103012"><ele>883.0</ele><time>2026-05-02T14:34:45.911Z</time></trkpt><trkpt lat="42.100636" lon="13.4101533"><ele>882.0</ele><time>2026-05-02T14:34:46.912Z</time></trkpt><trkpt lat="42.1006984" lon="13.4099822"><ele>881.0</ele><time>2026-05-02T14:34:47.911Z</time></trkpt><trkpt lat="42.1007632" lon="13.4098162"><ele>879.5</ele><time>2026-05-02T14:34:48.91Z</time></trkpt><trkpt lat="42.1008216" lon="13.4096559"><ele>878.0</ele><time>2026-05-02T14:34:49.911Z</time></trkpt><trkpt lat="42.1008702" lon="13.4094965"><ele>876.5</ele><time>2026-05-02T14:34:50.912Z</time></trkpt><trkpt lat="42.10092" lon="13.409342"><ele>875.0</ele><time>2026-05-02T14:34:51.911Z</time></trkpt><trkpt lat="42.1009806" lon="13.409199"><ele>875.0</ele><time>2026-05-02T14:34:52.91Z</time></trkpt><trkpt lat="42.1010332" lon="13.4090469"><ele>875.0</ele><time>2026-05-02T14:34:53.911Z</time></trkpt><trkpt lat="42.1010879" lon="13.40891"><ele>875.0</ele><time>2026-05-02T14:34:54.91Z</time></trkpt><trkpt lat="42.1011452" lon="13.4087803"><ele>875.0</ele><time>2026-05-02T14:34:55.911Z</time></trkpt><trkpt lat="42.1011972" lon="13.4086502"><ele>874.0</ele><time>2026-05-02T14:34:56.911Z</time></trkpt><trkpt lat="42.1012451" lon="13.4085193"><ele>873.0</ele><time>2026-05-02T14:34:57.912Z</time></trkpt><trkpt lat="42.1012876" lon="13.4083868"><ele>872.0</ele><time>2026-05-02T14:34:58.912Z</time></trkpt><trkpt lat="42.101327" lon="13.4082595"><ele>871.0</ele><time>2026-05-02T14:34:59.912Z</time></trkpt><trkpt lat="42.1013661" lon="13.4081393"><ele>870.0</ele><time>2026-05-02T14:35:00.911Z</time></trkpt><trkpt lat="42.101395" lon="13.4080172"><ele>869.6</ele><time>2026-05-02T14:35:01.911Z</time></trkpt><trkpt lat="42.1014187" lon="13.4078943"><ele>869.2</ele><time>2026-05-02T14:35:02.91Z</time></trkpt><trkpt lat="42.1014468" lon="13.407774"><ele>868.8</ele><time>2026-05-02T14:35:03.91Z</time></trkpt><trkpt lat="42.1014832" lon="13.4076559"><ele>868.4</ele><time>2026-05-02T14:35:04.911Z</time></trkpt><trkpt lat="42.1015274" lon="13.4075487"><ele>868.0</ele><time>2026-05-02T14:35:05.911Z</time></trkpt><trkpt lat="42.1015722" lon="13.4074425"><ele>867.5999999999999</ele><time>2026-05-02T14:35:06.911Z</time></trkpt><trkpt lat="42.1016153" lon="13.4073365"><ele>867.1999999999999</ele><time>2026-05-02T14:35:07.912Z</time></trkpt><trkpt lat="42.1016603" lon="13.4072175"><ele>866.8</ele><time>2026-05-02T14:35:08.911Z</time></trkpt><trkpt lat="42.101707" lon="13.4071117"><ele>866.4</ele><time>2026-05-02T14:35:09.911Z</time></trkpt><trkpt lat="42.1017524" lon="13.407008"><ele>866.0</ele><time>2026-05-02T14:35:10.911Z</time></trkpt><trkpt lat="42.101788" lon="13.4069105"><ele>865.0000000000001</ele><time>2026-05-02T14:35:11.911Z</time></trkpt><trkpt lat="42.1018239" lon="13.4068279"><ele>864.0</ele><time>2026-05-02T14:35:12.911Z</time></trkpt><trkpt lat="42.1018667" lon="13.406731"><ele>863.0</ele><time>2026-05-02T14:35:13.911Z</time></trkpt><trkpt lat="42.1019116" lon="13.4066634"><ele>862.0</ele><time>2026-05-02T14:35:14.911Z</time></trkpt><trkpt lat="42.1019695" lon="13.4065865"><ele>861.0000000000001</ele><time>2026-05-02T14:35:15.911Z</time></trkpt><trkpt lat="42.1020307" lon="13.4065191"><ele>860.0</ele><time>2026-05-02T14:35:16.911Z</time></trkpt><trkpt lat="42.1021004" lon="13.4064546"><ele>860.0000000000001</ele><time>2026-05-02T14:35:17.911Z</time></trkpt><trkpt lat="42.1021776" lon="13.4063917"><ele>860.0</ele><time>2026-05-02T14:35:18.911Z</time></trkpt><trkpt lat="42.1022485" lon="13.4063315"><ele>860.0</ele><time>2026-05-02T14:35:19.911Z</time></trkpt><trkpt lat="42.1023146" lon="13.4062678"><ele>860.0</ele><time>2026-05-02T14:35:20.91Z</time></trkpt><trkpt lat="42.1023702" lon="13.4061976"><ele>860.0000000000001</ele><time>2026-05-02T14:35:21.91Z</time></trkpt><trkpt lat="42.1024442" lon="13.4060757"><ele>860.0</ele><time>2026-05-02T14:35:23.909Z</time></trkpt><trkpt lat="42.1024829" lon="13.4059967"><ele>858.8</ele><time>2026-05-02T14:35:25.911Z</time></trkpt><trkpt lat="42.1025552" lon="13.4059078"><ele>857.6</ele><time>2026-05-02T14:35:28.91Z</time></trkpt><trkpt lat="42.1025918" lon="13.4058159"><ele>856.4000000000001</ele><time>2026-05-02T14:35:30.91Z</time></trkpt><trkpt lat="42.1026137" lon="13.4056851"><ele>855.2</ele><time>2026-05-02T14:35:32.911Z</time></trkpt><trkpt lat="42.1026383" lon="13.4055029"><ele>854.0</ele><time>2026-05-02T14:35:34.911Z</time></trkpt><trkpt lat="42.1026566" lon="13.4054151"><ele>853.5000000000001</ele><time>2026-05-02T14:35:35.909Z</time></trkpt><trkpt lat="42.1026897" lon="13.4053221"><ele>853.0</ele><time>2026-05-02T14:35:36.91Z</time></trkpt><trkpt lat="42.1027294" lon="13.4052316"><ele>852.5</ele><time>2026-05-02T14:35:37.91Z</time></trkpt><trkpt lat="42.1027727" lon="13.405121"><ele>852.0</ele><time>2026-05-02T14:35:38.91Z</time></trkpt><trkpt lat="42.1028124" lon="13.4050077"><ele>851.5000000000001</ele><time>2026-05-02T14:35:39.912Z</time></trkpt><trkpt lat="42.1028533" lon="13.404884"><ele>851.0</ele><time>2026-05-02T14:35:40.911Z</time></trkpt><trkpt lat="42.1028926" lon="13.4047687"><ele>850.4</ele><time>2026-05-02T14:35:41.91Z</time></trkpt><trkpt lat="42.1029332" lon="13.4046467"><ele>849.8</ele><time>2026-05-02T14:35:42.911Z</time></trkpt><trkpt lat="42.1029701" lon="13.4045199"><ele>849.1999999999999</ele><time>2026-05-02T14:35:43.911Z</time></trkpt><trkpt lat="42.103007" lon="13.4043882"><ele>848.5999999999999</ele><time>2026-05-02T14:35:44.91Z</time></trkpt><trkpt lat="42.1030502" lon="13.4042679"><ele>848.0</ele><time>2026-05-02T14:35:45.912Z</time></trkpt><trkpt lat="42.1030955" lon="13.4041545"><ele>848.0</ele><time>2026-05-02T14:35:46.911Z</time></trkpt><trkpt lat="42.1031416" lon="13.4040316"><ele>848.0</ele><time>2026-05-02T14:35:47.911Z</time></trkpt><trkpt lat="42.1031923" lon="13.4039162"><ele>848.0</ele><time>2026-05-02T14:35:48.912Z</time></trkpt><trkpt lat="42.1032524" lon="13.4038002"><ele>848.0</ele><time>2026-05-02T14:35:49.91Z</time></trkpt><trkpt lat="42.1033088" lon="13.4036904"><ele>848.0</ele><time>2026-05-02T14:35:50.912Z</time></trkpt><trkpt lat="42.1033589" lon="13.4035824"><ele>847.2</ele><time>2026-05-02T14:35:51.909Z</time></trkpt><trkpt lat="42.1034145" lon="13.4034664"><ele>846.4</ele><time>2026-05-02T14:35:52.911Z</time></trkpt><trkpt lat="42.1034655" lon="13.4033562"><ele>845.6</ele><time>2026-05-02T14:35:53.911Z</time></trkpt><trkpt lat="42.1035194" lon="13.4032466"><ele>844.8000000000001</ele><time>2026-05-02T14:35:54.91Z</time></trkpt><trkpt lat="42.1035729" lon="13.4031333"><ele>844.0</ele><time>2026-05-02T14:35:55.911Z</time></trkpt><trkpt lat="42.1036207" lon="13.4030209"><ele>843.2</ele><time>2026-05-02T14:35:56.91Z</time></trkpt><trkpt lat="42.1036736" lon="13.4029016"><ele>842.4000000000001</ele><time>2026-05-02T14:35:57.911Z</time></trkpt><trkpt lat="42.1037269" lon="13.4027891"><ele>841.6</ele><time>2026-05-02T14:35:58.911Z</time></trkpt><trkpt lat="42.1037834" lon="13.4026794"><ele>840.8</ele><time>2026-05-02T14:35:59.911Z</time></trkpt><trkpt lat="42.1038421" lon="13.4025785"><ele>840.0</ele><time>2026-05-02T14:36:00.911Z</time></trkpt><trkpt lat="42.1039048" lon="13.4024764"><ele>840.0</ele><time>2026-05-02T14:36:01.911Z</time></trkpt><trkpt lat="42.1039832" lon="13.4023765"><ele>840.0</ele><time>2026-05-02T14:36:02.91Z</time></trkpt><trkpt lat="42.1040673" lon="13.4022695"><ele>840.0</ele><time>2026-05-02T14:36:03.911Z</time></trkpt><trkpt lat="42.1041532" lon="13.4021594"><ele>840.0</ele><time>2026-05-02T14:36:04.91Z</time></trkpt><trkpt lat="42.1042262" lon="13.4020556"><ele>840.0</ele><time>2026-05-02T14:36:05.911Z</time></trkpt><trkpt lat="42.104294" lon="13.4019379"><ele>839.75</ele><time>2026-05-02T14:36:06.91Z</time></trkpt><trkpt lat="42.1043649" lon="13.4018086"><ele>839.5</ele><time>2026-05-02T14:36:07.909Z</time></trkpt><trkpt lat="42.1044312" lon="13.4016832"><ele>839.25</ele><time>2026-05-02T14:36:08.911Z</time></trkpt><trkpt lat="42.1045005" lon="13.4015603"><ele>839.0</ele><time>2026-05-02T14:36:09.912Z</time></trkpt><trkpt lat="42.1045644" lon="13.4014355"><ele>838.4000000000001</ele><time>2026-05-02T14:36:10.911Z</time></trkpt><trkpt lat="42.1046305" lon="13.4013217"><ele>837.8</ele><time>2026-05-02T14:36:11.911Z</time></trkpt><trkpt lat="42.1046965" lon="13.4011976"><ele>837.2</ele><time>2026-05-02T14:36:12.91Z</time></trkpt><trkpt lat="42.1047627" lon="13.4010796"><ele>836.5999999999999</ele><time>2026-05-02T14:36:13.91Z</time></trkpt><trkpt lat="42.1048257" lon="13.400973"><ele>836.0</ele><time>2026-05-02T14:36:14.909Z</time></trkpt><trkpt lat="42.1048871" lon="13.4008671"><ele>836.4</ele><time>2026-05-02T14:36:15.911Z</time></trkpt><trkpt lat="42.1049428" lon="13.4007477"><ele>836.8</ele><time>2026-05-02T14:36:16.911Z</time></trkpt><trkpt lat="42.1049984" lon="13.4006417"><ele>837.1999999999999</ele><time>2026-05-02T14:36:17.911Z</time></trkpt><trkpt lat="42.1050604" lon="13.4005409"><ele>837.5999999999999</ele><time>2026-05-02T14:36:18.911Z</time></trkpt><trkpt lat="42.1051173" lon="13.4004261"><ele>838.0</ele><time>2026-05-02T14:36:19.911Z</time></trkpt><trkpt lat="42.1051792" lon="13.4003196"><ele>837.2</ele><time>2026-05-02T14:36:20.911Z</time></trkpt><trkpt lat="42.10524" lon="13.4002074"><ele>836.4</ele><time>2026-05-02T14:36:21.91Z</time></trkpt><trkpt lat="42.1053039" lon="13.4000969"><ele>835.6</ele><time>2026-05-02T14:36:22.911Z</time></trkpt><trkpt lat="42.1053681" lon="13.39998"><ele>834.8000000000001</ele><time>2026-05-02T14:36:23.911Z</time></trkpt><trkpt lat="42.105427" lon="13.3998517"><ele>834.0</ele><time>2026-05-02T14:36:24.91Z</time></trkpt><trkpt lat="42.1054795" lon="13.3997398"><ele>833.8000000000001</ele><time>2026-05-02T14:36:25.911Z</time></trkpt><trkpt lat="42.1055235" lon="13.3996281"><ele>833.6</ele><time>2026-05-02T14:36:26.911Z</time></trkpt><trkpt lat="42.1055641" lon="13.3995128"><ele>833.4</ele><time>2026-05-02T14:36:27.91Z</time></trkpt><trkpt lat="42.1055944" lon="13.3993956"><ele>833.2</ele><time>2026-05-02T14:36:28.91Z</time></trkpt><trkpt lat="42.1056222" lon="13.399283"><ele>833.0</ele><time>2026-05-02T14:36:29.911Z</time></trkpt><trkpt lat="42.1056291" lon="13.3991478"><ele>833.0</ele><time>2026-05-02T14:36:30.911Z</time></trkpt><trkpt lat="42.1056258" lon="13.3990188"><ele>833.0</ele><time>2026-05-02T14:36:31.91Z</time></trkpt><trkpt lat="42.1056307" lon="13.3989082"><ele>833.0</ele><time>2026-05-02T14:36:32.911Z</time></trkpt><trkpt lat="42.1056812" lon="13.3987456"><ele>833.0</ele><time>2026-05-02T14:36:34.911Z</time></trkpt><trkpt lat="42.1057257" lon="13.3986434"><ele>833.0</ele><time>2026-05-02T14:36:35.91Z</time></trkpt><trkpt lat="42.1057968" lon="13.3985582"><ele>833.0</ele><time>2026-05-02T14:36:36.911Z</time></trkpt><trkpt lat="42.1058724" lon="13.3984805"><ele>833.0</ele><time>2026-05-02T14:36:37.91Z</time></trkpt><trkpt lat="42.1059489" lon="13.3984149"><ele>833.0</ele><time>2026-05-02T14:36:38.91Z</time></trkpt><trkpt lat="42.1060328" lon="13.3983484"><ele>833.0</ele><time>2026-05-02T14:36:39.912Z</time></trkpt><trkpt lat="42.1061275" lon="13.3982648"><ele>833.0</ele><time>2026-05-02T14:36:40.911Z</time></trkpt><trkpt lat="42.1062287" lon="13.3981907"><ele>833.0</ele><time>2026-05-02T14:36:41.911Z</time></trkpt><trkpt lat="42.1063401" lon="13.3981157"><ele>833.0</ele><time>2026-05-02T14:36:42.911Z</time></trkpt><trkpt lat="42.1064495" lon="13.3980384"><ele>833.0</ele><time>2026-05-02T14:36:43.91Z</time></trkpt><trkpt lat="42.1065565" lon="13.3979479"><ele>833.0</ele><time>2026-05-02T14:36:44.909Z</time></trkpt><trkpt lat="42.1066517" lon="13.3978411"><ele>834.0</ele><time>2026-05-02T14:36:45.912Z</time></trkpt><trkpt lat="42.1067368" lon="13.3977259"><ele>835.0</ele><time>2026-05-02T14:36:46.911Z</time></trkpt><trkpt lat="42.1068153" lon="13.39761"><ele>836.0</ele><time>2026-05-02T14:36:47.911Z</time></trkpt><trkpt lat="42.1068909" lon="13.3974891"><ele>837.0</ele><time>2026-05-02T14:36:48.911Z</time></trkpt><trkpt lat="42.1069576" lon="13.3973731"><ele>837.0</ele><time>2026-05-02T14:36:49.911Z</time></trkpt><trkpt lat="42.1070189" lon="13.397269"><ele>837.0</ele><time>2026-05-02T14:36:50.91Z</time></trkpt><trkpt lat="42.1070726" lon="13.3971579"><ele>837.0</ele><time>2026-05-02T14:36:51.91Z</time></trkpt><trkpt lat="42.1071277" lon="13.3970517"><ele>837.0</ele><time>2026-05-02T14:36:52.911Z</time></trkpt><trkpt lat="42.1071673" lon="13.396969"><ele>837.0</ele><time>2026-05-02T14:36:53.91Z</time></trkpt><trkpt lat="42.1071932" lon="13.3968884"><ele>837.0</ele><time>2026-05-02T14:36:54.911Z</time></trkpt><trkpt lat="42.1071835" lon="13.3967484"><ele>837.4000000000001</ele><time>2026-05-02T14:36:56.911Z</time></trkpt><trkpt lat="42.1071426" lon="13.3966569"><ele>837.8000000000001</ele><time>2026-05-02T14:36:57.912Z</time></trkpt><trkpt lat="42.1070943" lon="13.3965528"><ele>838.2</ele><time>2026-05-02T14:36:58.909Z</time></trkpt><trkpt lat="42.10703" lon="13.396406"><ele>838.6</ele><time>2026-05-02T14:36:59.91Z</time></trkpt><trkpt lat="42.1069557" lon="13.3962535"><ele>839.0</ele><time>2026-05-02T14:37:00.912Z</time></trkpt><trkpt lat="42.1068734" lon="13.3960925"><ele>840.3333333333334</ele><time>2026-05-02T14:37:01.91Z</time></trkpt><trkpt lat="42.1067959" lon="13.3959169"><ele>841.6666666666667</ele><time>2026-05-02T14:37:02.91Z</time></trkpt><trkpt lat="42.106716" lon="13.395732"><ele>843.0</ele><time>2026-05-02T14:37:03.91Z</time></trkpt><trkpt lat="42.1066432" lon="13.3955551"><ele>842.75</ele><time>2026-05-02T14:37:04.911Z</time></trkpt><trkpt lat="42.1065726" lon="13.395394"><ele>842.5</ele><time>2026-05-02T14:37:05.91Z</time></trkpt><trkpt lat="42.1065018" lon="13.395236"><ele>842.25</ele><time>2026-05-02T14:37:06.911Z</time></trkpt><trkpt lat="42.106433" lon="13.3950714"><ele>842.0</ele><time>2026-05-02T14:37:07.912Z</time></trkpt><trkpt lat="42.1063688" lon="13.3949197"><ele>842.0</ele><time>2026-05-02T14:37:08.91Z</time></trkpt><trkpt lat="42.1063034" lon="13.3947778"><ele>842.0</ele><time>2026-05-02T14:37:09.91Z</time></trkpt><trkpt lat="42.106242" lon="13.3946535"><ele>842.0</ele><time>2026-05-02T14:37:10.911Z</time></trkpt><trkpt lat="42.1061911" lon="13.3945361"><ele>842.0</ele><time>2026-05-02T14:37:11.91Z</time></trkpt><trkpt lat="42.1061505" lon="13.3944371"><ele>842.0</ele><time>2026-05-02T14:37:12.911Z</time></trkpt><trkpt lat="42.1061193" lon="13.3943616"><ele>842.1666666666667</ele><time>2026-05-02T14:37:13.911Z</time></trkpt><trkpt lat="42.1060891" lon="13.3942555"><ele>842.3333333333334</ele><time>2026-05-02T14:37:15.911Z</time></trkpt><trkpt lat="42.1060309" lon="13.3941762"><ele>842.5</ele><time>2026-05-02T14:37:17.91Z</time></trkpt><trkpt lat="42.1059565" lon="13.394142"><ele>842.6666666666667</ele><time>2026-05-02T14:37:18.909Z</time></trkpt><trkpt lat="42.1058766" lon="13.3941061"><ele>842.8333333333334</ele><time>2026-05-02T14:37:19.911Z</time></trkpt><trkpt lat="42.1057899" lon="13.3940745"><ele>843.0</ele><time>2026-05-02T14:37:20.911Z</time></trkpt><trkpt lat="42.1057171" lon="13.3940452"><ele>841.2</ele><time>2026-05-02T14:37:21.91Z</time></trkpt><trkpt lat="42.1056303" lon="13.393974"><ele>839.4</ele><time>2026-05-02T14:37:23.91Z</time></trkpt><trkpt lat="42.1055055" lon="13.3939324"><ele>837.6</ele><time>2026-05-02T14:37:25.91Z</time></trkpt><trkpt lat="42.1054212" lon="13.3939469"><ele>835.8000000000001</ele><time>2026-05-02T14:37:26.911Z</time></trkpt><trkpt lat="42.105348" lon="13.3939849"><ele>834.0</ele><time>2026-05-02T14:37:27.912Z</time></trkpt><trkpt lat="42.1052701" lon="13.3940307"><ele>834.0</ele><time>2026-05-02T14:37:28.909Z</time></trkpt><trkpt lat="42.105194" lon="13.3940917"><ele>834.0</ele><time>2026-05-02T14:37:29.91Z</time></trkpt><trkpt lat="42.1051308" lon="13.3941703"><ele>834.0</ele><time>2026-05-02T14:37:30.91Z</time></trkpt><trkpt lat="42.1050826" lon="13.3942352"><ele>834.0</ele><time>2026-05-02T14:37:31.911Z</time></trkpt><trkpt lat="42.1050018" lon="13.3942885"><ele>834.0</ele><time>2026-05-02T14:37:33.91Z</time></trkpt><trkpt lat="42.1049485" lon="13.3942052"><ele>834.0</ele><time>2026-05-02T14:37:35.911Z</time></trkpt><trkpt lat="42.1049517" lon="13.3941099"><ele>834.0</ele><time>2026-05-02T14:37:36.911Z</time></trkpt><trkpt lat="42.104967" lon="13.3939712"><ele>834.0</ele><time>2026-05-02T14:37:37.91Z</time></trkpt><trkpt lat="42.1049857" lon="13.3938258"><ele>834.0</ele><time>2026-05-02T14:37:38.909Z</time></trkpt><trkpt lat="42.1050042" lon="13.3936823"><ele>834.0</ele><time>2026-05-02T14:37:39.91Z</time></trkpt><trkpt lat="42.1050475" lon="13.3935415"><ele>834.0</ele><time>2026-05-02T14:37:40.91Z</time></trkpt><trkpt lat="42.1050879" lon="13.3934046"><ele>833.2</ele><time>2026-05-02T14:37:41.911Z</time></trkpt><trkpt lat="42.10513" lon="13.3932763"><ele>832.4000000000001</ele><time>2026-05-02T14:37:42.91Z</time></trkpt><trkpt lat="42.1051695" lon="13.3931342"><ele>831.6</ele><time>2026-05-02T14:37:43.911Z</time></trkpt><trkpt lat="42.1052018" lon="13.3929854"><ele>830.8</ele><time>2026-05-02T14:37:44.911Z</time></trkpt><trkpt lat="42.1052222" lon="13.3928341"><ele>830.0</ele><time>2026-05-02T14:37:45.911Z</time></trkpt><trkpt lat="42.1052271" lon="13.3926953"><ele>829.0</ele><time>2026-05-02T14:37:46.91Z</time></trkpt><trkpt lat="42.105209" lon="13.3925506"><ele>828.0</ele><time>2026-05-02T14:37:47.91Z</time></trkpt><trkpt lat="42.1051659" lon="13.3924047"><ele>827.0</ele><time>2026-05-02T14:37:48.911Z</time></trkpt><trkpt lat="42.105107" lon="13.3922633"><ele>826.0</ele><time>2026-05-02T14:37:49.91Z</time></trkpt><trkpt lat="42.1050532" lon="13.3921187"><ele>826.0</ele><time>2026-05-02T14:37:50.911Z</time></trkpt><trkpt lat="42.1049934" lon="13.3919692"><ele>826.0</ele><time>2026-05-02T14:37:51.91Z</time></trkpt><trkpt lat="42.104933" lon="13.3918201"><ele>826.0</ele><time>2026-05-02T14:37:52.911Z</time></trkpt><trkpt lat="42.1048826" lon="13.3916637"><ele>826.0</ele><time>2026-05-02T14:37:53.911Z</time></trkpt><trkpt lat="42.1048329" lon="13.3915043"><ele>826.5</ele><time>2026-05-02T14:37:54.911Z</time></trkpt><trkpt lat="42.1047851" lon="13.3913414"><ele>827.0</ele><time>2026-05-02T14:37:55.91Z</time></trkpt><trkpt lat="42.104741" lon="13.3911646"><ele>827.5</ele><time>2026-05-02T14:37:56.912Z</time></trkpt><trkpt lat="42.104694" lon="13.3909835"><ele>828.0</ele><time>2026-05-02T14:37:57.911Z</time></trkpt><trkpt lat="42.10465" lon="13.3908043"><ele>828.0</ele><time>2026-05-02T14:37:58.912Z</time></trkpt><trkpt lat="42.1046072" lon="13.390629"><ele>828.0</ele><time>2026-05-02T14:37:59.911Z</time></trkpt><trkpt lat="42.104562" lon="13.390462"><ele>828.0</ele><time>2026-05-02T14:38:00.911Z</time></trkpt><trkpt lat="42.1045243" lon="13.390301"><ele>828.0</ele><time>2026-05-02T14:38:01.911Z</time></trkpt><trkpt lat="42.1044933" lon="13.3901598"><ele>828.5</ele><time>2026-05-02T14:38:02.911Z</time></trkpt><trkpt lat="42.1044707" lon="13.3900392"><ele>829.0</ele><time>2026-05-02T14:38:03.91Z</time></trkpt><trkpt lat="42.1044545" lon="13.3899379"><ele>829.5</ele><time>2026-05-02T14:38:04.911Z</time></trkpt><trkpt lat="42.1044546" lon="13.3898524"><ele>830.0</ele><time>2026-05-02T14:38:05.911Z</time></trkpt><trkpt lat="42.1044733" lon="13.3897263"><ele>830.5</ele><time>2026-05-02T14:38:07.91Z</time></trkpt><trkpt lat="42.1044595" lon="13.3896404"><ele>831.0</ele><time>2026-05-02T14:38:09.911Z</time></trkpt><trkpt lat="42.1043918" lon="13.3896036"><ele>831.1999999999999</ele><time>2026-05-02T14:38:11.911Z</time></trkpt><trkpt lat="42.1042951" lon="13.3895654"><ele>831.4</ele><time>2026-05-02T14:38:13.91Z</time></trkpt><trkpt lat="42.1041646" lon="13.3895318"><ele>831.6</ele><time>2026-05-02T14:38:15.911Z</time></trkpt><trkpt lat="42.104089" lon="13.3895159"><ele>831.8</ele><time>2026-05-02T14:38:16.91Z</time></trkpt><trkpt lat="42.1040121" lon="13.389503"><ele>832.0</ele><time>2026-05-02T14:38:17.91Z</time></trkpt><trkpt lat="42.1039336" lon="13.3894869"><ele>831.4999999999999</ele><time>2026-05-02T14:38:18.91Z</time></trkpt><trkpt lat="42.1038643" lon="13.389476"><ele>831.0</ele><time>2026-05-02T14:38:19.91Z</time></trkpt><trkpt lat="42.1037949" lon="13.3894777"><ele>830.5</ele><time>2026-05-02T14:38:20.91Z</time></trkpt><trkpt lat="42.1036893" lon="13.3894319"><ele>830.0</ele><time>2026-05-02T14:38:22.911Z</time></trkpt><trkpt lat="42.1036351" lon="13.3893797"><ele>829.4999999999999</ele><time>2026-05-02T14:38:23.91Z</time></trkpt><trkpt lat="42.1035827" lon="13.3893016"><ele>829.0</ele><time>2026-05-02T14:38:24.911Z</time></trkpt><trkpt lat="42.1035245" lon="13.3891947"><ele>829.0</ele><time>2026-05-02T14:38:25.912Z</time></trkpt><trkpt lat="42.1034742" lon="13.3890818"><ele>829.0</ele><time>2026-05-02T14:38:26.911Z</time></trkpt><trkpt lat="42.1034293" lon="13.3889413"><ele>829.0</ele><time>2026-05-02T14:38:27.91Z</time></trkpt><trkpt lat="42.1033925" lon="13.3888122"><ele>829.0</ele><time>2026-05-02T14:38:28.911Z</time></trkpt><trkpt lat="42.1033468" lon="13.3886909"><ele>829.0</ele><time>2026-05-02T14:38:29.912Z</time></trkpt><trkpt lat="42.103301" lon="13.3885796"><ele>828.8000000000001</ele><time>2026-05-02T14:38:30.911Z</time></trkpt><trkpt lat="42.1032488" lon="13.3884687"><ele>828.6</ele><time>2026-05-02T14:38:31.911Z</time></trkpt><trkpt lat="42.1032026" lon="13.3883704"><ele>828.4</ele><time>2026-05-02T14:38:32.911Z</time></trkpt><trkpt lat="42.1031619" lon="13.3882826"><ele>828.2</ele><time>2026-05-02T14:38:33.91Z</time></trkpt><trkpt lat="42.1031388" lon="13.3881499"><ele>828.0</ele><time>2026-05-02T14:38:35.911Z</time></trkpt><trkpt lat="42.1031803" lon="13.3880107"><ele>827.4</ele><time>2026-05-02T14:38:37.911Z</time></trkpt><trkpt lat="42.1032051" lon="13.3878352"><ele>826.8</ele><time>2026-05-02T14:38:39.911Z</time></trkpt><trkpt lat="42.1031509" lon="13.3876909"><ele>826.2</ele><time>2026-05-02T14:38:40.91Z</time></trkpt><trkpt lat="42.1031117" lon="13.3875835"><ele>825.6</ele><time>2026-05-02T14:38:41.911Z</time></trkpt><trkpt lat="42.1030756" lon="13.3874807"><ele>825.0</ele><time>2026-05-02T14:38:42.909Z</time></trkpt><trkpt lat="42.1030485" lon="13.387396"><ele>825.0</ele><time>2026-05-02T14:38:43.911Z</time></trkpt><trkpt lat="42.103025" lon="13.3873146"><ele>825.0</ele><time>2026-05-02T14:38:44.91Z</time></trkpt><trkpt lat="42.1029964" lon="13.3872339"><ele>825.0</ele><time>2026-05-02T14:38:45.911Z</time></trkpt><trkpt lat="42.1029521" lon="13.3871104"><ele>825.0</ele><time>2026-05-02T14:38:47.911Z</time></trkpt><trkpt lat="42.1029369" lon="13.3870183"><ele>825.0</ele><time>2026-05-02T14:38:49.91Z</time></trkpt><trkpt lat="42.1029697" lon="13.3869423"><ele>825.0</ele><time>2026-05-02T14:38:51.912Z</time></trkpt><trkpt lat="42.1029903" lon="13.3868201"><ele>825.0</ele><time>2026-05-02T14:38:53.912Z</time></trkpt><trkpt lat="42.1029454" lon="13.3866522"><ele>825.0</ele><time>2026-05-02T14:38:55.91Z</time></trkpt><trkpt lat="42.1029009" lon="13.3865717"><ele>825.0</ele><time>2026-05-02T14:38:56.911Z</time></trkpt><trkpt lat="42.1028552" lon="13.3865001"><ele>825.0</ele><time>2026-05-02T14:38:57.912Z</time></trkpt><trkpt lat="42.1028289" lon="13.3864105"><ele>825.0</ele><time>2026-05-02T14:38:58.91Z</time></trkpt><trkpt lat="42.1027905" lon="13.3863194"><ele>825.0</ele><time>2026-05-02T14:38:59.911Z</time></trkpt><trkpt lat="42.1027504" lon="13.3862264"><ele>825.2</ele><time>2026-05-02T14:39:00.911Z</time></trkpt><trkpt lat="42.1026926" lon="13.3861162"><ele>825.4</ele><time>2026-05-02T14:39:01.91Z</time></trkpt><trkpt lat="42.1026353" lon="13.3859991"><ele>825.5999999999999</ele><time>2026-05-02T14:39:02.911Z</time></trkpt><trkpt lat="42.10258" lon="13.385892"><ele>825.8</ele><time>2026-05-02T14:39:03.911Z</time></trkpt><trkpt lat="42.1025223" lon="13.3857925"><ele>826.0</ele><time>2026-05-02T14:39:04.911Z</time></trkpt><trkpt lat="42.1024724" lon="13.3857081"><ele>825.9999999999999</ele><time>2026-05-02T14:39:05.91Z</time></trkpt><trkpt lat="42.1024271" lon="13.3856356"><ele>826.0</ele><time>2026-05-02T14:39:06.91Z</time></trkpt><trkpt lat="42.1023726" lon="13.3855272"><ele>826.0</ele><time>2026-05-02T14:39:08.911Z</time></trkpt><trkpt lat="42.1023314" lon="13.3854597"><ele>826.0</ele><time>2026-05-02T14:39:10.91Z</time></trkpt><trkpt lat="42.1023088" lon="13.3853792"><ele>825.9999999999999</ele><time>2026-05-02T14:39:12.91Z</time></trkpt><trkpt lat="42.10233" lon="13.3852773"><ele>826.0</ele><time>2026-05-02T14:39:14.91Z</time></trkpt><trkpt lat="42.1023811" lon="13.3851575"><ele>826.3333333333333</ele><time>2026-05-02T14:39:16.911Z</time></trkpt><trkpt lat="42.1024466" lon="13.3850645"><ele>826.6666666666666</ele><time>2026-05-02T14:39:18.909Z</time></trkpt><trkpt lat="42.1025177" lon="13.3849642"><ele>827.0</ele><time>2026-05-02T14:39:20.91Z</time></trkpt><trkpt lat="42.1025623" lon="13.384903"><ele>827.3333333333333</ele><time>2026-05-02T14:39:21.91Z</time></trkpt><trkpt lat="42.1026088" lon="13.3848391"><ele>827.6666666666666</ele><time>2026-05-02T14:39:22.911Z</time></trkpt><trkpt lat="42.1026683" lon="13.3847728"><ele>828.0</ele><time>2026-05-02T14:39:23.911Z</time></trkpt><trkpt lat="42.1027296" lon="13.384715"><ele>828.1666666666666</ele><time>2026-05-02T14:39:24.91Z</time></trkpt><trkpt lat="42.1028007" lon="13.3846773"><ele>828.3333333333333</ele><time>2026-05-02T14:39:25.911Z</time></trkpt><trkpt lat="42.102861" lon="13.3846315"><ele>828.5</ele><time>2026-05-02T14:39:26.911Z</time></trkpt><trkpt lat="42.1029196" lon="13.3845763"><ele>828.6666666666666</ele><time>2026-05-02T14:39:27.911Z</time></trkpt><trkpt lat="42.1029773" lon="13.3845001"><ele>828.8333333333333</ele><time>2026-05-02T14:39:28.912Z</time></trkpt><trkpt lat="42.1030333" lon="13.384419"><ele>829.0</ele><time>2026-05-02T14:39:29.91Z</time></trkpt><trkpt lat="42.103101" lon="13.3843347"><ele>829.0</ele><time>2026-05-02T14:39:30.911Z</time></trkpt><trkpt lat="42.1031649" lon="13.3842434"><ele>829.0</ele><time>2026-05-02T14:39:31.91Z</time></trkpt><trkpt lat="42.103234" lon="13.3841376"><ele>829.0</ele><time>2026-05-02T14:39:32.911Z</time></trkpt><trkpt lat="42.1032989" lon="13.3840287"><ele>829.0</ele><time>2026-05-02T14:39:33.911Z</time></trkpt><trkpt lat="42.1033486" lon="13.3839218"><ele>829.0</ele><time>2026-05-02T14:39:34.911Z</time></trkpt><trkpt lat="42.1034007" lon="13.3838191"><ele>829.9999999999999</ele><time>2026-05-02T14:39:35.91Z</time></trkpt><trkpt lat="42.1034593" lon="13.3837346"><ele>831.0</ele><time>2026-05-02T14:39:36.909Z</time></trkpt><trkpt lat="42.1035219" lon="13.3836536"><ele>832.0</ele><time>2026-05-02T14:39:37.911Z</time></trkpt><trkpt lat="42.1035889" lon="13.3835827"><ele>833.0</ele><time>2026-05-02T14:39:38.911Z</time></trkpt><trkpt lat="42.1036614" lon="13.3835201"><ele>833.9999999999999</ele><time>2026-05-02T14:39:39.911Z</time></trkpt><trkpt lat="42.103738" lon="13.3834531"><ele>835.0</ele><time>2026-05-02T14:39:40.91Z</time></trkpt><trkpt lat="42.1038164" lon="13.3833741"><ele>835.0</ele><time>2026-05-02T14:39:41.91Z</time></trkpt><trkpt lat="42.1038959" lon="13.3832927"><ele>835.0</ele><time>2026-05-02T14:39:42.91Z</time></trkpt><trkpt lat="42.1039737" lon="13.3832261"><ele>835.0</ele><time>2026-05-02T14:39:43.911Z</time></trkpt><trkpt lat="42.1040553" lon="13.383169"><ele>835.0</ele><time>2026-05-02T14:39:44.91Z</time></trkpt><trkpt lat="42.1041485" lon="13.3831267"><ele>835.0</ele><time>2026-05-02T14:39:45.91Z</time></trkpt><trkpt lat="42.1042469" lon="13.3830832"><ele>836.8</ele><time>2026-05-02T14:39:46.911Z</time></trkpt><trkpt lat="42.1043442" lon="13.3830257"><ele>838.6</ele><time>2026-05-02T14:39:47.911Z</time></trkpt><trkpt lat="42.1044461" lon="13.382967"><ele>840.4000000000001</ele><time>2026-05-02T14:39:48.911Z</time></trkpt><trkpt lat="42.1045458" lon="13.3829178"><ele>842.2</ele><time>2026-05-02T14:39:49.91Z</time></trkpt><trkpt lat="42.1046457" lon="13.382873"><ele>844.0</ele><time>2026-05-02T14:39:50.912Z</time></trkpt><trkpt lat="42.1047378" lon="13.3828272"><ele>844.0</ele><time>2026-05-02T14:39:51.91Z</time></trkpt><trkpt lat="42.1048267" lon="13.3827829"><ele>844.0</ele><time>2026-05-02T14:39:52.911Z</time></trkpt><trkpt lat="42.104906" lon="13.3827577"><ele>844.0</ele><time>2026-05-02T14:39:53.911Z</time></trkpt><trkpt lat="42.1049909" lon="13.3827399"><ele>844.0</ele><time>2026-05-02T14:39:54.911Z</time></trkpt><trkpt lat="42.1050898" lon="13.3827472"><ele>844.0</ele><time>2026-05-02T14:39:55.911Z</time></trkpt><trkpt lat="42.1051942" lon="13.382756"><ele>845.2</ele><time>2026-05-02T14:39:56.911Z</time></trkpt><trkpt lat="42.1053079" lon="13.3827742"><ele>846.4000000000001</ele><time>2026-05-02T14:39:57.911Z</time></trkpt><trkpt lat="42.1054204" lon="13.3827841"><ele>847.6</ele><time>2026-05-02T14:39:58.91Z</time></trkpt><trkpt lat="42.1055306" lon="13.382784"><ele>848.8</ele><time>2026-05-02T14:39:59.91Z</time></trkpt><trkpt lat="42.1056407" lon="13.3828031"><ele>850.0</ele><time>2026-05-02T14:40:00.911Z</time></trkpt><trkpt lat="42.1057575" lon="13.3828248"><ele>851.4</ele><time>2026-05-02T14:40:01.911Z</time></trkpt><trkpt lat="42.1058632" lon="13.3828285"><ele>852.8</ele><time>2026-05-02T14:40:02.911Z</time></trkpt><trkpt lat="42.1059708" lon="13.382822"><ele>854.2</ele><time>2026-05-02T14:40:03.91Z</time></trkpt><trkpt lat="42.1060846" lon="13.3828226"><ele>855.6</ele><time>2026-05-02T14:40:04.91Z</time></trkpt><trkpt lat="42.106191" lon="13.382819"><ele>857.0</ele><time>2026-05-02T14:40:05.911Z</time></trkpt><trkpt lat="42.106302" lon="13.3828164"><ele>857.0000000000001</ele><time>2026-05-02T14:40:06.911Z</time></trkpt><trkpt lat="42.1063966" lon="13.3828203"><ele>857.0</ele><time>2026-05-02T14:40:07.911Z</time></trkpt><trkpt lat="42.1064762" lon="13.3828387"><ele>857.0</ele><time>2026-05-02T14:40:08.911Z</time></trkpt><trkpt lat="42.1065392" lon="13.3828672"><ele>857.0</ele><time>2026-05-02T14:40:09.911Z</time></trkpt><trkpt lat="42.1066313" lon="13.3829878"><ele>857.0000000000001</ele><time>2026-05-02T14:40:11.91Z</time></trkpt><trkpt lat="42.1066751" lon="13.3830591"><ele>857.0</ele><time>2026-05-02T14:40:12.91Z</time></trkpt><trkpt lat="42.1067641" lon="13.3831234"><ele>858.3333333333334</ele><time>2026-05-02T14:40:14.911Z</time></trkpt><trkpt lat="42.1068499" lon="13.383161"><ele>859.6666666666667</ele><time>2026-05-02T14:40:16.91Z</time></trkpt><trkpt lat="42.1069165" lon="13.3832826"><ele>861.0</ele><time>2026-05-02T14:40:18.91Z</time></trkpt><trkpt lat="42.1069369" lon="13.3833642"><ele>862.3333333333333</ele><time>2026-05-02T14:40:19.912Z</time></trkpt><trkpt lat="42.106989" lon="13.3834492"><ele>863.6666666666666</ele><time>2026-05-02T14:40:21.911Z</time></trkpt><trkpt lat="42.1070565" lon="13.3834439"><ele>865.0</ele><time>2026-05-02T14:40:23.912Z</time></trkpt><trkpt lat="42.107138" lon="13.3833113"><ele>864.9999999999999</ele><time>2026-05-02T14:40:25.911Z</time></trkpt><trkpt lat="42.1072326" lon="13.3832132"><ele>865.0</ele><time>2026-05-02T14:40:27.91Z</time></trkpt><trkpt lat="42.1072963" lon="13.3831644"><ele>865.0</ele><time>2026-05-02T14:40:28.911Z</time></trkpt><trkpt lat="42.1073566" lon="13.3831055"><ele>865.0</ele><time>2026-05-02T14:40:29.911Z</time></trkpt><trkpt lat="42.1074182" lon="13.3830649"><ele>864.9999999999999</ele><time>2026-05-02T14:40:30.91Z</time></trkpt><trkpt lat="42.1074741" lon="13.3830158"><ele>865.0</ele><time>2026-05-02T14:40:31.911Z</time></trkpt><trkpt lat="42.1075284" lon="13.382958"><ele>867.0</ele><time>2026-05-02T14:40:32.91Z</time></trkpt><trkpt lat="42.1076291" lon="13.3828854"><ele>869.0</ele><time>2026-05-02T14:40:34.91Z</time></trkpt><trkpt lat="42.1077498" lon="13.3828757"><ele>871.0</ele><time>2026-05-02T14:40:36.911Z</time></trkpt><trkpt lat="42.1078321" lon="13.3828614"><ele>873.0</ele><time>2026-05-02T14:40:37.912Z</time></trkpt><trkpt lat="42.1078993" lon="13.3828466"><ele>875.0</ele><time>2026-05-02T14:40:38.91Z</time></trkpt><trkpt lat="42.1079747" lon="13.3828225"><ele>875.0000000000001</ele><time>2026-05-02T14:40:39.91Z</time></trkpt><trkpt lat="42.108057" lon="13.3828031"><ele>875.0</ele><time>2026-05-02T14:40:40.911Z</time></trkpt><trkpt lat="42.1081356" lon="13.3827944"><ele>875.0</ele><time>2026-05-02T14:40:41.911Z</time></trkpt><trkpt lat="42.1082145" lon="13.3827931"><ele>875.0</ele><time>2026-05-02T14:40:42.912Z</time></trkpt><trkpt lat="42.1082799" lon="13.3827758"><ele>875.0000000000001</ele><time>2026-05-02T14:40:43.91Z</time></trkpt><trkpt lat="42.1083562" lon="13.3827428"><ele>875.0</ele><time>2026-05-02T14:40:44.909Z</time></trkpt><trkpt lat="42.1084264" lon="13.3827389"><ele>875.6666666666667</ele><time>2026-05-02T14:40:45.911Z</time></trkpt><trkpt lat="42.108509" lon="13.3827366"><ele>876.3333333333334</ele><time>2026-05-02T14:40:46.909Z</time></trkpt><trkpt lat="42.1085867" lon="13.3827246"><ele>877.0</ele><time>2026-05-02T14:40:47.909Z</time></trkpt><trkpt lat="42.1086586" lon="13.3826872"><ele>877.6666666666667</ele><time>2026-05-02T14:40:48.909Z</time></trkpt><trkpt lat="42.1087292" lon="13.3826399"><ele>878.3333333333334</ele><time>2026-05-02T14:40:49.911Z</time></trkpt><trkpt lat="42.1087962" lon="13.3826129"><ele>879.0</ele><time>2026-05-02T14:40:50.91Z</time></trkpt><trkpt lat="42.1088667" lon="13.3825863"><ele>879.0</ele><time>2026-05-02T14:40:51.91Z</time></trkpt><trkpt lat="42.1089348" lon="13.3825458"><ele>879.0</ele><time>2026-05-02T14:40:52.91Z</time></trkpt><trkpt lat="42.1090088" lon="13.382486"><ele>879.0</ele><time>2026-05-02T14:40:53.91Z</time></trkpt><trkpt lat="42.1090847" lon="13.382448"><ele>879.0</ele><time>2026-05-02T14:40:54.91Z</time></trkpt><trkpt lat="42.1091696" lon="13.3824047"><ele>879.0</ele><time>2026-05-02T14:40:55.91Z</time></trkpt><trkpt lat="42.1092581" lon="13.3823563"><ele>879.0</ele><time>2026-05-02T14:40:56.911Z</time></trkpt><trkpt lat="42.10935" lon="13.3823062"><ele>880.0</ele><time>2026-05-02T14:40:57.91Z</time></trkpt><trkpt lat="42.1094442" lon="13.3822573"><ele>881.0</ele><time>2026-05-02T14:40:58.912Z</time></trkpt><trkpt lat="42.1095218" lon="13.3822154"><ele>882.0</ele><time>2026-05-02T14:40:59.912Z</time></trkpt><trkpt lat="42.1095925" lon="13.3821616"><ele>883.0</ele><time>2026-05-02T14:41:00.911Z</time></trkpt><trkpt lat="42.1096619" lon="13.3820995"><ele>884.0</ele><time>2026-05-02T14:41:01.91Z</time></trkpt><trkpt lat="42.1097243" lon="13.3820482"><ele>885.0</ele><time>2026-05-02T14:41:02.911Z</time></trkpt><trkpt lat="42.1098311" lon="13.3820133"><ele>886.1666666666666</ele><time>2026-05-02T14:41:04.911Z</time></trkpt><trkpt lat="42.1099524" lon="13.3820727"><ele>887.3333333333333</ele><time>2026-05-02T14:41:06.911Z</time></trkpt><trkpt lat="42.1100282" lon="13.3820977"><ele>888.5</ele><time>2026-05-02T14:41:07.91Z</time></trkpt><trkpt lat="42.1101047" lon="13.3821093"><ele>889.6666666666666</ele><time>2026-05-02T14:41:08.909Z</time></trkpt><trkpt lat="42.110179" lon="13.3821061"><ele>890.8333333333333</ele><time>2026-05-02T14:41:09.911Z</time></trkpt><trkpt lat="42.1102556" lon="13.3820867"><ele>892.0</ele><time>2026-05-02T14:41:10.91Z</time></trkpt><trkpt lat="42.1103245" lon="13.3820648"><ele>891.9999999999999</ele><time>2026-05-02T14:41:11.911Z</time></trkpt><trkpt lat="42.1103876" lon="13.3820416"><ele>892.0</ele><time>2026-05-02T14:41:12.91Z</time></trkpt><trkpt lat="42.1104906" lon="13.3819975"><ele>892.0</ele><time>2026-05-02T14:41:14.91Z</time></trkpt><trkpt lat="42.1105439" lon="13.3819335"><ele>892.0</ele><time>2026-05-02T14:41:16.91Z</time></trkpt><trkpt lat="42.1105323" lon="13.3818118"><ele>891.9999999999999</ele><time>2026-05-02T14:41:18.911Z</time></trkpt><trkpt lat="42.1105237" lon="13.3817195"><ele>892.0</ele><time>2026-05-02T14:41:19.91Z</time></trkpt><trkpt lat="42.1105184" lon="13.3816123"><ele>892.0</ele><time>2026-05-02T14:41:20.911Z</time></trkpt><trkpt lat="42.1105146" lon="13.3814848"><ele>892.0</ele><time>2026-05-02T14:41:21.91Z</time></trkpt><trkpt lat="42.1105142" lon="13.381349"><ele>892.0</ele><time>2026-05-02T14:41:22.91Z</time></trkpt><trkpt lat="42.1105155" lon="13.381201"><ele>892.0</ele><time>2026-05-02T14:41:23.91Z</time></trkpt><trkpt lat="42.1105124" lon="13.3810452"><ele>892.0</ele><time>2026-05-02T14:41:24.91Z</time></trkpt><trkpt lat="42.1105144" lon="13.3808998"><ele>892.4000000000001</ele><time>2026-05-02T14:41:25.911Z</time></trkpt><trkpt lat="42.1105111" lon="13.3807609"><ele>892.8000000000001</ele><time>2026-05-02T14:41:26.91Z</time></trkpt><trkpt lat="42.1105119" lon="13.3806447"><ele>893.2</ele><time>2026-05-02T14:41:27.911Z</time></trkpt><trkpt lat="42.1105056" lon="13.3805251"><ele>893.6</ele><time>2026-05-02T14:41:28.911Z</time></trkpt><trkpt lat="42.1105047" lon="13.3804101"><ele>894.0</ele><time>2026-05-02T14:41:29.911Z</time></trkpt><trkpt lat="42.1104905" lon="13.3802778"><ele>894.2</ele><time>2026-05-02T14:41:31.91Z</time></trkpt><trkpt lat="42.1104889" lon="13.380174"><ele>894.4000000000001</ele><time>2026-05-02T14:41:40.911Z</time></trkpt><trkpt lat="42.1105226" lon="13.3800756"><ele>894.6</ele><time>2026-05-02T14:41:42.91Z</time></trkpt><trkpt lat="42.1105713" lon="13.3799634"><ele>894.8</ele><time>2026-05-02T14:41:44.91Z</time></trkpt><trkpt lat="42.1105563" lon="13.3797776"><ele>895.0</ele><time>2026-05-02T14:41:46.91Z</time></trkpt><trkpt lat="42.1105112" lon="13.3796661"><ele>896.6</ele><time>2026-05-02T14:41:47.911Z</time></trkpt><trkpt lat="42.1104477" lon="13.3795536"><ele>898.2</ele><time>2026-05-02T14:41:48.911Z</time></trkpt><trkpt lat="42.1103765" lon="13.3794454"><ele>899.8</ele><time>2026-05-02T14:41:49.91Z</time></trkpt><trkpt lat="42.1103104" lon="13.3793647"><ele>901.4</ele><time>2026-05-02T14:41:50.909Z</time></trkpt><trkpt lat="42.1102486" lon="13.3793076"><ele>903.0</ele><time>2026-05-02T14:41:51.91Z</time></trkpt><trkpt lat="42.1101784" lon="13.3792776"><ele>903.0</ele><time>2026-05-02T14:41:52.91Z</time></trkpt><trkpt lat="42.1101074" lon="13.379256"><ele>903.0</ele><time>2026-05-02T14:41:53.91Z</time></trkpt><trkpt lat="42.1100112" lon="13.3792645"><ele>903.0</ele><time>2026-05-02T14:41:54.909Z</time></trkpt><trkpt lat="42.1099186" lon="13.3792617"><ele>903.0</ele><time>2026-05-02T14:41:55.912Z</time></trkpt><trkpt lat="42.1098164" lon="13.3792661"><ele>903.0</ele><time>2026-05-02T14:41:56.91Z</time></trkpt><trkpt lat="42.1097134" lon="13.3792412"><ele>901.8333333333334</ele><time>2026-05-02T14:41:57.91Z</time></trkpt><trkpt lat="42.1096207" lon="13.3792185"><ele>900.6666666666667</ele><time>2026-05-02T14:41:58.909Z</time></trkpt><trkpt lat="42.1095317" lon="13.3791988"><ele>899.5</ele><time>2026-05-02T14:41:59.911Z</time></trkpt><trkpt lat="42.1094521" lon="13.3791696"><ele>898.3333333333334</ele><time>2026-05-02T14:42:00.91Z</time></trkpt><trkpt lat="42.1093861" lon="13.3791364"><ele>897.1666666666667</ele><time>2026-05-02T14:42:01.911Z</time></trkpt><trkpt lat="42.109289" lon="13.3790798"><ele>896.0</ele><time>2026-05-02T14:42:03.91Z</time></trkpt><trkpt lat="42.1092337" lon="13.3789549"><ele>896.0</ele><time>2026-05-02T14:42:05.912Z</time></trkpt><trkpt lat="42.1092088" lon="13.3788641"><ele>895.9999999999999</ele><time>2026-05-02T14:42:06.911Z</time></trkpt><trkpt lat="42.1091939" lon="13.3787442"><ele>895.9999999999999</ele><time>2026-05-02T14:42:07.909Z</time></trkpt><trkpt lat="42.1091642" lon="13.3786221"><ele>896.0</ele><time>2026-05-02T14:42:08.91Z</time></trkpt><trkpt lat="42.1091233" lon="13.3785035"><ele>896.0</ele><time>2026-05-02T14:42:09.911Z</time></trkpt><trkpt lat="42.1090667" lon="13.3783876"><ele>896.5999999999999</ele><time>2026-05-02T14:42:10.91Z</time></trkpt><trkpt lat="42.1090034" lon="13.3782769"><ele>897.1999999999999</ele><time>2026-05-02T14:42:11.911Z</time></trkpt><trkpt lat="42.1089351" lon="13.3781619"><ele>897.8000000000001</ele><time>2026-05-02T14:42:12.91Z</time></trkpt><trkpt lat="42.1088512" lon="13.3780526"><ele>898.4000000000001</ele><time>2026-05-02T14:42:13.91Z</time></trkpt><trkpt lat="42.1087702" lon="13.3779468"><ele>899.0</ele><time>2026-05-02T14:42:14.909Z</time></trkpt><trkpt lat="42.1086713" lon="13.377851"><ele>901.4000000000001</ele><time>2026-05-02T14:42:15.911Z</time></trkpt><trkpt lat="42.1085704" lon="13.3777653"><ele>903.8000000000001</ele><time>2026-05-02T14:42:16.911Z</time></trkpt><trkpt lat="42.1084654" lon="13.3777002"><ele>906.1999999999999</ele><time>2026-05-02T14:42:17.911Z</time></trkpt><trkpt lat="42.1083675" lon="13.3776469"><ele>908.5999999999999</ele><time>2026-05-02T14:42:18.91Z</time></trkpt><trkpt lat="42.1082772" lon="13.3776162"><ele>911.0</ele><time>2026-05-02T14:42:19.911Z</time></trkpt><trkpt lat="42.1082069" lon="13.3775888"><ele>911.0000000000001</ele><time>2026-05-02T14:42:20.911Z</time></trkpt><trkpt lat="42.1081388" lon="13.3775684"><ele>911.0</ele><time>2026-05-02T14:42:21.91Z</time></trkpt><trkpt lat="42.1080678" lon="13.3775549"><ele>911.0</ele><time>2026-05-02T14:42:22.911Z</time></trkpt><trkpt lat="42.1079929" lon="13.3775346"><ele>911.0</ele><time>2026-05-02T14:42:23.91Z</time></trkpt><trkpt lat="42.1079303" lon="13.3775085"><ele>911.0000000000001</ele><time>2026-05-02T14:42:24.911Z</time></trkpt><trkpt lat="42.1078263" lon="13.3774465"><ele>911.0</ele><time>2026-05-02T14:42:26.91Z</time></trkpt><trkpt lat="42.1077235" lon="13.3773304"><ele>911.0000000000001</ele><time>2026-05-02T14:42:28.911Z</time></trkpt><trkpt lat="42.1076817" lon="13.3772613"><ele>911.0</ele><time>2026-05-02T14:42:29.911Z</time></trkpt><trkpt lat="42.1075962" lon="13.3771717"><ele>911.0</ele><time>2026-05-02T14:42:31.91Z</time></trkpt><trkpt lat="42.107497" lon="13.3771134"><ele>911.0</ele><time>2026-05-02T14:42:33.91Z</time></trkpt><trkpt lat="42.1074264" lon="13.3770799"><ele>911.0000000000001</ele><time>2026-05-02T14:42:35.91Z</time></trkpt><trkpt lat="42.1073706" lon="13.377033"><ele>911.0</ele><time>2026-05-02T14:42:37.911Z</time></trkpt><trkpt lat="42.1073091" lon="13.3770076"><ele>910.1999999999999</ele><time>2026-05-02T14:42:41.911Z</time></trkpt><trkpt lat="42.1072159" lon="13.3770862"><ele>909.3999999999999</ele><time>2026-05-02T14:42:45.911Z</time></trkpt><trkpt lat="42.1071432" lon="13.3770925"><ele>908.6</ele><time>2026-05-02T14:42:47.911Z</time></trkpt><trkpt lat="42.1070745" lon="13.3770484"><ele>907.8</ele><time>2026-05-02T14:42:49.909Z</time></trkpt><trkpt lat="42.1069886" lon="13.3769843"><ele>907.0</ele><time>2026-05-02T14:42:51.91Z</time></trkpt><trkpt lat="42.1069062" lon="13.376905"><ele>907.0</ele><time>2026-05-02T14:42:53.911Z</time></trkpt><trkpt lat="42.10682" lon="13.3768258"><ele>907.0</ele><time>2026-05-02T14:42:55.911Z</time></trkpt><trkpt lat="42.1067177" lon="13.3767412"><ele>907.0</ele><time>2026-05-02T14:42:57.909Z</time></trkpt><trkpt lat="42.1066127" lon="13.376668"><ele>907.0</ele><time>2026-05-02T14:42:59.911Z</time></trkpt><trkpt lat="42.1065498" lon="13.3766427"><ele>907.0</ele><time>2026-05-02T14:43:00.912Z</time></trkpt><trkpt lat="42.1064839" lon="13.3766166"><ele>905.0</ele><time>2026-05-02T14:43:01.91Z</time></trkpt><trkpt lat="42.1063753" lon="13.3765851"><ele>903.0</ele><time>2026-05-02T14:43:03.911Z</time></trkpt><trkpt lat="42.1062748" lon="13.3765468"><ele>901.0</ele><time>2026-05-02T14:43:05.912Z</time></trkpt><trkpt lat="42.1061594" lon="13.3765008"><ele>899.0</ele><time>2026-05-02T14:43:07.911Z</time></trkpt><trkpt lat="42.106058" lon="13.3764351"><ele>897.0</ele><time>2026-05-02T14:43:09.911Z</time></trkpt><trkpt lat="42.1059986" lon="13.3763636"><ele>895.8</ele><time>2026-05-02T14:43:11.911Z</time></trkpt><trkpt lat="42.1059525" lon="13.3762684"><ele>894.6</ele><time>2026-05-02T14:43:13.909Z</time></trkpt><trkpt lat="42.1058849" lon="13.376192"><ele>893.3999999999999</ele><time>2026-05-02T14:43:15.911Z</time></trkpt><trkpt lat="42.1058172" lon="13.3760912"><ele>892.1999999999999</ele><time>2026-05-02T14:43:17.911Z</time></trkpt><trkpt lat="42.1057513" lon="13.3760052"><ele>891.0</ele><time>2026-05-02T14:43:19.91Z</time></trkpt><trkpt lat="42.1056935" lon="13.3759156"><ele>889.8571428571429</ele><time>2026-05-02T14:43:21.911Z</time></trkpt><trkpt lat="42.1056254" lon="13.3758328"><ele>888.7142857142858</ele><time>2026-05-02T14:43:23.911Z</time></trkpt><trkpt lat="42.1055704" lon="13.3757805"><ele>887.5714285714287</ele><time>2026-05-02T14:43:24.911Z</time></trkpt><trkpt lat="42.1055213" lon="13.3757156"><ele>886.4285714285714</ele><time>2026-05-02T14:43:25.911Z</time></trkpt><trkpt lat="42.1054751" lon="13.3756549"><ele>885.2857142857142</ele><time>2026-05-02T14:43:26.91Z</time></trkpt><trkpt lat="42.1054228" lon="13.3755923"><ele>884.1428571428572</ele><time>2026-05-02T14:43:27.91Z</time></trkpt><trkpt lat="42.1053741" lon="13.3755385"><ele>883.0</ele><time>2026-05-02T14:43:28.91Z</time></trkpt><trkpt lat="42.1053057" lon="13.3754323"><ele>883.0</ele><time>2026-05-02T14:43:30.911Z</time></trkpt><trkpt lat="42.105225" lon="13.3753283"><ele>883.0</ele><time>2026-05-02T14:43:32.91Z</time></trkpt><trkpt lat="42.1051515" lon="13.3752538"><ele>883.0</ele><time>2026-05-02T14:43:34.91Z</time></trkpt><trkpt lat="42.1050702" lon="13.3751806"><ele>883.0</ele><time>2026-05-02T14:43:36.91Z</time></trkpt><trkpt lat="42.1050473" lon="13.3750585"><ele>883.0</ele><time>2026-05-02T14:43:39.911Z</time></trkpt><trkpt lat="42.1050178" lon="13.3749654"><ele>883.0</ele><time>2026-05-02T14:43:41.911Z</time></trkpt><trkpt lat="42.1049344" lon="13.3748644"><ele>883.0</ele><time>2026-05-02T14:43:43.911Z</time></trkpt><trkpt lat="42.1048777" lon="13.3747972"><ele>883.0</ele><time>2026-05-02T14:43:44.91Z</time></trkpt><trkpt lat="42.1048118" lon="13.3746441"><ele>883.0</ele><time>2026-05-02T14:43:46.911Z</time></trkpt><trkpt lat="42.1047692" lon="13.3744861"><ele>883.0</ele><time>2026-05-02T14:43:48.91Z</time></trkpt><trkpt lat="42.1047134" lon="13.3743595"><ele>880.8</ele><time>2026-05-02T14:43:50.911Z</time></trkpt><trkpt lat="42.1046297" lon="13.3742949"><ele>878.5999999999999</ele><time>2026-05-02T14:43:52.91Z</time></trkpt><trkpt lat="42.1045555" lon="13.3742871"><ele>876.4000000000001</ele><time>2026-05-02T14:43:54.911Z</time></trkpt><trkpt lat="42.1044964" lon="13.3742356"><ele>874.2</ele><time>2026-05-02T14:43:56.912Z</time></trkpt><trkpt lat="42.1044309" lon="13.3740953"><ele>872.0</ele><time>2026-05-02T14:43:58.91Z</time></trkpt><trkpt lat="42.1043754" lon="13.3739764"><ele>872.0</ele><time>2026-05-02T14:43:59.91Z</time></trkpt><trkpt lat="42.1043102" lon="13.3738628"><ele>872.0</ele><time>2026-05-02T14:44:00.912Z</time></trkpt><trkpt lat="42.1042427" lon="13.3737553"><ele>872.0</ele><time>2026-05-02T14:44:01.911Z</time></trkpt><trkpt lat="42.1041748" lon="13.3736574"><ele>872.0</ele><time>2026-05-02T14:44:02.91Z</time></trkpt><trkpt lat="42.1041136" lon="13.3735734"><ele>872.0</ele><time>2026-05-02T14:44:03.911Z</time></trkpt><trkpt lat="42.1040536" lon="13.3734974"><ele>871.2857142857143</ele><time>2026-05-02T14:44:04.911Z</time></trkpt><trkpt lat="42.1040037" lon="13.3734162"><ele>870.5714285714287</ele><time>2026-05-02T14:44:05.911Z</time></trkpt><trkpt lat="42.103959" lon="13.3733347"><ele>869.8571428571429</ele><time>2026-05-02T14:44:06.911Z</time></trkpt><trkpt lat="42.1039116" lon="13.3732775"><ele>869.1428571428571</ele><time>2026-05-02T14:44:07.911Z</time></trkpt><trkpt lat="42.1038565" lon="13.3732041"><ele>868.4285714285714</ele><time>2026-05-02T14:44:08.911Z</time></trkpt><trkpt lat="42.1038031" lon="13.3731453"><ele>867.7142857142857</ele><time>2026-05-02T14:44:09.91Z</time></trkpt><trkpt lat="42.1037482" lon="13.3730815"><ele>867.0</ele><time>2026-05-02T14:44:10.911Z</time></trkpt><trkpt lat="42.1036876" lon="13.3730149"><ele>868.6666666666666</ele><time>2026-05-02T14:44:11.91Z</time></trkpt><trkpt lat="42.1036324" lon="13.3729421"><ele>870.3333333333333</ele><time>2026-05-02T14:44:12.909Z</time></trkpt><trkpt lat="42.1035829" lon="13.3728504"><ele>872.0</ele><time>2026-05-02T14:44:13.91Z</time></trkpt><trkpt lat="42.1035297" lon="13.3727606"><ele>873.6666666666666</ele><time>2026-05-02T14:44:14.91Z</time></trkpt><trkpt lat="42.1034903" lon="13.3726894"><ele>875.3333333333333</ele><time>2026-05-02T14:44:15.912Z</time></trkpt><trkpt lat="42.1034174" lon="13.3725819"><ele>877.0</ele><time>2026-05-02T14:44:17.911Z</time></trkpt><trkpt lat="42.1033494" lon="13.3724915"><ele>877.0</ele><time>2026-05-02T14:44:19.911Z</time></trkpt><trkpt lat="42.1033288" lon="13.3724031"><ele>877.0</ele><time>2026-05-02T14:44:21.91Z</time></trkpt><trkpt lat="42.1033025" lon="13.3722783"><ele>877.0</ele><time>2026-05-02T14:44:24.911Z</time></trkpt><trkpt lat="42.1032365" lon="13.3721677"><ele>877.0</ele><time>2026-05-02T14:44:26.91Z</time></trkpt><trkpt lat="42.1031688" lon="13.3720541"><ele>877.0</ele><time>2026-05-02T14:44:28.91Z</time></trkpt><trkpt lat="42.1030914" lon="13.371963"><ele>874.8</ele><time>2026-05-02T14:44:30.91Z</time></trkpt><trkpt lat="42.1030045" lon="13.3718925"><ele>872.6</ele><time>2026-05-02T14:44:32.911Z</time></trkpt><trkpt lat="42.1029059" lon="13.3718223"><ele>870.3999999999999</ele><time>2026-05-02T14:44:34.91Z</time></trkpt><trkpt lat="42.1028179" lon="13.3717414"><ele>868.1999999999999</ele><time>2026-05-02T14:44:36.91Z</time></trkpt><trkpt lat="42.1027547" lon="13.3716534"><ele>866.0</ele><time>2026-05-02T14:44:38.909Z</time></trkpt><trkpt lat="42.1027115" lon="13.3715788"><ele>866.0000000000001</ele><time>2026-05-02T14:44:40.91Z</time></trkpt><trkpt lat="42.1026709" lon="13.3714998"><ele>866.0</ele><time>2026-05-02T14:44:42.911Z</time></trkpt><trkpt lat="42.1026337" lon="13.3714102"><ele>866.0</ele><time>2026-05-02T14:44:44.91Z</time></trkpt><trkpt lat="42.1025843" lon="13.3713276"><ele>866.0</ele><time>2026-05-02T14:44:46.911Z</time></trkpt><trkpt lat="42.1025036" lon="13.3712665"><ele>866.0000000000001</ele><time>2026-05-02T14:44:48.911Z</time></trkpt><trkpt lat="42.1024246" lon="13.3712008"><ele>866.0</ele><time>2026-05-02T14:44:50.911Z</time></trkpt><trkpt lat="42.1023562" lon="13.3711314"><ele>863.3333333333334</ele><time>2026-05-02T14:44:52.911Z</time></trkpt><trkpt lat="42.1022951" lon="13.3710628"><ele>860.6666666666667</ele><time>2026-05-02T14:44:54.91Z</time></trkpt><trkpt lat="42.102226" lon="13.3710148"><ele>858.0</ele><time>2026-05-02T14:44:56.91Z</time></trkpt><trkpt lat="42.1021506" lon="13.3709654"><ele>855.3333333333333</ele><time>2026-05-02T14:44:58.911Z</time></trkpt><trkpt lat="42.1020821" lon="13.370881"><ele>852.6666666666666</ele><time>2026-05-02T14:45:00.91Z</time></trkpt><trkpt lat="42.1019943" lon="13.3708339"><ele>850.0</ele><time>2026-05-02T14:45:02.91Z</time></trkpt><trkpt lat="42.1019293" lon="13.3707798"><ele>850.0</ele><time>2026-05-02T14:45:04.911Z</time></trkpt><trkpt lat="42.101874" lon="13.3707243"><ele>850.0</ele><time>2026-05-02T14:45:06.911Z</time></trkpt><trkpt lat="42.1018148" lon="13.3706685"><ele>850.0</ele><time>2026-05-02T14:45:08.911Z</time></trkpt><trkpt lat="42.1017521" lon="13.3706504"><ele>850.0</ele><time>2026-05-02T14:45:10.911Z</time></trkpt><trkpt lat="42.1016775" lon="13.3706228"><ele>850.0</ele><time>2026-05-02T14:45:12.911Z</time></trkpt><trkpt lat="42.1016257" lon="13.3705461"><ele>850.0</ele><time>2026-05-02T14:45:14.91Z</time></trkpt><trkpt lat="42.1015635" lon="13.3704958"><ele>850.0</ele><time>2026-05-02T14:45:16.921Z</time></trkpt><trkpt lat="42.1014922" lon="13.3705088"><ele>846.3333333333333</ele><time>2026-05-02T14:45:18.912Z</time></trkpt><trkpt lat="42.1014275" lon="13.3705476"><ele>842.6666666666666</ele><time>2026-05-02T14:45:20.91Z</time></trkpt><trkpt lat="42.1013533" lon="13.3705076"><ele>839.0</ele><time>2026-05-02T14:45:22.86Z</time></trkpt><trkpt lat="42.1012908" lon="13.3704762"><ele>835.3333333333333</ele><time>2026-05-02T14:45:24.91Z</time></trkpt><trkpt lat="42.1012154" lon="13.3704755"><ele>831.6666666666666</ele><time>2026-05-02T14:45:27.911Z</time></trkpt><trkpt lat="42.1011533" lon="13.3704932"><ele>828.0</ele><time>2026-05-02T14:45:30.911Z</time></trkpt><trkpt lat="42.1010704" lon="13.370554"><ele>828.0</ele><time>2026-05-02T14:45:33.91Z</time></trkpt><trkpt lat="42.1010034" lon="13.3706159"><ele>828.0</ele><time>2026-05-02T14:45:35.91Z</time></trkpt><trkpt lat="42.1009279" lon="13.3706653"><ele>828.0</ele><time>2026-05-02T14:45:37.911Z</time></trkpt><trkpt lat="42.1008569" lon="13.3706821"><ele>828.0</ele><time>2026-05-02T14:45:39.911Z</time></trkpt><trkpt lat="42.1007928" lon="13.3706161"><ele>828.0</ele><time>2026-05-02T14:45:41.911Z</time></trkpt><trkpt lat="42.1007173" lon="13.3705494"><ele>828.0</ele><time>2026-05-02T14:45:43.911Z</time></trkpt><trkpt lat="42.1006383" lon="13.3705111"><ele>826.1666666666666</ele><time>2026-05-02T14:45:45.912Z</time></trkpt><trkpt lat="42.1005549" lon="13.3704419"><ele>824.3333333333333</ele><time>2026-05-02T14:45:47.911Z</time></trkpt><trkpt lat="42.1004526" lon="13.3704291"><ele>822.5</ele><time>2026-05-02T14:45:49.912Z</time></trkpt><trkpt lat="42.1003641" lon="13.3704473"><ele>820.6666666666666</ele><time>2026-05-02T14:45:51.911Z</time></trkpt><trkpt lat="42.1002981" lon="13.370491"><ele>818.8333333333333</ele><time>2026-05-02T14:45:53.912Z</time></trkpt><trkpt lat="42.100229" lon="13.3705322"><ele>817.0</ele><time>2026-05-02T14:45:56.911Z</time></trkpt><trkpt lat="42.1001445" lon="13.3704804"><ele>817.0</ele><time>2026-05-02T14:45:58.909Z</time></trkpt><trkpt lat="42.1000657" lon="13.3704063"><ele>817.0</ele><time>2026-05-02T14:46:00.911Z</time></trkpt><trkpt lat="42.099971" lon="13.3703281"><ele>817.0</ele><time>2026-05-02T14:46:02.91Z</time></trkpt><trkpt lat="42.0998685" lon="13.3702488"><ele>817.0</ele><time>2026-05-02T14:46:04.91Z</time></trkpt><trkpt lat="42.0997626" lon="13.3701575"><ele>814.1666666666666</ele><time>2026-05-02T14:46:06.91Z</time></trkpt><trkpt lat="42.0997071" lon="13.3701146"><ele>811.3333333333333</ele><time>2026-05-02T14:46:07.911Z</time></trkpt><trkpt lat="42.0996111" lon="13.3700156"><ele>808.5</ele><time>2026-05-02T14:46:09.912Z</time></trkpt><trkpt lat="42.0995519" lon="13.369946"><ele>805.6666666666667</ele><time>2026-05-02T14:46:10.911Z</time></trkpt><trkpt lat="42.0994865" lon="13.3698698"><ele>802.8333333333334</ele><time>2026-05-02T14:46:11.912Z</time></trkpt><trkpt lat="42.0994232" lon="13.369789"><ele>800.0</ele><time>2026-05-02T14:46:12.91Z</time></trkpt><trkpt lat="42.0993661" lon="13.3697105"><ele>800.3333333333334</ele><time>2026-05-02T14:46:13.91Z</time></trkpt><trkpt lat="42.0993145" lon="13.3696316"><ele>800.6666666666667</ele><time>2026-05-02T14:46:14.911Z</time></trkpt><trkpt lat="42.0992615" lon="13.3695604"><ele>801.0</ele><time>2026-05-02T14:46:15.911Z</time></trkpt><trkpt lat="42.0991977" lon="13.3694919"><ele>801.3333333333333</ele><time>2026-05-02T14:46:16.91Z</time></trkpt><trkpt lat="42.099128" lon="13.369417"><ele>801.6666666666666</ele><time>2026-05-02T14:46:17.91Z</time></trkpt><trkpt lat="42.0990607" lon="13.3693439"><ele>802.0</ele><time>2026-05-02T14:46:18.91Z</time></trkpt><trkpt lat="42.0989987" lon="13.3692703"><ele>800.2857142857143</ele><time>2026-05-02T14:46:19.911Z</time></trkpt><trkpt lat="42.0989344" lon="13.3691928"><ele>798.5714285714287</ele><time>2026-05-02T14:46:20.91Z</time></trkpt><trkpt lat="42.0988789" lon="13.3691294"><ele>796.8571428571429</ele><time>2026-05-02T14:46:21.911Z</time></trkpt><trkpt lat="42.0988284" lon="13.3690648"><ele>795.1428571428571</ele><time>2026-05-02T14:46:22.91Z</time></trkpt><trkpt lat="42.0987741" lon="13.3690073"><ele>793.4285714285714</ele><time>2026-05-02T14:46:23.911Z</time></trkpt><trkpt lat="42.0987132" lon="13.3689607"><ele>791.7142857142857</ele><time>2026-05-02T14:46:24.911Z</time></trkpt><trkpt lat="42.0986469" lon="13.368916"><ele>790.0</ele><time>2026-05-02T14:46:25.911Z</time></trkpt><trkpt lat="42.0985736" lon="13.368871"><ele>789.3333333333333</ele><time>2026-05-02T14:46:26.91Z</time></trkpt><trkpt lat="42.0984983" lon="13.3688219"><ele>788.6666666666666</ele><time>2026-05-02T14:46:27.91Z</time></trkpt><trkpt lat="42.0984246" lon="13.3687764"><ele>788.0</ele><time>2026-05-02T14:46:28.909Z</time></trkpt><trkpt lat="42.0983522" lon="13.3687363"><ele>787.3333333333333</ele><time>2026-05-02T14:46:29.91Z</time></trkpt><trkpt lat="42.098283" lon="13.3686996"><ele>786.6666666666666</ele><time>2026-05-02T14:46:30.91Z</time></trkpt><trkpt lat="42.0982207" lon="13.3686652"><ele>786.0</ele><time>2026-05-02T14:46:31.91Z</time></trkpt><trkpt lat="42.0981048" lon="13.3686046"><ele>786.0</ele><time>2026-05-02T14:46:33.91Z</time></trkpt><trkpt lat="42.0980383" lon="13.3685721"><ele>786.0</ele><time>2026-05-02T14:46:34.91Z</time></trkpt><trkpt lat="42.0979695" lon="13.3685369"><ele>786.0</ele><time>2026-05-02T14:46:35.91Z</time></trkpt><trkpt lat="42.0978923" lon="13.3684996"><ele>786.0</ele><time>2026-05-02T14:46:36.91Z</time></trkpt><trkpt lat="42.097814" lon="13.3684617"><ele>786.0</ele><time>2026-05-02T14:46:37.91Z</time></trkpt><trkpt lat="42.0977384" lon="13.3684233"><ele>786.0</ele><time>2026-05-02T14:46:38.91Z</time></trkpt><trkpt lat="42.097663" lon="13.3683862"><ele>786.0</ele><time>2026-05-02T14:46:39.911Z</time></trkpt><trkpt lat="42.0975976" lon="13.368357"><ele>786.0</ele><time>2026-05-02T14:46:40.911Z</time></trkpt><trkpt lat="42.097534" lon="13.3683403"><ele>786.0</ele><time>2026-05-02T14:46:41.91Z</time></trkpt><trkpt lat="42.0974718" lon="13.3683208"><ele>786.0</ele><time>2026-05-02T14:46:42.91Z</time></trkpt><trkpt lat="42.0973517" lon="13.3682872"><ele>786.0</ele><time>2026-05-02T14:46:44.911Z</time></trkpt><trkpt lat="42.0972481" lon="13.3682532"><ele>786.0</ele><time>2026-05-02T14:46:46.91Z</time></trkpt><trkpt lat="42.0971509" lon="13.3682165"><ele>783.3333333333334</ele><time>2026-05-02T14:46:48.91Z</time></trkpt><trkpt lat="42.097043" lon="13.3681684"><ele>780.6666666666667</ele><time>2026-05-02T14:46:50.911Z</time></trkpt><trkpt lat="42.0969812" lon="13.3681347"><ele>778.0</ele><time>2026-05-02T14:46:51.911Z</time></trkpt><trkpt lat="42.0969202" lon="13.3681003"><ele>775.3333333333334</ele><time>2026-05-02T14:46:52.91Z</time></trkpt><trkpt lat="42.0968606" lon="13.3680613"><ele>772.6666666666667</ele><time>2026-05-02T14:46:53.911Z</time></trkpt><trkpt lat="42.0967553" lon="13.3679812"><ele>770.0</ele><time>2026-05-02T14:46:55.91Z</time></trkpt><trkpt lat="42.0966594" lon="13.3678838"><ele>766.6</ele><time>2026-05-02T14:46:57.91Z</time></trkpt><trkpt lat="42.0965858" lon="13.3677985"><ele>763.2</ele><time>2026-05-02T14:46:59.909Z</time></trkpt><trkpt lat="42.0965114" lon="13.3677253"><ele>759.8</ele><time>2026-05-02T14:47:01.91Z</time></trkpt><trkpt lat="42.0964429" lon="13.3676505"><ele>756.4</ele><time>2026-05-02T14:47:03.909Z</time></trkpt><trkpt lat="42.0963769" lon="13.36755"><ele>753.0</ele><time>2026-05-02T14:47:05.91Z</time></trkpt><trkpt lat="42.096313" lon="13.3674598"><ele>753.0</ele><time>2026-05-02T14:47:07.911Z</time></trkpt><trkpt lat="42.0962471" lon="13.3673891"><ele>753.0</ele><time>2026-05-02T14:47:10.883Z</time></trkpt><trkpt lat="42.0961754" lon="13.3673128"><ele>753.0</ele><time>2026-05-02T14:47:11.909Z</time></trkpt><trkpt lat="42.0960765" lon="13.3672336"><ele>753.0</ele><time>2026-05-02T14:47:13.912Z</time></trkpt><trkpt lat="42.0959882" lon="13.3671591"><ele>753.0</ele><time>2026-05-02T14:47:15.91Z</time></trkpt><trkpt lat="42.0958974" lon="13.3671076"><ele>750.4</ele><time>2026-05-02T14:47:17.911Z</time></trkpt><trkpt lat="42.0957817" lon="13.3670726"><ele>747.8</ele><time>2026-05-02T14:47:19.91Z</time></trkpt><trkpt lat="42.0957044" lon="13.3670558"><ele>745.2</ele><time>2026-05-02T14:47:20.909Z</time></trkpt><trkpt lat="42.09561" lon="13.3670305"><ele>742.6</ele><time>2026-05-02T14:47:21.909Z</time></trkpt><trkpt lat="42.0955182" lon="13.3669927"><ele>740.0</ele><time>2026-05-02T14:47:22.911Z</time></trkpt><trkpt lat="42.0954323" lon="13.366951"><ele>739.0</ele><time>2026-05-02T14:47:23.911Z</time></trkpt><trkpt lat="42.0953464" lon="13.3669098"><ele>738.0</ele><time>2026-05-02T14:47:24.912Z</time></trkpt><trkpt lat="42.0952613" lon="13.3668645"><ele>737.0</ele><time>2026-05-02T14:47:25.91Z</time></trkpt><trkpt lat="42.0951773" lon="13.3668171"><ele>736.0</ele><time>2026-05-02T14:47:26.91Z</time></trkpt><trkpt lat="42.0950957" lon="13.3667704"><ele>735.0</ele><time>2026-05-02T14:47:27.91Z</time></trkpt><trkpt lat="42.095014" lon="13.3667273"><ele>735.0</ele><time>2026-05-02T14:47:28.91Z</time></trkpt><trkpt lat="42.0949417" lon="13.3666949"><ele>735.0</ele><time>2026-05-02T14:47:29.91Z</time></trkpt><trkpt lat="42.0948754" lon="13.3666717"><ele>735.0</ele><time>2026-05-02T14:47:30.911Z</time></trkpt><trkpt lat="42.0947628" lon="13.3666623"><ele>735.0</ele><time>2026-05-02T14:47:32.909Z</time></trkpt><trkpt lat="42.0946919" lon="13.3666634"><ele>735.0</ele><time>2026-05-02T14:47:34.91Z</time></trkpt><trkpt lat="42.0946292" lon="13.3666328"><ele>735.0</ele><time>2026-05-02T14:47:46.912Z</time></trkpt><trkpt lat="42.0945579" lon="13.3665668"><ele>734.8333333333334</ele><time>2026-05-02T14:47:47.91Z</time></trkpt><trkpt lat="42.0945013" lon="13.3665115"><ele>734.6666666666666</ele><time>2026-05-02T14:47:48.909Z</time></trkpt><trkpt lat="42.094445" lon="13.3664474"><ele>734.5</ele><time>2026-05-02T14:47:49.912Z</time></trkpt><trkpt lat="42.0943926" lon="13.3663817"><ele>734.3333333333333</ele><time>2026-05-02T14:47:50.91Z</time></trkpt><trkpt lat="42.0943317" lon="13.3662596"><ele>734.1666666666666</ele><time>2026-05-02T14:47:52.911Z</time></trkpt><trkpt lat="42.094355" lon="13.366099"><ele>734.0</ele><time>2026-05-02T14:47:54.911Z</time></trkpt><trkpt lat="42.0943987" lon="13.3660033"><ele>733.4000000000001</ele><time>2026-05-02T14:47:55.911Z</time></trkpt><trkpt lat="42.0944542" lon="13.3659169"><ele>732.8</ele><time>2026-05-02T14:47:56.91Z</time></trkpt><trkpt lat="42.0945185" lon="13.3658265"><ele>732.2</ele><time>2026-05-02T14:47:57.911Z</time></trkpt><trkpt lat="42.094578" lon="13.3657426"><ele>731.5999999999999</ele><time>2026-05-02T14:47:58.911Z</time></trkpt><trkpt lat="42.0946421" lon="13.3656491"><ele>731.0</ele><time>2026-05-02T14:47:59.911Z</time></trkpt><trkpt lat="42.0947057" lon="13.3655564"><ele>730.5999999999999</ele><time>2026-05-02T14:48:00.911Z</time></trkpt><trkpt lat="42.0947672" lon="13.3654578"><ele>730.2</ele><time>2026-05-02T14:48:01.911Z</time></trkpt><trkpt lat="42.0948354" lon="13.365361"><ele>729.8</ele><time>2026-05-02T14:48:02.91Z</time></trkpt><trkpt lat="42.0949118" lon="13.3652538"><ele>729.4000000000001</ele><time>2026-05-02T14:48:03.911Z</time></trkpt><trkpt lat="42.0949885" lon="13.3651432"><ele>729.0</ele><time>2026-05-02T14:48:04.91Z</time></trkpt><trkpt lat="42.095071" lon="13.3650278"><ele>729.0</ele><time>2026-05-02T14:48:05.911Z</time></trkpt><trkpt lat="42.095161" lon="13.3649002"><ele>729.0</ele><time>2026-05-02T14:48:06.91Z</time></trkpt><trkpt lat="42.0952706" lon="13.3647499"><ele>729.0</ele><time>2026-05-02T14:48:07.911Z</time></trkpt><trkpt lat="42.0953876" lon="13.3646005"><ele>729.0</ele><time>2026-05-02T14:48:08.91Z</time></trkpt><trkpt lat="42.0955033" lon="13.3644715"><ele>728.75</ele><time>2026-05-02T14:48:09.911Z</time></trkpt><trkpt lat="42.0956151" lon="13.364345"><ele>728.5</ele><time>2026-05-02T14:48:10.911Z</time></trkpt><trkpt lat="42.0957141" lon="13.364217"><ele>728.25</ele><time>2026-05-02T14:48:11.911Z</time></trkpt><trkpt lat="42.095808" lon="13.3640765"><ele>728.0</ele><time>2026-05-02T14:48:12.911Z</time></trkpt><trkpt lat="42.095903" lon="13.3639318"><ele>726.5</ele><time>2026-05-02T14:48:13.91Z</time></trkpt><trkpt lat="42.0959975" lon="13.3637921"><ele>725.0</ele><time>2026-05-02T14:48:14.912Z</time></trkpt><trkpt lat="42.096093" lon="13.3636457"><ele>723.5</ele><time>2026-05-02T14:48:15.911Z</time></trkpt><trkpt lat="42.0961945" lon="13.3634872"><ele>722.0</ele><time>2026-05-02T14:48:16.91Z</time></trkpt><trkpt lat="42.096299" lon="13.3633201"><ele>722.0</ele><time>2026-05-02T14:48:17.911Z</time></trkpt><trkpt lat="42.0964016" lon="13.3631518"><ele>722.0</ele><time>2026-05-02T14:48:18.909Z</time></trkpt><trkpt lat="42.0965098" lon="13.3629819"><ele>722.0</ele><time>2026-05-02T14:48:19.911Z</time></trkpt><trkpt lat="42.0966185" lon="13.362827"><ele>720.0</ele><time>2026-05-02T14:48:20.91Z</time></trkpt><trkpt lat="42.0967263" lon="13.3626645"><ele>718.0</ele><time>2026-05-02T14:48:21.911Z</time></trkpt><trkpt lat="42.0968314" lon="13.3625041"><ele>716.0</ele><time>2026-05-02T14:48:22.909Z</time></trkpt><trkpt lat="42.0969376" lon="13.3623402"><ele>715.6666666666666</ele><time>2026-05-02T14:48:23.911Z</time></trkpt><trkpt lat="42.0970482" lon="13.3621666"><ele>715.3333333333334</ele><time>2026-05-02T14:48:24.911Z</time></trkpt><trkpt lat="42.0971576" lon="13.3619889"><ele>715.0</ele><time>2026-05-02T14:48:25.911Z</time></trkpt><trkpt lat="42.0972704" lon="13.3618114"><ele>715.0</ele><time>2026-05-02T14:48:26.912Z</time></trkpt><trkpt lat="42.0973867" lon="13.361642"><ele>715.0</ele><time>2026-05-02T14:48:27.911Z</time></trkpt><trkpt lat="42.0975028" lon="13.3614658"><ele>715.0</ele><time>2026-05-02T14:48:28.911Z</time></trkpt><trkpt lat="42.097622" lon="13.3612865"><ele>714.6666666666667</ele><time>2026-05-02T14:48:29.911Z</time></trkpt><trkpt lat="42.0977381" lon="13.3611123"><ele>714.3333333333334</ele><time>2026-05-02T14:48:30.911Z</time></trkpt><trkpt lat="42.0978525" lon="13.3609386"><ele>714.0</ele><time>2026-05-02T14:48:31.91Z</time></trkpt><trkpt lat="42.0979714" lon="13.3607673"><ele>714.0</ele><time>2026-05-02T14:48:32.911Z</time></trkpt><trkpt lat="42.0980983" lon="13.3605992"><ele>714.0</ele><time>2026-05-02T14:48:33.911Z</time></trkpt><trkpt lat="42.0982281" lon="13.3604301"><ele>714.0</ele><time>2026-05-02T14:48:34.911Z</time></trkpt><trkpt lat="42.0983588" lon="13.3602613"><ele>712.3333333333334</ele><time>2026-05-02T14:48:35.911Z</time></trkpt><trkpt lat="42.0984928" lon="13.3600981"><ele>710.6666666666667</ele><time>2026-05-02T14:48:36.911Z</time></trkpt><trkpt lat="42.0986314" lon="13.3599384"><ele>709.0</ele><time>2026-05-02T14:48:37.91Z</time></trkpt><trkpt lat="42.0987686" lon="13.3597842"><ele>708.6666666666667</ele><time>2026-05-02T14:48:38.911Z</time></trkpt><trkpt lat="42.0989083" lon="13.3596247"><ele>708.3333333333334</ele><time>2026-05-02T14:48:39.91Z</time></trkpt><trkpt lat="42.099042" lon="13.3594727"><ele>708.0</ele><time>2026-05-02T14:48:40.91Z</time></trkpt><trkpt lat="42.0991689" lon="13.3593164"><ele>708.0</ele><time>2026-05-02T14:48:41.912Z</time></trkpt><trkpt lat="42.0992901" lon="13.3591685"><ele>708.0</ele><time>2026-05-02T14:48:42.911Z</time></trkpt><trkpt lat="42.0994147" lon="13.3590232"><ele>708.0</ele><time>2026-05-02T14:48:43.91Z</time></trkpt><trkpt lat="42.0995299" lon="13.3588729"><ele>708.0</ele><time>2026-05-02T14:48:44.909Z</time></trkpt><trkpt lat="42.099642" lon="13.3587262"><ele>708.0</ele><time>2026-05-02T14:48:45.91Z</time></trkpt><trkpt lat="42.099754" lon="13.3585738"><ele>708.0</ele><time>2026-05-02T14:48:46.911Z</time></trkpt><trkpt lat="42.09987" lon="13.3584258"><ele>708.3333333333334</ele><time>2026-05-02T14:48:47.912Z</time></trkpt><trkpt lat="42.0999883" lon="13.3582799"><ele>708.6666666666667</ele><time>2026-05-02T14:48:48.911Z</time></trkpt><trkpt lat="42.1001179" lon="13.3581418"><ele>709.0</ele><time>2026-05-02T14:48:49.912Z</time></trkpt><trkpt lat="42.1002611" lon="13.3579871"><ele>709.0</ele><time>2026-05-02T14:48:50.912Z</time></trkpt><trkpt lat="42.1004046" lon="13.3578355"><ele>709.0</ele><time>2026-05-02T14:48:51.91Z</time></trkpt><trkpt lat="42.100547" lon="13.3576943"><ele>709.0</ele><time>2026-05-02T14:48:52.91Z</time></trkpt><trkpt lat="42.1006838" lon="13.3575472"><ele>709.3333333333334</ele><time>2026-05-02T14:48:53.91Z</time></trkpt><trkpt lat="42.1008137" lon="13.3574034"><ele>709.6666666666666</ele><time>2026-05-02T14:48:54.91Z</time></trkpt><trkpt lat="42.1009261" lon="13.3572614"><ele>710.0</ele><time>2026-05-02T14:48:55.911Z</time></trkpt><trkpt lat="42.1010533" lon="13.3571319"><ele>710.0</ele><time>2026-05-02T14:48:56.912Z</time></trkpt><trkpt lat="42.1011906" lon="13.3570414"><ele>710.0</ele><time>2026-05-02T14:48:57.911Z</time></trkpt><trkpt lat="42.101309" lon="13.3569603"><ele>710.0</ele><time>2026-05-02T14:48:58.91Z</time></trkpt><trkpt lat="42.1014338" lon="13.3568546"><ele>710.0</ele><time>2026-05-02T14:48:59.91Z</time></trkpt><trkpt lat="42.1015555" lon="13.3567302"><ele>711.0</ele><time>2026-05-02T14:49:00.912Z</time></trkpt><trkpt lat="42.1016742" lon="13.3566008"><ele>712.0</ele><time>2026-05-02T14:49:01.909Z</time></trkpt><trkpt lat="42.1017906" lon="13.356451"><ele>713.0</ele><time>2026-05-02T14:49:02.91Z</time></trkpt><trkpt lat="42.1019108" lon="13.3563062"><ele>713.0</ele><time>2026-05-02T14:49:03.911Z</time></trkpt><trkpt lat="42.1020364" lon="13.3561475"><ele>713.0</ele><time>2026-05-02T14:49:04.91Z</time></trkpt><trkpt lat="42.1021613" lon="13.3559872"><ele>713.0</ele><time>2026-05-02T14:49:05.911Z</time></trkpt><trkpt lat="42.1022886" lon="13.3558303"><ele>713.0</ele><time>2026-05-02T14:49:06.91Z</time></trkpt><trkpt lat="42.1024148" lon="13.355665"><ele>713.0</ele><time>2026-05-02T14:49:07.91Z</time></trkpt><trkpt lat="42.1025393" lon="13.3555032"><ele>713.0</ele><time>2026-05-02T14:49:08.911Z</time></trkpt><trkpt lat="42.1026661" lon="13.3553406"><ele>713.0</ele><time>2026-05-02T14:49:09.91Z</time></trkpt><trkpt lat="42.1027938" lon="13.3551791"><ele>713.0</ele><time>2026-05-02T14:49:10.912Z</time></trkpt><trkpt lat="42.1029196" lon="13.3550184"><ele>713.0</ele><time>2026-05-02T14:49:11.91Z</time></trkpt><trkpt lat="42.1030426" lon="13.3548622"><ele>713.6666666666666</ele><time>2026-05-02T14:49:12.909Z</time></trkpt><trkpt lat="42.1031625" lon="13.3547007"><ele>714.3333333333334</ele><time>2026-05-02T14:49:13.911Z</time></trkpt><trkpt lat="42.1032843" lon="13.354543"><ele>715.0</ele><time>2026-05-02T14:49:14.91Z</time></trkpt><trkpt lat="42.1034053" lon="13.3543848"><ele>717.6666666666667</ele><time>2026-05-02T14:49:15.911Z</time></trkpt><trkpt lat="42.103524" lon="13.3542352"><ele>720.3333333333334</ele><time>2026-05-02T14:49:16.909Z</time></trkpt><trkpt lat="42.1036372" lon="13.3540843"><ele>723.0</ele><time>2026-05-02T14:49:17.909Z</time></trkpt><trkpt lat="42.1037516" lon="13.3539268"><ele>724.6666666666666</ele><time>2026-05-02T14:49:18.911Z</time></trkpt><trkpt lat="42.1038676" lon="13.3537683"><ele>726.3333333333333</ele><time>2026-05-02T14:49:19.911Z</time></trkpt><trkpt lat="42.1039835" lon="13.3536124"><ele>728.0</ele><time>2026-05-02T14:49:20.911Z</time></trkpt><trkpt lat="42.1041041" lon="13.3534598"><ele>728.6666666666666</ele><time>2026-05-02T14:49:21.912Z</time></trkpt><trkpt lat="42.1042294" lon="13.3533194"><ele>729.3333333333334</ele><time>2026-05-02T14:49:22.911Z</time></trkpt><trkpt lat="42.1043647" lon="13.353196"><ele>730.0</ele><time>2026-05-02T14:49:23.91Z</time></trkpt><trkpt lat="42.1045005" lon="13.3530761"><ele>731.0</ele><time>2026-05-02T14:49:24.912Z</time></trkpt><trkpt lat="42.1046364" lon="13.352969"><ele>732.0</ele><time>2026-05-02T14:49:25.91Z</time></trkpt><trkpt lat="42.1047659" lon="13.3528536"><ele>733.0</ele><time>2026-05-02T14:49:26.911Z</time></trkpt><trkpt lat="42.1048946" lon="13.352744"><ele>734.75</ele><time>2026-05-02T14:49:27.911Z</time></trkpt><trkpt lat="42.1050235" lon="13.3526374"><ele>736.5</ele><time>2026-05-02T14:49:28.911Z</time></trkpt><trkpt lat="42.1051531" lon="13.3525412"><ele>738.25</ele><time>2026-05-02T14:49:29.91Z</time></trkpt><trkpt lat="42.105281" lon="13.3524453"><ele>740.0</ele><time>2026-05-02T14:49:30.911Z</time></trkpt><trkpt lat="42.1054122" lon="13.3523393"><ele>740.0</ele><time>2026-05-02T14:49:31.91Z</time></trkpt><trkpt lat="42.105543" lon="13.3522334"><ele>740.0</ele><time>2026-05-02T14:49:32.91Z</time></trkpt><trkpt lat="42.1056765" lon="13.3521252"><ele>740.0</ele><time>2026-05-02T14:49:33.911Z</time></trkpt><trkpt lat="42.1058056" lon="13.3520203"><ele>741.0</ele><time>2026-05-02T14:49:34.91Z</time></trkpt><trkpt lat="42.1059285" lon="13.3519206"><ele>742.0</ele><time>2026-05-02T14:49:35.91Z</time></trkpt><trkpt lat="42.1060464" lon="13.3518162"><ele>743.0</ele><time>2026-05-02T14:49:36.912Z</time></trkpt><trkpt lat="42.1061604" lon="13.3517195"><ele>744.0</ele><time>2026-05-02T14:49:37.91Z</time></trkpt><trkpt lat="42.1062742" lon="13.3516243"><ele>744.0</ele><time>2026-05-02T14:49:38.91Z</time></trkpt><trkpt lat="42.1063764" lon="13.3515413"><ele>744.0</ele><time>2026-05-02T14:49:39.911Z</time></trkpt><trkpt lat="42.1064752" lon="13.3514694"><ele>744.0</ele><time>2026-05-02T14:49:40.91Z</time></trkpt><trkpt lat="42.1065762" lon="13.3514224"><ele>744.0</ele><time>2026-05-02T14:49:41.91Z</time></trkpt><trkpt lat="42.1066608" lon="13.3513855"><ele>744.0</ele><time>2026-05-02T14:49:42.91Z</time></trkpt><trkpt lat="42.1067476" lon="13.3513503"><ele>744.5</ele><time>2026-05-02T14:49:43.91Z</time></trkpt><trkpt lat="42.1068266" lon="13.3513104"><ele>745.0</ele><time>2026-05-02T14:49:44.91Z</time></trkpt><trkpt lat="42.1068911" lon="13.3512776"><ele>745.5</ele><time>2026-05-02T14:49:45.911Z</time></trkpt><trkpt lat="42.1069446" lon="13.35121"><ele>746.0</ele><time>2026-05-02T14:49:46.911Z</time></trkpt><trkpt lat="42.1069819" lon="13.3511166"><ele>746.5</ele><time>2026-05-02T14:49:47.911Z</time></trkpt><trkpt lat="42.1070095" lon="13.3509804"><ele>747.0</ele><time>2026-05-02T14:49:48.911Z</time></trkpt><trkpt lat="42.1070335" lon="13.3508371"><ele>747.0</ele><time>2026-05-02T14:49:49.909Z</time></trkpt><trkpt lat="42.1070564" lon="13.3506849"><ele>747.0</ele><time>2026-05-02T14:49:50.911Z</time></trkpt><trkpt lat="42.1070774" lon="13.3505457"><ele>747.0</ele><time>2026-05-02T14:49:51.91Z</time></trkpt><trkpt lat="42.1070947" lon="13.3504296"><ele>747.0</ele><time>2026-05-02T14:49:52.91Z</time></trkpt><trkpt lat="42.1071118" lon="13.3503136"><ele>747.0</ele><time>2026-05-02T14:49:53.91Z</time></trkpt><trkpt lat="42.1071345" lon="13.3502049"><ele>747.3333333333334</ele><time>2026-05-02T14:49:54.91Z</time></trkpt><trkpt lat="42.107161" lon="13.3501058"><ele>747.6666666666666</ele><time>2026-05-02T14:49:55.911Z</time></trkpt><trkpt lat="42.1072098" lon="13.3500114"><ele>748.0</ele><time>2026-05-02T14:49:56.911Z</time></trkpt><trkpt lat="42.1072712" lon="13.3499053"><ele>748.3333333333333</ele><time>2026-05-02T14:49:57.909Z</time></trkpt><trkpt lat="42.1073337" lon="13.3498104"><ele>748.6666666666666</ele><time>2026-05-02T14:49:58.911Z</time></trkpt><trkpt lat="42.1073924" lon="13.3497276"><ele>749.0</ele><time>2026-05-02T14:49:59.909Z</time></trkpt><trkpt lat="42.107447" lon="13.3496498"><ele>749.3333333333333</ele><time>2026-05-02T14:50:00.911Z</time></trkpt><trkpt lat="42.1074963" lon="13.3495791"><ele>749.6666666666666</ele><time>2026-05-02T14:50:01.909Z</time></trkpt><trkpt lat="42.1075418" lon="13.3495156"><ele>750.0</ele><time>2026-05-02T14:50:02.909Z</time></trkpt><trkpt lat="42.1076282" lon="13.3493964"><ele>750.3333333333334</ele><time>2026-05-02T14:50:04.91Z</time></trkpt><trkpt lat="42.1077069" lon="13.3492784"><ele>750.6666666666667</ele><time>2026-05-02T14:50:06.91Z</time></trkpt><trkpt lat="42.1077382" lon="13.3492005"><ele>751.0</ele><time>2026-05-02T14:50:07.911Z</time></trkpt><trkpt lat="42.1077486" lon="13.349107"><ele>751.0</ele><time>2026-05-02T14:50:08.912Z</time></trkpt><trkpt lat="42.1077662" lon="13.3490104"><ele>751.0</ele><time>2026-05-02T14:50:09.911Z</time></trkpt><trkpt lat="42.1077814" lon="13.3489057"><ele>751.0</ele><time>2026-05-02T14:50:10.911Z</time></trkpt><trkpt lat="42.1077959" lon="13.3487805"><ele>751.0</ele><time>2026-05-02T14:50:11.91Z</time></trkpt><trkpt lat="42.1078163" lon="13.3486367"><ele>751.0</ele><time>2026-05-02T14:50:12.91Z</time></trkpt><trkpt lat="42.1078424" lon="13.3484942"><ele>751.0</ele><time>2026-05-02T14:50:13.909Z</time></trkpt><trkpt lat="42.1078663" lon="13.3483419"><ele>751.0</ele><time>2026-05-02T14:50:14.91Z</time></trkpt><trkpt lat="42.1078849" lon="13.34819"><ele>751.0</ele><time>2026-05-02T14:50:15.909Z</time></trkpt><trkpt lat="42.1079032" lon="13.3480606"><ele>751.0</ele><time>2026-05-02T14:50:16.91Z</time></trkpt><trkpt lat="42.1079151" lon="13.3479618"><ele>751.0</ele><time>2026-05-02T14:50:17.911Z</time></trkpt><trkpt lat="42.1079218" lon="13.3478743"><ele>751.4</ele><time>2026-05-02T14:50:18.91Z</time></trkpt><trkpt lat="42.1079404" lon="13.3477608"><ele>751.8</ele><time>2026-05-02T14:50:20.91Z</time></trkpt><trkpt lat="42.1080235" lon="13.3476709"><ele>752.1999999999999</ele><time>2026-05-02T14:50:23.909Z</time></trkpt><trkpt lat="42.1081256" lon="13.3476447"><ele>752.5999999999999</ele><time>2026-05-02T14:50:25.911Z</time></trkpt><trkpt lat="42.1081974" lon="13.3476115"><ele>753.0</ele><time>2026-05-02T14:50:26.91Z</time></trkpt><trkpt lat="42.1082819" lon="13.347568"><ele>754.25</ele><time>2026-05-02T14:50:27.91Z</time></trkpt><trkpt lat="42.1083825" lon="13.3475218"><ele>755.5</ele><time>2026-05-02T14:50:28.91Z</time></trkpt><trkpt lat="42.108496" lon="13.3474711"><ele>756.75</ele><time>2026-05-02T14:50:29.91Z</time></trkpt><trkpt lat="42.1086234" lon="13.3474127"><ele>758.0</ele><time>2026-05-02T14:50:30.91Z</time></trkpt><trkpt lat="42.1087585" lon="13.3473653"><ele>758.0</ele><time>2026-05-02T14:50:31.911Z</time></trkpt><trkpt lat="42.1089007" lon="13.3473186"><ele>758.0</ele><time>2026-05-02T14:50:32.911Z</time></trkpt><trkpt lat="42.1090534" lon="13.3472774"><ele>758.0</ele><time>2026-05-02T14:50:33.911Z</time></trkpt><trkpt lat="42.1092233" lon="13.3472274"><ele>760.3333333333333</ele><time>2026-05-02T14:50:34.91Z</time></trkpt><trkpt lat="42.1093987" lon="13.3471818"><ele>762.6666666666666</ele><time>2026-05-02T14:50:35.91Z</time></trkpt><trkpt lat="42.1095847" lon="13.3471335"><ele>765.0</ele><time>2026-05-02T14:50:36.911Z</time></trkpt><trkpt lat="42.109771" lon="13.3470875"><ele>767.6666666666667</ele><time>2026-05-02T14:50:37.91Z</time></trkpt><trkpt lat="42.1099515" lon="13.347038"><ele>770.3333333333334</ele><time>2026-05-02T14:50:38.912Z</time></trkpt><trkpt lat="42.1101314" lon="13.3469877"><ele>773.0</ele><time>2026-05-02T14:50:39.91Z</time></trkpt><trkpt lat="42.110304" lon="13.3469277"><ele>773.0</ele><time>2026-05-02T14:50:40.91Z</time></trkpt><trkpt lat="42.1104797" lon="13.346864"><ele>773.0</ele><time>2026-05-02T14:50:41.911Z</time></trkpt><trkpt lat="42.1106457" lon="13.3467955"><ele>773.0</ele><time>2026-05-02T14:50:42.91Z</time></trkpt><trkpt lat="42.1108109" lon="13.346723"><ele>774.6666666666667</ele><time>2026-05-02T14:50:43.911Z</time></trkpt><trkpt lat="42.110977" lon="13.3466543"><ele>776.3333333333333</ele><time>2026-05-02T14:50:44.911Z</time></trkpt><trkpt lat="42.1111436" lon="13.3465739"><ele>778.0</ele><time>2026-05-02T14:50:45.91Z</time></trkpt><trkpt lat="42.1113102" lon="13.3465048"><ele>778.0</ele><time>2026-05-02T14:50:46.911Z</time></trkpt><trkpt lat="42.1114741" lon="13.3464273"><ele>778.0</ele><time>2026-05-02T14:50:47.911Z</time></trkpt><trkpt lat="42.1116364" lon="13.3463485"><ele>778.0</ele><time>2026-05-02T14:50:48.91Z</time></trkpt><trkpt lat="42.1117979" lon="13.3462674"><ele>780.3333333333333</ele><time>2026-05-02T14:50:49.911Z</time></trkpt><trkpt lat="42.1119629" lon="13.3461867"><ele>782.6666666666667</ele><time>2026-05-02T14:50:50.911Z</time></trkpt><trkpt lat="42.1121296" lon="13.346098"><ele>785.0</ele><time>2026-05-02T14:50:51.91Z</time></trkpt><trkpt lat="42.1122962" lon="13.3459972"><ele>787.6666666666667</ele><time>2026-05-02T14:50:52.909Z</time></trkpt><trkpt lat="42.1124662" lon="13.3458928"><ele>790.3333333333333</ele><time>2026-05-02T14:50:53.911Z</time></trkpt><trkpt lat="42.1126383" lon="13.345777"><ele>793.0</ele><time>2026-05-02T14:50:54.909Z</time></trkpt><trkpt lat="42.1128061" lon="13.3456654"><ele>793.0</ele><time>2026-05-02T14:50:55.912Z</time></trkpt><trkpt lat="42.1129676" lon="13.3455586"><ele>793.0</ele><time>2026-05-02T14:50:56.911Z</time></trkpt><trkpt lat="42.1131275" lon="13.3454464"><ele>793.0</ele><time>2026-05-02T14:50:57.912Z</time></trkpt><trkpt lat="42.1132751" lon="13.3453457"><ele>794.6666666666666</ele><time>2026-05-02T14:50:58.91Z</time></trkpt><trkpt lat="42.1134283" lon="13.3452359"><ele>796.3333333333333</ele><time>2026-05-02T14:50:59.911Z</time></trkpt><trkpt lat="42.1135811" lon="13.3451275"><ele>798.0</ele><time>2026-05-02T14:51:00.911Z</time></trkpt><trkpt lat="42.1137349" lon="13.3450168"><ele>798.0</ele><time>2026-05-02T14:51:01.91Z</time></trkpt><trkpt lat="42.1138934" lon="13.3449052"><ele>798.0</ele><time>2026-05-02T14:51:02.91Z</time></trkpt><trkpt lat="42.1140452" lon="13.3448051"><ele>798.0</ele><time>2026-05-02T14:51:03.911Z</time></trkpt><trkpt lat="42.1141972" lon="13.3447223"><ele>800.0</ele><time>2026-05-02T14:51:04.91Z</time></trkpt><trkpt lat="42.1143515" lon="13.3446428"><ele>802.0</ele><time>2026-05-02T14:51:05.912Z</time></trkpt><trkpt lat="42.1145121" lon="13.3445861"><ele>804.0</ele><time>2026-05-02T14:51:06.91Z</time></trkpt><trkpt lat="42.1146797" lon="13.3445478"><ele>804.0</ele><time>2026-05-02T14:51:07.91Z</time></trkpt><trkpt lat="42.1148488" lon="13.3445187"><ele>804.0</ele><time>2026-05-02T14:51:08.91Z</time></trkpt><trkpt lat="42.1150261" lon="13.3445005"><ele>804.0</ele><time>2026-05-02T14:51:09.909Z</time></trkpt><trkpt lat="42.1152066" lon="13.344485"><ele>805.3333333333333</ele><time>2026-05-02T14:51:10.91Z</time></trkpt><trkpt lat="42.1153868" lon="13.3444663"><ele>806.6666666666666</ele><time>2026-05-02T14:51:11.91Z</time></trkpt><trkpt lat="42.1155655" lon="13.3444464"><ele>808.0</ele><time>2026-05-02T14:51:12.91Z</time></trkpt><trkpt lat="42.1157425" lon="13.3444284"><ele>808.6666666666666</ele><time>2026-05-02T14:51:13.911Z</time></trkpt><trkpt lat="42.1159183" lon="13.3444016"><ele>809.3333333333333</ele><time>2026-05-02T14:51:14.912Z</time></trkpt><trkpt lat="42.1160933" lon="13.3443748"><ele>810.0</ele><time>2026-05-02T14:51:15.91Z</time></trkpt><trkpt lat="42.1162737" lon="13.3443501"><ele>810.0</ele><time>2026-05-02T14:51:16.91Z</time></trkpt><trkpt lat="42.1164481" lon="13.3443291"><ele>810.0</ele><time>2026-05-02T14:51:17.91Z</time></trkpt><trkpt lat="42.1166231" lon="13.3443007"><ele>810.0</ele><time>2026-05-02T14:51:18.91Z</time></trkpt><trkpt lat="42.1167949" lon="13.3442777"><ele>813.0</ele><time>2026-05-02T14:51:19.911Z</time></trkpt><trkpt lat="42.1169703" lon="13.3442567"><ele>816.0</ele><time>2026-05-02T14:51:20.91Z</time></trkpt><trkpt lat="42.117144" lon="13.3442381"><ele>819.0</ele><time>2026-05-02T14:51:21.911Z</time></trkpt><trkpt lat="42.1173207" lon="13.3442151"><ele>821.3333333333333</ele><time>2026-05-02T14:51:22.91Z</time></trkpt><trkpt lat="42.1174951" lon="13.3441946"><ele>823.6666666666666</ele><time>2026-05-02T14:51:23.91Z</time></trkpt><trkpt lat="42.1176704" lon="13.3441732"><ele>826.0</ele><time>2026-05-02T14:51:24.912Z</time></trkpt><trkpt lat="42.1178395" lon="13.3441543"><ele>826.0</ele><time>2026-05-02T14:51:25.91Z</time></trkpt><trkpt lat="42.1180072" lon="13.3441437"><ele>826.0</ele><time>2026-05-02T14:51:26.911Z</time></trkpt><trkpt lat="42.1181678" lon="13.3441528"><ele>826.0</ele><time>2026-05-02T14:51:27.911Z</time></trkpt><trkpt lat="42.1183361" lon="13.3441696"><ele>827.3333333333333</ele><time>2026-05-02T14:51:28.911Z</time></trkpt><trkpt lat="42.1185046" lon="13.3441973"><ele>828.6666666666667</ele><time>2026-05-02T14:51:29.911Z</time></trkpt><trkpt lat="42.1186768" lon="13.3442211"><ele>830.0</ele><time>2026-05-02T14:51:30.91Z</time></trkpt><trkpt lat="42.1188492" lon="13.3442413"><ele>830.0</ele><time>2026-05-02T14:51:31.909Z</time></trkpt><trkpt lat="42.1190256" lon="13.3442598"><ele>830.0</ele><time>2026-05-02T14:51:32.91Z</time></trkpt><trkpt lat="42.1192034" lon="13.344275"><ele>830.0</ele><time>2026-05-02T14:51:33.911Z</time></trkpt><trkpt lat="42.1193776" lon="13.3442779"><ele>833.0</ele><time>2026-05-02T14:51:34.911Z</time></trkpt><trkpt lat="42.1195542" lon="13.3442771"><ele>836.0</ele><time>2026-05-02T14:51:35.91Z</time></trkpt><trkpt lat="42.1197302" lon="13.3442601"><ele>839.0</ele><time>2026-05-02T14:51:36.911Z</time></trkpt><trkpt lat="42.1199067" lon="13.3442329"><ele>841.3333333333334</ele><time>2026-05-02T14:51:37.91Z</time></trkpt><trkpt lat="42.1200795" lon="13.3441912"><ele>843.6666666666667</ele><time>2026-05-02T14:51:38.91Z</time></trkpt><trkpt lat="42.1202494" lon="13.3441393"><ele>846.0</ele><time>2026-05-02T14:51:39.909Z</time></trkpt><trkpt lat="42.1204185" lon="13.3440808"><ele>846.0</ele><time>2026-05-02T14:51:40.909Z</time></trkpt><trkpt lat="42.1205921" lon="13.3440216"><ele>846.0</ele><time>2026-05-02T14:51:41.911Z</time></trkpt><trkpt lat="42.1207643" lon="13.3439605"><ele>846.0</ele><time>2026-05-02T14:51:42.91Z</time></trkpt><trkpt lat="42.1209353" lon="13.3439017"><ele>849.0</ele><time>2026-05-02T14:51:43.911Z</time></trkpt><trkpt lat="42.1211033" lon="13.3438321"><ele>852.0</ele><time>2026-05-02T14:51:44.911Z</time></trkpt><trkpt lat="42.1212616" lon="13.3437569"><ele>855.0</ele><time>2026-05-02T14:51:45.909Z</time></trkpt><trkpt lat="42.1214048" lon="13.3436608"><ele>855.0</ele><time>2026-05-02T14:51:46.91Z</time></trkpt><trkpt lat="42.12152" lon="13.3435504"><ele>855.0</ele><time>2026-05-02T14:51:47.911Z</time></trkpt><trkpt lat="42.1216037" lon="13.3434368"><ele>855.0</ele><time>2026-05-02T14:51:48.91Z</time></trkpt><trkpt lat="42.1216589" lon="13.3432977"><ele>855.0</ele><time>2026-05-02T14:51:49.909Z</time></trkpt><trkpt lat="42.1216863" lon="13.3431442"><ele>859.0</ele><time>2026-05-02T14:51:50.91Z</time></trkpt><trkpt lat="42.1216859" lon="13.3429753"><ele>863.0</ele><time>2026-05-02T14:51:51.912Z</time></trkpt><trkpt lat="42.1216716" lon="13.3428018"><ele>867.0</ele><time>2026-05-02T14:51:52.91Z</time></trkpt><trkpt lat="42.1216612" lon="13.3426423"><ele>871.0</ele><time>2026-05-02T14:51:53.911Z</time></trkpt><trkpt lat="42.1216512" lon="13.3424541"><ele>871.0</ele><time>2026-05-02T14:51:54.911Z</time></trkpt><trkpt lat="42.1216271" lon="13.3422753"><ele>871.0</ele><time>2026-05-02T14:51:55.911Z</time></trkpt><trkpt lat="42.1215899" lon="13.3420937"><ele>871.0</ele><time>2026-05-02T14:51:56.911Z</time></trkpt><trkpt lat="42.1215533" lon="13.3419166"><ele>871.0</ele><time>2026-05-02T14:51:57.911Z</time></trkpt><trkpt lat="42.1215218" lon="13.3417458"><ele>869.5</ele><time>2026-05-02T14:51:58.91Z</time></trkpt><trkpt lat="42.1215021" lon="13.3415636"><ele>868.0</ele><time>2026-05-02T14:51:59.911Z</time></trkpt><trkpt lat="42.1215004" lon="13.3413876"><ele>866.5</ele><time>2026-05-02T14:52:00.91Z</time></trkpt><trkpt lat="42.1214951" lon="13.3412101"><ele>865.0</ele><time>2026-05-02T14:52:01.91Z</time></trkpt><trkpt lat="42.1214897" lon="13.3410343"><ele>865.0</ele><time>2026-05-02T14:52:02.91Z</time></trkpt><trkpt lat="42.121485" lon="13.3408456"><ele>865.0</ele><time>2026-05-02T14:52:03.911Z</time></trkpt><trkpt lat="42.1214776" lon="13.3406586"><ele>865.0</ele><time>2026-05-02T14:52:04.911Z</time></trkpt><trkpt lat="42.1214688" lon="13.3404729"><ele>865.0</ele><time>2026-05-02T14:52:05.911Z</time></trkpt><trkpt lat="42.1214585" lon="13.3402891"><ele>867.5</ele><time>2026-05-02T14:52:06.91Z</time></trkpt><trkpt lat="42.1214467" lon="13.3400971"><ele>870.0</ele><time>2026-05-02T14:52:07.91Z</time></trkpt><trkpt lat="42.1214226" lon="13.3399139"><ele>872.5</ele><time>2026-05-02T14:52:08.911Z</time></trkpt><trkpt lat="42.1213924" lon="13.3397221"><ele>875.0</ele><time>2026-05-02T14:52:09.91Z</time></trkpt><trkpt lat="42.1213285" lon="13.339537"><ele>878.75</ele><time>2026-05-02T14:52:10.911Z</time></trkpt><trkpt lat="42.1212667" lon="13.3393598"><ele>882.5</ele><time>2026-05-02T14:52:11.912Z</time></trkpt><trkpt lat="42.1211983" lon="13.3391926"><ele>886.25</ele><time>2026-05-02T14:52:12.911Z</time></trkpt><trkpt lat="42.1211322" lon="13.3390382"><ele>890.0</ele><time>2026-05-02T14:52:13.91Z</time></trkpt><trkpt lat="42.1210676" lon="13.338891"><ele>892.8</ele><time>2026-05-02T14:52:14.911Z</time></trkpt><trkpt lat="42.1210091" lon="13.338752"><ele>895.6</ele><time>2026-05-02T14:52:15.91Z</time></trkpt><trkpt lat="42.1209509" lon="13.3386422"><ele>898.4000000000001</ele><time>2026-05-02T14:52:16.911Z</time></trkpt><trkpt lat="42.1208845" lon="13.3385704"><ele>901.2</ele><time>2026-05-02T14:52:17.911Z</time></trkpt><trkpt lat="42.1208153" lon="13.3385547"><ele>904.0</ele><time>2026-05-02T14:52:18.911Z</time></trkpt><trkpt lat="42.1207345" lon="13.3385782"><ele>903.0</ele><time>2026-05-02T14:52:19.91Z</time></trkpt><trkpt lat="42.1206608" lon="13.3386437"><ele>902.0000000000001</ele><time>2026-05-02T14:52:20.911Z</time></trkpt><trkpt lat="42.1205879" lon="13.3387717"><ele>901.0000000000001</ele><time>2026-05-02T14:52:21.91Z</time></trkpt><trkpt lat="42.1205091" lon="13.3388932"><ele>900.0</ele><time>2026-05-02T14:52:22.911Z</time></trkpt><trkpt lat="42.1204211" lon="13.3390029"><ele>899.0</ele><time>2026-05-02T14:52:23.911Z</time></trkpt><trkpt lat="42.1203336" lon="13.3391066"><ele>899.0</ele><time>2026-05-02T14:52:24.911Z</time></trkpt><trkpt lat="42.1202435" lon="13.3391916"><ele>899.0000000000001</ele><time>2026-05-02T14:52:25.911Z</time></trkpt><trkpt lat="42.1201549" lon="13.3392576"><ele>899.0000000000001</ele><time>2026-05-02T14:52:26.911Z</time></trkpt><trkpt lat="42.120041" lon="13.3392652"><ele>899.0</ele><time>2026-05-02T14:52:27.912Z</time></trkpt><trkpt lat="42.1199243" lon="13.3392755"><ele>899.0</ele><time>2026-05-02T14:52:28.909Z</time></trkpt><trkpt lat="42.119801" lon="13.3392391"><ele>900.0</ele><time>2026-05-02T14:52:29.909Z</time></trkpt><trkpt lat="42.1196605" lon="13.3392079"><ele>901.0</ele><time>2026-05-02T14:52:30.909Z</time></trkpt><trkpt lat="42.1195273" lon="13.3391905"><ele>902.0</ele><time>2026-05-02T14:52:31.91Z</time></trkpt><trkpt lat="42.1193904" lon="13.3391559"><ele>903.0</ele><time>2026-05-02T14:52:32.91Z</time></trkpt><trkpt lat="42.1192504" lon="13.3391358"><ele>903.0</ele><time>2026-05-02T14:52:33.91Z</time></trkpt><trkpt lat="42.1191137" lon="13.3391252"><ele>903.0</ele><time>2026-05-02T14:52:34.91Z</time></trkpt><trkpt lat="42.1189803" lon="13.3391191"><ele>903.0</ele><time>2026-05-02T14:52:35.909Z</time></trkpt><trkpt lat="42.1188608" lon="13.3391189"><ele>903.0</ele><time>2026-05-02T14:52:36.911Z</time></trkpt><trkpt lat="42.1187445" lon="13.3391172"><ele>903.5999999999999</ele><time>2026-05-02T14:52:37.91Z</time></trkpt><trkpt lat="42.1186486" lon="13.3391278"><ele>904.1999999999999</ele><time>2026-05-02T14:52:38.91Z</time></trkpt><trkpt lat="42.1185577" lon="13.339142"><ele>904.8</ele><time>2026-05-02T14:52:39.909Z</time></trkpt><trkpt lat="42.1184798" lon="13.3391537"><ele>905.4</ele><time>2026-05-02T14:52:40.91Z</time></trkpt><trkpt lat="42.1184125" lon="13.339148"><ele>906.0</ele><time>2026-05-02T14:52:41.91Z</time></trkpt><trkpt lat="42.1182882" lon="13.3391291"><ele>905.6666666666666</ele><time>2026-05-02T14:52:43.91Z</time></trkpt><trkpt lat="42.1181744" lon="13.3391058"><ele>905.3333333333333</ele><time>2026-05-02T14:52:45.911Z</time></trkpt><trkpt lat="42.1181056" lon="13.3390457"><ele>905.0</ele><time>2026-05-02T14:52:47.91Z</time></trkpt><trkpt lat="42.1180736" lon="13.3389585"><ele>904.6666666666666</ele><time>2026-05-02T14:52:49.91Z</time></trkpt><trkpt lat="42.1180951" lon="13.3388568"><ele>904.3333333333333</ele><time>2026-05-02T14:52:52.911Z</time></trkpt><trkpt lat="42.1180963" lon="13.3387353"><ele>904.0</ele><time>2026-05-02T14:52:54.911Z</time></trkpt><trkpt lat="42.1181029" lon="13.3385905"><ele>901.8000000000001</ele><time>2026-05-02T14:52:56.91Z</time></trkpt><trkpt lat="42.1181117" lon="13.3384549"><ele>899.6000000000001</ele><time>2026-05-02T14:52:58.911Z</time></trkpt><trkpt lat="42.1181022" lon="13.3383147"><ele>897.4</ele><time>2026-05-02T14:53:00.911Z</time></trkpt><trkpt lat="42.1181071" lon="13.3381991"><ele>895.2</ele><time>2026-05-02T14:53:02.911Z</time></trkpt><trkpt lat="42.1181474" lon="13.3380717"><ele>893.0</ele><time>2026-05-02T14:53:04.91Z</time></trkpt><trkpt lat="42.1181862" lon="13.3379977"><ele>890.8333333333334</ele><time>2026-05-02T14:53:05.91Z</time></trkpt><trkpt lat="42.1182276" lon="13.3379214"><ele>888.6666666666667</ele><time>2026-05-02T14:53:06.909Z</time></trkpt><trkpt lat="42.1182745" lon="13.3378426"><ele>886.5</ele><time>2026-05-02T14:53:07.91Z</time></trkpt><trkpt lat="42.1183183" lon="13.3377715"><ele>884.3333333333333</ele><time>2026-05-02T14:53:08.91Z</time></trkpt><trkpt lat="42.1183641" lon="13.3376933"><ele>882.1666666666666</ele><time>2026-05-02T14:53:09.91Z</time></trkpt><trkpt lat="42.1184215" lon="13.3376129"><ele>880.0</ele><time>2026-05-02T14:53:10.909Z</time></trkpt><trkpt lat="42.1184806" lon="13.3375176"><ele>883.0</ele><time>2026-05-02T14:53:11.911Z</time></trkpt><trkpt lat="42.1185561" lon="13.3374219"><ele>886.0</ele><time>2026-05-02T14:53:12.91Z</time></trkpt><trkpt lat="42.1186348" lon="13.3373158"><ele>889.0</ele><time>2026-05-02T14:53:13.911Z</time></trkpt><trkpt lat="42.1187297" lon="13.3372128"><ele>892.0</ele><time>2026-05-02T14:53:14.91Z</time></trkpt><trkpt lat="42.118826" lon="13.3371182"><ele>892.0</ele><time>2026-05-02T14:53:15.91Z</time></trkpt><trkpt lat="42.1189283" lon="13.3370209"><ele>892.0</ele><time>2026-05-02T14:53:16.909Z</time></trkpt><trkpt lat="42.1190203" lon="13.3369206"><ele>892.0</ele><time>2026-05-02T14:53:17.909Z</time></trkpt><trkpt lat="42.1191147" lon="13.3368275"><ele>892.0</ele><time>2026-05-02T14:53:18.911Z</time></trkpt><trkpt lat="42.1192008" lon="13.3367276"><ele>895.25</ele><time>2026-05-02T14:53:19.91Z</time></trkpt><trkpt lat="42.1192787" lon="13.3366267"><ele>898.5</ele><time>2026-05-02T14:53:20.909Z</time></trkpt><trkpt lat="42.1193564" lon="13.3365178"><ele>901.75</ele><time>2026-05-02T14:53:21.91Z</time></trkpt><trkpt lat="42.1194379" lon="13.3364059"><ele>905.0</ele><time>2026-05-02T14:53:22.909Z</time></trkpt><trkpt lat="42.119537" lon="13.336315"><ele>905.0</ele><time>2026-05-02T14:53:23.91Z</time></trkpt><trkpt lat="42.1196456" lon="13.3362372"><ele>905.0</ele><time>2026-05-02T14:53:24.91Z</time></trkpt><trkpt lat="42.1197725" lon="13.3361628"><ele>905.0</ele><time>2026-05-02T14:53:25.91Z</time></trkpt><trkpt lat="42.1198911" lon="13.3360776"><ele>905.0</ele><time>2026-05-02T14:53:26.91Z</time></trkpt><trkpt lat="42.1200002" lon="13.3359713"><ele>910.8</ele><time>2026-05-02T14:53:27.911Z</time></trkpt><trkpt lat="42.1200906" lon="13.3358771"><ele>916.6</ele><time>2026-05-02T14:53:28.91Z</time></trkpt><trkpt lat="42.1201655" lon="13.3357997"><ele>922.4000000000001</ele><time>2026-05-02T14:53:29.91Z</time></trkpt><trkpt lat="42.1202386" lon="13.3357129"><ele>928.2</ele><time>2026-05-02T14:53:31.909Z</time></trkpt><trkpt lat="42.1203441" lon="13.3356083"><ele>934.0</ele><time>2026-05-02T14:53:33.911Z</time></trkpt><trkpt lat="42.1204081" lon="13.335563"><ele>931.9999999999999</ele><time>2026-05-02T14:53:34.909Z</time></trkpt><trkpt lat="42.1204785" lon="13.3355225"><ele>930.0</ele><time>2026-05-02T14:53:35.911Z</time></trkpt><trkpt lat="42.120545" lon="13.3354527"><ele>928.0</ele><time>2026-05-02T14:53:36.909Z</time></trkpt><trkpt lat="42.1206134" lon="13.3353654"><ele>926.0</ele><time>2026-05-02T14:53:37.91Z</time></trkpt><trkpt lat="42.1206754" lon="13.3352815"><ele>923.9999999999999</ele><time>2026-05-02T14:53:38.91Z</time></trkpt><trkpt lat="42.120729" lon="13.3351709"><ele>922.0</ele><time>2026-05-02T14:53:39.911Z</time></trkpt><trkpt lat="42.1207833" lon="13.3350627"><ele>926.6666666666666</ele><time>2026-05-02T14:53:40.911Z</time></trkpt><trkpt lat="42.1208295" lon="13.334958"><ele>931.3333333333333</ele><time>2026-05-02T14:53:41.911Z</time></trkpt><trkpt lat="42.1208725" lon="13.3348548"><ele>936.0</ele><time>2026-05-02T14:53:42.91Z</time></trkpt><trkpt lat="42.1209189" lon="13.3347569"><ele>940.6666666666667</ele><time>2026-05-02T14:53:43.911Z</time></trkpt><trkpt lat="42.1209674" lon="13.3346594"><ele>945.3333333333334</ele><time>2026-05-02T14:53:44.909Z</time></trkpt><trkpt lat="42.1210124" lon="13.3345672"><ele>950.0</ele><time>2026-05-02T14:53:45.91Z</time></trkpt><trkpt lat="42.1210572" lon="13.3344756"><ele>950.0000000000001</ele><time>2026-05-02T14:53:46.911Z</time></trkpt><trkpt lat="42.1211011" lon="13.3343762"><ele>950.0</ele><time>2026-05-02T14:53:47.91Z</time></trkpt><trkpt lat="42.1211392" lon="13.3342882"><ele>950.0</ele><time>2026-05-02T14:53:48.911Z</time></trkpt><trkpt lat="42.1211668" lon="13.3341977"><ele>950.0</ele><time>2026-05-02T14:53:49.911Z</time></trkpt><trkpt lat="42.1211791" lon="13.3341061"><ele>950.0000000000001</ele><time>2026-05-02T14:53:50.911Z</time></trkpt><trkpt lat="42.1211707" lon="13.3339344"><ele>950.0</ele><time>2026-05-02T14:53:52.911Z</time></trkpt><trkpt lat="42.1211506" lon="13.3338481"><ele>951.8333333333334</ele><time>2026-05-02T14:53:53.911Z</time></trkpt><trkpt lat="42.1211298" lon="13.3337618"><ele>953.6666666666667</ele><time>2026-05-02T14:53:54.911Z</time></trkpt><trkpt lat="42.1210751" lon="13.3336933"><ele>955.5</ele><time>2026-05-02T14:53:55.912Z</time></trkpt><trkpt lat="42.1210119" lon="13.3336212"><ele>957.3333333333333</ele><time>2026-05-02T14:53:56.911Z</time></trkpt><trkpt lat="42.1209499" lon="13.3335691"><ele>959.1666666666666</ele><time>2026-05-02T14:53:57.91Z</time></trkpt><trkpt lat="42.1208789" lon="13.3335354"><ele>961.0</ele><time>2026-05-02T14:53:58.91Z</time></trkpt><trkpt lat="42.1208012" lon="13.3335028"><ele>958.9999999999999</ele><time>2026-05-02T14:53:59.91Z</time></trkpt><trkpt lat="42.120716" lon="13.3335207"><ele>957.0</ele><time>2026-05-02T14:54:00.911Z</time></trkpt><trkpt lat="42.120635" lon="13.3335463"><ele>955.0</ele><time>2026-05-02T14:54:01.909Z</time></trkpt><trkpt lat="42.1205606" lon="13.3335856"><ele>953.0</ele><time>2026-05-02T14:54:02.91Z</time></trkpt><trkpt lat="42.1204895" lon="13.3336061"><ele>950.9999999999999</ele><time>2026-05-02T14:54:03.91Z</time></trkpt><trkpt lat="42.1204188" lon="13.3336168"><ele>949.0</ele><time>2026-05-02T14:54:04.909Z</time></trkpt><trkpt lat="42.1203549" lon="13.3336117"><ele>949.0</ele><time>2026-05-02T14:54:05.91Z</time></trkpt><trkpt lat="42.1202937" lon="13.3334994"><ele>949.0000000000001</ele><time>2026-05-02T14:54:07.909Z</time></trkpt><trkpt lat="42.1202923" lon="13.3333098"><ele>949.0000000000001</ele><time>2026-05-02T14:54:09.91Z</time></trkpt><trkpt lat="42.1203089" lon="13.333191"><ele>949.0</ele><time>2026-05-02T14:54:10.911Z</time></trkpt><trkpt lat="42.1203249" lon="13.3330549"><ele>949.0</ele><time>2026-05-02T14:54:11.911Z</time></trkpt><trkpt lat="42.1203298" lon="13.3329095"><ele>952.2</ele><time>2026-05-02T14:54:12.912Z</time></trkpt><trkpt lat="42.1203338" lon="13.3327565"><ele>955.4000000000001</ele><time>2026-05-02T14:54:13.909Z</time></trkpt><trkpt lat="42.1203365" lon="13.3326118"><ele>958.6</ele><time>2026-05-02T14:54:14.911Z</time></trkpt><trkpt lat="42.1203272" lon="13.3324776"><ele>961.8</ele><time>2026-05-02T14:54:15.911Z</time></trkpt><trkpt lat="42.1203123" lon="13.3323453"><ele>965.0</ele><time>2026-05-02T14:54:16.91Z</time></trkpt><trkpt lat="42.1202889" lon="13.3322285"><ele>966.8</ele><time>2026-05-02T14:54:17.91Z</time></trkpt><trkpt lat="42.1202468" lon="13.332108"><ele>968.6</ele><time>2026-05-02T14:54:18.91Z</time></trkpt><trkpt lat="42.1202035" lon="13.3319925"><ele>970.4000000000001</ele><time>2026-05-02T14:54:19.911Z</time></trkpt><trkpt lat="42.1201633" lon="13.3318765"><ele>972.2</ele><time>2026-05-02T14:54:20.91Z</time></trkpt><trkpt lat="42.1201409" lon="13.3317621"><ele>974.0</ele><time>2026-05-02T14:54:21.911Z</time></trkpt><trkpt lat="42.1201359" lon="13.3316601"><ele>974.0000000000001</ele><time>2026-05-02T14:54:22.91Z</time></trkpt><trkpt lat="42.1201514" lon="13.3315609"><ele>974.0</ele><time>2026-05-02T14:54:23.91Z</time></trkpt><trkpt lat="42.1201905" lon="13.3314864"><ele>974.0</ele><time>2026-05-02T14:54:24.911Z</time></trkpt><trkpt lat="42.1202515" lon="13.3314312"><ele>974.0</ele><time>2026-05-02T14:54:25.91Z</time></trkpt><trkpt lat="42.1203365" lon="13.3313898"><ele>974.0000000000001</ele><time>2026-05-02T14:54:26.91Z</time></trkpt><trkpt lat="42.1204322" lon="13.3313503"><ele>974.0</ele><time>2026-05-02T14:54:27.91Z</time></trkpt><trkpt lat="42.1205303" lon="13.3313079"><ele>974.4000000000001</ele><time>2026-05-02T14:54:28.91Z</time></trkpt><trkpt lat="42.1206263" lon="13.3312729"><ele>974.8000000000001</ele><time>2026-05-02T14:54:29.909Z</time></trkpt><trkpt lat="42.1207141" lon="13.3312443"><ele>975.1999999999999</ele><time>2026-05-02T14:54:30.91Z</time></trkpt><trkpt lat="42.1208046" lon="13.3312045"><ele>975.5999999999999</ele><time>2026-05-02T14:54:31.91Z</time></trkpt><trkpt lat="42.1208977" lon="13.3311602"><ele>976.0</ele><time>2026-05-02T14:54:32.91Z</time></trkpt><trkpt lat="42.1209895" lon="13.3311148"><ele>977.1999999999999</ele><time>2026-05-02T14:54:33.911Z</time></trkpt><trkpt lat="42.1210797" lon="13.3310688"><ele>978.3999999999999</ele><time>2026-05-02T14:54:34.911Z</time></trkpt><trkpt lat="42.1211712" lon="13.3310315"><ele>979.6</ele><time>2026-05-02T14:54:35.909Z</time></trkpt><trkpt lat="42.121257" lon="13.3309946"><ele>980.8</ele><time>2026-05-02T14:54:36.911Z</time></trkpt><trkpt lat="42.121344" lon="13.3309637"><ele>982.0</ele><time>2026-05-02T14:54:37.909Z</time></trkpt><trkpt lat="42.1214234" lon="13.330931"><ele>981.9999999999999</ele><time>2026-05-02T14:54:38.911Z</time></trkpt><trkpt lat="42.1215051" lon="13.3308905"><ele>982.0</ele><time>2026-05-02T14:54:39.91Z</time></trkpt><trkpt lat="42.12159" lon="13.3308525"><ele>982.0</ele><time>2026-05-02T14:54:40.91Z</time></trkpt><trkpt lat="42.1216776" lon="13.3308191"><ele>982.0</ele><time>2026-05-02T14:54:41.91Z</time></trkpt><trkpt lat="42.1217648" lon="13.3307989"><ele>981.9999999999999</ele><time>2026-05-02T14:54:42.911Z</time></trkpt><trkpt lat="42.1218546" lon="13.3307872"><ele>982.0</ele><time>2026-05-02T14:54:43.91Z</time></trkpt><trkpt lat="42.1219517" lon="13.3307731"><ele>983.6</ele><time>2026-05-02T14:54:44.911Z</time></trkpt><trkpt lat="42.1220425" lon="13.3307606"><ele>985.2</ele><time>2026-05-02T14:54:45.911Z</time></trkpt><trkpt lat="42.1221298" lon="13.3307603"><ele>986.8</ele><time>2026-05-02T14:54:46.91Z</time></trkpt><trkpt lat="42.1222239" lon="13.3307482"><ele>988.4</ele><time>2026-05-02T14:54:47.91Z</time></trkpt><trkpt lat="42.1223118" lon="13.3307252"><ele>990.0</ele><time>2026-05-02T14:54:48.91Z</time></trkpt><trkpt lat="42.1223965" lon="13.3306948"><ele>991.6666666666666</ele><time>2026-05-02T14:54:49.909Z</time></trkpt><trkpt lat="42.1224771" lon="13.3306533"><ele>993.3333333333333</ele><time>2026-05-02T14:54:50.91Z</time></trkpt><trkpt lat="42.1225506" lon="13.3305994"><ele>995.0</ele><time>2026-05-02T14:54:51.912Z</time></trkpt><trkpt lat="42.1226158" lon="13.3305283"><ele>996.6666666666666</ele><time>2026-05-02T14:54:52.911Z</time></trkpt><trkpt lat="42.1226803" lon="13.3304512"><ele>998.3333333333333</ele><time>2026-05-02T14:54:53.911Z</time></trkpt><trkpt lat="42.1227475" lon="13.3303792"><ele>1000.0</ele><time>2026-05-02T14:54:54.91Z</time></trkpt><trkpt lat="42.1228205" lon="13.3303149"><ele>1000.0</ele><time>2026-05-02T14:54:55.91Z</time></trkpt><trkpt lat="42.1228949" lon="13.3302513"><ele>1000.0</ele><time>2026-05-02T14:54:56.912Z</time></trkpt><trkpt lat="42.1229745" lon="13.3301867"><ele>1000.0</ele><time>2026-05-02T14:54:57.911Z</time></trkpt><trkpt lat="42.1230558" lon="13.3301276"><ele>1000.0</ele><time>2026-05-02T14:54:58.911Z</time></trkpt><trkpt lat="42.123137" lon="13.3300735"><ele>1000.0</ele><time>2026-05-02T14:54:59.911Z</time></trkpt><trkpt lat="42.1232191" lon="13.3300311"><ele>1001.6</ele><time>2026-05-02T14:55:00.911Z</time></trkpt><trkpt lat="42.1232932" lon="13.3299933"><ele>1003.2</ele><time>2026-05-02T14:55:01.909Z</time></trkpt><trkpt lat="42.1233615" lon="13.3299567"><ele>1004.8</ele><time>2026-05-02T14:55:02.911Z</time></trkpt><trkpt lat="42.1234747" lon="13.3299173"><ele>1006.4</ele><time>2026-05-02T14:55:04.91Z</time></trkpt><trkpt lat="42.1235679" lon="13.3298927"><ele>1008.0</ele><time>2026-05-02T14:55:06.911Z</time></trkpt><trkpt lat="42.1236722" lon="13.3298514"><ele>1008.0</ele><time>2026-05-02T14:55:08.911Z</time></trkpt><trkpt lat="42.1237874" lon="13.3297923"><ele>1008.0</ele><time>2026-05-02T14:55:10.911Z</time></trkpt><trkpt lat="42.1238555" lon="13.3297476"><ele>1008.0</ele><time>2026-05-02T14:55:11.91Z</time></trkpt><trkpt lat="42.1239256" lon="13.3297019"><ele>1008.0</ele><time>2026-05-02T14:55:12.909Z</time></trkpt><trkpt lat="42.1239969" lon="13.3296576"><ele>1008.0</ele><time>2026-05-02T14:55:13.91Z</time></trkpt><trkpt lat="42.1240589" lon="13.3296152"><ele>1008.0</ele><time>2026-05-02T14:55:14.912Z</time></trkpt><trkpt lat="42.1241235" lon="13.3295698"><ele>1009.5</ele><time>2026-05-02T14:55:15.91Z</time></trkpt><trkpt lat="42.1241851" lon="13.3295121"><ele>1011.0</ele><time>2026-05-02T14:55:16.911Z</time></trkpt><trkpt lat="42.1242385" lon="13.3294389"><ele>1012.5</ele><time>2026-05-02T14:55:17.91Z</time></trkpt><trkpt lat="42.1242898" lon="13.329358"><ele>1014.0</ele><time>2026-05-02T14:55:18.912Z</time></trkpt><trkpt lat="42.1243415" lon="13.329282"><ele>1015.5</ele><time>2026-05-02T14:55:19.91Z</time></trkpt><trkpt lat="42.1243892" lon="13.3292067"><ele>1017.0</ele><time>2026-05-02T14:55:20.911Z</time></trkpt><trkpt lat="42.1244706" lon="13.3291063"><ele>1017.0</ele><time>2026-05-02T14:55:22.911Z</time></trkpt><trkpt lat="42.1245755" lon="13.3290383"><ele>1017.0</ele><time>2026-05-02T14:55:24.91Z</time></trkpt><trkpt lat="42.1246829" lon="13.3290001"><ele>1017.0</ele><time>2026-05-02T14:55:26.91Z</time></trkpt><trkpt lat="42.1247917" lon="13.3289906"><ele>1017.0</ele><time>2026-05-02T14:55:28.909Z</time></trkpt><trkpt lat="42.1249006" lon="13.3290241"><ele>1017.0</ele><time>2026-05-02T14:55:30.911Z</time></trkpt><trkpt lat="42.125003" lon="13.3290463"><ele>1019.3333333333334</ele><time>2026-05-02T14:55:32.911Z</time></trkpt><trkpt lat="42.1250783" lon="13.329049"><ele>1021.6666666666667</ele><time>2026-05-02T14:56:25.911Z</time></trkpt><trkpt lat="42.1251501" lon="13.3290593"><ele>1024.0</ele><time>2026-05-02T14:56:28.909Z</time></trkpt><trkpt lat="42.1252147" lon="13.3290934"><ele>1026.3333333333335</ele><time>2026-05-02T14:56:31.91Z</time></trkpt><trkpt lat="42.1252762" lon="13.3291325"><ele>1028.6666666666667</ele><time>2026-05-02T14:56:36.911Z</time></trkpt><trkpt lat="42.1253413" lon="13.3291611"><ele>1031.0</ele><time>2026-05-02T14:56:38.91Z</time></trkpt><trkpt lat="42.1254311" lon="13.3292226"><ele>1031.0</ele><time>2026-05-02T14:56:40.91Z</time></trkpt><trkpt lat="42.1255379" lon="13.3292911"><ele>1031.0</ele><time>2026-05-02T14:56:42.91Z</time></trkpt><trkpt lat="42.1256506" lon="13.3293735"><ele>1031.0</ele><time>2026-05-02T14:56:44.91Z</time></trkpt><trkpt lat="42.1257479" lon="13.3294443"><ele>1031.0</ele><time>2026-05-02T14:56:46.912Z</time></trkpt><trkpt lat="42.1258442" lon="13.3295437"><ele>1033.142857142857</ele><time>2026-05-02T14:56:48.911Z</time></trkpt><trkpt lat="42.125907" lon="13.329584"><ele>1035.2857142857142</ele><time>2026-05-02T14:56:49.91Z</time></trkpt><trkpt lat="42.1259727" lon="13.3296165"><ele>1037.4285714285713</ele><time>2026-05-02T14:56:50.911Z</time></trkpt><trkpt lat="42.1260427" lon="13.3296514"><ele>1039.5714285714284</ele><time>2026-05-02T14:56:51.91Z</time></trkpt><trkpt lat="42.126113" lon="13.3296895"><ele>1041.7142857142858</ele><time>2026-05-02T14:56:52.91Z</time></trkpt><trkpt lat="42.1261747" lon="13.3297211"><ele>1043.8571428571427</ele><time>2026-05-02T14:56:53.911Z</time></trkpt><trkpt lat="42.1262369" lon="13.3297358"><ele>1046.0</ele><time>2026-05-02T14:56:54.911Z</time></trkpt><trkpt lat="42.126308" lon="13.3297345"><ele>1047.6</ele><time>2026-05-02T14:56:55.911Z</time></trkpt><trkpt lat="42.1263794" lon="13.3297283"><ele>1049.1999999999998</ele><time>2026-05-02T14:56:56.909Z</time></trkpt><trkpt lat="42.1264486" lon="13.3297288"><ele>1050.8000000000002</ele><time>2026-05-02T14:56:57.91Z</time></trkpt><trkpt lat="42.1265692" lon="13.3297323"><ele>1052.4</ele><time>2026-05-02T14:56:59.909Z</time></trkpt><trkpt lat="42.1266923" lon="13.3297508"><ele>1054.0</ele><time>2026-05-02T14:57:01.911Z</time></trkpt><trkpt lat="42.1267648" lon="13.3297663"><ele>1055.6666666666665</ele><time>2026-05-02T14:57:02.91Z</time></trkpt><trkpt lat="42.1268424" lon="13.3297818"><ele>1057.3333333333333</ele><time>2026-05-02T14:57:03.91Z</time></trkpt><trkpt lat="42.1269223" lon="13.3298051"><ele>1059.0</ele><time>2026-05-02T14:57:04.91Z</time></trkpt><trkpt lat="42.1270022" lon="13.3298345"><ele>1060.6666666666667</ele><time>2026-05-02T14:57:05.909Z</time></trkpt><trkpt lat="42.1270852" lon="13.3298693"><ele>1062.3333333333335</ele><time>2026-05-02T14:57:06.909Z</time></trkpt><trkpt lat="42.1271735" lon="13.3299084"><ele>1064.0</ele><time>2026-05-02T14:57:07.911Z</time></trkpt><trkpt lat="42.1272657" lon="13.3299479"><ele>1064.0</ele><time>2026-05-02T14:57:08.911Z</time></trkpt><trkpt lat="42.1273568" lon="13.3299936"><ele>1064.0</ele><time>2026-05-02T14:57:09.91Z</time></trkpt><trkpt lat="42.1274419" lon="13.330044"><ele>1064.0</ele><time>2026-05-02T14:57:10.91Z</time></trkpt><trkpt lat="42.1275127" lon="13.3300851"><ele>1064.0</ele><time>2026-05-02T14:57:11.909Z</time></trkpt><trkpt lat="42.1276067" lon="13.3301483"><ele>1064.0</ele><time>2026-05-02T14:57:13.912Z</time></trkpt><trkpt lat="42.1276899" lon="13.3301923"><ele>1065.3333333333335</ele><time>2026-05-02T14:57:15.91Z</time></trkpt><trkpt lat="42.1277552" lon="13.3302124"><ele>1066.6666666666667</ele><time>2026-05-02T14:57:18.911Z</time></trkpt><trkpt lat="42.127827" lon="13.3301979"><ele>1068.0</ele><time>2026-05-02T15:17:34.908Z</time></trkpt><trkpt lat="42.127909" lon="13.330185"><ele>1069.3333333333333</ele><time>2026-05-02T15:17:36.906Z</time></trkpt><trkpt lat="42.1279888" lon="13.3301691"><ele>1070.6666666666665</ele><time>2026-05-02T15:17:38.907Z</time></trkpt><trkpt lat="42.128078" lon="13.3301333"><ele>1072.0</ele><time>2026-05-02T15:17:40.907Z</time></trkpt><trkpt lat="42.1281819" lon="13.3300841"><ele>1071.0</ele><time>2026-05-02T15:17:42.907Z</time></trkpt><trkpt lat="42.1282855" lon="13.3300272"><ele>1070.0</ele><time>2026-05-02T15:17:44.909Z</time></trkpt><trkpt lat="42.1284087" lon="13.3299671"><ele>1069.0</ele><time>2026-05-02T15:17:46.907Z</time></trkpt><trkpt lat="42.1284959" lon="13.3299211"><ele>1068.0</ele><time>2026-05-02T15:17:47.908Z</time></trkpt><trkpt lat="42.1286012" lon="13.3298607"><ele>1068.0</ele><time>2026-05-02T15:17:48.907Z</time></trkpt><trkpt lat="42.1286901" lon="13.3298037"><ele>1068.0</ele><time>2026-05-02T15:17:49.907Z</time></trkpt><trkpt lat="42.1287718" lon="13.3297492"><ele>1068.0</ele><time>2026-05-02T15:17:50.909Z</time></trkpt><trkpt lat="42.1288499" lon="13.3296922"><ele>1068.0</ele><time>2026-05-02T15:17:51.907Z</time></trkpt><trkpt lat="42.1289243" lon="13.3296367"><ele>1068.0</ele><time>2026-05-02T15:17:52.908Z</time></trkpt><trkpt lat="42.1290025" lon="13.3295833"><ele>1067.0</ele><time>2026-05-02T15:17:53.908Z</time></trkpt><trkpt lat="42.1290833" lon="13.3295253"><ele>1066.0</ele><time>2026-05-02T15:17:54.906Z</time></trkpt><trkpt lat="42.1291758" lon="13.3294641"><ele>1065.0</ele><time>2026-05-02T15:17:55.907Z</time></trkpt><trkpt lat="42.1292819" lon="13.3293847"><ele>1064.0</ele><time>2026-05-02T15:17:56.909Z</time></trkpt><trkpt lat="42.1293943" lon="13.3292781"><ele>1064.0</ele><time>2026-05-02T15:17:57.907Z</time></trkpt><trkpt lat="42.1295141" lon="13.32915"><ele>1064.0</ele><time>2026-05-02T15:17:58.907Z</time></trkpt><trkpt lat="42.1296284" lon="13.3290091"><ele>1064.0</ele><time>2026-05-02T15:17:59.908Z</time></trkpt><trkpt lat="42.1297415" lon="13.3288535"><ele>1063.5</ele><time>2026-05-02T15:18:00.908Z</time></trkpt><trkpt lat="42.1298437" lon="13.3286885"><ele>1063.0</ele><time>2026-05-02T15:18:01.909Z</time></trkpt><trkpt lat="42.1299329" lon="13.3285397"><ele>1062.5</ele><time>2026-05-02T15:18:02.908Z</time></trkpt><trkpt lat="42.1300235" lon="13.3284151"><ele>1062.0</ele><time>2026-05-02T15:18:03.908Z</time></trkpt><trkpt lat="42.1301157" lon="13.3283188"><ele>1062.0</ele><time>2026-05-02T15:18:04.908Z</time></trkpt><trkpt lat="42.130222" lon="13.3282407"><ele>1062.0</ele><time>2026-05-02T15:18:05.908Z</time></trkpt><trkpt lat="42.1303312" lon="13.3281641"><ele>1062.0</ele><time>2026-05-02T15:18:06.908Z</time></trkpt><trkpt lat="42.1304393" lon="13.3280927"><ele>1062.0</ele><time>2026-05-02T15:18:07.907Z</time></trkpt><trkpt lat="42.1305438" lon="13.3280352"><ele>1062.0</ele><time>2026-05-02T15:18:08.908Z</time></trkpt><trkpt lat="42.1306441" lon="13.3280117"><ele>1062.0</ele><time>2026-05-02T15:18:09.908Z</time></trkpt><trkpt lat="42.130743" lon="13.3279975"><ele>1062.0</ele><time>2026-05-02T15:18:10.908Z</time></trkpt><trkpt lat="42.1308239" lon="13.3279988"><ele>1062.0</ele><time>2026-05-02T15:18:11.908Z</time></trkpt><trkpt lat="42.1308991" lon="13.328002"><ele>1062.0</ele><time>2026-05-02T15:18:12.907Z</time></trkpt><trkpt lat="42.1310012" lon="13.3279878"><ele>1062.0</ele><time>2026-05-02T15:18:14.907Z</time></trkpt><trkpt lat="42.1310704" lon="13.3279681"><ele>1062.0</ele><time>2026-05-02T15:18:16.908Z</time></trkpt><trkpt lat="42.1310658" lon="13.3278651"><ele>1062.0</ele><time>2026-05-02T15:18:20.909Z</time></trkpt><trkpt lat="42.130976" lon="13.327878"><ele>1062.0</ele><time>2026-05-02T15:18:22.908Z</time></trkpt><trkpt lat="42.1308726" lon="13.3279448"><ele>1062.0</ele><time>2026-05-02T15:18:24.907Z</time></trkpt><trkpt lat="42.1307864" lon="13.3279835"><ele>1062.0</ele><time>2026-05-02T15:18:26.908Z</time></trkpt><trkpt lat="42.1306719" lon="13.3280005"><ele>1062.0</ele><time>2026-05-02T15:18:28.907Z</time></trkpt><trkpt lat="42.1305865" lon="13.3280251"><ele>1062.0</ele><time>2026-05-02T15:18:29.909Z</time></trkpt><trkpt lat="42.1305011" lon="13.3280648"><ele>1062.0</ele><time>2026-05-02T15:18:30.907Z</time></trkpt><trkpt lat="42.1304038" lon="13.3281313"><ele>1062.0</ele><time>2026-05-02T15:18:31.907Z</time></trkpt><trkpt lat="42.1303162" lon="13.3281933"><ele>1062.0</ele><time>2026-05-02T15:18:32.906Z</time></trkpt><trkpt lat="42.1302389" lon="13.3282464"><ele>1062.0</ele><time>2026-05-02T15:18:33.907Z</time></trkpt><trkpt lat="42.1301702" lon="13.3282989"><ele>1062.0</ele><time>2026-05-02T15:18:34.907Z</time></trkpt><trkpt lat="42.1300969" lon="13.3283508"><ele>1062.0</ele><time>2026-05-02T15:18:35.908Z</time></trkpt><trkpt lat="42.130035" lon="13.3284054"><ele>1062.0</ele><time>2026-05-02T15:18:36.908Z</time></trkpt><trkpt lat="42.1301059" lon="13.3283735"><ele>1062.0</ele><time>2026-05-02T15:18:44.907Z</time></trkpt><trkpt lat="42.1301494" lon="13.3282538"><ele>1062.0</ele><time>2026-05-02T15:18:46.908Z</time></trkpt><trkpt lat="42.1301854" lon="13.3281618"><ele>1062.4</ele><time>2026-05-02T15:18:48.907Z</time></trkpt><trkpt lat="42.1302592" lon="13.3280147"><ele>1062.8000000000002</ele><time>2026-05-02T15:18:50.908Z</time></trkpt><trkpt lat="42.1303074" lon="13.327906"><ele>1063.2</ele><time>2026-05-02T15:18:51.907Z</time></trkpt><trkpt lat="42.1303508" lon="13.3277913"><ele>1063.6000000000001</ele><time>2026-05-02T15:18:52.907Z</time></trkpt><trkpt lat="42.1303852" lon="13.3276477"><ele>1064.0</ele><time>2026-05-02T15:18:53.908Z</time></trkpt><trkpt lat="42.1304074" lon="13.3274775"><ele>1064.0</ele><time>2026-05-02T15:18:54.907Z</time></trkpt><trkpt lat="42.1304182" lon="13.3272955"><ele>1064.0</ele><time>2026-05-02T15:18:55.907Z</time></trkpt><trkpt lat="42.1304282" lon="13.3271084"><ele>1064.0</ele><time>2026-05-02T15:18:56.906Z</time></trkpt><trkpt lat="42.1304572" lon="13.3268977"><ele>1064.0</ele><time>2026-05-02T15:18:57.907Z</time></trkpt><trkpt lat="42.130489" lon="13.3266889"><ele>1065.5</ele><time>2026-05-02T15:18:58.907Z</time></trkpt><trkpt lat="42.1305223" lon="13.3264842"><ele>1067.0</ele><time>2026-05-02T15:18:59.906Z</time></trkpt><trkpt lat="42.1305431" lon="13.3262957"><ele>1068.5</ele><time>2026-05-02T15:19:00.907Z</time></trkpt><trkpt lat="42.1305593" lon="13.3261173"><ele>1070.0</ele><time>2026-05-02T15:19:01.907Z</time></trkpt><trkpt lat="42.1305676" lon="13.3259378"><ele>1072.25</ele><time>2026-05-02T15:19:02.907Z</time></trkpt><trkpt lat="42.1305622" lon="13.3257506"><ele>1074.5</ele><time>2026-05-02T15:19:03.906Z</time></trkpt><trkpt lat="42.1305623" lon="13.3255795"><ele>1076.75</ele><time>2026-05-02T15:19:04.907Z</time></trkpt><trkpt lat="42.1305846" lon="13.3254437"><ele>1079.0</ele><time>2026-05-02T15:19:05.906Z</time></trkpt><trkpt lat="42.1305942" lon="13.3253146"><ele>1079.8333333333335</ele><time>2026-05-02T15:19:06.909Z</time></trkpt><trkpt lat="42.1305948" lon="13.3252024"><ele>1080.6666666666667</ele><time>2026-05-02T15:19:07.908Z</time></trkpt><trkpt lat="42.1305824" lon="13.3250853"><ele>1081.5</ele><time>2026-05-02T15:19:08.907Z</time></trkpt><trkpt lat="42.1305662" lon="13.3249625"><ele>1082.3333333333333</ele><time>2026-05-02T15:19:09.908Z</time></trkpt><trkpt lat="42.1305417" lon="13.3248607"><ele>1083.1666666666665</ele><time>2026-05-02T15:19:10.909Z</time></trkpt><trkpt lat="42.1305322" lon="13.3247437"><ele>1084.0</ele><time>2026-05-02T15:19:11.907Z</time></trkpt><trkpt lat="42.1305488" lon="13.3246314"><ele>1084.0</ele><time>2026-05-02T15:19:12.908Z</time></trkpt><trkpt lat="42.1305686" lon="13.3245389"><ele>1084.0</ele><time>2026-05-02T15:19:13.907Z</time></trkpt><trkpt lat="42.1306101" lon="13.3244652"><ele>1084.0</ele><time>2026-05-02T15:19:14.907Z</time></trkpt><trkpt lat="42.1306634" lon="13.3244061"><ele>1084.0</ele><time>2026-05-02T15:19:15.906Z</time></trkpt><trkpt lat="42.1307247" lon="13.3242836"><ele>1084.0</ele><time>2026-05-02T15:19:17.907Z</time></trkpt><trkpt lat="42.1307346" lon="13.324089"><ele>1084.0</ele><time>2026-05-02T15:19:19.906Z</time></trkpt><trkpt lat="42.1307164" lon="13.3239477"><ele>1084.0</ele><time>2026-05-02T15:19:20.906Z</time></trkpt><trkpt lat="42.1307053" lon="13.32383"><ele>1084.0</ele><time>2026-05-02T15:19:21.907Z</time></trkpt><trkpt lat="42.1307049" lon="13.3237175"><ele>1084.0</ele><time>2026-05-02T15:19:22.907Z</time></trkpt><trkpt lat="42.1307212" lon="13.3235799"><ele>1084.0</ele><time>2026-05-02T15:19:23.908Z</time></trkpt><trkpt lat="42.1307445" lon="13.3234278"><ele>1082.25</ele><time>2026-05-02T15:19:24.907Z</time></trkpt><trkpt lat="42.130779" lon="13.3232585"><ele>1080.5</ele><time>2026-05-02T15:19:25.908Z</time></trkpt><trkpt lat="42.1308132" lon="13.3230856"><ele>1078.75</ele><time>2026-05-02T15:19:26.907Z</time></trkpt><trkpt lat="42.1308461" lon="13.3229259"><ele>1077.0</ele><time>2026-05-02T15:19:27.906Z</time></trkpt><trkpt lat="42.1308734" lon="13.3227897"><ele>1077.0</ele><time>2026-05-02T15:19:28.906Z</time></trkpt><trkpt lat="42.1308996" lon="13.3226549"><ele>1077.0</ele><time>2026-05-02T15:19:29.907Z</time></trkpt><trkpt lat="42.1309251" lon="13.3225269"><ele>1077.0</ele><time>2026-05-02T15:19:30.906Z</time></trkpt><trkpt lat="42.1309395" lon="13.322407"><ele>1077.0</ele><time>2026-05-02T15:19:31.907Z</time></trkpt><trkpt lat="42.1309502" lon="13.3222858"><ele>1077.0</ele><time>2026-05-02T15:19:32.907Z</time></trkpt><trkpt lat="42.1309484" lon="13.3221563"><ele>1077.0</ele><time>2026-05-02T15:19:33.908Z</time></trkpt><trkpt lat="42.1309398" lon="13.3220308"><ele>1077.0</ele><time>2026-05-02T15:19:34.906Z</time></trkpt><trkpt lat="42.130926" lon="13.3218986"><ele>1077.0</ele><time>2026-05-02T15:19:35.907Z</time></trkpt><trkpt lat="42.1309145" lon="13.3217578"><ele>1077.0</ele><time>2026-05-02T15:19:36.906Z</time></trkpt><trkpt lat="42.1309045" lon="13.3216103"><ele>1077.0</ele><time>2026-05-02T15:19:37.908Z</time></trkpt><trkpt lat="42.1308972" lon="13.3214621"><ele>1076.2</ele><time>2026-05-02T15:19:38.908Z</time></trkpt><trkpt lat="42.1308926" lon="13.3212918"><ele>1075.4</ele><time>2026-05-02T15:19:39.908Z</time></trkpt><trkpt lat="42.1308841" lon="13.3211257"><ele>1074.6</ele><time>2026-05-02T15:19:40.907Z</time></trkpt><trkpt lat="42.1308794" lon="13.3209846"><ele>1073.8</ele><time>2026-05-02T15:19:41.907Z</time></trkpt><trkpt lat="42.130878" lon="13.3208829"><ele>1073.0</ele><time>2026-05-02T15:19:42.906Z</time></trkpt><trkpt lat="42.1308849" lon="13.3207608"><ele>1073.0</ele><time>2026-05-02T15:19:44.907Z</time></trkpt><trkpt lat="42.1308216" lon="13.3207933"><ele>1073.0</ele><time>2026-05-02T15:19:51.908Z</time></trkpt><trkpt lat="42.1308648" lon="13.3209573"><ele>1073.0</ele><time>2026-05-02T15:19:53.907Z</time></trkpt><trkpt lat="42.1309041" lon="13.3210379"><ele>1073.0</ele><time>2026-05-02T15:19:55.907Z</time></trkpt><trkpt lat="42.1309094" lon="13.3209516"><ele>1073.0</ele><time>2026-05-02T15:20:53.908Z</time></trkpt><trkpt lat="42.1308886" lon="13.3207979"><ele>1073.0</ele><time>2026-05-02T15:20:55.906Z</time></trkpt><trkpt lat="42.130877" lon="13.320684"><ele>1073.3333333333335</ele><time>2026-05-02T15:20:56.908Z</time></trkpt><trkpt lat="42.1308691" lon="13.3205499"><ele>1073.6666666666667</ele><time>2026-05-02T15:20:57.908Z</time></trkpt><trkpt lat="42.1308707" lon="13.3204332"><ele>1074.0</ele><time>2026-05-02T15:20:58.907Z</time></trkpt><trkpt lat="42.1308832" lon="13.320337"><ele>1074.3333333333333</ele><time>2026-05-02T15:20:59.906Z</time></trkpt><trkpt lat="42.1309094" lon="13.3202588"><ele>1074.6666666666665</ele><time>2026-05-02T15:21:00.907Z</time></trkpt><trkpt lat="42.1309697" lon="13.3201266"><ele>1075.0</ele><time>2026-05-02T15:21:02.907Z</time></trkpt><trkpt lat="42.130974" lon="13.3200337"><ele>1075.0</ele><time>2026-05-02T15:21:04.907Z</time></trkpt><trkpt lat="42.1309567" lon="13.3199268"><ele>1075.0</ele><time>2026-05-02T15:21:06.907Z</time></trkpt><trkpt lat="42.130982" lon="13.3198309"><ele>1075.0</ele><time>2026-05-02T15:21:07.907Z</time></trkpt><trkpt lat="42.1309994" lon="13.3197387"><ele>1075.0</ele><time>2026-05-02T15:21:08.907Z</time></trkpt><trkpt lat="42.1310482" lon="13.3195841"><ele>1075.0</ele><time>2026-05-02T15:21:10.907Z</time></trkpt><trkpt lat="42.1310928" lon="13.3194544"><ele>1075.4</ele><time>2026-05-02T15:21:12.908Z</time></trkpt><trkpt lat="42.1311482" lon="13.3193557"><ele>1075.8</ele><time>2026-05-02T15:21:14.908Z</time></trkpt><trkpt lat="42.1312278" lon="13.3192105"><ele>1076.2</ele><time>2026-05-02T15:21:16.907Z</time></trkpt><trkpt lat="42.1312775" lon="13.3191188"><ele>1076.6</ele><time>2026-05-02T15:21:17.907Z</time></trkpt><trkpt lat="42.1313141" lon="13.3189857"><ele>1077.0</ele><time>2026-05-02T15:21:18.906Z</time></trkpt><trkpt lat="42.1313537" lon="13.3188641"><ele>1076.0</ele><time>2026-05-02T15:21:19.906Z</time></trkpt><trkpt lat="42.1313933" lon="13.3187421"><ele>1075.0</ele><time>2026-05-02T15:21:20.907Z</time></trkpt><trkpt lat="42.1314057" lon="13.3186294"><ele>1074.0</ele><time>2026-05-02T15:21:21.908Z</time></trkpt><trkpt lat="42.1314367" lon="13.3185348"><ele>1073.0</ele><time>2026-05-02T15:21:22.907Z</time></trkpt><trkpt lat="42.131467" lon="13.3184423"><ele>1072.0</ele><time>2026-05-02T15:21:23.906Z</time></trkpt><trkpt lat="42.1315119" lon="13.3183662"><ele>1071.0</ele><time>2026-05-02T15:21:24.907Z</time></trkpt><trkpt lat="42.1315641" lon="13.3183161"><ele>1069.5</ele><time>2026-05-02T15:21:25.906Z</time></trkpt><trkpt lat="42.1316398" lon="13.3182413"><ele>1068.0</ele><time>2026-05-02T15:21:26.907Z</time></trkpt><trkpt lat="42.1317165" lon="13.3181598"><ele>1066.5</ele><time>2026-05-02T15:21:27.907Z</time></trkpt><trkpt lat="42.1317829" lon="13.3180735"><ele>1065.0</ele><time>2026-05-02T15:21:28.907Z</time></trkpt><trkpt lat="42.131838" lon="13.3179908"><ele>1063.5</ele><time>2026-05-02T15:21:29.907Z</time></trkpt><trkpt lat="42.1318768" lon="13.3179087"><ele>1062.0</ele><time>2026-05-02T15:21:30.907Z</time></trkpt><trkpt lat="42.1319014" lon="13.3177983"><ele>1061.0</ele><time>2026-05-02T15:21:31.906Z</time></trkpt><trkpt lat="42.1319233" lon="13.317693"><ele>1060.0</ele><time>2026-05-02T15:21:32.906Z</time></trkpt><trkpt lat="42.1319512" lon="13.3176106"><ele>1059.0</ele><time>2026-05-02T15:21:33.907Z</time></trkpt><trkpt lat="42.1319923" lon="13.3175109"><ele>1058.0</ele><time>2026-05-02T15:21:34.907Z</time></trkpt><trkpt lat="42.1320408" lon="13.3174007"><ele>1057.0</ele><time>2026-05-02T15:21:35.907Z</time></trkpt><trkpt lat="42.1321028" lon="13.317289"><ele>1056.0</ele><time>2026-05-02T15:21:36.907Z</time></trkpt><trkpt lat="42.1321695" lon="13.3171755"><ele>1055.6</ele><time>2026-05-02T15:21:37.907Z</time></trkpt><trkpt lat="42.1322278" lon="13.3170689"><ele>1055.1999999999998</ele><time>2026-05-02T15:21:38.906Z</time></trkpt><trkpt lat="42.1322927" lon="13.3169773"><ele>1054.8000000000002</ele><time>2026-05-02T15:21:39.908Z</time></trkpt><trkpt lat="42.1323661" lon="13.3168733"><ele>1054.4</ele><time>2026-05-02T15:21:40.908Z</time></trkpt><trkpt lat="42.1324484" lon="13.3167816"><ele>1054.0</ele><time>2026-05-02T15:21:41.908Z</time></trkpt><trkpt lat="42.132533" lon="13.316671"><ele>1054.0</ele><time>2026-05-02T15:21:42.907Z</time></trkpt><trkpt lat="42.1326269" lon="13.3165426"><ele>1054.0</ele><time>2026-05-02T15:21:43.908Z</time></trkpt><trkpt lat="42.1327145" lon="13.3164128"><ele>1054.0</ele><time>2026-05-02T15:21:44.908Z</time></trkpt><trkpt lat="42.1327932" lon="13.3163013"><ele>1054.0</ele><time>2026-05-02T15:21:45.908Z</time></trkpt><trkpt lat="42.1328671" lon="13.3161883"><ele>1053.3333333333333</ele><time>2026-05-02T15:21:46.907Z</time></trkpt><trkpt lat="42.1329314" lon="13.3160934"><ele>1052.6666666666665</ele><time>2026-05-02T15:21:47.908Z</time></trkpt><trkpt lat="42.1329857" lon="13.316014"><ele>1052.0</ele><time>2026-05-02T15:21:48.908Z</time></trkpt><trkpt lat="42.1330233" lon="13.3159361"><ele>1051.3333333333333</ele><time>2026-05-02T15:21:49.906Z</time></trkpt><trkpt lat="42.1330388" lon="13.3158484"><ele>1050.6666666666667</ele><time>2026-05-02T15:21:50.907Z</time></trkpt><trkpt lat="42.133042" lon="13.3157528"><ele>1050.0</ele><time>2026-05-02T15:21:51.908Z</time></trkpt><trkpt lat="42.1330551" lon="13.3156584"><ele>1049.6666666666667</ele><time>2026-05-02T15:21:52.907Z</time></trkpt><trkpt lat="42.1330985" lon="13.3155654"><ele>1049.3333333333333</ele><time>2026-05-02T15:21:53.907Z</time></trkpt><trkpt lat="42.133154" lon="13.3154743"><ele>1049.0</ele><time>2026-05-02T15:21:54.908Z</time></trkpt><trkpt lat="42.1332107" lon="13.3153862"><ele>1048.6666666666665</ele><time>2026-05-02T15:21:55.907Z</time></trkpt><trkpt lat="42.1332781" lon="13.3153046"><ele>1048.3333333333333</ele><time>2026-05-02T15:21:56.908Z</time></trkpt><trkpt lat="42.13334" lon="13.3152339"><ele>1048.0</ele><time>2026-05-02T15:21:57.908Z</time></trkpt><trkpt lat="42.1334073" lon="13.3151786"><ele>1048.1666666666665</ele><time>2026-05-02T15:21:58.907Z</time></trkpt><trkpt lat="42.1334714" lon="13.3151334"><ele>1048.3333333333333</ele><time>2026-05-02T15:21:59.908Z</time></trkpt><trkpt lat="42.133528" lon="13.315086"><ele>1048.5</ele><time>2026-05-02T15:22:00.907Z</time></trkpt><trkpt lat="42.1335863" lon="13.3150015"><ele>1048.6666666666667</ele><time>2026-05-02T15:22:01.906Z</time></trkpt><trkpt lat="42.1336327" lon="13.3148824"><ele>1048.8333333333335</ele><time>2026-05-02T15:22:02.908Z</time></trkpt><trkpt lat="42.1336726" lon="13.3147757"><ele>1049.0</ele><time>2026-05-02T15:22:03.908Z</time></trkpt><trkpt lat="42.1336996" lon="13.3146959"><ele>1049.0</ele><time>2026-05-02T15:22:04.907Z</time></trkpt><trkpt lat="42.133716" lon="13.3145966"><ele>1049.0</ele><time>2026-05-02T15:22:06.908Z</time></trkpt><trkpt lat="42.1336658" lon="13.3146495"><ele>1049.0</ele><time>2026-05-02T15:22:09.907Z</time></trkpt><trkpt lat="42.1336633" lon="13.314767"><ele>1049.0</ele><time>2026-05-02T15:22:11.906Z</time></trkpt><trkpt lat="42.1336432" lon="13.3149291"><ele>1049.0</ele><time>2026-05-02T15:22:13.907Z</time></trkpt><trkpt lat="42.1336229" lon="13.3150123"><ele>1049.0</ele><time>2026-05-02T15:22:14.906Z</time></trkpt><trkpt lat="42.13357" lon="13.3150653"><ele>1048.8333333333335</ele><time>2026-05-02T15:22:15.906Z</time></trkpt><trkpt lat="42.13346" lon="13.3151533"><ele>1048.6666666666667</ele><time>2026-05-02T15:22:17.907Z</time></trkpt><trkpt lat="42.1333958" lon="13.3152025"><ele>1048.5</ele><time>2026-05-02T15:22:18.908Z</time></trkpt><trkpt lat="42.1333334" lon="13.3152578"><ele>1048.3333333333333</ele><time>2026-05-02T15:22:19.908Z</time></trkpt><trkpt lat="42.133279" lon="13.3153275"><ele>1048.1666666666665</ele><time>2026-05-02T15:22:20.906Z</time></trkpt><trkpt lat="42.133219" lon="13.3154215"><ele>1048.0</ele><time>2026-05-02T15:22:22.908Z</time></trkpt><trkpt lat="42.1331438" lon="13.3155279"><ele>1048.0</ele><time>2026-05-02T15:22:25.907Z</time></trkpt><trkpt lat="42.133089" lon="13.3156239"><ele>1048.0</ele><time>2026-05-02T15:22:27.907Z</time></trkpt><trkpt lat="42.1330225" lon="13.3155936"><ele>1048.0</ele><time>2026-05-02T15:22:30.908Z</time></trkpt><trkpt lat="42.1329239" lon="13.3155261"><ele>1048.0</ele><time>2026-05-02T15:22:33.908Z</time></trkpt><trkpt lat="42.1328011" lon="13.315457"><ele>1048.0</ele><time>2026-05-02T15:22:35.906Z</time></trkpt><trkpt lat="42.1327443" lon="13.3153937"><ele>1048.0</ele><time>2026-05-02T15:22:36.906Z</time></trkpt><trkpt lat="42.1326784" lon="13.3152941"><ele>1048.0</ele><time>2026-05-02T15:22:37.907Z</time></trkpt><trkpt lat="42.1326167" lon="13.3151785"><ele>1048.0</ele><time>2026-05-02T15:22:38.907Z</time></trkpt><trkpt lat="42.1325649" lon="13.3150539"><ele>1048.0</ele><time>2026-05-02T15:22:39.907Z</time></trkpt><trkpt lat="42.1325227" lon="13.3149237"><ele>1048.0</ele><time>2026-05-02T15:22:40.908Z</time></trkpt><trkpt lat="42.1324919" lon="13.3148052"><ele>1048.0</ele><time>2026-05-02T15:22:41.906Z</time></trkpt><trkpt lat="42.1324565" lon="13.3147009"><ele>1048.0</ele><time>2026-05-02T15:22:42.908Z</time></trkpt><trkpt lat="42.1324069" lon="13.3145914"><ele>1048.0</ele><time>2026-05-02T15:22:43.907Z</time></trkpt><trkpt lat="42.1323361" lon="13.3144951"><ele>1048.0</ele><time>2026-05-02T15:22:44.908Z</time></trkpt><trkpt lat="42.1322459" lon="13.3143923"><ele>1048.0</ele><time>2026-05-02T15:22:45.906Z</time></trkpt><trkpt lat="42.1321588" lon="13.3142865"><ele>1048.2</ele><time>2026-05-02T15:22:46.907Z</time></trkpt><trkpt lat="42.132075" lon="13.3141833"><ele>1048.4</ele><time>2026-05-02T15:22:47.907Z</time></trkpt><trkpt lat="42.1319964" lon="13.3140788"><ele>1048.6000000000001</ele><time>2026-05-02T15:22:48.908Z</time></trkpt><trkpt lat="42.1319342" lon="13.3139872"><ele>1048.8</ele><time>2026-05-02T15:22:49.907Z</time></trkpt><trkpt lat="42.131884" lon="13.3139064"><ele>1049.0</ele><time>2026-05-02T15:22:50.908Z</time></trkpt><trkpt lat="42.1318561" lon="13.3138222"><ele>1049.6000000000001</ele><time>2026-05-02T15:22:51.907Z</time></trkpt><trkpt lat="42.131841" lon="13.3137136"><ele>1050.2</ele><time>2026-05-02T15:22:52.907Z</time></trkpt><trkpt lat="42.1318323" lon="13.3135818"><ele>1050.8000000000002</ele><time>2026-05-02T15:22:53.907Z</time></trkpt><trkpt lat="42.1318319" lon="13.3134276"><ele>1051.4</ele><time>2026-05-02T15:22:54.908Z</time></trkpt><trkpt lat="42.13183" lon="13.3132748"><ele>1052.0</ele><time>2026-05-02T15:22:55.907Z</time></trkpt><trkpt lat="42.1318307" lon="13.313121"><ele>1052.6</ele><time>2026-05-02T15:22:56.907Z</time></trkpt><trkpt lat="42.1318377" lon="13.3129708"><ele>1053.2</ele><time>2026-05-02T15:22:57.907Z</time></trkpt><trkpt lat="42.1318626" lon="13.3128268"><ele>1053.8</ele><time>2026-05-02T15:22:58.907Z</time></trkpt><trkpt lat="42.1318905" lon="13.3126954"><ele>1054.4</ele><time>2026-05-02T15:22:59.907Z</time></trkpt><trkpt lat="42.1319341" lon="13.3125895"><ele>1055.0</ele><time>2026-05-02T15:23:00.907Z</time></trkpt><trkpt lat="42.1320003" lon="13.3124917"><ele>1055.0</ele><time>2026-05-02T15:23:01.907Z</time></trkpt><trkpt lat="42.132068" lon="13.3124101"><ele>1055.0</ele><time>2026-05-02T15:23:02.907Z</time></trkpt><trkpt lat="42.1321227" lon="13.312332"><ele>1055.0</ele><time>2026-05-02T15:23:03.907Z</time></trkpt><trkpt lat="42.1321663" lon="13.3122528"><ele>1055.0</ele><time>2026-05-02T15:23:04.907Z</time></trkpt><trkpt lat="42.1322198" lon="13.3121042"><ele>1055.0</ele><time>2026-05-02T15:23:06.907Z</time></trkpt><trkpt lat="42.1323067" lon="13.311987"><ele>1056.6666666666667</ele><time>2026-05-02T15:23:08.907Z</time></trkpt><trkpt lat="42.1323596" lon="13.3118947"><ele>1058.3333333333335</ele><time>2026-05-02T15:23:10.907Z</time></trkpt><trkpt lat="42.132418" lon="13.3117718"><ele>1060.0</ele><time>2026-05-02T15:23:12.907Z</time></trkpt><trkpt lat="42.1324803" lon="13.3117175"><ele>1061.6666666666667</ele><time>2026-05-02T15:23:13.908Z</time></trkpt><trkpt lat="42.1325471" lon="13.3116671"><ele>1063.3333333333333</ele><time>2026-05-02T15:23:14.907Z</time></trkpt><trkpt lat="42.1326079" lon="13.3116332"><ele>1065.0</ele><time>2026-05-02T15:23:15.906Z</time></trkpt><trkpt lat="42.1326653" lon="13.3115933"><ele>1062.3333333333333</ele><time>2026-05-02T15:23:16.907Z</time></trkpt><trkpt lat="42.1327156" lon="13.3115381"><ele>1059.6666666666667</ele><time>2026-05-02T15:23:17.907Z</time></trkpt><trkpt lat="42.132782" lon="13.3114443"><ele>1057.0</ele><time>2026-05-02T15:23:19.908Z</time></trkpt><trkpt lat="42.1328329" lon="13.3113215"><ele>1054.3333333333335</ele><time>2026-05-02T15:23:21.908Z</time></trkpt><trkpt lat="42.1329154" lon="13.3112393"><ele>1051.6666666666667</ele><time>2026-05-02T15:23:23.907Z</time></trkpt><trkpt lat="42.1329746" lon="13.3112048"><ele>1049.0</ele><time>2026-05-02T15:23:24.907Z</time></trkpt><trkpt lat="42.1330446" lon="13.3111742"><ele>1049.0</ele><time>2026-05-02T15:23:25.907Z</time></trkpt><trkpt lat="42.1331085" lon="13.3111519"><ele>1049.0</ele><time>2026-05-02T15:23:26.907Z</time></trkpt><trkpt lat="42.1332034" lon="13.3111201"><ele>1049.0</ele><time>2026-05-02T15:23:28.907Z</time></trkpt><trkpt lat="42.1332305" lon="13.3110364"><ele>1049.0</ele><time>2026-05-02T15:23:30.907Z</time></trkpt><trkpt lat="42.1332421" lon="13.3109245"><ele>1049.0</ele><time>2026-05-02T15:23:32.907Z</time></trkpt><trkpt lat="42.1332784" lon="13.310811"><ele>1049.0</ele><time>2026-05-02T15:23:34.907Z</time></trkpt><trkpt lat="42.1333225" lon="13.3107111"><ele>1047.0</ele><time>2026-05-02T15:23:36.908Z</time></trkpt><trkpt lat="42.1333838" lon="13.3106476"><ele>1045.0</ele><time>2026-05-02T15:23:38.906Z</time></trkpt><trkpt lat="42.1334709" lon="13.3105424"><ele>1043.0</ele><time>2026-05-02T15:23:40.907Z</time></trkpt><trkpt lat="42.1335508" lon="13.31045"><ele>1041.0</ele><time>2026-05-02T15:23:42.907Z</time></trkpt><trkpt lat="42.1336139" lon="13.3103884"><ele>1039.0</ele><time>2026-05-02T15:23:44.908Z</time></trkpt><trkpt lat="42.1336674" lon="13.3103051"><ele>1039.0</ele><time>2026-05-02T15:23:46.906Z</time></trkpt><trkpt lat="42.1337169" lon="13.3101876"><ele>1039.0</ele><time>2026-05-02T15:23:49.906Z</time></trkpt><trkpt lat="42.1337562" lon="13.3100996"><ele>1039.0</ele><time>2026-05-02T15:23:51.906Z</time></trkpt><trkpt lat="42.133855" lon="13.3100414"><ele>1039.0</ele><time>2026-05-02T15:23:54.908Z</time></trkpt><trkpt lat="42.133951" lon="13.3100096"><ele>1039.0</ele><time>2026-05-02T15:23:56.908Z</time></trkpt><trkpt lat="42.1340084" lon="13.3099713"><ele>1039.0</ele><time>2026-05-02T15:23:58.907Z</time></trkpt><trkpt lat="42.1340583" lon="13.3098855"><ele>1036.0</ele><time>2026-05-02T15:24:00.906Z</time></trkpt><trkpt lat="42.1341138" lon="13.3097971"><ele>1033.0</ele><time>2026-05-02T15:24:02.907Z</time></trkpt><trkpt lat="42.1341426" lon="13.3097007"><ele>1030.0</ele><time>2026-05-02T15:24:04.907Z</time></trkpt><trkpt lat="42.1341207" lon="13.3096023"><ele>1027.0</ele><time>2026-05-02T15:24:06.907Z</time></trkpt><trkpt lat="42.1341133" lon="13.3095153"><ele>1023.9999999999999</ele><time>2026-05-02T15:24:08.906Z</time></trkpt><trkpt lat="42.1341435" lon="13.3094283"><ele>1021.0</ele><time>2026-05-02T15:24:10.908Z</time></trkpt><trkpt lat="42.1342201" lon="13.309344"><ele>1020.1999999999999</ele><time>2026-05-02T15:24:12.907Z</time></trkpt><trkpt lat="42.1342879" lon="13.3092269"><ele>1019.3999999999999</ele><time>2026-05-02T15:24:14.907Z</time></trkpt><trkpt lat="42.1343487" lon="13.3091098"><ele>1018.6</ele><time>2026-05-02T15:24:16.906Z</time></trkpt><trkpt lat="42.1344059" lon="13.3090157"><ele>1017.8</ele><time>2026-05-02T15:24:18.906Z</time></trkpt><trkpt lat="42.1344828" lon="13.3089336"><ele>1017.0</ele><time>2026-05-02T15:24:20.907Z</time></trkpt><trkpt lat="42.1345808" lon="13.3088196"><ele>1017.0</ele><time>2026-05-02T15:24:22.907Z</time></trkpt><trkpt lat="42.134631" lon="13.3087592"><ele>1017.0</ele><time>2026-05-02T15:24:23.907Z</time></trkpt><trkpt lat="42.1347087" lon="13.3086928"><ele>1017.0</ele><time>2026-05-02T15:24:25.907Z</time></trkpt><trkpt lat="42.1347226" lon="13.30858"><ele>1017.0</ele><time>2026-05-02T15:24:27.907Z</time></trkpt><trkpt lat="42.1347085" lon="13.308411"><ele>1017.0</ele><time>2026-05-02T15:24:29.907Z</time></trkpt><trkpt lat="42.134718" lon="13.3083075"><ele>1017.0</ele><time>2026-05-02T15:24:30.907Z</time></trkpt><trkpt lat="42.1347212" lon="13.3082132"><ele>1017.0</ele><time>2026-05-02T15:24:31.907Z</time></trkpt><trkpt lat="42.1347219" lon="13.3081073"><ele>1017.0</ele><time>2026-05-02T15:24:32.908Z</time></trkpt><trkpt lat="42.134724" lon="13.3080044"><ele>1017.0</ele><time>2026-05-02T15:24:33.907Z</time></trkpt><trkpt lat="42.134738" lon="13.3079147"><ele>1017.0</ele><time>2026-05-02T15:24:34.907Z</time></trkpt><trkpt lat="42.1347693" lon="13.3077707"><ele>1017.0</ele><time>2026-05-02T15:24:36.907Z</time></trkpt><trkpt lat="42.134832" lon="13.3076623"><ele>1017.0</ele><time>2026-05-02T15:24:38.907Z</time></trkpt><trkpt lat="42.1348622" lon="13.3075504"><ele>1015.0</ele><time>2026-05-02T15:24:40.907Z</time></trkpt><trkpt lat="42.1348258" lon="13.3074208"><ele>1013.0</ele><time>2026-05-02T15:24:42.907Z</time></trkpt><trkpt lat="42.1347477" lon="13.3072902"><ele>1011.0</ele><time>2026-05-02T15:24:44.907Z</time></trkpt><trkpt lat="42.1347101" lon="13.3072211"><ele>1009.0</ele><time>2026-05-02T15:24:45.906Z</time></trkpt><trkpt lat="42.1346323" lon="13.307075"><ele>1007.0</ele><time>2026-05-02T15:24:47.906Z</time></trkpt><trkpt lat="42.1345979" lon="13.3069997"><ele>1004.0</ele><time>2026-05-02T15:24:48.906Z</time></trkpt><trkpt lat="42.1345583" lon="13.306859"><ele>1001.0</ele><time>2026-05-02T15:24:50.907Z</time></trkpt><trkpt lat="42.13454" lon="13.3067153"><ele>998.0</ele><time>2026-05-02T15:24:52.907Z</time></trkpt><trkpt lat="42.1345369" lon="13.3065578"><ele>995.0</ele><time>2026-05-02T15:24:54.906Z</time></trkpt><trkpt lat="42.1345371" lon="13.3064713"><ele>992.0</ele><time>2026-05-02T15:24:55.906Z</time></trkpt><trkpt lat="42.1345422" lon="13.3063749"><ele>989.8333333333334</ele><time>2026-05-02T15:24:56.906Z</time></trkpt><trkpt lat="42.1345474" lon="13.3062875"><ele>987.6666666666667</ele><time>2026-05-02T15:24:57.906Z</time></trkpt><trkpt lat="42.1345297" lon="13.3061549"><ele>985.5</ele><time>2026-05-02T15:24:59.907Z</time></trkpt><trkpt lat="42.1344697" lon="13.3060763"><ele>983.3333333333333</ele><time>2026-05-02T15:25:01.906Z</time></trkpt><trkpt lat="42.1344224" lon="13.3059609"><ele>981.1666666666666</ele><time>2026-05-02T15:25:03.908Z</time></trkpt><trkpt lat="42.134416" lon="13.3058547"><ele>979.0</ele><time>2026-05-02T15:25:04.906Z</time></trkpt><trkpt lat="42.1344057" lon="13.3057398"><ele>979.0</ele><time>2026-05-02T15:25:05.908Z</time></trkpt><trkpt lat="42.1343923" lon="13.3056109"><ele>979.0000000000001</ele><time>2026-05-02T15:25:06.906Z</time></trkpt><trkpt lat="42.1343763" lon="13.305493"><ele>979.0000000000001</ele><time>2026-05-02T15:25:07.907Z</time></trkpt><trkpt lat="42.134369" lon="13.3053729"><ele>979.0</ele><time>2026-05-02T15:25:08.907Z</time></trkpt><trkpt lat="42.1343523" lon="13.305256"><ele>979.0</ele><time>2026-05-02T15:25:09.907Z</time></trkpt><trkpt lat="42.134334" lon="13.305135"><ele>977.4999999999999</ele><time>2026-05-02T15:25:10.907Z</time></trkpt><trkpt lat="42.1343143" lon="13.3050156"><ele>976.0</ele><time>2026-05-02T15:25:11.907Z</time></trkpt><trkpt lat="42.1342873" lon="13.3049116"><ele>974.5</ele><time>2026-05-02T15:25:12.907Z</time></trkpt><trkpt lat="42.1342668" lon="13.3048228"><ele>973.0</ele><time>2026-05-02T15:25:13.907Z</time></trkpt><trkpt lat="42.1342508" lon="13.3046699"><ele>971.4999999999999</ele><time>2026-05-02T15:25:15.907Z</time></trkpt><trkpt lat="42.1342533" lon="13.3045672"><ele>970.0</ele><time>2026-05-02T15:25:16.908Z</time></trkpt><trkpt lat="42.1342522" lon="13.3044538"><ele>968.4</ele><time>2026-05-02T15:25:17.907Z</time></trkpt><trkpt lat="42.1342427" lon="13.3043346"><ele>966.8</ele><time>2026-05-02T15:25:18.906Z</time></trkpt><trkpt lat="42.1342271" lon="13.3041923"><ele>965.2</ele><time>2026-05-02T15:25:19.906Z</time></trkpt><trkpt lat="42.1342042" lon="13.3040394"><ele>963.6</ele><time>2026-05-02T15:25:20.906Z</time></trkpt><trkpt lat="42.134175" lon="13.3038876"><ele>962.0</ele><time>2026-05-02T15:25:21.907Z</time></trkpt><trkpt lat="42.1341528" lon="13.3037451"><ele>961.6</ele><time>2026-05-02T15:25:22.908Z</time></trkpt><trkpt lat="42.1341378" lon="13.3036174"><ele>961.2</ele><time>2026-05-02T15:25:23.907Z</time></trkpt><trkpt lat="42.1341421" lon="13.3035085"><ele>960.8</ele><time>2026-05-02T15:25:24.908Z</time></trkpt><trkpt lat="42.1341676" lon="13.3033844"><ele>960.4</ele><time>2026-05-02T15:25:25.907Z</time></trkpt><trkpt lat="42.1342136" lon="13.3032542"><ele>960.0</ele><time>2026-05-02T15:25:26.907Z</time></trkpt><trkpt lat="42.1342604" lon="13.3031268"><ele>961.25</ele><time>2026-05-02T15:25:27.906Z</time></trkpt><trkpt lat="42.1343325" lon="13.3029603"><ele>962.5</ele><time>2026-05-02T15:25:28.907Z</time></trkpt><trkpt lat="42.1343997" lon="13.3028069"><ele>963.75</ele><time>2026-05-02T15:25:29.907Z</time></trkpt><trkpt lat="42.1344635" lon="13.3026584"><ele>965.0</ele><time>2026-05-02T15:25:30.908Z</time></trkpt><trkpt lat="42.1345123" lon="13.3025198"><ele>965.0000000000001</ele><time>2026-05-02T15:25:31.907Z</time></trkpt><trkpt lat="42.1345451" lon="13.3024032"><ele>965.0</ele><time>2026-05-02T15:25:32.907Z</time></trkpt><trkpt lat="42.1345625" lon="13.3022979"><ele>965.0</ele><time>2026-05-02T15:25:33.907Z</time></trkpt><trkpt lat="42.1345416" lon="13.30217"><ele>965.0</ele><time>2026-05-02T15:25:35.907Z</time></trkpt><trkpt lat="42.1345843" lon="13.3020615"><ele>965.0000000000001</ele><time>2026-05-02T15:25:37.907Z</time></trkpt><trkpt lat="42.134647" lon="13.3019907"><ele>965.0</ele><time>2026-05-02T15:25:38.907Z</time></trkpt><trkpt lat="42.1346851" lon="13.3019146"><ele>966.0000000000001</ele><time>2026-05-02T15:25:39.907Z</time></trkpt><trkpt lat="42.1347113" lon="13.3018235"><ele>967.0</ele><time>2026-05-02T15:25:40.907Z</time></trkpt><trkpt lat="42.1347383" lon="13.3017147"><ele>968.0</ele><time>2026-05-02T15:25:41.907Z</time></trkpt><trkpt lat="42.1347783" lon="13.301623"><ele>969.0</ele><time>2026-05-02T15:25:42.907Z</time></trkpt><trkpt lat="42.1348372" lon="13.3015263"><ele>970.0000000000001</ele><time>2026-05-02T15:25:43.907Z</time></trkpt><trkpt lat="42.1349095" lon="13.3014515"><ele>971.0</ele><time>2026-05-02T15:25:44.908Z</time></trkpt><trkpt lat="42.1349864" lon="13.3013753"><ele>965.8</ele><time>2026-05-02T15:25:45.908Z</time></trkpt><trkpt lat="42.1350657" lon="13.3012855"><ele>960.5999999999999</ele><time>2026-05-02T15:25:46.908Z</time></trkpt><trkpt lat="42.1351403" lon="13.3011744"><ele>955.4</ele><time>2026-05-02T15:25:47.907Z</time></trkpt><trkpt lat="42.1352089" lon="13.301084"><ele>950.2</ele><time>2026-05-02T15:25:48.908Z</time></trkpt><trkpt lat="42.135272" lon="13.3010106"><ele>945.0</ele><time>2026-05-02T15:25:49.906Z</time></trkpt><trkpt lat="42.135343" lon="13.3009335"><ele>945.0</ele><time>2026-05-02T15:25:50.908Z</time></trkpt><trkpt lat="42.1354206" lon="13.3008834"><ele>945.0</ele><time>2026-05-02T15:25:51.907Z</time></trkpt><trkpt lat="42.1354979" lon="13.3008532"><ele>945.0</ele><time>2026-05-02T15:25:52.907Z</time></trkpt><trkpt lat="42.1355585" lon="13.300815"><ele>945.0</ele><time>2026-05-02T15:25:53.906Z</time></trkpt><trkpt lat="42.1356096" lon="13.3007517"><ele>945.0</ele><time>2026-05-02T15:25:54.907Z</time></trkpt><trkpt lat="42.1356571" lon="13.3006812"><ele>945.0</ele><time>2026-05-02T15:25:55.906Z</time></trkpt><trkpt lat="42.1357605" lon="13.300634"><ele>944.8333333333334</ele><time>2026-05-02T15:25:57.907Z</time></trkpt><trkpt lat="42.1358244" lon="13.3006384"><ele>944.6666666666667</ele><time>2026-05-02T15:25:58.907Z</time></trkpt><trkpt lat="42.1359179" lon="13.300642"><ele>944.5</ele><time>2026-05-02T15:25:59.907Z</time></trkpt><trkpt lat="42.1359946" lon="13.3006297"><ele>944.3333333333334</ele><time>2026-05-02T15:26:00.908Z</time></trkpt><trkpt lat="42.1360772" lon="13.3005959"><ele>944.1666666666667</ele><time>2026-05-02T15:26:01.907Z</time></trkpt><trkpt lat="42.1361545" lon="13.3005562"><ele>944.0</ele><time>2026-05-02T15:26:02.907Z</time></trkpt><trkpt lat="42.1362143" lon="13.3005071"><ele>941.6</ele><time>2026-05-02T15:26:03.907Z</time></trkpt><trkpt lat="42.1362942" lon="13.3004312"><ele>939.2</ele><time>2026-05-02T15:26:05.907Z</time></trkpt><trkpt lat="42.1363497" lon="13.3003322"><ele>936.8000000000001</ele><time>2026-05-02T15:26:07.907Z</time></trkpt><trkpt lat="42.1364082" lon="13.3002331"><ele>934.4000000000001</ele><time>2026-05-02T15:26:09.907Z</time></trkpt><trkpt lat="42.1364634" lon="13.3001456"><ele>932.0</ele><time>2026-05-02T15:26:10.907Z</time></trkpt><trkpt lat="42.1365231" lon="13.3000501"><ele>932.0</ele><time>2026-05-02T15:26:11.907Z</time></trkpt><trkpt lat="42.1365992" lon="13.2999225"><ele>932.0</ele><time>2026-05-02T15:26:12.907Z</time></trkpt><trkpt lat="42.1366621" lon="13.2997968"><ele>932.0</ele><time>2026-05-02T15:26:13.907Z</time></trkpt><trkpt lat="42.1367087" lon="13.2996734"><ele>932.0</ele><time>2026-05-02T15:26:14.907Z</time></trkpt><trkpt lat="42.1367348" lon="13.299522"><ele>932.0</ele><time>2026-05-02T15:26:15.907Z</time></trkpt><trkpt lat="42.1367659" lon="13.2993767"><ele>932.0</ele><time>2026-05-02T15:26:16.908Z</time></trkpt><trkpt lat="42.1367786" lon="13.29924"><ele>932.0</ele><time>2026-05-02T15:26:17.907Z</time></trkpt><trkpt lat="42.1368011" lon="13.2990999"><ele>932.0</ele><time>2026-05-02T15:26:18.909Z</time></trkpt><trkpt lat="42.1368252" lon="13.2989609"><ele>932.0</ele><time>2026-05-02T15:26:19.907Z</time></trkpt><trkpt lat="42.1368555" lon="13.2988029"><ele>931.0</ele><time>2026-05-02T15:26:20.908Z</time></trkpt><trkpt lat="42.1368901" lon="13.298632"><ele>930.0</ele><time>2026-05-02T15:26:21.907Z</time></trkpt><trkpt lat="42.1369286" lon="13.2984805"><ele>929.0</ele><time>2026-05-02T15:26:22.909Z</time></trkpt><trkpt lat="42.1369715" lon="13.2983345"><ele>928.0</ele><time>2026-05-02T15:26:23.907Z</time></trkpt><trkpt lat="42.1370019" lon="13.2981925"><ele>927.9999999999999</ele><time>2026-05-02T15:26:24.907Z</time></trkpt><trkpt lat="42.137013" lon="13.2980902"><ele>928.0</ele><time>2026-05-02T15:26:25.906Z</time></trkpt><trkpt lat="42.13704" lon="13.2979658"><ele>928.0</ele><time>2026-05-02T15:26:27.907Z</time></trkpt><trkpt lat="42.1371272" lon="13.2979819"><ele>928.0</ele><time>2026-05-02T15:26:30.907Z</time></trkpt><trkpt lat="42.1371928" lon="13.2980117"><ele>927.9999999999999</ele><time>2026-05-02T15:26:31.908Z</time></trkpt><trkpt lat="42.1372661" lon="13.2980226"><ele>928.0</ele><time>2026-05-02T15:26:32.906Z</time></trkpt><trkpt lat="42.1373483" lon="13.2980278"><ele>927.4999999999999</ele><time>2026-05-02T15:26:33.907Z</time></trkpt><trkpt lat="42.1374239" lon="13.2980231"><ele>927.0</ele><time>2026-05-02T15:26:34.908Z</time></trkpt><trkpt lat="42.1374966" lon="13.298009"><ele>926.5</ele><time>2026-05-02T15:26:35.908Z</time></trkpt><trkpt lat="42.1376046" lon="13.2979631"><ele>926.0</ele><time>2026-05-02T15:26:37.907Z</time></trkpt><trkpt lat="42.1376743" lon="13.297941"><ele>925.4999999999999</ele><time>2026-05-02T15:26:39.907Z</time></trkpt><trkpt lat="42.1377377" lon="13.2979252"><ele>925.0</ele><time>2026-05-02T15:26:42.907Z</time></trkpt><trkpt lat="42.1376821" lon="13.2978649"><ele>924.9999999999999</ele><time>2026-05-02T15:26:54.906Z</time></trkpt><trkpt lat="42.1376205" lon="13.2979411"><ele>925.0</ele><time>2026-05-02T15:26:57.908Z</time></trkpt><trkpt lat="42.1375542" lon="13.2979991"><ele>925.0</ele><time>2026-05-02T15:26:59.908Z</time></trkpt><trkpt lat="42.1374659" lon="13.2980316"><ele>925.0</ele><time>2026-05-02T15:27:01.908Z</time></trkpt><trkpt lat="42.1373878" lon="13.2980473"><ele>924.9999999999999</ele><time>2026-05-02T15:27:03.908Z</time></trkpt><trkpt lat="42.1373168" lon="13.2980376"><ele>925.0</ele><time>2026-05-02T15:27:05.907Z</time></trkpt><trkpt lat="42.1372443" lon="13.2980314"><ele>925.4999999999999</ele><time>2026-05-02T15:27:07.907Z</time></trkpt><trkpt lat="42.1371513" lon="13.2980305"><ele>926.0</ele><time>2026-05-02T15:27:09.908Z</time></trkpt><trkpt lat="42.1370816" lon="13.298026"><ele>926.5</ele><time>2026-05-02T15:27:11.907Z</time></trkpt><trkpt lat="42.1369998" lon="13.298046"><ele>927.0</ele><time>2026-05-02T15:27:13.907Z</time></trkpt><trkpt lat="42.1369298" lon="13.2980942"><ele>927.4999999999999</ele><time>2026-05-02T15:27:15.907Z</time></trkpt><trkpt lat="42.136867" lon="13.2981295"><ele>928.0</ele><time>2026-05-02T15:27:18.907Z</time></trkpt><trkpt lat="42.1367938" lon="13.2981036"><ele>928.8</ele><time>2026-05-02T15:28:28.907Z</time></trkpt><trkpt lat="42.1366876" lon="13.2980816"><ele>929.5999999999999</ele><time>2026-05-02T15:28:30.907Z</time></trkpt><trkpt lat="42.136609" lon="13.2980122"><ele>930.4000000000001</ele><time>2026-05-02T15:28:32.907Z</time></trkpt><trkpt lat="42.1365492" lon="13.297913"><ele>931.2</ele><time>2026-05-02T15:28:34.908Z</time></trkpt><trkpt lat="42.1365435" lon="13.2977683"><ele>932.0</ele><time>2026-05-02T15:28:36.907Z</time></trkpt><trkpt lat="42.1366027" lon="13.2976153"><ele>932.0000000000001</ele><time>2026-05-02T15:28:38.907Z</time></trkpt><trkpt lat="42.13664" lon="13.2975396"><ele>932.0</ele><time>2026-05-02T15:28:39.906Z</time></trkpt><trkpt lat="42.1366678" lon="13.2974564"><ele>932.0</ele><time>2026-05-02T15:28:40.907Z</time></trkpt><trkpt lat="42.1366815" lon="13.2973562"><ele>932.0</ele><time>2026-05-02T15:28:41.907Z</time></trkpt><trkpt lat="42.1366851" lon="13.2972377"><ele>932.0000000000001</ele><time>2026-05-02T15:28:42.907Z</time></trkpt><trkpt lat="42.1366863" lon="13.2971155"><ele>932.0</ele><time>2026-05-02T15:28:43.906Z</time></trkpt><trkpt lat="42.1366823" lon="13.2969896"><ele>931.2</ele><time>2026-05-02T15:28:44.907Z</time></trkpt><trkpt lat="42.1366875" lon="13.2968574"><ele>930.4000000000001</ele><time>2026-05-02T15:28:45.907Z</time></trkpt><trkpt lat="42.1367061" lon="13.2967228"><ele>929.5999999999999</ele><time>2026-05-02T15:28:46.907Z</time></trkpt><trkpt lat="42.1367171" lon="13.2965783"><ele>928.8</ele><time>2026-05-02T15:28:47.908Z</time></trkpt><trkpt lat="42.1367094" lon="13.2964146"><ele>928.0</ele><time>2026-05-02T15:28:48.907Z</time></trkpt><trkpt lat="42.1366869" lon="13.2962315"><ele>926.75</ele><time>2026-05-02T15:28:49.906Z</time></trkpt><trkpt lat="42.1366763" lon="13.2960645"><ele>925.5</ele><time>2026-05-02T15:28:50.906Z</time></trkpt><trkpt lat="42.1366589" lon="13.2958979"><ele>924.25</ele><time>2026-05-02T15:28:51.908Z</time></trkpt><trkpt lat="42.136651" lon="13.2957396"><ele>923.0</ele><time>2026-05-02T15:28:52.907Z</time></trkpt><trkpt lat="42.136655" lon="13.2955891"><ele>922.0</ele><time>2026-05-02T15:28:53.906Z</time></trkpt><trkpt lat="42.1366639" lon="13.2954545"><ele>921.0</ele><time>2026-05-02T15:28:54.908Z</time></trkpt><trkpt lat="42.1366636" lon="13.2953061"><ele>920.0</ele><time>2026-05-02T15:28:55.907Z</time></trkpt><trkpt lat="42.1366555" lon="13.2951742"><ele>919.0</ele><time>2026-05-02T15:28:56.908Z</time></trkpt><trkpt lat="42.1366234" lon="13.2950342"><ele>918.0</ele><time>2026-05-02T15:28:57.908Z</time></trkpt><trkpt lat="42.136596" lon="13.294889"><ele>917.5</ele><time>2026-05-02T15:28:58.907Z</time></trkpt><trkpt lat="42.1365699" lon="13.294739"><ele>917.0</ele><time>2026-05-02T15:28:59.906Z</time></trkpt><trkpt lat="42.1365443" lon="13.2945857"><ele>916.5</ele><time>2026-05-02T15:29:00.907Z</time></trkpt><trkpt lat="42.1365253" lon="13.2944341"><ele>916.0</ele><time>2026-05-02T15:29:01.907Z</time></trkpt><trkpt lat="42.1364963" lon="13.2942914"><ele>914.5999999999999</ele><time>2026-05-02T15:29:02.907Z</time></trkpt><trkpt lat="42.1364787" lon="13.2941645"><ele>913.1999999999999</ele><time>2026-05-02T15:29:03.907Z</time></trkpt><trkpt lat="42.1364775" lon="13.294048"><ele>911.8000000000001</ele><time>2026-05-02T15:29:04.907Z</time></trkpt><trkpt lat="42.1364912" lon="13.2939482"><ele>910.4000000000001</ele><time>2026-05-02T15:29:05.908Z</time></trkpt><trkpt lat="42.1364783" lon="13.2937979"><ele>909.0</ele><time>2026-05-02T15:29:07.907Z</time></trkpt><trkpt lat="42.1364184" lon="13.2937175"><ele>909.0</ele><time>2026-05-02T15:29:09.908Z</time></trkpt><trkpt lat="42.1363466" lon="13.2936014"><ele>909.0000000000001</ele><time>2026-05-02T15:29:11.907Z</time></trkpt><trkpt lat="42.1363309" lon="13.2934364"><ele>909.0000000000001</ele><time>2026-05-02T15:29:13.908Z</time></trkpt><trkpt lat="42.1363321" lon="13.2933429"><ele>909.0</ele><time>2026-05-02T15:29:14.906Z</time></trkpt><trkpt lat="42.1363203" lon="13.2932541"><ele>909.0</ele><time>2026-05-02T15:29:15.907Z</time></trkpt><trkpt lat="42.1362914" lon="13.2931496"><ele>908.6</ele><time>2026-05-02T15:29:16.908Z</time></trkpt><trkpt lat="42.1362577" lon="13.2930392"><ele>908.2</ele><time>2026-05-02T15:29:17.907Z</time></trkpt><trkpt lat="42.1362243" lon="13.2929332"><ele>907.8000000000001</ele><time>2026-05-02T15:29:18.907Z</time></trkpt><trkpt lat="42.1362024" lon="13.2928184"><ele>907.4000000000001</ele><time>2026-05-02T15:29:19.908Z</time></trkpt><trkpt lat="42.1361998" lon="13.2926991"><ele>907.0</ele><time>2026-05-02T15:29:20.907Z</time></trkpt><trkpt lat="42.1362031" lon="13.2925617"><ele>907.0</ele><time>2026-05-02T15:29:21.907Z</time></trkpt><trkpt lat="42.1362185" lon="13.29239"><ele>907.0</ele><time>2026-05-02T15:29:22.907Z</time></trkpt><trkpt lat="42.1362343" lon="13.2922397"><ele>907.0</ele><time>2026-05-02T15:29:23.906Z</time></trkpt><trkpt lat="42.1362512" lon="13.2920952"><ele>907.0</ele><time>2026-05-02T15:29:24.906Z</time></trkpt><trkpt lat="42.1362648" lon="13.2919602"><ele>905.2</ele><time>2026-05-02T15:29:25.906Z</time></trkpt><trkpt lat="42.1362754" lon="13.2918279"><ele>903.4000000000001</ele><time>2026-05-02T15:29:26.907Z</time></trkpt><trkpt lat="42.1362778" lon="13.2917113"><ele>901.5999999999999</ele><time>2026-05-02T15:29:27.907Z</time></trkpt><trkpt lat="42.1362758" lon="13.2916058"><ele>899.8</ele><time>2026-05-02T15:29:28.907Z</time></trkpt><trkpt lat="42.1362977" lon="13.2914715"><ele>898.0</ele><time>2026-05-02T15:29:30.907Z</time></trkpt><trkpt lat="42.1363789" lon="13.2913524"><ele>897.1428571428571</ele><time>2026-05-02T15:29:32.906Z</time></trkpt><trkpt lat="42.1364231" lon="13.2912821"><ele>896.2857142857142</ele><time>2026-05-02T15:29:33.907Z</time></trkpt><trkpt lat="42.1364599" lon="13.2911993"><ele>895.4285714285713</ele><time>2026-05-02T15:29:34.907Z</time></trkpt><trkpt lat="42.1364698" lon="13.2911054"><ele>894.5714285714286</ele><time>2026-05-02T15:29:35.907Z</time></trkpt><trkpt lat="42.1364916" lon="13.2910018"><ele>893.7142857142857</ele><time>2026-05-02T15:29:36.907Z</time></trkpt><trkpt lat="42.1365124" lon="13.2909037"><ele>892.8571428571429</ele><time>2026-05-02T15:29:37.907Z</time></trkpt><trkpt lat="42.1365477" lon="13.2908249"><ele>892.0</ele><time>2026-05-02T15:29:38.906Z</time></trkpt><trkpt lat="42.1366397" lon="13.2907422"><ele>892.0</ele><time>2026-05-02T15:29:40.907Z</time></trkpt><trkpt lat="42.1367121" lon="13.2907233"><ele>892.0</ele><time>2026-05-02T15:29:41.907Z</time></trkpt><trkpt lat="42.1368113" lon="13.2907106"><ele>892.0</ele><time>2026-05-02T15:29:42.908Z</time></trkpt><trkpt lat="42.1369168" lon="13.2907023"><ele>892.0</ele><time>2026-05-02T15:29:43.907Z</time></trkpt><trkpt lat="42.1370211" lon="13.2906955"><ele>892.0</ele><time>2026-05-02T15:29:44.907Z</time></trkpt><trkpt lat="42.1371043" lon="13.2906851"><ele>891.9999999999999</ele><time>2026-05-02T15:29:45.906Z</time></trkpt><trkpt lat="42.1372041" lon="13.2906437"><ele>892.0</ele><time>2026-05-02T15:29:47.908Z</time></trkpt><trkpt lat="42.1372292" lon="13.2905566"><ele>892.0</ele><time>2026-05-02T15:29:49.908Z</time></trkpt><trkpt lat="42.137187" lon="13.2904898"><ele>892.0</ele><time>2026-05-02T15:29:51.908Z</time></trkpt><trkpt lat="42.1371191" lon="13.2904658"><ele>891.9999999999999</ele><time>2026-05-02T15:29:53.907Z</time></trkpt><trkpt lat="42.1370108" lon="13.2904135"><ele>892.0</ele><time>2026-05-02T15:29:55.907Z</time></trkpt><trkpt lat="42.136904" lon="13.290367"><ele>889.4999999999999</ele><time>2026-05-02T15:29:57.906Z</time></trkpt><trkpt lat="42.136843" lon="13.2903013"><ele>887.0</ele><time>2026-05-02T15:29:59.907Z</time></trkpt><trkpt lat="42.1368574" lon="13.2902003"><ele>884.5</ele><time>2026-05-02T15:30:01.907Z</time></trkpt><trkpt lat="42.136903" lon="13.290136"><ele>882.0</ele><time>2026-05-02T15:30:02.906Z</time></trkpt><trkpt lat="42.1369599" lon="13.2900554"><ele>879.4999999999999</ele><time>2026-05-02T15:30:03.906Z</time></trkpt><trkpt lat="42.1370166" lon="13.2899734"><ele>877.0</ele><time>2026-05-02T15:30:04.907Z</time></trkpt><trkpt lat="42.1370712" lon="13.2898803"><ele>876.9999999999999</ele><time>2026-05-02T15:30:05.906Z</time></trkpt><trkpt lat="42.1371204" lon="13.2897765"><ele>877.0</ele><time>2026-05-02T15:30:06.906Z</time></trkpt><trkpt lat="42.1371529" lon="13.2896685"><ele>877.0</ele><time>2026-05-02T15:30:07.906Z</time></trkpt><trkpt lat="42.1371725" lon="13.2895676"><ele>877.0</ele><time>2026-05-02T15:30:08.907Z</time></trkpt><trkpt lat="42.1371781" lon="13.2894788"><ele>876.9999999999999</ele><time>2026-05-02T15:30:09.907Z</time></trkpt><trkpt lat="42.1371331" lon="13.2893382"><ele>877.0</ele><time>2026-05-02T15:30:11.908Z</time></trkpt><trkpt lat="42.1370847" lon="13.2891977"><ele>873.5</ele><time>2026-05-02T15:30:13.906Z</time></trkpt><trkpt lat="42.137082" lon="13.2890673"><ele>870.0</ele><time>2026-05-02T15:30:15.908Z</time></trkpt><trkpt lat="42.1371873" lon="13.2889765"><ele>866.5</ele><time>2026-05-02T15:30:17.906Z</time></trkpt><trkpt lat="42.1372178" lon="13.2888512"><ele>863.0</ele><time>2026-05-02T15:30:19.908Z</time></trkpt><trkpt lat="42.1371702" lon="13.2886839"><ele>861.4</ele><time>2026-05-02T15:30:21.907Z</time></trkpt><trkpt lat="42.1371254" lon="13.2885672"><ele>859.8</ele><time>2026-05-02T15:30:22.907Z</time></trkpt><trkpt lat="42.1370867" lon="13.288456"><ele>858.2</ele><time>2026-05-02T15:30:23.907Z</time></trkpt><trkpt lat="42.1370558" lon="13.2883512"><ele>856.6</ele><time>2026-05-02T15:30:24.906Z</time></trkpt><trkpt lat="42.1370274" lon="13.2882062"><ele>855.0</ele><time>2026-05-02T15:30:26.907Z</time></trkpt><trkpt lat="42.1370397" lon="13.2880908"><ele>855.0</ele><time>2026-05-02T15:30:28.907Z</time></trkpt><trkpt lat="42.137082" lon="13.2880184"><ele>855.0</ele><time>2026-05-02T15:30:30.907Z</time></trkpt><trkpt lat="42.1371485" lon="13.2880098"><ele>855.0</ele><time>2026-05-02T15:30:32.907Z</time></trkpt><trkpt lat="42.1371932" lon="13.2880766"><ele>855.0</ele><time>2026-05-02T15:30:34.907Z</time></trkpt><trkpt lat="42.1372475" lon="13.2881703"><ele>855.0</ele><time>2026-05-02T15:30:37.907Z</time></trkpt><trkpt lat="42.1373222" lon="13.2882389"><ele>855.0</ele><time>2026-05-02T15:30:39.907Z</time></trkpt><trkpt lat="42.1373943" lon="13.2882987"><ele>855.3333333333334</ele><time>2026-05-02T15:30:41.907Z</time></trkpt><trkpt lat="42.1374509" lon="13.2883402"><ele>855.6666666666667</ele><time>2026-05-02T15:30:42.907Z</time></trkpt><trkpt lat="42.1375422" lon="13.2883636"><ele>856.0</ele><time>2026-05-02T15:30:44.908Z</time></trkpt><trkpt lat="42.1376017" lon="13.2884"><ele>856.3333333333334</ele><time>2026-05-02T15:30:46.907Z</time></trkpt><trkpt lat="42.1376731" lon="13.2884841"><ele>856.6666666666667</ele><time>2026-05-02T15:30:48.907Z</time></trkpt><trkpt lat="42.1377666" lon="13.2885392"><ele>857.0</ele><time>2026-05-02T15:30:50.907Z</time></trkpt><trkpt lat="42.1378608" lon="13.288491"><ele>857.0</ele><time>2026-05-02T15:30:52.906Z</time></trkpt><trkpt lat="42.1379" lon="13.2883576"><ele>857.0</ele><time>2026-05-02T15:30:54.907Z</time></trkpt><trkpt lat="42.1379032" lon="13.2882554"><ele>857.0</ele><time>2026-05-02T15:30:55.908Z</time></trkpt><trkpt lat="42.1378922" lon="13.2881185"><ele>857.0</ele><time>2026-05-02T15:30:56.906Z</time></trkpt><trkpt lat="42.1378622" lon="13.2879637"><ele>857.0</ele><time>2026-05-02T15:30:57.907Z</time></trkpt><trkpt lat="42.1378332" lon="13.2878141"><ele>855.0</ele><time>2026-05-02T15:30:58.907Z</time></trkpt><trkpt lat="42.1378031" lon="13.2876672"><ele>853.0</ele><time>2026-05-02T15:30:59.907Z</time></trkpt><trkpt lat="42.1377752" lon="13.2875165"><ele>851.0</ele><time>2026-05-02T15:31:00.907Z</time></trkpt><trkpt lat="42.1377475" lon="13.2873699"><ele>849.0</ele><time>2026-05-02T15:31:01.907Z</time></trkpt><trkpt lat="42.1377285" lon="13.2872207"><ele>847.4000000000001</ele><time>2026-05-02T15:31:02.907Z</time></trkpt><trkpt lat="42.1377154" lon="13.2870857"><ele>845.8</ele><time>2026-05-02T15:31:03.907Z</time></trkpt><trkpt lat="42.1377085" lon="13.2869647"><ele>844.2</ele><time>2026-05-02T15:31:04.908Z</time></trkpt><trkpt lat="42.1377028" lon="13.2868505"><ele>842.5999999999999</ele><time>2026-05-02T15:31:05.907Z</time></trkpt><trkpt lat="42.1376885" lon="13.2867315"><ele>841.0</ele><time>2026-05-02T15:31:06.907Z</time></trkpt><trkpt lat="42.1376761" lon="13.2865889"><ele>840.9999999999999</ele><time>2026-05-02T15:31:07.906Z</time></trkpt><trkpt lat="42.1376719" lon="13.286464"><ele>841.0</ele><time>2026-05-02T15:31:08.906Z</time></trkpt><trkpt lat="42.1376664" lon="13.2863359"><ele>841.0</ele><time>2026-05-02T15:31:09.907Z</time></trkpt><trkpt lat="42.1376476" lon="13.2862044"><ele>841.0</ele><time>2026-05-02T15:31:10.906Z</time></trkpt><trkpt lat="42.1376261" lon="13.2860964"><ele>840.9999999999999</ele><time>2026-05-02T15:31:11.906Z</time></trkpt><trkpt lat="42.1376093" lon="13.2859976"><ele>841.0</ele><time>2026-05-02T15:31:12.907Z</time></trkpt><trkpt lat="42.1375833" lon="13.2858656"><ele>840.5999999999999</ele><time>2026-05-02T15:31:14.908Z</time></trkpt><trkpt lat="42.137596" lon="13.2857564"><ele>840.2</ele><time>2026-05-02T15:31:16.907Z</time></trkpt><trkpt lat="42.1376972" lon="13.2857062"><ele>839.8</ele><time>2026-05-02T15:31:18.908Z</time></trkpt><trkpt lat="42.1377823" lon="13.2857123"><ele>839.4000000000001</ele><time>2026-05-02T15:31:19.908Z</time></trkpt><trkpt lat="42.1379054" lon="13.285742"><ele>839.0</ele><time>2026-05-02T15:31:20.907Z</time></trkpt><trkpt lat="42.1380345" lon="13.2857816"><ele>839.0000000000001</ele><time>2026-05-02T15:31:21.907Z</time></trkpt><trkpt lat="42.1381541" lon="13.2858161"><ele>839.0</ele><time>2026-05-02T15:31:22.907Z</time></trkpt><trkpt lat="42.138229" lon="13.2858601"><ele>839.0</ele><time>2026-05-02T15:31:23.908Z</time></trkpt><trkpt lat="42.1382897" lon="13.2859046"><ele>839.0</ele><time>2026-05-02T15:31:24.908Z</time></trkpt><trkpt lat="42.1383515" lon="13.2859361"><ele>839.0000000000001</ele><time>2026-05-02T15:31:26.907Z</time></trkpt><trkpt lat="42.1384465" lon="13.2858875"><ele>839.0</ele><time>2026-05-02T15:31:28.907Z</time></trkpt><trkpt lat="42.1385154" lon="13.2858769"><ele>839.1666666666667</ele><time>2026-05-02T15:31:29.907Z</time></trkpt><trkpt lat="42.1385967" lon="13.2858764"><ele>839.3333333333334</ele><time>2026-05-02T15:31:30.907Z</time></trkpt><trkpt lat="42.1386914" lon="13.2858715"><ele>839.5</ele><time>2026-05-02T15:31:31.906Z</time></trkpt><trkpt lat="42.1387744" lon="13.2858651"><ele>839.6666666666667</ele><time>2026-05-02T15:31:32.907Z</time></trkpt><trkpt lat="42.1388621" lon="13.2858632"><ele>839.8333333333334</ele><time>2026-05-02T15:31:33.906Z</time></trkpt><trkpt lat="42.1389465" lon="13.2858892"><ele>840.0</ele><time>2026-05-02T15:31:34.907Z</time></trkpt><trkpt lat="42.1390358" lon="13.2858947"><ele>839.25</ele><time>2026-05-02T15:31:35.907Z</time></trkpt><trkpt lat="42.1391437" lon="13.2858979"><ele>838.5</ele><time>2026-05-02T15:31:36.908Z</time></trkpt><trkpt lat="42.1392594" lon="13.2858922"><ele>837.75</ele><time>2026-05-02T15:31:37.906Z</time></trkpt><trkpt lat="42.1393756" lon="13.2858885"><ele>837.0</ele><time>2026-05-02T15:31:38.906Z</time></trkpt><trkpt lat="42.1394926" lon="13.285898"><ele>837.0</ele><time>2026-05-02T15:31:39.907Z</time></trkpt><trkpt lat="42.1396109" lon="13.2858962"><ele>837.0</ele><time>2026-05-02T15:31:40.907Z</time></trkpt><trkpt lat="42.1397358" lon="13.2858944"><ele>837.0</ele><time>2026-05-02T15:31:41.907Z</time></trkpt><trkpt lat="42.1398607" lon="13.2858939"><ele>837.0</ele><time>2026-05-02T15:31:42.906Z</time></trkpt><trkpt lat="42.139974" lon="13.2858954"><ele>835.0</ele><time>2026-05-02T15:31:43.907Z</time></trkpt><trkpt lat="42.1400857" lon="13.2859126"><ele>833.0</ele><time>2026-05-02T15:31:44.907Z</time></trkpt><trkpt lat="42.1402015" lon="13.2859259"><ele>831.0</ele><time>2026-05-02T15:31:45.907Z</time></trkpt><trkpt lat="42.1403147" lon="13.2859429"><ele>829.0</ele><time>2026-05-02T15:31:46.908Z</time></trkpt><trkpt lat="42.1404185" lon="13.2859629"><ele>827.0</ele><time>2026-05-02T15:31:47.907Z</time></trkpt><trkpt lat="42.1405142" lon="13.2859744"><ele>827.0000000000001</ele><time>2026-05-02T15:31:48.907Z</time></trkpt><trkpt lat="42.1406138" lon="13.2859826"><ele>827.0</ele><time>2026-05-02T15:31:49.906Z</time></trkpt><trkpt lat="42.1407038" lon="13.2859754"><ele>827.0</ele><time>2026-05-02T15:31:50.907Z</time></trkpt><trkpt lat="42.1407878" lon="13.2859613"><ele>827.0</ele><time>2026-05-02T15:31:51.908Z</time></trkpt><trkpt lat="42.1408623" lon="13.2859511"><ele>827.0000000000001</ele><time>2026-05-02T15:31:52.907Z</time></trkpt><trkpt lat="42.1409287" lon="13.2859639"><ele>827.0</ele><time>2026-05-02T15:31:53.908Z</time></trkpt><trkpt lat="42.1410404" lon="13.2860486"><ele>825.4000000000001</ele><time>2026-05-02T15:31:55.907Z</time></trkpt><trkpt lat="42.1411015" lon="13.2860821"><ele>823.8000000000001</ele><time>2026-05-02T15:31:56.907Z</time></trkpt><trkpt lat="42.1412294" lon="13.2860931"><ele>822.2</ele><time>2026-05-02T15:31:58.907Z</time></trkpt><trkpt lat="42.141314" lon="13.2860543"><ele>820.6</ele><time>2026-05-02T15:31:59.907Z</time></trkpt><trkpt lat="42.1413983" lon="13.2860086"><ele>819.0</ele><time>2026-05-02T15:32:00.906Z</time></trkpt><trkpt lat="42.1414832" lon="13.285966"><ele>815.0</ele><time>2026-05-02T15:32:01.907Z</time></trkpt><trkpt lat="42.1415679" lon="13.2859388"><ele>811.0</ele><time>2026-05-02T15:32:02.908Z</time></trkpt><trkpt lat="42.141662" lon="13.2859309"><ele>807.0</ele><time>2026-05-02T15:32:03.907Z</time></trkpt><trkpt lat="42.1417717" lon="13.2859386"><ele>803.0</ele><time>2026-05-02T15:32:04.907Z</time></trkpt><trkpt lat="42.1418697" lon="13.2859424"><ele>799.0</ele><time>2026-05-02T15:32:05.907Z</time></trkpt><trkpt lat="42.1419561" lon="13.2859461"><ele>798.9999999999999</ele><time>2026-05-02T15:32:06.907Z</time></trkpt><trkpt lat="42.142036" lon="13.2859484"><ele>799.0</ele><time>2026-05-02T15:32:07.907Z</time></trkpt><trkpt lat="42.1421157" lon="13.2859523"><ele>799.0</ele><time>2026-05-02T15:32:08.907Z</time></trkpt><trkpt lat="42.1421816" lon="13.2859517"><ele>799.0</ele><time>2026-05-02T15:32:09.907Z</time></trkpt><trkpt lat="42.142297" lon="13.2859128"><ele>798.9999999999999</ele><time>2026-05-02T15:32:11.907Z</time></trkpt><trkpt lat="42.1423922" lon="13.2858799"><ele>799.0</ele><time>2026-05-02T15:32:13.907Z</time></trkpt><trkpt lat="42.1424712" lon="13.2859412"><ele>795.6666666666666</ele><time>2026-05-02T15:32:15.908Z</time></trkpt><trkpt lat="42.1425188" lon="13.2860531"><ele>792.3333333333333</ele><time>2026-05-02T15:32:17.907Z</time></trkpt><trkpt lat="42.1425588" lon="13.2861459"><ele>789.0</ele><time>2026-05-02T15:32:19.907Z</time></trkpt><trkpt lat="42.1426048" lon="13.2862141"><ele>785.6666666666667</ele><time>2026-05-02T15:32:21.907Z</time></trkpt><trkpt lat="42.14266" lon="13.2862601"><ele>782.3333333333334</ele><time>2026-05-02T15:32:23.907Z</time></trkpt><trkpt lat="42.1427343" lon="13.286325"><ele>779.0</ele><time>2026-05-02T15:32:26.753Z</time></trkpt><trkpt lat="42.1428293" lon="13.2863629"><ele>779.0</ele><time>2026-05-02T15:32:28.906Z</time></trkpt><trkpt lat="42.1428952" lon="13.2864115"><ele>779.0</ele><time>2026-05-02T15:32:30.871Z</time></trkpt><trkpt lat="42.1429735" lon="13.2864973"><ele>779.0</ele><time>2026-05-02T15:32:32.908Z</time></trkpt><trkpt lat="42.1430341" lon="13.2865718"><ele>779.0</ele><time>2026-05-02T15:32:34.838Z</time></trkpt><trkpt lat="42.1430923" lon="13.2866849"><ele>779.0</ele><time>2026-05-02T15:32:36.908Z</time></trkpt><trkpt lat="42.1431589" lon="13.28681"><ele>779.6</ele><time>2026-05-02T15:32:38.907Z</time></trkpt><trkpt lat="42.1432046" lon="13.286959"><ele>780.2</ele><time>2026-05-02T15:32:40.906Z</time></trkpt><trkpt lat="42.1432504" lon="13.2871178"><ele>780.8000000000001</ele><time>2026-05-02T15:32:42.907Z</time></trkpt><trkpt lat="42.1432621" lon="13.287222"><ele>781.4000000000001</ele><time>2026-05-02T15:32:43.907Z</time></trkpt><trkpt lat="42.1432653" lon="13.287362"><ele>782.0</ele><time>2026-05-02T15:32:44.907Z</time></trkpt><trkpt lat="42.1432653" lon="13.2874818"><ele>782.0</ele><time>2026-05-02T15:32:45.907Z</time></trkpt><trkpt lat="42.1432713" lon="13.2875775"><ele>782.0</ele><time>2026-05-02T15:32:46.907Z</time></trkpt><trkpt lat="42.1433304" lon="13.2877155"><ele>782.0</ele><time>2026-05-02T15:32:48.906Z</time></trkpt><trkpt lat="42.143454" lon="13.2877964"><ele>782.0</ele><time>2026-05-02T15:32:50.907Z</time></trkpt><trkpt lat="42.1435259" lon="13.2878284"><ele>782.0</ele><time>2026-05-02T15:32:51.907Z</time></trkpt><trkpt lat="42.1435955" lon="13.2878514"><ele>782.0000000000001</ele><time>2026-05-02T15:32:52.907Z</time></trkpt><trkpt lat="42.1436627" lon="13.2878463"><ele>782.0</ele><time>2026-05-02T15:32:53.908Z</time></trkpt><trkpt lat="42.1437432" lon="13.2877669"><ele>782.0</ele><time>2026-05-02T15:32:55.906Z</time></trkpt><trkpt lat="42.1437973" lon="13.2876733"><ele>782.0</ele><time>2026-05-02T15:32:56.907Z</time></trkpt><trkpt lat="42.1438531" lon="13.2875849"><ele>782.0000000000001</ele><time>2026-05-02T15:32:57.908Z</time></trkpt><trkpt lat="42.1439118" lon="13.2875108"><ele>782.0</ele><time>2026-05-02T15:32:58.907Z</time></trkpt><trkpt lat="42.1439781" lon="13.2874513"><ele>782.0000000000001</ele><time>2026-05-02T15:32:59.907Z</time></trkpt><trkpt lat="42.1440428" lon="13.287402"><ele>782.0</ele><time>2026-05-02T15:33:00.908Z</time></trkpt><trkpt lat="42.1441183" lon="13.2873776"><ele>782.0</ele><time>2026-05-02T15:33:01.906Z</time></trkpt><trkpt lat="42.1442088" lon="13.2873708"><ele>782.0</ele><time>2026-05-02T15:33:02.908Z</time></trkpt><trkpt lat="42.1442893" lon="13.287375"><ele>782.0000000000001</ele><time>2026-05-02T15:33:03.906Z</time></trkpt><trkpt lat="42.1443769" lon="13.2873765"><ele>782.0</ele><time>2026-05-02T15:33:04.908Z</time></trkpt><trkpt lat="42.1444555" lon="13.2873715"><ele>783.0000000000001</ele><time>2026-05-02T15:33:05.907Z</time></trkpt><trkpt lat="42.1445478" lon="13.2873517"><ele>784.0</ele><time>2026-05-02T15:33:06.907Z</time></trkpt><trkpt lat="42.1446489" lon="13.2873419"><ele>785.0</ele><time>2026-05-02T15:33:07.906Z</time></trkpt><trkpt lat="42.1447395" lon="13.2873427"><ele>786.0</ele><time>2026-05-02T15:33:08.907Z</time></trkpt><trkpt lat="42.1448107" lon="13.2873736"><ele>787.0000000000001</ele><time>2026-05-02T15:33:09.907Z</time></trkpt><trkpt lat="42.1448768" lon="13.2874069"><ele>788.0</ele><time>2026-05-02T15:33:10.907Z</time></trkpt><trkpt lat="42.1449435" lon="13.2874547"><ele>789.5999999999999</ele><time>2026-05-02T15:33:11.907Z</time></trkpt><trkpt lat="42.1449945" lon="13.2875237"><ele>791.1999999999999</ele><time>2026-05-02T15:33:12.907Z</time></trkpt><trkpt lat="42.1450504" lon="13.2876721"><ele>792.8</ele><time>2026-05-02T15:33:14.907Z</time></trkpt><trkpt lat="42.1450613" lon="13.2877849"><ele>794.4</ele><time>2026-05-02T15:33:15.906Z</time></trkpt><trkpt lat="42.1450428" lon="13.2879286"><ele>796.0</ele><time>2026-05-02T15:33:16.908Z</time></trkpt><trkpt lat="42.14501" lon="13.2880874"><ele>796.25</ele><time>2026-05-02T15:33:17.907Z</time></trkpt><trkpt lat="42.1449906" lon="13.2882477"><ele>796.5</ele><time>2026-05-02T15:33:18.907Z</time></trkpt><trkpt lat="42.1449725" lon="13.2884006"><ele>796.75</ele><time>2026-05-02T15:33:19.907Z</time></trkpt><trkpt lat="42.144962" lon="13.2885579"><ele>797.0</ele><time>2026-05-02T15:33:20.907Z</time></trkpt><trkpt lat="42.1449488" lon="13.2887106"><ele>797.0</ele><time>2026-05-02T15:33:21.907Z</time></trkpt><trkpt lat="42.1449462" lon="13.2888964"><ele>797.0</ele><time>2026-05-02T15:33:22.907Z</time></trkpt><trkpt lat="42.1449484" lon="13.2890646"><ele>797.0</ele><time>2026-05-02T15:33:23.907Z</time></trkpt><trkpt lat="42.1449562" lon="13.2892037"><ele>797.0</ele><time>2026-05-02T15:33:24.907Z</time></trkpt><trkpt lat="42.1449633" lon="13.2893501"><ele>797.2</ele><time>2026-05-02T15:33:25.907Z</time></trkpt><trkpt lat="42.1449658" lon="13.2894858"><ele>797.4000000000001</ele><time>2026-05-02T15:33:26.907Z</time></trkpt><trkpt lat="42.144986" lon="13.28961"><ele>797.5999999999999</ele><time>2026-05-02T15:33:27.907Z</time></trkpt><trkpt lat="42.1450228" lon="13.2897358"><ele>797.8</ele><time>2026-05-02T15:33:28.907Z</time></trkpt><trkpt lat="42.1450681" lon="13.2898504"><ele>798.0</ele><time>2026-05-02T15:33:29.907Z</time></trkpt><trkpt lat="42.1451148" lon="13.2899393"><ele>798.0</ele><time>2026-05-02T15:33:30.907Z</time></trkpt><trkpt lat="42.1451515" lon="13.2900246"><ele>798.0</ele><time>2026-05-02T15:33:31.907Z</time></trkpt><trkpt lat="42.1452055" lon="13.2901593"><ele>798.0</ele><time>2026-05-02T15:33:33.907Z</time></trkpt><trkpt lat="42.1452426" lon="13.2902505"><ele>798.0</ele><time>2026-05-02T15:33:35.907Z</time></trkpt><trkpt lat="42.1453054" lon="13.2903492"><ele>798.0</ele><time>2026-05-02T15:34:02.907Z</time></trkpt><trkpt lat="42.1453614" lon="13.2904216"><ele>798.0</ele><time>2026-05-02T15:34:03.907Z</time></trkpt><trkpt lat="42.1454329" lon="13.290511"><ele>799.25</ele><time>2026-05-02T15:34:04.907Z</time></trkpt><trkpt lat="42.1455313" lon="13.2906086"><ele>800.5</ele><time>2026-05-02T15:34:05.907Z</time></trkpt><trkpt lat="42.145642" lon="13.290708"><ele>801.75</ele><time>2026-05-02T15:34:06.907Z</time></trkpt><trkpt lat="42.1457539" lon="13.2908015"><ele>803.0</ele><time>2026-05-02T15:34:07.907Z</time></trkpt><trkpt lat="42.1458576" lon="13.2908905"><ele>800.0</ele><time>2026-05-02T15:34:08.907Z</time></trkpt><trkpt lat="42.145946" lon="13.2909729"><ele>797.0</ele><time>2026-05-02T15:34:09.908Z</time></trkpt><trkpt lat="42.1460117" lon="13.2910418"><ele>794.0</ele><time>2026-05-02T15:34:10.907Z</time></trkpt><trkpt lat="42.1460813" lon="13.2911325"><ele>791.0</ele><time>2026-05-02T15:34:12.906Z</time></trkpt><trkpt lat="42.1461446" lon="13.2912354"><ele>788.0</ele><time>2026-05-02T15:34:14.907Z</time></trkpt><trkpt lat="42.1462417" lon="13.2913803"><ele>789.2</ele><time>2026-05-02T15:34:16.907Z</time></trkpt><trkpt lat="42.146316" lon="13.2914718"><ele>790.4</ele><time>2026-05-02T15:34:17.907Z</time></trkpt><trkpt lat="42.1463918" lon="13.291555"><ele>791.6</ele><time>2026-05-02T15:34:18.906Z</time></trkpt><trkpt lat="42.1464616" lon="13.2916418"><ele>792.8000000000001</ele><time>2026-05-02T15:34:19.908Z</time></trkpt><trkpt lat="42.1465234" lon="13.2917274"><ele>794.0</ele><time>2026-05-02T15:34:20.907Z</time></trkpt><trkpt lat="42.1465884" lon="13.2917934"><ele>791.6666666666667</ele><time>2026-05-02T15:34:21.907Z</time></trkpt><trkpt lat="42.14664" lon="13.2918462"><ele>789.3333333333334</ele><time>2026-05-02T15:34:22.907Z</time></trkpt><trkpt lat="42.1467389" lon="13.2918664"><ele>787.0</ele><time>2026-05-02T15:34:24.906Z</time></trkpt><trkpt lat="42.14683" lon="13.2917859"><ele>784.6666666666667</ele><time>2026-05-02T15:34:26.907Z</time></trkpt><trkpt lat="42.1468865" lon="13.2917277"><ele>782.3333333333334</ele><time>2026-05-02T15:34:27.908Z</time></trkpt><trkpt lat="42.146947" lon="13.2916662"><ele>780.0</ele><time>2026-05-02T15:34:28.907Z</time></trkpt><trkpt lat="42.147006" lon="13.291603"><ele>780.0</ele><time>2026-05-02T15:34:29.907Z</time></trkpt><trkpt lat="42.1470641" lon="13.2915557"><ele>780.0</ele><time>2026-05-02T15:34:30.907Z</time></trkpt><trkpt lat="42.147127" lon="13.2915282"><ele>780.0</ele><time>2026-05-02T15:34:31.907Z</time></trkpt><trkpt lat="42.1471905" lon="13.2915143"><ele>780.0</ele><time>2026-05-02T15:34:32.907Z</time></trkpt><trkpt lat="42.1472593" lon="13.2915037"><ele>780.0</ele><time>2026-05-02T15:34:33.907Z</time></trkpt><trkpt lat="42.1473583" lon="13.2915253"><ele>780.0</ele><time>2026-05-02T15:34:35.907Z</time></trkpt><trkpt lat="42.1474564" lon="13.2915752"><ele>777.5714285714286</ele><time>2026-05-02T15:34:37.907Z</time></trkpt><trkpt lat="42.1475345" lon="13.2916137"><ele>775.1428571428571</ele><time>2026-05-02T15:34:39.907Z</time></trkpt><trkpt lat="42.1475649" lon="13.2915244"><ele>772.7142857142858</ele><time>2026-05-02T15:34:43.907Z</time></trkpt><trkpt lat="42.1475201" lon="13.2914211"><ele>770.2857142857142</ele><time>2026-05-02T15:34:45.907Z</time></trkpt><trkpt lat="42.1474899" lon="13.2913436"><ele>767.8571428571429</ele><time>2026-05-02T15:34:46.906Z</time></trkpt><trkpt lat="42.1474603" lon="13.2912642"><ele>765.4285714285714</ele><time>2026-05-02T15:34:47.907Z</time></trkpt><trkpt lat="42.1474221" lon="13.2911874"><ele>763.0</ele><time>2026-05-02T15:34:48.908Z</time></trkpt><trkpt lat="42.1473871" lon="13.291046"><ele>761.0</ele><time>2026-05-02T15:34:50.906Z</time></trkpt><trkpt lat="42.1474406" lon="13.2909039"><ele>759.0</ele><time>2026-05-02T15:34:52.908Z</time></trkpt><trkpt lat="42.1474998" lon="13.2908049"><ele>757.0</ele><time>2026-05-02T15:34:53.907Z</time></trkpt><trkpt lat="42.1475472" lon="13.2907038"><ele>755.0</ele><time>2026-05-02T15:34:54.907Z</time></trkpt><trkpt lat="42.1475926" lon="13.2905951"><ele>753.0</ele><time>2026-05-02T15:34:55.908Z</time></trkpt><trkpt lat="42.1476484" lon="13.2905098"><ele>753.0</ele><time>2026-05-02T15:34:56.908Z</time></trkpt><trkpt lat="42.1477153" lon="13.2904233"><ele>753.0</ele><time>2026-05-02T15:34:57.907Z</time></trkpt><trkpt lat="42.1477945" lon="13.2903448"><ele>753.0</ele><time>2026-05-02T15:34:58.907Z</time></trkpt><trkpt lat="42.147903" lon="13.2902788"><ele>753.0</ele><time>2026-05-02T15:34:59.906Z</time></trkpt><trkpt lat="42.1480084" lon="13.2902143"><ele>753.0</ele><time>2026-05-02T15:35:00.908Z</time></trkpt><trkpt lat="42.1481329" lon="13.2901397"><ele>749.5</ele><time>2026-05-02T15:35:01.907Z</time></trkpt><trkpt lat="42.1482575" lon="13.2900635"><ele>746.0</ele><time>2026-05-02T15:35:02.907Z</time></trkpt><trkpt lat="42.1483825" lon="13.2899736"><ele>742.5</ele><time>2026-05-02T15:35:03.907Z</time></trkpt><trkpt lat="42.1484997" lon="13.2898731"><ele>739.0</ele><time>2026-05-02T15:35:04.907Z</time></trkpt><trkpt lat="42.1486163" lon="13.2897832"><ele>739.25</ele><time>2026-05-02T15:35:05.907Z</time></trkpt><trkpt lat="42.1487377" lon="13.2896977"><ele>739.5</ele><time>2026-05-02T15:35:06.907Z</time></trkpt><trkpt lat="42.1488426" lon="13.2896091"><ele>739.75</ele><time>2026-05-02T15:35:07.907Z</time></trkpt><trkpt lat="42.1489577" lon="13.2895083"><ele>740.0</ele><time>2026-05-02T15:35:08.907Z</time></trkpt><trkpt lat="42.1490507" lon="13.2893792"><ele>740.0</ele><time>2026-05-02T15:35:09.908Z</time></trkpt><trkpt lat="42.1491424" lon="13.2892466"><ele>740.0</ele><time>2026-05-02T15:35:10.906Z</time></trkpt><trkpt lat="42.1492112" lon="13.2891151"><ele>740.0</ele><time>2026-05-02T15:35:11.907Z</time></trkpt><trkpt lat="42.1492861" lon="13.2889867"><ele>740.0</ele><time>2026-05-02T15:35:12.906Z</time></trkpt><trkpt lat="42.1493541" lon="13.2889125"><ele>740.75</ele><time>2026-05-02T15:35:13.907Z</time></trkpt><trkpt lat="42.1494393" lon="13.2888419"><ele>741.5</ele><time>2026-05-02T15:35:14.907Z</time></trkpt><trkpt lat="42.1495217" lon="13.2887613"><ele>742.25</ele><time>2026-05-02T15:35:15.907Z</time></trkpt><trkpt lat="42.1496187" lon="13.2886432"><ele>743.0</ele><time>2026-05-02T15:35:16.908Z</time></trkpt><trkpt lat="42.1497168" lon="13.2885369"><ele>743.0</ele><time>2026-05-02T15:35:17.907Z</time></trkpt><trkpt lat="42.1498057" lon="13.2884294"><ele>743.0</ele><time>2026-05-02T15:35:18.907Z</time></trkpt><trkpt lat="42.1498885" lon="13.288305"><ele>743.0</ele><time>2026-05-02T15:35:19.906Z</time></trkpt><trkpt lat="42.1499785" lon="13.2881566"><ele>743.0</ele><time>2026-05-02T15:35:20.906Z</time></trkpt><trkpt lat="42.1500664" lon="13.2879966"><ele>740.5</ele><time>2026-05-02T15:35:21.907Z</time></trkpt><trkpt lat="42.1501425" lon="13.2878421"><ele>738.0</ele><time>2026-05-02T15:35:22.907Z</time></trkpt><trkpt lat="42.1502154" lon="13.2876983"><ele>735.5</ele><time>2026-05-02T15:35:23.907Z</time></trkpt><trkpt lat="42.1502857" lon="13.2875623"><ele>733.0</ele><time>2026-05-02T15:35:24.907Z</time></trkpt><trkpt lat="42.150351" lon="13.2874384"><ele>733.0</ele><time>2026-05-02T15:35:25.907Z</time></trkpt><trkpt lat="42.1504135" lon="13.2873188"><ele>733.0</ele><time>2026-05-02T15:35:26.907Z</time></trkpt><trkpt lat="42.1504795" lon="13.2872025"><ele>733.0</ele><time>2026-05-02T15:35:27.907Z</time></trkpt><trkpt lat="42.1505516" lon="13.2870949"><ele>733.0</ele><time>2026-05-02T15:35:28.907Z</time></trkpt><trkpt lat="42.1506196" lon="13.2870027"><ele>733.0</ele><time>2026-05-02T15:35:29.908Z</time></trkpt><trkpt lat="42.1506751" lon="13.2869416"><ele>732.4</ele><time>2026-05-02T15:35:30.908Z</time></trkpt><trkpt lat="42.1507434" lon="13.2868859"><ele>731.8</ele><time>2026-05-02T15:35:32.909Z</time></trkpt><trkpt lat="42.1508156" lon="13.2868662"><ele>731.2</ele><time>2026-05-02T15:35:34.907Z</time></trkpt><trkpt lat="42.1508917" lon="13.2868043"><ele>730.6</ele><time>2026-05-02T15:35:36.907Z</time></trkpt><trkpt lat="42.1509641" lon="13.2866815"><ele>730.0</ele><time>2026-05-02T15:35:38.907Z</time></trkpt><trkpt lat="42.1510483" lon="13.2865806"><ele>730.0</ele><time>2026-05-02T15:35:40.907Z</time></trkpt><trkpt lat="42.1511234" lon="13.286493"><ele>730.0</ele><time>2026-05-02T15:35:42.907Z</time></trkpt><trkpt lat="42.1511709" lon="13.2864085"><ele>730.0</ele><time>2026-05-02T15:35:44.907Z</time></trkpt><trkpt lat="42.1512165" lon="13.2863367"><ele>730.0</ele><time>2026-05-02T15:35:46.906Z</time></trkpt><trkpt lat="42.151261" lon="13.2862668"><ele>730.0</ele><time>2026-05-02T15:35:48.907Z</time></trkpt><trkpt lat="42.1513079" lon="13.2861789"><ele>730.0</ele><time>2026-05-02T15:35:50.907Z</time></trkpt><trkpt lat="42.1513862" lon="13.2860532"><ele>729.6666666666667</ele><time>2026-05-02T15:35:52.906Z</time></trkpt><trkpt lat="42.1514365" lon="13.2859695"><ele>729.3333333333334</ele><time>2026-05-02T15:35:53.908Z</time></trkpt><trkpt lat="42.1514834" lon="13.2858847"><ele>729.0</ele><time>2026-05-02T15:35:54.906Z</time></trkpt><trkpt lat="42.1515352" lon="13.2858126"><ele>728.6666666666666</ele><time>2026-05-02T15:35:55.907Z</time></trkpt><trkpt lat="42.1516212" lon="13.2857462"><ele>728.3333333333333</ele><time>2026-05-02T15:35:57.907Z</time></trkpt><trkpt lat="42.151694" lon="13.2856988"><ele>728.0</ele><time>2026-05-02T15:35:58.907Z</time></trkpt><trkpt lat="42.1517738" lon="13.285632"><ele>727.5999999999999</ele><time>2026-05-02T15:35:59.907Z</time></trkpt><trkpt lat="42.1518431" lon="13.2855622"><ele>727.1999999999999</ele><time>2026-05-02T15:36:00.908Z</time></trkpt><trkpt lat="42.1519159" lon="13.2854783"><ele>726.8</ele><time>2026-05-02T15:36:01.906Z</time></trkpt><trkpt lat="42.151997" lon="13.2853796"><ele>726.4</ele><time>2026-05-02T15:36:02.906Z</time></trkpt><trkpt lat="42.152082" lon="13.2852756"><ele>726.0</ele><time>2026-05-02T15:36:03.907Z</time></trkpt><trkpt lat="42.1521763" lon="13.2851791"><ele>726.0</ele><time>2026-05-02T15:36:04.906Z</time></trkpt><trkpt lat="42.1522643" lon="13.2850868"><ele>726.0</ele><time>2026-05-02T15:36:05.905Z</time></trkpt><trkpt lat="42.1523499" lon="13.284998"><ele>726.0</ele><time>2026-05-02T15:36:06.907Z</time></trkpt><trkpt lat="42.1524341" lon="13.2849206"><ele>726.0</ele><time>2026-05-02T15:36:07.907Z</time></trkpt><trkpt lat="42.1525122" lon="13.2848442"><ele>726.0</ele><time>2026-05-02T15:36:08.907Z</time></trkpt><trkpt lat="42.1525906" lon="13.2847474"><ele>725.5</ele><time>2026-05-02T15:36:09.908Z</time></trkpt><trkpt lat="42.1526692" lon="13.2846408"><ele>725.0</ele><time>2026-05-02T15:36:10.907Z</time></trkpt><trkpt lat="42.1527454" lon="13.2845409"><ele>724.5</ele><time>2026-05-02T15:36:11.908Z</time></trkpt><trkpt lat="42.1528409" lon="13.2844467"><ele>724.0</ele><time>2026-05-02T15:36:12.907Z</time></trkpt><trkpt lat="42.1529343" lon="13.2843394"><ele>724.0</ele><time>2026-05-02T15:36:13.908Z</time></trkpt><trkpt lat="42.153022" lon="13.284216"><ele>724.0</ele><time>2026-05-02T15:36:14.908Z</time></trkpt><trkpt lat="42.153112" lon="13.284088"><ele>724.0</ele><time>2026-05-02T15:36:15.907Z</time></trkpt><trkpt lat="42.1532042" lon="13.2839508"><ele>724.0</ele><time>2026-05-02T15:36:16.907Z</time></trkpt><trkpt lat="42.1532929" lon="13.2838076"><ele>724.75</ele><time>2026-05-02T15:36:17.906Z</time></trkpt><trkpt lat="42.1533751" lon="13.2836626"><ele>725.5</ele><time>2026-05-02T15:36:18.906Z</time></trkpt><trkpt lat="42.1534514" lon="13.2835109"><ele>726.25</ele><time>2026-05-02T15:36:19.906Z</time></trkpt><trkpt lat="42.1535308" lon="13.2833658"><ele>727.0</ele><time>2026-05-02T15:36:20.906Z</time></trkpt><trkpt lat="42.153612" lon="13.2832312"><ele>727.0</ele><time>2026-05-02T15:36:21.907Z</time></trkpt><trkpt lat="42.1536962" lon="13.2831075"><ele>727.0</ele><time>2026-05-02T15:36:22.907Z</time></trkpt><trkpt lat="42.1537833" lon="13.2829837"><ele>727.0</ele><time>2026-05-02T15:36:23.907Z</time></trkpt><trkpt lat="42.1538778" lon="13.2828526"><ele>727.0</ele><time>2026-05-02T15:36:24.907Z</time></trkpt><trkpt lat="42.1539803" lon="13.2827171"><ele>727.3333333333334</ele><time>2026-05-02T15:36:25.907Z</time></trkpt><trkpt lat="42.1540904" lon="13.2825703"><ele>727.6666666666666</ele><time>2026-05-02T15:36:26.906Z</time></trkpt><trkpt lat="42.1542031" lon="13.282422"><ele>728.0</ele><time>2026-05-02T15:36:27.907Z</time></trkpt><trkpt lat="42.1543202" lon="13.2822728"><ele>728.25</ele><time>2026-05-02T15:36:28.908Z</time></trkpt><trkpt lat="42.1544339" lon="13.2821376"><ele>728.5</ele><time>2026-05-02T15:36:29.907Z</time></trkpt><trkpt lat="42.1545493" lon="13.2820187"><ele>728.75</ele><time>2026-05-02T15:36:30.907Z</time></trkpt><trkpt lat="42.1546766" lon="13.2819111"><ele>729.0</ele><time>2026-05-02T15:36:31.907Z</time></trkpt><trkpt lat="42.1548064" lon="13.2818173"><ele>730.0</ele><time>2026-05-02T15:36:32.908Z</time></trkpt><trkpt lat="42.1549443" lon="13.2817271"><ele>731.0</ele><time>2026-05-02T15:36:33.908Z</time></trkpt><trkpt lat="42.1550775" lon="13.2816392"><ele>732.0</ele><time>2026-05-02T15:36:34.907Z</time></trkpt><trkpt lat="42.1552069" lon="13.2815382"><ele>731.3333333333334</ele><time>2026-05-02T15:36:35.906Z</time></trkpt><trkpt lat="42.1553368" lon="13.281432"><ele>730.6666666666667</ele><time>2026-05-02T15:36:36.907Z</time></trkpt><trkpt lat="42.155462" lon="13.281316"><ele>730.0</ele><time>2026-05-02T15:36:37.906Z</time></trkpt><trkpt lat="42.155594" lon="13.281186"><ele>731.3333333333334</ele><time>2026-05-02T15:36:38.907Z</time></trkpt><trkpt lat="42.1557263" lon="13.2810632"><ele>732.6666666666666</ele><time>2026-05-02T15:36:39.906Z</time></trkpt><trkpt lat="42.1558636" lon="13.2809438"><ele>734.0</ele><time>2026-05-02T15:36:40.907Z</time></trkpt><trkpt lat="42.1560062" lon="13.2808262"><ele>734.0</ele><time>2026-05-02T15:36:41.908Z</time></trkpt><trkpt lat="42.1561492" lon="13.2807129"><ele>734.0</ele><time>2026-05-02T15:36:42.907Z</time></trkpt><trkpt lat="42.1562967" lon="13.2805924"><ele>734.0</ele><time>2026-05-02T15:36:43.907Z</time></trkpt><trkpt lat="42.156448" lon="13.2804655"><ele>735.3333333333333</ele><time>2026-05-02T15:36:44.907Z</time></trkpt><trkpt lat="42.156589" lon="13.2803334"><ele>736.6666666666666</ele><time>2026-05-02T15:36:45.906Z</time></trkpt><trkpt lat="42.1567357" lon="13.2801972"><ele>738.0</ele><time>2026-05-02T15:36:46.907Z</time></trkpt><trkpt lat="42.1568792" lon="13.280084"><ele>738.0</ele><time>2026-05-02T15:36:47.907Z</time></trkpt><trkpt lat="42.1570222" lon="13.2799786"><ele>738.0</ele><time>2026-05-02T15:36:48.907Z</time></trkpt><trkpt lat="42.1571677" lon="13.2798809"><ele>738.0</ele><time>2026-05-02T15:36:49.907Z</time></trkpt><trkpt lat="42.1573347" lon="13.2798154"><ele>738.3333333333334</ele><time>2026-05-02T15:36:50.907Z</time></trkpt><trkpt lat="42.1574959" lon="13.2797432"><ele>738.6666666666667</ele><time>2026-05-02T15:36:51.907Z</time></trkpt><trkpt lat="42.157662" lon="13.2796763"><ele>739.0</ele><time>2026-05-02T15:36:52.906Z</time></trkpt><trkpt lat="42.1578289" lon="13.2796198"><ele>739.0</ele><time>2026-05-02T15:36:53.907Z</time></trkpt><trkpt lat="42.1580004" lon="13.2795694"><ele>739.0</ele><time>2026-05-02T15:36:54.908Z</time></trkpt><trkpt lat="42.1581685" lon="13.2795241"><ele>739.0</ele><time>2026-05-02T15:36:55.907Z</time></trkpt><trkpt lat="42.1583321" lon="13.2794919"><ele>740.3333333333334</ele><time>2026-05-02T15:36:56.906Z</time></trkpt><trkpt lat="42.158494" lon="13.2794614"><ele>741.6666666666666</ele><time>2026-05-02T15:36:57.907Z</time></trkpt><trkpt lat="42.1586555" lon="13.279437"><ele>743.0</ele><time>2026-05-02T15:36:58.907Z</time></trkpt><trkpt lat="42.1588076" lon="13.2794089"><ele>743.0</ele><time>2026-05-02T15:36:59.908Z</time></trkpt><trkpt lat="42.1589622" lon="13.27938"><ele>743.0</ele><time>2026-05-02T15:37:00.906Z</time></trkpt><trkpt lat="42.1591146" lon="13.2793431"><ele>743.0</ele><time>2026-05-02T15:37:01.907Z</time></trkpt><trkpt lat="42.1592667" lon="13.2793032"><ele>744.6666666666666</ele><time>2026-05-02T15:37:02.907Z</time></trkpt><trkpt lat="42.1594165" lon="13.2792566"><ele>746.3333333333334</ele><time>2026-05-02T15:37:03.907Z</time></trkpt><trkpt lat="42.1595679" lon="13.2792159"><ele>748.0</ele><time>2026-05-02T15:37:04.906Z</time></trkpt><trkpt lat="42.1597188" lon="13.2791777"><ele>748.75</ele><time>2026-05-02T15:37:05.907Z</time></trkpt><trkpt lat="42.1598687" lon="13.279146"><ele>749.5</ele><time>2026-05-02T15:37:06.905Z</time></trkpt><trkpt lat="42.1600128" lon="13.2791105"><ele>750.25</ele><time>2026-05-02T15:37:07.907Z</time></trkpt><trkpt lat="42.1601562" lon="13.2790771"><ele>751.0</ele><time>2026-05-02T15:37:08.907Z</time></trkpt><trkpt lat="42.1602995" lon="13.2790395"><ele>751.0</ele><time>2026-05-02T15:37:09.907Z</time></trkpt><trkpt lat="42.1604408" lon="13.2789957"><ele>751.0</ele><time>2026-05-02T15:37:10.906Z</time></trkpt><trkpt lat="42.1605776" lon="13.2789486"><ele>751.0</ele><time>2026-05-02T15:37:11.907Z</time></trkpt><trkpt lat="42.1607136" lon="13.2789034"><ele>751.0</ele><time>2026-05-02T15:37:12.907Z</time></trkpt><trkpt lat="42.1608532" lon="13.2788622"><ele>751.75</ele><time>2026-05-02T15:37:13.906Z</time></trkpt><trkpt lat="42.1609863" lon="13.2788239"><ele>752.5</ele><time>2026-05-02T15:37:14.907Z</time></trkpt><trkpt lat="42.1611225" lon="13.2787822"><ele>753.25</ele><time>2026-05-02T15:37:15.907Z</time></trkpt><trkpt lat="42.1612575" lon="13.2787462"><ele>754.0</ele><time>2026-05-02T15:37:16.907Z</time></trkpt><trkpt lat="42.1613913" lon="13.2787034"><ele>754.0</ele><time>2026-05-02T15:37:17.907Z</time></trkpt><trkpt lat="42.1615277" lon="13.2786625"><ele>754.0</ele><time>2026-05-02T15:37:18.907Z</time></trkpt><trkpt lat="42.1616634" lon="13.2786199"><ele>754.0</ele><time>2026-05-02T15:37:19.906Z</time></trkpt><trkpt lat="42.1617857" lon="13.2785851"><ele>754.0</ele><time>2026-05-02T15:37:20.907Z</time></trkpt><trkpt lat="42.1619074" lon="13.2785436"><ele>754.75</ele><time>2026-05-02T15:37:21.907Z</time></trkpt><trkpt lat="42.1620196" lon="13.2785076"><ele>755.5</ele><time>2026-05-02T15:37:22.907Z</time></trkpt><trkpt lat="42.1621288" lon="13.2784708"><ele>756.25</ele><time>2026-05-02T15:37:23.907Z</time></trkpt><trkpt lat="42.1622598" lon="13.2784209"><ele>757.0</ele><time>2026-05-02T15:37:24.907Z</time></trkpt><trkpt lat="42.1624081" lon="13.2783644"><ele>758.3333333333334</ele><time>2026-05-02T15:37:25.907Z</time></trkpt><trkpt lat="42.1625868" lon="13.2783044"><ele>759.6666666666666</ele><time>2026-05-02T15:37:26.907Z</time></trkpt><trkpt lat="42.162783" lon="13.2782411"><ele>761.0</ele><time>2026-05-02T15:37:27.906Z</time></trkpt><trkpt lat="42.1630086" lon="13.2781748"><ele>762.3333333333333</ele><time>2026-05-02T15:37:28.907Z</time></trkpt><trkpt lat="42.1632236" lon="13.2781099"><ele>763.6666666666666</ele><time>2026-05-02T15:37:29.906Z</time></trkpt><trkpt lat="42.1634157" lon="13.2780376"><ele>765.0</ele><time>2026-05-02T15:37:30.907Z</time></trkpt><trkpt lat="42.1635927" lon="13.2779415"><ele>765.0</ele><time>2026-05-02T15:37:31.906Z</time></trkpt><trkpt lat="42.1637633" lon="13.2778226"><ele>765.0</ele><time>2026-05-02T15:37:32.907Z</time></trkpt><trkpt lat="42.1639075" lon="13.2777052"><ele>765.0</ele><time>2026-05-02T15:37:33.907Z</time></trkpt><trkpt lat="42.1640305" lon="13.2776016"><ele>765.0</ele><time>2026-05-02T15:37:34.908Z</time></trkpt><trkpt lat="42.1641496" lon="13.2775253"><ele>765.0</ele><time>2026-05-02T15:37:35.906Z</time></trkpt><trkpt lat="42.1642646" lon="13.2774685"><ele>765.0</ele><time>2026-05-02T15:37:36.906Z</time></trkpt><trkpt lat="42.1643881" lon="13.2774459"><ele>765.0</ele><time>2026-05-02T15:37:37.907Z</time></trkpt><trkpt lat="42.1645301" lon="13.2774431"><ele>765.0</ele><time>2026-05-02T15:37:38.907Z</time></trkpt><trkpt lat="42.1646823" lon="13.2774546"><ele>765.0</ele><time>2026-05-02T15:37:39.906Z</time></trkpt><trkpt lat="42.164826" lon="13.2774659"><ele>765.0</ele><time>2026-05-02T15:37:40.906Z</time></trkpt><trkpt lat="42.1649644" lon="13.2774691"><ele>765.0</ele><time>2026-05-02T15:37:41.907Z</time></trkpt><trkpt lat="42.1651058" lon="13.2774644"><ele>764.5</ele><time>2026-05-02T15:37:42.907Z</time></trkpt><trkpt lat="42.165249" lon="13.2774542"><ele>764.0</ele><time>2026-05-02T15:37:43.907Z</time></trkpt><trkpt lat="42.1653944" lon="13.2774448"><ele>763.5</ele><time>2026-05-02T15:37:44.907Z</time></trkpt><trkpt lat="42.1655364" lon="13.2774467"><ele>763.0</ele><time>2026-05-02T15:37:45.907Z</time></trkpt><trkpt lat="42.1656757" lon="13.277447"><ele>762.5</ele><time>2026-05-02T15:37:46.907Z</time></trkpt><trkpt lat="42.1658158" lon="13.2774319"><ele>762.0</ele><time>2026-05-02T15:37:47.906Z</time></trkpt><trkpt lat="42.165961" lon="13.2774045"><ele>761.5</ele><time>2026-05-02T15:37:48.907Z</time></trkpt><trkpt lat="42.1661003" lon="13.2773481"><ele>761.0</ele><time>2026-05-02T15:37:49.906Z</time></trkpt><trkpt lat="42.166241" lon="13.2772826"><ele>760.75</ele><time>2026-05-02T15:37:50.907Z</time></trkpt><trkpt lat="42.1663731" lon="13.2772267"><ele>760.5</ele><time>2026-05-02T15:37:51.908Z</time></trkpt><trkpt lat="42.1664928" lon="13.2771697"><ele>760.25</ele><time>2026-05-02T15:37:52.907Z</time></trkpt><trkpt lat="42.1666067" lon="13.2771048"><ele>760.0</ele><time>2026-05-02T15:37:53.907Z</time></trkpt><trkpt lat="42.1667204" lon="13.2770359"><ele>761.2</ele><time>2026-05-02T15:37:54.907Z</time></trkpt><trkpt lat="42.1668325" lon="13.2769725"><ele>762.4</ele><time>2026-05-02T15:37:55.907Z</time></trkpt><trkpt lat="42.1669389" lon="13.2769316"><ele>763.5999999999999</ele><time>2026-05-02T15:37:56.905Z</time></trkpt><trkpt lat="42.1670414" lon="13.2769171"><ele>764.8</ele><time>2026-05-02T15:37:57.906Z</time></trkpt><trkpt lat="42.1671482" lon="13.2769108"><ele>766.0</ele><time>2026-05-02T15:37:58.907Z</time></trkpt><trkpt lat="42.1672529" lon="13.2769092"><ele>766.0</ele><time>2026-05-02T15:37:59.908Z</time></trkpt><trkpt lat="42.1673386" lon="13.2769104"><ele>766.0</ele><time>2026-05-02T15:38:00.907Z</time></trkpt><trkpt lat="42.1674086" lon="13.2769068"><ele>766.0</ele><time>2026-05-02T15:38:01.908Z</time></trkpt><trkpt lat="42.1674784" lon="13.2768285"><ele>766.0</ele><time>2026-05-02T15:38:03.907Z</time></trkpt><trkpt lat="42.1675286" lon="13.2766981"><ele>766.0</ele><time>2026-05-02T15:38:05.908Z</time></trkpt><trkpt lat="42.1675585" lon="13.2766022"><ele>766.0</ele><time>2026-05-02T15:38:06.907Z</time></trkpt><trkpt lat="42.1676456" lon="13.2764229"><ele>768.6666666666667</ele><time>2026-05-02T15:38:08.907Z</time></trkpt><trkpt lat="42.1676907" lon="13.2763182"><ele>771.3333333333334</ele><time>2026-05-02T15:38:09.906Z</time></trkpt><trkpt lat="42.1677498" lon="13.2762475"><ele>774.0</ele><time>2026-05-02T15:38:10.907Z</time></trkpt><trkpt lat="42.1678082" lon="13.2762075"><ele>776.6666666666667</ele><time>2026-05-02T15:38:11.906Z</time></trkpt><trkpt lat="42.1678708" lon="13.2761968"><ele>779.3333333333334</ele><time>2026-05-02T15:38:12.907Z</time></trkpt><trkpt lat="42.1679455" lon="13.2762235"><ele>782.0</ele><time>2026-05-02T15:38:13.907Z</time></trkpt><trkpt lat="42.1680214" lon="13.2762556"><ele>782.0</ele><time>2026-05-02T15:38:14.907Z</time></trkpt><trkpt lat="42.1681045" lon="13.2762856"><ele>782.0</ele><time>2026-05-02T15:38:15.906Z</time></trkpt><trkpt lat="42.168198" lon="13.2763015"><ele>782.0</ele><time>2026-05-02T15:38:16.907Z</time></trkpt><trkpt lat="42.1683008" lon="13.2762949"><ele>782.0</ele><time>2026-05-02T15:38:17.907Z</time></trkpt><trkpt lat="42.1684136" lon="13.2762733"><ele>782.0</ele><time>2026-05-02T15:38:18.907Z</time></trkpt><trkpt lat="42.1685262" lon="13.2762399"><ele>782.0</ele><time>2026-05-02T15:38:19.907Z</time></trkpt><trkpt lat="42.1686295" lon="13.2762099"><ele>782.0</ele><time>2026-05-02T15:38:20.906Z</time></trkpt><trkpt lat="42.1687305" lon="13.276187"><ele>782.0</ele><time>2026-05-02T15:38:21.907Z</time></trkpt><trkpt lat="42.1688367" lon="13.2761552"><ele>782.0</ele><time>2026-05-02T15:38:22.907Z</time></trkpt><trkpt lat="42.1689479" lon="13.2761192"><ele>782.0</ele><time>2026-05-02T15:38:23.907Z</time></trkpt><trkpt lat="42.1690645" lon="13.2760761"><ele>783.75</ele><time>2026-05-02T15:38:24.906Z</time></trkpt><trkpt lat="42.1691892" lon="13.2760367"><ele>785.5</ele><time>2026-05-02T15:38:25.908Z</time></trkpt><trkpt lat="42.1693183" lon="13.276004"><ele>787.25</ele><time>2026-05-02T15:38:26.906Z</time></trkpt><trkpt lat="42.1694524" lon="13.2759642"><ele>789.0</ele><time>2026-05-02T15:38:27.907Z</time></trkpt><trkpt lat="42.1695919" lon="13.2759212"><ele>789.0</ele><time>2026-05-02T15:38:28.908Z</time></trkpt><trkpt lat="42.1697317" lon="13.2758787"><ele>789.0</ele><time>2026-05-02T15:38:29.907Z</time></trkpt><trkpt lat="42.1698732" lon="13.2758317"><ele>789.0</ele><time>2026-05-02T15:38:30.906Z</time></trkpt><trkpt lat="42.1700181" lon="13.2757846"><ele>789.0</ele><time>2026-05-02T15:38:31.906Z</time></trkpt><trkpt lat="42.1701597" lon="13.275745"><ele>790.25</ele><time>2026-05-02T15:38:32.907Z</time></trkpt><trkpt lat="42.1702944" lon="13.2757144"><ele>791.5</ele><time>2026-05-02T15:38:33.907Z</time></trkpt><trkpt lat="42.170423" lon="13.27569"><ele>792.75</ele><time>2026-05-02T15:38:34.908Z</time></trkpt><trkpt lat="42.1705319" lon="13.275677"><ele>794.0</ele><time>2026-05-02T15:38:35.906Z</time></trkpt><trkpt lat="42.1706204" lon="13.2756669"><ele>794.0000000000001</ele><time>2026-05-02T15:38:36.907Z</time></trkpt><trkpt lat="42.1706836" lon="13.2756569"><ele>794.0</ele><time>2026-05-02T15:38:37.907Z</time></trkpt><trkpt lat="42.1707745" lon="13.2756395"><ele>794.0</ele><time>2026-05-02T15:38:39.906Z</time></trkpt><trkpt lat="42.1708536" lon="13.2756318"><ele>794.0</ele><time>2026-05-02T15:38:41.906Z</time></trkpt><trkpt lat="42.1709278" lon="13.2756132"><ele>794.0000000000001</ele><time>2026-05-02T15:38:42.907Z</time></trkpt><trkpt lat="42.1710135" lon="13.2756122"><ele>794.0</ele><time>2026-05-02T15:38:43.907Z</time></trkpt><trkpt lat="42.1711122" lon="13.2756261"><ele>795.5</ele><time>2026-05-02T15:38:44.906Z</time></trkpt><trkpt lat="42.1712202" lon="13.2756443"><ele>797.0</ele><time>2026-05-02T15:38:45.906Z</time></trkpt><trkpt lat="42.1713384" lon="13.2756644"><ele>798.5</ele><time>2026-05-02T15:38:46.907Z</time></trkpt><trkpt lat="42.1714607" lon="13.275694"><ele>800.0</ele><time>2026-05-02T15:38:47.907Z</time></trkpt><trkpt lat="42.1715842" lon="13.2757468"><ele>800.25</ele><time>2026-05-02T15:38:48.908Z</time></trkpt><trkpt lat="42.1716972" lon="13.2758209"><ele>800.5</ele><time>2026-05-02T15:38:49.907Z</time></trkpt><trkpt lat="42.1718157" lon="13.275893"><ele>800.75</ele><time>2026-05-02T15:38:50.908Z</time></trkpt><trkpt lat="42.1719474" lon="13.2759516"><ele>801.0</ele><time>2026-05-02T15:38:51.906Z</time></trkpt><trkpt lat="42.1720663" lon="13.2759981"><ele>801.0</ele><time>2026-05-02T15:38:52.907Z</time></trkpt><trkpt lat="42.1721709" lon="13.2760402"><ele>801.0</ele><time>2026-05-02T15:38:53.905Z</time></trkpt><trkpt lat="42.1722622" lon="13.2760815"><ele>801.0</ele><time>2026-05-02T15:38:54.906Z</time></trkpt><trkpt lat="42.1723374" lon="13.2761126"><ele>801.0</ele><time>2026-05-02T15:38:55.907Z</time></trkpt><trkpt lat="42.1724017" lon="13.2761414"><ele>801.0</ele><time>2026-05-02T15:38:56.907Z</time></trkpt><trkpt lat="42.1725103" lon="13.2761932"><ele>801.25</ele><time>2026-05-02T15:38:58.907Z</time></trkpt><trkpt lat="42.1726218" lon="13.2762449"><ele>801.5</ele><time>2026-05-02T15:39:00.907Z</time></trkpt><trkpt lat="42.1727417" lon="13.276293"><ele>801.75</ele><time>2026-05-02T15:39:02.907Z</time></trkpt><trkpt lat="42.172852" lon="13.2763271"><ele>802.0</ele><time>2026-05-02T15:39:04.908Z</time></trkpt><trkpt lat="42.1729639" lon="13.2763452"><ele>801.9999999999999</ele><time>2026-05-02T15:39:06.907Z</time></trkpt><trkpt lat="42.1730325" lon="13.2763614"><ele>802.0</ele><time>2026-05-02T15:39:07.907Z</time></trkpt><trkpt lat="42.173154" lon="13.2763682"><ele>802.0</ele><time>2026-05-02T15:39:09.906Z</time></trkpt><trkpt lat="42.1732179" lon="13.2763452"><ele>802.0</ele><time>2026-05-02T15:39:10.907Z</time></trkpt><trkpt lat="42.1732876" lon="13.2763097"><ele>801.9999999999999</ele><time>2026-05-02T15:39:11.906Z</time></trkpt><trkpt lat="42.1733605" lon="13.2762731"><ele>802.0</ele><time>2026-05-02T15:39:12.906Z</time></trkpt><trkpt lat="42.1734373" lon="13.2762422"><ele>804.5</ele><time>2026-05-02T15:39:13.907Z</time></trkpt><trkpt lat="42.1735325" lon="13.2762129"><ele>807.0</ele><time>2026-05-02T15:39:14.907Z</time></trkpt><trkpt lat="42.1736449" lon="13.2761791"><ele>809.5</ele><time>2026-05-02T15:39:15.907Z</time></trkpt><trkpt lat="42.1737742" lon="13.2761358"><ele>812.0</ele><time>2026-05-02T15:39:16.906Z</time></trkpt><trkpt lat="42.1738837" lon="13.2761022"><ele>812.0</ele><time>2026-05-02T15:39:17.907Z</time></trkpt><trkpt lat="42.173971" lon="13.2760854"><ele>812.0</ele><time>2026-05-02T15:39:18.907Z</time></trkpt><trkpt lat="42.1740407" lon="13.2760834"><ele>812.0</ele><time>2026-05-02T15:39:19.907Z</time></trkpt><trkpt lat="42.174121" lon="13.2761241"><ele>812.0</ele><time>2026-05-02T15:39:21.907Z</time></trkpt><trkpt lat="42.1742338" lon="13.2762351"><ele>812.0</ele><time>2026-05-02T15:39:23.907Z</time></trkpt><trkpt lat="42.1743193" lon="13.2763052"><ele>814.2</ele><time>2026-05-02T15:39:24.907Z</time></trkpt><trkpt lat="42.1744062" lon="13.27638"><ele>816.4000000000001</ele><time>2026-05-02T15:39:25.907Z</time></trkpt><trkpt lat="42.1745017" lon="13.2764597"><ele>818.5999999999999</ele><time>2026-05-02T15:39:26.907Z</time></trkpt><trkpt lat="42.1746039" lon="13.2765305"><ele>820.8</ele><time>2026-05-02T15:39:27.906Z</time></trkpt><trkpt lat="42.1747051" lon="13.2765854"><ele>823.0</ele><time>2026-05-02T15:39:28.906Z</time></trkpt><trkpt lat="42.1748112" lon="13.2766088"><ele>824.2</ele><time>2026-05-02T15:39:29.907Z</time></trkpt><trkpt lat="42.1749214" lon="13.2765952"><ele>825.4</ele><time>2026-05-02T15:39:30.907Z</time></trkpt><trkpt lat="42.1750237" lon="13.2765494"><ele>826.6</ele><time>2026-05-02T15:39:31.908Z</time></trkpt><trkpt lat="42.1751112" lon="13.2764658"><ele>827.8000000000001</ele><time>2026-05-02T15:39:32.907Z</time></trkpt><trkpt lat="42.1751827" lon="13.2763572"><ele>829.0</ele><time>2026-05-02T15:39:33.906Z</time></trkpt><trkpt lat="42.1752485" lon="13.2762458"><ele>829.1666666666666</ele><time>2026-05-02T15:39:34.907Z</time></trkpt><trkpt lat="42.1753039" lon="13.2761384"><ele>829.3333333333333</ele><time>2026-05-02T15:39:35.907Z</time></trkpt><trkpt lat="42.1753524" lon="13.2760489"><ele>829.5</ele><time>2026-05-02T15:39:36.906Z</time></trkpt><trkpt lat="42.1754343" lon="13.2759615"><ele>829.6666666666667</ele><time>2026-05-02T15:39:38.908Z</time></trkpt><trkpt lat="42.1754984" lon="13.2760292"><ele>829.8333333333334</ele><time>2026-05-02T15:39:41.906Z</time></trkpt><trkpt lat="42.1754867" lon="13.2759233"><ele>830.0</ele><time>2026-05-02T15:40:01.908Z</time></trkpt><trkpt lat="42.1754715" lon="13.2758113"><ele>830.0</ele><time>2026-05-02T15:40:03.908Z</time></trkpt><trkpt lat="42.1755181" lon="13.2757239"><ele>830.0</ele><time>2026-05-02T15:40:04.906Z</time></trkpt><trkpt lat="42.1755741" lon="13.2756171"><ele>830.0</ele><time>2026-05-02T15:40:05.908Z</time></trkpt><trkpt lat="42.1756446" lon="13.2755136"><ele>830.0</ele><time>2026-05-02T15:40:06.907Z</time></trkpt><trkpt lat="42.1757364" lon="13.2754315"><ele>830.0</ele><time>2026-05-02T15:40:07.907Z</time></trkpt><trkpt lat="42.1758603" lon="13.2753658"><ele>830.0</ele><time>2026-05-02T15:40:08.906Z</time></trkpt><trkpt lat="42.1760144" lon="13.2753216"><ele>830.0</ele><time>2026-05-02T15:40:09.906Z</time></trkpt><trkpt lat="42.176197" lon="13.2752708"><ele>830.0</ele><time>2026-05-02T15:40:10.908Z</time></trkpt><trkpt lat="42.1763772" lon="13.2752267"><ele>827.3333333333334</ele><time>2026-05-02T15:40:11.906Z</time></trkpt><trkpt lat="42.1765487" lon="13.2751692"><ele>824.6666666666667</ele><time>2026-05-02T15:40:12.908Z</time></trkpt><trkpt lat="42.1767084" lon="13.2751191"><ele>822.0</ele><time>2026-05-02T15:40:13.907Z</time></trkpt><trkpt lat="42.1768488" lon="13.2750722"><ele>822.0</ele><time>2026-05-02T15:40:14.906Z</time></trkpt><trkpt lat="42.1769765" lon="13.2750258"><ele>822.0</ele><time>2026-05-02T15:40:15.907Z</time></trkpt><trkpt lat="42.1770904" lon="13.2750011"><ele>822.0</ele><time>2026-05-02T15:40:16.907Z</time></trkpt><trkpt lat="42.1771812" lon="13.2750076"><ele>822.0</ele><time>2026-05-02T15:40:17.906Z</time></trkpt><trkpt lat="42.1772542" lon="13.2750389"><ele>822.0</ele><time>2026-05-02T15:40:18.907Z</time></trkpt><trkpt lat="42.177302" lon="13.2751015"><ele>822.0</ele><time>2026-05-02T15:40:19.907Z</time></trkpt><trkpt lat="42.1773371" lon="13.2751777"><ele>822.0</ele><time>2026-05-02T15:40:20.907Z</time></trkpt><trkpt lat="42.177345" lon="13.2752843"><ele>822.0</ele><time>2026-05-02T15:40:22.906Z</time></trkpt><trkpt lat="42.1773325" lon="13.2753899"><ele>822.0</ele><time>2026-05-02T15:40:25.907Z</time></trkpt><trkpt lat="42.1772779" lon="13.2754384"><ele>822.0</ele><time>2026-05-02T15:40:30.908Z</time></trkpt><trkpt lat="42.1773146" lon="13.2755077"><ele>822.0</ele><time>2026-05-02T15:40:42.907Z</time></trkpt><trkpt lat="42.1773786" lon="13.27547"><ele>822.0</ele><time>2026-05-02T15:40:45.907Z</time></trkpt><trkpt lat="42.177415" lon="13.2753361"><ele>821.5</ele><time>2026-05-02T15:40:47.907Z</time></trkpt><trkpt lat="42.1774289" lon="13.2751974"><ele>821.0</ele><time>2026-05-02T15:40:49.906Z</time></trkpt><trkpt lat="42.1774834" lon="13.2751268"><ele>820.5</ele><time>2026-05-02T15:40:51.907Z</time></trkpt><trkpt lat="42.1775496" lon="13.2751755"><ele>820.0</ele><time>2026-05-02T15:40:54.907Z</time></trkpt><trkpt lat="42.1775497" lon="13.2752755"><ele>819.5</ele><time>2026-05-02T15:40:57.908Z</time></trkpt><trkpt lat="42.1775612" lon="13.2753633"><ele>819.0</ele><time>2026-05-02T15:41:34.907Z</time></trkpt><trkpt lat="42.1775513" lon="13.2754626"><ele>819.0</ele><time>2026-05-02T15:41:35.907Z</time></trkpt><trkpt lat="42.1775507" lon="13.2755749"><ele>819.0</ele><time>2026-05-02T15:41:36.907Z</time></trkpt><trkpt lat="42.177566" lon="13.275685"><ele>819.0</ele><time>2026-05-02T15:41:37.906Z</time></trkpt><trkpt lat="42.1775921" lon="13.275786"><ele>819.0</ele><time>2026-05-02T15:41:38.907Z</time></trkpt><trkpt lat="42.1776235" lon="13.2758984"><ele>819.0</ele><time>2026-05-02T15:41:39.905Z</time></trkpt><trkpt lat="42.1776471" lon="13.2759972"><ele>819.0</ele><time>2026-05-02T15:41:40.907Z</time></trkpt><trkpt lat="42.1776689" lon="13.2760898"><ele>819.2</ele><time>2026-05-02T15:41:41.908Z</time></trkpt><trkpt lat="42.1776843" lon="13.2762024"><ele>819.4000000000001</ele><time>2026-05-02T15:41:42.908Z</time></trkpt><trkpt lat="42.1776801" lon="13.2763444"><ele>819.6</ele><time>2026-05-02T15:41:43.906Z</time></trkpt><trkpt lat="42.1776608" lon="13.2764876"><ele>819.8</ele><time>2026-05-02T15:41:44.906Z</time></trkpt><trkpt lat="42.1776302" lon="13.2766518"><ele>820.0</ele><time>2026-05-02T15:41:45.907Z</time></trkpt><trkpt lat="42.1776038" lon="13.2768195"><ele>820.5</ele><time>2026-05-02T15:41:46.906Z</time></trkpt><trkpt lat="42.1775851" lon="13.2769797"><ele>821.0</ele><time>2026-05-02T15:41:47.907Z</time></trkpt><trkpt lat="42.1775798" lon="13.2771225"><ele>821.5</ele><time>2026-05-02T15:41:48.907Z</time></trkpt><trkpt lat="42.1775675" lon="13.2772943"><ele>822.0</ele><time>2026-05-02T15:41:49.905Z</time></trkpt><trkpt lat="42.1775558" lon="13.2774642"><ele>822.5</ele><time>2026-05-02T15:41:50.907Z</time></trkpt><trkpt lat="42.1775496" lon="13.2776329"><ele>823.0</ele><time>2026-05-02T15:41:51.906Z</time></trkpt><trkpt lat="42.1775378" lon="13.2777865"><ele>823.5</ele><time>2026-05-02T15:41:52.906Z</time></trkpt><trkpt lat="42.1775189" lon="13.2779372"><ele>824.0</ele><time>2026-05-02T15:41:53.908Z</time></trkpt><trkpt lat="42.1774889" lon="13.2780669"><ele>824.4000000000001</ele><time>2026-05-02T15:41:54.908Z</time></trkpt><trkpt lat="42.1774448" lon="13.2781571"><ele>824.8</ele><time>2026-05-02T15:41:55.906Z</time></trkpt><trkpt lat="42.1773819" lon="13.2782616"><ele>825.2</ele><time>2026-05-02T15:41:56.907Z</time></trkpt><trkpt lat="42.1773108" lon="13.2783625"><ele>825.5999999999999</ele><time>2026-05-02T15:41:57.906Z</time></trkpt><trkpt lat="42.1772412" lon="13.2784453"><ele>826.0</ele><time>2026-05-02T15:41:58.907Z</time></trkpt><trkpt lat="42.1771958" lon="13.2785329"><ele>827.1666666666666</ele><time>2026-05-02T15:41:59.906Z</time></trkpt><trkpt lat="42.1771651" lon="13.2786282"><ele>828.3333333333333</ele><time>2026-05-02T15:42:00.907Z</time></trkpt><trkpt lat="42.1771281" lon="13.2787205"><ele>829.5</ele><time>2026-05-02T15:42:01.907Z</time></trkpt><trkpt lat="42.177074" lon="13.2788089"><ele>830.6666666666667</ele><time>2026-05-02T15:42:02.907Z</time></trkpt><trkpt lat="42.1770134" lon="13.2788639"><ele>831.8333333333334</ele><time>2026-05-02T15:42:03.907Z</time></trkpt><trkpt lat="42.1769313" lon="13.2789428"><ele>833.0</ele><time>2026-05-02T15:42:05.906Z</time></trkpt><trkpt lat="42.1769507" lon="13.279063"><ele>833.3333333333334</ele><time>2026-05-02T15:42:14.907Z</time></trkpt><trkpt lat="42.177007" lon="13.2791627"><ele>833.6666666666667</ele><time>2026-05-02T15:42:15.907Z</time></trkpt><trkpt lat="42.1770592" lon="13.2792802"><ele>834.0</ele><time>2026-05-02T15:42:16.907Z</time></trkpt><trkpt lat="42.1770974" lon="13.279371"><ele>834.3333333333333</ele><time>2026-05-02T15:42:17.907Z</time></trkpt><trkpt lat="42.1771326" lon="13.2794597"><ele>834.6666666666666</ele><time>2026-05-02T15:42:18.908Z</time></trkpt><trkpt lat="42.1771565" lon="13.2795621"><ele>835.0</ele><time>2026-05-02T15:42:19.907Z</time></trkpt><trkpt lat="42.1771927" lon="13.2796606"><ele>835.0</ele><time>2026-05-02T15:42:20.907Z</time></trkpt><trkpt lat="42.1772476" lon="13.2797603"><ele>835.0</ele><time>2026-05-02T15:42:21.905Z</time></trkpt><trkpt lat="42.177307" lon="13.2798646"><ele>835.0</ele><time>2026-05-02T15:42:22.907Z</time></trkpt><trkpt lat="42.1773702" lon="13.2799892"><ele>835.0</ele><time>2026-05-02T15:42:23.908Z</time></trkpt><trkpt lat="42.1774419" lon="13.2801307"><ele>835.0</ele><time>2026-05-02T15:42:24.908Z</time></trkpt><trkpt lat="42.1775174" lon="13.2802797"><ele>835.25</ele><time>2026-05-02T15:42:25.906Z</time></trkpt><trkpt lat="42.1775944" lon="13.2804296"><ele>835.5</ele><time>2026-05-02T15:42:26.907Z</time></trkpt><trkpt lat="42.17767" lon="13.2805651"><ele>835.75</ele><time>2026-05-02T15:42:27.907Z</time></trkpt><trkpt lat="42.1777457" lon="13.2807084"><ele>836.0</ele><time>2026-05-02T15:42:28.908Z</time></trkpt><trkpt lat="42.1778127" lon="13.280853"><ele>836.75</ele><time>2026-05-02T15:42:29.907Z</time></trkpt><trkpt lat="42.1778852" lon="13.2809902"><ele>837.5</ele><time>2026-05-02T15:42:30.908Z</time></trkpt><trkpt lat="42.1779512" lon="13.2811255"><ele>838.25</ele><time>2026-05-02T15:42:31.906Z</time></trkpt><trkpt lat="42.1780018" lon="13.2812646"><ele>839.0</ele><time>2026-05-02T15:42:32.908Z</time></trkpt><trkpt lat="42.1780619" lon="13.2813803"><ele>839.2</ele><time>2026-05-02T15:42:33.908Z</time></trkpt><trkpt lat="42.1781288" lon="13.2814727"><ele>839.4000000000001</ele><time>2026-05-02T15:42:34.906Z</time></trkpt><trkpt lat="42.1782183" lon="13.2815578"><ele>839.6</ele><time>2026-05-02T15:42:35.907Z</time></trkpt><trkpt lat="42.1783066" lon="13.2816397"><ele>839.8</ele><time>2026-05-02T15:42:36.907Z</time></trkpt><trkpt lat="42.1783978" lon="13.2817138"><ele>840.0</ele><time>2026-05-02T15:42:37.907Z</time></trkpt><trkpt lat="42.1784794" lon="13.2817563"><ele>840.2</ele><time>2026-05-02T15:42:38.907Z</time></trkpt><trkpt lat="42.1785522" lon="13.2817757"><ele>840.4</ele><time>2026-05-02T15:42:39.907Z</time></trkpt><trkpt lat="42.1786245" lon="13.2817757"><ele>840.5999999999999</ele><time>2026-05-02T15:42:40.906Z</time></trkpt><trkpt lat="42.1787377" lon="13.2817444"><ele>840.8</ele><time>2026-05-02T15:42:42.907Z</time></trkpt><trkpt lat="42.1788506" lon="13.2816624"><ele>841.0</ele><time>2026-05-02T15:42:44.906Z</time></trkpt><trkpt lat="42.178921" lon="13.2816038"><ele>841.0</ele><time>2026-05-02T15:42:45.907Z</time></trkpt><trkpt lat="42.1789924" lon="13.2815584"><ele>841.0</ele><time>2026-05-02T15:42:46.907Z</time></trkpt><trkpt lat="42.1790551" lon="13.2815339"><ele>841.0</ele><time>2026-05-02T15:42:47.907Z</time></trkpt><trkpt lat="42.1791586" lon="13.2815583"><ele>841.0</ele><time>2026-05-02T15:42:49.908Z</time></trkpt><trkpt lat="42.1792121" lon="13.2816913"><ele>841.0</ele><time>2026-05-02T15:42:52.907Z</time></trkpt><trkpt lat="42.1792872" lon="13.281794"><ele>839.8333333333333</ele><time>2026-05-02T15:42:54.907Z</time></trkpt><trkpt lat="42.1793609" lon="13.2817775"><ele>838.6666666666666</ele><time>2026-05-02T15:42:56.907Z</time></trkpt><trkpt lat="42.1794173" lon="13.281656"><ele>837.5</ele><time>2026-05-02T15:42:58.906Z</time></trkpt><trkpt lat="42.1794431" lon="13.2815727"><ele>836.3333333333333</ele><time>2026-05-02T15:42:59.907Z</time></trkpt><trkpt lat="42.1794741" lon="13.2814956"><ele>835.1666666666666</ele><time>2026-05-02T15:43:00.906Z</time></trkpt><trkpt lat="42.1795415" lon="13.281381"><ele>834.0</ele><time>2026-05-02T15:43:02.907Z</time></trkpt><trkpt lat="42.1795839" lon="13.2813093"><ele>833.0</ele><time>2026-05-02T15:43:03.907Z</time></trkpt><trkpt lat="42.1796383" lon="13.2812045"><ele>832.0</ele><time>2026-05-02T15:43:04.907Z</time></trkpt><trkpt lat="42.1796989" lon="13.2810682"><ele>831.0</ele><time>2026-05-02T15:43:05.905Z</time></trkpt><trkpt lat="42.1797687" lon="13.2809084"><ele>830.0</ele><time>2026-05-02T15:43:06.907Z</time></trkpt><trkpt lat="42.1798459" lon="13.2807368"><ele>828.3333333333334</ele><time>2026-05-02T15:43:07.907Z</time></trkpt><trkpt lat="42.1799388" lon="13.2805542"><ele>826.6666666666667</ele><time>2026-05-02T15:43:08.906Z</time></trkpt><trkpt lat="42.1800454" lon="13.2803705"><ele>825.0</ele><time>2026-05-02T15:43:09.907Z</time></trkpt><trkpt lat="42.1801597" lon="13.2801935"><ele>825.0</ele><time>2026-05-02T15:43:10.906Z</time></trkpt><trkpt lat="42.1802875" lon="13.280027"><ele>825.0</ele><time>2026-05-02T15:43:11.907Z</time></trkpt><trkpt lat="42.1804292" lon="13.2798734"><ele>825.0</ele><time>2026-05-02T15:43:12.908Z</time></trkpt><trkpt lat="42.180562" lon="13.2797317"><ele>824.3333333333334</ele><time>2026-05-02T15:43:13.907Z</time></trkpt><trkpt lat="42.1806611" lon="13.2795997"><ele>823.6666666666667</ele><time>2026-05-02T15:43:14.906Z</time></trkpt><trkpt lat="42.1807119" lon="13.2794816"><ele>823.0</ele><time>2026-05-02T15:43:15.907Z</time></trkpt><trkpt lat="42.1807224" lon="13.2793858"><ele>822.3333333333334</ele><time>2026-05-02T15:43:16.906Z</time></trkpt><trkpt lat="42.1807092" lon="13.2792979"><ele>821.6666666666667</ele><time>2026-05-02T15:43:17.906Z</time></trkpt><trkpt lat="42.1806923" lon="13.2792151"><ele>821.0</ele><time>2026-05-02T15:43:18.907Z</time></trkpt><trkpt lat="42.1806308" lon="13.2790692"><ele>820.8333333333334</ele><time>2026-05-02T15:43:20.907Z</time></trkpt><trkpt lat="42.1805937" lon="13.278974"><ele>820.6666666666667</ele><time>2026-05-02T15:43:21.907Z</time></trkpt><trkpt lat="42.1805756" lon="13.2788593"><ele>820.5</ele><time>2026-05-02T15:43:22.907Z</time></trkpt><trkpt lat="42.1805787" lon="13.2787403"><ele>820.3333333333333</ele><time>2026-05-02T15:43:23.908Z</time></trkpt><trkpt lat="42.1805907" lon="13.2786344"><ele>820.1666666666666</ele><time>2026-05-02T15:43:24.906Z</time></trkpt><trkpt lat="42.1806038" lon="13.2785317"><ele>820.0</ele><time>2026-05-02T15:43:25.905Z</time></trkpt><trkpt lat="42.1806189" lon="13.2784052"><ele>819.75</ele><time>2026-05-02T15:43:26.906Z</time></trkpt><trkpt lat="42.1806375" lon="13.2782394"><ele>819.5</ele><time>2026-05-02T15:43:27.907Z</time></trkpt><trkpt lat="42.1806645" lon="13.2780489"><ele>819.25</ele><time>2026-05-02T15:43:28.907Z</time></trkpt><trkpt lat="42.1806938" lon="13.2778419"><ele>819.0</ele><time>2026-05-02T15:43:29.906Z</time></trkpt><trkpt lat="42.1807216" lon="13.2776333"><ele>818.0</ele><time>2026-05-02T15:43:30.906Z</time></trkpt><trkpt lat="42.1807476" lon="13.2774281"><ele>817.0</ele><time>2026-05-02T15:43:31.907Z</time></trkpt><trkpt lat="42.1807736" lon="13.2772328"><ele>816.0</ele><time>2026-05-02T15:43:32.907Z</time></trkpt><trkpt lat="42.1808018" lon="13.2770487"><ele>815.0</ele><time>2026-05-02T15:43:33.907Z</time></trkpt><trkpt lat="42.1808347" lon="13.2768517"><ele>814.3333333333334</ele><time>2026-05-02T15:43:34.907Z</time></trkpt><trkpt lat="42.1808688" lon="13.2766504"><ele>813.6666666666667</ele><time>2026-05-02T15:43:35.907Z</time></trkpt><trkpt lat="42.1809027" lon="13.2764433"><ele>813.0</ele><time>2026-05-02T15:43:36.906Z</time></trkpt><trkpt lat="42.1809344" lon="13.2762343"><ele>812.3333333333333</ele><time>2026-05-02T15:43:37.906Z</time></trkpt><trkpt lat="42.1809711" lon="13.2760163"><ele>811.6666666666666</ele><time>2026-05-02T15:43:38.907Z</time></trkpt><trkpt lat="42.1810067" lon="13.2757993"><ele>811.0</ele><time>2026-05-02T15:43:39.907Z</time></trkpt><trkpt lat="42.1810479" lon="13.2755837"><ele>810.3333333333333</ele><time>2026-05-02T15:43:40.907Z</time></trkpt><trkpt lat="42.1810894" lon="13.2753726"><ele>809.6666666666667</ele><time>2026-05-02T15:43:41.907Z</time></trkpt><trkpt lat="42.1811315" lon="13.2751714"><ele>809.0</ele><time>2026-05-02T15:43:42.907Z</time></trkpt><trkpt lat="42.1811691" lon="13.2749747"><ele>809.0</ele><time>2026-05-02T15:43:43.908Z</time></trkpt><trkpt lat="42.1812084" lon="13.2747892"><ele>809.0</ele><time>2026-05-02T15:43:44.905Z</time></trkpt><trkpt lat="42.1812459" lon="13.2746141"><ele>809.0</ele><time>2026-05-02T15:43:45.906Z</time></trkpt><trkpt lat="42.1812806" lon="13.2744546"><ele>809.0</ele><time>2026-05-02T15:43:46.907Z</time></trkpt><trkpt lat="42.1813126" lon="13.2743114"><ele>808.3333333333334</ele><time>2026-05-02T15:43:47.906Z</time></trkpt><trkpt lat="42.1813441" lon="13.2741848"><ele>807.6666666666667</ele><time>2026-05-02T15:43:48.908Z</time></trkpt><trkpt lat="42.1813751" lon="13.2740885"><ele>807.0</ele><time>2026-05-02T15:43:49.907Z</time></trkpt><trkpt lat="42.1814042" lon="13.2740033"><ele>806.3333333333333</ele><time>2026-05-02T15:43:50.907Z</time></trkpt><trkpt lat="42.1814411" lon="13.2739158"><ele>805.6666666666666</ele><time>2026-05-02T15:43:52.907Z</time></trkpt><trkpt lat="42.1814473" lon="13.2738106"><ele>805.0</ele><time>2026-05-02T15:43:58.906Z</time></trkpt><trkpt lat="42.1814944" lon="13.2736986"><ele>804.6</ele><time>2026-05-02T15:44:00.906Z</time></trkpt><trkpt lat="42.1816151" lon="13.2735991"><ele>804.2</ele><time>2026-05-02T15:44:02.908Z</time></trkpt><trkpt lat="42.1816835" lon="13.2735324"><ele>803.8</ele><time>2026-05-02T15:44:03.908Z</time></trkpt><trkpt lat="42.181765" lon="13.2734169"><ele>803.4</ele><time>2026-05-02T15:44:04.907Z</time></trkpt><trkpt lat="42.1818337" lon="13.2733155"><ele>803.0</ele><time>2026-05-02T15:44:05.906Z</time></trkpt><trkpt lat="42.1818973" lon="13.2732149"><ele>803.0000000000001</ele><time>2026-05-02T15:44:06.907Z</time></trkpt><trkpt lat="42.1819519" lon="13.2731255"><ele>803.0</ele><time>2026-05-02T15:44:07.906Z</time></trkpt><trkpt lat="42.1820043" lon="13.2730362"><ele>803.0</ele><time>2026-05-02T15:44:08.908Z</time></trkpt><trkpt lat="42.1820497" lon="13.2729553"><ele>803.0</ele><time>2026-05-02T15:44:09.906Z</time></trkpt><trkpt lat="42.1821018" lon="13.2728806"><ele>803.0000000000001</ele><time>2026-05-02T15:44:10.908Z</time></trkpt><trkpt lat="42.1821619" lon="13.2728035"><ele>803.0</ele><time>2026-05-02T15:44:11.907Z</time></trkpt><trkpt lat="42.1822183" lon="13.2727369"><ele>802.8</ele><time>2026-05-02T15:44:12.907Z</time></trkpt><trkpt lat="42.1822808" lon="13.2726802"><ele>802.5999999999999</ele><time>2026-05-02T15:44:13.906Z</time></trkpt><trkpt lat="42.1823512" lon="13.2726282"><ele>802.4000000000001</ele><time>2026-05-02T15:44:14.907Z</time></trkpt><trkpt lat="42.1824186" lon="13.2725657"><ele>802.2</ele><time>2026-05-02T15:44:15.906Z</time></trkpt><trkpt lat="42.1824945" lon="13.272479"><ele>802.0</ele><time>2026-05-02T15:44:16.908Z</time></trkpt><trkpt lat="42.1825746" lon="13.2723688"><ele>802.0</ele><time>2026-05-02T15:44:17.905Z</time></trkpt><trkpt lat="42.182655" lon="13.2722305"><ele>802.0</ele><time>2026-05-02T15:44:18.907Z</time></trkpt><trkpt lat="42.1827523" lon="13.2720929"><ele>802.0</ele><time>2026-05-02T15:44:19.906Z</time></trkpt><trkpt lat="42.1828423" lon="13.2719611"><ele>802.0</ele><time>2026-05-02T15:44:20.907Z</time></trkpt><trkpt lat="42.1829205" lon="13.2718275"><ele>802.0</ele><time>2026-05-02T15:44:21.906Z</time></trkpt><trkpt lat="42.1829909" lon="13.2716951"><ele>802.0</ele><time>2026-05-02T15:44:22.907Z</time></trkpt><trkpt lat="42.1830542" lon="13.2715653"><ele>802.0</ele><time>2026-05-02T15:44:23.907Z</time></trkpt><trkpt lat="42.1831042" lon="13.2714178"><ele>802.0</ele><time>2026-05-02T15:44:24.907Z</time></trkpt><trkpt lat="42.1831611" lon="13.2712883"><ele>801.6</ele><time>2026-05-02T15:44:25.907Z</time></trkpt><trkpt lat="42.1832198" lon="13.2711735"><ele>801.2</ele><time>2026-05-02T15:44:26.906Z</time></trkpt><trkpt lat="42.1832774" lon="13.2710717"><ele>800.8</ele><time>2026-05-02T15:44:27.908Z</time></trkpt><trkpt lat="42.1833446" lon="13.2710071"><ele>800.4</ele><time>2026-05-02T15:44:28.907Z</time></trkpt><trkpt lat="42.183418" lon="13.2709555"><ele>800.0</ele><time>2026-05-02T15:44:29.907Z</time></trkpt><trkpt lat="42.1835035" lon="13.270935"><ele>800.0</ele><time>2026-05-02T15:44:30.907Z</time></trkpt><trkpt lat="42.183594" lon="13.2709156"><ele>800.0</ele><time>2026-05-02T15:44:31.906Z</time></trkpt><trkpt lat="42.1837339" lon="13.270929"><ele>800.0</ele><time>2026-05-02T15:44:32.906Z</time></trkpt><trkpt lat="42.1838555" lon="13.2709302"><ele>800.0</ele><time>2026-05-02T15:44:33.905Z</time></trkpt><trkpt lat="42.1839982" lon="13.2709042"><ele>800.0</ele><time>2026-05-02T15:44:34.907Z</time></trkpt><trkpt lat="42.1841247" lon="13.2708895"><ele>800.0</ele><time>2026-05-02T15:44:35.907Z</time></trkpt><trkpt lat="42.1842427" lon="13.270866"><ele>800.0</ele><time>2026-05-02T15:44:36.907Z</time></trkpt><trkpt lat="42.1843545" lon="13.2708186"><ele>800.0</ele><time>2026-05-02T15:44:37.907Z</time></trkpt><trkpt lat="42.1844629" lon="13.2707458"><ele>800.0</ele><time>2026-05-02T15:44:38.907Z</time></trkpt><trkpt lat="42.1845852" lon="13.2706539"><ele>800.0</ele><time>2026-05-02T15:44:39.907Z</time></trkpt><trkpt lat="42.1847111" lon="13.2705414"><ele>800.0</ele><time>2026-05-02T15:44:40.906Z</time></trkpt><trkpt lat="42.1848432" lon="13.2704164"><ele>800.6666666666667</ele><time>2026-05-02T15:44:41.906Z</time></trkpt><trkpt lat="42.184975" lon="13.2702865"><ele>801.3333333333333</ele><time>2026-05-02T15:44:42.907Z</time></trkpt><trkpt lat="42.1851064" lon="13.2701614"><ele>802.0</ele><time>2026-05-02T15:44:43.907Z</time></trkpt><trkpt lat="42.1852408" lon="13.2700484"><ele>802.0</ele><time>2026-05-02T15:44:44.907Z</time></trkpt><trkpt lat="42.1853782" lon="13.2699465"><ele>802.0</ele><time>2026-05-02T15:44:45.906Z</time></trkpt><trkpt lat="42.1855175" lon="13.2698458"><ele>802.0</ele><time>2026-05-02T15:44:46.908Z</time></trkpt><trkpt lat="42.1856579" lon="13.269755"><ele>802.25</ele><time>2026-05-02T15:44:47.907Z</time></trkpt><trkpt lat="42.185792" lon="13.2696657"><ele>802.5</ele><time>2026-05-02T15:44:48.907Z</time></trkpt><trkpt lat="42.1859178" lon="13.2695805"><ele>802.75</ele><time>2026-05-02T15:44:49.908Z</time></trkpt><trkpt lat="42.1860351" lon="13.2695049"><ele>803.0</ele><time>2026-05-02T15:44:50.907Z</time></trkpt><trkpt lat="42.1861593" lon="13.2694201"><ele>803.0</ele><time>2026-05-02T15:44:51.907Z</time></trkpt><trkpt lat="42.1862771" lon="13.2693404"><ele>803.0</ele><time>2026-05-02T15:44:52.907Z</time></trkpt><trkpt lat="42.1863972" lon="13.2692713"><ele>803.0</ele><time>2026-05-02T15:44:53.906Z</time></trkpt><trkpt lat="42.1865104" lon="13.2692053"><ele>803.0</ele><time>2026-05-02T15:44:54.905Z</time></trkpt><trkpt lat="42.1866202" lon="13.2691452"><ele>803.0</ele><time>2026-05-02T15:44:55.907Z</time></trkpt><trkpt lat="42.1867227" lon="13.269082"><ele>803.0</ele><time>2026-05-02T15:44:56.906Z</time></trkpt><trkpt lat="42.1868249" lon="13.2689997"><ele>803.0</ele><time>2026-05-02T15:44:57.908Z</time></trkpt><trkpt lat="42.1869269" lon="13.2689098"><ele>803.0</ele><time>2026-05-02T15:44:58.908Z</time></trkpt><trkpt lat="42.1870321" lon="13.2688133"><ele>802.75</ele><time>2026-05-02T15:44:59.906Z</time></trkpt><trkpt lat="42.1871398" lon="13.2687123"><ele>802.5</ele><time>2026-05-02T15:45:00.907Z</time></trkpt><trkpt lat="42.1872445" lon="13.2686183"><ele>802.25</ele><time>2026-05-02T15:45:01.906Z</time></trkpt><trkpt lat="42.1873542" lon="13.2685287"><ele>802.0</ele><time>2026-05-02T15:45:02.906Z</time></trkpt><trkpt lat="42.1874642" lon="13.2684418"><ele>802.0</ele><time>2026-05-02T15:45:03.906Z</time></trkpt><trkpt lat="42.1875675" lon="13.2683593"><ele>802.0</ele><time>2026-05-02T15:45:04.907Z</time></trkpt><trkpt lat="42.1876703" lon="13.2682825"><ele>802.0</ele><time>2026-05-02T15:45:05.907Z</time></trkpt><trkpt lat="42.1877697" lon="13.2681996"><ele>802.0</ele><time>2026-05-02T15:45:06.907Z</time></trkpt><trkpt lat="42.1878694" lon="13.2681205"><ele>802.0</ele><time>2026-05-02T15:45:07.907Z</time></trkpt><trkpt lat="42.187953" lon="13.2680511"><ele>802.0</ele><time>2026-05-02T15:45:08.908Z</time></trkpt><trkpt lat="42.1880261" lon="13.2679727"><ele>802.0</ele><time>2026-05-02T15:45:09.905Z</time></trkpt><trkpt lat="42.1881059" lon="13.2679165"><ele>802.0</ele><time>2026-05-02T15:45:10.907Z</time></trkpt><trkpt lat="42.1881972" lon="13.2678763"><ele>802.0</ele><time>2026-05-02T15:45:11.907Z</time></trkpt><trkpt lat="42.1883009" lon="13.2678429"><ele>802.6</ele><time>2026-05-02T15:45:12.906Z</time></trkpt><trkpt lat="42.1884118" lon="13.2678067"><ele>803.2</ele><time>2026-05-02T15:45:13.907Z</time></trkpt><trkpt lat="42.1885217" lon="13.2677646"><ele>803.8</ele><time>2026-05-02T15:45:14.906Z</time></trkpt><trkpt lat="42.1886108" lon="13.2677316"><ele>804.4</ele><time>2026-05-02T15:45:15.906Z</time></trkpt><trkpt lat="42.1886932" lon="13.2676939"><ele>805.0</ele><time>2026-05-02T15:45:16.906Z</time></trkpt><trkpt lat="42.1887783" lon="13.2676578"><ele>805.0</ele><time>2026-05-02T15:45:17.907Z</time></trkpt><trkpt lat="42.1888869" lon="13.2675704"><ele>805.0</ele><time>2026-05-02T15:45:19.907Z</time></trkpt><trkpt lat="42.1889456" lon="13.2675196"><ele>805.0</ele><time>2026-05-02T15:45:20.906Z</time></trkpt><trkpt lat="42.1890138" lon="13.2674673"><ele>805.0</ele><time>2026-05-02T15:45:21.907Z</time></trkpt><trkpt lat="42.1891085" lon="13.2673968"><ele>805.0</ele><time>2026-05-02T15:45:22.907Z</time></trkpt><trkpt lat="42.1892286" lon="13.2673148"><ele>804.75</ele><time>2026-05-02T15:45:23.907Z</time></trkpt><trkpt lat="42.189343" lon="13.2672196"><ele>804.5</ele><time>2026-05-02T15:45:24.906Z</time></trkpt><trkpt lat="42.1894686" lon="13.2671024"><ele>804.25</ele><time>2026-05-02T15:45:25.907Z</time></trkpt><trkpt lat="42.1895937" lon="13.2669806"><ele>804.0</ele><time>2026-05-02T15:45:26.908Z</time></trkpt><trkpt lat="42.1897148" lon="13.266861"><ele>804.0</ele><time>2026-05-02T15:45:27.906Z</time></trkpt><trkpt lat="42.1898339" lon="13.2667605"><ele>804.0</ele><time>2026-05-02T15:45:28.907Z</time></trkpt><trkpt lat="42.1899475" lon="13.2666682"><ele>804.0</ele><time>2026-05-02T15:45:29.907Z</time></trkpt><trkpt lat="42.1900647" lon="13.2665952"><ele>804.0</ele><time>2026-05-02T15:45:30.906Z</time></trkpt><trkpt lat="42.190175" lon="13.2665337"><ele>804.4000000000001</ele><time>2026-05-02T15:45:31.906Z</time></trkpt><trkpt lat="42.1902719" lon="13.2664696"><ele>804.8</ele><time>2026-05-02T15:45:32.907Z</time></trkpt><trkpt lat="42.1903457" lon="13.2664014"><ele>805.2</ele><time>2026-05-02T15:45:33.907Z</time></trkpt><trkpt lat="42.1904083" lon="13.2663371"><ele>805.5999999999999</ele><time>2026-05-02T15:45:34.906Z</time></trkpt><trkpt lat="42.190483" lon="13.2662483"><ele>806.0</ele><time>2026-05-02T15:45:35.907Z</time></trkpt><trkpt lat="42.190576" lon="13.2661527"><ele>807.0</ele><time>2026-05-02T15:45:36.907Z</time></trkpt><trkpt lat="42.1906814" lon="13.2660468"><ele>808.0</ele><time>2026-05-02T15:45:37.907Z</time></trkpt><trkpt lat="42.190779" lon="13.2659368"><ele>809.0</ele><time>2026-05-02T15:45:38.906Z</time></trkpt><trkpt lat="42.1908709" lon="13.2658186"><ele>810.0</ele><time>2026-05-02T15:45:39.907Z</time></trkpt><trkpt lat="42.1909567" lon="13.2656993"><ele>809.25</ele><time>2026-05-02T15:45:40.907Z</time></trkpt><trkpt lat="42.1910459" lon="13.2655766"><ele>808.5</ele><time>2026-05-02T15:45:41.906Z</time></trkpt><trkpt lat="42.1911445" lon="13.2654621"><ele>807.75</ele><time>2026-05-02T15:45:42.906Z</time></trkpt><trkpt lat="42.1912417" lon="13.265355"><ele>807.0</ele><time>2026-05-02T15:45:43.907Z</time></trkpt><trkpt lat="42.1913368" lon="13.2652364"><ele>807.0</ele><time>2026-05-02T15:45:44.907Z</time></trkpt><trkpt lat="42.1914192" lon="13.2651104"><ele>807.0</ele><time>2026-05-02T15:45:45.906Z</time></trkpt><trkpt lat="42.1915024" lon="13.2649707"><ele>807.0</ele><time>2026-05-02T15:45:46.906Z</time></trkpt><trkpt lat="42.1915926" lon="13.2648286"><ele>807.0</ele><time>2026-05-02T15:45:47.907Z</time></trkpt><trkpt lat="42.1916847" lon="13.2647129"><ele>807.5</ele><time>2026-05-02T15:45:48.907Z</time></trkpt><trkpt lat="42.1917843" lon="13.2646173"><ele>808.0</ele><time>2026-05-02T15:45:49.907Z</time></trkpt><trkpt lat="42.1919012" lon="13.2645312"><ele>808.5</ele><time>2026-05-02T15:45:50.906Z</time></trkpt><trkpt lat="42.1920182" lon="13.2644426"><ele>809.0</ele><time>2026-05-02T15:45:51.907Z</time></trkpt><trkpt lat="42.1921382" lon="13.2643753"><ele>809.0</ele><time>2026-05-02T15:45:52.907Z</time></trkpt><trkpt lat="42.1922659" lon="13.264312"><ele>809.0</ele><time>2026-05-02T15:45:53.906Z</time></trkpt><trkpt lat="42.1923944" lon="13.264257"><ele>809.0</ele><time>2026-05-02T15:45:54.907Z</time></trkpt><trkpt lat="42.1925266" lon="13.2641872"><ele>809.0</ele><time>2026-05-02T15:45:55.907Z</time></trkpt><trkpt lat="42.1926547" lon="13.2641026"><ele>810.0</ele><time>2026-05-02T15:45:56.907Z</time></trkpt><trkpt lat="42.192794" lon="13.2640222"><ele>811.0</ele><time>2026-05-02T15:45:57.907Z</time></trkpt><trkpt lat="42.1929247" lon="13.2639518"><ele>812.0</ele><time>2026-05-02T15:45:58.907Z</time></trkpt><trkpt lat="42.193045" lon="13.2638841"><ele>813.0</ele><time>2026-05-02T15:45:59.908Z</time></trkpt><trkpt lat="42.1931704" lon="13.2638044"><ele>813.25</ele><time>2026-05-02T15:46:00.906Z</time></trkpt><trkpt lat="42.1932969" lon="13.263723"><ele>813.5</ele><time>2026-05-02T15:46:01.907Z</time></trkpt><trkpt lat="42.1934133" lon="13.2636267"><ele>813.75</ele><time>2026-05-02T15:46:02.907Z</time></trkpt><trkpt lat="42.1935293" lon="13.2635362"><ele>814.0</ele><time>2026-05-02T15:46:03.908Z</time></trkpt><trkpt lat="42.1936461" lon="13.2634387"><ele>814.0</ele><time>2026-05-02T15:46:04.907Z</time></trkpt><trkpt lat="42.1937698" lon="13.2633399"><ele>814.0</ele><time>2026-05-02T15:46:05.907Z</time></trkpt><trkpt lat="42.1938888" lon="13.2632503"><ele>814.0</ele><time>2026-05-02T15:46:06.907Z</time></trkpt><trkpt lat="42.1940053" lon="13.2631698"><ele>814.0</ele><time>2026-05-02T15:46:07.906Z</time></trkpt><trkpt lat="42.1941035" lon="13.2630935"><ele>814.2</ele><time>2026-05-02T15:46:08.907Z</time></trkpt><trkpt lat="42.1941897" lon="13.2630283"><ele>814.4000000000001</ele><time>2026-05-02T15:46:09.906Z</time></trkpt><trkpt lat="42.1942725" lon="13.2629749"><ele>814.6</ele><time>2026-05-02T15:46:10.907Z</time></trkpt><trkpt lat="42.1943775" lon="13.262965"><ele>814.8</ele><time>2026-05-02T15:46:11.907Z</time></trkpt><trkpt lat="42.1944836" lon="13.2629468"><ele>815.0</ele><time>2026-05-02T15:46:12.907Z</time></trkpt><trkpt lat="42.1945825" lon="13.2629176"><ele>815.0</ele><time>2026-05-02T15:46:13.908Z</time></trkpt><trkpt lat="42.1946848" lon="13.2628788"><ele>815.0</ele><time>2026-05-02T15:46:14.907Z</time></trkpt><trkpt lat="42.1947909" lon="13.2628399"><ele>815.0</ele><time>2026-05-02T15:46:15.907Z</time></trkpt><trkpt lat="42.1949041" lon="13.262828"><ele>815.0</ele><time>2026-05-02T15:46:16.906Z</time></trkpt><trkpt lat="42.1950135" lon="13.26283"><ele>815.0</ele><time>2026-05-02T15:46:17.907Z</time></trkpt><trkpt lat="42.1951189" lon="13.2628615"><ele>815.0</ele><time>2026-05-02T15:46:18.908Z</time></trkpt><trkpt lat="42.1952294" lon="13.2629078"><ele>815.0</ele><time>2026-05-02T15:46:19.908Z</time></trkpt><trkpt lat="42.1953221" lon="13.2629478"><ele>815.0</ele><time>2026-05-02T15:46:20.907Z</time></trkpt><trkpt lat="42.1954" lon="13.2629613"><ele>815.0</ele><time>2026-05-02T15:46:21.906Z</time></trkpt><trkpt lat="42.1955049" lon="13.2628766"><ele>815.0</ele><time>2026-05-02T15:46:23.906Z</time></trkpt><trkpt lat="42.1955552" lon="13.2627869"><ele>815.0000000000001</ele><time>2026-05-02T15:46:24.906Z</time></trkpt><trkpt lat="42.1956" lon="13.2626849"><ele>815.0</ele><time>2026-05-02T15:46:25.906Z</time></trkpt><trkpt lat="42.1956372" lon="13.262582"><ele>815.0</ele><time>2026-05-02T15:46:26.906Z</time></trkpt><trkpt lat="42.1956745" lon="13.2624847"><ele>815.0</ele><time>2026-05-02T15:46:27.907Z</time></trkpt><trkpt lat="42.1957101" lon="13.262387"><ele>815.0000000000001</ele><time>2026-05-02T15:46:28.905Z</time></trkpt><trkpt lat="42.1957449" lon="13.2622839"><ele>815.0</ele><time>2026-05-02T15:46:29.907Z</time></trkpt><trkpt lat="42.195788" lon="13.2621836"><ele>815.0</ele><time>2026-05-02T15:46:30.906Z</time></trkpt><trkpt lat="42.1958329" lon="13.2620801"><ele>815.0</ele><time>2026-05-02T15:46:31.907Z</time></trkpt><trkpt lat="42.1958815" lon="13.261959"><ele>815.0</ele><time>2026-05-02T15:46:32.906Z</time></trkpt><trkpt lat="42.1959296" lon="13.2618189"><ele>815.0</ele><time>2026-05-02T15:46:33.907Z</time></trkpt><trkpt lat="42.195972" lon="13.2616769"><ele>815.0</ele><time>2026-05-02T15:46:34.908Z</time></trkpt><trkpt lat="42.1960149" lon="13.2615345"><ele>814.75</ele><time>2026-05-02T15:46:35.908Z</time></trkpt><trkpt lat="42.1960561" lon="13.2614016"><ele>814.5</ele><time>2026-05-02T15:46:36.906Z</time></trkpt><trkpt lat="42.1961018" lon="13.2612563"><ele>814.25</ele><time>2026-05-02T15:46:37.906Z</time></trkpt><trkpt lat="42.1961422" lon="13.2611023"><ele>814.0</ele><time>2026-05-02T15:46:38.907Z</time></trkpt><trkpt lat="42.1961775" lon="13.260949"><ele>814.0</ele><time>2026-05-02T15:46:39.906Z</time></trkpt><trkpt lat="42.1962073" lon="13.260796"><ele>814.0</ele><time>2026-05-02T15:46:40.907Z</time></trkpt><trkpt lat="42.1962341" lon="13.2606617"><ele>814.0</ele><time>2026-05-02T15:46:41.907Z</time></trkpt><trkpt lat="42.1962678" lon="13.2605595"><ele>814.0</ele><time>2026-05-02T15:46:42.907Z</time></trkpt><trkpt lat="42.1963025" lon="13.2604808"><ele>814.0</ele><time>2026-05-02T15:46:43.907Z</time></trkpt><trkpt lat="42.1963955" lon="13.2603966"><ele>813.0</ele><time>2026-05-02T15:46:45.907Z</time></trkpt><trkpt lat="42.1965199" lon="13.2603553"><ele>812.0</ele><time>2026-05-02T15:46:47.906Z</time></trkpt><trkpt lat="42.1966005" lon="13.2603508"><ele>811.0</ele><time>2026-05-02T15:46:48.907Z</time></trkpt><trkpt lat="42.1966949" lon="13.2603496"><ele>810.0</ele><time>2026-05-02T15:46:49.907Z</time></trkpt><trkpt lat="42.1967745" lon="13.2603411"><ele>809.0</ele><time>2026-05-02T15:46:50.907Z</time></trkpt><trkpt lat="42.1968712" lon="13.260313"><ele>809.0</ele><time>2026-05-02T15:46:51.907Z</time></trkpt><trkpt lat="42.1969655" lon="13.2602897"><ele>809.0</ele><time>2026-05-02T15:46:52.907Z</time></trkpt><trkpt lat="42.1970676" lon="13.2602533"><ele>809.0</ele><time>2026-05-02T15:46:53.906Z</time></trkpt><trkpt lat="42.1971705" lon="13.2602146"><ele>809.0</ele><time>2026-05-02T15:46:54.906Z</time></trkpt><trkpt lat="42.1972751" lon="13.2601727"><ele>809.0</ele><time>2026-05-02T15:46:55.908Z</time></trkpt><trkpt lat="42.1973712" lon="13.2601238"><ele>809.4000000000001</ele><time>2026-05-02T15:46:56.908Z</time></trkpt><trkpt lat="42.1974615" lon="13.2600678"><ele>809.8</ele><time>2026-05-02T15:46:57.907Z</time></trkpt><trkpt lat="42.197546" lon="13.2600111"><ele>810.2</ele><time>2026-05-02T15:46:58.906Z</time></trkpt><trkpt lat="42.1976271" lon="13.259946"><ele>810.5999999999999</ele><time>2026-05-02T15:46:59.908Z</time></trkpt><trkpt lat="42.1977049" lon="13.2598659"><ele>811.0</ele><time>2026-05-02T15:47:00.905Z</time></trkpt><trkpt lat="42.19778" lon="13.259794"><ele>810.4</ele><time>2026-05-02T15:47:01.908Z</time></trkpt><trkpt lat="42.1978509" lon="13.2597194"><ele>809.8</ele><time>2026-05-02T15:47:02.906Z</time></trkpt><trkpt lat="42.1979298" lon="13.259644"><ele>809.1999999999999</ele><time>2026-05-02T15:47:03.906Z</time></trkpt><trkpt lat="42.19801" lon="13.2595736"><ele>808.5999999999999</ele><time>2026-05-02T15:47:04.907Z</time></trkpt><trkpt lat="42.1980849" lon="13.2595067"><ele>808.0</ele><time>2026-05-02T15:47:05.907Z</time></trkpt><trkpt lat="42.1981562" lon="13.2594472"><ele>809.0</ele><time>2026-05-02T15:47:06.907Z</time></trkpt><trkpt lat="42.19822" lon="13.2594065"><ele>810.0</ele><time>2026-05-02T15:47:07.906Z</time></trkpt><trkpt lat="42.1983628" lon="13.2594006"><ele>811.0</ele><time>2026-05-02T15:47:09.908Z</time></trkpt><trkpt lat="42.1984647" lon="13.2594104"><ele>812.0</ele><time>2026-05-02T15:47:10.906Z</time></trkpt><trkpt lat="42.1985506" lon="13.259401"><ele>813.0</ele><time>2026-05-02T15:47:11.906Z</time></trkpt><trkpt lat="42.1986426" lon="13.2593664"><ele>813.0</ele><time>2026-05-02T15:47:12.907Z</time></trkpt><trkpt lat="42.1987369" lon="13.2593201"><ele>813.0</ele><time>2026-05-02T15:47:13.906Z</time></trkpt><trkpt lat="42.1988373" lon="13.2592686"><ele>813.0</ele><time>2026-05-02T15:47:14.905Z</time></trkpt><trkpt lat="42.1989514" lon="13.2591971"><ele>813.0</ele><time>2026-05-02T15:47:15.908Z</time></trkpt><trkpt lat="42.199067" lon="13.2591251"><ele>813.5999999999999</ele><time>2026-05-02T15:47:16.907Z</time></trkpt><trkpt lat="42.1991632" lon="13.2590513"><ele>814.1999999999999</ele><time>2026-05-02T15:47:17.907Z</time></trkpt><trkpt lat="42.1992533" lon="13.2590013"><ele>814.8</ele><time>2026-05-02T15:47:18.906Z</time></trkpt><trkpt lat="42.1993485" lon="13.2589807"><ele>815.4</ele><time>2026-05-02T15:47:19.908Z</time></trkpt><trkpt lat="42.1994459" lon="13.2589895"><ele>816.0</ele><time>2026-05-02T15:47:20.906Z</time></trkpt><trkpt lat="42.1995248" lon="13.2590142"><ele>816.0</ele><time>2026-05-02T15:47:21.906Z</time></trkpt><trkpt lat="42.1995952" lon="13.2590438"><ele>816.0</ele><time>2026-05-02T15:47:22.907Z</time></trkpt><trkpt lat="42.1996604" lon="13.2590771"><ele>816.0</ele><time>2026-05-02T15:47:23.905Z</time></trkpt><trkpt lat="42.1997177" lon="13.2591168"><ele>816.0</ele><time>2026-05-02T15:47:24.907Z</time></trkpt><trkpt lat="42.1998121" lon="13.2591949"><ele>816.0</ele><time>2026-05-02T15:47:26.906Z</time></trkpt><trkpt lat="42.19988" lon="13.2591936"><ele>816.0</ele><time>2026-05-02T15:47:29.906Z</time></trkpt><trkpt lat="42.1999159" lon="13.2590896"><ele>815.8</ele><time>2026-05-02T15:49:23.906Z</time></trkpt><trkpt lat="42.1998722" lon="13.2589252"><ele>815.5999999999999</ele><time>2026-05-02T15:49:25.907Z</time></trkpt><trkpt lat="42.199834" lon="13.2588144"><ele>815.4</ele><time>2026-05-02T15:49:26.907Z</time></trkpt><trkpt lat="42.1997944" lon="13.2586953"><ele>815.2</ele><time>2026-05-02T15:49:27.906Z</time></trkpt><trkpt lat="42.1997524" lon="13.2585672"><ele>815.0</ele><time>2026-05-02T15:49:28.907Z</time></trkpt><trkpt lat="42.1997153" lon="13.2584494"><ele>815.0</ele><time>2026-05-02T15:49:29.908Z</time></trkpt><trkpt lat="42.1996793" lon="13.2583308"><ele>815.0</ele><time>2026-05-02T15:49:30.907Z</time></trkpt><trkpt lat="42.1996423" lon="13.2582088"><ele>815.0</ele><time>2026-05-02T15:49:31.907Z</time></trkpt><trkpt lat="42.1996063" lon="13.258092"><ele>815.0</ele><time>2026-05-02T15:49:32.906Z</time></trkpt><trkpt lat="42.1995732" lon="13.2579767"><ele>815.0</ele><time>2026-05-02T15:49:33.907Z</time></trkpt><trkpt lat="42.1995797" lon="13.2578695"><ele>815.3333333333334</ele><time>2026-05-02T15:49:34.907Z</time></trkpt><trkpt lat="42.1995799" lon="13.2577667"><ele>815.6666666666667</ele><time>2026-05-02T15:49:35.906Z</time></trkpt><trkpt lat="42.1996003" lon="13.2576647"><ele>816.0</ele><time>2026-05-02T15:49:36.907Z</time></trkpt><trkpt lat="42.1996254" lon="13.2575691"><ele>816.3333333333333</ele><time>2026-05-02T15:49:37.907Z</time></trkpt><trkpt lat="42.1996512" lon="13.2574865"><ele>816.6666666666666</ele><time>2026-05-02T15:49:38.906Z</time></trkpt><trkpt lat="42.1996959" lon="13.2573389"><ele>817.0</ele><time>2026-05-02T15:49:40.907Z</time></trkpt><trkpt lat="42.1997848" lon="13.2572326"><ele>817.8333333333333</ele><time>2026-05-02T15:49:42.907Z</time></trkpt><trkpt lat="42.1998506" lon="13.257176"><ele>818.6666666666666</ele><time>2026-05-02T15:49:44.907Z</time></trkpt><trkpt lat="42.1998312" lon="13.2570479"><ele>819.5</ele><time>2026-05-02T15:49:53.907Z</time></trkpt><trkpt lat="42.1997874" lon="13.2569753"><ele>820.3333333333333</ele><time>2026-05-02T15:49:54.906Z</time></trkpt><trkpt lat="42.1997381" lon="13.2569022"><ele>821.1666666666666</ele><time>2026-05-02T15:49:55.905Z</time></trkpt><trkpt lat="42.1996847" lon="13.2568293"><ele>822.0</ele><time>2026-05-02T15:49:56.907Z</time></trkpt><trkpt lat="42.1996295" lon="13.2567174"><ele>822.0</ele><time>2026-05-02T15:49:58.906Z</time></trkpt><trkpt lat="42.1996803" lon="13.2566548"><ele>822.0</ele><time>2026-05-02T15:50:00.908Z</time></trkpt><trkpt lat="42.1997646" lon="13.2566846"><ele>822.0</ele><time>2026-05-02T15:50:02.906Z</time></trkpt><trkpt lat="42.1998504" lon="13.2567652"><ele>822.0</ele><time>2026-05-02T15:50:03.907Z</time></trkpt><trkpt lat="42.1999416" lon="13.2568369"><ele>822.0</ele><time>2026-05-02T15:50:04.907Z</time></trkpt><trkpt lat="42.2000552" lon="13.2568768"><ele>825.75</ele><time>2026-05-02T15:50:05.907Z</time></trkpt><trkpt lat="42.2001721" lon="13.2569126"><ele>829.5</ele><time>2026-05-02T15:50:06.907Z</time></trkpt><trkpt lat="42.2003048" lon="13.2569382"><ele>833.25</ele><time>2026-05-02T15:50:07.906Z</time></trkpt><trkpt lat="42.2004468" lon="13.2569613"><ele>837.0</ele><time>2026-05-02T15:50:08.906Z</time></trkpt><trkpt lat="42.2005846" lon="13.2569839"><ele>840.2</ele><time>2026-05-02T15:50:09.905Z</time></trkpt><trkpt lat="42.2007112" lon="13.2570052"><ele>843.4000000000001</ele><time>2026-05-02T15:50:10.907Z</time></trkpt><trkpt lat="42.2007925" lon="13.2570225"><ele>846.5999999999999</ele><time>2026-05-02T15:50:11.907Z</time></trkpt><trkpt lat="42.2008671" lon="13.2570457"><ele>849.8</ele><time>2026-05-02T15:50:12.907Z</time></trkpt><trkpt lat="42.2009409" lon="13.2570271"><ele>853.0</ele><time>2026-05-02T15:50:14.907Z</time></trkpt><trkpt lat="42.2008991" lon="13.2569215"><ele>853.0</ele><time>2026-05-02T15:50:17.907Z</time></trkpt><trkpt lat="42.200939" lon="13.2568336"><ele>853.0</ele><time>2026-05-02T15:50:21.907Z</time></trkpt><trkpt lat="42.2010455" lon="13.256818"><ele>853.0</ele><time>2026-05-02T15:50:23.907Z</time></trkpt><trkpt lat="42.2011657" lon="13.256836"><ele>853.0</ele><time>2026-05-02T15:50:25.907Z</time></trkpt><trkpt lat="42.2012778" lon="13.2568387"><ele>853.0</ele><time>2026-05-02T15:50:27.906Z</time></trkpt><trkpt lat="42.2013702" lon="13.2568274"><ele>852.9999999999999</ele><time>2026-05-02T15:50:29.907Z</time></trkpt><trkpt lat="42.2014492" lon="13.2568077"><ele>853.0</ele><time>2026-05-02T15:50:31.907Z</time></trkpt><trkpt lat="42.201518" lon="13.2567952"><ele>853.0</ele><time>2026-05-02T15:50:32.907Z</time></trkpt><trkpt lat="42.2015834" lon="13.256798"><ele>853.0</ele><time>2026-05-02T15:50:33.906Z</time></trkpt><trkpt lat="42.2016588" lon="13.2568071"><ele>852.9999999999999</ele><time>2026-05-02T15:50:34.907Z</time></trkpt><trkpt lat="42.2017449" lon="13.2568115"><ele>853.0</ele><time>2026-05-02T15:50:35.908Z</time></trkpt><trkpt lat="42.2018284" lon="13.2568225"><ele>855.8333333333333</ele><time>2026-05-02T15:50:36.907Z</time></trkpt><trkpt lat="42.2019078" lon="13.2568366"><ele>858.6666666666666</ele><time>2026-05-02T15:50:37.907Z</time></trkpt><trkpt lat="42.2019907" lon="13.2568426"><ele>861.5</ele><time>2026-05-02T15:50:38.907Z</time></trkpt><trkpt lat="42.2020813" lon="13.2568283"><ele>864.3333333333333</ele><time>2026-05-02T15:50:39.907Z</time></trkpt><trkpt lat="42.2021773" lon="13.2568179"><ele>867.1666666666666</ele><time>2026-05-02T15:50:40.907Z</time></trkpt><trkpt lat="42.2022642" lon="13.2568153"><ele>870.0</ele><time>2026-05-02T15:50:41.907Z</time></trkpt><trkpt lat="42.2023494" lon="13.2567992"><ele>871.1666666666666</ele><time>2026-05-02T15:50:42.907Z</time></trkpt><trkpt lat="42.2024304" lon="13.2567684"><ele>872.3333333333333</ele><time>2026-05-02T15:50:43.908Z</time></trkpt><trkpt lat="42.202508" lon="13.2567301"><ele>873.5</ele><time>2026-05-02T15:50:44.906Z</time></trkpt><trkpt lat="42.2025772" lon="13.2567008"><ele>874.6666666666666</ele><time>2026-05-02T15:50:45.905Z</time></trkpt><trkpt lat="42.2026522" lon="13.2566812"><ele>875.8333333333333</ele><time>2026-05-02T15:50:46.906Z</time></trkpt><trkpt lat="42.2027342" lon="13.2566641"><ele>877.0</ele><time>2026-05-02T15:50:47.906Z</time></trkpt><trkpt lat="42.2027995" lon="13.2566385"><ele>877.0000000000001</ele><time>2026-05-02T15:50:48.908Z</time></trkpt><trkpt lat="42.2028586" lon="13.2565824"><ele>877.0</ele><time>2026-05-02T15:50:50.907Z</time></trkpt><trkpt lat="42.2029105" lon="13.2564914"><ele>877.0</ele><time>2026-05-02T15:50:52.908Z</time></trkpt><trkpt lat="42.2029541" lon="13.2564206"><ele>877.0</ele><time>2026-05-02T15:50:53.908Z</time></trkpt><trkpt lat="42.2030003" lon="13.256341"><ele>877.0</ele><time>2026-05-02T15:50:54.906Z</time></trkpt><trkpt lat="42.2030313" lon="13.2562547"><ele>877.0000000000001</ele><time>2026-05-02T15:50:55.907Z</time></trkpt><trkpt lat="42.2030555" lon="13.2561729"><ele>877.0</ele><time>2026-05-02T15:50:56.905Z</time></trkpt><trkpt lat="42.2030858" lon="13.2560888"><ele>877.9999999999999</ele><time>2026-05-02T15:50:57.906Z</time></trkpt><trkpt lat="42.2031301" lon="13.2559944"><ele>879.0</ele><time>2026-05-02T15:50:58.908Z</time></trkpt><trkpt lat="42.2031802" lon="13.255916"><ele>880.0</ele><time>2026-05-02T15:50:59.907Z</time></trkpt><trkpt lat="42.2032265" lon="13.2558536"><ele>881.0</ele><time>2026-05-02T15:51:00.908Z</time></trkpt><trkpt lat="42.2032807" lon="13.2557849"><ele>881.9999999999999</ele><time>2026-05-02T15:51:01.907Z</time></trkpt><trkpt lat="42.2033318" lon="13.2556998"><ele>883.0</ele><time>2026-05-02T15:51:02.907Z</time></trkpt><trkpt lat="42.2033575" lon="13.255613"><ele>884.8333333333333</ele><time>2026-05-02T15:51:03.908Z</time></trkpt><trkpt lat="42.2033567" lon="13.2555249"><ele>886.6666666666666</ele><time>2026-05-02T15:51:04.905Z</time></trkpt><trkpt lat="42.203338" lon="13.2554323"><ele>888.5</ele><time>2026-05-02T15:51:05.907Z</time></trkpt><trkpt lat="42.2033105" lon="13.2553383"><ele>890.3333333333333</ele><time>2026-05-02T15:51:06.907Z</time></trkpt><trkpt lat="42.2032916" lon="13.2552268"><ele>892.1666666666666</ele><time>2026-05-02T15:51:07.906Z</time></trkpt><trkpt lat="42.2032772" lon="13.2551111"><ele>894.0</ele><time>2026-05-02T15:51:08.907Z</time></trkpt><trkpt lat="42.2032741" lon="13.2550084"><ele>894.0</ele><time>2026-05-02T15:51:09.906Z</time></trkpt><trkpt lat="42.2033058" lon="13.2549045"><ele>894.0</ele><time>2026-05-02T15:51:11.908Z</time></trkpt><trkpt lat="42.2033903" lon="13.2549544"><ele>894.0</ele><time>2026-05-02T15:51:14.907Z</time></trkpt><trkpt lat="42.2034579" lon="13.2550138"><ele>894.0</ele><time>2026-05-02T15:51:16.906Z</time></trkpt><trkpt lat="42.203528" lon="13.2550604"><ele>894.0</ele><time>2026-05-02T15:51:17.907Z</time></trkpt><trkpt lat="42.2036099" lon="13.2551217"><ele>894.0</ele><time>2026-05-02T15:51:18.907Z</time></trkpt><trkpt lat="42.2036956" lon="13.2552054"><ele>894.0</ele><time>2026-05-02T15:51:19.906Z</time></trkpt><trkpt lat="42.2037893" lon="13.2552977"><ele>894.0</ele><time>2026-05-02T15:51:20.906Z</time></trkpt><trkpt lat="42.2039026" lon="13.2554178"><ele>894.0</ele><time>2026-05-02T15:51:21.906Z</time></trkpt><trkpt lat="42.2040173" lon="13.2555521"><ele>894.0</ele><time>2026-05-02T15:51:22.907Z</time></trkpt><trkpt lat="42.2041227" lon="13.255706"><ele>896.0</ele><time>2026-05-02T15:51:23.907Z</time></trkpt><trkpt lat="42.2042346" lon="13.255839"><ele>898.0</ele><time>2026-05-02T15:51:24.907Z</time></trkpt><trkpt lat="42.2043707" lon="13.2559523"><ele>900.0</ele><time>2026-05-02T15:51:25.907Z</time></trkpt><trkpt lat="42.2045229" lon="13.2560547"><ele>900.0</ele><time>2026-05-02T15:51:26.906Z</time></trkpt><trkpt lat="42.2046871" lon="13.2561637"><ele>900.0</ele><time>2026-05-02T15:51:27.907Z</time></trkpt><trkpt lat="42.2048346" lon="13.2562839"><ele>900.0</ele><time>2026-05-02T15:51:28.907Z</time></trkpt><trkpt lat="42.2049505" lon="13.2564321"><ele>903.3333333333333</ele><time>2026-05-02T15:51:29.907Z</time></trkpt><trkpt lat="42.205071" lon="13.2565885"><ele>906.6666666666666</ele><time>2026-05-02T15:51:30.907Z</time></trkpt><trkpt lat="42.2051698" lon="13.2567984"><ele>910.0</ele><time>2026-05-02T15:51:31.907Z</time></trkpt><trkpt lat="42.2052715" lon="13.2570037"><ele>910.0</ele><time>2026-05-02T15:51:32.907Z</time></trkpt><trkpt lat="42.2053575" lon="13.257219"><ele>910.0</ele><time>2026-05-02T15:51:33.907Z</time></trkpt><trkpt lat="42.2054396" lon="13.2574261"><ele>910.0</ele><time>2026-05-02T15:51:34.906Z</time></trkpt><trkpt lat="42.2055218" lon="13.2576043"><ele>907.0</ele><time>2026-05-02T15:51:35.908Z</time></trkpt><trkpt lat="42.2055926" lon="13.2577295"><ele>904.0</ele><time>2026-05-02T15:51:36.907Z</time></trkpt><trkpt lat="42.2056756" lon="13.257818"><ele>901.0</ele><time>2026-05-02T15:51:37.907Z</time></trkpt><trkpt lat="42.2057824" lon="13.2578817"><ele>898.0</ele><time>2026-05-02T15:51:38.907Z</time></trkpt><trkpt lat="42.2058982" lon="13.2579434"><ele>901.8</ele><time>2026-05-02T15:51:39.907Z</time></trkpt><trkpt lat="42.2060184" lon="13.2580207"><ele>905.5999999999999</ele><time>2026-05-02T15:51:40.906Z</time></trkpt><trkpt lat="42.2061079" lon="13.2581073"><ele>909.4000000000001</ele><time>2026-05-02T15:51:41.907Z</time></trkpt><trkpt lat="42.20617" lon="13.2582036"><ele>913.2</ele><time>2026-05-02T15:51:42.906Z</time></trkpt><trkpt lat="42.2061948" lon="13.2583258"><ele>917.0</ele><time>2026-05-02T15:51:43.907Z</time></trkpt><trkpt lat="42.2061983" lon="13.258482"><ele>917.0</ele><time>2026-05-02T15:51:44.908Z</time></trkpt><trkpt lat="42.2061974" lon="13.2586429"><ele>917.0</ele><time>2026-05-02T15:51:45.907Z</time></trkpt><trkpt lat="42.2061861" lon="13.2588258"><ele>917.0</ele><time>2026-05-02T15:51:46.907Z</time></trkpt><trkpt lat="42.2061751" lon="13.2590199"><ele>917.0</ele><time>2026-05-02T15:51:47.907Z</time></trkpt><trkpt lat="42.2061699" lon="13.2592209"><ele>915.5</ele><time>2026-05-02T15:51:48.905Z</time></trkpt><trkpt lat="42.206168" lon="13.2594162"><ele>914.0</ele><time>2026-05-02T15:51:49.907Z</time></trkpt><trkpt lat="42.206203" lon="13.2595673"><ele>912.5</ele><time>2026-05-02T15:51:50.906Z</time></trkpt><trkpt lat="42.2062511" lon="13.2597153"><ele>911.0</ele><time>2026-05-02T15:51:51.907Z</time></trkpt><trkpt lat="42.2063214" lon="13.2598499"><ele>909.5</ele><time>2026-05-02T15:51:52.907Z</time></trkpt><trkpt lat="42.2064118" lon="13.2599839"><ele>908.0</ele><time>2026-05-02T15:51:53.906Z</time></trkpt><trkpt lat="42.2065023" lon="13.260127"><ele>906.5</ele><time>2026-05-02T15:51:54.906Z</time></trkpt><trkpt lat="42.2065965" lon="13.2602758"><ele>905.0</ele><time>2026-05-02T15:51:55.908Z</time></trkpt><trkpt lat="42.2066971" lon="13.2604262"><ele>912.0</ele><time>2026-05-02T15:51:56.907Z</time></trkpt><trkpt lat="42.2067972" lon="13.2605919"><ele>919.0</ele><time>2026-05-02T15:51:57.907Z</time></trkpt><trkpt lat="42.2069054" lon="13.2607689"><ele>926.0</ele><time>2026-05-02T15:51:58.907Z</time></trkpt><trkpt lat="42.2070231" lon="13.2609614"><ele>926.0</ele><time>2026-05-02T15:51:59.908Z</time></trkpt><trkpt lat="42.2071403" lon="13.2611705"><ele>926.0</ele><time>2026-05-02T15:52:00.906Z</time></trkpt><trkpt lat="42.2072475" lon="13.2613771"><ele>926.0</ele><time>2026-05-02T15:52:01.907Z</time></trkpt><trkpt lat="42.2073479" lon="13.2615503"><ele>929.4</ele><time>2026-05-02T15:52:02.906Z</time></trkpt><trkpt lat="42.2074421" lon="13.2617002"><ele>932.8</ele><time>2026-05-02T15:52:03.906Z</time></trkpt><trkpt lat="42.2075309" lon="13.2618191"><ele>936.1999999999999</ele><time>2026-05-02T15:52:04.908Z</time></trkpt><trkpt lat="42.2076042" lon="13.2618428"><ele>939.5999999999999</ele><time>2026-05-02T15:52:05.906Z</time></trkpt><trkpt lat="42.2076792" lon="13.2618571"><ele>943.0</ele><time>2026-05-02T15:52:06.906Z</time></trkpt><trkpt lat="42.2077481" lon="13.2618208"><ele>942.9999999999999</ele><time>2026-05-02T15:52:07.907Z</time></trkpt><trkpt lat="42.2078239" lon="13.2617497"><ele>943.0</ele><time>2026-05-02T15:52:08.907Z</time></trkpt><trkpt lat="42.2078726" lon="13.2616689"><ele>943.0</ele><time>2026-05-02T15:52:09.907Z</time></trkpt><trkpt lat="42.2079079" lon="13.261593"><ele>943.0</ele><time>2026-05-02T15:52:10.906Z</time></trkpt><trkpt lat="42.2078208" lon="13.2615388"><ele>942.9999999999999</ele><time>2026-05-02T15:52:12.907Z</time></trkpt><trkpt lat="42.2077078" lon="13.2615559"><ele>943.0</ele><time>2026-05-02T15:52:14.907Z</time></trkpt><trkpt lat="42.2076283" lon="13.2614808"><ele>947.4</ele><time>2026-05-02T15:52:16.907Z</time></trkpt><trkpt lat="42.2076014" lon="13.2613835"><ele>951.8</ele><time>2026-05-02T15:52:17.906Z</time></trkpt><trkpt lat="42.2075653" lon="13.2612597"><ele>956.2</ele><time>2026-05-02T15:52:18.908Z</time></trkpt><trkpt lat="42.2075199" lon="13.261118"><ele>960.6</ele><time>2026-05-02T15:52:19.907Z</time></trkpt><trkpt lat="42.2074493" lon="13.2609766"><ele>965.0</ele><time>2026-05-02T15:52:20.906Z</time></trkpt><trkpt lat="42.2073785" lon="13.26081"><ele>957.6666666666667</ele><time>2026-05-02T15:52:21.906Z</time></trkpt><trkpt lat="42.2072952" lon="13.2606331"><ele>950.3333333333333</ele><time>2026-05-02T15:52:22.907Z</time></trkpt><trkpt lat="42.2072112" lon="13.2604364"><ele>943.0</ele><time>2026-05-02T15:52:23.905Z</time></trkpt><trkpt lat="42.2071303" lon="13.2602225"><ele>943.0</ele><time>2026-05-02T15:52:24.906Z</time></trkpt><trkpt lat="42.2070636" lon="13.2600131"><ele>943.0</ele><time>2026-05-02T15:52:25.907Z</time></trkpt><trkpt lat="42.2070099" lon="13.2598267"><ele>943.0</ele><time>2026-05-02T15:52:26.906Z</time></trkpt><trkpt lat="42.2069551" lon="13.2596534"><ele>944.5999999999999</ele><time>2026-05-02T15:52:27.908Z</time></trkpt><trkpt lat="42.2069357" lon="13.259533"><ele>946.1999999999999</ele><time>2026-05-02T15:52:28.907Z</time></trkpt><trkpt lat="42.2069424" lon="13.2594029"><ele>947.8</ele><time>2026-05-02T15:52:29.906Z</time></trkpt><trkpt lat="42.2069757" lon="13.2592588"><ele>949.4</ele><time>2026-05-02T15:52:30.907Z</time></trkpt><trkpt lat="42.2070319" lon="13.2591025"><ele>951.0</ele><time>2026-05-02T15:52:31.907Z</time></trkpt><trkpt lat="42.2071001" lon="13.2589387"><ele>951.0</ele><time>2026-05-02T15:52:32.906Z</time></trkpt><trkpt lat="42.2071782" lon="13.258741"><ele>951.0</ele><time>2026-05-02T15:52:33.907Z</time></trkpt><trkpt lat="42.2072282" lon="13.2585244"><ele>951.0</ele><time>2026-05-02T15:52:34.906Z</time></trkpt><trkpt lat="42.2072769" lon="13.2583139"><ele>954.75</ele><time>2026-05-02T15:52:35.906Z</time></trkpt><trkpt lat="42.2072886" lon="13.2580967"><ele>958.5</ele><time>2026-05-02T15:52:36.907Z</time></trkpt><trkpt lat="42.2072973" lon="13.2579091"><ele>962.25</ele><time>2026-05-02T15:52:37.907Z</time></trkpt><trkpt lat="42.2072832" lon="13.2577514"><ele>966.0</ele><time>2026-05-02T15:52:38.907Z</time></trkpt><trkpt lat="42.2072425" lon="13.2575983"><ele>966.0</ele><time>2026-05-02T15:52:39.906Z</time></trkpt><trkpt lat="42.2071368" lon="13.2574638"><ele>966.0</ele><time>2026-05-02T15:52:40.906Z</time></trkpt><trkpt lat="42.2070299" lon="13.25732"><ele>966.0</ele><time>2026-05-02T15:52:41.907Z</time></trkpt><trkpt lat="42.2069194" lon="13.2571745"><ele>971.25</ele><time>2026-05-02T15:52:42.907Z</time></trkpt><trkpt lat="42.2068082" lon="13.2570233"><ele>976.5</ele><time>2026-05-02T15:52:43.907Z</time></trkpt><trkpt lat="42.2067193" lon="13.2568801"><ele>981.75</ele><time>2026-05-02T15:52:44.907Z</time></trkpt><trkpt lat="42.2066447" lon="13.2567198"><ele>987.0</ele><time>2026-05-02T15:52:45.907Z</time></trkpt><trkpt lat="42.2065812" lon="13.2565336"><ele>990.5</ele><time>2026-05-02T15:52:46.906Z</time></trkpt><trkpt lat="42.2065265" lon="13.2563404"><ele>994.0</ele><time>2026-05-02T15:52:47.906Z</time></trkpt><trkpt lat="42.2064807" lon="13.2561451"><ele>997.5</ele><time>2026-05-02T15:52:48.907Z</time></trkpt><trkpt lat="42.2064493" lon="13.2559591"><ele>1001.0</ele><time>2026-05-02T15:52:49.905Z</time></trkpt><trkpt lat="42.2064418" lon="13.2557622"><ele>992.3333333333334</ele><time>2026-05-02T15:52:50.905Z</time></trkpt><trkpt lat="42.2064513" lon="13.2555585"><ele>983.6666666666667</ele><time>2026-05-02T15:52:51.906Z</time></trkpt><trkpt lat="42.2064717" lon="13.255353"><ele>975.0</ele><time>2026-05-02T15:52:52.905Z</time></trkpt><trkpt lat="42.2064861" lon="13.2551436"><ele>975.0</ele><time>2026-05-02T15:52:53.906Z</time></trkpt><trkpt lat="42.2064736" lon="13.254924"><ele>975.0</ele><time>2026-05-02T15:52:54.906Z</time></trkpt><trkpt lat="42.2064515" lon="13.2547055"><ele>975.0</ele><time>2026-05-02T15:52:55.907Z</time></trkpt><trkpt lat="42.2064252" lon="13.2544934"><ele>974.6666666666667</ele><time>2026-05-02T15:52:56.906Z</time></trkpt><trkpt lat="42.206408" lon="13.2542816"><ele>974.3333333333334</ele><time>2026-05-02T15:52:57.907Z</time></trkpt><trkpt lat="42.206405" lon="13.2540744"><ele>974.0</ele><time>2026-05-02T15:52:58.908Z</time></trkpt><trkpt lat="42.2064515" lon="13.2538617"><ele>974.0</ele><time>2026-05-02T15:52:59.907Z</time></trkpt><trkpt lat="42.2064928" lon="13.2536471"><ele>974.0</ele><time>2026-05-02T15:53:00.907Z</time></trkpt><trkpt lat="42.2065649" lon="13.2534428"><ele>974.0</ele><time>2026-05-02T15:53:01.907Z</time></trkpt><trkpt lat="42.2066273" lon="13.2532558"><ele>979.8000000000001</ele><time>2026-05-02T15:53:02.907Z</time></trkpt><trkpt lat="42.2066903" lon="13.2530772"><ele>985.6000000000001</ele><time>2026-05-02T15:53:03.907Z</time></trkpt><trkpt lat="42.2067439" lon="13.2529226"><ele>991.4</ele><time>2026-05-02T15:53:04.907Z</time></trkpt><trkpt lat="42.2067695" lon="13.2528141"><ele>997.2</ele><time>2026-05-02T15:53:05.908Z</time></trkpt><trkpt lat="42.2067959" lon="13.2527231"><ele>1003.0</ele><time>2026-05-02T15:53:06.907Z</time></trkpt><trkpt lat="42.2068374" lon="13.2526279"><ele>1003.0</ele><time>2026-05-02T15:53:08.907Z</time></trkpt><trkpt lat="42.2068732" lon="13.2527105"><ele>1003.0</ele><time>2026-05-02T15:53:10.907Z</time></trkpt><trkpt lat="42.206873" lon="13.2528505"><ele>1003.0</ele><time>2026-05-02T15:53:12.907Z</time></trkpt><trkpt lat="42.2068591" lon="13.2529364"><ele>1003.0</ele><time>2026-05-02T15:53:13.907Z</time></trkpt><trkpt lat="42.2068429" lon="13.2531122"><ele>1003.0</ele><time>2026-05-02T15:53:15.906Z</time></trkpt><trkpt lat="42.206839" lon="13.2532512"><ele>1004.0</ele><time>2026-05-02T15:53:16.905Z</time></trkpt><trkpt lat="42.2068405" lon="13.2533897"><ele>1005.0</ele><time>2026-05-02T15:53:17.907Z</time></trkpt><trkpt lat="42.2068458" lon="13.253525"><ele>1006.0</ele><time>2026-05-02T15:53:18.907Z</time></trkpt><trkpt lat="42.206858" lon="13.2536531"><ele>1007.0</ele><time>2026-05-02T15:53:19.907Z</time></trkpt><trkpt lat="42.2068669" lon="13.2537732"><ele>1008.0</ele><time>2026-05-02T15:53:20.907Z</time></trkpt><trkpt lat="42.2068935" lon="13.2538703"><ele>1008.5999999999999</ele><time>2026-05-02T15:53:21.906Z</time></trkpt><trkpt lat="42.2069249" lon="13.2539735"><ele>1009.1999999999999</ele><time>2026-05-02T15:53:22.907Z</time></trkpt><trkpt lat="42.2069827" lon="13.2540831"><ele>1009.8</ele><time>2026-05-02T15:53:23.906Z</time></trkpt><trkpt lat="42.2070235" lon="13.254199"><ele>1010.4</ele><time>2026-05-02T15:53:24.906Z</time></trkpt><trkpt lat="42.2070567" lon="13.2543228"><ele>1011.0</ele><time>2026-05-02T15:53:25.908Z</time></trkpt><trkpt lat="42.207085" lon="13.2544461"><ele>1011.0</ele><time>2026-05-02T15:53:26.907Z</time></trkpt><trkpt lat="42.2071126" lon="13.2545786"><ele>1010.9999999999999</ele><time>2026-05-02T15:53:27.908Z</time></trkpt><trkpt lat="42.2071367" lon="13.2547085"><ele>1010.9999999999999</ele><time>2026-05-02T15:53:28.907Z</time></trkpt><trkpt lat="42.2071603" lon="13.2548311"><ele>1011.0</ele><time>2026-05-02T15:53:29.906Z</time></trkpt><trkpt lat="42.2071912" lon="13.2549663"><ele>1011.0</ele><time>2026-05-02T15:53:30.906Z</time></trkpt><trkpt lat="42.2072243" lon="13.2551116"><ele>1009.75</ele><time>2026-05-02T15:53:31.907Z</time></trkpt><trkpt lat="42.2072543" lon="13.2552593"><ele>1008.5</ele><time>2026-05-02T15:53:32.906Z</time></trkpt><trkpt lat="42.20728" lon="13.2554161"><ele>1007.25</ele><time>2026-05-02T15:53:33.908Z</time></trkpt><trkpt lat="42.2073113" lon="13.2555689"><ele>1006.0</ele><time>2026-05-02T15:53:34.906Z</time></trkpt><trkpt lat="42.2073512" lon="13.2557235"><ele>1013.75</ele><time>2026-05-02T15:53:35.907Z</time></trkpt><trkpt lat="42.2073905" lon="13.2558775"><ele>1021.5</ele><time>2026-05-02T15:53:36.907Z</time></trkpt><trkpt lat="42.2074323" lon="13.2560285"><ele>1029.25</ele><time>2026-05-02T15:53:37.906Z</time></trkpt><trkpt lat="42.2074782" lon="13.2561654"><ele>1037.0</ele><time>2026-05-02T15:53:38.907Z</time></trkpt><trkpt lat="42.2075366" lon="13.2562827"><ele>1037.0</ele><time>2026-05-02T15:53:39.906Z</time></trkpt><trkpt lat="42.2076096" lon="13.2563934"><ele>1037.0</ele><time>2026-05-02T15:53:40.906Z</time></trkpt><trkpt lat="42.207696" lon="13.2564938"><ele>1037.0</ele><time>2026-05-02T15:53:41.906Z</time></trkpt><trkpt lat="42.2077894" lon="13.25659"><ele>1037.0</ele><time>2026-05-02T15:53:42.905Z</time></trkpt><trkpt lat="42.207885" lon="13.256702"><ele>1033.25</ele><time>2026-05-02T15:53:43.907Z</time></trkpt><trkpt lat="42.207967" lon="13.2568043"><ele>1029.5</ele><time>2026-05-02T15:53:44.907Z</time></trkpt><trkpt lat="42.2080461" lon="13.2569232"><ele>1025.75</ele><time>2026-05-02T15:53:45.906Z</time></trkpt><trkpt lat="42.2081269" lon="13.2570484"><ele>1022.0</ele><time>2026-05-02T15:53:46.908Z</time></trkpt><trkpt lat="42.2082033" lon="13.2571854"><ele>1028.0</ele><time>2026-05-02T15:53:47.906Z</time></trkpt><trkpt lat="42.2082622" lon="13.2573154"><ele>1034.0</ele><time>2026-05-02T15:53:48.907Z</time></trkpt><trkpt lat="42.2083202" lon="13.2574375"><ele>1040.0</ele><time>2026-05-02T15:53:49.907Z</time></trkpt><trkpt lat="42.2083545" lon="13.2575852"><ele>1046.0</ele><time>2026-05-02T15:53:50.907Z</time></trkpt><trkpt lat="42.2083857" lon="13.2577462"><ele>1046.0</ele><time>2026-05-02T15:53:51.907Z</time></trkpt><trkpt lat="42.2084011" lon="13.2579232"><ele>1046.0</ele><time>2026-05-02T15:53:52.906Z</time></trkpt><trkpt lat="42.2084156" lon="13.2581173"><ele>1046.0</ele><time>2026-05-02T15:53:53.907Z</time></trkpt><trkpt lat="42.2084312" lon="13.2583066"><ele>1046.0</ele><time>2026-05-02T15:53:54.907Z</time></trkpt><trkpt lat="42.2084531" lon="13.2584818"><ele>1044.6</ele><time>2026-05-02T15:53:55.908Z</time></trkpt><trkpt lat="42.208481" lon="13.2586384"><ele>1043.1999999999998</ele><time>2026-05-02T15:53:56.907Z</time></trkpt><trkpt lat="42.2085168" lon="13.2587753"><ele>1041.8000000000002</ele><time>2026-05-02T15:53:57.907Z</time></trkpt><trkpt lat="42.2085618" lon="13.2588884"><ele>1040.4</ele><time>2026-05-02T15:53:58.907Z</time></trkpt><trkpt lat="42.2086172" lon="13.2589668"><ele>1039.0</ele><time>2026-05-02T15:53:59.905Z</time></trkpt><trkpt lat="42.2086841" lon="13.2590188"><ele>1037.6000000000001</ele><time>2026-05-02T15:54:00.907Z</time></trkpt><trkpt lat="42.2087621" lon="13.2590578"><ele>1036.2</ele><time>2026-05-02T15:54:01.906Z</time></trkpt><trkpt lat="42.2088528" lon="13.259088"><ele>1034.8000000000002</ele><time>2026-05-02T15:54:02.906Z</time></trkpt><trkpt lat="42.2089543" lon="13.2591132"><ele>1033.4</ele><time>2026-05-02T15:54:03.908Z</time></trkpt><trkpt lat="42.2090585" lon="13.2591314"><ele>1032.0</ele><time>2026-05-02T15:54:04.905Z</time></trkpt><trkpt lat="42.2091673" lon="13.2591567"><ele>1039.0</ele><time>2026-05-02T15:54:05.907Z</time></trkpt><trkpt lat="42.2092871" lon="13.259191"><ele>1046.0</ele><time>2026-05-02T15:54:06.907Z</time></trkpt><trkpt lat="42.2094085" lon="13.25922"><ele>1053.0</ele><time>2026-05-02T15:54:07.907Z</time></trkpt><trkpt lat="42.2095284" lon="13.2592485"><ele>1060.0</ele><time>2026-05-02T15:54:08.907Z</time></trkpt><trkpt lat="42.2096572" lon="13.2592851"><ele>1060.0</ele><time>2026-05-02T15:54:09.907Z</time></trkpt><trkpt lat="42.2097938" lon="13.259338"><ele>1060.0</ele><time>2026-05-02T15:54:10.906Z</time></trkpt><trkpt lat="42.2099235" lon="13.2594031"><ele>1060.0</ele><time>2026-05-02T15:54:11.907Z</time></trkpt><trkpt lat="42.2100515" lon="13.2594766"><ele>1060.0</ele><time>2026-05-02T15:54:12.907Z</time></trkpt><trkpt lat="42.2101709" lon="13.2595655"><ele>1058.75</ele><time>2026-05-02T15:54:13.907Z</time></trkpt><trkpt lat="42.2102824" lon="13.2596645"><ele>1057.5</ele><time>2026-05-02T15:54:14.905Z</time></trkpt><trkpt lat="42.210384" lon="13.2597725"><ele>1056.25</ele><time>2026-05-02T15:54:15.906Z</time></trkpt><trkpt lat="42.2104857" lon="13.2598888"><ele>1055.0</ele><time>2026-05-02T15:54:16.907Z</time></trkpt><trkpt lat="42.21057" lon="13.260004"><ele>1055.0</ele><time>2026-05-02T15:54:17.907Z</time></trkpt><trkpt lat="42.2106364" lon="13.260132"><ele>1055.0</ele><time>2026-05-02T15:54:18.907Z</time></trkpt><trkpt lat="42.2107119" lon="13.2602736"><ele>1055.0</ele><time>2026-05-02T15:54:19.906Z</time></trkpt><trkpt lat="42.2107838" lon="13.2604024"><ele>1055.0</ele><time>2026-05-02T15:54:20.907Z</time></trkpt><trkpt lat="42.2108702" lon="13.2605247"><ele>1058.0</ele><time>2026-05-02T15:54:21.907Z</time></trkpt><trkpt lat="42.2109704" lon="13.2606384"><ele>1061.0</ele><time>2026-05-02T15:54:22.908Z</time></trkpt><trkpt lat="42.2110733" lon="13.2607297"><ele>1064.0</ele><time>2026-05-02T15:54:23.907Z</time></trkpt><trkpt lat="42.2111805" lon="13.2608058"><ele>1067.0</ele><time>2026-05-02T15:54:24.906Z</time></trkpt><trkpt lat="42.2112977" lon="13.2608723"><ele>1067.0</ele><time>2026-05-02T15:54:25.908Z</time></trkpt><trkpt lat="42.2114136" lon="13.2609231"><ele>1067.0</ele><time>2026-05-02T15:54:26.905Z</time></trkpt><trkpt lat="42.2115359" lon="13.2609586"><ele>1067.0</ele><time>2026-05-02T15:54:27.907Z</time></trkpt><trkpt lat="42.2116383" lon="13.2609884"><ele>1067.0</ele><time>2026-05-02T15:54:28.906Z</time></trkpt><trkpt lat="42.2117404" lon="13.2610455"><ele>1072.6666666666667</ele><time>2026-05-02T15:54:29.907Z</time></trkpt><trkpt lat="42.2118279" lon="13.2611105"><ele>1078.3333333333335</ele><time>2026-05-02T15:54:30.907Z</time></trkpt><trkpt lat="42.2119149" lon="13.2611713"><ele>1084.0</ele><time>2026-05-02T15:54:31.906Z</time></trkpt><trkpt lat="42.2119946" lon="13.2612142"><ele>1089.6666666666667</ele><time>2026-05-02T15:54:32.907Z</time></trkpt><trkpt lat="42.2120701" lon="13.2612401"><ele>1095.3333333333333</ele><time>2026-05-02T15:54:33.906Z</time></trkpt><trkpt lat="42.2121572" lon="13.2612548"><ele>1101.0</ele><time>2026-05-02T15:54:34.906Z</time></trkpt><trkpt lat="42.2122429" lon="13.2612568"><ele>1104.1666666666667</ele><time>2026-05-02T15:54:35.906Z</time></trkpt><trkpt lat="42.2123238" lon="13.2612382"><ele>1107.3333333333333</ele><time>2026-05-02T15:54:36.905Z</time></trkpt><trkpt lat="42.2124096" lon="13.2612192"><ele>1110.5</ele><time>2026-05-02T15:54:37.908Z</time></trkpt><trkpt lat="42.2124851" lon="13.261225"><ele>1113.6666666666665</ele><time>2026-05-02T15:54:38.907Z</time></trkpt><trkpt lat="42.212554" lon="13.2612458"><ele>1116.8333333333333</ele><time>2026-05-02T15:54:39.906Z</time></trkpt><trkpt lat="42.2126031" lon="13.2613048"><ele>1120.0</ele><time>2026-05-02T15:54:40.907Z</time></trkpt><trkpt lat="42.2126466" lon="13.2613906"><ele>1115.8</ele><time>2026-05-02T15:54:41.906Z</time></trkpt><trkpt lat="42.2126904" lon="13.2614913"><ele>1111.6</ele><time>2026-05-02T15:54:42.907Z</time></trkpt><trkpt lat="42.2127495" lon="13.2616173"><ele>1107.4</ele><time>2026-05-02T15:54:43.906Z</time></trkpt><trkpt lat="42.2128062" lon="13.2617207"><ele>1103.2</ele><time>2026-05-02T15:54:44.907Z</time></trkpt><trkpt lat="42.2128833" lon="13.2618304"><ele>1099.0</ele><time>2026-05-02T15:54:45.905Z</time></trkpt><trkpt lat="42.2129641" lon="13.2619298"><ele>1099.0</ele><time>2026-05-02T15:54:46.907Z</time></trkpt><trkpt lat="42.2130392" lon="13.2620266"><ele>1099.0</ele><time>2026-05-02T15:54:47.907Z</time></trkpt><trkpt lat="42.2131284" lon="13.2621467"><ele>1099.0</ele><time>2026-05-02T15:54:48.907Z</time></trkpt><trkpt lat="42.2132145" lon="13.2622611"><ele>1099.0</ele><time>2026-05-02T15:54:49.906Z</time></trkpt><trkpt lat="42.2133046" lon="13.2623672"><ele>1100.6000000000001</ele><time>2026-05-02T15:54:50.907Z</time></trkpt><trkpt lat="42.2133913" lon="13.2624725"><ele>1102.2</ele><time>2026-05-02T15:54:51.906Z</time></trkpt><trkpt lat="42.2134749" lon="13.2625688"><ele>1103.8000000000002</ele><time>2026-05-02T15:54:52.906Z</time></trkpt><trkpt lat="42.213561" lon="13.2626471"><ele>1105.4</ele><time>2026-05-02T15:54:53.907Z</time></trkpt><trkpt lat="42.2136431" lon="13.2627243"><ele>1107.0</ele><time>2026-05-02T15:54:54.907Z</time></trkpt><trkpt lat="42.2137122" lon="13.2628064"><ele>1107.0</ele><time>2026-05-02T15:54:55.906Z</time></trkpt><trkpt lat="42.2137883" lon="13.2628744"><ele>1107.0</ele><time>2026-05-02T15:54:56.905Z</time></trkpt><trkpt lat="42.2138806" lon="13.2629466"><ele>1107.0</ele><time>2026-05-02T15:54:57.907Z</time></trkpt><trkpt lat="42.2139786" lon="13.26301"><ele>1107.0</ele><time>2026-05-02T15:54:58.908Z</time></trkpt><trkpt lat="42.2140935" lon="13.263043"><ele>1107.0</ele><time>2026-05-02T15:54:59.906Z</time></trkpt><trkpt lat="42.2141979" lon="13.2630856"><ele>1108.25</ele><time>2026-05-02T15:55:00.907Z</time></trkpt><trkpt lat="42.2143166" lon="13.2631171"><ele>1109.5</ele><time>2026-05-02T15:55:01.908Z</time></trkpt><trkpt lat="42.2144226" lon="13.2631432"><ele>1110.75</ele><time>2026-05-02T15:55:02.906Z</time></trkpt><trkpt lat="42.2145499" lon="13.2631263"><ele>1112.0</ele><time>2026-05-02T15:55:03.907Z</time></trkpt><trkpt lat="42.2146535" lon="13.2631017"><ele>1112.0</ele><time>2026-05-02T15:55:04.907Z</time></trkpt><trkpt lat="42.2147652" lon="13.2630869"><ele>1112.0</ele><time>2026-05-02T15:55:05.906Z</time></trkpt><trkpt lat="42.2148754" lon="13.2630869"><ele>1112.0</ele><time>2026-05-02T15:55:06.906Z</time></trkpt><trkpt lat="42.2149788" lon="13.2631049"><ele>1112.0</ele><time>2026-05-02T15:55:07.907Z</time></trkpt><trkpt lat="42.2150861" lon="13.2631275"><ele>1112.0</ele><time>2026-05-02T15:55:08.907Z</time></trkpt><trkpt lat="42.2151828" lon="13.2631716"><ele>1109.6666666666667</ele><time>2026-05-02T15:55:09.907Z</time></trkpt><trkpt lat="42.2152744" lon="13.2632152"><ele>1107.3333333333335</ele><time>2026-05-02T15:55:10.907Z</time></trkpt><trkpt lat="42.2153461" lon="13.2633043"><ele>1105.0</ele><time>2026-05-02T15:55:11.907Z</time></trkpt><trkpt lat="42.215422" lon="13.2633776"><ele>1102.6666666666667</ele><time>2026-05-02T15:55:12.908Z</time></trkpt><trkpt lat="42.2154882" lon="13.2634528"><ele>1100.3333333333333</ele><time>2026-05-02T15:55:13.906Z</time></trkpt><trkpt lat="42.2155406" lon="13.2635239"><ele>1098.0</ele><time>2026-05-02T15:55:14.906Z</time></trkpt><trkpt lat="42.2155643" lon="13.2636495"><ele>1098.0</ele><time>2026-05-02T15:55:16.907Z</time></trkpt><trkpt lat="42.2155063" lon="13.2637886"><ele>1098.0</ele><time>2026-05-02T15:55:18.908Z</time></trkpt><trkpt lat="42.2154483" lon="13.2638407"><ele>1098.0</ele><time>2026-05-02T15:55:19.907Z</time></trkpt><trkpt lat="42.2153805" lon="13.2639398"><ele>1098.0</ele><time>2026-05-02T15:55:21.906Z</time></trkpt><trkpt lat="42.2154116" lon="13.2640365"><ele>1098.0</ele><time>2026-05-02T15:55:23.907Z</time></trkpt><trkpt lat="42.2154656" lon="13.2640849"><ele>1098.0</ele><time>2026-05-02T15:55:24.907Z</time></trkpt><trkpt lat="42.21554" lon="13.2641367"><ele>1098.0</ele><time>2026-05-02T15:55:25.907Z</time></trkpt><trkpt lat="42.215617" lon="13.2642008"><ele>1098.0</ele><time>2026-05-02T15:55:26.908Z</time></trkpt><trkpt lat="42.2157079" lon="13.2642521"><ele>1098.0</ele><time>2026-05-02T15:55:27.907Z</time></trkpt><trkpt lat="42.2157938" lon="13.2642834"><ele>1098.0</ele><time>2026-05-02T15:55:28.908Z</time></trkpt><trkpt lat="42.2158881" lon="13.2642705"><ele>1098.0</ele><time>2026-05-02T15:55:29.907Z</time></trkpt><trkpt lat="42.2159686" lon="13.2642911"><ele>1100.5</ele><time>2026-05-02T15:55:30.907Z</time></trkpt><trkpt lat="42.2160766" lon="13.264376"><ele>1103.0</ele><time>2026-05-02T15:55:32.908Z</time></trkpt><trkpt lat="42.2161299" lon="13.2644397"><ele>1105.5</ele><time>2026-05-02T15:55:33.907Z</time></trkpt><trkpt lat="42.2161755" lon="13.2645222"><ele>1108.0</ele><time>2026-05-02T15:55:34.907Z</time></trkpt><trkpt lat="42.2161871" lon="13.2646168"><ele>1110.5</ele><time>2026-05-02T15:55:35.907Z</time></trkpt><trkpt lat="42.2161965" lon="13.2647195"><ele>1113.0</ele><time>2026-05-02T15:55:36.907Z</time></trkpt><trkpt lat="42.2161816" lon="13.2648462"><ele>1114.5</ele><time>2026-05-02T15:55:37.907Z</time></trkpt><trkpt lat="42.2161657" lon="13.2649323"><ele>1116.0</ele><time>2026-05-02T15:55:38.907Z</time></trkpt><trkpt lat="42.216145" lon="13.265028"><ele>1117.5</ele><time>2026-05-02T15:55:39.906Z</time></trkpt><trkpt lat="42.2161498" lon="13.2652029"><ele>1119.0</ele><time>2026-05-02T15:55:41.907Z</time></trkpt><trkpt lat="42.2161989" lon="13.2652964"><ele>1120.5</ele><time>2026-05-02T15:55:42.906Z</time></trkpt><trkpt lat="42.2162555" lon="13.2653765"><ele>1122.0</ele><time>2026-05-02T15:55:43.906Z</time></trkpt><trkpt lat="42.2163342" lon="13.2654476"><ele>1122.0</ele><time>2026-05-02T15:55:44.907Z</time></trkpt><trkpt lat="42.216412" lon="13.2655347"><ele>1122.0</ele><time>2026-05-02T15:55:45.906Z</time></trkpt><trkpt lat="42.2164588" lon="13.2656162"><ele>1122.0</ele><time>2026-05-02T15:55:46.907Z</time></trkpt><trkpt lat="42.2165134" lon="13.2657059"><ele>1122.0</ele><time>2026-05-02T15:55:47.906Z</time></trkpt><trkpt lat="42.2165909" lon="13.265774"><ele>1122.0</ele><time>2026-05-02T15:55:48.907Z</time></trkpt><trkpt lat="42.216688" lon="13.2658347"><ele>1121.6</ele><time>2026-05-02T15:55:49.908Z</time></trkpt><trkpt lat="42.2167778" lon="13.2658789"><ele>1121.2</ele><time>2026-05-02T15:55:50.907Z</time></trkpt><trkpt lat="42.2168685" lon="13.2659274"><ele>1120.8</ele><time>2026-05-02T15:55:51.906Z</time></trkpt><trkpt lat="42.2169651" lon="13.2659684"><ele>1120.4</ele><time>2026-05-02T15:55:52.907Z</time></trkpt><trkpt lat="42.217057" lon="13.2659981"><ele>1120.0</ele><time>2026-05-02T15:55:53.907Z</time></trkpt><trkpt lat="42.2171404" lon="13.2660205"><ele>1120.0</ele><time>2026-05-02T15:55:54.906Z</time></trkpt><trkpt lat="42.2172262" lon="13.2660346"><ele>1120.0</ele><time>2026-05-02T15:55:55.907Z</time></trkpt><trkpt lat="42.2173125" lon="13.2660455"><ele>1120.0</ele><time>2026-05-02T15:55:56.907Z</time></trkpt><trkpt lat="42.2173989" lon="13.2660443"><ele>1120.0</ele><time>2026-05-02T15:55:57.907Z</time></trkpt><trkpt lat="42.2174929" lon="13.266027"><ele>1120.0</ele><time>2026-05-02T15:55:58.907Z</time></trkpt><trkpt lat="42.2175773" lon="13.2660185"><ele>1120.0</ele><time>2026-05-02T15:55:59.907Z</time></trkpt><trkpt lat="42.2176483" lon="13.2660262"><ele>1118.0</ele><time>2026-05-02T15:56:00.905Z</time></trkpt><trkpt lat="42.2177365" lon="13.2661159"><ele>1116.0</ele><time>2026-05-02T15:56:02.907Z</time></trkpt><trkpt lat="42.2178024" lon="13.2661843"><ele>1114.0</ele><time>2026-05-02T15:56:03.907Z</time></trkpt><trkpt lat="42.2178631" lon="13.2662199"><ele>1112.0</ele><time>2026-05-02T15:56:04.906Z</time></trkpt><trkpt lat="42.217978" lon="13.2662091"><ele>1110.0</ele><time>2026-05-02T15:56:06.906Z</time></trkpt><trkpt lat="42.2180721" lon="13.2660916"><ele>1110.0</ele><time>2026-05-02T15:56:08.908Z</time></trkpt><trkpt lat="42.2181107" lon="13.2660114"><ele>1110.0</ele><time>2026-05-02T15:56:09.907Z</time></trkpt><trkpt lat="42.2181931" lon="13.2658936"><ele>1110.0</ele><time>2026-05-02T15:56:11.907Z</time></trkpt><trkpt lat="42.2183124" lon="13.2658269"><ele>1110.0</ele><time>2026-05-02T15:56:13.906Z</time></trkpt><trkpt lat="42.218423" lon="13.2658445"><ele>1110.0</ele><time>2026-05-02T15:56:14.907Z</time></trkpt><trkpt lat="42.2185062" lon="13.2658361"><ele>1110.6</ele><time>2026-05-02T15:56:15.905Z</time></trkpt><trkpt lat="42.218595" lon="13.2658078"><ele>1111.2</ele><time>2026-05-02T15:56:16.906Z</time></trkpt><trkpt lat="42.21868" lon="13.2657658"><ele>1111.8</ele><time>2026-05-02T15:56:17.906Z</time></trkpt><trkpt lat="42.2187637" lon="13.2657189"><ele>1112.4</ele><time>2026-05-02T15:56:18.908Z</time></trkpt><trkpt lat="42.2188789" lon="13.2656795"><ele>1113.0</ele><time>2026-05-02T15:56:19.908Z</time></trkpt><trkpt lat="42.2189723" lon="13.2656507"><ele>1113.6</ele><time>2026-05-02T15:56:20.907Z</time></trkpt><trkpt lat="42.2190613" lon="13.2656032"><ele>1114.1999999999998</ele><time>2026-05-02T15:56:21.907Z</time></trkpt><trkpt lat="42.2191493" lon="13.2655504"><ele>1114.8</ele><time>2026-05-02T15:56:22.907Z</time></trkpt><trkpt lat="42.2192092" lon="13.2654616"><ele>1115.3999999999999</ele><time>2026-05-02T15:56:23.907Z</time></trkpt><trkpt lat="42.2192728" lon="13.2653755"><ele>1116.0</ele><time>2026-05-02T15:56:24.907Z</time></trkpt><trkpt lat="42.2193668" lon="13.2653024"><ele>1116.0</ele><time>2026-05-02T15:56:25.907Z</time></trkpt><trkpt lat="42.2194612" lon="13.2652271"><ele>1116.0</ele><time>2026-05-02T15:56:26.907Z</time></trkpt><trkpt lat="42.2195579" lon="13.2651442"><ele>1116.0</ele><time>2026-05-02T15:56:27.908Z</time></trkpt><trkpt lat="42.2196384" lon="13.2650594"><ele>1116.0</ele><time>2026-05-02T15:56:28.907Z</time></trkpt><trkpt lat="42.2197216" lon="13.2649742"><ele>1116.0</ele><time>2026-05-02T15:56:29.906Z</time></trkpt><trkpt lat="42.2197719" lon="13.264864"><ele>1117.3999999999999</ele><time>2026-05-02T15:56:30.908Z</time></trkpt><trkpt lat="42.2198233" lon="13.2647529"><ele>1118.8</ele><time>2026-05-02T15:56:31.907Z</time></trkpt><trkpt lat="42.2198853" lon="13.2646564"><ele>1120.1999999999998</ele><time>2026-05-02T15:56:32.906Z</time></trkpt><trkpt lat="42.2199522" lon="13.2645771"><ele>1121.6</ele><time>2026-05-02T15:56:33.907Z</time></trkpt><trkpt lat="42.2200175" lon="13.2645075"><ele>1123.0</ele><time>2026-05-02T15:56:34.908Z</time></trkpt><trkpt lat="42.2201298" lon="13.2645138"><ele>1123.0</ele><time>2026-05-02T15:56:36.906Z</time></trkpt><trkpt lat="42.2202299" lon="13.2646173"><ele>1123.0</ele><time>2026-05-02T15:56:38.906Z</time></trkpt><trkpt lat="42.220275" lon="13.264692"><ele>1123.0</ele><time>2026-05-02T15:56:39.907Z</time></trkpt><trkpt lat="42.2203723" lon="13.2647736"><ele>1123.0</ele><time>2026-05-02T15:56:41.908Z</time></trkpt><trkpt lat="42.2204477" lon="13.2647855"><ele>1123.0</ele><time>2026-05-02T15:56:42.907Z</time></trkpt><trkpt lat="42.2205176" lon="13.2647715"><ele>1123.0</ele><time>2026-05-02T15:56:43.907Z</time></trkpt><trkpt lat="42.2205858" lon="13.2647604"><ele>1123.0</ele><time>2026-05-02T15:56:44.906Z</time></trkpt><trkpt lat="42.220675" lon="13.2647533"><ele>1123.0</ele><time>2026-05-02T15:56:45.908Z</time></trkpt><trkpt lat="42.2207581" lon="13.2647627"><ele>1123.0</ele><time>2026-05-02T15:56:46.907Z</time></trkpt><trkpt lat="42.2208468" lon="13.264769"><ele>1123.0</ele><time>2026-05-02T15:56:47.907Z</time></trkpt><trkpt lat="42.2209231" lon="13.2647812"><ele>1123.0</ele><time>2026-05-02T15:56:48.907Z</time></trkpt><trkpt lat="42.2210015" lon="13.2648372"><ele>1124.0</ele><time>2026-05-02T15:56:49.907Z</time></trkpt><trkpt lat="42.2210836" lon="13.2648947"><ele>1125.0</ele><time>2026-05-02T15:56:50.907Z</time></trkpt><trkpt lat="42.221169" lon="13.2649791"><ele>1126.0</ele><time>2026-05-02T15:56:51.907Z</time></trkpt><trkpt lat="42.221252" lon="13.2650542"><ele>1127.0</ele><time>2026-05-02T15:56:52.907Z</time></trkpt><trkpt lat="42.2213004" lon="13.2651155"><ele>1128.0</ele><time>2026-05-02T15:56:53.907Z</time></trkpt><trkpt lat="42.2213534" lon="13.2651683"><ele>1129.0</ele><time>2026-05-02T15:56:54.907Z</time></trkpt><trkpt lat="42.2214384" lon="13.2651897"><ele>1128.0</ele><time>2026-05-02T15:56:56.907Z</time></trkpt><trkpt lat="42.2215288" lon="13.265119"><ele>1127.0</ele><time>2026-05-02T15:56:58.908Z</time></trkpt><trkpt lat="42.2216562" lon="13.2650095"><ele>1126.0</ele><time>2026-05-02T15:57:00.907Z</time></trkpt><trkpt lat="42.2217328" lon="13.2649397"><ele>1125.0</ele><time>2026-05-02T15:57:01.907Z</time></trkpt><trkpt lat="42.2218067" lon="13.2648724"><ele>1124.0</ele><time>2026-05-02T15:57:02.908Z</time></trkpt><trkpt lat="42.2218591" lon="13.2647898"><ele>1121.3333333333335</ele><time>2026-05-02T15:57:03.907Z</time></trkpt><trkpt lat="42.221915" lon="13.2647118"><ele>1118.6666666666667</ele><time>2026-05-02T15:57:04.908Z</time></trkpt><trkpt lat="42.221957" lon="13.2646381"><ele>1116.0</ele><time>2026-05-02T15:57:05.906Z</time></trkpt><trkpt lat="42.2220469" lon="13.2645586"><ele>1113.3333333333333</ele><time>2026-05-02T15:57:07.907Z</time></trkpt><trkpt lat="42.2221208" lon="13.264518"><ele>1110.6666666666665</ele><time>2026-05-02T15:57:08.906Z</time></trkpt><trkpt lat="42.22218" lon="13.2644875"><ele>1108.0</ele><time>2026-05-02T15:57:09.907Z</time></trkpt><trkpt lat="42.2222556" lon="13.2644442"><ele>1111.1666666666665</ele><time>2026-05-02T15:57:10.906Z</time></trkpt><trkpt lat="42.2223332" lon="13.2643823"><ele>1114.3333333333333</ele><time>2026-05-02T15:57:11.906Z</time></trkpt><trkpt lat="42.2224016" lon="13.2642967"><ele>1117.5</ele><time>2026-05-02T15:57:12.907Z</time></trkpt><trkpt lat="42.2224631" lon="13.2642176"><ele>1120.6666666666667</ele><time>2026-05-02T15:57:13.906Z</time></trkpt><trkpt lat="42.2225382" lon="13.264166"><ele>1123.8333333333335</ele><time>2026-05-02T15:57:14.906Z</time></trkpt><trkpt lat="42.2226012" lon="13.2641327"><ele>1127.0</ele><time>2026-05-02T15:57:15.906Z</time></trkpt><trkpt lat="42.2226726" lon="13.2640927"><ele>1127.0</ele><time>2026-05-02T15:57:16.908Z</time></trkpt><trkpt lat="42.2227567" lon="13.2640358"><ele>1127.0</ele><time>2026-05-02T15:57:17.907Z</time></trkpt><trkpt lat="42.2228488" lon="13.2639799"><ele>1127.0</ele><time>2026-05-02T15:57:18.906Z</time></trkpt><trkpt lat="42.2229369" lon="13.2639122"><ele>1127.0</ele><time>2026-05-02T15:57:19.907Z</time></trkpt><trkpt lat="42.2230343" lon="13.2638396"><ele>1127.0</ele><time>2026-05-02T15:57:20.906Z</time></trkpt><trkpt lat="42.2231373" lon="13.2637741"><ele>1127.0</ele><time>2026-05-02T15:57:21.907Z</time></trkpt><trkpt lat="42.2232213" lon="13.2637111"><ele>1127.0</ele><time>2026-05-02T15:57:22.907Z</time></trkpt><trkpt lat="42.2233024" lon="13.263647"><ele>1127.0</ele><time>2026-05-02T15:57:23.907Z</time></trkpt><trkpt lat="42.2233667" lon="13.2635687"><ele>1127.0</ele><time>2026-05-02T15:57:24.906Z</time></trkpt><trkpt lat="42.2234295" lon="13.2634963"><ele>1127.0</ele><time>2026-05-02T15:57:25.907Z</time></trkpt><trkpt lat="42.223491" lon="13.2634418"><ele>1127.0</ele><time>2026-05-02T15:57:26.907Z</time></trkpt><trkpt lat="42.2235466" lon="13.2633885"><ele>1127.0</ele><time>2026-05-02T15:57:27.907Z</time></trkpt><trkpt lat="42.2236145" lon="13.2633913"><ele>1127.0</ele><time>2026-05-02T15:57:28.906Z</time></trkpt><trkpt lat="42.22368" lon="13.2633787"><ele>1127.0</ele><time>2026-05-02T15:57:29.908Z</time></trkpt><trkpt lat="42.2237857" lon="13.263397"><ele>1127.0</ele><time>2026-05-02T15:57:30.907Z</time></trkpt><trkpt lat="42.2238898" lon="13.2634094"><ele>1127.0</ele><time>2026-05-02T15:57:31.907Z</time></trkpt><trkpt lat="42.2240081" lon="13.2634334"><ele>1129.0</ele><time>2026-05-02T15:57:32.907Z</time></trkpt><trkpt lat="42.2241164" lon="13.2634525"><ele>1131.0</ele><time>2026-05-02T15:57:33.906Z</time></trkpt><trkpt lat="42.2242141" lon="13.2634605"><ele>1133.0</ele><time>2026-05-02T15:57:34.907Z</time></trkpt><trkpt lat="42.2243081" lon="13.2634577"><ele>1135.0</ele><time>2026-05-02T15:57:35.906Z</time></trkpt><trkpt lat="42.2243931" lon="13.2634565"><ele>1137.0</ele><time>2026-05-02T15:57:36.907Z</time></trkpt><trkpt lat="42.2244803" lon="13.2634628"><ele>1137.0</ele><time>2026-05-02T15:57:37.906Z</time></trkpt><trkpt lat="42.224568" lon="13.2634844"><ele>1137.0</ele><time>2026-05-02T15:57:38.906Z</time></trkpt><trkpt lat="42.2246402" lon="13.2634849"><ele>1137.0</ele><time>2026-05-02T15:57:39.907Z</time></trkpt><trkpt lat="42.2247127" lon="13.2634813"><ele>1137.0</ele><time>2026-05-02T15:57:40.906Z</time></trkpt><trkpt lat="42.2247856" lon="13.263459"><ele>1137.0</ele><time>2026-05-02T15:57:41.907Z</time></trkpt><trkpt lat="42.2248674" lon="13.2634321"><ele>1137.0</ele><time>2026-05-02T15:57:42.907Z</time></trkpt><trkpt lat="42.2249476" lon="13.2633999"><ele>1138.3333333333333</ele><time>2026-05-02T15:57:43.907Z</time></trkpt><trkpt lat="42.2250343" lon="13.2633731"><ele>1139.6666666666667</ele><time>2026-05-02T15:57:44.906Z</time></trkpt><trkpt lat="42.2251169" lon="13.2633597"><ele>1141.0</ele><time>2026-05-02T15:57:45.907Z</time></trkpt><trkpt lat="42.225196" lon="13.2633519"><ele>1142.3333333333335</ele><time>2026-05-02T15:57:46.907Z</time></trkpt><trkpt lat="42.2252762" lon="13.2633541"><ele>1143.6666666666667</ele><time>2026-05-02T15:57:47.907Z</time></trkpt><trkpt lat="42.225366" lon="13.2633583"><ele>1145.0</ele><time>2026-05-02T15:57:48.906Z</time></trkpt><trkpt lat="42.2254534" lon="13.263341"><ele>1145.0</ele><time>2026-05-02T15:57:49.907Z</time></trkpt><trkpt lat="42.225536" lon="13.2633214"><ele>1145.0</ele><time>2026-05-02T15:57:50.908Z</time></trkpt><trkpt lat="42.2256282" lon="13.2632661"><ele>1145.0</ele><time>2026-05-02T15:57:51.907Z</time></trkpt><trkpt lat="42.2257172" lon="13.2632268"><ele>1145.0</ele><time>2026-05-02T15:57:52.906Z</time></trkpt><trkpt lat="42.2258082" lon="13.26319"><ele>1145.0</ele><time>2026-05-02T15:57:53.906Z</time></trkpt><trkpt lat="42.2258987" lon="13.2631728"><ele>1146.1666666666667</ele><time>2026-05-02T15:57:54.906Z</time></trkpt><trkpt lat="42.2259939" lon="13.2631582"><ele>1147.3333333333335</ele><time>2026-05-02T15:57:55.907Z</time></trkpt><trkpt lat="42.2260892" lon="13.2631489"><ele>1148.5</ele><time>2026-05-02T15:57:56.908Z</time></trkpt><trkpt lat="42.2261801" lon="13.2631483"><ele>1149.6666666666667</ele><time>2026-05-02T15:57:57.906Z</time></trkpt><trkpt lat="42.2262626" lon="13.2631538"><ele>1150.8333333333333</ele><time>2026-05-02T15:57:58.908Z</time></trkpt><trkpt lat="42.2263379" lon="13.2631804"><ele>1152.0</ele><time>2026-05-02T15:57:59.906Z</time></trkpt><trkpt lat="42.2264315" lon="13.2632204"><ele>1152.0</ele><time>2026-05-02T15:58:00.907Z</time></trkpt><trkpt lat="42.2265095" lon="13.2632704"><ele>1152.0</ele><time>2026-05-02T15:58:01.907Z</time></trkpt><trkpt lat="42.2265731" lon="13.2633382"><ele>1152.0</ele><time>2026-05-02T15:58:02.906Z</time></trkpt><trkpt lat="42.2266317" lon="13.2634284"><ele>1152.0</ele><time>2026-05-02T15:58:03.907Z</time></trkpt><trkpt lat="42.2266881" lon="13.2635431"><ele>1152.0</ele><time>2026-05-02T15:58:04.906Z</time></trkpt><trkpt lat="42.2267399" lon="13.2636667"><ele>1152.0</ele><time>2026-05-02T15:58:05.906Z</time></trkpt><trkpt lat="42.226767" lon="13.2637912"><ele>1152.0</ele><time>2026-05-02T15:58:06.906Z</time></trkpt><trkpt lat="42.2267923" lon="13.2639188"><ele>1152.0</ele><time>2026-05-02T15:58:07.908Z</time></trkpt><trkpt lat="42.2268288" lon="13.2640358"><ele>1152.0</ele><time>2026-05-02T15:58:08.906Z</time></trkpt><trkpt lat="42.2268802" lon="13.2641287"><ele>1152.0</ele><time>2026-05-02T15:58:09.907Z</time></trkpt><trkpt lat="42.2269357" lon="13.2642077"><ele>1154.1666666666667</ele><time>2026-05-02T15:58:10.907Z</time></trkpt><trkpt lat="42.2269749" lon="13.2642895"><ele>1156.3333333333333</ele><time>2026-05-02T15:58:11.907Z</time></trkpt><trkpt lat="42.2270143" lon="13.2643828"><ele>1158.5</ele><time>2026-05-02T15:58:12.908Z</time></trkpt><trkpt lat="42.2270557" lon="13.2644616"><ele>1160.6666666666665</ele><time>2026-05-02T15:58:13.908Z</time></trkpt><trkpt lat="42.2271034" lon="13.2645183"><ele>1162.8333333333333</ele><time>2026-05-02T15:58:14.906Z</time></trkpt><trkpt lat="42.2272017" lon="13.26459"><ele>1165.0</ele><time>2026-05-02T15:58:16.907Z</time></trkpt><trkpt lat="42.2272636" lon="13.2646262"><ele>1164.4</ele><time>2026-05-02T15:58:17.906Z</time></trkpt><trkpt lat="42.2273347" lon="13.2646368"><ele>1163.8</ele><time>2026-05-02T15:58:18.907Z</time></trkpt><trkpt lat="42.2274158" lon="13.2646187"><ele>1163.2</ele><time>2026-05-02T15:58:19.907Z</time></trkpt><trkpt lat="42.2275194" lon="13.2645824"><ele>1162.6</ele><time>2026-05-02T15:58:20.906Z</time></trkpt><trkpt lat="42.2276465" lon="13.2645356"><ele>1162.0</ele><time>2026-05-02T15:58:21.907Z</time></trkpt><trkpt lat="42.227767" lon="13.2644955"><ele>1162.0</ele><time>2026-05-02T15:58:22.906Z</time></trkpt><trkpt lat="42.2278646" lon="13.2644752"><ele>1162.0</ele><time>2026-05-02T15:58:23.907Z</time></trkpt><trkpt lat="42.2279589" lon="13.2644392"><ele>1162.0</ele><time>2026-05-02T15:58:24.908Z</time></trkpt><trkpt lat="42.2280671" lon="13.2643785"><ele>1162.0</ele><time>2026-05-02T15:58:25.908Z</time></trkpt><trkpt lat="42.2281711" lon="13.2643259"><ele>1162.0</ele><time>2026-05-02T15:58:26.906Z</time></trkpt><trkpt lat="42.2282618" lon="13.2642774"><ele>1162.2</ele><time>2026-05-02T15:58:27.907Z</time></trkpt><trkpt lat="42.2283416" lon="13.2642212"><ele>1162.4</ele><time>2026-05-02T15:58:28.907Z</time></trkpt><trkpt lat="42.2284143" lon="13.2641508"><ele>1162.6</ele><time>2026-05-02T15:58:29.907Z</time></trkpt><trkpt lat="42.2284817" lon="13.2640541"><ele>1162.8</ele><time>2026-05-02T15:58:30.908Z</time></trkpt><trkpt lat="42.2285502" lon="13.2639367"><ele>1163.0</ele><time>2026-05-02T15:58:31.907Z</time></trkpt><trkpt lat="42.2286209" lon="13.2638241"><ele>1163.0</ele><time>2026-05-02T15:58:32.905Z</time></trkpt><trkpt lat="42.2286917" lon="13.2637377"><ele>1163.0</ele><time>2026-05-02T15:58:33.907Z</time></trkpt><trkpt lat="42.2287657" lon="13.2636566"><ele>1163.0</ele><time>2026-05-02T15:58:34.906Z</time></trkpt><trkpt lat="42.228834" lon="13.2635646"><ele>1163.0</ele><time>2026-05-02T15:58:35.906Z</time></trkpt><trkpt lat="42.2289041" lon="13.2634718"><ele>1163.0</ele><time>2026-05-02T15:58:36.907Z</time></trkpt><trkpt lat="42.2289933" lon="13.263383"><ele>1166.4</ele><time>2026-05-02T15:58:37.907Z</time></trkpt><trkpt lat="42.2290926" lon="13.2632982"><ele>1169.8</ele><time>2026-05-02T15:58:38.906Z</time></trkpt><trkpt lat="42.2291949" lon="13.2632184"><ele>1173.2</ele><time>2026-05-02T15:58:39.907Z</time></trkpt><trkpt lat="42.2292778" lon="13.2631445"><ele>1176.6</ele><time>2026-05-02T15:58:40.907Z</time></trkpt><trkpt lat="42.2293464" lon="13.263064"><ele>1180.0</ele><time>2026-05-02T15:58:41.908Z</time></trkpt><trkpt lat="42.229401" lon="13.2629873"><ele>1180.0</ele><time>2026-05-02T15:58:42.906Z</time></trkpt><trkpt lat="42.2294398" lon="13.2629083"><ele>1180.0</ele><time>2026-05-02T15:58:43.908Z</time></trkpt><trkpt lat="42.2294504" lon="13.2628157"><ele>1180.0</ele><time>2026-05-02T15:58:44.907Z</time></trkpt><trkpt lat="42.2294333" lon="13.2627065"><ele>1180.0</ele><time>2026-05-02T15:58:45.908Z</time></trkpt><trkpt lat="42.2294013" lon="13.2625915"><ele>1180.0</ele><time>2026-05-02T15:58:46.906Z</time></trkpt><trkpt lat="42.2293602" lon="13.2624758"><ele>1180.0</ele><time>2026-05-02T15:58:47.907Z</time></trkpt><trkpt lat="42.2293371" lon="13.2623746"><ele>1179.6</ele><time>2026-05-02T15:58:48.908Z</time></trkpt><trkpt lat="42.2293655" lon="13.2622391"><ele>1179.2</ele><time>2026-05-02T15:58:50.907Z</time></trkpt><trkpt lat="42.2294621" lon="13.2621144"><ele>1178.8</ele><time>2026-05-02T15:58:52.908Z</time></trkpt><trkpt lat="42.2295269" lon="13.2620472"><ele>1178.4</ele><time>2026-05-02T15:58:53.906Z</time></trkpt><trkpt lat="42.2295737" lon="13.2619737"><ele>1178.0</ele><time>2026-05-02T15:58:54.907Z</time></trkpt><trkpt lat="42.2296111" lon="13.2619017"><ele>1178.0</ele><time>2026-05-02T15:58:55.907Z</time></trkpt><trkpt lat="42.2296607" lon="13.2617785"><ele>1178.0</ele><time>2026-05-02T15:58:57.906Z</time></trkpt><trkpt lat="42.2297154" lon="13.2616392"><ele>1178.0</ele><time>2026-05-02T15:58:59.908Z</time></trkpt><trkpt lat="42.2297276" lon="13.2615532"><ele>1178.0</ele><time>2026-05-02T15:59:00.907Z</time></trkpt><trkpt lat="42.229718" lon="13.2614666"><ele>1178.0</ele><time>2026-05-02T15:59:01.907Z</time></trkpt><trkpt lat="42.2296972" lon="13.2613707"><ele>1178.0</ele><time>2026-05-02T15:59:02.906Z</time></trkpt><trkpt lat="42.2296737" lon="13.261259"><ele>1177.4285714285713</ele><time>2026-05-02T15:59:03.906Z</time></trkpt><trkpt lat="42.2296627" lon="13.2611508"><ele>1176.8571428571427</ele><time>2026-05-02T15:59:04.905Z</time></trkpt><trkpt lat="42.2296685" lon="13.2610637"><ele>1176.2857142857142</ele><time>2026-05-02T15:59:05.907Z</time></trkpt><trkpt lat="42.229684" lon="13.2609774"><ele>1175.7142857142858</ele><time>2026-05-02T15:59:06.907Z</time></trkpt><trkpt lat="42.2297404" lon="13.2609028"><ele>1175.1428571428573</ele><time>2026-05-02T15:59:07.908Z</time></trkpt><trkpt lat="42.2298003" lon="13.2608481"><ele>1174.5714285714287</ele><time>2026-05-02T15:59:08.908Z</time></trkpt><trkpt lat="42.2298632" lon="13.2608202"><ele>1174.0</ele><time>2026-05-02T15:59:09.908Z</time></trkpt><trkpt lat="42.22993" lon="13.2608154"><ele>1177.2857142857142</ele><time>2026-05-02T15:59:10.906Z</time></trkpt><trkpt lat="42.2300053" lon="13.2608242"><ele>1180.5714285714287</ele><time>2026-05-02T15:59:11.906Z</time></trkpt><trkpt lat="42.2300846" lon="13.2608404"><ele>1183.857142857143</ele><time>2026-05-02T15:59:12.907Z</time></trkpt><trkpt lat="42.2301494" lon="13.2608682"><ele>1187.142857142857</ele><time>2026-05-02T15:59:13.907Z</time></trkpt><trkpt lat="42.2302169" lon="13.2609113"><ele>1190.4285714285716</ele><time>2026-05-02T15:59:14.906Z</time></trkpt><trkpt lat="42.230288" lon="13.2609599"><ele>1193.7142857142858</ele><time>2026-05-02T15:59:15.906Z</time></trkpt><trkpt lat="42.2303449" lon="13.260997"><ele>1197.0</ele><time>2026-05-02T15:59:16.906Z</time></trkpt><trkpt lat="42.2304153" lon="13.2610243"><ele>1197.0</ele><time>2026-05-02T15:59:17.907Z</time></trkpt><trkpt lat="42.2305209" lon="13.26098"><ele>1197.0</ele><time>2026-05-02T15:59:19.906Z</time></trkpt><trkpt lat="42.2305951" lon="13.2609022"><ele>1197.0</ele><time>2026-05-02T15:59:21.907Z</time></trkpt><trkpt lat="42.2306493" lon="13.2608007"><ele>1197.0</ele><time>2026-05-02T15:59:22.906Z</time></trkpt><trkpt lat="42.2306946" lon="13.2607101"><ele>1197.0</ele><time>2026-05-02T15:59:23.906Z</time></trkpt><trkpt lat="42.2307525" lon="13.2606161"><ele>1195.8333333333333</ele><time>2026-05-02T15:59:24.907Z</time></trkpt><trkpt lat="42.2308091" lon="13.2605327"><ele>1194.6666666666667</ele><time>2026-05-02T15:59:25.907Z</time></trkpt><trkpt lat="42.230877" lon="13.2604962"><ele>1193.5</ele><time>2026-05-02T15:59:26.907Z</time></trkpt><trkpt lat="42.2309519" lon="13.2604559"><ele>1192.3333333333335</ele><time>2026-05-02T15:59:27.907Z</time></trkpt><trkpt lat="42.2310424" lon="13.260446"><ele>1191.1666666666667</ele><time>2026-05-02T15:59:28.907Z</time></trkpt><trkpt lat="42.231134" lon="13.260431"><ele>1190.0</ele><time>2026-05-02T15:59:29.907Z</time></trkpt><trkpt lat="42.2312253" lon="13.2604211"><ele>1190.0</ele><time>2026-05-02T15:59:30.907Z</time></trkpt><trkpt lat="42.2313172" lon="13.2604131"><ele>1190.0</ele><time>2026-05-02T15:59:31.906Z</time></trkpt><trkpt lat="42.2313964" lon="13.2604173"><ele>1190.0</ele><time>2026-05-02T15:59:32.907Z</time></trkpt><trkpt lat="42.2314693" lon="13.2604342"><ele>1190.0</ele><time>2026-05-02T15:59:33.906Z</time></trkpt><trkpt lat="42.231548" lon="13.2604706"><ele>1190.0</ele><time>2026-05-02T15:59:34.907Z</time></trkpt><trkpt lat="42.2316244" lon="13.2604996"><ele>1190.0</ele><time>2026-05-02T15:59:35.907Z</time></trkpt><trkpt lat="42.231716" lon="13.260564"><ele>1191.6</ele><time>2026-05-02T15:59:36.907Z</time></trkpt><trkpt lat="42.2317954" lon="13.2606094"><ele>1193.2</ele><time>2026-05-02T15:59:37.907Z</time></trkpt><trkpt lat="42.2318863" lon="13.2606672"><ele>1194.8</ele><time>2026-05-02T15:59:38.908Z</time></trkpt><trkpt lat="42.2319746" lon="13.260716"><ele>1196.4</ele><time>2026-05-02T15:59:39.907Z</time></trkpt><trkpt lat="42.2320839" lon="13.2607707"><ele>1198.0</ele><time>2026-05-02T15:59:40.906Z</time></trkpt><trkpt lat="42.2321807" lon="13.2608313"><ele>1199.25</ele><time>2026-05-02T15:59:41.907Z</time></trkpt><trkpt lat="42.2322871" lon="13.2609005"><ele>1200.5</ele><time>2026-05-02T15:59:42.908Z</time></trkpt><trkpt lat="42.2324061" lon="13.2609802"><ele>1201.75</ele><time>2026-05-02T15:59:43.907Z</time></trkpt><trkpt lat="42.2325223" lon="13.2610661"><ele>1203.0</ele><time>2026-05-02T15:59:44.907Z</time></trkpt><trkpt lat="42.2326319" lon="13.2611454"><ele>1203.0</ele><time>2026-05-02T15:59:45.907Z</time></trkpt><trkpt lat="42.2327372" lon="13.2612257"><ele>1203.0</ele><time>2026-05-02T15:59:46.907Z</time></trkpt><trkpt lat="42.2328356" lon="13.2613165"><ele>1203.0</ele><time>2026-05-02T15:59:47.907Z</time></trkpt><trkpt lat="42.232923" lon="13.2613902"><ele>1203.0</ele><time>2026-05-02T15:59:48.907Z</time></trkpt><trkpt lat="42.2329945" lon="13.2614608"><ele>1203.0</ele><time>2026-05-02T15:59:49.907Z</time></trkpt><trkpt lat="42.2330678" lon="13.261527"><ele>1203.6</ele><time>2026-05-02T15:59:50.906Z</time></trkpt><trkpt lat="42.2331367" lon="13.2616153"><ele>1204.1999999999998</ele><time>2026-05-02T15:59:51.906Z</time></trkpt><trkpt lat="42.2331953" lon="13.2617022"><ele>1204.8</ele><time>2026-05-02T15:59:52.907Z</time></trkpt><trkpt lat="42.2332544" lon="13.2617794"><ele>1205.3999999999999</ele><time>2026-05-02T15:59:53.908Z</time></trkpt><trkpt lat="42.2333914" lon="13.2618539"><ele>1206.0</ele><time>2026-05-02T15:59:55.907Z</time></trkpt><trkpt lat="42.2334659" lon="13.2618799"><ele>1206.0</ele><time>2026-05-02T15:59:56.907Z</time></trkpt><trkpt lat="42.2335385" lon="13.2619195"><ele>1206.0</ele><time>2026-05-02T15:59:57.907Z</time></trkpt><trkpt lat="42.2336102" lon="13.2619636"><ele>1206.0</ele><time>2026-05-02T15:59:58.906Z</time></trkpt><trkpt lat="42.2337016" lon="13.2620149"><ele>1206.0</ele><time>2026-05-02T15:59:59.907Z</time></trkpt><trkpt lat="42.2337967" lon="13.2620929"><ele>1206.0</ele><time>2026-05-02T16:00:00.906Z</time></trkpt><trkpt lat="42.2338646" lon="13.262135"><ele>1206.0</ele><time>2026-05-02T16:00:01.906Z</time></trkpt><trkpt lat="42.2339345" lon="13.2621495"><ele>1205.0</ele><time>2026-05-02T16:00:02.908Z</time></trkpt><trkpt lat="42.2340672" lon="13.2621006"><ele>1204.0</ele><time>2026-05-02T16:00:04.907Z</time></trkpt><trkpt lat="42.2341417" lon="13.2620684"><ele>1203.0</ele><time>2026-05-02T16:00:05.906Z</time></trkpt><trkpt lat="42.2342153" lon="13.2620371"><ele>1202.0</ele><time>2026-05-02T16:00:06.907Z</time></trkpt><trkpt lat="42.2342962" lon="13.2619923"><ele>1201.0</ele><time>2026-05-02T16:00:07.906Z</time></trkpt><trkpt lat="42.2343816" lon="13.2619481"><ele>1201.0</ele><time>2026-05-02T16:00:08.907Z</time></trkpt><trkpt lat="42.2344703" lon="13.2619052"><ele>1201.0</ele><time>2026-05-02T16:00:09.907Z</time></trkpt><trkpt lat="42.2345895" lon="13.2618535"><ele>1201.0</ele><time>2026-05-02T16:00:10.907Z</time></trkpt><trkpt lat="42.2347008" lon="13.2617844"><ele>1201.0</ele><time>2026-05-02T16:00:11.907Z</time></trkpt><trkpt lat="42.2348051" lon="13.261719"><ele>1204.5</ele><time>2026-05-02T16:00:12.907Z</time></trkpt><trkpt lat="42.2349242" lon="13.261659"><ele>1208.0</ele><time>2026-05-02T16:00:13.908Z</time></trkpt><trkpt lat="42.235037" lon="13.2616196"><ele>1211.5</ele><time>2026-05-02T16:00:14.908Z</time></trkpt><trkpt lat="42.2351438" lon="13.2615843"><ele>1215.0</ele><time>2026-05-02T16:00:15.907Z</time></trkpt><trkpt lat="42.2352479" lon="13.2615511"><ele>1215.0</ele><time>2026-05-02T16:00:16.906Z</time></trkpt><trkpt lat="42.2353156" lon="13.2615175"><ele>1215.0</ele><time>2026-05-02T16:00:17.907Z</time></trkpt><trkpt lat="42.235377" lon="13.2614551"><ele>1215.0</ele><time>2026-05-02T16:00:18.906Z</time></trkpt><trkpt lat="42.2354494" lon="13.2613925"><ele>1215.0</ele><time>2026-05-02T16:00:19.906Z</time></trkpt><trkpt lat="42.2355285" lon="13.2613277"><ele>1215.0</ele><time>2026-05-02T16:00:20.906Z</time></trkpt><trkpt lat="42.2356073" lon="13.2612664"><ele>1215.0</ele><time>2026-05-02T16:00:21.907Z</time></trkpt><trkpt lat="42.2356898" lon="13.2611958"><ele>1216.6</ele><time>2026-05-02T16:00:22.907Z</time></trkpt><trkpt lat="42.235779" lon="13.2611128"><ele>1218.2</ele><time>2026-05-02T16:00:23.906Z</time></trkpt><trkpt lat="42.2358648" lon="13.2610522"><ele>1219.8</ele><time>2026-05-02T16:00:24.906Z</time></trkpt><trkpt lat="42.235947" lon="13.2610292"><ele>1221.4</ele><time>2026-05-02T16:00:25.907Z</time></trkpt><trkpt lat="42.2360475" lon="13.2609855"><ele>1223.0</ele><time>2026-05-02T16:00:26.906Z</time></trkpt><trkpt lat="42.2361426" lon="13.2609557"><ele>1223.0</ele><time>2026-05-02T16:00:27.906Z</time></trkpt><trkpt lat="42.2362481" lon="13.2609221"><ele>1223.0</ele><time>2026-05-02T16:00:28.907Z</time></trkpt><trkpt lat="42.2363437" lon="13.2608981"><ele>1223.0</ele><time>2026-05-02T16:00:29.907Z</time></trkpt><trkpt lat="42.2364437" lon="13.2608764"><ele>1223.0</ele><time>2026-05-02T16:00:30.907Z</time></trkpt><trkpt lat="42.2365329" lon="13.2608374"><ele>1223.0</ele><time>2026-05-02T16:00:31.907Z</time></trkpt><trkpt lat="42.2366211" lon="13.2607991"><ele>1223.8</ele><time>2026-05-02T16:00:32.906Z</time></trkpt><trkpt lat="42.2367305" lon="13.2607251"><ele>1224.6</ele><time>2026-05-02T16:00:33.907Z</time></trkpt><trkpt lat="42.2368229" lon="13.2606721"><ele>1225.4</ele><time>2026-05-02T16:00:34.907Z</time></trkpt><trkpt lat="42.2369068" lon="13.260629"><ele>1226.2</ele><time>2026-05-02T16:00:35.907Z</time></trkpt><trkpt lat="42.2369881" lon="13.2606066"><ele>1227.0</ele><time>2026-05-02T16:00:36.907Z</time></trkpt><trkpt lat="42.237074" lon="13.2606208"><ele>1227.0</ele><time>2026-05-02T16:00:37.906Z</time></trkpt><trkpt lat="42.2371744" lon="13.2606418"><ele>1227.0</ele><time>2026-05-02T16:00:38.907Z</time></trkpt><trkpt lat="42.2372701" lon="13.2606772"><ele>1227.0</ele><time>2026-05-02T16:00:39.908Z</time></trkpt><trkpt lat="42.2373481" lon="13.2606956"><ele>1227.0</ele><time>2026-05-02T16:00:40.908Z</time></trkpt><trkpt lat="42.2374355" lon="13.2607006"><ele>1227.0</ele><time>2026-05-02T16:00:41.906Z</time></trkpt><trkpt lat="42.237546" lon="13.2606648"><ele>1226.75</ele><time>2026-05-02T16:00:42.907Z</time></trkpt><trkpt lat="42.2376575" lon="13.2606486"><ele>1226.5</ele><time>2026-05-02T16:00:43.906Z</time></trkpt><trkpt lat="42.237766" lon="13.2606297"><ele>1226.25</ele><time>2026-05-02T16:00:44.907Z</time></trkpt><trkpt lat="42.2378754" lon="13.2605998"><ele>1226.0</ele><time>2026-05-02T16:00:45.907Z</time></trkpt><trkpt lat="42.2379825" lon="13.2605361"><ele>1225.0</ele><time>2026-05-02T16:00:46.907Z</time></trkpt><trkpt lat="42.2380822" lon="13.2604982"><ele>1224.0</ele><time>2026-05-02T16:00:47.907Z</time></trkpt><trkpt lat="42.2381883" lon="13.2604776"><ele>1223.0</ele><time>2026-05-02T16:00:48.907Z</time></trkpt><trkpt lat="42.2382905" lon="13.2604654"><ele>1222.0</ele><time>2026-05-02T16:00:49.907Z</time></trkpt><trkpt lat="42.2383869" lon="13.2604369"><ele>1221.0</ele><time>2026-05-02T16:00:50.907Z</time></trkpt><trkpt lat="42.2384794" lon="13.2604052"><ele>1221.0</ele><time>2026-05-02T16:00:51.908Z</time></trkpt><trkpt lat="42.2385573" lon="13.2603355"><ele>1221.0</ele><time>2026-05-02T16:00:52.907Z</time></trkpt><trkpt lat="42.2386379" lon="13.2602519"><ele>1221.0</ele><time>2026-05-02T16:00:53.907Z</time></trkpt><trkpt lat="42.2387142" lon="13.2601821"><ele>1221.0</ele><time>2026-05-02T16:00:54.907Z</time></trkpt><trkpt lat="42.2387934" lon="13.260145"><ele>1221.0</ele><time>2026-05-02T16:00:55.907Z</time></trkpt><trkpt lat="42.2388663" lon="13.2601443"><ele>1221.0</ele><time>2026-05-02T16:00:56.907Z</time></trkpt><trkpt lat="42.2389322" lon="13.2601685"><ele>1220.0</ele><time>2026-05-02T16:00:57.907Z</time></trkpt><trkpt lat="42.2390006" lon="13.2602304"><ele>1219.0</ele><time>2026-05-02T16:00:58.907Z</time></trkpt><trkpt lat="42.2390732" lon="13.2603044"><ele>1218.0</ele><time>2026-05-02T16:00:59.907Z</time></trkpt><trkpt lat="42.2391643" lon="13.2604021"><ele>1217.0</ele><time>2026-05-02T16:01:00.907Z</time></trkpt><trkpt lat="42.2392626" lon="13.2604863"><ele>1216.0</ele><time>2026-05-02T16:01:01.907Z</time></trkpt><trkpt lat="42.2393597" lon="13.2605504"><ele>1216.0</ele><time>2026-05-02T16:01:02.908Z</time></trkpt><trkpt lat="42.2394614" lon="13.2606103"><ele>1216.0</ele><time>2026-05-02T16:01:03.908Z</time></trkpt><trkpt lat="42.2395666" lon="13.2606697"><ele>1216.0</ele><time>2026-05-02T16:01:04.908Z</time></trkpt><trkpt lat="42.2396624" lon="13.2607102"><ele>1216.0</ele><time>2026-05-02T16:01:05.907Z</time></trkpt><trkpt lat="42.2397501" lon="13.260735"><ele>1216.0</ele><time>2026-05-02T16:01:06.907Z</time></trkpt><trkpt lat="42.2398408" lon="13.2607397"><ele>1214.0</ele><time>2026-05-02T16:01:07.907Z</time></trkpt><trkpt lat="42.2399411" lon="13.260728"><ele>1212.0</ele><time>2026-05-02T16:01:08.907Z</time></trkpt><trkpt lat="42.2400554" lon="13.2606934"><ele>1210.0</ele><time>2026-05-02T16:01:09.906Z</time></trkpt><trkpt lat="42.2401712" lon="13.2606478"><ele>1208.0</ele><time>2026-05-02T16:01:10.907Z</time></trkpt><trkpt lat="42.2402772" lon="13.2606078"><ele>1206.0</ele><time>2026-05-02T16:01:11.906Z</time></trkpt><trkpt lat="42.2403832" lon="13.260575"><ele>1206.0</ele><time>2026-05-02T16:01:12.906Z</time></trkpt><trkpt lat="42.2404928" lon="13.2605409"><ele>1206.0</ele><time>2026-05-02T16:01:13.907Z</time></trkpt><trkpt lat="42.2405951" lon="13.2605132"><ele>1206.0</ele><time>2026-05-02T16:01:14.906Z</time></trkpt><trkpt lat="42.2406907" lon="13.2605011"><ele>1206.0</ele><time>2026-05-02T16:01:15.907Z</time></trkpt><trkpt lat="42.2407756" lon="13.2604973"><ele>1206.0</ele><time>2026-05-02T16:01:16.907Z</time></trkpt><trkpt lat="42.2408479" lon="13.2604831"><ele>1208.1666666666667</ele><time>2026-05-02T16:01:17.907Z</time></trkpt><trkpt lat="42.2409074" lon="13.2604528"><ele>1210.3333333333333</ele><time>2026-05-02T16:01:18.908Z</time></trkpt><trkpt lat="42.2409686" lon="13.2604163"><ele>1212.5</ele><time>2026-05-02T16:01:19.907Z</time></trkpt><trkpt lat="42.2410403" lon="13.2603841"><ele>1214.6666666666665</ele><time>2026-05-02T16:01:20.907Z</time></trkpt><trkpt lat="42.2411155" lon="13.2603483"><ele>1216.8333333333333</ele><time>2026-05-02T16:01:21.907Z</time></trkpt><trkpt lat="42.2412233" lon="13.2602726"><ele>1219.0</ele><time>2026-05-02T16:01:23.907Z</time></trkpt><trkpt lat="42.2413118" lon="13.2601609"><ele>1219.0</ele><time>2026-05-02T16:01:25.906Z</time></trkpt><trkpt lat="42.2413844" lon="13.2600678"><ele>1219.0</ele><time>2026-05-02T16:01:27.908Z</time></trkpt><trkpt lat="42.2414769" lon="13.2600181"><ele>1219.0</ele><time>2026-05-02T16:01:29.907Z</time></trkpt><trkpt lat="42.2416052" lon="13.260012"><ele>1219.0</ele><time>2026-05-02T16:01:31.908Z</time></trkpt><trkpt lat="42.2416824" lon="13.2600144"><ele>1219.0</ele><time>2026-05-02T16:01:32.906Z</time></trkpt><trkpt lat="42.2417607" lon="13.2600166"><ele>1221.3333333333333</ele><time>2026-05-02T16:01:33.908Z</time></trkpt><trkpt lat="42.2418294" lon="13.2600017"><ele>1223.6666666666665</ele><time>2026-05-02T16:01:34.907Z</time></trkpt><trkpt lat="42.241945" lon="13.2599476"><ele>1226.0</ele><time>2026-05-02T16:01:36.907Z</time></trkpt><trkpt lat="42.24201" lon="13.2599057"><ele>1228.3333333333333</ele><time>2026-05-02T16:01:37.907Z</time></trkpt><trkpt lat="42.2420867" lon="13.2598605"><ele>1230.6666666666667</ele><time>2026-05-02T16:01:38.906Z</time></trkpt><trkpt lat="42.2421822" lon="13.2598304"><ele>1233.0</ele><time>2026-05-02T16:01:39.907Z</time></trkpt><trkpt lat="42.2422974" lon="13.2597906"><ele>1231.8</ele><time>2026-05-02T16:01:40.907Z</time></trkpt><trkpt lat="42.2424168" lon="13.259743"><ele>1230.6</ele><time>2026-05-02T16:01:41.907Z</time></trkpt><trkpt lat="42.242521" lon="13.2596983"><ele>1229.4</ele><time>2026-05-02T16:01:42.907Z</time></trkpt><trkpt lat="42.2426032" lon="13.2596938"><ele>1228.2</ele><time>2026-05-02T16:01:43.907Z</time></trkpt><trkpt lat="42.2427086" lon="13.2596878"><ele>1227.0</ele><time>2026-05-02T16:01:44.907Z</time></trkpt><trkpt lat="42.2428252" lon="13.2596708"><ele>1227.0</ele><time>2026-05-02T16:01:45.907Z</time></trkpt><trkpt lat="42.2429285" lon="13.2596449"><ele>1227.0</ele><time>2026-05-02T16:01:46.907Z</time></trkpt><trkpt lat="42.2430193" lon="13.2596138"><ele>1227.0</ele><time>2026-05-02T16:01:47.906Z</time></trkpt><trkpt lat="42.2430983" lon="13.2595611"><ele>1227.0</ele><time>2026-05-02T16:01:48.907Z</time></trkpt><trkpt lat="42.2431664" lon="13.2594957"><ele>1227.0</ele><time>2026-05-02T16:01:49.907Z</time></trkpt><trkpt lat="42.2432389" lon="13.2594386"><ele>1229.8333333333333</ele><time>2026-05-02T16:01:50.908Z</time></trkpt><trkpt lat="42.2433105" lon="13.2593775"><ele>1232.6666666666667</ele><time>2026-05-02T16:01:51.907Z</time></trkpt><trkpt lat="42.2433781" lon="13.2593216"><ele>1235.5</ele><time>2026-05-02T16:01:52.908Z</time></trkpt><trkpt lat="42.2434243" lon="13.2592623"><ele>1238.3333333333335</ele><time>2026-05-02T16:01:53.908Z</time></trkpt><trkpt lat="42.2435003" lon="13.2591894"><ele>1241.1666666666667</ele><time>2026-05-02T16:01:54.907Z</time></trkpt><trkpt lat="42.2435848" lon="13.2591305"><ele>1244.0</ele><time>2026-05-02T16:01:55.906Z</time></trkpt><trkpt lat="42.24369" lon="13.2590804"><ele>1244.0</ele><time>2026-05-02T16:01:56.908Z</time></trkpt><trkpt lat="42.2437755" lon="13.259032"><ele>1244.0</ele><time>2026-05-02T16:01:57.906Z</time></trkpt><trkpt lat="42.2438549" lon="13.2589803"><ele>1244.0</ele><time>2026-05-02T16:01:58.906Z</time></trkpt><trkpt lat="42.2439077" lon="13.2589213"><ele>1244.0</ele><time>2026-05-02T16:01:59.907Z</time></trkpt><trkpt lat="42.2439603" lon="13.2588504"><ele>1244.0</ele><time>2026-05-02T16:02:00.907Z</time></trkpt><trkpt lat="42.2440065" lon="13.2587818"><ele>1244.0</ele><time>2026-05-02T16:02:01.906Z</time></trkpt><trkpt lat="42.2440515" lon="13.2587146"><ele>1245.4</ele><time>2026-05-02T16:02:02.906Z</time></trkpt><trkpt lat="42.2441026" lon="13.2586521"><ele>1246.8000000000002</ele><time>2026-05-02T16:02:03.907Z</time></trkpt><trkpt lat="42.2442163" lon="13.2585742"><ele>1248.1999999999998</ele><time>2026-05-02T16:02:05.907Z</time></trkpt><trkpt lat="42.2443317" lon="13.2585255"><ele>1249.6</ele><time>2026-05-02T16:02:07.907Z</time></trkpt><trkpt lat="42.2444094" lon="13.2585394"><ele>1251.0</ele><time>2026-05-02T16:02:08.907Z</time></trkpt><trkpt lat="42.2444732" lon="13.2585412"><ele>1251.0</ele><time>2026-05-02T16:02:09.907Z</time></trkpt><trkpt lat="42.2445438" lon="13.2585579"><ele>1251.0</ele><time>2026-05-02T16:02:10.907Z</time></trkpt><trkpt lat="42.2446127" lon="13.2585805"><ele>1251.0</ele><time>2026-05-02T16:02:11.907Z</time></trkpt><trkpt lat="42.2446983" lon="13.2586426"><ele>1251.0</ele><time>2026-05-02T16:02:12.907Z</time></trkpt><trkpt lat="42.2447827" lon="13.2586937"><ele>1251.0</ele><time>2026-05-02T16:02:13.907Z</time></trkpt><trkpt lat="42.2448657" lon="13.2587639"><ele>1251.0</ele><time>2026-05-02T16:02:14.906Z</time></trkpt><trkpt lat="42.2449435" lon="13.2588275"><ele>1250.3999999999999</ele><time>2026-05-02T16:02:15.907Z</time></trkpt><trkpt lat="42.2450258" lon="13.2589121"><ele>1249.8</ele><time>2026-05-02T16:02:16.908Z</time></trkpt><trkpt lat="42.2451054" lon="13.2589909"><ele>1249.1999999999998</ele><time>2026-05-02T16:02:17.907Z</time></trkpt><trkpt lat="42.2451983" lon="13.2590672"><ele>1248.6</ele><time>2026-05-02T16:02:18.907Z</time></trkpt><trkpt lat="42.2452911" lon="13.2591302"><ele>1248.0</ele><time>2026-05-02T16:02:19.907Z</time></trkpt><trkpt lat="42.245401" lon="13.2591925"><ele>1249.5</ele><time>2026-05-02T16:02:20.907Z</time></trkpt><trkpt lat="42.2455186" lon="13.2592469"><ele>1251.0</ele><time>2026-05-02T16:02:21.907Z</time></trkpt><trkpt lat="42.2456384" lon="13.2592875"><ele>1252.5</ele><time>2026-05-02T16:02:22.906Z</time></trkpt><trkpt lat="42.2457616" lon="13.2593274"><ele>1254.0</ele><time>2026-05-02T16:02:23.907Z</time></trkpt><trkpt lat="42.2458788" lon="13.2593656"><ele>1254.0</ele><time>2026-05-02T16:02:24.907Z</time></trkpt><trkpt lat="42.2459831" lon="13.2593959"><ele>1254.0</ele><time>2026-05-02T16:02:25.907Z</time></trkpt><trkpt lat="42.2460594" lon="13.2594475"><ele>1254.0</ele><time>2026-05-02T16:02:26.906Z</time></trkpt><trkpt lat="42.2461387" lon="13.2595022"><ele>1254.0</ele><time>2026-05-02T16:02:27.907Z</time></trkpt><trkpt lat="42.2461912" lon="13.2595504"><ele>1254.0</ele><time>2026-05-02T16:02:28.907Z</time></trkpt><trkpt lat="42.2462377" lon="13.259686"><ele>1257.0</ele><time>2026-05-02T16:02:30.908Z</time></trkpt><trkpt lat="42.2462356" lon="13.2597854"><ele>1260.0</ele><time>2026-05-02T16:02:31.906Z</time></trkpt><trkpt lat="42.2462315" lon="13.2598746"><ele>1263.0</ele><time>2026-05-02T16:02:32.907Z</time></trkpt><trkpt lat="42.2462497" lon="13.2600077"><ele>1266.0</ele><time>2026-05-02T16:02:34.908Z</time></trkpt><trkpt lat="42.2463121" lon="13.2600991"><ele>1269.0</ele><time>2026-05-02T16:02:36.907Z</time></trkpt><trkpt lat="42.2463811" lon="13.2601024"><ele>1272.0</ele><time>2026-05-02T16:02:37.908Z</time></trkpt><trkpt lat="42.2464495" lon="13.260118"><ele>1273.2</ele><time>2026-05-02T16:02:38.906Z</time></trkpt><trkpt lat="42.246534" lon="13.2601139"><ele>1274.4</ele><time>2026-05-02T16:02:39.908Z</time></trkpt><trkpt lat="42.2466289" lon="13.2600742"><ele>1275.6</ele><time>2026-05-02T16:02:40.906Z</time></trkpt><trkpt lat="42.2467173" lon="13.2600343"><ele>1276.8</ele><time>2026-05-02T16:02:41.907Z</time></trkpt><trkpt lat="42.2467944" lon="13.2599655"><ele>1278.0</ele><time>2026-05-02T16:02:42.906Z</time></trkpt><trkpt lat="42.2468658" lon="13.2598824"><ele>1278.0</ele><time>2026-05-02T16:02:43.907Z</time></trkpt><trkpt lat="42.2469206" lon="13.259805"><ele>1278.0</ele><time>2026-05-02T16:02:44.907Z</time></trkpt><trkpt lat="42.2469972" lon="13.2597174"><ele>1278.0</ele><time>2026-05-02T16:02:46.907Z</time></trkpt><trkpt lat="42.2470707" lon="13.2597561"><ele>1278.0</ele><time>2026-05-02T16:02:48.908Z</time></trkpt><trkpt lat="42.2471165" lon="13.25989"><ele>1278.0</ele><time>2026-05-02T16:02:50.908Z</time></trkpt><trkpt lat="42.2471134" lon="13.2599808"><ele>1278.0</ele><time>2026-05-02T16:02:51.907Z</time></trkpt><trkpt lat="42.2470922" lon="13.2601003"><ele>1278.0</ele><time>2026-05-02T16:02:52.907Z</time></trkpt><trkpt lat="42.2470708" lon="13.2601984"><ele>1278.0</ele><time>2026-05-02T16:02:53.906Z</time></trkpt><trkpt lat="42.2470636" lon="13.2603194"><ele>1278.0</ele><time>2026-05-02T16:02:55.906Z</time></trkpt><trkpt lat="42.2471135" lon="13.2603786"><ele>1278.0</ele><time>2026-05-02T16:02:57.907Z</time></trkpt><trkpt lat="42.2471982" lon="13.2603562"><ele>1278.0</ele><time>2026-05-02T16:02:59.908Z</time></trkpt><trkpt lat="42.2472773" lon="13.2602643"><ele>1278.0</ele><time>2026-05-02T16:03:01.907Z</time></trkpt><trkpt lat="42.2473076" lon="13.2601782"><ele>1279.3333333333333</ele><time>2026-05-02T16:03:02.907Z</time></trkpt><trkpt lat="42.2473509" lon="13.2600953"><ele>1280.6666666666667</ele><time>2026-05-02T16:03:03.907Z</time></trkpt><trkpt lat="42.2473665" lon="13.2599735"><ele>1282.0</ele><time>2026-05-02T16:03:04.906Z</time></trkpt><trkpt lat="42.2473806" lon="13.2598652"><ele>1283.3333333333335</ele><time>2026-05-02T16:03:05.907Z</time></trkpt><trkpt lat="42.2474076" lon="13.2597598"><ele>1284.6666666666667</ele><time>2026-05-02T16:03:06.906Z</time></trkpt><trkpt lat="42.2474458" lon="13.2596514"><ele>1286.0</ele><time>2026-05-02T16:03:07.906Z</time></trkpt><trkpt lat="42.2474919" lon="13.2595597"><ele>1286.0</ele><time>2026-05-02T16:03:08.907Z</time></trkpt><trkpt lat="42.2475458" lon="13.2594908"><ele>1286.0</ele><time>2026-05-02T16:03:09.906Z</time></trkpt><trkpt lat="42.2476038" lon="13.2594322"><ele>1286.0</ele><time>2026-05-02T16:03:10.907Z</time></trkpt><trkpt lat="42.2476724" lon="13.2593682"><ele>1286.0</ele><time>2026-05-02T16:03:11.908Z</time></trkpt><trkpt lat="42.2477261" lon="13.2592985"><ele>1286.0</ele><time>2026-05-02T16:03:12.907Z</time></trkpt><trkpt lat="42.2477674" lon="13.2591534"><ele>1286.0</ele><time>2026-05-02T16:03:14.906Z</time></trkpt><trkpt lat="42.2478043" lon="13.2590823"><ele>1286.0</ele><time>2026-05-02T16:03:15.908Z</time></trkpt><trkpt lat="42.2478644" lon="13.2590161"><ele>1286.0</ele><time>2026-05-02T16:03:16.907Z</time></trkpt><trkpt lat="42.2479486" lon="13.2589599"><ele>1286.0</ele><time>2026-05-02T16:03:17.907Z</time></trkpt><trkpt lat="42.2480337" lon="13.2588954"><ele>1286.0</ele><time>2026-05-02T16:03:18.907Z</time></trkpt><trkpt lat="42.2480912" lon="13.2588151"><ele>1286.0</ele><time>2026-05-02T16:03:19.907Z</time></trkpt><trkpt lat="42.248126" lon="13.258684"><ele>1285.6</ele><time>2026-05-02T16:03:20.906Z</time></trkpt><trkpt lat="42.2481692" lon="13.2585446"><ele>1285.1999999999998</ele><time>2026-05-02T16:03:21.907Z</time></trkpt><trkpt lat="42.2482095" lon="13.2584081"><ele>1284.8000000000002</ele><time>2026-05-02T16:03:22.906Z</time></trkpt><trkpt lat="42.2482405" lon="13.2582783"><ele>1284.4</ele><time>2026-05-02T16:03:23.907Z</time></trkpt><trkpt lat="42.248295" lon="13.2581637"><ele>1284.0</ele><time>2026-05-02T16:03:24.906Z</time></trkpt><trkpt lat="42.2483711" lon="13.2580517"><ele>1284.0</ele><time>2026-05-02T16:03:25.906Z</time></trkpt><trkpt lat="42.248439" lon="13.2579422"><ele>1284.0</ele><time>2026-05-02T16:03:26.907Z</time></trkpt><trkpt lat="42.2484948" lon="13.2578297"><ele>1284.0</ele><time>2026-05-02T16:03:27.907Z</time></trkpt><trkpt lat="42.2485299" lon="13.2576924"><ele>1284.0</ele><time>2026-05-02T16:03:28.906Z</time></trkpt><trkpt lat="42.2485722" lon="13.2575493"><ele>1284.0</ele><time>2026-05-02T16:03:29.908Z</time></trkpt><trkpt lat="42.2486319" lon="13.2574135"><ele>1284.0</ele><time>2026-05-02T16:03:30.906Z</time></trkpt><trkpt lat="42.2486985" lon="13.2572989"><ele>1284.0</ele><time>2026-05-02T16:03:31.907Z</time></trkpt><trkpt lat="42.2487741" lon="13.2572106"><ele>1284.0</ele><time>2026-05-02T16:03:32.907Z</time></trkpt><trkpt lat="42.2488554" lon="13.2571328"><ele>1284.0</ele><time>2026-05-02T16:03:33.909Z</time></trkpt><trkpt lat="42.2489535" lon="13.257064"><ele>1284.0</ele><time>2026-05-02T16:03:34.908Z</time></trkpt><trkpt lat="42.2490543" lon="13.2569956"><ele>1285.4</ele><time>2026-05-02T16:03:35.906Z</time></trkpt><trkpt lat="42.2491633" lon="13.2569341"><ele>1286.8000000000002</ele><time>2026-05-02T16:03:36.907Z</time></trkpt><trkpt lat="42.2492738" lon="13.2568847"><ele>1288.1999999999998</ele><time>2026-05-02T16:03:37.907Z</time></trkpt><trkpt lat="42.249363" lon="13.2568719"><ele>1289.6</ele><time>2026-05-02T16:03:38.906Z</time></trkpt><trkpt lat="42.2494576" lon="13.2568675"><ele>1291.0</ele><time>2026-05-02T16:03:39.907Z</time></trkpt><trkpt lat="42.2495603" lon="13.2568701"><ele>1291.0</ele><time>2026-05-02T16:03:40.906Z</time></trkpt><trkpt lat="42.2496495" lon="13.2568729"><ele>1291.0</ele><time>2026-05-02T16:03:41.907Z</time></trkpt><trkpt lat="42.2497283" lon="13.2568702"><ele>1291.0</ele><time>2026-05-02T16:03:42.908Z</time></trkpt><trkpt lat="42.2498057" lon="13.2568576"><ele>1291.0</ele><time>2026-05-02T16:03:43.907Z</time></trkpt><trkpt lat="42.2498881" lon="13.2568191"><ele>1291.0</ele><time>2026-05-02T16:03:44.907Z</time></trkpt><trkpt lat="42.2499937" lon="13.2567646"><ele>1291.0</ele><time>2026-05-02T16:03:45.907Z</time></trkpt><trkpt lat="42.2501095" lon="13.256695"><ele>1291.6</ele><time>2026-05-02T16:03:46.907Z</time></trkpt><trkpt lat="42.2502225" lon="13.2566127"><ele>1292.1999999999998</ele><time>2026-05-02T16:03:47.907Z</time></trkpt><trkpt lat="42.2503211" lon="13.2565308"><ele>1292.8000000000002</ele><time>2026-05-02T16:03:48.908Z</time></trkpt><trkpt lat="42.2504126" lon="13.2564588"><ele>1293.4</ele><time>2026-05-02T16:03:49.907Z</time></trkpt><trkpt lat="42.2504921" lon="13.2564146"><ele>1294.0</ele><time>2026-05-02T16:03:50.907Z</time></trkpt><trkpt lat="42.2505725" lon="13.2563844"><ele>1289.75</ele><time>2026-05-02T16:03:51.908Z</time></trkpt><trkpt lat="42.2506758" lon="13.256393"><ele>1285.5</ele><time>2026-05-02T16:03:52.907Z</time></trkpt><trkpt lat="42.2507972" lon="13.2563859"><ele>1281.25</ele><time>2026-05-02T16:03:53.907Z</time></trkpt><trkpt lat="42.2509217" lon="13.2563788"><ele>1277.0</ele><time>2026-05-02T16:03:54.906Z</time></trkpt><trkpt lat="42.2510355" lon="13.2563872"><ele>1277.0</ele><time>2026-05-02T16:03:55.908Z</time></trkpt><trkpt lat="42.2511346" lon="13.256402"><ele>1277.0</ele><time>2026-05-02T16:03:56.907Z</time></trkpt><trkpt lat="42.2512223" lon="13.2564378"><ele>1277.0</ele><time>2026-05-02T16:03:57.907Z</time></trkpt><trkpt lat="42.2513207" lon="13.2564868"><ele>1277.0</ele><time>2026-05-02T16:03:58.908Z</time></trkpt><trkpt lat="42.2514351" lon="13.2565454"><ele>1277.0</ele><time>2026-05-02T16:03:59.908Z</time></trkpt><trkpt lat="42.2515447" lon="13.2565964"><ele>1278.2</ele><time>2026-05-02T16:04:00.907Z</time></trkpt><trkpt lat="42.25163" lon="13.2566434"><ele>1279.4</ele><time>2026-05-02T16:04:01.908Z</time></trkpt><trkpt lat="42.2517399" lon="13.2566604"><ele>1280.6000000000001</ele><time>2026-05-02T16:04:03.908Z</time></trkpt><trkpt lat="42.2518559" lon="13.2566075"><ele>1281.8000000000002</ele><time>2026-05-02T16:04:05.906Z</time></trkpt><trkpt lat="42.2519109" lon="13.2565512"><ele>1283.0</ele><time>2026-05-02T16:04:06.907Z</time></trkpt><trkpt lat="42.251968" lon="13.2564332"><ele>1283.0</ele><time>2026-05-02T16:04:07.906Z</time></trkpt><trkpt lat="42.2520289" lon="13.2563336"><ele>1283.0</ele><time>2026-05-02T16:04:08.907Z</time></trkpt><trkpt lat="42.252088" lon="13.25621"><ele>1283.0</ele><time>2026-05-02T16:04:09.907Z</time></trkpt><trkpt lat="42.2521513" lon="13.2560798"><ele>1283.0</ele><time>2026-05-02T16:04:10.907Z</time></trkpt><trkpt lat="42.2522303" lon="13.2559454"><ele>1283.0</ele><time>2026-05-02T16:04:11.907Z</time></trkpt><trkpt lat="42.2523081" lon="13.2558205"><ele>1284.0</ele><time>2026-05-02T16:04:12.907Z</time></trkpt><trkpt lat="42.2523836" lon="13.2556983"><ele>1285.0</ele><time>2026-05-02T16:04:13.907Z</time></trkpt><trkpt lat="42.2524426" lon="13.2555899"><ele>1286.0</ele><time>2026-05-02T16:04:14.907Z</time></trkpt><trkpt lat="42.2525094" lon="13.2554959"><ele>1287.0</ele><time>2026-05-02T16:04:15.907Z</time></trkpt><trkpt lat="42.2526031" lon="13.2553924"><ele>1288.0</ele><time>2026-05-02T16:04:16.907Z</time></trkpt><trkpt lat="42.2527163" lon="13.2552891"><ele>1288.0</ele><time>2026-05-02T16:04:17.907Z</time></trkpt><trkpt lat="42.2528301" lon="13.2551956"><ele>1288.0</ele><time>2026-05-02T16:04:18.907Z</time></trkpt><trkpt lat="42.2529278" lon="13.2551296"><ele>1288.0</ele><time>2026-05-02T16:04:19.906Z</time></trkpt><trkpt lat="42.2530284" lon="13.2550849"><ele>1288.0</ele><time>2026-05-02T16:04:20.907Z</time></trkpt><trkpt lat="42.2531423" lon="13.2550542"><ele>1289.2</ele><time>2026-05-02T16:04:21.908Z</time></trkpt><trkpt lat="42.2532557" lon="13.2550259"><ele>1290.4</ele><time>2026-05-02T16:04:22.908Z</time></trkpt><trkpt lat="42.2533611" lon="13.2549949"><ele>1291.6000000000001</ele><time>2026-05-02T16:04:23.907Z</time></trkpt><trkpt lat="42.2534637" lon="13.2549435"><ele>1292.8000000000002</ele><time>2026-05-02T16:04:24.907Z</time></trkpt><trkpt lat="42.2535652" lon="13.2548814"><ele>1294.0</ele><time>2026-05-02T16:04:25.907Z</time></trkpt><trkpt lat="42.2536752" lon="13.2548097"><ele>1291.5</ele><time>2026-05-02T16:04:26.909Z</time></trkpt><trkpt lat="42.2537865" lon="13.2547399"><ele>1289.0</ele><time>2026-05-02T16:04:27.907Z</time></trkpt><trkpt lat="42.2539019" lon="13.2546742"><ele>1286.5</ele><time>2026-05-02T16:04:28.907Z</time></trkpt><trkpt lat="42.2540208" lon="13.2546048"><ele>1284.0</ele><time>2026-05-02T16:04:29.906Z</time></trkpt><trkpt lat="42.2541387" lon="13.254535"><ele>1284.0</ele><time>2026-05-02T16:04:30.907Z</time></trkpt><trkpt lat="42.2542544" lon="13.2544663"><ele>1284.0</ele><time>2026-05-02T16:04:31.908Z</time></trkpt><trkpt lat="42.2543683" lon="13.2543965"><ele>1284.0</ele><time>2026-05-02T16:04:32.907Z</time></trkpt><trkpt lat="42.2544831" lon="13.2543225"><ele>1284.0</ele><time>2026-05-02T16:04:33.907Z</time></trkpt><trkpt lat="42.2545914" lon="13.2542501"><ele>1284.0</ele><time>2026-05-02T16:04:34.907Z</time></trkpt><trkpt lat="42.254692" lon="13.2541824"><ele>1284.0</ele><time>2026-05-02T16:04:35.907Z</time></trkpt><trkpt lat="42.2547853" lon="13.2541179"><ele>1284.0</ele><time>2026-05-02T16:04:36.908Z</time></trkpt><trkpt lat="42.254886" lon="13.2540639"><ele>1284.0</ele><time>2026-05-02T16:04:37.908Z</time></trkpt><trkpt lat="42.2550021" lon="13.2540129"><ele>1284.0</ele><time>2026-05-02T16:04:38.907Z</time></trkpt><trkpt lat="42.2551182" lon="13.2539612"><ele>1281.75</ele><time>2026-05-02T16:04:39.908Z</time></trkpt><trkpt lat="42.2552395" lon="13.2539083"><ele>1279.5</ele><time>2026-05-02T16:04:40.907Z</time></trkpt><trkpt lat="42.2553596" lon="13.2538532"><ele>1277.25</ele><time>2026-05-02T16:04:41.908Z</time></trkpt><trkpt lat="42.2554653" lon="13.2537726"><ele>1275.0</ele><time>2026-05-02T16:04:42.907Z</time></trkpt><trkpt lat="42.2555674" lon="13.2536833"><ele>1277.6</ele><time>2026-05-02T16:04:43.907Z</time></trkpt><trkpt lat="42.2556598" lon="13.2536003"><ele>1280.2</ele><time>2026-05-02T16:04:44.906Z</time></trkpt><trkpt lat="42.255731" lon="13.2535173"><ele>1282.8000000000002</ele><time>2026-05-02T16:04:45.908Z</time></trkpt><trkpt lat="42.2557803" lon="13.2534088"><ele>1285.4</ele><time>2026-05-02T16:04:46.908Z</time></trkpt><trkpt lat="42.2558074" lon="13.2532821"><ele>1288.0</ele><time>2026-05-02T16:04:47.907Z</time></trkpt><trkpt lat="42.255819" lon="13.253143"><ele>1287.8000000000002</ele><time>2026-05-02T16:04:48.909Z</time></trkpt><trkpt lat="42.2558217" lon="13.2530029"><ele>1287.6</ele><time>2026-05-02T16:04:49.907Z</time></trkpt><trkpt lat="42.2558294" lon="13.2528768"><ele>1287.4</ele><time>2026-05-02T16:04:50.906Z</time></trkpt><trkpt lat="42.2558363" lon="13.2527547"><ele>1287.1999999999998</ele><time>2026-05-02T16:04:51.907Z</time></trkpt><trkpt lat="42.2558585" lon="13.2526194"><ele>1287.0</ele><time>2026-05-02T16:04:52.907Z</time></trkpt><trkpt lat="42.2558878" lon="13.2524867"><ele>1287.0</ele><time>2026-05-02T16:04:53.907Z</time></trkpt><trkpt lat="42.2559256" lon="13.2523654"><ele>1287.0</ele><time>2026-05-02T16:04:54.908Z</time></trkpt><trkpt lat="42.2559632" lon="13.2522659"><ele>1287.0</ele><time>2026-05-02T16:04:55.907Z</time></trkpt><trkpt lat="42.2560164" lon="13.2521824"><ele>1287.0</ele><time>2026-05-02T16:04:56.909Z</time></trkpt><trkpt lat="42.2560862" lon="13.2520998"><ele>1287.0</ele><time>2026-05-02T16:04:57.908Z</time></trkpt><trkpt lat="42.2561584" lon="13.2520245"><ele>1287.0</ele><time>2026-05-02T16:04:58.907Z</time></trkpt><trkpt lat="42.2562425" lon="13.25196"><ele>1286.1999999999998</ele><time>2026-05-02T16:04:59.907Z</time></trkpt><trkpt lat="42.256329" lon="13.251868"><ele>1285.4</ele><time>2026-05-02T16:05:00.907Z</time></trkpt><trkpt lat="42.2564081" lon="13.2517733"><ele>1284.6</ele><time>2026-05-02T16:05:01.907Z</time></trkpt><trkpt lat="42.2564852" lon="13.2517034"><ele>1283.8000000000002</ele><time>2026-05-02T16:05:02.908Z</time></trkpt><trkpt lat="42.2565718" lon="13.2516417"><ele>1283.0</ele><time>2026-05-02T16:05:03.907Z</time></trkpt><trkpt lat="42.2566725" lon="13.2515986"><ele>1285.8000000000002</ele><time>2026-05-02T16:05:04.907Z</time></trkpt><trkpt lat="42.2567746" lon="13.2515558"><ele>1288.6</ele><time>2026-05-02T16:05:05.907Z</time></trkpt><trkpt lat="42.2568705" lon="13.2515231"><ele>1291.4</ele><time>2026-05-02T16:05:06.907Z</time></trkpt><trkpt lat="42.2569428" lon="13.2515009"><ele>1294.1999999999998</ele><time>2026-05-02T16:05:07.907Z</time></trkpt><trkpt lat="42.2570467" lon="13.2515223"><ele>1297.0</ele><time>2026-05-02T16:05:09.907Z</time></trkpt><trkpt lat="42.2571013" lon="13.2516452"><ele>1297.0</ele><time>2026-05-02T16:05:11.908Z</time></trkpt><trkpt lat="42.2571175" lon="13.251733"><ele>1297.0</ele><time>2026-05-02T16:05:12.907Z</time></trkpt><trkpt lat="42.2571387" lon="13.2518272"><ele>1297.0</ele><time>2026-05-02T16:05:13.908Z</time></trkpt><trkpt lat="42.257165" lon="13.2519479"><ele>1297.0</ele><time>2026-05-02T16:05:14.907Z</time></trkpt><trkpt lat="42.2571816" lon="13.2520547"><ele>1297.0</ele><time>2026-05-02T16:05:15.907Z</time></trkpt><trkpt lat="42.2571944" lon="13.2521621"><ele>1297.0</ele><time>2026-05-02T16:05:16.907Z</time></trkpt><trkpt lat="42.2571959" lon="13.2522513"><ele>1297.8333333333333</ele><time>2026-05-02T16:05:17.908Z</time></trkpt><trkpt lat="42.2572021" lon="13.2523516"><ele>1298.6666666666665</ele><time>2026-05-02T16:05:18.908Z</time></trkpt><trkpt lat="42.2572083" lon="13.2524526"><ele>1299.5</ele><time>2026-05-02T16:05:19.907Z</time></trkpt><trkpt lat="42.2572305" lon="13.2525566"><ele>1300.3333333333333</ele><time>2026-05-02T16:05:20.907Z</time></trkpt><trkpt lat="42.2572632" lon="13.2526768"><ele>1301.1666666666667</ele><time>2026-05-02T16:05:22.907Z</time></trkpt><trkpt lat="42.25736" lon="13.2526682"><ele>1302.0</ele><time>2026-05-02T16:05:24.909Z</time></trkpt><trkpt lat="42.2574657" lon="13.2525857"><ele>1299.0</ele><time>2026-05-02T16:05:26.907Z</time></trkpt><trkpt lat="42.2575807" lon="13.2525497"><ele>1296.0</ele><time>2026-05-02T16:05:28.907Z</time></trkpt><trkpt lat="42.2577071" lon="13.2525692"><ele>1293.0</ele><time>2026-05-02T16:05:30.908Z</time></trkpt><trkpt lat="42.2578379" lon="13.2525948"><ele>1290.0</ele><time>2026-05-02T16:05:32.907Z</time></trkpt><trkpt lat="42.257952" lon="13.2525777"><ele>1290.0</ele><time>2026-05-02T16:05:33.908Z</time></trkpt><trkpt lat="42.25807" lon="13.252558"><ele>1290.0</ele><time>2026-05-02T16:05:34.908Z</time></trkpt><trkpt lat="42.2581625" lon="13.2525125"><ele>1290.0</ele><time>2026-05-02T16:05:35.907Z</time></trkpt><trkpt lat="42.2582682" lon="13.2524528"><ele>1290.0</ele><time>2026-05-02T16:05:36.908Z</time></trkpt><trkpt lat="42.2583638" lon="13.2523791"><ele>1290.0</ele><time>2026-05-02T16:05:37.907Z</time></trkpt><trkpt lat="42.2584493" lon="13.252298"><ele>1287.8333333333333</ele><time>2026-05-02T16:05:38.907Z</time></trkpt><trkpt lat="42.2585162" lon="13.25222"><ele>1285.6666666666667</ele><time>2026-05-02T16:05:39.907Z</time></trkpt><trkpt lat="42.2585662" lon="13.2521472"><ele>1283.5</ele><time>2026-05-02T16:05:40.907Z</time></trkpt><trkpt lat="42.2586108" lon="13.2520527"><ele>1281.3333333333335</ele><time>2026-05-02T16:05:41.906Z</time></trkpt><trkpt lat="42.2586677" lon="13.2519306"><ele>1279.1666666666667</ele><time>2026-05-02T16:05:42.907Z</time></trkpt><trkpt lat="42.2587267" lon="13.251828"><ele>1277.0</ele><time>2026-05-02T16:05:43.906Z</time></trkpt><trkpt lat="42.2587884" lon="13.2517169"><ele>1277.0</ele><time>2026-05-02T16:05:44.907Z</time></trkpt><trkpt lat="42.2588628" lon="13.2516034"><ele>1277.0</ele><time>2026-05-02T16:05:45.908Z</time></trkpt><trkpt lat="42.2589444" lon="13.2515029"><ele>1277.0</ele><time>2026-05-02T16:05:46.907Z</time></trkpt><trkpt lat="42.2590262" lon="13.2514464"><ele>1277.0</ele><time>2026-05-02T16:05:47.907Z</time></trkpt><trkpt lat="42.2591344" lon="13.2513969"><ele>1277.0</ele><time>2026-05-02T16:05:48.907Z</time></trkpt><trkpt lat="42.2592423" lon="13.2513528"><ele>1275.2</ele><time>2026-05-02T16:05:49.906Z</time></trkpt><trkpt lat="42.2593414" lon="13.2513188"><ele>1273.4</ele><time>2026-05-02T16:05:50.908Z</time></trkpt><trkpt lat="42.2594362" lon="13.2512641"><ele>1271.6</ele><time>2026-05-02T16:05:51.907Z</time></trkpt><trkpt lat="42.259519" lon="13.2511979"><ele>1269.8</ele><time>2026-05-02T16:05:52.908Z</time></trkpt><trkpt lat="42.2595932" lon="13.2511279"><ele>1268.0</ele><time>2026-05-02T16:05:53.908Z</time></trkpt><trkpt lat="42.2596568" lon="13.2510302"><ele>1268.0</ele><time>2026-05-02T16:05:54.908Z</time></trkpt><trkpt lat="42.2597101" lon="13.2509094"><ele>1268.0</ele><time>2026-05-02T16:05:55.909Z</time></trkpt><trkpt lat="42.2597612" lon="13.2507892"><ele>1268.0</ele><time>2026-05-02T16:05:56.907Z</time></trkpt><trkpt lat="42.2598164" lon="13.2506446"><ele>1268.0</ele><time>2026-05-02T16:05:57.907Z</time></trkpt><trkpt lat="42.2598614" lon="13.2505129"><ele>1268.0</ele><time>2026-05-02T16:05:58.908Z</time></trkpt><trkpt lat="42.2598884" lon="13.2503751"><ele>1268.8</ele><time>2026-05-02T16:05:59.906Z</time></trkpt><trkpt lat="42.2599129" lon="13.2502459"><ele>1269.6</ele><time>2026-05-02T16:06:00.908Z</time></trkpt><trkpt lat="42.2599181" lon="13.2501183"><ele>1270.4</ele><time>2026-05-02T16:06:01.907Z</time></trkpt><trkpt lat="42.259922" lon="13.2499749"><ele>1271.2</ele><time>2026-05-02T16:06:02.908Z</time></trkpt><trkpt lat="42.2599312" lon="13.249855"><ele>1272.0</ele><time>2026-05-02T16:06:03.906Z</time></trkpt><trkpt lat="42.2599559" lon="13.2497211"><ele>1270.4</ele><time>2026-05-02T16:06:04.908Z</time></trkpt><trkpt lat="42.2599919" lon="13.2495798"><ele>1268.8000000000002</ele><time>2026-05-02T16:06:05.907Z</time></trkpt><trkpt lat="42.2600295" lon="13.2494593"><ele>1267.2</ele><time>2026-05-02T16:06:06.907Z</time></trkpt><trkpt lat="42.2600662" lon="13.2493219"><ele>1265.6000000000001</ele><time>2026-05-02T16:06:07.906Z</time></trkpt><trkpt lat="42.260097" lon="13.2491725"><ele>1264.0</ele><time>2026-05-02T16:06:08.906Z</time></trkpt><trkpt lat="42.2601293" lon="13.249029"><ele>1262.75</ele><time>2026-05-02T16:06:09.906Z</time></trkpt><trkpt lat="42.260157" lon="13.2488733"><ele>1261.5</ele><time>2026-05-02T16:06:10.907Z</time></trkpt><trkpt lat="42.2601832" lon="13.2487098"><ele>1260.25</ele><time>2026-05-02T16:06:11.907Z</time></trkpt><trkpt lat="42.2602069" lon="13.2485588"><ele>1259.0</ele><time>2026-05-02T16:06:12.907Z</time></trkpt><trkpt lat="42.2602222" lon="13.2484189"><ele>1259.0</ele><time>2026-05-02T16:06:13.908Z</time></trkpt><trkpt lat="42.2602418" lon="13.2482822"><ele>1259.0</ele><time>2026-05-02T16:06:14.907Z</time></trkpt><trkpt lat="42.2602605" lon="13.2481432"><ele>1259.0</ele><time>2026-05-02T16:06:15.907Z</time></trkpt><trkpt lat="42.2602811" lon="13.2480004"><ele>1259.0</ele><time>2026-05-02T16:06:16.909Z</time></trkpt><trkpt lat="42.2603011" lon="13.2478601"><ele>1259.0</ele><time>2026-05-02T16:06:17.907Z</time></trkpt><trkpt lat="42.2603186" lon="13.2477282"><ele>1257.8</ele><time>2026-05-02T16:06:18.908Z</time></trkpt><trkpt lat="42.2603352" lon="13.247611"><ele>1256.6000000000001</ele><time>2026-05-02T16:06:19.906Z</time></trkpt><trkpt lat="42.2603564" lon="13.2475111"><ele>1255.4</ele><time>2026-05-02T16:06:20.907Z</time></trkpt><trkpt lat="42.2604089" lon="13.2473459"><ele>1254.2</ele><time>2026-05-02T16:06:22.908Z</time></trkpt><trkpt lat="42.2604502" lon="13.2472653"><ele>1253.0</ele><time>2026-05-02T16:06:23.907Z</time></trkpt><trkpt lat="42.2605096" lon="13.2471791"><ele>1253.0</ele><time>2026-05-02T16:06:24.908Z</time></trkpt><trkpt lat="42.2605803" lon="13.2470759"><ele>1253.0</ele><time>2026-05-02T16:06:25.908Z</time></trkpt><trkpt lat="42.2606497" lon="13.2469713"><ele>1253.0</ele><time>2026-05-02T16:06:26.907Z</time></trkpt><trkpt lat="42.2607212" lon="13.2468479"><ele>1253.0</ele><time>2026-05-02T16:06:27.907Z</time></trkpt><trkpt lat="42.2607887" lon="13.2467281"><ele>1253.0</ele><time>2026-05-02T16:06:28.907Z</time></trkpt><trkpt lat="42.2608499" lon="13.2466017"><ele>1252.5</ele><time>2026-05-02T16:06:29.909Z</time></trkpt><trkpt lat="42.260925" lon="13.2464674"><ele>1252.0</ele><time>2026-05-02T16:06:30.908Z</time></trkpt><trkpt lat="42.2609937" lon="13.2463325"><ele>1251.5</ele><time>2026-05-02T16:06:31.906Z</time></trkpt><trkpt lat="42.2610618" lon="13.2461907"><ele>1251.0</ele><time>2026-05-02T16:06:32.907Z</time></trkpt><trkpt lat="42.2611234" lon="13.2460627"><ele>1251.0</ele><time>2026-05-02T16:06:33.906Z</time></trkpt><trkpt lat="42.2612004" lon="13.245928"><ele>1251.0</ele><time>2026-05-02T16:06:34.907Z</time></trkpt><trkpt lat="42.2612757" lon="13.245788"><ele>1251.0</ele><time>2026-05-02T16:06:35.907Z</time></trkpt><trkpt lat="42.2613513" lon="13.2456504"><ele>1251.0</ele><time>2026-05-02T16:06:36.907Z</time></trkpt><trkpt lat="42.2614319" lon="13.245501"><ele>1252.0</ele><time>2026-05-02T16:06:37.907Z</time></trkpt><trkpt lat="42.2615216" lon="13.2453346"><ele>1253.0</ele><time>2026-05-02T16:06:38.907Z</time></trkpt><trkpt lat="42.2615954" lon="13.2451709"><ele>1254.0</ele><time>2026-05-02T16:06:39.906Z</time></trkpt><trkpt lat="42.261659" lon="13.2450233"><ele>1255.0</ele><time>2026-05-02T16:06:40.907Z</time></trkpt><trkpt lat="42.2617093" lon="13.2448665"><ele>1254.6</ele><time>2026-05-02T16:06:41.908Z</time></trkpt><trkpt lat="42.2617452" lon="13.244718"><ele>1254.2</ele><time>2026-05-02T16:06:42.907Z</time></trkpt><trkpt lat="42.2617672" lon="13.2445744"><ele>1253.8</ele><time>2026-05-02T16:06:43.906Z</time></trkpt><trkpt lat="42.2617686" lon="13.2444274"><ele>1253.4</ele><time>2026-05-02T16:06:44.907Z</time></trkpt><trkpt lat="42.2617644" lon="13.2442905"><ele>1253.0</ele><time>2026-05-02T16:06:45.907Z</time></trkpt><trkpt lat="42.2617381" lon="13.2441721"><ele>1253.0</ele><time>2026-05-02T16:06:46.909Z</time></trkpt><trkpt lat="42.2617015" lon="13.2440518"><ele>1253.0</ele><time>2026-05-02T16:06:47.908Z</time></trkpt><trkpt lat="42.2616417" lon="13.243929"><ele>1253.0</ele><time>2026-05-02T16:06:48.907Z</time></trkpt><trkpt lat="42.2615671" lon="13.2438089"><ele>1253.0</ele><time>2026-05-02T16:06:49.907Z</time></trkpt><trkpt lat="42.261479" lon="13.2437044"><ele>1253.0</ele><time>2026-05-02T16:06:50.908Z</time></trkpt><trkpt lat="42.2613858" lon="13.2436066"><ele>1253.0</ele><time>2026-05-02T16:06:51.907Z</time></trkpt><trkpt lat="42.2612831" lon="13.2435112"><ele>1253.0</ele><time>2026-05-02T16:06:52.907Z</time></trkpt><trkpt lat="42.2611807" lon="13.2434115"><ele>1253.0</ele><time>2026-05-02T16:06:53.907Z</time></trkpt><trkpt lat="42.2610788" lon="13.2433208"><ele>1253.0</ele><time>2026-05-02T16:06:54.907Z</time></trkpt><trkpt lat="42.2609888" lon="13.2432372"><ele>1253.0</ele><time>2026-05-02T16:06:55.906Z</time></trkpt><trkpt lat="42.2609186" lon="13.2431541"><ele>1253.0</ele><time>2026-05-02T16:06:56.907Z</time></trkpt><trkpt lat="42.2608668" lon="13.2430624"><ele>1253.0</ele><time>2026-05-02T16:06:57.907Z</time></trkpt><trkpt lat="42.2608271" lon="13.2429677"><ele>1253.0</ele><time>2026-05-02T16:06:58.907Z</time></trkpt><trkpt lat="42.2608185" lon="13.2428325"><ele>1253.0</ele><time>2026-05-02T16:06:59.906Z</time></trkpt><trkpt lat="42.2608169" lon="13.2426977"><ele>1253.0</ele><time>2026-05-02T16:07:00.908Z</time></trkpt><trkpt lat="42.2608095" lon="13.2425483"><ele>1253.0</ele><time>2026-05-02T16:07:01.908Z</time></trkpt><trkpt lat="42.2607868" lon="13.2424127"><ele>1253.0</ele><time>2026-05-02T16:07:02.907Z</time></trkpt><trkpt lat="42.2607637" lon="13.242309"><ele>1253.0</ele><time>2026-05-02T16:07:03.907Z</time></trkpt><trkpt lat="42.2607349" lon="13.2422191"><ele>1253.0</ele><time>2026-05-02T16:07:04.907Z</time></trkpt><trkpt lat="42.2606973" lon="13.2421282"><ele>1253.0</ele><time>2026-05-02T16:07:05.907Z</time></trkpt><trkpt lat="42.2606482" lon="13.242012"><ele>1249.8</ele><time>2026-05-02T16:07:06.906Z</time></trkpt><trkpt lat="42.2606122" lon="13.2418852"><ele>1246.6</ele><time>2026-05-02T16:07:07.907Z</time></trkpt><trkpt lat="42.2605833" lon="13.2417551"><ele>1243.4</ele><time>2026-05-02T16:07:08.907Z</time></trkpt><trkpt lat="42.2605707" lon="13.2416019"><ele>1240.2</ele><time>2026-05-02T16:07:09.908Z</time></trkpt><trkpt lat="42.2605714" lon="13.241459"><ele>1237.0</ele><time>2026-05-02T16:07:10.906Z</time></trkpt><trkpt lat="42.2605785" lon="13.2413282"><ele>1236.1666666666665</ele><time>2026-05-02T16:07:11.908Z</time></trkpt><trkpt lat="42.2606034" lon="13.2411961"><ele>1235.3333333333333</ele><time>2026-05-02T16:07:12.907Z</time></trkpt><trkpt lat="42.2606363" lon="13.2410858"><ele>1234.5</ele><time>2026-05-02T16:07:13.906Z</time></trkpt><trkpt lat="42.2606728" lon="13.2409789"><ele>1233.6666666666667</ele><time>2026-05-02T16:07:14.907Z</time></trkpt><trkpt lat="42.2607282" lon="13.2409003"><ele>1232.8333333333335</ele><time>2026-05-02T16:07:15.908Z</time></trkpt><trkpt lat="42.2607947" lon="13.2408244"><ele>1232.0</ele><time>2026-05-02T16:07:16.909Z</time></trkpt><trkpt lat="42.2609091" lon="13.240766"><ele>1234.75</ele><time>2026-05-02T16:07:17.908Z</time></trkpt><trkpt lat="42.2610135" lon="13.2406992"><ele>1237.5</ele><time>2026-05-02T16:07:18.907Z</time></trkpt><trkpt lat="42.2611264" lon="13.2406359"><ele>1240.25</ele><time>2026-05-02T16:07:19.908Z</time></trkpt><trkpt lat="42.2612314" lon="13.2405708"><ele>1243.0</ele><time>2026-05-02T16:07:20.907Z</time></trkpt><trkpt lat="42.2613289" lon="13.2405108"><ele>1241.6</ele><time>2026-05-02T16:07:21.907Z</time></trkpt><trkpt lat="42.2614228" lon="13.2404507"><ele>1240.1999999999998</ele><time>2026-05-02T16:07:22.907Z</time></trkpt><trkpt lat="42.2615076" lon="13.2403709"><ele>1238.8</ele><time>2026-05-02T16:07:23.907Z</time></trkpt><trkpt lat="42.2615897" lon="13.2402828"><ele>1237.3999999999999</ele><time>2026-05-02T16:07:24.908Z</time></trkpt><trkpt lat="42.2616721" lon="13.2401926"><ele>1236.0</ele><time>2026-05-02T16:07:25.908Z</time></trkpt><trkpt lat="42.2617513" lon="13.2401085"><ele>1236.0</ele><time>2026-05-02T16:07:26.908Z</time></trkpt><trkpt lat="42.2618314" lon="13.240033"><ele>1236.0</ele><time>2026-05-02T16:07:27.906Z</time></trkpt><trkpt lat="42.2619195" lon="13.2399702"><ele>1236.0</ele><time>2026-05-02T16:07:28.907Z</time></trkpt><trkpt lat="42.2620134" lon="13.2399171"><ele>1236.0</ele><time>2026-05-02T16:07:29.908Z</time></trkpt><trkpt lat="42.2621071" lon="13.2398748"><ele>1236.0</ele><time>2026-05-02T16:07:30.907Z</time></trkpt><trkpt lat="42.2622119" lon="13.239832"><ele>1237.2</ele><time>2026-05-02T16:07:31.907Z</time></trkpt><trkpt lat="42.2623205" lon="13.2398034"><ele>1238.3999999999999</ele><time>2026-05-02T16:07:32.908Z</time></trkpt><trkpt lat="42.262433" lon="13.2397803"><ele>1239.6</ele><time>2026-05-02T16:07:33.908Z</time></trkpt><trkpt lat="42.2625354" lon="13.2397603"><ele>1240.8</ele><time>2026-05-02T16:07:34.907Z</time></trkpt><trkpt lat="42.262636" lon="13.2397472"><ele>1242.0</ele><time>2026-05-02T16:07:35.908Z</time></trkpt><trkpt lat="42.2627407" lon="13.2397463"><ele>1238.8</ele><time>2026-05-02T16:07:36.907Z</time></trkpt><trkpt lat="42.2628524" lon="13.2397401"><ele>1235.6</ele><time>2026-05-02T16:07:37.908Z</time></trkpt><trkpt lat="42.2629521" lon="13.2397287"><ele>1232.3999999999999</ele><time>2026-05-02T16:07:38.908Z</time></trkpt><trkpt lat="42.2630371" lon="13.2396921"><ele>1229.2</ele><time>2026-05-02T16:07:39.907Z</time></trkpt><trkpt lat="42.263105" lon="13.2396349"><ele>1226.0</ele><time>2026-05-02T16:07:40.907Z</time></trkpt><trkpt lat="42.2631659" lon="13.2395681"><ele>1226.0</ele><time>2026-05-02T16:07:41.908Z</time></trkpt><trkpt lat="42.263202" lon="13.2394792"><ele>1226.0</ele><time>2026-05-02T16:07:42.907Z</time></trkpt><trkpt lat="42.2632183" lon="13.2393438"><ele>1226.0</ele><time>2026-05-02T16:07:43.907Z</time></trkpt><trkpt lat="42.2632334" lon="13.2391936"><ele>1226.0</ele><time>2026-05-02T16:07:44.907Z</time></trkpt><trkpt lat="42.263241" lon="13.2390362"><ele>1226.0</ele><time>2026-05-02T16:07:45.907Z</time></trkpt><trkpt lat="42.2632545" lon="13.2388807"><ele>1223.8</ele><time>2026-05-02T16:07:46.906Z</time></trkpt><trkpt lat="42.2632683" lon="13.2387479"><ele>1221.6</ele><time>2026-05-02T16:07:47.906Z</time></trkpt><trkpt lat="42.2632891" lon="13.2386185"><ele>1219.4</ele><time>2026-05-02T16:07:48.907Z</time></trkpt><trkpt lat="42.2633075" lon="13.2385086"><ele>1217.2</ele><time>2026-05-02T16:07:49.908Z</time></trkpt><trkpt lat="42.2633419" lon="13.2384039"><ele>1215.0</ele><time>2026-05-02T16:07:50.907Z</time></trkpt><trkpt lat="42.2634123" lon="13.2382868"><ele>1215.0</ele><time>2026-05-02T16:07:51.909Z</time></trkpt><trkpt lat="42.2634783" lon="13.2381705"><ele>1215.0</ele><time>2026-05-02T16:07:52.906Z</time></trkpt><trkpt lat="42.2635416" lon="13.2380566"><ele>1215.0</ele><time>2026-05-02T16:07:53.908Z</time></trkpt><trkpt lat="42.2636003" lon="13.2379584"><ele>1215.0</ele><time>2026-05-02T16:07:54.907Z</time></trkpt><trkpt lat="42.2636601" lon="13.2378636"><ele>1215.0</ele><time>2026-05-02T16:07:55.907Z</time></trkpt><trkpt lat="42.2637085" lon="13.2377886"><ele>1214.4</ele><time>2026-05-02T16:07:56.906Z</time></trkpt><trkpt lat="42.2637513" lon="13.2377147"><ele>1213.8</ele><time>2026-05-02T16:07:57.907Z</time></trkpt><trkpt lat="42.2638324" lon="13.2376187"><ele>1213.2</ele><time>2026-05-02T16:07:59.907Z</time></trkpt><trkpt lat="42.2639461" lon="13.237613"><ele>1212.6</ele><time>2026-05-02T16:08:01.907Z</time></trkpt><trkpt lat="42.2640271" lon="13.2375667"><ele>1212.0</ele><time>2026-05-02T16:08:02.908Z</time></trkpt><trkpt lat="42.2641302" lon="13.2374971"><ele>1212.0</ele><time>2026-05-02T16:08:03.906Z</time></trkpt><trkpt lat="42.2642392" lon="13.2374313"><ele>1212.0</ele><time>2026-05-02T16:08:04.908Z</time></trkpt><trkpt lat="42.2643621" lon="13.237389"><ele>1212.0</ele><time>2026-05-02T16:08:05.908Z</time></trkpt><trkpt lat="42.264473" lon="13.2373719"><ele>1212.0</ele><time>2026-05-02T16:08:06.907Z</time></trkpt><trkpt lat="42.2645605" lon="13.2373884"><ele>1212.0</ele><time>2026-05-02T16:08:07.907Z</time></trkpt><trkpt lat="42.2646416" lon="13.237417"><ele>1212.0</ele><time>2026-05-02T16:08:08.906Z</time></trkpt><trkpt lat="42.2647151" lon="13.2374825"><ele>1212.0</ele><time>2026-05-02T16:08:09.908Z</time></trkpt><trkpt lat="42.264787" lon="13.2375605"><ele>1212.0</ele><time>2026-05-02T16:08:10.908Z</time></trkpt><trkpt lat="42.2648568" lon="13.2376651"><ele>1212.0</ele><time>2026-05-02T16:08:11.906Z</time></trkpt><trkpt lat="42.2649365" lon="13.2377495"><ele>1212.0</ele><time>2026-05-02T16:08:12.907Z</time></trkpt><trkpt lat="42.2650149" lon="13.2378272"><ele>1212.6</ele><time>2026-05-02T16:08:13.907Z</time></trkpt><trkpt lat="42.2650957" lon="13.2379041"><ele>1213.2</ele><time>2026-05-02T16:08:14.907Z</time></trkpt><trkpt lat="42.2651727" lon="13.2379849"><ele>1213.8</ele><time>2026-05-02T16:08:15.907Z</time></trkpt><trkpt lat="42.2652389" lon="13.2380775"><ele>1214.4</ele><time>2026-05-02T16:08:16.907Z</time></trkpt><trkpt lat="42.2652931" lon="13.2381903"><ele>1215.0</ele><time>2026-05-02T16:08:17.909Z</time></trkpt><trkpt lat="42.2653457" lon="13.2383074"><ele>1215.0</ele><time>2026-05-02T16:08:18.907Z</time></trkpt><trkpt lat="42.2653977" lon="13.2384422"><ele>1215.0</ele><time>2026-05-02T16:08:19.907Z</time></trkpt><trkpt lat="42.2654568" lon="13.238565"><ele>1215.0</ele><time>2026-05-02T16:08:20.908Z</time></trkpt><trkpt lat="42.2655107" lon="13.2386866"><ele>1215.0</ele><time>2026-05-02T16:08:21.908Z</time></trkpt><trkpt lat="42.2655763" lon="13.2387988"><ele>1215.0</ele><time>2026-05-02T16:08:22.907Z</time></trkpt><trkpt lat="42.265632" lon="13.2389133"><ele>1212.6</ele><time>2026-05-02T16:08:23.907Z</time></trkpt><trkpt lat="42.2656879" lon="13.2390393"><ele>1210.2</ele><time>2026-05-02T16:08:24.907Z</time></trkpt><trkpt lat="42.2657253" lon="13.2391688"><ele>1207.8</ele><time>2026-05-02T16:08:25.908Z</time></trkpt><trkpt lat="42.2657556" lon="13.2393023"><ele>1205.4</ele><time>2026-05-02T16:08:26.908Z</time></trkpt><trkpt lat="42.2657931" lon="13.239427"><ele>1203.0</ele><time>2026-05-02T16:08:27.908Z</time></trkpt><trkpt lat="42.2658411" lon="13.2395458"><ele>1203.0</ele><time>2026-05-02T16:08:28.906Z</time></trkpt><trkpt lat="42.2659018" lon="13.2396615"><ele>1203.0</ele><time>2026-05-02T16:08:29.909Z</time></trkpt><trkpt lat="42.2659718" lon="13.2397791"><ele>1203.0</ele><time>2026-05-02T16:08:30.908Z</time></trkpt><trkpt lat="42.2660514" lon="13.2398968"><ele>1203.0</ele><time>2026-05-02T16:08:31.907Z</time></trkpt><trkpt lat="42.2661304" lon="13.2400138"><ele>1201.5</ele><time>2026-05-02T16:08:32.906Z</time></trkpt><trkpt lat="42.2662177" lon="13.2401214"><ele>1200.0</ele><time>2026-05-02T16:08:33.908Z</time></trkpt><trkpt lat="42.266306" lon="13.2402331"><ele>1198.5</ele><time>2026-05-02T16:08:34.907Z</time></trkpt><trkpt lat="42.2664085" lon="13.2403429"><ele>1197.0</ele><time>2026-05-02T16:08:35.907Z</time></trkpt><trkpt lat="42.2665081" lon="13.2404448"><ele>1197.0</ele><time>2026-05-02T16:08:36.907Z</time></trkpt><trkpt lat="42.2666199" lon="13.2405379"><ele>1197.0</ele><time>2026-05-02T16:08:37.907Z</time></trkpt><trkpt lat="42.2667408" lon="13.2406148"><ele>1197.0</ele><time>2026-05-02T16:08:38.909Z</time></trkpt><trkpt lat="42.2668667" lon="13.2406701"><ele>1197.0</ele><time>2026-05-02T16:08:39.907Z</time></trkpt><trkpt lat="42.2669883" lon="13.2407255"><ele>1194.0</ele><time>2026-05-02T16:08:40.907Z</time></trkpt><trkpt lat="42.2671165" lon="13.2407792"><ele>1191.0</ele><time>2026-05-02T16:08:41.907Z</time></trkpt><trkpt lat="42.267243" lon="13.2408272"><ele>1188.0</ele><time>2026-05-02T16:08:42.907Z</time></trkpt><trkpt lat="42.2673692" lon="13.240865"><ele>1185.0</ele><time>2026-05-02T16:08:43.906Z</time></trkpt><trkpt lat="42.2674867" lon="13.2409051"><ele>1184.75</ele><time>2026-05-02T16:08:44.908Z</time></trkpt><trkpt lat="42.2676055" lon="13.2409632"><ele>1184.5</ele><time>2026-05-02T16:08:45.907Z</time></trkpt><trkpt lat="42.2677119" lon="13.2410379"><ele>1184.25</ele><time>2026-05-02T16:08:46.907Z</time></trkpt><trkpt lat="42.2678089" lon="13.2411122"><ele>1184.0</ele><time>2026-05-02T16:08:47.908Z</time></trkpt><trkpt lat="42.2678844" lon="13.2411946"><ele>1184.0</ele><time>2026-05-02T16:08:48.907Z</time></trkpt><trkpt lat="42.267932" lon="13.2412918"><ele>1184.0</ele><time>2026-05-02T16:08:49.906Z</time></trkpt><trkpt lat="42.2679673" lon="13.241403"><ele>1184.0</ele><time>2026-05-02T16:08:50.908Z</time></trkpt><trkpt lat="42.2679574" lon="13.2415577"><ele>1184.0</ele><time>2026-05-02T16:08:51.908Z</time></trkpt><trkpt lat="42.2679511" lon="13.2417165"><ele>1184.0</ele><time>2026-05-02T16:08:52.907Z</time></trkpt><trkpt lat="42.2679519" lon="13.2418755"><ele>1184.25</ele><time>2026-05-02T16:08:53.908Z</time></trkpt><trkpt lat="42.2679664" lon="13.2420394"><ele>1184.5</ele><time>2026-05-02T16:08:54.907Z</time></trkpt><trkpt lat="42.2679922" lon="13.2421981"><ele>1184.75</ele><time>2026-05-02T16:08:55.907Z</time></trkpt><trkpt lat="42.2680251" lon="13.2423593"><ele>1185.0</ele><time>2026-05-02T16:08:56.907Z</time></trkpt><trkpt lat="42.2680638" lon="13.2425049"><ele>1185.0</ele><time>2026-05-02T16:08:57.907Z</time></trkpt><trkpt lat="42.2681035" lon="13.242641"><ele>1185.0</ele><time>2026-05-02T16:08:58.907Z</time></trkpt><trkpt lat="42.2681471" lon="13.2427706"><ele>1185.0</ele><time>2026-05-02T16:08:59.906Z</time></trkpt><trkpt lat="42.2682077" lon="13.2428602"><ele>1185.0</ele><time>2026-05-02T16:09:00.908Z</time></trkpt><trkpt lat="42.2682806" lon="13.2429338"><ele>1185.0</ele><time>2026-05-02T16:09:01.909Z</time></trkpt><trkpt lat="42.2683684" lon="13.2429777"><ele>1183.8</ele><time>2026-05-02T16:09:02.907Z</time></trkpt><trkpt lat="42.2684639" lon="13.2429975"><ele>1182.6</ele><time>2026-05-02T16:09:03.907Z</time></trkpt><trkpt lat="42.2685721" lon="13.2429994"><ele>1181.4</ele><time>2026-05-02T16:09:04.907Z</time></trkpt><trkpt lat="42.2686854" lon="13.2429956"><ele>1180.2</ele><time>2026-05-02T16:09:05.909Z</time></trkpt><trkpt lat="42.2688007" lon="13.243012"><ele>1179.0</ele><time>2026-05-02T16:09:06.907Z</time></trkpt><trkpt lat="42.2689197" lon="13.2430448"><ele>1180.25</ele><time>2026-05-02T16:09:07.908Z</time></trkpt><trkpt lat="42.2690324" lon="13.243092"><ele>1181.5</ele><time>2026-05-02T16:09:08.906Z</time></trkpt><trkpt lat="42.2691416" lon="13.243148"><ele>1182.75</ele><time>2026-05-02T16:09:09.907Z</time></trkpt><trkpt lat="42.2692458" lon="13.2432097"><ele>1184.0</ele><time>2026-05-02T16:09:10.908Z</time></trkpt><trkpt lat="42.2693542" lon="13.2432553"><ele>1184.6000000000001</ele><time>2026-05-02T16:09:11.907Z</time></trkpt><trkpt lat="42.2694577" lon="13.2432962"><ele>1185.2</ele><time>2026-05-02T16:09:12.907Z</time></trkpt><trkpt lat="42.2695608" lon="13.2433327"><ele>1185.8000000000002</ele><time>2026-05-02T16:09:13.908Z</time></trkpt><trkpt lat="42.269661" lon="13.243356"><ele>1186.4</ele><time>2026-05-02T16:09:14.907Z</time></trkpt><trkpt lat="42.269773" lon="13.2433578"><ele>1187.0</ele><time>2026-05-02T16:09:15.907Z</time></trkpt><trkpt lat="42.2698799" lon="13.243338"><ele>1188.2</ele><time>2026-05-02T16:09:16.907Z</time></trkpt><trkpt lat="42.2699827" lon="13.2433193"><ele>1189.4</ele><time>2026-05-02T16:09:17.907Z</time></trkpt><trkpt lat="42.2700616" lon="13.2432519"><ele>1190.6</ele><time>2026-05-02T16:09:18.907Z</time></trkpt><trkpt lat="42.2701499" lon="13.2431742"><ele>1191.8</ele><time>2026-05-02T16:09:19.908Z</time></trkpt><trkpt lat="42.2702315" lon="13.2430852"><ele>1193.0</ele><time>2026-05-02T16:09:20.907Z</time></trkpt><trkpt lat="42.2703152" lon="13.2429789"><ele>1193.5</ele><time>2026-05-02T16:09:21.907Z</time></trkpt><trkpt lat="42.2704032" lon="13.2428917"><ele>1194.0</ele><time>2026-05-02T16:09:22.907Z</time></trkpt><trkpt lat="42.2705073" lon="13.242823"><ele>1194.5</ele><time>2026-05-02T16:09:23.907Z</time></trkpt><trkpt lat="42.2706213" lon="13.2427527"><ele>1195.0</ele><time>2026-05-02T16:09:24.907Z</time></trkpt><trkpt lat="42.2707343" lon="13.2426888"><ele>1193.75</ele><time>2026-05-02T16:09:25.907Z</time></trkpt><trkpt lat="42.2708423" lon="13.2426113"><ele>1192.5</ele><time>2026-05-02T16:09:26.907Z</time></trkpt><trkpt lat="42.2709565" lon="13.2425364"><ele>1191.25</ele><time>2026-05-02T16:09:27.907Z</time></trkpt><trkpt lat="42.2710693" lon="13.2424532"><ele>1190.0</ele><time>2026-05-02T16:09:28.908Z</time></trkpt><trkpt lat="42.2711922" lon="13.242373"><ele>1189.25</ele><time>2026-05-02T16:09:29.907Z</time></trkpt><trkpt lat="42.2713156" lon="13.2422846"><ele>1188.5</ele><time>2026-05-02T16:09:30.907Z</time></trkpt><trkpt lat="42.2714372" lon="13.2422062"><ele>1187.75</ele><time>2026-05-02T16:09:31.907Z</time></trkpt><trkpt lat="42.2715494" lon="13.2421322"><ele>1187.0</ele><time>2026-05-02T16:09:32.908Z</time></trkpt><trkpt lat="42.2716516" lon="13.2420327"><ele>1187.0</ele><time>2026-05-02T16:09:33.906Z</time></trkpt><trkpt lat="42.2717547" lon="13.2419191"><ele>1187.0</ele><time>2026-05-02T16:09:34.908Z</time></trkpt><trkpt lat="42.2718521" lon="13.2418062"><ele>1187.0</ele><time>2026-05-02T16:09:35.907Z</time></trkpt><trkpt lat="42.2719425" lon="13.2417096"><ele>1187.0</ele><time>2026-05-02T16:09:36.907Z</time></trkpt><trkpt lat="42.2720343" lon="13.2416193"><ele>1187.0</ele><time>2026-05-02T16:09:37.906Z</time></trkpt><trkpt lat="42.2721212" lon="13.2415734"><ele>1187.0</ele><time>2026-05-02T16:09:38.907Z</time></trkpt><trkpt lat="42.2722065" lon="13.2415295"><ele>1187.0</ele><time>2026-05-02T16:09:39.908Z</time></trkpt><trkpt lat="42.2723051" lon="13.2415159"><ele>1187.0</ele><time>2026-05-02T16:09:40.906Z</time></trkpt><trkpt lat="42.2724115" lon="13.2415189"><ele>1187.0</ele><time>2026-05-02T16:09:41.907Z</time></trkpt><trkpt lat="42.2725208" lon="13.2415379"><ele>1185.75</ele><time>2026-05-02T16:09:42.909Z</time></trkpt><trkpt lat="42.2726429" lon="13.2415626"><ele>1184.5</ele><time>2026-05-02T16:09:43.907Z</time></trkpt><trkpt lat="42.2727631" lon="13.2415901"><ele>1183.25</ele><time>2026-05-02T16:09:44.909Z</time></trkpt><trkpt lat="42.2728811" lon="13.2416093"><ele>1182.0</ele><time>2026-05-02T16:09:45.908Z</time></trkpt><trkpt lat="42.272993" lon="13.2416238"><ele>1182.0</ele><time>2026-05-02T16:09:46.907Z</time></trkpt><trkpt lat="42.2731047" lon="13.241645"><ele>1182.0</ele><time>2026-05-02T16:09:47.907Z</time></trkpt><trkpt lat="42.2732108" lon="13.2416548"><ele>1182.0</ele><time>2026-05-02T16:09:48.907Z</time></trkpt><trkpt lat="42.2733145" lon="13.2416667"><ele>1182.0</ele><time>2026-05-02T16:09:49.907Z</time></trkpt><trkpt lat="42.273415" lon="13.2416768"><ele>1182.0</ele><time>2026-05-02T16:09:50.907Z</time></trkpt><trkpt lat="42.2734998" lon="13.2416964"><ele>1181.4</ele><time>2026-05-02T16:09:51.908Z</time></trkpt><trkpt lat="42.273574" lon="13.2417408"><ele>1180.8000000000002</ele><time>2026-05-02T16:09:52.906Z</time></trkpt><trkpt lat="42.273654" lon="13.2418146"><ele>1180.2</ele><time>2026-05-02T16:09:53.908Z</time></trkpt><trkpt lat="42.2737327" lon="13.2419131"><ele>1179.6000000000001</ele><time>2026-05-02T16:09:54.908Z</time></trkpt><trkpt lat="42.2738276" lon="13.2420206"><ele>1179.0</ele><time>2026-05-02T16:09:55.908Z</time></trkpt><trkpt lat="42.2739233" lon="13.2421177"><ele>1179.5</ele><time>2026-05-02T16:09:56.908Z</time></trkpt><trkpt lat="42.2740236" lon="13.2422051"><ele>1180.0</ele><time>2026-05-02T16:09:57.908Z</time></trkpt><trkpt lat="42.274106" lon="13.2422673"><ele>1180.5</ele><time>2026-05-02T16:09:58.908Z</time></trkpt><trkpt lat="42.274167" lon="13.2423422"><ele>1181.0</ele><time>2026-05-02T16:09:59.907Z</time></trkpt><trkpt lat="42.2742021" lon="13.2424164"><ele>1181.5</ele><time>2026-05-02T16:10:00.907Z</time></trkpt><trkpt lat="42.2742343" lon="13.242495"><ele>1182.0</ele><time>2026-05-02T16:10:01.907Z</time></trkpt><trkpt lat="42.2742439" lon="13.2425916"><ele>1183.2</ele><time>2026-05-02T16:10:02.907Z</time></trkpt><trkpt lat="42.2742635" lon="13.2427581"><ele>1184.4</ele><time>2026-05-02T16:10:04.908Z</time></trkpt><trkpt lat="42.274253" lon="13.2429155"><ele>1185.6</ele><time>2026-05-02T16:10:06.907Z</time></trkpt><trkpt lat="42.2742764" lon="13.242998"><ele>1186.8</ele><time>2026-05-02T16:10:07.908Z</time></trkpt><trkpt lat="42.2742988" lon="13.2430907"><ele>1188.0</ele><time>2026-05-02T16:10:08.908Z</time></trkpt><trkpt lat="42.2743296" lon="13.2431794"><ele>1188.0</ele><time>2026-05-02T16:10:09.906Z</time></trkpt><trkpt lat="42.2743831" lon="13.2432617"><ele>1188.0</ele><time>2026-05-02T16:10:10.907Z</time></trkpt><trkpt lat="42.2744698" lon="13.2433395"><ele>1188.0</ele><time>2026-05-02T16:10:11.908Z</time></trkpt><trkpt lat="42.2745539" lon="13.2434213"><ele>1188.0</ele><time>2026-05-02T16:10:12.908Z</time></trkpt><trkpt lat="42.2746697" lon="13.2434957"><ele>1188.0</ele><time>2026-05-02T16:10:13.907Z</time></trkpt><trkpt lat="42.2747752" lon="13.2435801"><ele>1191.75</ele><time>2026-05-02T16:10:14.908Z</time></trkpt><trkpt lat="42.2748864" lon="13.243668"><ele>1195.5</ele><time>2026-05-02T16:10:15.907Z</time></trkpt><trkpt lat="42.2749971" lon="13.2437644"><ele>1199.25</ele><time>2026-05-02T16:10:16.907Z</time></trkpt><trkpt lat="42.2751202" lon="13.2438608"><ele>1203.0</ele><time>2026-05-02T16:10:17.908Z</time></trkpt><trkpt lat="42.2752466" lon="13.2439548"><ele>1202.25</ele><time>2026-05-02T16:10:18.908Z</time></trkpt><trkpt lat="42.2753797" lon="13.2440475"><ele>1201.5</ele><time>2026-05-02T16:10:19.907Z</time></trkpt><trkpt lat="42.2755014" lon="13.2441476"><ele>1200.75</ele><time>2026-05-02T16:10:20.908Z</time></trkpt><trkpt lat="42.2756136" lon="13.2442523"><ele>1200.0</ele><time>2026-05-02T16:10:21.908Z</time></trkpt><trkpt lat="42.2757207" lon="13.2443386"><ele>1202.25</ele><time>2026-05-02T16:10:22.907Z</time></trkpt><trkpt lat="42.2758349" lon="13.2444097"><ele>1204.5</ele><time>2026-05-02T16:10:23.907Z</time></trkpt><trkpt lat="42.275955" lon="13.2444614"><ele>1206.75</ele><time>2026-05-02T16:10:24.907Z</time></trkpt><trkpt lat="42.2760733" lon="13.2444994"><ele>1209.0</ele><time>2026-05-02T16:10:25.908Z</time></trkpt><trkpt lat="42.2761914" lon="13.2445414"><ele>1209.0</ele><time>2026-05-02T16:10:26.908Z</time></trkpt><trkpt lat="42.2762909" lon="13.2445865"><ele>1209.0</ele><time>2026-05-02T16:10:27.909Z</time></trkpt><trkpt lat="42.2763813" lon="13.2446555"><ele>1209.0</ele><time>2026-05-02T16:10:28.907Z</time></trkpt><trkpt lat="42.2764848" lon="13.2447534"><ele>1209.0</ele><time>2026-05-02T16:10:29.908Z</time></trkpt><trkpt lat="42.2765852" lon="13.2448495"><ele>1209.8</ele><time>2026-05-02T16:10:30.907Z</time></trkpt><trkpt lat="42.2766686" lon="13.2449349"><ele>1210.6000000000001</ele><time>2026-05-02T16:10:31.908Z</time></trkpt><trkpt lat="42.2767385" lon="13.2450118"><ele>1211.4</ele><time>2026-05-02T16:10:32.909Z</time></trkpt><trkpt lat="42.276848" lon="13.2450929"><ele>1212.2</ele><time>2026-05-02T16:10:34.907Z</time></trkpt><trkpt lat="42.2769418" lon="13.2451534"><ele>1213.0</ele><time>2026-05-02T16:10:35.907Z</time></trkpt><trkpt lat="42.2770438" lon="13.2452142"><ele>1213.0</ele><time>2026-05-02T16:10:36.907Z</time></trkpt><trkpt lat="42.2771469" lon="13.2452738"><ele>1213.0</ele><time>2026-05-02T16:10:37.908Z</time></trkpt><trkpt lat="42.2772283" lon="13.2453215"><ele>1213.0</ele><time>2026-05-02T16:10:38.907Z</time></trkpt><trkpt lat="42.2772941" lon="13.2453787"><ele>1213.0</ele><time>2026-05-02T16:10:39.907Z</time></trkpt><trkpt lat="42.2773497" lon="13.2454684"><ele>1213.0</ele><time>2026-05-02T16:10:40.908Z</time></trkpt><trkpt lat="42.2774025" lon="13.2455587"><ele>1211.6666666666665</ele><time>2026-05-02T16:10:41.907Z</time></trkpt><trkpt lat="42.2774542" lon="13.2456531"><ele>1210.3333333333333</ele><time>2026-05-02T16:10:42.908Z</time></trkpt><trkpt lat="42.2775092" lon="13.2457323"><ele>1209.0</ele><time>2026-05-02T16:10:43.907Z</time></trkpt><trkpt lat="42.2775702" lon="13.2457898"><ele>1207.6666666666667</ele><time>2026-05-02T16:10:44.907Z</time></trkpt><trkpt lat="42.2776519" lon="13.2458236"><ele>1206.3333333333335</ele><time>2026-05-02T16:10:45.907Z</time></trkpt><trkpt lat="42.2777177" lon="13.2458531"><ele>1205.0</ele><time>2026-05-02T16:10:46.907Z</time></trkpt><trkpt lat="42.277811" lon="13.2458729"><ele>1205.0</ele><time>2026-05-02T16:10:47.907Z</time></trkpt><trkpt lat="42.2779036" lon="13.2458856"><ele>1205.0</ele><time>2026-05-02T16:10:48.907Z</time></trkpt><trkpt lat="42.2780069" lon="13.2458863"><ele>1205.0</ele><time>2026-05-02T16:10:49.907Z</time></trkpt><trkpt lat="42.2781279" lon="13.2458996"><ele>1205.0</ele><time>2026-05-02T16:10:50.908Z</time></trkpt><trkpt lat="42.2782454" lon="13.2459083"><ele>1205.0</ele><time>2026-05-02T16:10:51.907Z</time></trkpt><trkpt lat="42.2783587" lon="13.2459113"><ele>1202.0</ele><time>2026-05-02T16:10:52.908Z</time></trkpt><trkpt lat="42.2784701" lon="13.2458916"><ele>1199.0</ele><time>2026-05-02T16:10:53.908Z</time></trkpt><trkpt lat="42.2785816" lon="13.2458527"><ele>1196.0</ele><time>2026-05-02T16:10:54.906Z</time></trkpt><trkpt lat="42.27869" lon="13.245803"><ele>1193.0</ele><time>2026-05-02T16:10:55.909Z</time></trkpt><trkpt lat="42.2788005" lon="13.2457427"><ele>1193.0</ele><time>2026-05-02T16:10:56.907Z</time></trkpt><trkpt lat="42.2789223" lon="13.2456913"><ele>1193.0</ele><time>2026-05-02T16:10:57.908Z</time></trkpt><trkpt lat="42.2790465" lon="13.2456446"><ele>1193.0</ele><time>2026-05-02T16:10:58.907Z</time></trkpt><trkpt lat="42.2791729" lon="13.245611"><ele>1193.0</ele><time>2026-05-02T16:10:59.907Z</time></trkpt><trkpt lat="42.2792906" lon="13.2455726"><ele>1192.75</ele><time>2026-05-02T16:11:00.908Z</time></trkpt><trkpt lat="42.2794167" lon="13.245527"><ele>1192.5</ele><time>2026-05-02T16:11:01.908Z</time></trkpt><trkpt lat="42.2795471" lon="13.2454769"><ele>1192.25</ele><time>2026-05-02T16:11:02.907Z</time></trkpt><trkpt lat="42.2796757" lon="13.24542"><ele>1192.0</ele><time>2026-05-02T16:11:03.908Z</time></trkpt><trkpt lat="42.2798077" lon="13.2453537"><ele>1192.0</ele><time>2026-05-02T16:11:04.906Z</time></trkpt><trkpt lat="42.2799337" lon="13.2452827"><ele>1192.0</ele><time>2026-05-02T16:11:05.908Z</time></trkpt><trkpt lat="42.2800564" lon="13.2452002"><ele>1192.0</ele><time>2026-05-02T16:11:06.907Z</time></trkpt><trkpt lat="42.280173" lon="13.2451117"><ele>1192.0</ele><time>2026-05-02T16:11:07.907Z</time></trkpt><trkpt lat="42.2802805" lon="13.2450147"><ele>1192.0</ele><time>2026-05-02T16:11:08.907Z</time></trkpt><trkpt lat="42.280388" lon="13.2449183"><ele>1192.0</ele><time>2026-05-02T16:11:09.909Z</time></trkpt><trkpt lat="42.2804975" lon="13.2448352"><ele>1192.0</ele><time>2026-05-02T16:11:10.907Z</time></trkpt><trkpt lat="42.2806173" lon="13.2447589"><ele>1192.0</ele><time>2026-05-02T16:11:11.908Z</time></trkpt><trkpt lat="42.280738" lon="13.2446992"><ele>1192.75</ele><time>2026-05-02T16:11:12.907Z</time></trkpt><trkpt lat="42.2808624" lon="13.2446455"><ele>1193.5</ele><time>2026-05-02T16:11:13.908Z</time></trkpt><trkpt lat="42.281003" lon="13.2445867"><ele>1194.25</ele><time>2026-05-02T16:11:14.906Z</time></trkpt><trkpt lat="42.2811282" lon="13.2445297"><ele>1195.0</ele><time>2026-05-02T16:11:15.906Z</time></trkpt><trkpt lat="42.2812423" lon="13.2444948"><ele>1195.0</ele><time>2026-05-02T16:11:16.908Z</time></trkpt><trkpt lat="42.2813401" lon="13.244479"><ele>1195.0</ele><time>2026-05-02T16:11:17.907Z</time></trkpt><trkpt lat="42.2814552" lon="13.2444958"><ele>1195.0</ele><time>2026-05-02T16:11:18.909Z</time></trkpt><trkpt lat="42.2815794" lon="13.2445315"><ele>1195.0</ele><time>2026-05-02T16:11:19.906Z</time></trkpt><trkpt lat="42.2817113" lon="13.2445779"><ele>1193.4</ele><time>2026-05-02T16:11:20.907Z</time></trkpt><trkpt lat="42.2818365" lon="13.2446179"><ele>1191.8</ele><time>2026-05-02T16:11:21.907Z</time></trkpt><trkpt lat="42.2819524" lon="13.2446535"><ele>1190.2</ele><time>2026-05-02T16:11:22.908Z</time></trkpt><trkpt lat="42.2820583" lon="13.2446703"><ele>1188.6</ele><time>2026-05-02T16:11:23.907Z</time></trkpt><trkpt lat="42.2821488" lon="13.2446626"><ele>1187.0</ele><time>2026-05-02T16:11:24.906Z</time></trkpt><trkpt lat="42.2822205" lon="13.2446248"><ele>1186.0</ele><time>2026-05-02T16:11:25.907Z</time></trkpt><trkpt lat="42.2822711" lon="13.2445641"><ele>1185.0</ele><time>2026-05-02T16:11:26.906Z</time></trkpt><trkpt lat="42.2823088" lon="13.2444739"><ele>1184.0</ele><time>2026-05-02T16:11:27.908Z</time></trkpt><trkpt lat="42.2823428" lon="13.244358"><ele>1183.0</ele><time>2026-05-02T16:11:28.907Z</time></trkpt><trkpt lat="42.2823799" lon="13.244234"><ele>1182.0</ele><time>2026-05-02T16:11:29.908Z</time></trkpt><trkpt lat="42.2824405" lon="13.2441064"><ele>1181.0</ele><time>2026-05-02T16:11:30.907Z</time></trkpt><trkpt lat="42.2825264" lon="13.2439704"><ele>1182.5</ele><time>2026-05-02T16:11:31.909Z</time></trkpt><trkpt lat="42.2826321" lon="13.2438411"><ele>1184.0</ele><time>2026-05-02T16:11:32.907Z</time></trkpt><trkpt lat="42.2827305" lon="13.24372"><ele>1185.5</ele><time>2026-05-02T16:11:33.909Z</time></trkpt><trkpt lat="42.2828173" lon="13.2436236"><ele>1187.0</ele><time>2026-05-02T16:11:34.909Z</time></trkpt><trkpt lat="42.282887" lon="13.2435316"><ele>1187.0</ele><time>2026-05-02T16:11:35.906Z</time></trkpt><trkpt lat="42.2829469" lon="13.2434272"><ele>1187.0</ele><time>2026-05-02T16:11:36.908Z</time></trkpt><trkpt lat="42.2829953" lon="13.2432907"><ele>1187.0</ele><time>2026-05-02T16:11:37.909Z</time></trkpt><trkpt lat="42.2830181" lon="13.24314"><ele>1187.0</ele><time>2026-05-02T16:11:38.906Z</time></trkpt><trkpt lat="42.2830161" lon="13.2429807"><ele>1187.0</ele><time>2026-05-02T16:11:39.908Z</time></trkpt><trkpt lat="42.2829864" lon="13.2428179"><ele>1185.75</ele><time>2026-05-02T16:11:40.907Z</time></trkpt><trkpt lat="42.2829422" lon="13.2426381"><ele>1184.5</ele><time>2026-05-02T16:11:41.907Z</time></trkpt><trkpt lat="42.2828959" lon="13.2424446"><ele>1183.25</ele><time>2026-05-02T16:11:42.908Z</time></trkpt><trkpt lat="42.2828566" lon="13.2422737"><ele>1182.0</ele><time>2026-05-02T16:11:43.908Z</time></trkpt><trkpt lat="42.2828359" lon="13.2421271"><ele>1182.5</ele><time>2026-05-02T16:11:44.907Z</time></trkpt><trkpt lat="42.2828328" lon="13.2420002"><ele>1183.0</ele><time>2026-05-02T16:11:45.908Z</time></trkpt><trkpt lat="42.2828501" lon="13.2419029"><ele>1183.5</ele><time>2026-05-02T16:11:46.909Z</time></trkpt><trkpt lat="42.2828881" lon="13.2418345"><ele>1184.0</ele><time>2026-05-02T16:11:47.906Z</time></trkpt><trkpt lat="42.2829809" lon="13.2417962"><ele>1184.5</ele><time>2026-05-02T16:11:49.907Z</time></trkpt><trkpt lat="42.2830932" lon="13.2418365"><ele>1185.0</ele><time>2026-05-02T16:11:51.907Z</time></trkpt><trkpt lat="42.283196" lon="13.2418418"><ele>1185.0</ele><time>2026-05-02T16:11:52.907Z</time></trkpt><trkpt lat="42.2833102" lon="13.2418544"><ele>1185.0</ele><time>2026-05-02T16:11:53.907Z</time></trkpt><trkpt lat="42.283436" lon="13.2418731"><ele>1185.0</ele><time>2026-05-02T16:11:54.908Z</time></trkpt><trkpt lat="42.2835695" lon="13.241888"><ele>1185.0</ele><time>2026-05-02T16:11:55.907Z</time></trkpt><trkpt lat="42.2836999" lon="13.2418844"><ele>1185.0</ele><time>2026-05-02T16:11:56.908Z</time></trkpt><trkpt lat="42.2838157" lon="13.2418511"><ele>1185.0</ele><time>2026-05-02T16:11:57.907Z</time></trkpt><trkpt lat="42.2839096" lon="13.2417934"><ele>1185.0</ele><time>2026-05-02T16:11:58.908Z</time></trkpt><trkpt lat="42.2839814" lon="13.2417251"><ele>1185.0</ele><time>2026-05-02T16:11:59.908Z</time></trkpt><trkpt lat="42.2840399" lon="13.2416613"><ele>1185.0</ele><time>2026-05-02T16:12:00.907Z</time></trkpt><trkpt lat="42.2841111" lon="13.241599"><ele>1186.0</ele><time>2026-05-02T16:12:01.908Z</time></trkpt><trkpt lat="42.2842039" lon="13.2415336"><ele>1187.0</ele><time>2026-05-02T16:12:02.907Z</time></trkpt><trkpt lat="42.2843081" lon="13.2414509"><ele>1188.0</ele><time>2026-05-02T16:12:03.906Z</time></trkpt><trkpt lat="42.2844196" lon="13.241358"><ele>1189.0</ele><time>2026-05-02T16:12:04.908Z</time></trkpt><trkpt lat="42.284537" lon="13.2412646"><ele>1189.5</ele><time>2026-05-02T16:12:05.907Z</time></trkpt><trkpt lat="42.2846532" lon="13.2411642"><ele>1190.0</ele><time>2026-05-02T16:12:06.908Z</time></trkpt><trkpt lat="42.28476" lon="13.2410387"><ele>1190.5</ele><time>2026-05-02T16:12:07.907Z</time></trkpt><trkpt lat="42.2848526" lon="13.2408969"><ele>1191.0</ele><time>2026-05-02T16:12:08.906Z</time></trkpt><trkpt lat="42.2849533" lon="13.2407589"><ele>1199.3333333333333</ele><time>2026-05-02T16:12:09.907Z</time></trkpt><trkpt lat="42.2850639" lon="13.2406291"><ele>1207.6666666666665</ele><time>2026-05-02T16:12:10.908Z</time></trkpt><trkpt lat="42.2851831" lon="13.2405085"><ele>1216.0</ele><time>2026-05-02T16:12:11.908Z</time></trkpt><trkpt lat="42.2853186" lon="13.2403963"><ele>1216.0</ele><time>2026-05-02T16:12:12.906Z</time></trkpt><trkpt lat="42.2854696" lon="13.2403039"><ele>1216.0</ele><time>2026-05-02T16:12:13.907Z</time></trkpt><trkpt lat="42.2856235" lon="13.2402144"><ele>1216.0</ele><time>2026-05-02T16:12:14.908Z</time></trkpt><trkpt lat="42.2857776" lon="13.2401102"><ele>1213.3333333333333</ele><time>2026-05-02T16:12:15.907Z</time></trkpt><trkpt lat="42.2859308" lon="13.2400076"><ele>1210.6666666666667</ele><time>2026-05-02T16:12:16.907Z</time></trkpt><trkpt lat="42.286096" lon="13.2399209"><ele>1208.0</ele><time>2026-05-02T16:12:17.907Z</time></trkpt><trkpt lat="42.2862623" lon="13.2398357"><ele>1215.0</ele><time>2026-05-02T16:12:18.907Z</time></trkpt><trkpt lat="42.2864169" lon="13.2397418"><ele>1222.0</ele><time>2026-05-02T16:12:19.907Z</time></trkpt><trkpt lat="42.2865718" lon="13.2396593"><ele>1229.0</ele><time>2026-05-02T16:12:20.907Z</time></trkpt><trkpt lat="42.2867145" lon="13.2396149"><ele>1229.0</ele><time>2026-05-02T16:12:21.907Z</time></trkpt><trkpt lat="42.2868619" lon="13.2396124"><ele>1229.0</ele><time>2026-05-02T16:12:22.907Z</time></trkpt><trkpt lat="42.287014" lon="13.2396344"><ele>1229.0</ele><time>2026-05-02T16:12:23.907Z</time></trkpt><trkpt lat="42.2871694" lon="13.2396284"><ele>1227.75</ele><time>2026-05-02T16:12:24.908Z</time></trkpt><trkpt lat="42.2873176" lon="13.2396043"><ele>1226.5</ele><time>2026-05-02T16:12:25.908Z</time></trkpt><trkpt lat="42.2874537" lon="13.2396141"><ele>1225.25</ele><time>2026-05-02T16:12:26.906Z</time></trkpt><trkpt lat="42.2875881" lon="13.2396576"><ele>1224.0</ele><time>2026-05-02T16:12:27.907Z</time></trkpt><trkpt lat="42.287695" lon="13.2397704"><ele>1224.0</ele><time>2026-05-02T16:12:28.908Z</time></trkpt><trkpt lat="42.2878171" lon="13.2398331"><ele>1224.0</ele><time>2026-05-02T16:12:29.908Z</time></trkpt><trkpt lat="42.2879375" lon="13.2398385"><ele>1224.0</ele><time>2026-05-02T16:12:30.907Z</time></trkpt><trkpt lat="42.288053" lon="13.2397938"><ele>1224.0</ele><time>2026-05-02T16:12:31.908Z</time></trkpt><trkpt lat="42.2881772" lon="13.2397293"><ele>1226.0</ele><time>2026-05-02T16:12:32.908Z</time></trkpt><trkpt lat="42.2883278" lon="13.2396307"><ele>1228.0</ele><time>2026-05-02T16:12:33.907Z</time></trkpt><trkpt lat="42.2884729" lon="13.2395597"><ele>1230.0</ele><time>2026-05-02T16:12:34.907Z</time></trkpt><trkpt lat="42.2886421" lon="13.2394873"><ele>1230.0</ele><time>2026-05-02T16:12:35.907Z</time></trkpt><trkpt lat="42.288813" lon="13.2394204"><ele>1230.0</ele><time>2026-05-02T16:12:36.906Z</time></trkpt><trkpt lat="42.2889939" lon="13.2393465"><ele>1230.0</ele><time>2026-05-02T16:12:37.907Z</time></trkpt><trkpt lat="42.2891689" lon="13.239299"><ele>1229.3333333333333</ele><time>2026-05-02T16:12:38.908Z</time></trkpt><trkpt lat="42.289343" lon="13.2392916"><ele>1228.6666666666665</ele><time>2026-05-02T16:12:39.908Z</time></trkpt><trkpt lat="42.2895136" lon="13.2393123"><ele>1228.0</ele><time>2026-05-02T16:12:40.907Z</time></trkpt><trkpt lat="42.289675" lon="13.2393133"><ele>1229.0</ele><time>2026-05-02T16:12:41.908Z</time></trkpt><trkpt lat="42.2898328" lon="13.2392691"><ele>1230.0</ele><time>2026-05-02T16:12:42.908Z</time></trkpt><trkpt lat="42.2899765" lon="13.2392156"><ele>1231.0</ele><time>2026-05-02T16:12:43.908Z</time></trkpt><trkpt lat="42.2901093" lon="13.2391722"><ele>1232.0</ele><time>2026-05-02T16:12:44.907Z</time></trkpt><trkpt lat="42.2902457" lon="13.239175"><ele>1232.0</ele><time>2026-05-02T16:12:45.908Z</time></trkpt><trkpt lat="42.2903789" lon="13.2392138"><ele>1232.0</ele><time>2026-05-02T16:12:46.907Z</time></trkpt><trkpt lat="42.2905129" lon="13.2392627"><ele>1232.0</ele><time>2026-05-02T16:12:47.908Z</time></trkpt><trkpt lat="42.2906508" lon="13.2392769"><ele>1232.0</ele><time>2026-05-02T16:12:48.908Z</time></trkpt><trkpt lat="42.2907843" lon="13.2392504"><ele>1232.3333333333335</ele><time>2026-05-02T16:12:49.907Z</time></trkpt><trkpt lat="42.2909226" lon="13.2391759"><ele>1232.6666666666667</ele><time>2026-05-02T16:12:50.909Z</time></trkpt><trkpt lat="42.2910707" lon="13.2390795"><ele>1233.0</ele><time>2026-05-02T16:12:51.907Z</time></trkpt><trkpt lat="42.2912334" lon="13.2390071"><ele>1243.3333333333333</ele><time>2026-05-02T16:12:52.906Z</time></trkpt><trkpt lat="42.2914105" lon="13.2389547"><ele>1253.6666666666665</ele><time>2026-05-02T16:12:53.908Z</time></trkpt><trkpt lat="42.2916032" lon="13.2389132"><ele>1264.0</ele><time>2026-05-02T16:12:54.908Z</time></trkpt><trkpt lat="42.2918042" lon="13.2388488"><ele>1264.0</ele><time>2026-05-02T16:12:55.908Z</time></trkpt><trkpt lat="42.2920042" lon="13.2387708"><ele>1264.0</ele><time>2026-05-02T16:12:56.907Z</time></trkpt><trkpt lat="42.2922136" lon="13.2387092"><ele>1264.0</ele><time>2026-05-02T16:12:57.907Z</time></trkpt><trkpt lat="42.2924314" lon="13.2386765"><ele>1262.3333333333333</ele><time>2026-05-02T16:12:58.908Z</time></trkpt><trkpt lat="42.2926442" lon="13.2386441"><ele>1260.6666666666667</ele><time>2026-05-02T16:12:59.908Z</time></trkpt><trkpt lat="42.2928521" lon="13.2385813"><ele>1259.0</ele><time>2026-05-02T16:13:00.907Z</time></trkpt><trkpt lat="42.2930503" lon="13.2384766"><ele>1255.3333333333335</ele><time>2026-05-02T16:13:01.907Z</time></trkpt><trkpt lat="42.2932362" lon="13.2383482"><ele>1251.6666666666667</ele><time>2026-05-02T16:13:02.908Z</time></trkpt><trkpt lat="42.2934233" lon="13.2382297"><ele>1248.0</ele><time>2026-05-02T16:13:03.907Z</time></trkpt><trkpt lat="42.2936084" lon="13.2381263"><ele>1254.6666666666667</ele><time>2026-05-02T16:13:04.908Z</time></trkpt><trkpt lat="42.2937858" lon="13.2380215"><ele>1261.3333333333335</ele><time>2026-05-02T16:13:05.909Z</time></trkpt><trkpt lat="42.2939613" lon="13.2379181"><ele>1268.0</ele><time>2026-05-02T16:13:06.908Z</time></trkpt><trkpt lat="42.2941394" lon="13.2378148"><ele>1268.0</ele><time>2026-05-02T16:13:07.907Z</time></trkpt><trkpt lat="42.2943169" lon="13.2377094"><ele>1268.0</ele><time>2026-05-02T16:13:08.908Z</time></trkpt><trkpt lat="42.2944825" lon="13.2375946"><ele>1268.0</ele><time>2026-05-02T16:13:09.907Z</time></trkpt><trkpt lat="42.2946561" lon="13.2375005"><ele>1265.0</ele><time>2026-05-02T16:13:10.907Z</time></trkpt><trkpt lat="42.2948356" lon="13.2374346"><ele>1262.0</ele><time>2026-05-02T16:13:11.909Z</time></trkpt><trkpt lat="42.2950275" lon="13.237385"><ele>1259.0</ele><time>2026-05-02T16:13:12.908Z</time></trkpt><trkpt lat="42.2952216" lon="13.2373454"><ele>1259.0</ele><time>2026-05-02T16:13:13.906Z</time></trkpt><trkpt lat="42.2954105" lon="13.237304"><ele>1259.0</ele><time>2026-05-02T16:13:14.909Z</time></trkpt><trkpt lat="42.2956002" lon="13.2372596"><ele>1259.0</ele><time>2026-05-02T16:13:15.907Z</time></trkpt><trkpt lat="42.2957889" lon="13.2372164"><ele>1271.0</ele><time>2026-05-02T16:13:16.908Z</time></trkpt><trkpt lat="42.2959724" lon="13.2371791"><ele>1283.0</ele><time>2026-05-02T16:13:17.906Z</time></trkpt><trkpt lat="42.2961546" lon="13.2371419"><ele>1295.0</ele><time>2026-05-02T16:13:18.909Z</time></trkpt><trkpt lat="42.2963384" lon="13.2371099"><ele>1292.3333333333335</ele><time>2026-05-02T16:13:19.907Z</time></trkpt><trkpt lat="42.2965204" lon="13.2370905"><ele>1289.6666666666667</ele><time>2026-05-02T16:13:20.908Z</time></trkpt><trkpt lat="42.2966966" lon="13.2370906"><ele>1287.0</ele><time>2026-05-02T16:13:21.907Z</time></trkpt><trkpt lat="42.2968728" lon="13.2371094"><ele>1287.0</ele><time>2026-05-02T16:13:22.908Z</time></trkpt><trkpt lat="42.2970552" lon="13.2371406"><ele>1287.0</ele><time>2026-05-02T16:13:23.907Z</time></trkpt><trkpt lat="42.2972336" lon="13.2371757"><ele>1287.0</ele><time>2026-05-02T16:13:24.909Z</time></trkpt><trkpt lat="42.297414" lon="13.2372109"><ele>1289.3333333333333</ele><time>2026-05-02T16:13:25.907Z</time></trkpt><trkpt lat="42.2975841" lon="13.2372617"><ele>1291.6666666666665</ele><time>2026-05-02T16:13:26.908Z</time></trkpt><trkpt lat="42.2977501" lon="13.237315"><ele>1294.0</ele><time>2026-05-02T16:13:27.907Z</time></trkpt><trkpt lat="42.2979067" lon="13.2373718"><ele>1288.3333333333333</ele><time>2026-05-02T16:13:28.907Z</time></trkpt><trkpt lat="42.2980553" lon="13.2374378"><ele>1282.6666666666667</ele><time>2026-05-02T16:13:29.908Z</time></trkpt><trkpt lat="42.2981972" lon="13.2375184"><ele>1277.0</ele><time>2026-05-02T16:13:30.908Z</time></trkpt><trkpt lat="42.29832" lon="13.2376248"><ele>1277.0</ele><time>2026-05-02T16:13:31.908Z</time></trkpt><trkpt lat="42.2984317" lon="13.2377478"><ele>1277.0</ele><time>2026-05-02T16:13:32.908Z</time></trkpt><trkpt lat="42.2985408" lon="13.2378637"><ele>1277.0</ele><time>2026-05-02T16:13:33.908Z</time></trkpt><trkpt lat="42.2986633" lon="13.2379317"><ele>1277.0</ele><time>2026-05-02T16:13:34.907Z</time></trkpt><trkpt lat="42.298779" lon="13.2379703"><ele>1277.0</ele><time>2026-05-02T16:13:35.908Z</time></trkpt><trkpt lat="42.298899" lon="13.2379596"><ele>1277.0</ele><time>2026-05-02T16:13:36.909Z</time></trkpt><trkpt lat="42.2990244" lon="13.2379091"><ele>1277.0</ele><time>2026-05-02T16:13:37.907Z</time></trkpt><trkpt lat="42.2991584" lon="13.2378519"><ele>1277.0</ele><time>2026-05-02T16:13:38.909Z</time></trkpt><trkpt lat="42.2993007" lon="13.2378074"><ele>1276.75</ele><time>2026-05-02T16:13:39.907Z</time></trkpt><trkpt lat="42.2994467" lon="13.2377853"><ele>1276.5</ele><time>2026-05-02T16:13:40.907Z</time></trkpt><trkpt lat="42.2995878" lon="13.237793"><ele>1276.25</ele><time>2026-05-02T16:13:41.908Z</time></trkpt><trkpt lat="42.2997232" lon="13.2378323"><ele>1276.0</ele><time>2026-05-02T16:13:42.908Z</time></trkpt><trkpt lat="42.2998543" lon="13.2378933"><ele>1276.0</ele><time>2026-05-02T16:13:43.907Z</time></trkpt><trkpt lat="42.2999929" lon="13.2379383"><ele>1276.0</ele><time>2026-05-02T16:13:44.907Z</time></trkpt><trkpt lat="42.3001402" lon="13.2379531"><ele>1276.0</ele><time>2026-05-02T16:13:45.908Z</time></trkpt><trkpt lat="42.3002909" lon="13.2379367"><ele>1276.0</ele><time>2026-05-02T16:13:46.907Z</time></trkpt><trkpt lat="42.3004446" lon="13.2378922"><ele>1276.3333333333333</ele><time>2026-05-02T16:13:47.907Z</time></trkpt><trkpt lat="42.3005957" lon="13.2378215"><ele>1276.6666666666667</ele><time>2026-05-02T16:13:48.907Z</time></trkpt><trkpt lat="42.3007482" lon="13.2377536"><ele>1277.0</ele><time>2026-05-02T16:13:49.908Z</time></trkpt><trkpt lat="42.3009" lon="13.2376972"><ele>1277.0</ele><time>2026-05-02T16:13:50.907Z</time></trkpt><trkpt lat="42.3010452" lon="13.2376779"><ele>1277.0</ele><time>2026-05-02T16:13:51.907Z</time></trkpt><trkpt lat="42.3011911" lon="13.2376908"><ele>1277.0</ele><time>2026-05-02T16:13:52.908Z</time></trkpt><trkpt lat="42.3013469" lon="13.2377067"><ele>1277.0</ele><time>2026-05-02T16:13:53.908Z</time></trkpt><trkpt lat="42.3015098" lon="13.2377201"><ele>1275.3333333333335</ele><time>2026-05-02T16:13:54.907Z</time></trkpt><trkpt lat="42.3016773" lon="13.2377317"><ele>1273.6666666666667</ele><time>2026-05-02T16:13:55.908Z</time></trkpt><trkpt lat="42.3018425" lon="13.2377321"><ele>1272.0</ele><time>2026-05-02T16:13:56.907Z</time></trkpt><trkpt lat="42.3020077" lon="13.2377198"><ele>1272.0</ele><time>2026-05-02T16:13:57.908Z</time></trkpt><trkpt lat="42.3021667" lon="13.2377003"><ele>1272.0</ele><time>2026-05-02T16:13:58.908Z</time></trkpt><trkpt lat="42.3023095" lon="13.2376759"><ele>1272.0</ele><time>2026-05-02T16:13:59.908Z</time></trkpt><trkpt lat="42.3024501" lon="13.2376546"><ele>1272.0</ele><time>2026-05-02T16:14:00.908Z</time></trkpt><trkpt lat="42.3025997" lon="13.2376586"><ele>1272.3333333333333</ele><time>2026-05-02T16:14:01.907Z</time></trkpt><trkpt lat="42.302752" lon="13.2376997"><ele>1272.6666666666665</ele><time>2026-05-02T16:14:02.909Z</time></trkpt><trkpt lat="42.3029022" lon="13.2377674"><ele>1273.0</ele><time>2026-05-02T16:14:03.907Z</time></trkpt><trkpt lat="42.3030487" lon="13.237836"><ele>1273.3333333333333</ele><time>2026-05-02T16:14:04.908Z</time></trkpt><trkpt lat="42.3031976" lon="13.2378984"><ele>1273.6666666666667</ele><time>2026-05-02T16:14:05.907Z</time></trkpt><trkpt lat="42.3033453" lon="13.237959"><ele>1274.0</ele><time>2026-05-02T16:14:06.907Z</time></trkpt><trkpt lat="42.3034762" lon="13.238032"><ele>1274.0</ele><time>2026-05-02T16:14:07.908Z</time></trkpt><trkpt lat="42.3035672" lon="13.2381132"><ele>1274.0</ele><time>2026-05-02T16:14:08.908Z</time></trkpt><trkpt lat="42.3036199" lon="13.2381928"><ele>1274.0</ele><time>2026-05-02T16:14:09.908Z</time></trkpt><trkpt lat="42.3036491" lon="13.2382707"><ele>1274.0</ele><time>2026-05-02T16:14:10.908Z</time></trkpt><trkpt lat="42.3035995" lon="13.238164"><ele>1274.0</ele><time>2026-05-02T16:14:16.906Z</time></trkpt><trkpt lat="42.3035428" lon="13.2381026"><ele>1274.0</ele><time>2026-05-02T16:14:17.907Z</time></trkpt><trkpt lat="42.3034718" lon="13.23803"><ele>1274.0</ele><time>2026-05-02T16:14:18.908Z</time></trkpt><trkpt lat="42.3033705" lon="13.2379513"><ele>1274.0</ele><time>2026-05-02T16:14:19.908Z</time></trkpt><trkpt lat="42.303207" lon="13.2378917"><ele>1274.0</ele><time>2026-05-02T16:14:20.908Z</time></trkpt><trkpt lat="42.3030721" lon="13.2378289"><ele>1274.0</ele><time>2026-05-02T16:14:21.908Z</time></trkpt><trkpt lat="42.3029377" lon="13.237769"><ele>1273.75</ele><time>2026-05-02T16:14:22.907Z</time></trkpt><trkpt lat="42.302806" lon="13.237707"><ele>1273.5</ele><time>2026-05-02T16:14:23.908Z</time></trkpt><trkpt lat="42.302681" lon="13.2376623"><ele>1273.25</ele><time>2026-05-02T16:14:24.907Z</time></trkpt><trkpt lat="42.3025644" lon="13.2376335"><ele>1273.0</ele><time>2026-05-02T16:14:25.908Z</time></trkpt><trkpt lat="42.3024632" lon="13.2376223"><ele>1273.0</ele><time>2026-05-02T16:14:26.907Z</time></trkpt><trkpt lat="42.3023697" lon="13.2376358"><ele>1273.0</ele><time>2026-05-02T16:14:27.907Z</time></trkpt><trkpt lat="42.3023004" lon="13.237651"><ele>1273.0</ele><time>2026-05-02T16:14:28.908Z</time></trkpt><trkpt lat="42.3022292" lon="13.2377249"><ele>1273.0</ele><time>2026-05-02T16:14:30.909Z</time></trkpt><trkpt lat="42.3023021" lon="13.2378311"><ele>1273.0</ele><time>2026-05-02T16:14:33.907Z</time></trkpt><trkpt lat="42.3024033" lon="13.2379124"><ele>1273.0</ele><time>2026-05-02T16:14:35.908Z</time></trkpt><trkpt lat="42.3024727" lon="13.2380392"><ele>1273.0</ele><time>2026-05-02T16:14:37.908Z</time></trkpt><trkpt lat="42.3025301" lon="13.2382039"><ele>1273.0</ele><time>2026-05-02T16:14:39.908Z</time></trkpt><trkpt lat="42.3025645" lon="13.2382996"><ele>1273.0</ele><time>2026-05-02T16:14:40.908Z</time></trkpt><trkpt lat="42.302629" lon="13.2383758"><ele>1273.0</ele><time>2026-05-02T16:14:41.907Z</time></trkpt><trkpt lat="42.3026966" lon="13.23847"><ele>1272.0</ele><time>2026-05-02T16:14:42.907Z</time></trkpt><trkpt lat="42.3027678" lon="13.2385472"><ele>1271.0</ele><time>2026-05-02T16:14:43.906Z</time></trkpt><trkpt lat="42.3028791" lon="13.238618"><ele>1270.0</ele><time>2026-05-02T16:14:44.909Z</time></trkpt><trkpt lat="42.3029759" lon="13.2386874"><ele>1269.0</ele><time>2026-05-02T16:14:45.907Z</time></trkpt><trkpt lat="42.3030672" lon="13.2387402"><ele>1268.0</ele><time>2026-05-02T16:14:46.908Z</time></trkpt><trkpt lat="42.3031505" lon="13.2387968"><ele>1268.0</ele><time>2026-05-02T16:14:47.907Z</time></trkpt><trkpt lat="42.3032323" lon="13.2388695"><ele>1268.0</ele><time>2026-05-02T16:14:48.907Z</time></trkpt><trkpt lat="42.3033161" lon="13.2389555"><ele>1268.0</ele><time>2026-05-02T16:14:49.908Z</time></trkpt><trkpt lat="42.3034036" lon="13.2390511"><ele>1268.0</ele><time>2026-05-02T16:14:50.907Z</time></trkpt><trkpt lat="42.3034919" lon="13.239147"><ele>1268.0</ele><time>2026-05-02T16:14:51.908Z</time></trkpt><trkpt lat="42.3035861" lon="13.2392486"><ele>1268.8</ele><time>2026-05-02T16:14:52.908Z</time></trkpt><trkpt lat="42.3036714" lon="13.2393294"><ele>1269.6</ele><time>2026-05-02T16:14:53.907Z</time></trkpt><trkpt lat="42.3037516" lon="13.2394116"><ele>1270.4</ele><time>2026-05-02T16:14:54.908Z</time></trkpt><trkpt lat="42.3038188" lon="13.2394878"><ele>1271.2</ele><time>2026-05-02T16:14:55.907Z</time></trkpt><trkpt lat="42.303875" lon="13.2395718"><ele>1272.0</ele><time>2026-05-02T16:14:56.908Z</time></trkpt><trkpt lat="42.3039144" lon="13.239677"><ele>1272.0</ele><time>2026-05-02T16:14:57.907Z</time></trkpt><trkpt lat="42.3039374" lon="13.2397891"><ele>1272.0</ele><time>2026-05-02T16:14:58.909Z</time></trkpt><trkpt lat="42.3039537" lon="13.2399186"><ele>1272.0</ele><time>2026-05-02T16:14:59.908Z</time></trkpt><trkpt lat="42.3039719" lon="13.2400517"><ele>1272.0</ele><time>2026-05-02T16:15:00.908Z</time></trkpt><trkpt lat="42.3039877" lon="13.2401925"><ele>1272.0</ele><time>2026-05-02T16:15:01.906Z</time></trkpt><trkpt lat="42.3040156" lon="13.2403191"><ele>1272.6</ele><time>2026-05-02T16:15:02.908Z</time></trkpt><trkpt lat="42.3040441" lon="13.2404491"><ele>1273.2</ele><time>2026-05-02T16:15:03.907Z</time></trkpt><trkpt lat="42.3040682" lon="13.2405838"><ele>1273.8</ele><time>2026-05-02T16:15:04.908Z</time></trkpt><trkpt lat="42.3041027" lon="13.240726"><ele>1274.4</ele><time>2026-05-02T16:15:05.907Z</time></trkpt><trkpt lat="42.3041089" lon="13.2408699"><ele>1275.0</ele><time>2026-05-02T16:15:06.908Z</time></trkpt><trkpt lat="42.3041219" lon="13.2410019"><ele>1275.5</ele><time>2026-05-02T16:15:07.908Z</time></trkpt><trkpt lat="42.3041246" lon="13.2411265"><ele>1276.0</ele><time>2026-05-02T16:15:08.908Z</time></trkpt><trkpt lat="42.3041197" lon="13.2412438"><ele>1276.5</ele><time>2026-05-02T16:15:09.907Z</time></trkpt><trkpt lat="42.3040918" lon="13.2413616"><ele>1277.0</ele><time>2026-05-02T16:15:10.906Z</time></trkpt><trkpt lat="42.3040533" lon="13.241472"><ele>1277.5</ele><time>2026-05-02T16:15:11.908Z</time></trkpt><trkpt lat="42.3040221" lon="13.2415693"><ele>1278.0</ele><time>2026-05-02T16:15:12.908Z</time></trkpt><trkpt lat="42.3039969" lon="13.2416668"><ele>1278.3333333333333</ele><time>2026-05-02T16:15:13.908Z</time></trkpt><trkpt lat="42.3039713" lon="13.2417639"><ele>1278.6666666666667</ele><time>2026-05-02T16:15:14.908Z</time></trkpt><trkpt lat="42.3039354" lon="13.2418604"><ele>1279.0</ele><time>2026-05-02T16:15:15.906Z</time></trkpt><trkpt lat="42.3038974" lon="13.2419579"><ele>1279.3333333333335</ele><time>2026-05-02T16:15:16.907Z</time></trkpt><trkpt lat="42.3038577" lon="13.2420564"><ele>1279.6666666666667</ele><time>2026-05-02T16:15:17.909Z</time></trkpt><trkpt lat="42.3037997" lon="13.2421581"><ele>1280.0</ele><time>2026-05-02T16:15:18.909Z</time></trkpt><trkpt lat="42.3037526" lon="13.2422711"><ele>1283.6</ele><time>2026-05-02T16:15:19.908Z</time></trkpt><trkpt lat="42.3037141" lon="13.2423828"><ele>1287.2</ele><time>2026-05-02T16:15:20.908Z</time></trkpt><trkpt lat="42.3036795" lon="13.2425082"><ele>1290.8000000000002</ele><time>2026-05-02T16:15:21.909Z</time></trkpt><trkpt lat="42.3036551" lon="13.2426269"><ele>1294.4</ele><time>2026-05-02T16:15:22.908Z</time></trkpt><trkpt lat="42.3036265" lon="13.2427531"><ele>1298.0</ele><time>2026-05-02T16:15:23.906Z</time></trkpt><trkpt lat="42.3036118" lon="13.2428686"><ele>1298.0</ele><time>2026-05-02T16:15:24.909Z</time></trkpt><trkpt lat="42.3036022" lon="13.2430066"><ele>1298.0</ele><time>2026-05-02T16:15:25.908Z</time></trkpt><trkpt lat="42.3035912" lon="13.2431344"><ele>1298.0</ele><time>2026-05-02T16:15:26.907Z</time></trkpt><trkpt lat="42.3035866" lon="13.2432552"><ele>1298.0</ele><time>2026-05-02T16:15:27.907Z</time></trkpt><trkpt lat="42.3035815" lon="13.2433802"><ele>1298.0</ele><time>2026-05-02T16:15:28.907Z</time></trkpt><trkpt lat="42.3035811" lon="13.2435053"><ele>1298.0</ele><time>2026-05-02T16:15:29.906Z</time></trkpt><trkpt lat="42.3035817" lon="13.2436251"><ele>1298.0</ele><time>2026-05-02T16:15:30.908Z</time></trkpt><trkpt lat="42.3035986" lon="13.2437363"><ele>1298.0</ele><time>2026-05-02T16:15:31.908Z</time></trkpt><trkpt lat="42.3036186" lon="13.2438596"><ele>1298.0</ele><time>2026-05-02T16:15:32.907Z</time></trkpt><trkpt lat="42.3036319" lon="13.2439816"><ele>1298.0</ele><time>2026-05-02T16:15:33.909Z</time></trkpt><trkpt lat="42.3036304" lon="13.2440939"><ele>1298.0</ele><time>2026-05-02T16:15:34.909Z</time></trkpt><trkpt lat="42.3036145" lon="13.244207"><ele>1299.0</ele><time>2026-05-02T16:15:35.908Z</time></trkpt><trkpt lat="42.3035892" lon="13.2443171"><ele>1300.0</ele><time>2026-05-02T16:15:36.908Z</time></trkpt><trkpt lat="42.3035595" lon="13.2444127"><ele>1301.0</ele><time>2026-05-02T16:15:37.907Z</time></trkpt><trkpt lat="42.303526" lon="13.2445134"><ele>1302.0</ele><time>2026-05-02T16:15:38.908Z</time></trkpt><trkpt lat="42.3034958" lon="13.2446007"><ele>1303.0</ele><time>2026-05-02T16:15:39.908Z</time></trkpt><trkpt lat="42.3034499" lon="13.2446673"><ele>1304.0</ele><time>2026-05-02T16:15:40.908Z</time></trkpt><trkpt lat="42.3034073" lon="13.2447623"><ele>1305.0</ele><time>2026-05-02T16:15:42.908Z</time></trkpt><trkpt lat="42.303352" lon="13.2449158"><ele>1306.0</ele><time>2026-05-02T16:18:08.908Z</time></trkpt><trkpt lat="42.3033176" lon="13.2450069"><ele>1307.0</ele><time>2026-05-02T16:18:09.907Z</time></trkpt><trkpt lat="42.3032712" lon="13.2451083"><ele>1308.0</ele><time>2026-05-02T16:18:10.907Z</time></trkpt><trkpt lat="42.303227" lon="13.2452227"><ele>1309.0</ele><time>2026-05-02T16:18:11.908Z</time></trkpt><trkpt lat="42.3032003" lon="13.2453352"><ele>1309.0</ele><time>2026-05-02T16:18:12.909Z</time></trkpt><trkpt lat="42.3031863" lon="13.245455"><ele>1309.0</ele><time>2026-05-02T16:18:13.908Z</time></trkpt><trkpt lat="42.3031733" lon="13.2455757"><ele>1309.0</ele><time>2026-05-02T16:18:14.908Z</time></trkpt><trkpt lat="42.3031523" lon="13.2456923"><ele>1309.0</ele><time>2026-05-02T16:18:15.908Z</time></trkpt><trkpt lat="42.3031147" lon="13.2457976"><ele>1309.0</ele><time>2026-05-02T16:18:16.908Z</time></trkpt><trkpt lat="42.3030585" lon="13.2458988"><ele>1309.0</ele><time>2026-05-02T16:18:17.908Z</time></trkpt><trkpt lat="42.3030158" lon="13.2459972"><ele>1310.1666666666665</ele><time>2026-05-02T16:18:18.908Z</time></trkpt><trkpt lat="42.3029947" lon="13.2460956"><ele>1311.3333333333333</ele><time>2026-05-02T16:18:19.907Z</time></trkpt><trkpt lat="42.3029737" lon="13.2461909"><ele>1312.5</ele><time>2026-05-02T16:18:20.907Z</time></trkpt><trkpt lat="42.3029443" lon="13.246274"><ele>1313.6666666666667</ele><time>2026-05-02T16:18:21.909Z</time></trkpt><trkpt lat="42.3028978" lon="13.246356"><ele>1314.8333333333335</ele><time>2026-05-02T16:18:22.908Z</time></trkpt><trkpt lat="42.3028477" lon="13.246442"><ele>1316.0</ele><time>2026-05-02T16:18:23.908Z</time></trkpt><trkpt lat="42.3027994" lon="13.246544"><ele>1317.8</ele><time>2026-05-02T16:18:24.908Z</time></trkpt><trkpt lat="42.302754" lon="13.2466646"><ele>1319.6</ele><time>2026-05-02T16:18:25.908Z</time></trkpt><trkpt lat="42.3027074" lon="13.2467914"><ele>1321.4</ele><time>2026-05-02T16:18:26.908Z</time></trkpt><trkpt lat="42.3026453" lon="13.2469153"><ele>1323.2</ele><time>2026-05-02T16:18:27.908Z</time></trkpt><trkpt lat="42.3025757" lon="13.2470266"><ele>1325.0</ele><time>2026-05-02T16:18:28.907Z</time></trkpt><trkpt lat="42.3025121" lon="13.2471258"><ele>1325.0</ele><time>2026-05-02T16:18:29.908Z</time></trkpt><trkpt lat="42.3024648" lon="13.2472295"><ele>1325.0</ele><time>2026-05-02T16:18:30.909Z</time></trkpt><trkpt lat="42.3024194" lon="13.2473354"><ele>1325.0</ele><time>2026-05-02T16:18:31.909Z</time></trkpt><trkpt lat="42.3023671" lon="13.2474471"><ele>1325.0</ele><time>2026-05-02T16:18:32.908Z</time></trkpt><trkpt lat="42.3023073" lon="13.2475544"><ele>1325.0</ele><time>2026-05-02T16:18:33.91Z</time></trkpt><trkpt lat="42.3022394" lon="13.2476537"><ele>1329.4</ele><time>2026-05-02T16:18:34.909Z</time></trkpt><trkpt lat="42.3021642" lon="13.2477537"><ele>1333.8</ele><time>2026-05-02T16:18:35.908Z</time></trkpt><trkpt lat="42.3020931" lon="13.2478632"><ele>1338.1999999999998</ele><time>2026-05-02T16:18:36.908Z</time></trkpt><trkpt lat="42.302031" lon="13.2479855"><ele>1342.6</ele><time>2026-05-02T16:18:37.908Z</time></trkpt><trkpt lat="42.3019635" lon="13.2481104"><ele>1347.0</ele><time>2026-05-02T16:18:38.908Z</time></trkpt><trkpt lat="42.3018887" lon="13.24824"><ele>1347.8</ele><time>2026-05-02T16:18:39.909Z</time></trkpt><trkpt lat="42.3018254" lon="13.2483476"><ele>1348.6</ele><time>2026-05-02T16:18:40.908Z</time></trkpt><trkpt lat="42.3017632" lon="13.2484438"><ele>1349.3999999999999</ele><time>2026-05-02T16:18:41.909Z</time></trkpt><trkpt lat="42.3017119" lon="13.2485314"><ele>1350.1999999999998</ele><time>2026-05-02T16:18:42.908Z</time></trkpt><trkpt lat="42.3016429" lon="13.2486648"><ele>1351.0</ele><time>2026-05-02T16:18:44.908Z</time></trkpt><trkpt lat="42.3016159" lon="13.2487455"><ele>1351.0</ele><time>2026-05-02T16:18:45.908Z</time></trkpt><trkpt lat="42.3015756" lon="13.248901"><ele>1351.0</ele><time>2026-05-02T16:18:47.908Z</time></trkpt><trkpt lat="42.30156" lon="13.2489963"><ele>1351.0</ele><time>2026-05-02T16:18:48.908Z</time></trkpt><trkpt lat="42.3015372" lon="13.249128"><ele>1351.0</ele><time>2026-05-02T16:18:49.908Z</time></trkpt><trkpt lat="42.3015056" lon="13.2492865"><ele>1351.0</ele><time>2026-05-02T16:18:50.907Z</time></trkpt><trkpt lat="42.3014751" lon="13.2494551"><ele>1352.75</ele><time>2026-05-02T16:18:51.909Z</time></trkpt><trkpt lat="42.3014563" lon="13.2496505"><ele>1354.5</ele><time>2026-05-02T16:18:52.908Z</time></trkpt><trkpt lat="42.3014481" lon="13.249849"><ele>1356.25</ele><time>2026-05-02T16:18:53.908Z</time></trkpt><trkpt lat="42.3014547" lon="13.250028"><ele>1358.0</ele><time>2026-05-02T16:18:54.907Z</time></trkpt><trkpt lat="42.3014609" lon="13.2502094"><ele>1358.0</ele><time>2026-05-02T16:18:55.908Z</time></trkpt><trkpt lat="42.3015023" lon="13.2503962"><ele>1358.0</ele><time>2026-05-02T16:18:56.908Z</time></trkpt><trkpt lat="42.301567" lon="13.2505693"><ele>1358.0</ele><time>2026-05-02T16:18:57.908Z</time></trkpt><trkpt lat="42.3016372" lon="13.2507259"><ele>1358.0</ele><time>2026-05-02T16:18:58.908Z</time></trkpt><trkpt lat="42.3017064" lon="13.2508837"><ele>1354.25</ele><time>2026-05-02T16:18:59.908Z</time></trkpt><trkpt lat="42.3017716" lon="13.2510412"><ele>1350.5</ele><time>2026-05-02T16:19:00.908Z</time></trkpt><trkpt lat="42.3018321" lon="13.2511996"><ele>1346.75</ele><time>2026-05-02T16:19:01.908Z</time></trkpt><trkpt lat="42.3019" lon="13.2513479"><ele>1343.0</ele><time>2026-05-02T16:19:02.908Z</time></trkpt><trkpt lat="42.3019807" lon="13.251484"><ele>1343.25</ele><time>2026-05-02T16:19:03.91Z</time></trkpt><trkpt lat="42.3020746" lon="13.2515982"><ele>1343.5</ele><time>2026-05-02T16:19:04.908Z</time></trkpt><trkpt lat="42.3021664" lon="13.2516981"><ele>1343.75</ele><time>2026-05-02T16:19:05.908Z</time></trkpt><trkpt lat="42.3022723" lon="13.251779"><ele>1344.0</ele><time>2026-05-02T16:19:06.908Z</time></trkpt><trkpt lat="42.3023807" lon="13.2518439"><ele>1344.0</ele><time>2026-05-02T16:19:07.908Z</time></trkpt><trkpt lat="42.3024922" lon="13.251882"><ele>1344.0</ele><time>2026-05-02T16:19:08.908Z</time></trkpt><trkpt lat="42.3026065" lon="13.251884"><ele>1344.0</ele><time>2026-05-02T16:19:09.908Z</time></trkpt><trkpt lat="42.3027176" lon="13.251866"><ele>1344.0</ele><time>2026-05-02T16:19:10.908Z</time></trkpt><trkpt lat="42.3028249" lon="13.2518416"><ele>1344.0</ele><time>2026-05-02T16:19:11.908Z</time></trkpt><trkpt lat="42.3029299" lon="13.2518218"><ele>1344.0</ele><time>2026-05-02T16:19:12.908Z</time></trkpt><trkpt lat="42.3030393" lon="13.251813"><ele>1344.0</ele><time>2026-05-02T16:19:13.908Z</time></trkpt><trkpt lat="42.3031548" lon="13.2518159"><ele>1344.0</ele><time>2026-05-02T16:19:14.907Z</time></trkpt><trkpt lat="42.3032753" lon="13.2518244"><ele>1345.5</ele><time>2026-05-02T16:19:15.907Z</time></trkpt><trkpt lat="42.3033976" lon="13.2518333"><ele>1347.0</ele><time>2026-05-02T16:19:16.908Z</time></trkpt><trkpt lat="42.3035233" lon="13.2518522"><ele>1348.5</ele><time>2026-05-02T16:19:17.907Z</time></trkpt><trkpt lat="42.3036509" lon="13.2518883"><ele>1350.0</ele><time>2026-05-02T16:19:18.909Z</time></trkpt><trkpt lat="42.3037672" lon="13.2519467"><ele>1350.0</ele><time>2026-05-02T16:19:19.907Z</time></trkpt><trkpt lat="42.3038767" lon="13.2520271"><ele>1350.0</ele><time>2026-05-02T16:19:20.908Z</time></trkpt><trkpt lat="42.3039805" lon="13.2521371"><ele>1350.0</ele><time>2026-05-02T16:19:21.908Z</time></trkpt><trkpt lat="42.3040663" lon="13.252279"><ele>1350.0</ele><time>2026-05-02T16:19:22.908Z</time></trkpt><trkpt lat="42.3041362" lon="13.2524511"><ele>1346.3333333333333</ele><time>2026-05-02T16:19:23.908Z</time></trkpt><trkpt lat="42.3041909" lon="13.2526467"><ele>1342.6666666666665</ele><time>2026-05-02T16:19:24.909Z</time></trkpt><trkpt lat="42.304243" lon="13.2528383"><ele>1339.0</ele><time>2026-05-02T16:19:25.908Z</time></trkpt><trkpt lat="42.3043016" lon="13.2530212"><ele>1331.0</ele><time>2026-05-02T16:19:26.908Z</time></trkpt><trkpt lat="42.3043613" lon="13.2532051"><ele>1323.0</ele><time>2026-05-02T16:19:27.908Z</time></trkpt><trkpt lat="42.3044222" lon="13.2534158"><ele>1315.0</ele><time>2026-05-02T16:19:28.907Z</time></trkpt><trkpt lat="42.304491" lon="13.2536442"><ele>1315.0</ele><time>2026-05-02T16:19:29.908Z</time></trkpt><trkpt lat="42.3045744" lon="13.2538783"><ele>1315.0</ele><time>2026-05-02T16:19:30.908Z</time></trkpt><trkpt lat="42.3046539" lon="13.254095"><ele>1315.0</ele><time>2026-05-02T16:19:31.908Z</time></trkpt><trkpt lat="42.3047213" lon="13.2542776"><ele>1318.2</ele><time>2026-05-02T16:19:32.908Z</time></trkpt><trkpt lat="42.3047759" lon="13.2544238"><ele>1321.4</ele><time>2026-05-02T16:19:33.907Z</time></trkpt><trkpt lat="42.3048347" lon="13.2545315"><ele>1324.6</ele><time>2026-05-02T16:19:34.907Z</time></trkpt><trkpt lat="42.3049117" lon="13.2545907"><ele>1327.8</ele><time>2026-05-02T16:19:35.907Z</time></trkpt><trkpt lat="42.3050113" lon="13.2546011"><ele>1331.0</ele><time>2026-05-02T16:19:36.909Z</time></trkpt><trkpt lat="42.3051252" lon="13.2545739"><ele>1331.0</ele><time>2026-05-02T16:19:37.908Z</time></trkpt><trkpt lat="42.3052512" lon="13.2545312"><ele>1331.0</ele><time>2026-05-02T16:19:38.907Z</time></trkpt><trkpt lat="42.3054053" lon="13.2544572"><ele>1331.0</ele><time>2026-05-02T16:19:39.907Z</time></trkpt><trkpt lat="42.3055693" lon="13.2543598"><ele>1328.3333333333335</ele><time>2026-05-02T16:19:40.908Z</time></trkpt><trkpt lat="42.3057291" lon="13.2542538"><ele>1325.6666666666667</ele><time>2026-05-02T16:19:41.909Z</time></trkpt><trkpt lat="42.3058824" lon="13.2541671"><ele>1323.0</ele><time>2026-05-02T16:19:42.908Z</time></trkpt><trkpt lat="42.3060457" lon="13.2541128"><ele>1323.0</ele><time>2026-05-02T16:19:43.908Z</time></trkpt><trkpt lat="42.3062227" lon="13.2540749"><ele>1323.0</ele><time>2026-05-02T16:19:44.908Z</time></trkpt><trkpt lat="42.3064041" lon="13.2540377"><ele>1323.0</ele><time>2026-05-02T16:19:45.909Z</time></trkpt><trkpt lat="42.3065902" lon="13.2539805"><ele>1334.0</ele><time>2026-05-02T16:19:46.908Z</time></trkpt><trkpt lat="42.3067808" lon="13.2539269"><ele>1345.0</ele><time>2026-05-02T16:19:47.908Z</time></trkpt><trkpt lat="42.3069699" lon="13.2538978"><ele>1356.0</ele><time>2026-05-02T16:19:48.907Z</time></trkpt><trkpt lat="42.3071493" lon="13.2538489"><ele>1349.3333333333333</ele><time>2026-05-02T16:19:49.907Z</time></trkpt><trkpt lat="42.3073207" lon="13.2537817"><ele>1342.6666666666665</ele><time>2026-05-02T16:19:50.908Z</time></trkpt><trkpt lat="42.3074919" lon="13.2537283"><ele>1336.0</ele><time>2026-05-02T16:19:51.908Z</time></trkpt><trkpt lat="42.3076743" lon="13.2537307"><ele>1336.0</ele><time>2026-05-02T16:19:52.908Z</time></trkpt><trkpt lat="42.3078643" lon="13.2537539"><ele>1336.0</ele><time>2026-05-02T16:19:53.908Z</time></trkpt><trkpt lat="42.3080593" lon="13.2537578"><ele>1336.0</ele><time>2026-05-02T16:19:54.908Z</time></trkpt><trkpt lat="42.3082582" lon="13.2537582"><ele>1332.6666666666665</ele><time>2026-05-02T16:19:55.907Z</time></trkpt><trkpt lat="42.3084528" lon="13.25379"><ele>1329.3333333333333</ele><time>2026-05-02T16:19:56.908Z</time></trkpt><trkpt lat="42.3086366" lon="13.2538494"><ele>1326.0</ele><time>2026-05-02T16:19:57.908Z</time></trkpt><trkpt lat="42.3088168" lon="13.2539181"><ele>1316.6666666666667</ele><time>2026-05-02T16:19:58.909Z</time></trkpt><trkpt lat="42.3089913" lon="13.2539884"><ele>1307.3333333333335</ele><time>2026-05-02T16:19:59.907Z</time></trkpt><trkpt lat="42.3091473" lon="13.2540347"><ele>1298.0</ele><time>2026-05-02T16:20:00.908Z</time></trkpt><trkpt lat="42.3092773" lon="13.2540386"><ele>1298.0</ele><time>2026-05-02T16:20:01.908Z</time></trkpt><trkpt lat="42.3093991" lon="13.2539871"><ele>1298.0</ele><time>2026-05-02T16:20:02.908Z</time></trkpt><trkpt lat="42.3095274" lon="13.2538907"><ele>1298.0</ele><time>2026-05-02T16:20:03.909Z</time></trkpt><trkpt lat="42.3096629" lon="13.2537778"><ele>1298.0</ele><time>2026-05-02T16:20:04.908Z</time></trkpt><trkpt lat="42.3098091" lon="13.2536657"><ele>1301.0</ele><time>2026-05-02T16:20:05.907Z</time></trkpt><trkpt lat="42.3099697" lon="13.253553"><ele>1304.0</ele><time>2026-05-02T16:20:06.907Z</time></trkpt><trkpt lat="42.3101254" lon="13.2534321"><ele>1307.0</ele><time>2026-05-02T16:20:07.907Z</time></trkpt><trkpt lat="42.3102747" lon="13.2533117"><ele>1307.0</ele><time>2026-05-02T16:20:08.908Z</time></trkpt><trkpt lat="42.3104134" lon="13.2532032"><ele>1307.0</ele><time>2026-05-02T16:20:09.908Z</time></trkpt><trkpt lat="42.31055" lon="13.2530993"><ele>1307.0</ele><time>2026-05-02T16:20:10.908Z</time></trkpt><trkpt lat="42.3106856" lon="13.2530229"><ele>1309.6666666666667</ele><time>2026-05-02T16:20:11.908Z</time></trkpt><trkpt lat="42.3108309" lon="13.2529582"><ele>1312.3333333333333</ele><time>2026-05-02T16:20:12.907Z</time></trkpt><trkpt lat="42.3109901" lon="13.2529153"><ele>1315.0</ele><time>2026-05-02T16:20:13.907Z</time></trkpt><trkpt lat="42.3111577" lon="13.2529072"><ele>1315.0</ele><time>2026-05-02T16:20:14.908Z</time></trkpt><trkpt lat="42.3113204" lon="13.2528909"><ele>1315.0</ele><time>2026-05-02T16:20:15.908Z</time></trkpt><trkpt lat="42.3114702" lon="13.2528458"><ele>1315.0</ele><time>2026-05-02T16:20:16.908Z</time></trkpt><trkpt lat="42.3116097" lon="13.2528028"><ele>1312.5</ele><time>2026-05-02T16:20:17.907Z</time></trkpt><trkpt lat="42.3117474" lon="13.252788"><ele>1310.0</ele><time>2026-05-02T16:20:18.907Z</time></trkpt><trkpt lat="42.3118804" lon="13.2527984"><ele>1307.5</ele><time>2026-05-02T16:20:19.909Z</time></trkpt><trkpt lat="42.3120103" lon="13.2528267"><ele>1305.0</ele><time>2026-05-02T16:20:20.908Z</time></trkpt><trkpt lat="42.3121316" lon="13.2528653"><ele>1305.0</ele><time>2026-05-02T16:20:21.908Z</time></trkpt><trkpt lat="42.3122341" lon="13.2528782"><ele>1305.0</ele><time>2026-05-02T16:20:22.909Z</time></trkpt><trkpt lat="42.312334" lon="13.2528523"><ele>1305.0</ele><time>2026-05-02T16:20:23.908Z</time></trkpt><trkpt lat="42.312428" lon="13.2527825"><ele>1305.0</ele><time>2026-05-02T16:20:24.908Z</time></trkpt><trkpt lat="42.3125216" lon="13.2526838"><ele>1305.0</ele><time>2026-05-02T16:20:25.908Z</time></trkpt><trkpt lat="42.3126201" lon="13.2525901"><ele>1305.75</ele><time>2026-05-02T16:20:26.909Z</time></trkpt><trkpt lat="42.3127224" lon="13.2525215"><ele>1306.5</ele><time>2026-05-02T16:20:27.908Z</time></trkpt><trkpt lat="42.3128113" lon="13.2524405"><ele>1307.25</ele><time>2026-05-02T16:20:28.907Z</time></trkpt><trkpt lat="42.3128906" lon="13.2523375"><ele>1308.0</ele><time>2026-05-02T16:20:29.907Z</time></trkpt><trkpt lat="42.3129292" lon="13.2521828"><ele>1308.0</ele><time>2026-05-02T16:20:30.908Z</time></trkpt><trkpt lat="42.3129842" lon="13.2520524"><ele>1308.0</ele><time>2026-05-02T16:20:31.908Z</time></trkpt><trkpt lat="42.3130681" lon="13.2519342"><ele>1308.0</ele><time>2026-05-02T16:20:32.908Z</time></trkpt><trkpt lat="42.3131703" lon="13.2518519"><ele>1308.0</ele><time>2026-05-02T16:20:33.908Z</time></trkpt><trkpt lat="42.3132912" lon="13.251801"><ele>1308.5</ele><time>2026-05-02T16:20:34.907Z</time></trkpt><trkpt lat="42.313403" lon="13.2517372"><ele>1309.0</ele><time>2026-05-02T16:20:35.909Z</time></trkpt><trkpt lat="42.3135009" lon="13.2516414"><ele>1309.5</ele><time>2026-05-02T16:20:36.907Z</time></trkpt><trkpt lat="42.313575" lon="13.2515233"><ele>1310.0</ele><time>2026-05-02T16:20:37.908Z</time></trkpt><trkpt lat="42.3136524" lon="13.251414"><ele>1310.0</ele><time>2026-05-02T16:20:38.909Z</time></trkpt><trkpt lat="42.3137489" lon="13.251343"><ele>1310.0</ele><time>2026-05-02T16:20:39.908Z</time></trkpt><trkpt lat="42.3138609" lon="13.2513179"><ele>1310.0</ele><time>2026-05-02T16:20:40.908Z</time></trkpt><trkpt lat="42.313978" lon="13.251284"><ele>1310.0</ele><time>2026-05-02T16:20:41.908Z</time></trkpt><trkpt lat="42.3140969" lon="13.2512215"><ele>1306.5</ele><time>2026-05-02T16:20:42.908Z</time></trkpt><trkpt lat="42.3142146" lon="13.2511545"><ele>1303.0</ele><time>2026-05-02T16:20:43.908Z</time></trkpt><trkpt lat="42.314333" lon="13.251102"><ele>1299.5</ele><time>2026-05-02T16:20:44.909Z</time></trkpt><trkpt lat="42.3144512" lon="13.2510743"><ele>1296.0</ele><time>2026-05-02T16:20:45.909Z</time></trkpt><trkpt lat="42.3145541" lon="13.2511401"><ele>1296.0</ele><time>2026-05-02T16:20:46.908Z</time></trkpt><trkpt lat="42.3146588" lon="13.2512209"><ele>1296.0</ele><time>2026-05-02T16:20:47.908Z</time></trkpt><trkpt lat="42.3147649" lon="13.2513289"><ele>1296.0</ele><time>2026-05-02T16:20:48.908Z</time></trkpt><trkpt lat="42.3148787" lon="13.2514426"><ele>1296.0</ele><time>2026-05-02T16:20:49.909Z</time></trkpt><trkpt lat="42.3149994" lon="13.2515715"><ele>1290.25</ele><time>2026-05-02T16:20:50.909Z</time></trkpt><trkpt lat="42.3151105" lon="13.2517059"><ele>1284.5</ele><time>2026-05-02T16:20:51.908Z</time></trkpt><trkpt lat="42.3152103" lon="13.2518414"><ele>1278.75</ele><time>2026-05-02T16:20:52.908Z</time></trkpt><trkpt lat="42.3152978" lon="13.2519781"><ele>1273.0</ele><time>2026-05-02T16:20:53.907Z</time></trkpt><trkpt lat="42.3153908" lon="13.2520789"><ele>1273.0</ele><time>2026-05-02T16:20:54.909Z</time></trkpt><trkpt lat="42.3154999" lon="13.2521462"><ele>1273.0</ele><time>2026-05-02T16:20:55.909Z</time></trkpt><trkpt lat="42.3156139" lon="13.2521947"><ele>1273.0</ele><time>2026-05-02T16:20:56.907Z</time></trkpt><trkpt lat="42.3157543" lon="13.25217"><ele>1273.0</ele><time>2026-05-02T16:20:57.907Z</time></trkpt><trkpt lat="42.3158816" lon="13.2521515"><ele>1278.5</ele><time>2026-05-02T16:20:58.909Z</time></trkpt><trkpt lat="42.3160075" lon="13.252115"><ele>1284.0</ele><time>2026-05-02T16:20:59.909Z</time></trkpt><trkpt lat="42.3161248" lon="13.2520769"><ele>1289.5</ele><time>2026-05-02T16:21:00.909Z</time></trkpt><trkpt lat="42.3162332" lon="13.2520435"><ele>1295.0</ele><time>2026-05-02T16:21:01.908Z</time></trkpt><trkpt lat="42.3163283" lon="13.2520128"><ele>1294.2</ele><time>2026-05-02T16:21:02.91Z</time></trkpt><trkpt lat="42.3164111" lon="13.2519903"><ele>1293.4</ele><time>2026-05-02T16:21:03.907Z</time></trkpt><trkpt lat="42.3164884" lon="13.2519966"><ele>1292.6</ele><time>2026-05-02T16:21:04.908Z</time></trkpt><trkpt lat="42.3165473" lon="13.2520321"><ele>1291.8</ele><time>2026-05-02T16:21:05.908Z</time></trkpt><trkpt lat="42.3166204" lon="13.2521675"><ele>1291.0</ele><time>2026-05-02T16:21:07.909Z</time></trkpt><trkpt lat="42.3166725" lon="13.2522938"><ele>1287.6</ele><time>2026-05-02T16:21:09.907Z</time></trkpt><trkpt lat="42.3167001" lon="13.252371"><ele>1284.1999999999998</ele><time>2026-05-02T16:21:20.908Z</time></trkpt><trkpt lat="42.3166101" lon="13.2525095"><ele>1280.8000000000002</ele><time>2026-05-02T16:21:22.907Z</time></trkpt><trkpt lat="42.3165451" lon="13.2526064"><ele>1277.4</ele><time>2026-05-02T16:21:23.909Z</time></trkpt><trkpt lat="42.3164819" lon="13.2527107"><ele>1274.0</ele><time>2026-05-02T16:21:24.907Z</time></trkpt><trkpt lat="42.3164378" lon="13.2528115"><ele>1274.0</ele><time>2026-05-02T16:21:25.908Z</time></trkpt><trkpt lat="42.3164202" lon="13.252916"><ele>1274.0</ele><time>2026-05-02T16:21:26.909Z</time></trkpt><trkpt lat="42.3164395" lon="13.2530057"><ele>1274.0</ele><time>2026-05-02T16:21:27.909Z</time></trkpt><trkpt lat="42.3164904" lon="13.2530625"><ele>1274.0</ele><time>2026-05-02T16:21:28.91Z</time></trkpt><trkpt lat="42.3165656" lon="13.2530783"><ele>1274.0</ele><time>2026-05-02T16:21:29.907Z</time></trkpt><trkpt lat="42.3166662" lon="13.2530512"><ele>1274.0</ele><time>2026-05-02T16:21:30.908Z</time></trkpt><trkpt lat="42.3167811" lon="13.2530018"><ele>1274.0</ele><time>2026-05-02T16:21:31.908Z</time></trkpt><trkpt lat="42.3169151" lon="13.252953"><ele>1274.0</ele><time>2026-05-02T16:21:32.908Z</time></trkpt><trkpt lat="42.3170604" lon="13.2528993"><ele>1274.0</ele><time>2026-05-02T16:21:33.908Z</time></trkpt><trkpt lat="42.3172166" lon="13.252839"><ele>1274.6666666666667</ele><time>2026-05-02T16:21:34.908Z</time></trkpt><trkpt lat="42.3173778" lon="13.2527792"><ele>1275.3333333333333</ele><time>2026-05-02T16:21:35.909Z</time></trkpt><trkpt lat="42.3175456" lon="13.2527229"><ele>1276.0</ele><time>2026-05-02T16:21:36.908Z</time></trkpt><trkpt lat="42.3177151" lon="13.2526678"><ele>1276.0</ele><time>2026-05-02T16:21:37.907Z</time></trkpt><trkpt lat="42.3178861" lon="13.2526194"><ele>1276.0</ele><time>2026-05-02T16:21:38.908Z</time></trkpt><trkpt lat="42.3180626" lon="13.2525885"><ele>1276.0</ele><time>2026-05-02T16:21:39.909Z</time></trkpt><trkpt lat="42.3182408" lon="13.2525652"><ele>1274.0</ele><time>2026-05-02T16:21:40.907Z</time></trkpt><trkpt lat="42.3184125" lon="13.2525432"><ele>1272.0</ele><time>2026-05-02T16:21:41.908Z</time></trkpt><trkpt lat="42.3185856" lon="13.2525215"><ele>1270.0</ele><time>2026-05-02T16:21:42.908Z</time></trkpt><trkpt lat="42.3187529" lon="13.2524991"><ele>1268.3333333333333</ele><time>2026-05-02T16:21:43.908Z</time></trkpt><trkpt lat="42.3189138" lon="13.2524667"><ele>1266.6666666666667</ele><time>2026-05-02T16:21:44.908Z</time></trkpt><trkpt lat="42.3190694" lon="13.2524328"><ele>1265.0</ele><time>2026-05-02T16:21:45.908Z</time></trkpt><trkpt lat="42.3192181" lon="13.2524032"><ele>1265.0</ele><time>2026-05-02T16:21:46.908Z</time></trkpt><trkpt lat="42.3193594" lon="13.2523726"><ele>1265.0</ele><time>2026-05-02T16:21:47.908Z</time></trkpt><trkpt lat="42.3194956" lon="13.2523512"><ele>1265.0</ele><time>2026-05-02T16:21:48.908Z</time></trkpt><trkpt lat="42.3196175" lon="13.2523252"><ele>1265.0</ele><time>2026-05-02T16:21:49.907Z</time></trkpt><trkpt lat="42.31973" lon="13.252271"><ele>1269.0</ele><time>2026-05-02T16:21:50.908Z</time></trkpt><trkpt lat="42.3198263" lon="13.2521758"><ele>1273.0</ele><time>2026-05-02T16:21:51.908Z</time></trkpt><trkpt lat="42.3199139" lon="13.2520436"><ele>1277.0</ele><time>2026-05-02T16:21:52.907Z</time></trkpt><trkpt lat="42.3200045" lon="13.251903"><ele>1281.0</ele><time>2026-05-02T16:21:53.908Z</time></trkpt><trkpt lat="42.3201022" lon="13.2517506"><ele>1281.0</ele><time>2026-05-02T16:21:54.908Z</time></trkpt><trkpt lat="42.3201934" lon="13.2515804"><ele>1281.0</ele><time>2026-05-02T16:21:55.908Z</time></trkpt><trkpt lat="42.3202695" lon="13.2513983"><ele>1281.0</ele><time>2026-05-02T16:21:56.909Z</time></trkpt><trkpt lat="42.320345" lon="13.2512202"><ele>1284.0</ele><time>2026-05-02T16:21:57.908Z</time></trkpt><trkpt lat="42.3204148" lon="13.2510459"><ele>1287.0</ele><time>2026-05-02T16:21:58.908Z</time></trkpt><trkpt lat="42.3204627" lon="13.2508703"><ele>1290.0</ele><time>2026-05-02T16:21:59.908Z</time></trkpt><trkpt lat="42.3204957" lon="13.2506971"><ele>1293.0</ele><time>2026-05-02T16:22:00.908Z</time></trkpt><trkpt lat="42.3205365" lon="13.2505579"><ele>1289.2</ele><time>2026-05-02T16:22:01.907Z</time></trkpt><trkpt lat="42.3205905" lon="13.2504418"><ele>1285.4</ele><time>2026-05-02T16:22:02.908Z</time></trkpt><trkpt lat="42.3206925" lon="13.2503823"><ele>1281.6000000000001</ele><time>2026-05-02T16:22:03.908Z</time></trkpt><trkpt lat="42.3207912" lon="13.2503471"><ele>1277.8000000000002</ele><time>2026-05-02T16:22:04.908Z</time></trkpt><trkpt lat="42.3209081" lon="13.2503475"><ele>1274.0</ele><time>2026-05-02T16:22:05.908Z</time></trkpt><trkpt lat="42.3210365" lon="13.250385"><ele>1274.0</ele><time>2026-05-02T16:22:06.909Z</time></trkpt><trkpt lat="42.3211727" lon="13.2504496"><ele>1274.0</ele><time>2026-05-02T16:22:07.909Z</time></trkpt><trkpt lat="42.3213038" lon="13.2505211"><ele>1274.0</ele><time>2026-05-02T16:22:08.908Z</time></trkpt><trkpt lat="42.3214389" lon="13.2505943"><ele>1274.0</ele><time>2026-05-02T16:22:09.909Z</time></trkpt><trkpt lat="42.321576" lon="13.2506713"><ele>1267.75</ele><time>2026-05-02T16:22:10.909Z</time></trkpt><trkpt lat="42.321712" lon="13.2507572"><ele>1261.5</ele><time>2026-05-02T16:22:11.908Z</time></trkpt><trkpt lat="42.3218425" lon="13.250863"><ele>1255.25</ele><time>2026-05-02T16:22:12.908Z</time></trkpt><trkpt lat="42.321946" lon="13.2509653"><ele>1249.0</ele><time>2026-05-02T16:22:13.908Z</time></trkpt><trkpt lat="42.3220111" lon="13.2510543"><ele>1249.0</ele><time>2026-05-02T16:22:14.908Z</time></trkpt><trkpt lat="42.3220446" lon="13.2511284"><ele>1249.0</ele><time>2026-05-02T16:22:15.909Z</time></trkpt><trkpt lat="42.3219943" lon="13.2512564"><ele>1249.0</ele><time>2026-05-02T16:22:17.91Z</time></trkpt><trkpt lat="42.3219119" lon="13.2512773"><ele>1249.0</ele><time>2026-05-02T16:22:18.908Z</time></trkpt><trkpt lat="42.3218076" lon="13.251275"><ele>1249.0</ele><time>2026-05-02T16:22:19.907Z</time></trkpt><trkpt lat="42.3216938" lon="13.251258"><ele>1249.0</ele><time>2026-05-02T16:22:20.908Z</time></trkpt><trkpt lat="42.3215808" lon="13.2511825"><ele>1249.0</ele><time>2026-05-02T16:22:21.909Z</time></trkpt><trkpt lat="42.3214703" lon="13.2511101"><ele>1249.0</ele><time>2026-05-02T16:22:22.909Z</time></trkpt><trkpt lat="42.3213776" lon="13.250952"><ele>1249.0</ele><time>2026-05-02T16:22:23.909Z</time></trkpt><trkpt lat="42.3212833" lon="13.2508293"><ele>1249.4</ele><time>2026-05-02T16:22:24.91Z</time></trkpt><trkpt lat="42.3211847" lon="13.2507309"><ele>1249.8000000000002</ele><time>2026-05-02T16:22:25.908Z</time></trkpt><trkpt lat="42.3210844" lon="13.2506617"><ele>1250.1999999999998</ele><time>2026-05-02T16:22:26.908Z</time></trkpt><trkpt lat="42.3209897" lon="13.2506188"><ele>1250.6</ele><time>2026-05-02T16:22:27.908Z</time></trkpt><trkpt lat="42.320903" lon="13.250599"><ele>1251.0</ele><time>2026-05-02T16:22:28.907Z</time></trkpt><trkpt lat="42.3208327" lon="13.250616"><ele>1251.0</ele><time>2026-05-02T16:22:29.908Z</time></trkpt><trkpt lat="42.3207767" lon="13.2506876"><ele>1251.0</ele><time>2026-05-02T16:22:30.908Z</time></trkpt><trkpt lat="42.3207381" lon="13.2507836"><ele>1251.0</ele><time>2026-05-02T16:22:31.908Z</time></trkpt><trkpt lat="42.3207132" lon="13.2509252"><ele>1251.0</ele><time>2026-05-02T16:22:32.908Z</time></trkpt><trkpt lat="42.3206696" lon="13.2510724"><ele>1251.0</ele><time>2026-05-02T16:22:33.909Z</time></trkpt><trkpt lat="42.3206118" lon="13.251224"><ele>1261.0</ele><time>2026-05-02T16:22:34.91Z</time></trkpt><trkpt lat="42.3205356" lon="13.2513975"><ele>1271.0</ele><time>2026-05-02T16:22:35.908Z</time></trkpt><trkpt lat="42.3204722" lon="13.2515851"><ele>1281.0</ele><time>2026-05-02T16:22:36.907Z</time></trkpt><trkpt lat="42.3204076" lon="13.2517691"><ele>1281.0</ele><time>2026-05-02T16:22:37.91Z</time></trkpt><trkpt lat="42.3203378" lon="13.2519424"><ele>1281.0</ele><time>2026-05-02T16:22:38.91Z</time></trkpt><trkpt lat="42.3202611" lon="13.2521043"><ele>1281.0</ele><time>2026-05-02T16:22:39.908Z</time></trkpt><trkpt lat="42.3201927" lon="13.2522604"><ele>1281.0</ele><time>2026-05-02T16:22:40.909Z</time></trkpt><trkpt lat="42.3201284" lon="13.2524195"><ele>1272.75</ele><time>2026-05-02T16:22:41.907Z</time></trkpt><trkpt lat="42.3200673" lon="13.2525673"><ele>1264.5</ele><time>2026-05-02T16:22:42.908Z</time></trkpt><trkpt lat="42.3199893" lon="13.2526986"><ele>1256.25</ele><time>2026-05-02T16:22:43.909Z</time></trkpt><trkpt lat="42.3198901" lon="13.2527964"><ele>1248.0</ele><time>2026-05-02T16:22:44.907Z</time></trkpt><trkpt lat="42.319782" lon="13.2528721"><ele>1252.25</ele><time>2026-05-02T16:22:45.907Z</time></trkpt><trkpt lat="42.3196564" lon="13.2529171"><ele>1256.5</ele><time>2026-05-02T16:22:46.908Z</time></trkpt><trkpt lat="42.3195298" lon="13.2529598"><ele>1260.75</ele><time>2026-05-02T16:22:47.909Z</time></trkpt><trkpt lat="42.3193948" lon="13.2529975"><ele>1265.0</ele><time>2026-05-02T16:22:48.908Z</time></trkpt><trkpt lat="42.3192596" lon="13.2530442"><ele>1265.0</ele><time>2026-05-02T16:22:49.909Z</time></trkpt><trkpt lat="42.3191245" lon="13.253094"><ele>1265.0</ele><time>2026-05-02T16:22:50.909Z</time></trkpt><trkpt lat="42.3189946" lon="13.2531499"><ele>1265.0</ele><time>2026-05-02T16:22:51.909Z</time></trkpt><trkpt lat="42.3188619" lon="13.2531979"><ele>1265.0</ele><time>2026-05-02T16:22:52.908Z</time></trkpt><trkpt lat="42.3187241" lon="13.2532362"><ele>1254.6666666666667</ele><time>2026-05-02T16:22:53.907Z</time></trkpt><trkpt lat="42.3185793" lon="13.2532519"><ele>1244.3333333333333</ele><time>2026-05-02T16:22:54.908Z</time></trkpt><trkpt lat="42.3184273" lon="13.2532682"><ele>1234.0</ele><time>2026-05-02T16:22:55.908Z</time></trkpt><trkpt lat="42.3182753" lon="13.2533127"><ele>1234.0</ele><time>2026-05-02T16:22:56.908Z</time></trkpt><trkpt lat="42.3181199" lon="13.2533759"><ele>1234.0</ele><time>2026-05-02T16:22:57.908Z</time></trkpt><trkpt lat="42.3179627" lon="13.2534403"><ele>1234.0</ele><time>2026-05-02T16:22:58.907Z</time></trkpt><trkpt lat="42.3177977" lon="13.2535018"><ele>1236.6666666666665</ele><time>2026-05-02T16:22:59.908Z</time></trkpt><trkpt lat="42.31763" lon="13.25356"><ele>1239.3333333333333</ele><time>2026-05-02T16:23:00.908Z</time></trkpt><trkpt lat="42.3174721" lon="13.2536207"><ele>1242.0</ele><time>2026-05-02T16:23:01.909Z</time></trkpt><trkpt lat="42.317323" lon="13.2536896"><ele>1244.5</ele><time>2026-05-02T16:23:02.91Z</time></trkpt><trkpt lat="42.3171782" lon="13.2537623"><ele>1247.0</ele><time>2026-05-02T16:23:03.907Z</time></trkpt><trkpt lat="42.3170395" lon="13.2538353"><ele>1249.5</ele><time>2026-05-02T16:23:04.908Z</time></trkpt><trkpt lat="42.3169069" lon="13.2539055"><ele>1252.0</ele><time>2026-05-02T16:23:05.907Z</time></trkpt><trkpt lat="42.3167754" lon="13.2539683"><ele>1241.5</ele><time>2026-05-02T16:23:06.907Z</time></trkpt><trkpt lat="42.3166477" lon="13.2540369"><ele>1231.0</ele><time>2026-05-02T16:23:07.909Z</time></trkpt><trkpt lat="42.3165225" lon="13.2540942"><ele>1220.5</ele><time>2026-05-02T16:23:08.908Z</time></trkpt><trkpt lat="42.316397" lon="13.2541418"><ele>1210.0</ele><time>2026-05-02T16:23:09.909Z</time></trkpt><trkpt lat="42.3162849" lon="13.2541618"><ele>1208.75</ele><time>2026-05-02T16:23:10.908Z</time></trkpt><trkpt lat="42.3161757" lon="13.2541399"><ele>1207.5</ele><time>2026-05-02T16:23:11.908Z</time></trkpt><trkpt lat="42.3160629" lon="13.2540788"><ele>1206.25</ele><time>2026-05-02T16:23:12.908Z</time></trkpt><trkpt lat="42.3159454" lon="13.2540018"><ele>1205.0</ele><time>2026-05-02T16:23:13.909Z</time></trkpt><trkpt lat="42.3158243" lon="13.2539357"><ele>1205.75</ele><time>2026-05-02T16:23:14.909Z</time></trkpt><trkpt lat="42.3157018" lon="13.2538819"><ele>1206.5</ele><time>2026-05-02T16:23:15.908Z</time></trkpt><trkpt lat="42.3155889" lon="13.2538343"><ele>1207.25</ele><time>2026-05-02T16:23:16.907Z</time></trkpt><trkpt lat="42.3154916" lon="13.2537721"><ele>1208.0</ele><time>2026-05-02T16:23:17.909Z</time></trkpt><trkpt lat="42.3154136" lon="13.2536871"><ele>1208.0</ele><time>2026-05-02T16:23:18.908Z</time></trkpt><trkpt lat="42.3153531" lon="13.2535711"><ele>1208.0</ele><time>2026-05-02T16:23:19.908Z</time></trkpt><trkpt lat="42.3152917" lon="13.253451"><ele>1208.0</ele><time>2026-05-02T16:23:20.909Z</time></trkpt><trkpt lat="42.3152006" lon="13.2533581"><ele>1208.0</ele><time>2026-05-02T16:23:21.908Z</time></trkpt><trkpt lat="42.3150899" lon="13.2532944"><ele>1208.0</ele><time>2026-05-02T16:23:22.908Z</time></trkpt><trkpt lat="42.3149788" lon="13.2532522"><ele>1208.0</ele><time>2026-05-02T16:23:23.909Z</time></trkpt><trkpt lat="42.314876" lon="13.2531834"><ele>1208.0</ele><time>2026-05-02T16:23:24.908Z</time></trkpt><trkpt lat="42.3147828" lon="13.2530994"><ele>1208.0</ele><time>2026-05-02T16:23:25.908Z</time></trkpt><trkpt lat="42.3147057" lon="13.2530145"><ele>1208.0</ele><time>2026-05-02T16:23:26.908Z</time></trkpt><trkpt lat="42.3146286" lon="13.2529578"><ele>1208.0</ele><time>2026-05-02T16:23:27.907Z</time></trkpt><trkpt lat="42.3145432" lon="13.2529405"><ele>1207.2</ele><time>2026-05-02T16:23:28.908Z</time></trkpt><trkpt lat="42.3144444" lon="13.252958"><ele>1206.4</ele><time>2026-05-02T16:23:29.909Z</time></trkpt><trkpt lat="42.3143385" lon="13.2530002"><ele>1205.6000000000001</ele><time>2026-05-02T16:23:30.908Z</time></trkpt><trkpt lat="42.3142265" lon="13.2530547"><ele>1204.8</ele><time>2026-05-02T16:23:31.909Z</time></trkpt><trkpt lat="42.3141276" lon="13.2531334"><ele>1204.0</ele><time>2026-05-02T16:23:32.909Z</time></trkpt><trkpt lat="42.3140459" lon="13.2532322"><ele>1204.0</ele><time>2026-05-02T16:23:33.907Z</time></trkpt><trkpt lat="42.3139765" lon="13.2533632"><ele>1204.0</ele><time>2026-05-02T16:23:34.907Z</time></trkpt><trkpt lat="42.3139087" lon="13.2535081"><ele>1204.0</ele><time>2026-05-02T16:23:35.909Z</time></trkpt><trkpt lat="42.3138302" lon="13.2536432"><ele>1204.0</ele><time>2026-05-02T16:23:36.908Z</time></trkpt><trkpt lat="42.3137466" lon="13.2537781"><ele>1209.75</ele><time>2026-05-02T16:23:37.908Z</time></trkpt><trkpt lat="42.3136779" lon="13.2539245"><ele>1215.5</ele><time>2026-05-02T16:23:38.908Z</time></trkpt><trkpt lat="42.3136275" lon="13.2540886"><ele>1221.25</ele><time>2026-05-02T16:23:39.907Z</time></trkpt><trkpt lat="42.3135902" lon="13.2542642"><ele>1227.0</ele><time>2026-05-02T16:23:40.907Z</time></trkpt><trkpt lat="42.31357" lon="13.2544474"><ele>1227.0</ele><time>2026-05-02T16:23:41.908Z</time></trkpt><trkpt lat="42.3135424" lon="13.2546296"><ele>1227.0</ele><time>2026-05-02T16:23:42.908Z</time></trkpt><trkpt lat="42.3135081" lon="13.2548031"><ele>1227.0</ele><time>2026-05-02T16:23:43.909Z</time></trkpt><trkpt lat="42.3134729" lon="13.2549685"><ele>1227.0</ele><time>2026-05-02T16:23:44.909Z</time></trkpt><trkpt lat="42.3134197" lon="13.2550875"><ele>1226.2</ele><time>2026-05-02T16:23:45.908Z</time></trkpt><trkpt lat="42.3133571" lon="13.2551937"><ele>1225.4</ele><time>2026-05-02T16:23:46.907Z</time></trkpt><trkpt lat="42.3132823" lon="13.2552622"><ele>1224.6</ele><time>2026-05-02T16:23:47.908Z</time></trkpt><trkpt lat="42.3131988" lon="13.2552922"><ele>1223.8</ele><time>2026-05-02T16:23:48.908Z</time></trkpt><trkpt lat="42.3130987" lon="13.2552821"><ele>1223.0</ele><time>2026-05-02T16:23:49.909Z</time></trkpt><trkpt lat="42.3129902" lon="13.2552355"><ele>1223.0</ele><time>2026-05-02T16:23:50.909Z</time></trkpt><trkpt lat="42.3128782" lon="13.2551856"><ele>1223.0</ele><time>2026-05-02T16:23:51.908Z</time></trkpt><trkpt lat="42.3127678" lon="13.2551433"><ele>1223.0</ele><time>2026-05-02T16:23:52.908Z</time></trkpt><trkpt lat="42.3126614" lon="13.2551118"><ele>1223.0</ele><time>2026-05-02T16:23:53.908Z</time></trkpt><trkpt lat="42.3125595" lon="13.2551117"><ele>1223.0</ele><time>2026-05-02T16:23:54.908Z</time></trkpt><trkpt lat="42.3124666" lon="13.2551465"><ele>1223.0</ele><time>2026-05-02T16:23:55.907Z</time></trkpt><trkpt lat="42.3123782" lon="13.2552245"><ele>1223.0</ele><time>2026-05-02T16:23:56.907Z</time></trkpt><trkpt lat="42.312313" lon="13.2553304"><ele>1223.0</ele><time>2026-05-02T16:23:57.908Z</time></trkpt><trkpt lat="42.312277" lon="13.255456"><ele>1223.0</ele><time>2026-05-02T16:23:58.91Z</time></trkpt><trkpt lat="42.3122756" lon="13.2555988"><ele>1223.0</ele><time>2026-05-02T16:23:59.907Z</time></trkpt><trkpt lat="42.3122881" lon="13.2557517"><ele>1222.2</ele><time>2026-05-02T16:24:00.908Z</time></trkpt><trkpt lat="42.312296" lon="13.2559023"><ele>1221.4</ele><time>2026-05-02T16:24:01.909Z</time></trkpt><trkpt lat="42.3123066" lon="13.2560509"><ele>1220.6000000000001</ele><time>2026-05-02T16:24:02.908Z</time></trkpt><trkpt lat="42.3122942" lon="13.2561776"><ele>1219.8</ele><time>2026-05-02T16:24:03.909Z</time></trkpt><trkpt lat="42.3122633" lon="13.2563025"><ele>1219.0</ele><time>2026-05-02T16:24:04.908Z</time></trkpt><trkpt lat="42.3122082" lon="13.2564182"><ele>1213.8</ele><time>2026-05-02T16:24:05.908Z</time></trkpt><trkpt lat="42.3121365" lon="13.256517"><ele>1208.6000000000001</ele><time>2026-05-02T16:24:06.908Z</time></trkpt><trkpt lat="42.3120548" lon="13.2565934"><ele>1203.4</ele><time>2026-05-02T16:24:07.909Z</time></trkpt><trkpt lat="42.3119669" lon="13.2566394"><ele>1198.2</ele><time>2026-05-02T16:24:08.909Z</time></trkpt><trkpt lat="42.3118813" lon="13.2566589"><ele>1193.0</ele><time>2026-05-02T16:24:09.908Z</time></trkpt><trkpt lat="42.3117793" lon="13.2566383"><ele>1193.0</ele><time>2026-05-02T16:24:10.909Z</time></trkpt><trkpt lat="42.3116754" lon="13.256583"><ele>1193.0</ele><time>2026-05-02T16:24:11.908Z</time></trkpt><trkpt lat="42.3115728" lon="13.2565184"><ele>1193.0</ele><time>2026-05-02T16:24:12.908Z</time></trkpt><trkpt lat="42.3114728" lon="13.2564645"><ele>1193.0</ele><time>2026-05-02T16:24:13.909Z</time></trkpt><trkpt lat="42.3113725" lon="13.2564732"><ele>1193.0</ele><time>2026-05-02T16:24:14.909Z</time></trkpt><trkpt lat="42.3112819" lon="13.2565096"><ele>1197.25</ele><time>2026-05-02T16:24:15.907Z</time></trkpt><trkpt lat="42.311193" lon="13.256582"><ele>1201.5</ele><time>2026-05-02T16:24:16.908Z</time></trkpt><trkpt lat="42.3111151" lon="13.2566913"><ele>1205.75</ele><time>2026-05-02T16:24:17.908Z</time></trkpt><trkpt lat="42.311046" lon="13.2568285"><ele>1210.0</ele><time>2026-05-02T16:24:18.909Z</time></trkpt><trkpt lat="42.3109842" lon="13.2569828"><ele>1210.0</ele><time>2026-05-02T16:24:19.908Z</time></trkpt><trkpt lat="42.3109269" lon="13.2571408"><ele>1210.0</ele><time>2026-05-02T16:24:20.907Z</time></trkpt><trkpt lat="42.3108703" lon="13.2572988"><ele>1210.0</ele><time>2026-05-02T16:24:21.907Z</time></trkpt><trkpt lat="42.3108161" lon="13.2574457"><ele>1210.0</ele><time>2026-05-02T16:24:22.909Z</time></trkpt><trkpt lat="42.3107543" lon="13.2575856"><ele>1209.4</ele><time>2026-05-02T16:24:23.909Z</time></trkpt><trkpt lat="42.3106787" lon="13.2577035"><ele>1208.8</ele><time>2026-05-02T16:24:24.909Z</time></trkpt><trkpt lat="42.3105943" lon="13.2578085"><ele>1208.2</ele><time>2026-05-02T16:24:25.909Z</time></trkpt><trkpt lat="42.3105036" lon="13.2578818"><ele>1207.6</ele><time>2026-05-02T16:24:26.909Z</time></trkpt><trkpt lat="42.3104081" lon="13.2579325"><ele>1207.0</ele><time>2026-05-02T16:24:27.908Z</time></trkpt><trkpt lat="42.31031" lon="13.2579534"><ele>1207.0</ele><time>2026-05-02T16:24:28.909Z</time></trkpt><trkpt lat="42.3102062" lon="13.2579552"><ele>1207.0</ele><time>2026-05-02T16:24:29.908Z</time></trkpt><trkpt lat="42.3101022" lon="13.2579618"><ele>1207.0</ele><time>2026-05-02T16:24:30.907Z</time></trkpt><trkpt lat="42.3100073" lon="13.2579936"><ele>1207.0</ele><time>2026-05-02T16:24:31.909Z</time></trkpt><trkpt lat="42.3099075" lon="13.2580451"><ele>1207.0</ele><time>2026-05-02T16:24:32.909Z</time></trkpt><trkpt lat="42.3098288" lon="13.258162"><ele>1204.5</ele><time>2026-05-02T16:24:33.908Z</time></trkpt><trkpt lat="42.3097522" lon="13.2582917"><ele>1202.0</ele><time>2026-05-02T16:24:34.909Z</time></trkpt><trkpt lat="42.3096793" lon="13.2584411"><ele>1199.5</ele><time>2026-05-02T16:24:35.908Z</time></trkpt><trkpt lat="42.3096097" lon="13.2585771"><ele>1197.0</ele><time>2026-05-02T16:24:36.907Z</time></trkpt><trkpt lat="42.3095346" lon="13.2587022"><ele>1197.0</ele><time>2026-05-02T16:24:37.91Z</time></trkpt><trkpt lat="42.3094476" lon="13.2588209"><ele>1197.0</ele><time>2026-05-02T16:24:38.909Z</time></trkpt><trkpt lat="42.309353" lon="13.2589205"><ele>1197.0</ele><time>2026-05-02T16:24:39.909Z</time></trkpt><trkpt lat="42.3092467" lon="13.2590006"><ele>1197.0</ele><time>2026-05-02T16:24:40.909Z</time></trkpt><trkpt lat="42.309119" lon="13.2590576"><ele>1190.6666666666667</ele><time>2026-05-02T16:24:41.909Z</time></trkpt><trkpt lat="42.3089809" lon="13.2591053"><ele>1184.3333333333335</ele><time>2026-05-02T16:24:42.909Z</time></trkpt><trkpt lat="42.308834" lon="13.2591692"><ele>1178.0</ele><time>2026-05-02T16:24:43.909Z</time></trkpt><trkpt lat="42.3086869" lon="13.2592549"><ele>1178.0</ele><time>2026-05-02T16:24:44.908Z</time></trkpt><trkpt lat="42.3085437" lon="13.2593571"><ele>1178.0</ele><time>2026-05-02T16:24:45.909Z</time></trkpt><trkpt lat="42.3084062" lon="13.2594545"><ele>1178.0</ele><time>2026-05-02T16:24:46.908Z</time></trkpt><trkpt lat="42.308276" lon="13.2595522"><ele>1178.0</ele><time>2026-05-02T16:24:47.908Z</time></trkpt><trkpt lat="42.3081428" lon="13.2596548"><ele>1178.0</ele><time>2026-05-02T16:24:48.909Z</time></trkpt><trkpt lat="42.3080217" lon="13.2597469"><ele>1178.0</ele><time>2026-05-02T16:24:49.908Z</time></trkpt><trkpt lat="42.3078913" lon="13.2598394"><ele>1178.0</ele><time>2026-05-02T16:24:50.909Z</time></trkpt><trkpt lat="42.3077752" lon="13.2598925"><ele>1172.5</ele><time>2026-05-02T16:24:51.909Z</time></trkpt><trkpt lat="42.3076564" lon="13.2599343"><ele>1167.0</ele><time>2026-05-02T16:24:52.907Z</time></trkpt><trkpt lat="42.3075399" lon="13.2599625"><ele>1161.5</ele><time>2026-05-02T16:24:53.908Z</time></trkpt><trkpt lat="42.3074342" lon="13.2599444"><ele>1156.0</ele><time>2026-05-02T16:24:54.909Z</time></trkpt><trkpt lat="42.3073422" lon="13.2598585"><ele>1153.5</ele><time>2026-05-02T16:24:55.908Z</time></trkpt><trkpt lat="42.3072511" lon="13.2597641"><ele>1151.0</ele><time>2026-05-02T16:24:56.908Z</time></trkpt><trkpt lat="42.3071623" lon="13.2596515"><ele>1148.5</ele><time>2026-05-02T16:24:57.909Z</time></trkpt><trkpt lat="42.3070781" lon="13.2595263"><ele>1146.0</ele><time>2026-05-02T16:24:58.909Z</time></trkpt><trkpt lat="42.3070015" lon="13.2594032"><ele>1146.0</ele><time>2026-05-02T16:24:59.907Z</time></trkpt><trkpt lat="42.3069375" lon="13.259277"><ele>1146.0</ele><time>2026-05-02T16:25:00.908Z</time></trkpt><trkpt lat="42.3068787" lon="13.2591361"><ele>1146.0</ele><time>2026-05-02T16:25:01.908Z</time></trkpt><trkpt lat="42.306828" lon="13.2589907"><ele>1146.0</ele><time>2026-05-02T16:25:02.91Z</time></trkpt><trkpt lat="42.3067786" lon="13.258835"><ele>1148.25</ele><time>2026-05-02T16:25:03.907Z</time></trkpt><trkpt lat="42.3067313" lon="13.2586785"><ele>1150.5</ele><time>2026-05-02T16:25:04.908Z</time></trkpt><trkpt lat="42.3066777" lon="13.258525"><ele>1152.75</ele><time>2026-05-02T16:25:05.908Z</time></trkpt><trkpt lat="42.3066189" lon="13.2583837"><ele>1155.0</ele><time>2026-05-02T16:25:06.907Z</time></trkpt><trkpt lat="42.3065575" lon="13.2582523"><ele>1155.0</ele><time>2026-05-02T16:25:07.908Z</time></trkpt><trkpt lat="42.3064897" lon="13.258137"><ele>1155.0</ele><time>2026-05-02T16:25:08.907Z</time></trkpt><trkpt lat="42.3064184" lon="13.2580345"><ele>1155.0</ele><time>2026-05-02T16:25:09.908Z</time></trkpt><trkpt lat="42.3063389" lon="13.2579405"><ele>1155.0</ele><time>2026-05-02T16:25:10.909Z</time></trkpt><trkpt lat="42.3062507" lon="13.2578682"><ele>1155.0</ele><time>2026-05-02T16:25:11.909Z</time></trkpt><trkpt lat="42.306155" lon="13.2578203"><ele>1157.0</ele><time>2026-05-02T16:25:12.909Z</time></trkpt><trkpt lat="42.3060491" lon="13.2577954"><ele>1159.0</ele><time>2026-05-02T16:25:13.909Z</time></trkpt><trkpt lat="42.3059336" lon="13.2577878"><ele>1161.0</ele><time>2026-05-02T16:25:14.908Z</time></trkpt><trkpt lat="42.3058114" lon="13.25779"><ele>1163.0</ele><time>2026-05-02T16:25:15.909Z</time></trkpt><trkpt lat="42.3056896" lon="13.2578031"><ele>1161.75</ele><time>2026-05-02T16:25:16.908Z</time></trkpt><trkpt lat="42.3055616" lon="13.2578322"><ele>1160.5</ele><time>2026-05-02T16:25:17.908Z</time></trkpt><trkpt lat="42.3054389" lon="13.2578637"><ele>1159.25</ele><time>2026-05-02T16:25:18.908Z</time></trkpt><trkpt lat="42.3053137" lon="13.2578853"><ele>1158.0</ele><time>2026-05-02T16:25:19.908Z</time></trkpt><trkpt lat="42.3051894" lon="13.2578855"><ele>1158.0</ele><time>2026-05-02T16:25:20.909Z</time></trkpt><trkpt lat="42.3050621" lon="13.2578712"><ele>1158.0</ele><time>2026-05-02T16:25:21.908Z</time></trkpt><trkpt lat="42.3049299" lon="13.2578466"><ele>1158.0</ele><time>2026-05-02T16:25:22.908Z</time></trkpt><trkpt lat="42.3047979" lon="13.2578294"><ele>1158.0</ele><time>2026-05-02T16:25:23.908Z</time></trkpt><trkpt lat="42.3046744" lon="13.2578456"><ele>1159.5</ele><time>2026-05-02T16:25:24.908Z</time></trkpt><trkpt lat="42.3045514" lon="13.2578629"><ele>1161.0</ele><time>2026-05-02T16:25:25.908Z</time></trkpt><trkpt lat="42.3044322" lon="13.2579048"><ele>1162.5</ele><time>2026-05-02T16:25:26.909Z</time></trkpt><trkpt lat="42.3043147" lon="13.2579449"><ele>1164.0</ele><time>2026-05-02T16:25:27.909Z</time></trkpt><trkpt lat="42.3041983" lon="13.2579888"><ele>1164.0</ele><time>2026-05-02T16:25:28.909Z</time></trkpt><trkpt lat="42.304085" lon="13.2580304"><ele>1164.0</ele><time>2026-05-02T16:25:29.907Z</time></trkpt><trkpt lat="42.3039698" lon="13.2580786"><ele>1164.0</ele><time>2026-05-02T16:25:30.909Z</time></trkpt><trkpt lat="42.3038564" lon="13.2581245"><ele>1164.0</ele><time>2026-05-02T16:25:31.908Z</time></trkpt><trkpt lat="42.3037377" lon="13.258173"><ele>1155.25</ele><time>2026-05-02T16:25:32.909Z</time></trkpt><trkpt lat="42.3036232" lon="13.2582167"><ele>1146.5</ele><time>2026-05-02T16:25:33.909Z</time></trkpt><trkpt lat="42.3035105" lon="13.2582638"><ele>1137.75</ele><time>2026-05-02T16:25:34.907Z</time></trkpt><trkpt lat="42.3033983" lon="13.2582974"><ele>1129.0</ele><time>2026-05-02T16:25:35.909Z</time></trkpt><trkpt lat="42.303296" lon="13.2583141"><ele>1129.0</ele><time>2026-05-02T16:25:36.909Z</time></trkpt><trkpt lat="42.3031976" lon="13.2582921"><ele>1129.0</ele><time>2026-05-02T16:25:37.907Z</time></trkpt><trkpt lat="42.3031027" lon="13.2582361"><ele>1129.0</ele><time>2026-05-02T16:25:38.908Z</time></trkpt><trkpt lat="42.3030067" lon="13.2581417"><ele>1129.0</ele><time>2026-05-02T16:25:39.908Z</time></trkpt><trkpt lat="42.3029111" lon="13.2580385"><ele>1129.0</ele><time>2026-05-02T16:25:40.909Z</time></trkpt><trkpt lat="42.3028207" lon="13.2579265"><ele>1130.0</ele><time>2026-05-02T16:25:41.908Z</time></trkpt><trkpt lat="42.3027343" lon="13.2578146"><ele>1131.0</ele><time>2026-05-02T16:25:42.909Z</time></trkpt><trkpt lat="42.302645" lon="13.2577008"><ele>1132.0</ele><time>2026-05-02T16:25:43.909Z</time></trkpt><trkpt lat="42.3025561" lon="13.2575955"><ele>1133.0</ele><time>2026-05-02T16:25:44.908Z</time></trkpt><trkpt lat="42.3024653" lon="13.2574882"><ele>1133.0</ele><time>2026-05-02T16:25:45.908Z</time></trkpt><trkpt lat="42.3023751" lon="13.2573867"><ele>1133.0</ele><time>2026-05-02T16:25:46.909Z</time></trkpt><trkpt lat="42.3022861" lon="13.2572895"><ele>1133.0</ele><time>2026-05-02T16:25:47.907Z</time></trkpt><trkpt lat="42.3021926" lon="13.2572011"><ele>1133.0</ele><time>2026-05-02T16:25:48.907Z</time></trkpt><trkpt lat="42.3020883" lon="13.2571268"><ele>1132.25</ele><time>2026-05-02T16:25:49.908Z</time></trkpt><trkpt lat="42.3019887" lon="13.2570576"><ele>1131.5</ele><time>2026-05-02T16:25:50.908Z</time></trkpt><trkpt lat="42.3018867" lon="13.2569854"><ele>1130.75</ele><time>2026-05-02T16:25:51.908Z</time></trkpt><trkpt lat="42.3017872" lon="13.2569093"><ele>1130.0</ele><time>2026-05-02T16:25:52.908Z</time></trkpt><trkpt lat="42.3016876" lon="13.2568428"><ele>1130.0</ele><time>2026-05-02T16:25:53.91Z</time></trkpt><trkpt lat="42.3015914" lon="13.2567948"><ele>1130.0</ele><time>2026-05-02T16:25:54.909Z</time></trkpt><trkpt lat="42.3014963" lon="13.2567748"><ele>1130.0</ele><time>2026-05-02T16:25:55.907Z</time></trkpt><trkpt lat="42.3014132" lon="13.25679"><ele>1130.0</ele><time>2026-05-02T16:25:56.909Z</time></trkpt><trkpt lat="42.3013369" lon="13.2568318"><ele>1130.0</ele><time>2026-05-02T16:25:57.908Z</time></trkpt><trkpt lat="42.3012862" lon="13.2569182"><ele>1130.0</ele><time>2026-05-02T16:25:58.91Z</time></trkpt><trkpt lat="42.3012398" lon="13.2570385"><ele>1135.25</ele><time>2026-05-02T16:25:59.909Z</time></trkpt><trkpt lat="42.3011958" lon="13.2571883"><ele>1140.5</ele><time>2026-05-02T16:26:00.909Z</time></trkpt><trkpt lat="42.301157" lon="13.2573608"><ele>1145.75</ele><time>2026-05-02T16:26:01.909Z</time></trkpt><trkpt lat="42.3011282" lon="13.2575464"><ele>1151.0</ele><time>2026-05-02T16:26:02.909Z</time></trkpt><trkpt lat="42.3011002" lon="13.2577418"><ele>1151.0</ele><time>2026-05-02T16:26:03.908Z</time></trkpt><trkpt lat="42.30108" lon="13.2579455"><ele>1151.0</ele><time>2026-05-02T16:26:04.91Z</time></trkpt><trkpt lat="42.3010536" lon="13.2581475"><ele>1151.0</ele><time>2026-05-02T16:26:05.91Z</time></trkpt><trkpt lat="42.3010293" lon="13.2583493"><ele>1148.0</ele><time>2026-05-02T16:26:06.911Z</time></trkpt><trkpt lat="42.3010063" lon="13.2585393"><ele>1145.0</ele><time>2026-05-02T16:26:07.91Z</time></trkpt><trkpt lat="42.3009838" lon="13.2587263"><ele>1142.0</ele><time>2026-05-02T16:26:08.909Z</time></trkpt><trkpt lat="42.3009697" lon="13.2589214"><ele>1139.0</ele><time>2026-05-02T16:26:09.908Z</time></trkpt><trkpt lat="42.3009629" lon="13.2591241"><ele>1138.0</ele><time>2026-05-02T16:26:10.909Z</time></trkpt><trkpt lat="42.3009724" lon="13.2593236"><ele>1137.0</ele><time>2026-05-02T16:26:11.911Z</time></trkpt><trkpt lat="42.3009794" lon="13.2595175"><ele>1136.0</ele><time>2026-05-02T16:26:12.91Z</time></trkpt><trkpt lat="42.3009979" lon="13.2597021"><ele>1135.0</ele><time>2026-05-02T16:26:13.91Z</time></trkpt><trkpt lat="42.3010243" lon="13.2598805"><ele>1134.25</ele><time>2026-05-02T16:26:14.909Z</time></trkpt><trkpt lat="42.3010533" lon="13.2600502"><ele>1133.5</ele><time>2026-05-02T16:26:15.908Z</time></trkpt><trkpt lat="42.3010876" lon="13.2602301"><ele>1132.75</ele><time>2026-05-02T16:26:16.909Z</time></trkpt><trkpt lat="42.3011184" lon="13.2604071"><ele>1132.0</ele><time>2026-05-02T16:26:17.908Z</time></trkpt><trkpt lat="42.301143" lon="13.2605634"><ele>1129.4</ele><time>2026-05-02T16:26:18.907Z</time></trkpt><trkpt lat="42.3011592" lon="13.2607058"><ele>1126.8000000000002</ele><time>2026-05-02T16:26:19.908Z</time></trkpt><trkpt lat="42.3011415" lon="13.2608394"><ele>1124.2</ele><time>2026-05-02T16:26:20.908Z</time></trkpt><trkpt lat="42.3011345" lon="13.2609717"><ele>1121.6000000000001</ele><time>2026-05-02T16:26:21.91Z</time></trkpt><trkpt lat="42.3010804" lon="13.2610652"><ele>1119.0</ele><time>2026-05-02T16:26:22.908Z</time></trkpt><trkpt lat="42.3010029" lon="13.2611545"><ele>1119.0</ele><time>2026-05-02T16:26:23.908Z</time></trkpt><trkpt lat="42.3009112" lon="13.2612406"><ele>1119.0</ele><time>2026-05-02T16:26:24.908Z</time></trkpt><trkpt lat="42.3007975" lon="13.2613276"><ele>1119.0</ele><time>2026-05-02T16:26:25.909Z</time></trkpt><trkpt lat="42.3006757" lon="13.2613885"><ele>1119.0</ele><time>2026-05-02T16:26:26.908Z</time></trkpt><trkpt lat="42.3005551" lon="13.2614494"><ele>1117.25</ele><time>2026-05-02T16:26:27.908Z</time></trkpt><trkpt lat="42.3004492" lon="13.261523"><ele>1115.5</ele><time>2026-05-02T16:26:28.912Z</time></trkpt><trkpt lat="42.3003551" lon="13.2616175"><ele>1113.75</ele><time>2026-05-02T16:26:29.91Z</time></trkpt><trkpt lat="42.3002852" lon="13.2617403"><ele>1112.0</ele><time>2026-05-02T16:26:30.909Z</time></trkpt><trkpt lat="42.300232" lon="13.2618928"><ele>1112.0</ele><time>2026-05-02T16:26:31.908Z</time></trkpt><trkpt lat="42.3001808" lon="13.2620285"><ele>1112.0</ele><time>2026-05-02T16:26:32.909Z</time></trkpt><trkpt lat="42.3001143" lon="13.2621441"><ele>1112.0</ele><time>2026-05-02T16:26:33.91Z</time></trkpt><trkpt lat="42.3000228" lon="13.2622284"><ele>1112.0</ele><time>2026-05-02T16:26:34.908Z</time></trkpt><trkpt lat="42.2999091" lon="13.2622955"><ele>1108.0</ele><time>2026-05-02T16:26:35.909Z</time></trkpt><trkpt lat="42.2997982" lon="13.2623691"><ele>1104.0</ele><time>2026-05-02T16:26:36.909Z</time></trkpt><trkpt lat="42.2997018" lon="13.2624628"><ele>1100.0</ele><time>2026-05-02T16:26:37.908Z</time></trkpt><trkpt lat="42.2996159" lon="13.2625524"><ele>1096.0</ele><time>2026-05-02T16:26:38.907Z</time></trkpt><trkpt lat="42.2995354" lon="13.2626241"><ele>1092.0</ele><time>2026-05-02T16:26:39.908Z</time></trkpt><trkpt lat="42.2994478" lon="13.2626501"><ele>1093.2</ele><time>2026-05-02T16:26:40.907Z</time></trkpt><trkpt lat="42.2993607" lon="13.2626221"><ele>1094.4</ele><time>2026-05-02T16:26:41.908Z</time></trkpt><trkpt lat="42.2992787" lon="13.2625461"><ele>1095.6</ele><time>2026-05-02T16:26:42.908Z</time></trkpt><trkpt lat="42.2992133" lon="13.2624269"><ele>1096.8</ele><time>2026-05-02T16:26:43.908Z</time></trkpt><trkpt lat="42.2991578" lon="13.2622771"><ele>1098.0</ele><time>2026-05-02T16:26:44.908Z</time></trkpt><trkpt lat="42.2991152" lon="13.2621175"><ele>1098.0</ele><time>2026-05-02T16:26:45.91Z</time></trkpt><trkpt lat="42.2990781" lon="13.2619575"><ele>1098.0</ele><time>2026-05-02T16:26:46.909Z</time></trkpt><trkpt lat="42.2990438" lon="13.2618075"><ele>1098.0</ele><time>2026-05-02T16:26:47.908Z</time></trkpt><trkpt lat="42.2990098" lon="13.2616776"><ele>1098.0</ele><time>2026-05-02T16:26:48.908Z</time></trkpt><trkpt lat="42.298962" lon="13.2615727"><ele>1098.0</ele><time>2026-05-02T16:26:49.907Z</time></trkpt><trkpt lat="42.2988971" lon="13.2614979"><ele>1097.8</ele><time>2026-05-02T16:26:50.908Z</time></trkpt><trkpt lat="42.298826" lon="13.2614789"><ele>1097.6</ele><time>2026-05-02T16:26:51.907Z</time></trkpt><trkpt lat="42.2987541" lon="13.2615027"><ele>1097.4</ele><time>2026-05-02T16:26:52.912Z</time></trkpt><trkpt lat="42.2986777" lon="13.2615738"><ele>1097.2</ele><time>2026-05-02T16:26:53.915Z</time></trkpt><trkpt lat="42.2985991" lon="13.2616662"><ele>1097.0</ele><time>2026-05-02T16:26:54.912Z</time></trkpt><trkpt lat="42.2985076" lon="13.2617764"><ele>1097.0</ele><time>2026-05-02T16:26:55.911Z</time></trkpt><trkpt lat="42.2984056" lon="13.2618642"><ele>1097.0</ele><time>2026-05-02T16:26:56.91Z</time></trkpt><trkpt lat="42.2982946" lon="13.261918"><ele>1097.0</ele><time>2026-05-02T16:26:57.909Z</time></trkpt><trkpt lat="42.2981837" lon="13.2619567"><ele>1097.0</ele><time>2026-05-02T16:26:58.909Z</time></trkpt><trkpt lat="42.2980752" lon="13.2620022"><ele>1096.6</ele><time>2026-05-02T16:26:59.91Z</time></trkpt><trkpt lat="42.2979855" lon="13.2620738"><ele>1096.2</ele><time>2026-05-02T16:27:00.908Z</time></trkpt><trkpt lat="42.2979214" lon="13.2621734"><ele>1095.8</ele><time>2026-05-02T16:27:01.909Z</time></trkpt><trkpt lat="42.297884" lon="13.262297"><ele>1095.4</ele><time>2026-05-02T16:27:02.912Z</time></trkpt><trkpt lat="42.2978819" lon="13.262441"><ele>1095.0</ele><time>2026-05-02T16:27:03.909Z</time></trkpt><trkpt lat="42.2978809" lon="13.2625975"><ele>1095.0</ele><time>2026-05-02T16:27:04.908Z</time></trkpt><trkpt lat="42.2978561" lon="13.2627629"><ele>1095.0</ele><time>2026-05-02T16:27:05.909Z</time></trkpt><trkpt lat="42.2978175" lon="13.2629085"><ele>1095.0</ele><time>2026-05-02T16:27:06.908Z</time></trkpt><trkpt lat="42.2977703" lon="13.2630248"><ele>1095.0</ele><time>2026-05-02T16:27:07.909Z</time></trkpt><trkpt lat="42.297714" lon="13.2631131"><ele>1095.0</ele><time>2026-05-02T16:27:08.908Z</time></trkpt><trkpt lat="42.2976415" lon="13.2631801"><ele>1093.4</ele><time>2026-05-02T16:27:09.908Z</time></trkpt><trkpt lat="42.297551" lon="13.2632185"><ele>1091.8</ele><time>2026-05-02T16:27:10.909Z</time></trkpt><trkpt lat="42.2974382" lon="13.2632249"><ele>1090.2</ele><time>2026-05-02T16:27:11.908Z</time></trkpt><trkpt lat="42.2973218" lon="13.2631966"><ele>1088.6</ele><time>2026-05-02T16:27:12.908Z</time></trkpt><trkpt lat="42.2972131" lon="13.2631578"><ele>1087.0</ele><time>2026-05-02T16:27:13.909Z</time></trkpt><trkpt lat="42.2971095" lon="13.2631481"><ele>1087.0</ele><time>2026-05-02T16:27:14.909Z</time></trkpt><trkpt lat="42.2970114" lon="13.2631778"><ele>1087.0</ele><time>2026-05-02T16:27:15.908Z</time></trkpt><trkpt lat="42.2969191" lon="13.2632572"><ele>1087.0</ele><time>2026-05-02T16:27:16.909Z</time></trkpt><trkpt lat="42.2968348" lon="13.2633616"><ele>1087.0</ele><time>2026-05-02T16:27:17.908Z</time></trkpt><trkpt lat="42.2967801" lon="13.2634895"><ele>1087.0</ele><time>2026-05-02T16:27:18.907Z</time></trkpt><trkpt lat="42.2967505" lon="13.2636281"><ele>1087.0</ele><time>2026-05-02T16:27:19.909Z</time></trkpt><trkpt lat="42.2967543" lon="13.2637787"><ele>1087.0</ele><time>2026-05-02T16:27:20.908Z</time></trkpt><trkpt lat="42.2967678" lon="13.2639245"><ele>1087.0</ele><time>2026-05-02T16:27:21.91Z</time></trkpt><trkpt lat="42.2967615" lon="13.2640659"><ele>1087.0</ele><time>2026-05-02T16:27:22.909Z</time></trkpt><trkpt lat="42.2967263" lon="13.2641946"><ele>1087.0</ele><time>2026-05-02T16:27:23.909Z</time></trkpt><trkpt lat="42.2966642" lon="13.264309"><ele>1083.8</ele><time>2026-05-02T16:27:24.909Z</time></trkpt><trkpt lat="42.2965861" lon="13.2644132"><ele>1080.6</ele><time>2026-05-02T16:27:25.909Z</time></trkpt><trkpt lat="42.2965208" lon="13.2645306"><ele>1077.3999999999999</ele><time>2026-05-02T16:27:26.908Z</time></trkpt><trkpt lat="42.2964953" lon="13.2646698"><ele>1074.2</ele><time>2026-05-02T16:27:27.907Z</time></trkpt><trkpt lat="42.2964919" lon="13.2648121"><ele>1071.0</ele><time>2026-05-02T16:27:28.908Z</time></trkpt><trkpt lat="42.2964893" lon="13.2649409"><ele>1068.0</ele><time>2026-05-02T16:27:29.91Z</time></trkpt><trkpt lat="42.2964868" lon="13.265043"><ele>1065.0</ele><time>2026-05-02T16:27:30.908Z</time></trkpt><trkpt lat="42.2964742" lon="13.2651833"><ele>1062.0</ele><time>2026-05-02T16:27:32.908Z</time></trkpt><trkpt lat="42.2964597" lon="13.2652785"><ele>1059.0</ele><time>2026-05-02T16:27:34.908Z</time></trkpt><trkpt lat="42.2964521" lon="13.265473"><ele>1056.0</ele><time>2026-05-02T16:27:36.907Z</time></trkpt><trkpt lat="42.2964217" lon="13.265597"><ele>1054.0</ele><time>2026-05-02T16:27:37.908Z</time></trkpt><trkpt lat="42.2963869" lon="13.2657233"><ele>1052.0</ele><time>2026-05-02T16:27:38.91Z</time></trkpt><trkpt lat="42.2963511" lon="13.265841"><ele>1050.0</ele><time>2026-05-02T16:27:39.909Z</time></trkpt><trkpt lat="42.2963266" lon="13.2659386"><ele>1048.0</ele><time>2026-05-02T16:27:40.909Z</time></trkpt><trkpt lat="42.2963341" lon="13.266086"><ele>1046.0</ele><time>2026-05-02T16:27:42.909Z</time></trkpt><trkpt lat="42.2964361" lon="13.2661089"><ele>1046.0</ele><time>2026-05-02T16:27:44.909Z</time></trkpt><trkpt lat="42.2965028" lon="13.2660643"><ele>1046.0</ele><time>2026-05-02T16:27:45.908Z</time></trkpt><trkpt lat="42.2965858" lon="13.2660082"><ele>1046.0</ele><time>2026-05-02T16:27:46.909Z</time></trkpt><trkpt lat="42.2966827" lon="13.2659668"><ele>1046.0</ele><time>2026-05-02T16:27:47.909Z</time></trkpt><trkpt lat="42.2967773" lon="13.2659358"><ele>1046.0</ele><time>2026-05-02T16:27:48.91Z</time></trkpt><trkpt lat="42.296864" lon="13.2659191"><ele>1046.0</ele><time>2026-05-02T16:27:49.909Z</time></trkpt><trkpt lat="42.2969468" lon="13.265924"><ele>1046.0</ele><time>2026-05-02T16:27:50.909Z</time></trkpt><trkpt lat="42.2970247" lon="13.26595"><ele>1046.0</ele><time>2026-05-02T16:27:51.909Z</time></trkpt><trkpt lat="42.2970973" lon="13.2660007"><ele>1046.0</ele><time>2026-05-02T16:27:52.909Z</time></trkpt><trkpt lat="42.2971593" lon="13.2660681"><ele>1046.0</ele><time>2026-05-02T16:27:53.907Z</time></trkpt><trkpt lat="42.2971866" lon="13.2661525"><ele>1046.0</ele><time>2026-05-02T16:27:54.909Z</time></trkpt><trkpt lat="42.2971611" lon="13.2662992"><ele>1046.0</ele><time>2026-05-02T16:27:56.908Z</time></trkpt><trkpt lat="42.2971039" lon="13.266337"><ele>1046.0</ele><time>2026-05-02T16:27:57.908Z</time></trkpt><trkpt lat="42.2970223" lon="13.2663584"><ele>1046.0</ele><time>2026-05-02T16:27:58.91Z</time></trkpt><trkpt lat="42.2969311" lon="13.2664084"><ele>1046.0</ele><time>2026-05-02T16:27:59.91Z</time></trkpt><trkpt lat="42.2968446" lon="13.2664925"><ele>1046.0</ele><time>2026-05-02T16:28:00.908Z</time></trkpt><trkpt lat="42.2967679" lon="13.2666154"><ele>1042.25</ele><time>2026-05-02T16:28:01.909Z</time></trkpt><trkpt lat="42.2967025" lon="13.2667513"><ele>1038.5</ele><time>2026-05-02T16:28:02.909Z</time></trkpt><trkpt lat="42.2966476" lon="13.2669069"><ele>1034.75</ele><time>2026-05-02T16:28:03.909Z</time></trkpt><trkpt lat="42.2965842" lon="13.2670601"><ele>1031.0</ele><time>2026-05-02T16:28:04.909Z</time></trkpt><trkpt lat="42.2965241" lon="13.2672182"><ele>1033.75</ele><time>2026-05-02T16:28:05.909Z</time></trkpt><trkpt lat="42.2964687" lon="13.2673853"><ele>1036.5</ele><time>2026-05-02T16:28:06.909Z</time></trkpt><trkpt lat="42.2964214" lon="13.2675493"><ele>1039.25</ele><time>2026-05-02T16:28:07.909Z</time></trkpt><trkpt lat="42.2963888" lon="13.2677048"><ele>1042.0</ele><time>2026-05-02T16:28:08.908Z</time></trkpt><trkpt lat="42.2963658" lon="13.2678694"><ele>1042.0</ele><time>2026-05-02T16:28:09.909Z</time></trkpt><trkpt lat="42.2963411" lon="13.2680385"><ele>1042.0</ele><time>2026-05-02T16:28:10.909Z</time></trkpt><trkpt lat="42.2963255" lon="13.2682128"><ele>1042.0</ele><time>2026-05-02T16:28:11.908Z</time></trkpt><trkpt lat="42.2963019" lon="13.2683888"><ele>1042.0</ele><time>2026-05-02T16:28:12.909Z</time></trkpt><trkpt lat="42.296268" lon="13.2685645"><ele>1036.25</ele><time>2026-05-02T16:28:13.908Z</time></trkpt><trkpt lat="42.2962172" lon="13.2687344"><ele>1030.5</ele><time>2026-05-02T16:28:14.91Z</time></trkpt><trkpt lat="42.296158" lon="13.2688928"><ele>1024.75</ele><time>2026-05-02T16:28:15.909Z</time></trkpt><trkpt lat="42.2961005" lon="13.2690332"><ele>1019.0</ele><time>2026-05-02T16:28:16.909Z</time></trkpt><trkpt lat="42.2960449" lon="13.2691578"><ele>1016.1666666666667</ele><time>2026-05-02T16:28:17.908Z</time></trkpt><trkpt lat="42.2959953" lon="13.2692601"><ele>1013.3333333333334</ele><time>2026-05-02T16:28:18.909Z</time></trkpt><trkpt lat="42.2959557" lon="13.269349"><ele>1010.5</ele><time>2026-05-02T16:28:19.908Z</time></trkpt><trkpt lat="42.295976" lon="13.2694933"><ele>1007.6666666666667</ele><time>2026-05-02T16:28:21.909Z</time></trkpt><trkpt lat="42.2960361" lon="13.2695243"><ele>1004.8333333333334</ele><time>2026-05-02T16:28:22.908Z</time></trkpt><trkpt lat="42.2961047" lon="13.2695306"><ele>1002.0</ele><time>2026-05-02T16:28:23.908Z</time></trkpt><trkpt lat="42.296192" lon="13.2694847"><ele>1002.0</ele><time>2026-05-02T16:28:24.909Z</time></trkpt><trkpt lat="42.2963041" lon="13.2693844"><ele>1002.0</ele><time>2026-05-02T16:28:25.909Z</time></trkpt><trkpt lat="42.2964191" lon="13.269308"><ele>1002.0</ele><time>2026-05-02T16:28:26.909Z</time></trkpt><trkpt lat="42.2965264" lon="13.2692409"><ele>1002.0</ele><time>2026-05-02T16:28:27.909Z</time></trkpt><trkpt lat="42.2966184" lon="13.269191"><ele>998.3333333333334</ele><time>2026-05-02T16:28:28.908Z</time></trkpt><trkpt lat="42.2966975" lon="13.2691638"><ele>994.6666666666667</ele><time>2026-05-02T16:28:29.908Z</time></trkpt><trkpt lat="42.2967635" lon="13.2691672"><ele>991.0</ele><time>2026-05-02T16:28:30.909Z</time></trkpt><trkpt lat="42.296819" lon="13.2692158"><ele>987.3333333333334</ele><time>2026-05-02T16:28:31.91Z</time></trkpt><trkpt lat="42.2968578" lon="13.2693087"><ele>983.6666666666667</ele><time>2026-05-02T16:28:32.909Z</time></trkpt><trkpt lat="42.2968987" lon="13.2694239"><ele>980.0</ele><time>2026-05-02T16:28:33.908Z</time></trkpt><trkpt lat="42.2969316" lon="13.2695784"><ele>980.0</ele><time>2026-05-02T16:28:34.909Z</time></trkpt><trkpt lat="42.2969584" lon="13.2697403"><ele>980.0</ele><time>2026-05-02T16:28:35.909Z</time></trkpt><trkpt lat="42.2969851" lon="13.2699063"><ele>980.0</ele><time>2026-05-02T16:28:36.909Z</time></trkpt><trkpt lat="42.2970024" lon="13.2700781"><ele>980.0</ele><time>2026-05-02T16:28:37.908Z</time></trkpt><trkpt lat="42.2970204" lon="13.2702459"><ele>978.75</ele><time>2026-05-02T16:28:38.909Z</time></trkpt><trkpt lat="42.2970431" lon="13.2704133"><ele>977.5</ele><time>2026-05-02T16:28:39.909Z</time></trkpt><trkpt lat="42.2970789" lon="13.2705761"><ele>976.25</ele><time>2026-05-02T16:28:40.91Z</time></trkpt><trkpt lat="42.2971241" lon="13.2707389"><ele>975.0</ele><time>2026-05-02T16:28:41.908Z</time></trkpt><trkpt lat="42.2971731" lon="13.2709021"><ele>972.25</ele><time>2026-05-02T16:28:42.91Z</time></trkpt><trkpt lat="42.2972269" lon="13.2710618"><ele>969.5</ele><time>2026-05-02T16:28:43.908Z</time></trkpt><trkpt lat="42.2972824" lon="13.2712175"><ele>966.75</ele><time>2026-05-02T16:28:44.908Z</time></trkpt><trkpt lat="42.2973569" lon="13.2713573"><ele>964.0</ele><time>2026-05-02T16:28:45.908Z</time></trkpt><trkpt lat="42.2974412" lon="13.2714879"><ele>960.8000000000001</ele><time>2026-05-02T16:28:46.907Z</time></trkpt><trkpt lat="42.2975349" lon="13.2716101"><ele>957.6000000000001</ele><time>2026-05-02T16:28:47.908Z</time></trkpt><trkpt lat="42.2976249" lon="13.2717102"><ele>954.4</ele><time>2026-05-02T16:28:48.909Z</time></trkpt><trkpt lat="42.2977135" lon="13.271815"><ele>951.2</ele><time>2026-05-02T16:28:49.907Z</time></trkpt><trkpt lat="42.2977879" lon="13.2718688"><ele>948.0</ele><time>2026-05-02T16:28:50.909Z</time></trkpt><trkpt lat="42.2978622" lon="13.271894"><ele>948.0</ele><time>2026-05-02T16:28:51.909Z</time></trkpt><trkpt lat="42.2979324" lon="13.2718712"><ele>948.0</ele><time>2026-05-02T16:28:52.908Z</time></trkpt><trkpt lat="42.2979959" lon="13.2717978"><ele>948.0</ele><time>2026-05-02T16:28:53.909Z</time></trkpt><trkpt lat="42.2980505" lon="13.271684"><ele>948.0</ele><time>2026-05-02T16:28:54.909Z</time></trkpt><trkpt lat="42.2981001" lon="13.2715508"><ele>948.0</ele><time>2026-05-02T16:28:55.909Z</time></trkpt><trkpt lat="42.2981506" lon="13.2714304"><ele>944.4</ele><time>2026-05-02T16:28:56.909Z</time></trkpt><trkpt lat="42.2981902" lon="13.2713465"><ele>940.8</ele><time>2026-05-02T16:28:57.909Z</time></trkpt><trkpt lat="42.2982949" lon="13.2712918"><ele>937.2</ele><time>2026-05-02T16:28:59.908Z</time></trkpt><trkpt lat="42.2983677" lon="13.2713431"><ele>933.6</ele><time>2026-05-02T16:29:00.909Z</time></trkpt><trkpt lat="42.2984481" lon="13.2714354"><ele>930.0</ele><time>2026-05-02T16:29:01.909Z</time></trkpt><trkpt lat="42.2985364" lon="13.2715611"><ele>930.0</ele><time>2026-05-02T16:29:02.909Z</time></trkpt><trkpt lat="42.2986123" lon="13.2717039"><ele>930.0</ele><time>2026-05-02T16:29:03.908Z</time></trkpt><trkpt lat="42.2986781" lon="13.2718446"><ele>930.0</ele><time>2026-05-02T16:29:04.909Z</time></trkpt><trkpt lat="42.2987402" lon="13.2719769"><ele>930.0</ele><time>2026-05-02T16:29:05.909Z</time></trkpt><trkpt lat="42.2988082" lon="13.2720873"><ele>930.0</ele><time>2026-05-02T16:29:06.909Z</time></trkpt><trkpt lat="42.2988835" lon="13.2721791"><ele>930.0</ele><time>2026-05-02T16:29:07.909Z</time></trkpt><trkpt lat="42.2989735" lon="13.272238"><ele>930.0</ele><time>2026-05-02T16:29:08.909Z</time></trkpt><trkpt lat="42.2990676" lon="13.2722911"><ele>930.0</ele><time>2026-05-02T16:29:09.908Z</time></trkpt><trkpt lat="42.2991897" lon="13.2723123"><ele>930.0</ele><time>2026-05-02T16:29:10.908Z</time></trkpt><trkpt lat="42.2993333" lon="13.2723255"><ele>925.75</ele><time>2026-05-02T16:29:11.908Z</time></trkpt><trkpt lat="42.2994663" lon="13.2723539"><ele>921.5</ele><time>2026-05-02T16:29:12.91Z</time></trkpt><trkpt lat="42.2995994" lon="13.2723911"><ele>917.25</ele><time>2026-05-02T16:29:13.909Z</time></trkpt><trkpt lat="42.2997327" lon="13.2724374"><ele>913.0</ele><time>2026-05-02T16:29:14.91Z</time></trkpt><trkpt lat="42.2998642" lon="13.2724838"><ele>910.0</ele><time>2026-05-02T16:29:15.909Z</time></trkpt><trkpt lat="42.2999807" lon="13.2725344"><ele>907.0</ele><time>2026-05-02T16:29:16.909Z</time></trkpt><trkpt lat="42.3000885" lon="13.2725921"><ele>904.0</ele><time>2026-05-02T16:29:17.909Z</time></trkpt><trkpt lat="42.3001814" lon="13.2726479"><ele>901.0</ele><time>2026-05-02T16:29:18.91Z</time></trkpt><trkpt lat="42.3002455" lon="13.2727052"><ele>898.0</ele><time>2026-05-02T16:29:19.909Z</time></trkpt><trkpt lat="42.300285" lon="13.272774"><ele>898.0</ele><time>2026-05-02T16:29:20.909Z</time></trkpt><trkpt lat="42.3002817" lon="13.2729503"><ele>898.0</ele><time>2026-05-02T16:29:22.909Z</time></trkpt><trkpt lat="42.30025" lon="13.273044"><ele>898.0</ele><time>2026-05-02T16:29:23.909Z</time></trkpt><trkpt lat="42.3002489" lon="13.2731459"><ele>898.0</ele><time>2026-05-02T16:29:24.909Z</time></trkpt><trkpt lat="42.3002737" lon="13.2732665"><ele>898.0</ele><time>2026-05-02T16:29:25.91Z</time></trkpt><trkpt lat="42.3003279" lon="13.2733974"><ele>896.5</ele><time>2026-05-02T16:29:26.909Z</time></trkpt><trkpt lat="42.3003844" lon="13.273539"><ele>895.0</ele><time>2026-05-02T16:29:27.909Z</time></trkpt><trkpt lat="42.3004384" lon="13.2736796"><ele>893.5</ele><time>2026-05-02T16:29:28.909Z</time></trkpt><trkpt lat="42.3004945" lon="13.273822"><ele>892.0</ele><time>2026-05-02T16:29:29.908Z</time></trkpt><trkpt lat="42.3005484" lon="13.2739687"><ele>889.75</ele><time>2026-05-02T16:29:30.909Z</time></trkpt><trkpt lat="42.3006071" lon="13.274115"><ele>887.5</ele><time>2026-05-02T16:29:31.909Z</time></trkpt><trkpt lat="42.3006617" lon="13.274256"><ele>885.25</ele><time>2026-05-02T16:29:32.908Z</time></trkpt><trkpt lat="42.3007131" lon="13.2743978"><ele>883.0</ele><time>2026-05-02T16:29:33.909Z</time></trkpt><trkpt lat="42.3007642" lon="13.2745381"><ele>883.0</ele><time>2026-05-02T16:29:34.909Z</time></trkpt><trkpt lat="42.3008097" lon="13.2746421"><ele>883.0</ele><time>2026-05-02T16:29:35.908Z</time></trkpt><trkpt lat="42.3008646" lon="13.2747393"><ele>883.0</ele><time>2026-05-02T16:29:36.908Z</time></trkpt><trkpt lat="42.3009123" lon="13.2748486"><ele>883.0</ele><time>2026-05-02T16:29:38.908Z</time></trkpt><trkpt lat="42.3009715" lon="13.2749498"><ele>883.0</ele><time>2026-05-02T16:29:43.909Z</time></trkpt><trkpt lat="42.3010449" lon="13.27506"><ele>880.4999999999999</ele><time>2026-05-02T16:29:45.908Z</time></trkpt><trkpt lat="42.3010921" lon="13.2751439"><ele>878.0</ele><time>2026-05-02T16:29:46.909Z</time></trkpt><trkpt lat="42.3011439" lon="13.2752332"><ele>875.5</ele><time>2026-05-02T16:29:47.909Z</time></trkpt><trkpt lat="42.3011898" lon="13.2753261"><ele>873.0</ele><time>2026-05-02T16:29:48.909Z</time></trkpt><trkpt lat="42.3012297" lon="13.2754135"><ele>870.4999999999999</ele><time>2026-05-02T16:29:49.908Z</time></trkpt><trkpt lat="42.3012682" lon="13.2754884"><ele>868.0</ele><time>2026-05-02T16:29:50.909Z</time></trkpt><trkpt lat="42.3013476" lon="13.2756111"><ele>866.1666666666666</ele><time>2026-05-02T16:29:52.91Z</time></trkpt><trkpt lat="42.3014126" lon="13.2757141"><ele>864.3333333333333</ele><time>2026-05-02T16:29:54.909Z</time></trkpt><trkpt lat="42.3014725" lon="13.2757887"><ele>862.5</ele><time>2026-05-02T16:29:56.909Z</time></trkpt><trkpt lat="42.3015495" lon="13.2757518"><ele>860.6666666666667</ele><time>2026-05-02T16:29:58.909Z</time></trkpt><trkpt lat="42.3015969" lon="13.2756866"><ele>858.8333333333334</ele><time>2026-05-02T16:29:59.909Z</time></trkpt><trkpt lat="42.3016397" lon="13.2756035"><ele>857.0</ele><time>2026-05-02T16:30:00.908Z</time></trkpt><trkpt lat="42.3016832" lon="13.2755082"><ele>857.0000000000001</ele><time>2026-05-02T16:30:01.909Z</time></trkpt><trkpt lat="42.3017202" lon="13.275417"><ele>857.0</ele><time>2026-05-02T16:30:02.909Z</time></trkpt><trkpt lat="42.3017552" lon="13.2753389"><ele>857.0</ele><time>2026-05-02T16:30:03.908Z</time></trkpt><trkpt lat="42.3017909" lon="13.2752682"><ele>857.0</ele><time>2026-05-02T16:30:04.909Z</time></trkpt><trkpt lat="42.3018555" lon="13.2752377"><ele>857.0000000000001</ele><time>2026-05-02T16:30:06.909Z</time></trkpt><trkpt lat="42.3019131" lon="13.2753211"><ele>857.0</ele><time>2026-05-02T16:30:11.909Z</time></trkpt><trkpt lat="42.3019631" lon="13.2754655"><ele>857.0</ele><time>2026-05-02T16:30:13.91Z</time></trkpt><trkpt lat="42.3019985" lon="13.2755752"><ele>857.0</ele><time>2026-05-02T16:30:14.908Z</time></trkpt><trkpt lat="42.3020437" lon="13.2757188"><ele>857.0</ele><time>2026-05-02T16:30:15.909Z</time></trkpt><trkpt lat="42.3020769" lon="13.2758387"><ele>857.0</ele><time>2026-05-02T16:30:16.909Z</time></trkpt><trkpt lat="42.3021122" lon="13.2759611"><ele>857.0</ele><time>2026-05-02T16:30:17.908Z</time></trkpt><trkpt lat="42.302147" lon="13.276078"><ele>856.0000000000001</ele><time>2026-05-02T16:30:18.909Z</time></trkpt><trkpt lat="42.3021767" lon="13.2761837"><ele>855.0</ele><time>2026-05-02T16:30:19.909Z</time></trkpt><trkpt lat="42.302198" lon="13.2762729"><ele>854.0</ele><time>2026-05-02T16:30:20.908Z</time></trkpt><trkpt lat="42.3022272" lon="13.2764203"><ele>853.0</ele><time>2026-05-02T16:30:22.909Z</time></trkpt><trkpt lat="42.3022252" lon="13.2765335"><ele>852.0000000000001</ele><time>2026-05-02T16:30:24.909Z</time></trkpt><trkpt lat="42.3022159" lon="13.2766386"><ele>851.0</ele><time>2026-05-02T16:30:26.909Z</time></trkpt><trkpt lat="42.3021776" lon="13.2767768"><ele>850.4285714285714</ele><time>2026-05-02T16:30:28.909Z</time></trkpt><trkpt lat="42.3021434" lon="13.2768576"><ele>849.8571428571429</ele><time>2026-05-02T16:30:29.909Z</time></trkpt><trkpt lat="42.3021125" lon="13.276945"><ele>849.2857142857142</ele><time>2026-05-02T16:30:30.908Z</time></trkpt><trkpt lat="42.302087" lon="13.2770398"><ele>848.7142857142858</ele><time>2026-05-02T16:30:31.909Z</time></trkpt><trkpt lat="42.3020662" lon="13.2771387"><ele>848.1428571428571</ele><time>2026-05-02T16:30:32.909Z</time></trkpt><trkpt lat="42.3020516" lon="13.2772408"><ele>847.5714285714286</ele><time>2026-05-02T16:30:33.909Z</time></trkpt><trkpt lat="42.3020471" lon="13.2773481"><ele>847.0</ele><time>2026-05-02T16:30:34.91Z</time></trkpt><trkpt lat="42.3020547" lon="13.2774481"><ele>845.3333333333333</ele><time>2026-05-02T16:30:35.908Z</time></trkpt><trkpt lat="42.3020818" lon="13.2775534"><ele>843.6666666666666</ele><time>2026-05-02T16:30:36.909Z</time></trkpt><trkpt lat="42.3021173" lon="13.277647"><ele>842.0</ele><time>2026-05-02T16:30:37.909Z</time></trkpt><trkpt lat="42.3021574" lon="13.2777273"><ele>840.3333333333333</ele><time>2026-05-02T16:30:38.909Z</time></trkpt><trkpt lat="42.3021989" lon="13.2777966"><ele>838.6666666666666</ele><time>2026-05-02T16:30:39.908Z</time></trkpt><trkpt lat="42.3022685" lon="13.2778839"><ele>837.0</ele><time>2026-05-02T16:30:41.909Z</time></trkpt><trkpt lat="42.3022985" lon="13.2779989"><ele>836.8333333333334</ele><time>2026-05-02T16:30:44.909Z</time></trkpt><trkpt lat="42.3022696" lon="13.2780972"><ele>836.6666666666667</ele><time>2026-05-02T16:30:45.909Z</time></trkpt><trkpt lat="42.3022239" lon="13.2781911"><ele>836.5</ele><time>2026-05-02T16:30:46.91Z</time></trkpt><trkpt lat="42.3021736" lon="13.2782614"><ele>836.3333333333334</ele><time>2026-05-02T16:30:47.909Z</time></trkpt><trkpt lat="42.3020768" lon="13.2783022"><ele>836.1666666666667</ele><time>2026-05-02T16:30:48.909Z</time></trkpt><trkpt lat="42.3019786" lon="13.278324"><ele>836.0</ele><time>2026-05-02T16:30:49.908Z</time></trkpt><trkpt lat="42.3018767" lon="13.2783358"><ele>836.1999999999999</ele><time>2026-05-02T16:30:50.908Z</time></trkpt><trkpt lat="42.3017826" lon="13.2783273"><ele>836.4</ele><time>2026-05-02T16:30:51.908Z</time></trkpt><trkpt lat="42.3017006" lon="13.2782968"><ele>836.6</ele><time>2026-05-02T16:30:52.908Z</time></trkpt><trkpt lat="42.301641" lon="13.2782126"><ele>836.8</ele><time>2026-05-02T16:30:53.909Z</time></trkpt><trkpt lat="42.301576" lon="13.2781102"><ele>837.0</ele><time>2026-05-02T16:30:54.908Z</time></trkpt><trkpt lat="42.3015179" lon="13.2780099"><ele>837.0</ele><time>2026-05-02T16:30:55.91Z</time></trkpt><trkpt lat="42.3014636" lon="13.2779051"><ele>837.0</ele><time>2026-05-02T16:30:56.909Z</time></trkpt><trkpt lat="42.3014014" lon="13.2778078"><ele>837.0</ele><time>2026-05-02T16:30:57.909Z</time></trkpt><trkpt lat="42.3013282" lon="13.2777264"><ele>837.0</ele><time>2026-05-02T16:30:58.91Z</time></trkpt><trkpt lat="42.301253" lon="13.2776517"><ele>837.0</ele><time>2026-05-02T16:30:59.91Z</time></trkpt><trkpt lat="42.3011652" lon="13.2775838"><ele>834.6</ele><time>2026-05-02T16:31:00.909Z</time></trkpt><trkpt lat="42.3010644" lon="13.2775329"><ele>832.2</ele><time>2026-05-02T16:31:01.909Z</time></trkpt><trkpt lat="42.3009687" lon="13.2774882"><ele>829.8</ele><time>2026-05-02T16:31:02.908Z</time></trkpt><trkpt lat="42.3008725" lon="13.2774578"><ele>827.4</ele><time>2026-05-02T16:31:03.909Z</time></trkpt><trkpt lat="42.3007869" lon="13.2774437"><ele>825.0</ele><time>2026-05-02T16:31:04.909Z</time></trkpt><trkpt lat="42.3006816" lon="13.2774529"><ele>826.0</ele><time>2026-05-02T16:31:05.909Z</time></trkpt><trkpt lat="42.3005681" lon="13.2774728"><ele>827.0</ele><time>2026-05-02T16:31:06.91Z</time></trkpt><trkpt lat="42.3004536" lon="13.2775164"><ele>828.0</ele><time>2026-05-02T16:31:07.91Z</time></trkpt><trkpt lat="42.3003311" lon="13.2775625"><ele>829.0</ele><time>2026-05-02T16:31:08.909Z</time></trkpt><trkpt lat="42.3001995" lon="13.2775806"><ele>829.0</ele><time>2026-05-02T16:31:09.909Z</time></trkpt><trkpt lat="42.300063" lon="13.2775886"><ele>829.0</ele><time>2026-05-02T16:31:10.91Z</time></trkpt><trkpt lat="42.2999203" lon="13.2775884"><ele>829.0</ele><time>2026-05-02T16:31:11.909Z</time></trkpt><trkpt lat="42.2997783" lon="13.2775854"><ele>829.0</ele><time>2026-05-02T16:31:12.909Z</time></trkpt><trkpt lat="42.2996404" lon="13.2775803"><ele>828.5</ele><time>2026-05-02T16:31:13.908Z</time></trkpt><trkpt lat="42.2995122" lon="13.2775739"><ele>828.0</ele><time>2026-05-02T16:31:14.908Z</time></trkpt><trkpt lat="42.2993858" lon="13.2775789"><ele>827.5</ele><time>2026-05-02T16:31:15.908Z</time></trkpt><trkpt lat="42.2992642" lon="13.2776006"><ele>827.0</ele><time>2026-05-02T16:31:16.909Z</time></trkpt><trkpt lat="42.2991515" lon="13.2776432"><ele>827.0</ele><time>2026-05-02T16:31:17.91Z</time></trkpt><trkpt lat="42.2990487" lon="13.277714"><ele>827.0</ele><time>2026-05-02T16:31:18.909Z</time></trkpt><trkpt lat="42.2989712" lon="13.2778119"><ele>827.0</ele><time>2026-05-02T16:31:19.909Z</time></trkpt><trkpt lat="42.2989235" lon="13.2779246"><ele>827.0</ele><time>2026-05-02T16:31:20.909Z</time></trkpt><trkpt lat="42.2988806" lon="13.2780673"><ele>827.0</ele><time>2026-05-02T16:31:21.909Z</time></trkpt><trkpt lat="42.2988358" lon="13.2782196"><ele>828.5</ele><time>2026-05-02T16:31:22.91Z</time></trkpt><trkpt lat="42.2987828" lon="13.2783534"><ele>830.0</ele><time>2026-05-02T16:31:23.91Z</time></trkpt><trkpt lat="42.2986949" lon="13.2784548"><ele>831.5</ele><time>2026-05-02T16:31:24.909Z</time></trkpt><trkpt lat="42.2985992" lon="13.2785277"><ele>833.0</ele><time>2026-05-02T16:31:25.909Z</time></trkpt><trkpt lat="42.2984898" lon="13.2785854"><ele>833.0</ele><time>2026-05-02T16:31:26.909Z</time></trkpt><trkpt lat="42.298376" lon="13.2786473"><ele>833.0</ele><time>2026-05-02T16:31:27.909Z</time></trkpt><trkpt lat="42.2982573" lon="13.2787146"><ele>833.0</ele><time>2026-05-02T16:31:28.908Z</time></trkpt><trkpt lat="42.2981404" lon="13.2788043"><ele>833.0</ele><time>2026-05-02T16:31:29.909Z</time></trkpt><trkpt lat="42.2980352" lon="13.2789152"><ele>835.75</ele><time>2026-05-02T16:31:30.908Z</time></trkpt><trkpt lat="42.2979374" lon="13.2790393"><ele>838.5</ele><time>2026-05-02T16:31:31.908Z</time></trkpt><trkpt lat="42.2978477" lon="13.2791762"><ele>841.25</ele><time>2026-05-02T16:31:32.909Z</time></trkpt><trkpt lat="42.2977593" lon="13.2793109"><ele>844.0</ele><time>2026-05-02T16:31:33.909Z</time></trkpt><trkpt lat="42.2976931" lon="13.2794476"><ele>844.0</ele><time>2026-05-02T16:31:34.91Z</time></trkpt><trkpt lat="42.2976465" lon="13.2795987"><ele>844.0</ele><time>2026-05-02T16:31:35.908Z</time></trkpt><trkpt lat="42.2976154" lon="13.2797511"><ele>844.0</ele><time>2026-05-02T16:31:36.909Z</time></trkpt><trkpt lat="42.2976564" lon="13.2799299"><ele>844.0</ele><time>2026-05-02T16:31:37.908Z</time></trkpt><trkpt lat="42.2976942" lon="13.2800962"><ele>841.75</ele><time>2026-05-02T16:31:38.909Z</time></trkpt><trkpt lat="42.2977557" lon="13.2802349"><ele>839.5</ele><time>2026-05-02T16:31:39.909Z</time></trkpt><trkpt lat="42.297833" lon="13.2803431"><ele>837.25</ele><time>2026-05-02T16:31:40.909Z</time></trkpt><trkpt lat="42.2979296" lon="13.2804226"><ele>835.0</ele><time>2026-05-02T16:31:41.908Z</time></trkpt><trkpt lat="42.2980407" lon="13.2804683"><ele>832.25</ele><time>2026-05-02T16:31:42.909Z</time></trkpt><trkpt lat="42.2981609" lon="13.2805038"><ele>829.5</ele><time>2026-05-02T16:31:43.91Z</time></trkpt><trkpt lat="42.2982954" lon="13.2804732"><ele>826.75</ele><time>2026-05-02T16:31:44.908Z</time></trkpt><trkpt lat="42.2984299" lon="13.2804439"><ele>824.0</ele><time>2026-05-02T16:31:45.91Z</time></trkpt><trkpt lat="42.2985623" lon="13.2804287"><ele>824.0</ele><time>2026-05-02T16:31:46.909Z</time></trkpt><trkpt lat="42.2986891" lon="13.2804391"><ele>824.0</ele><time>2026-05-02T16:31:47.909Z</time></trkpt><trkpt lat="42.2988072" lon="13.2805007"><ele>824.0</ele><time>2026-05-02T16:31:48.908Z</time></trkpt><trkpt lat="42.2989222" lon="13.2805743"><ele>824.0</ele><time>2026-05-02T16:31:49.908Z</time></trkpt><trkpt lat="42.2990475" lon="13.2806832"><ele>827.6666666666667</ele><time>2026-05-02T16:31:50.908Z</time></trkpt><trkpt lat="42.2991824" lon="13.2807918"><ele>831.3333333333333</ele><time>2026-05-02T16:31:51.909Z</time></trkpt><trkpt lat="42.2993186" lon="13.2808968"><ele>835.0</ele><time>2026-05-02T16:31:52.91Z</time></trkpt><trkpt lat="42.2994643" lon="13.2810192"><ele>835.0</ele><time>2026-05-02T16:31:53.909Z</time></trkpt><trkpt lat="42.2996076" lon="13.2811408"><ele>835.0</ele><time>2026-05-02T16:31:54.91Z</time></trkpt><trkpt lat="42.299747" lon="13.2812594"><ele>835.0</ele><time>2026-05-02T16:31:55.91Z</time></trkpt><trkpt lat="42.2998812" lon="13.2813635"><ele>835.75</ele><time>2026-05-02T16:31:56.909Z</time></trkpt><trkpt lat="42.3000124" lon="13.2814714"><ele>836.5</ele><time>2026-05-02T16:31:57.908Z</time></trkpt><trkpt lat="42.3001391" lon="13.281573"><ele>837.25</ele><time>2026-05-02T16:31:58.908Z</time></trkpt><trkpt lat="42.3002502" lon="13.2816618"><ele>838.0</ele><time>2026-05-02T16:31:59.908Z</time></trkpt><trkpt lat="42.3003562" lon="13.2817603"><ele>838.0</ele><time>2026-05-02T16:32:00.91Z</time></trkpt><trkpt lat="42.3004457" lon="13.2818724"><ele>838.0</ele><time>2026-05-02T16:32:01.909Z</time></trkpt><trkpt lat="42.3005188" lon="13.2820044"><ele>838.0</ele><time>2026-05-02T16:32:02.909Z</time></trkpt><trkpt lat="42.3005574" lon="13.2821513"><ele>838.0</ele><time>2026-05-02T16:32:03.909Z</time></trkpt><trkpt lat="42.3005706" lon="13.2822997"><ele>838.75</ele><time>2026-05-02T16:32:04.91Z</time></trkpt><trkpt lat="42.3005651" lon="13.2824545"><ele>839.5</ele><time>2026-05-02T16:32:05.909Z</time></trkpt><trkpt lat="42.3005526" lon="13.2826185"><ele>840.25</ele><time>2026-05-02T16:32:06.91Z</time></trkpt><trkpt lat="42.3005419" lon="13.2827775"><ele>841.0</ele><time>2026-05-02T16:32:07.909Z</time></trkpt><trkpt lat="42.300538" lon="13.2829205"><ele>841.0</ele><time>2026-05-02T16:32:08.909Z</time></trkpt><trkpt lat="42.3005286" lon="13.2830605"><ele>841.0</ele><time>2026-05-02T16:32:09.91Z</time></trkpt><trkpt lat="42.300519" lon="13.2831803"><ele>841.0</ele><time>2026-05-02T16:32:10.91Z</time></trkpt><trkpt lat="42.3005035" lon="13.2832823"><ele>841.0</ele><time>2026-05-02T16:32:11.909Z</time></trkpt><trkpt lat="42.3004723" lon="13.28336"><ele>841.0</ele><time>2026-05-02T16:32:12.909Z</time></trkpt><trkpt lat="42.3003414" lon="13.2834076"><ele>839.0</ele><time>2026-05-02T16:32:14.91Z</time></trkpt><trkpt lat="42.3002466" lon="13.2834122"><ele>837.0</ele><time>2026-05-02T16:32:15.91Z</time></trkpt><trkpt lat="42.300136" lon="13.2834294"><ele>835.0</ele><time>2026-05-02T16:32:16.908Z</time></trkpt><trkpt lat="42.3000275" lon="13.2834477"><ele>833.0</ele><time>2026-05-02T16:32:17.91Z</time></trkpt><trkpt lat="42.2999085" lon="13.2834936"><ele>831.0</ele><time>2026-05-02T16:32:18.909Z</time></trkpt><trkpt lat="42.2997944" lon="13.2835486"><ele>831.5</ele><time>2026-05-02T16:32:19.91Z</time></trkpt><trkpt lat="42.2996794" lon="13.2836216"><ele>832.0</ele><time>2026-05-02T16:32:20.91Z</time></trkpt><trkpt lat="42.2995692" lon="13.2836999"><ele>832.5</ele><time>2026-05-02T16:32:21.908Z</time></trkpt><trkpt lat="42.2994619" lon="13.2837845"><ele>833.0</ele><time>2026-05-02T16:32:22.908Z</time></trkpt><trkpt lat="42.2993555" lon="13.283867"><ele>829.75</ele><time>2026-05-02T16:32:23.91Z</time></trkpt><trkpt lat="42.2992477" lon="13.2839422"><ele>826.5</ele><time>2026-05-02T16:32:24.909Z</time></trkpt><trkpt lat="42.2991411" lon="13.2839993"><ele>823.25</ele><time>2026-05-02T16:32:25.91Z</time></trkpt><trkpt lat="42.2990256" lon="13.2840382"><ele>820.0</ele><time>2026-05-02T16:32:26.909Z</time></trkpt><trkpt lat="42.2989222" lon="13.284005"><ele>819.4</ele><time>2026-05-02T16:32:27.908Z</time></trkpt><trkpt lat="42.2988093" lon="13.283957"><ele>818.8</ele><time>2026-05-02T16:32:28.91Z</time></trkpt><trkpt lat="42.2987072" lon="13.2839038"><ele>818.2</ele><time>2026-05-02T16:32:29.909Z</time></trkpt><trkpt lat="42.2986236" lon="13.2838414"><ele>817.6</ele><time>2026-05-02T16:32:30.909Z</time></trkpt><trkpt lat="42.2985403" lon="13.283791"><ele>817.0</ele><time>2026-05-02T16:32:31.909Z</time></trkpt><trkpt lat="42.2984625" lon="13.2837583"><ele>819.4000000000001</ele><time>2026-05-02T16:32:32.909Z</time></trkpt><trkpt lat="42.2983807" lon="13.283742"><ele>821.8000000000001</ele><time>2026-05-02T16:32:33.909Z</time></trkpt><trkpt lat="42.2982918" lon="13.2837398"><ele>824.2</ele><time>2026-05-02T16:32:34.91Z</time></trkpt><trkpt lat="42.2981957" lon="13.2837739"><ele>826.6</ele><time>2026-05-02T16:32:35.91Z</time></trkpt><trkpt lat="42.2980975" lon="13.2838291"><ele>829.0</ele><time>2026-05-02T16:32:36.909Z</time></trkpt><trkpt lat="42.2980098" lon="13.2838887"><ele>828.9999999999999</ele><time>2026-05-02T16:32:37.91Z</time></trkpt><trkpt lat="42.2979341" lon="13.2839298"><ele>829.0</ele><time>2026-05-02T16:32:38.909Z</time></trkpt><trkpt lat="42.297844" lon="13.2840075"><ele>829.0</ele><time>2026-05-02T16:32:40.91Z</time></trkpt><trkpt lat="42.2978284" lon="13.2840949"><ele>829.0</ele><time>2026-05-02T16:32:42.91Z</time></trkpt><trkpt lat="42.297903" lon="13.2841489"><ele>828.9999999999999</ele><time>2026-05-02T16:32:44.908Z</time></trkpt><trkpt lat="42.2979747" lon="13.2841582"><ele>829.0</ele><time>2026-05-02T16:32:45.91Z</time></trkpt><trkpt lat="42.2980667" lon="13.2841739"><ele>826.6</ele><time>2026-05-02T16:32:46.91Z</time></trkpt><trkpt lat="42.2981676" lon="13.2841928"><ele>824.2</ele><time>2026-05-02T16:32:47.909Z</time></trkpt><trkpt lat="42.2982796" lon="13.2842101"><ele>821.8000000000001</ele><time>2026-05-02T16:32:48.909Z</time></trkpt><trkpt lat="42.2983868" lon="13.2842308"><ele>819.4000000000001</ele><time>2026-05-02T16:32:49.91Z</time></trkpt><trkpt lat="42.2984873" lon="13.2842623"><ele>817.0</ele><time>2026-05-02T16:32:50.909Z</time></trkpt><trkpt lat="42.2985818" lon="13.2843092"><ele>817.0</ele><time>2026-05-02T16:32:51.91Z</time></trkpt><trkpt lat="42.2986793" lon="13.2843676"><ele>817.0</ele><time>2026-05-02T16:32:52.91Z</time></trkpt><trkpt lat="42.2987608" lon="13.2844491"><ele>817.0</ele><time>2026-05-02T16:32:53.909Z</time></trkpt><trkpt lat="42.2988412" lon="13.2845393"><ele>817.0</ele><time>2026-05-02T16:32:54.909Z</time></trkpt><trkpt lat="42.2989087" lon="13.2846425"><ele>817.0</ele><time>2026-05-02T16:32:55.909Z</time></trkpt><trkpt lat="42.2989784" lon="13.2847484"><ele>815.8</ele><time>2026-05-02T16:32:56.91Z</time></trkpt><trkpt lat="42.2990456" lon="13.2848574"><ele>814.6</ele><time>2026-05-02T16:32:57.91Z</time></trkpt><trkpt lat="42.2991033" lon="13.2849682"><ele>813.4</ele><time>2026-05-02T16:32:58.911Z</time></trkpt><trkpt lat="42.2991598" lon="13.285081"><ele>812.1999999999999</ele><time>2026-05-02T16:32:59.91Z</time></trkpt><trkpt lat="42.2992083" lon="13.2851957"><ele>811.0</ele><time>2026-05-02T16:33:00.911Z</time></trkpt><trkpt lat="42.2992517" lon="13.2853187"><ele>811.0</ele><time>2026-05-02T16:33:01.909Z</time></trkpt><trkpt lat="42.2992967" lon="13.2854488"><ele>811.0</ele><time>2026-05-02T16:33:02.909Z</time></trkpt><trkpt lat="42.2993385" lon="13.2855747"><ele>811.0</ele><time>2026-05-02T16:33:03.909Z</time></trkpt><trkpt lat="42.2993657" lon="13.2857194"><ele>811.0</ele><time>2026-05-02T16:33:04.909Z</time></trkpt><trkpt lat="42.2993925" lon="13.2858804"><ele>811.0</ele><time>2026-05-02T16:33:05.91Z</time></trkpt><trkpt lat="42.2994132" lon="13.286041"><ele>809.75</ele><time>2026-05-02T16:33:06.91Z</time></trkpt><trkpt lat="42.2994297" lon="13.2862234"><ele>808.5</ele><time>2026-05-02T16:33:07.909Z</time></trkpt><trkpt lat="42.2994406" lon="13.2864185"><ele>807.25</ele><time>2026-05-02T16:33:08.909Z</time></trkpt><trkpt lat="42.2994474" lon="13.2866144"><ele>806.0</ele><time>2026-05-02T16:33:09.908Z</time></trkpt><trkpt lat="42.2994598" lon="13.2868108"><ele>804.5</ele><time>2026-05-02T16:33:10.91Z</time></trkpt><trkpt lat="42.2994722" lon="13.2870045"><ele>803.0</ele><time>2026-05-02T16:33:11.911Z</time></trkpt><trkpt lat="42.2994897" lon="13.2871907"><ele>801.5</ele><time>2026-05-02T16:33:12.91Z</time></trkpt><trkpt lat="42.2995409" lon="13.2873612"><ele>800.0</ele><time>2026-05-02T16:33:13.909Z</time></trkpt><trkpt lat="42.2996142" lon="13.2875065"><ele>800.5</ele><time>2026-05-02T16:33:14.909Z</time></trkpt><trkpt lat="42.2996984" lon="13.2876156"><ele>801.0</ele><time>2026-05-02T16:33:15.911Z</time></trkpt><trkpt lat="42.2997977" lon="13.2876845"><ele>801.5</ele><time>2026-05-02T16:33:16.909Z</time></trkpt><trkpt lat="42.2999084" lon="13.2877045"><ele>802.0</ele><time>2026-05-02T16:33:17.911Z</time></trkpt><trkpt lat="42.3000239" lon="13.2877151"><ele>802.0</ele><time>2026-05-02T16:33:18.908Z</time></trkpt><trkpt lat="42.3001837" lon="13.2876659"><ele>802.0</ele><time>2026-05-02T16:33:19.908Z</time></trkpt><trkpt lat="42.3003445" lon="13.2876459"><ele>802.0</ele><time>2026-05-02T16:33:20.911Z</time></trkpt><trkpt lat="42.3005107" lon="13.2876437"><ele>800.3333333333333</ele><time>2026-05-02T16:33:21.909Z</time></trkpt><trkpt lat="42.3006691" lon="13.2876406"><ele>798.6666666666667</ele><time>2026-05-02T16:33:22.908Z</time></trkpt><trkpt lat="42.3008285" lon="13.2876394"><ele>797.0</ele><time>2026-05-02T16:33:23.91Z</time></trkpt><trkpt lat="42.3009858" lon="13.2876372"><ele>797.0</ele><time>2026-05-02T16:33:24.909Z</time></trkpt><trkpt lat="42.3011354" lon="13.2876148"><ele>797.0</ele><time>2026-05-02T16:33:25.908Z</time></trkpt><trkpt lat="42.3012811" lon="13.2875714"><ele>797.0</ele><time>2026-05-02T16:33:26.91Z</time></trkpt><trkpt lat="42.3014213" lon="13.2874911"><ele>793.0</ele><time>2026-05-02T16:33:27.909Z</time></trkpt><trkpt lat="42.3015521" lon="13.287402"><ele>789.0</ele><time>2026-05-02T16:33:28.909Z</time></trkpt><trkpt lat="42.3016878" lon="13.2873361"><ele>785.0</ele><time>2026-05-02T16:33:29.908Z</time></trkpt><trkpt lat="42.301828" lon="13.2873081"><ele>781.0</ele><time>2026-05-02T16:33:30.908Z</time></trkpt><trkpt lat="42.3019707" lon="13.2872956"><ele>781.0</ele><time>2026-05-02T16:33:31.911Z</time></trkpt><trkpt lat="42.3021213" lon="13.2873005"><ele>781.0</ele><time>2026-05-02T16:33:32.911Z</time></trkpt><trkpt lat="42.3022406" lon="13.2873428"><ele>781.0</ele><time>2026-05-02T16:33:33.911Z</time></trkpt><trkpt lat="42.3023533" lon="13.2873685"><ele>781.0</ele><time>2026-05-02T16:33:34.91Z</time></trkpt><trkpt lat="42.3024575" lon="13.2873971"><ele>780.5999999999999</ele><time>2026-05-02T16:33:35.908Z</time></trkpt><trkpt lat="42.3025622" lon="13.2874226"><ele>780.2</ele><time>2026-05-02T16:33:36.909Z</time></trkpt><trkpt lat="42.3026538" lon="13.2874518"><ele>779.8</ele><time>2026-05-02T16:33:37.909Z</time></trkpt><trkpt lat="42.3027469" lon="13.2874707"><ele>779.4000000000001</ele><time>2026-05-02T16:33:38.909Z</time></trkpt><trkpt lat="42.3028387" lon="13.287492"><ele>779.0</ele><time>2026-05-02T16:33:39.908Z</time></trkpt><trkpt lat="42.3029158" lon="13.2875158"><ele>779.0000000000001</ele><time>2026-05-02T16:33:40.91Z</time></trkpt><trkpt lat="42.3030156" lon="13.2875356"><ele>779.0</ele><time>2026-05-02T16:33:42.91Z</time></trkpt><trkpt lat="42.3029499" lon="13.287485"><ele>779.0</ele><time>2026-05-02T16:33:46.909Z</time></trkpt><trkpt lat="42.3028815" lon="13.2874741"><ele>779.0</ele><time>2026-05-02T16:33:47.911Z</time></trkpt><trkpt lat="42.302799" lon="13.2874603"><ele>779.0000000000001</ele><time>2026-05-02T16:33:48.909Z</time></trkpt><trkpt lat="42.3027166" lon="13.28745"><ele>779.0</ele><time>2026-05-02T16:33:49.909Z</time></trkpt><trkpt lat="42.3026112" lon="13.2874372"><ele>779.0</ele><time>2026-05-02T16:33:50.908Z</time></trkpt><trkpt lat="42.302499" lon="13.2873931"><ele>779.0</ele><time>2026-05-02T16:33:51.91Z</time></trkpt><trkpt lat="42.3024165" lon="13.2873575"><ele>779.0</ele><time>2026-05-02T16:33:52.909Z</time></trkpt><trkpt lat="42.3023345" lon="13.2873339"><ele>779.0</ele><time>2026-05-02T16:33:53.909Z</time></trkpt><trkpt lat="42.302258" lon="13.2873096"><ele>779.0</ele><time>2026-05-02T16:33:54.909Z</time></trkpt><trkpt lat="42.3021515" lon="13.2873218"><ele>779.3333333333334</ele><time>2026-05-02T16:33:56.91Z</time></trkpt><trkpt lat="42.302131" lon="13.2874168"><ele>779.6666666666667</ele><time>2026-05-02T16:33:58.911Z</time></trkpt><trkpt lat="42.3021048" lon="13.2875049"><ele>780.0</ele><time>2026-05-02T16:33:59.91Z</time></trkpt><trkpt lat="42.302095" lon="13.287596"><ele>780.3333333333333</ele><time>2026-05-02T16:34:00.91Z</time></trkpt><trkpt lat="42.3020877" lon="13.2877272"><ele>780.6666666666666</ele><time>2026-05-02T16:34:01.909Z</time></trkpt><trkpt lat="42.3020909" lon="13.2878772"><ele>781.0</ele><time>2026-05-02T16:34:02.91Z</time></trkpt><trkpt lat="42.3020841" lon="13.288031"><ele>779.4</ele><time>2026-05-02T16:34:03.909Z</time></trkpt><trkpt lat="42.3020827" lon="13.2881795"><ele>777.8</ele><time>2026-05-02T16:34:04.909Z</time></trkpt><trkpt lat="42.3020756" lon="13.2883246"><ele>776.1999999999999</ele><time>2026-05-02T16:34:05.909Z</time></trkpt><trkpt lat="42.3020714" lon="13.2884688"><ele>774.5999999999999</ele><time>2026-05-02T16:34:06.91Z</time></trkpt><trkpt lat="42.3020662" lon="13.2885844"><ele>773.0</ele><time>2026-05-02T16:34:07.909Z</time></trkpt><trkpt lat="42.3020736" lon="13.2886795"><ele>773.0</ele><time>2026-05-02T16:34:08.91Z</time></trkpt><trkpt lat="42.3020977" lon="13.2887596"><ele>773.0</ele><time>2026-05-02T16:34:09.909Z</time></trkpt><trkpt lat="42.3021802" lon="13.2888581"><ele>773.0</ele><time>2026-05-02T16:34:11.909Z</time></trkpt><trkpt lat="42.3022935" lon="13.2889291"><ele>773.0</ele><time>2026-05-02T16:34:13.908Z</time></trkpt><trkpt lat="42.3023599" lon="13.2889467"><ele>773.0</ele><time>2026-05-02T16:34:14.909Z</time></trkpt><trkpt lat="42.3025033" lon="13.2889777"><ele>774.5</ele><time>2026-05-02T16:34:16.91Z</time></trkpt><trkpt lat="42.3026058" lon="13.2889805"><ele>776.0</ele><time>2026-05-02T16:34:17.909Z</time></trkpt><trkpt lat="42.3027275" lon="13.2889851"><ele>777.5</ele><time>2026-05-02T16:34:18.909Z</time></trkpt><trkpt lat="42.3028458" lon="13.2889734"><ele>779.0</ele><time>2026-05-02T16:34:19.91Z</time></trkpt><trkpt lat="42.3029819" lon="13.288955"><ele>776.5</ele><time>2026-05-02T16:34:20.909Z</time></trkpt><trkpt lat="42.3031087" lon="13.2889251"><ele>774.0</ele><time>2026-05-02T16:34:21.911Z</time></trkpt><trkpt lat="42.3032093" lon="13.2889048"><ele>771.5</ele><time>2026-05-02T16:34:22.908Z</time></trkpt><trkpt lat="42.3033185" lon="13.2888656"><ele>769.0</ele><time>2026-05-02T16:34:23.91Z</time></trkpt><trkpt lat="42.3034369" lon="13.2888257"><ele>769.0</ele><time>2026-05-02T16:34:24.91Z</time></trkpt><trkpt lat="42.3035551" lon="13.2887848"><ele>769.0</ele><time>2026-05-02T16:34:25.91Z</time></trkpt><trkpt lat="42.3036505" lon="13.2887689"><ele>769.0</ele><time>2026-05-02T16:34:26.909Z</time></trkpt><trkpt lat="42.3037548" lon="13.2887549"><ele>769.0</ele><time>2026-05-02T16:34:27.908Z</time></trkpt><trkpt lat="42.3038651" lon="13.2887365"><ele>769.0</ele><time>2026-05-02T16:34:28.91Z</time></trkpt><trkpt lat="42.3039665" lon="13.2887216"><ele>769.0</ele><time>2026-05-02T16:34:29.909Z</time></trkpt><trkpt lat="42.3040563" lon="13.2886885"><ele>769.0</ele><time>2026-05-02T16:34:30.909Z</time></trkpt><trkpt lat="42.3041526" lon="13.2886645"><ele>769.0</ele><time>2026-05-02T16:34:31.909Z</time></trkpt><trkpt lat="42.3042539" lon="13.2886368"><ele>769.0</ele><time>2026-05-02T16:34:32.91Z</time></trkpt><trkpt lat="42.3043459" lon="13.288606"><ele>769.0</ele><time>2026-05-02T16:34:33.909Z</time></trkpt><trkpt lat="42.3044368" lon="13.2885597"><ele>769.0</ele><time>2026-05-02T16:34:34.91Z</time></trkpt><trkpt lat="42.3045263" lon="13.2885187"><ele>769.0</ele><time>2026-05-02T16:34:35.909Z</time></trkpt><trkpt lat="42.3046344" lon="13.2884679"><ele>769.0</ele><time>2026-05-02T16:34:36.909Z</time></trkpt><trkpt lat="42.3047465" lon="13.2884232"><ele>769.0</ele><time>2026-05-02T16:34:37.909Z</time></trkpt><trkpt lat="42.3048625" lon="13.2883676"><ele>769.0</ele><time>2026-05-02T16:34:38.909Z</time></trkpt><trkpt lat="42.3049715" lon="13.2883201"><ele>768.8000000000001</ele><time>2026-05-02T16:34:39.908Z</time></trkpt><trkpt lat="42.3050788" lon="13.2882885"><ele>768.6</ele><time>2026-05-02T16:34:40.909Z</time></trkpt><trkpt lat="42.3051793" lon="13.2882742"><ele>768.4</ele><time>2026-05-02T16:34:41.91Z</time></trkpt><trkpt lat="42.3052808" lon="13.2882645"><ele>768.2</ele><time>2026-05-02T16:34:42.908Z</time></trkpt><trkpt lat="42.3053848" lon="13.2882968"><ele>768.0</ele><time>2026-05-02T16:34:43.908Z</time></trkpt><trkpt lat="42.3054871" lon="13.2883072"><ele>767.8</ele><time>2026-05-02T16:34:44.909Z</time></trkpt><trkpt lat="42.3055913" lon="13.2883175"><ele>767.5999999999999</ele><time>2026-05-02T16:34:45.911Z</time></trkpt><trkpt lat="42.3056889" lon="13.2883407"><ele>767.4000000000001</ele><time>2026-05-02T16:34:46.91Z</time></trkpt><trkpt lat="42.3057771" lon="13.2883236"><ele>767.2</ele><time>2026-05-02T16:34:47.91Z</time></trkpt><trkpt lat="42.3058624" lon="13.2882899"><ele>767.0</ele><time>2026-05-02T16:34:48.909Z</time></trkpt><trkpt lat="42.3059493" lon="13.2882456"><ele>767.0</ele><time>2026-05-02T16:34:49.909Z</time></trkpt><trkpt lat="42.3060391" lon="13.2881989"><ele>767.0</ele><time>2026-05-02T16:34:50.909Z</time></trkpt><trkpt lat="42.3061268" lon="13.2881509"><ele>767.0</ele><time>2026-05-02T16:34:51.909Z</time></trkpt><trkpt lat="42.3062194" lon="13.2881004"><ele>767.0</ele><time>2026-05-02T16:34:52.909Z</time></trkpt><trkpt lat="42.3063166" lon="13.2880401"><ele>767.0</ele><time>2026-05-02T16:34:53.91Z</time></trkpt><trkpt lat="42.306419" lon="13.2879752"><ele>766.6</ele><time>2026-05-02T16:34:54.909Z</time></trkpt><trkpt lat="42.3065268" lon="13.2879121"><ele>766.2</ele><time>2026-05-02T16:34:55.909Z</time></trkpt><trkpt lat="42.3066327" lon="13.2878564"><ele>765.8</ele><time>2026-05-02T16:34:56.909Z</time></trkpt><trkpt lat="42.3067189" lon="13.28782"><ele>765.4</ele><time>2026-05-02T16:34:57.908Z</time></trkpt><trkpt lat="42.3067809" lon="13.2878036"><ele>765.0</ele><time>2026-05-02T16:34:58.909Z</time></trkpt><trkpt lat="42.3068631" lon="13.2877964"><ele>765.0</ele><time>2026-05-02T16:35:00.909Z</time></trkpt><trkpt lat="42.3069568" lon="13.2877763"><ele>765.0</ele><time>2026-05-02T16:35:02.908Z</time></trkpt><trkpt lat="42.3070218" lon="13.2877189"><ele>765.0</ele><time>2026-05-02T16:35:03.908Z</time></trkpt><trkpt lat="42.3070946" lon="13.2876249"><ele>765.0</ele><time>2026-05-02T16:35:04.91Z</time></trkpt><trkpt lat="42.3071764" lon="13.2875156"><ele>765.0</ele><time>2026-05-02T16:35:05.91Z</time></trkpt><trkpt lat="42.3072668" lon="13.2873907"><ele>764.5</ele><time>2026-05-02T16:35:06.91Z</time></trkpt><trkpt lat="42.3073633" lon="13.2872512"><ele>764.0</ele><time>2026-05-02T16:35:07.91Z</time></trkpt><trkpt lat="42.3074639" lon="13.2871158"><ele>763.5</ele><time>2026-05-02T16:35:08.909Z</time></trkpt><trkpt lat="42.307564" lon="13.2869866"><ele>763.0</ele><time>2026-05-02T16:35:09.91Z</time></trkpt><trkpt lat="42.3076657" lon="13.2868574"><ele>763.0</ele><time>2026-05-02T16:35:10.909Z</time></trkpt><trkpt lat="42.3077739" lon="13.2867378"><ele>763.0</ele><time>2026-05-02T16:35:11.91Z</time></trkpt><trkpt lat="42.3078972" lon="13.2866289"><ele>763.0</ele><time>2026-05-02T16:35:12.908Z</time></trkpt><trkpt lat="42.3080349" lon="13.2865273"><ele>763.0</ele><time>2026-05-02T16:35:13.91Z</time></trkpt><trkpt lat="42.3081787" lon="13.2864333"><ele>761.0</ele><time>2026-05-02T16:35:14.908Z</time></trkpt><trkpt lat="42.3083199" lon="13.2863395"><ele>759.0</ele><time>2026-05-02T16:35:15.911Z</time></trkpt><trkpt lat="42.3084581" lon="13.2862536"><ele>757.0</ele><time>2026-05-02T16:35:16.909Z</time></trkpt><trkpt lat="42.3085913" lon="13.2861677"><ele>757.0</ele><time>2026-05-02T16:35:17.91Z</time></trkpt><trkpt lat="42.3087216" lon="13.2860897"><ele>757.0</ele><time>2026-05-02T16:35:18.909Z</time></trkpt><trkpt lat="42.3088517" lon="13.2860138"><ele>757.0</ele><time>2026-05-02T16:35:19.911Z</time></trkpt><trkpt lat="42.3089974" lon="13.2859531"><ele>757.0</ele><time>2026-05-02T16:35:20.909Z</time></trkpt><trkpt lat="42.3091468" lon="13.2859129"><ele>757.0</ele><time>2026-05-02T16:35:21.909Z</time></trkpt><trkpt lat="42.3092722" lon="13.2858885"><ele>757.0</ele><time>2026-05-02T16:35:22.91Z</time></trkpt><trkpt lat="42.309396" lon="13.2858688"><ele>757.0</ele><time>2026-05-02T16:35:23.91Z</time></trkpt><trkpt lat="42.3094813" lon="13.2858526"><ele>757.0</ele><time>2026-05-02T16:35:24.91Z</time></trkpt><trkpt lat="42.3095573" lon="13.2858356"><ele>757.0</ele><time>2026-05-02T16:35:25.911Z</time></trkpt><trkpt lat="42.3096592" lon="13.2858152"><ele>757.0</ele><time>2026-05-02T16:35:27.909Z</time></trkpt><trkpt lat="42.3096891" lon="13.2859054"><ele>757.0</ele><time>2026-05-02T16:35:30.909Z</time></trkpt><trkpt lat="42.3095941" lon="13.2859409"><ele>757.0</ele><time>2026-05-02T16:35:32.91Z</time></trkpt><trkpt lat="42.3095281" lon="13.2859419"><ele>757.0</ele><time>2026-05-02T16:35:33.91Z</time></trkpt><trkpt lat="42.3094172" lon="13.2859479"><ele>757.0</ele><time>2026-05-02T16:35:34.91Z</time></trkpt><trkpt lat="42.3093159" lon="13.285963"><ele>757.0</ele><time>2026-05-02T16:35:35.909Z</time></trkpt><trkpt lat="42.3092065" lon="13.2860007"><ele>757.0</ele><time>2026-05-02T16:35:36.909Z</time></trkpt><trkpt lat="42.309091" lon="13.286044"><ele>757.0</ele><time>2026-05-02T16:35:37.91Z</time></trkpt><trkpt lat="42.3089711" lon="13.2860995"><ele>757.0</ele><time>2026-05-02T16:35:38.909Z</time></trkpt><trkpt lat="42.3088504" lon="13.2861612"><ele>757.0</ele><time>2026-05-02T16:35:39.91Z</time></trkpt><trkpt lat="42.3087511" lon="13.2862192"><ele>757.0</ele><time>2026-05-02T16:35:40.911Z</time></trkpt><trkpt lat="42.3086538" lon="13.2862712"><ele>757.0</ele><time>2026-05-02T16:35:41.91Z</time></trkpt><trkpt lat="42.3085672" lon="13.2863212"><ele>757.0</ele><time>2026-05-02T16:35:42.909Z</time></trkpt><trkpt lat="42.3085156" lon="13.2863874"><ele>757.0</ele><time>2026-05-02T16:35:43.91Z</time></trkpt><trkpt lat="42.3084886" lon="13.2864688"><ele>757.0</ele><time>2026-05-02T16:35:44.909Z</time></trkpt><trkpt lat="42.3085476" lon="13.2865918"><ele>759.0</ele><time>2026-05-02T16:35:46.909Z</time></trkpt><trkpt lat="42.3086251" lon="13.286605"><ele>761.0</ele><time>2026-05-02T16:35:47.91Z</time></trkpt><trkpt lat="42.308729" lon="13.2865927"><ele>763.0</ele><time>2026-05-02T16:35:48.909Z</time></trkpt><trkpt lat="42.308837" lon="13.2865806"><ele>765.0</ele><time>2026-05-02T16:35:49.91Z</time></trkpt><trkpt lat="42.3089632" lon="13.286568"><ele>767.0</ele><time>2026-05-02T16:35:50.91Z</time></trkpt><trkpt lat="42.3090967" lon="13.2865488"><ele>769.0</ele><time>2026-05-02T16:35:51.908Z</time></trkpt><trkpt lat="42.3092409" lon="13.2865315"><ele>771.0</ele><time>2026-05-02T16:35:52.909Z</time></trkpt><trkpt lat="42.3093967" lon="13.2865193"><ele>773.0</ele><time>2026-05-02T16:35:53.91Z</time></trkpt><trkpt lat="42.3095525" lon="13.2864965"><ele>773.0</ele><time>2026-05-02T16:35:54.909Z</time></trkpt><trkpt lat="42.3097201" lon="13.2864724"><ele>773.0</ele><time>2026-05-02T16:35:55.91Z</time></trkpt><trkpt lat="42.3098879" lon="13.2864483"><ele>773.0</ele><time>2026-05-02T16:35:56.91Z</time></trkpt><trkpt lat="42.3100545" lon="13.2864188"><ele>769.6666666666667</ele><time>2026-05-02T16:35:57.909Z</time></trkpt><trkpt lat="42.3102239" lon="13.2863892"><ele>766.3333333333334</ele><time>2026-05-02T16:35:58.909Z</time></trkpt><trkpt lat="42.3103806" lon="13.2863681"><ele>763.0</ele><time>2026-05-02T16:35:59.909Z</time></trkpt><trkpt lat="42.31054" lon="13.2863543"><ele>766.3333333333334</ele><time>2026-05-02T16:36:00.909Z</time></trkpt><trkpt lat="42.3106954" lon="13.2863456"><ele>769.6666666666667</ele><time>2026-05-02T16:36:01.909Z</time></trkpt><trkpt lat="42.3108465" lon="13.2863501"><ele>773.0</ele><time>2026-05-02T16:36:02.91Z</time></trkpt><trkpt lat="42.3109988" lon="13.2863509"><ele>773.0</ele><time>2026-05-02T16:36:03.909Z</time></trkpt><trkpt lat="42.3111384" lon="13.2863323"><ele>773.0</ele><time>2026-05-02T16:36:04.91Z</time></trkpt><trkpt lat="42.3112669" lon="13.2862697"><ele>773.0</ele><time>2026-05-02T16:36:05.909Z</time></trkpt><trkpt lat="42.3113829" lon="13.2861901"><ele>773.0</ele><time>2026-05-02T16:36:06.909Z</time></trkpt><trkpt lat="42.3114811" lon="13.2860943"><ele>775.0000000000001</ele><time>2026-05-02T16:36:07.909Z</time></trkpt><trkpt lat="42.3115632" lon="13.2860489"><ele>777.0</ele><time>2026-05-02T16:36:08.909Z</time></trkpt><trkpt lat="42.3116386" lon="13.2860309"><ele>779.0</ele><time>2026-05-02T16:36:09.91Z</time></trkpt><trkpt lat="42.3116495" lon="13.2861562"><ele>781.0</ele><time>2026-05-02T16:36:11.91Z</time></trkpt><trkpt lat="42.3116229" lon="13.2862481"><ele>783.0000000000001</ele><time>2026-05-02T16:36:12.909Z</time></trkpt><trkpt lat="42.3115745" lon="13.2863603"><ele>785.0</ele><time>2026-05-02T16:36:13.909Z</time></trkpt><trkpt lat="42.31152" lon="13.2864832"><ele>786.5</ele><time>2026-05-02T16:36:14.909Z</time></trkpt><trkpt lat="42.3114461" lon="13.2866386"><ele>788.0</ele><time>2026-05-02T16:36:15.909Z</time></trkpt><trkpt lat="42.3113746" lon="13.2867979"><ele>789.5</ele><time>2026-05-02T16:36:16.909Z</time></trkpt><trkpt lat="42.3112964" lon="13.2869732"><ele>791.0</ele><time>2026-05-02T16:36:17.909Z</time></trkpt><trkpt lat="42.3112097" lon="13.2871442"><ele>793.0</ele><time>2026-05-02T16:36:18.908Z</time></trkpt><trkpt lat="42.3111069" lon="13.2873063"><ele>795.0</ele><time>2026-05-02T16:36:19.909Z</time></trkpt><trkpt lat="42.3109868" lon="13.2874557"><ele>797.0</ele><time>2026-05-02T16:36:20.91Z</time></trkpt><trkpt lat="42.310861" lon="13.2876029"><ele>797.0</ele><time>2026-05-02T16:36:21.909Z</time></trkpt><trkpt lat="42.3107219" lon="13.2877288"><ele>797.0</ele><time>2026-05-02T16:36:22.91Z</time></trkpt><trkpt lat="42.3105864" lon="13.2878727"><ele>797.0</ele><time>2026-05-02T16:36:23.908Z</time></trkpt><trkpt lat="42.310448" lon="13.2880203"><ele>797.3333333333334</ele><time>2026-05-02T16:36:24.908Z</time></trkpt><trkpt lat="42.3103112" lon="13.2881622"><ele>797.6666666666667</ele><time>2026-05-02T16:36:25.909Z</time></trkpt><trkpt lat="42.3101745" lon="13.2883096"><ele>798.0</ele><time>2026-05-02T16:36:26.909Z</time></trkpt><trkpt lat="42.3100407" lon="13.288452"><ele>798.0</ele><time>2026-05-02T16:36:27.908Z</time></trkpt><trkpt lat="42.3099027" lon="13.2885988"><ele>798.0</ele><time>2026-05-02T16:36:28.909Z</time></trkpt><trkpt lat="42.3097704" lon="13.2887478"><ele>798.0</ele><time>2026-05-02T16:36:29.909Z</time></trkpt><trkpt lat="42.3096443" lon="13.288887"><ele>798.0</ele><time>2026-05-02T16:36:30.91Z</time></trkpt><trkpt lat="42.3095401" lon="13.289006"><ele>798.0</ele><time>2026-05-02T16:36:31.91Z</time></trkpt><trkpt lat="42.3094592" lon="13.2890931"><ele>798.0</ele><time>2026-05-02T16:36:32.909Z</time></trkpt><trkpt lat="42.3093943" lon="13.2891626"><ele>798.0</ele><time>2026-05-02T16:36:33.909Z</time></trkpt><trkpt lat="42.3093444" lon="13.2892168"><ele>798.0</ele><time>2026-05-02T16:36:34.91Z</time></trkpt><trkpt lat="42.3092966" lon="13.2892729"><ele>798.0</ele><time>2026-05-02T16:36:35.91Z</time></trkpt><trkpt lat="42.3091895" lon="13.289387"><ele>798.0</ele><time>2026-05-02T16:36:37.909Z</time></trkpt><trkpt lat="42.3091264" lon="13.289456"><ele>798.0</ele><time>2026-05-02T16:36:38.909Z</time></trkpt><trkpt lat="42.3090602" lon="13.2895342"><ele>798.0</ele><time>2026-05-02T16:36:39.911Z</time></trkpt><trkpt lat="42.3089893" lon="13.2896121"><ele>798.0</ele><time>2026-05-02T16:36:40.909Z</time></trkpt><trkpt lat="42.3089239" lon="13.2896844"><ele>797.5999999999999</ele><time>2026-05-02T16:36:41.909Z</time></trkpt><trkpt lat="42.3088677" lon="13.289747"><ele>797.1999999999999</ele><time>2026-05-02T16:36:42.91Z</time></trkpt><trkpt lat="42.3088224" lon="13.2898113"><ele>796.8</ele><time>2026-05-02T16:36:43.909Z</time></trkpt><trkpt lat="42.308803" lon="13.2899414"><ele>796.4</ele><time>2026-05-02T16:36:45.91Z</time></trkpt><trkpt lat="42.3088663" lon="13.2901108"><ele>796.0</ele><time>2026-05-02T16:36:47.908Z</time></trkpt><trkpt lat="42.3089238" lon="13.290217"><ele>797.1999999999999</ele><time>2026-05-02T16:36:48.909Z</time></trkpt><trkpt lat="42.3089875" lon="13.2903237"><ele>798.4</ele><time>2026-05-02T16:36:49.911Z</time></trkpt><trkpt lat="42.3090497" lon="13.2904274"><ele>799.6</ele><time>2026-05-02T16:36:50.909Z</time></trkpt><trkpt lat="42.3090999" lon="13.2905198"><ele>800.8</ele><time>2026-05-02T16:36:51.911Z</time></trkpt><trkpt lat="42.3091374" lon="13.2905935"><ele>802.0</ele><time>2026-05-02T16:36:52.909Z</time></trkpt><trkpt lat="42.3091787" lon="13.2907229"><ele>801.9999999999999</ele><time>2026-05-02T16:36:54.909Z</time></trkpt><trkpt lat="42.3091639" lon="13.2908096"><ele>802.0</ele><time>2026-05-02T16:36:55.909Z</time></trkpt><trkpt lat="42.309159" lon="13.2908983"><ele>802.0</ele><time>2026-05-02T16:36:56.91Z</time></trkpt><trkpt lat="42.3091899" lon="13.291022"><ele>802.0</ele><time>2026-05-02T16:36:57.911Z</time></trkpt><trkpt lat="42.3092295" lon="13.2911407"><ele>801.9999999999999</ele><time>2026-05-02T16:36:58.91Z</time></trkpt><trkpt lat="42.3092589" lon="13.2912606"><ele>802.0</ele><time>2026-05-02T16:36:59.91Z</time></trkpt><trkpt lat="42.309285" lon="13.2913832"><ele>801.6666666666666</ele><time>2026-05-02T16:37:00.909Z</time></trkpt><trkpt lat="42.3093112" lon="13.2914862"><ele>801.3333333333333</ele><time>2026-05-02T16:37:01.91Z</time></trkpt><trkpt lat="42.3093271" lon="13.2915945"><ele>801.0</ele><time>2026-05-02T16:37:02.909Z</time></trkpt><trkpt lat="42.3093457" lon="13.2916943"><ele>800.6666666666667</ele><time>2026-05-02T16:37:03.91Z</time></trkpt><trkpt lat="42.3093627" lon="13.2917951"><ele>800.3333333333334</ele><time>2026-05-02T16:37:04.91Z</time></trkpt><trkpt lat="42.3093842" lon="13.2918948"><ele>800.0</ele><time>2026-05-02T16:37:05.909Z</time></trkpt><trkpt lat="42.3093936" lon="13.2919824"><ele>800.0</ele><time>2026-05-02T16:37:06.91Z</time></trkpt><trkpt lat="42.309409" lon="13.2921491"><ele>800.0</ele><time>2026-05-02T16:37:08.911Z</time></trkpt><trkpt lat="42.3094279" lon="13.2923176"><ele>800.0</ele><time>2026-05-02T16:37:10.909Z</time></trkpt><trkpt lat="42.3094786" lon="13.2924851"><ele>800.0</ele><time>2026-05-02T16:37:12.91Z</time></trkpt><trkpt lat="42.3095053" lon="13.2925916"><ele>799.6</ele><time>2026-05-02T16:37:13.91Z</time></trkpt><trkpt lat="42.3095295" lon="13.2927125"><ele>799.2</ele><time>2026-05-02T16:37:14.91Z</time></trkpt><trkpt lat="42.3095386" lon="13.2928598"><ele>798.8</ele><time>2026-05-02T16:37:15.91Z</time></trkpt><trkpt lat="42.3095487" lon="13.2929981"><ele>798.4</ele><time>2026-05-02T16:37:16.909Z</time></trkpt><trkpt lat="42.3095603" lon="13.2931193"><ele>798.0</ele><time>2026-05-02T16:37:17.91Z</time></trkpt><trkpt lat="42.3095701" lon="13.2932426"><ele>797.0</ele><time>2026-05-02T16:37:18.909Z</time></trkpt><trkpt lat="42.3095809" lon="13.2933545"><ele>796.0</ele><time>2026-05-02T16:37:19.909Z</time></trkpt><trkpt lat="42.309581" lon="13.2934543"><ele>795.0</ele><time>2026-05-02T16:37:20.909Z</time></trkpt><trkpt lat="42.3096175" lon="13.2935837"><ele>794.0</ele><time>2026-05-02T16:37:22.909Z</time></trkpt><trkpt lat="42.3097006" lon="13.2936236"><ele>793.0</ele><time>2026-05-02T16:37:24.91Z</time></trkpt><trkpt lat="42.3098039" lon="13.293561"><ele>790.8</ele><time>2026-05-02T16:37:26.909Z</time></trkpt><trkpt lat="42.3099319" lon="13.2935045"><ele>788.5999999999999</ele><time>2026-05-02T16:37:28.91Z</time></trkpt><trkpt lat="42.3099954" lon="13.2935154"><ele>786.4000000000001</ele><time>2026-05-02T16:37:29.909Z</time></trkpt><trkpt lat="42.3100772" lon="13.2936533"><ele>784.2</ele><time>2026-05-02T16:37:31.909Z</time></trkpt><trkpt lat="42.3101028" lon="13.2938056"><ele>782.0</ele><time>2026-05-02T16:37:33.91Z</time></trkpt><trkpt lat="42.3100572" lon="13.2939483"><ele>782.1666666666667</ele><time>2026-05-02T16:37:35.909Z</time></trkpt><trkpt lat="42.3100102" lon="13.2940053"><ele>782.3333333333334</ele><time>2026-05-02T16:37:36.911Z</time></trkpt><trkpt lat="42.3099399" lon="13.2940508"><ele>782.5</ele><time>2026-05-02T16:37:37.91Z</time></trkpt><trkpt lat="42.3098537" lon="13.2940788"><ele>782.6666666666667</ele><time>2026-05-02T16:37:38.908Z</time></trkpt><trkpt lat="42.3097671" lon="13.2941004"><ele>782.8333333333334</ele><time>2026-05-02T16:37:39.911Z</time></trkpt><trkpt lat="42.3096877" lon="13.2941192"><ele>783.0</ele><time>2026-05-02T16:37:40.908Z</time></trkpt><trkpt lat="42.3096092" lon="13.294144"><ele>783.0</ele><time>2026-05-02T16:37:41.909Z</time></trkpt><trkpt lat="42.3095404" lon="13.2941716"><ele>783.0</ele><time>2026-05-02T16:37:42.911Z</time></trkpt><trkpt lat="42.3094684" lon="13.2943017"><ele>783.0</ele><time>2026-05-02T16:37:44.91Z</time></trkpt><trkpt lat="42.3094439" lon="13.2943913"><ele>783.0</ele><time>2026-05-02T16:37:45.909Z</time></trkpt><trkpt lat="42.3094667" lon="13.2944913"><ele>783.0</ele><time>2026-05-02T16:37:46.908Z</time></trkpt><trkpt lat="42.3094777" lon="13.2946681"><ele>782.0</ele><time>2026-05-02T16:37:48.91Z</time></trkpt><trkpt lat="42.3094583" lon="13.2948609"><ele>781.0</ele><time>2026-05-02T16:37:50.911Z</time></trkpt><trkpt lat="42.3094347" lon="13.2949773"><ele>780.0</ele><time>2026-05-02T16:37:51.91Z</time></trkpt><trkpt lat="42.309388" lon="13.2950948"><ele>779.0</ele><time>2026-05-02T16:37:52.911Z</time></trkpt><trkpt lat="42.3093432" lon="13.2951963"><ele>778.0</ele><time>2026-05-02T16:37:53.91Z</time></trkpt><trkpt lat="42.3093061" lon="13.2952916"><ele>777.9999999999999</ele><time>2026-05-02T16:37:54.91Z</time></trkpt><trkpt lat="42.3092819" lon="13.2953816"><ele>778.0</ele><time>2026-05-02T16:37:55.909Z</time></trkpt><trkpt lat="42.3092583" lon="13.2954822"><ele>778.0</ele><time>2026-05-02T16:37:56.909Z</time></trkpt><trkpt lat="42.3092236" lon="13.2955765"><ele>778.0</ele><time>2026-05-02T16:37:57.91Z</time></trkpt><trkpt lat="42.3091785" lon="13.29569"><ele>777.9999999999999</ele><time>2026-05-02T16:37:58.91Z</time></trkpt><trkpt lat="42.3091428" lon="13.295802"><ele>778.0</ele><time>2026-05-02T16:37:59.909Z</time></trkpt><trkpt lat="42.3091025" lon="13.2959068"><ele>778.75</ele><time>2026-05-02T16:38:00.91Z</time></trkpt><trkpt lat="42.3090457" lon="13.2960245"><ele>779.5</ele><time>2026-05-02T16:38:01.91Z</time></trkpt><trkpt lat="42.308963" lon="13.2961564"><ele>780.25</ele><time>2026-05-02T16:38:02.91Z</time></trkpt><trkpt lat="42.3088914" lon="13.2963089"><ele>781.0</ele><time>2026-05-02T16:38:03.909Z</time></trkpt><trkpt lat="42.3088266" lon="13.2964522"><ele>779.25</ele><time>2026-05-02T16:38:04.91Z</time></trkpt><trkpt lat="42.3087676" lon="13.2965943"><ele>777.5</ele><time>2026-05-02T16:38:05.911Z</time></trkpt><trkpt lat="42.3087165" lon="13.2967315"><ele>775.75</ele><time>2026-05-02T16:38:06.909Z</time></trkpt><trkpt lat="42.3086758" lon="13.2968674"><ele>774.0</ele><time>2026-05-02T16:38:07.909Z</time></trkpt><trkpt lat="42.3086264" lon="13.2970045"><ele>774.0</ele><time>2026-05-02T16:38:08.909Z</time></trkpt><trkpt lat="42.3085588" lon="13.2971241"><ele>774.0</ele><time>2026-05-02T16:38:09.91Z</time></trkpt><trkpt lat="42.3084859" lon="13.2972431"><ele>774.0</ele><time>2026-05-02T16:38:10.91Z</time></trkpt><trkpt lat="42.3084232" lon="13.2973511"><ele>774.0</ele><time>2026-05-02T16:38:11.909Z</time></trkpt><trkpt lat="42.308371" lon="13.29746"><ele>774.0</ele><time>2026-05-02T16:38:12.911Z</time></trkpt><trkpt lat="42.3083341" lon="13.2975748"><ele>773.4000000000001</ele><time>2026-05-02T16:38:13.909Z</time></trkpt><trkpt lat="42.3083396" lon="13.2977059"><ele>772.8</ele><time>2026-05-02T16:38:14.909Z</time></trkpt><trkpt lat="42.3083452" lon="13.2978383"><ele>772.2</ele><time>2026-05-02T16:38:15.91Z</time></trkpt><trkpt lat="42.3083608" lon="13.2979465"><ele>771.5999999999999</ele><time>2026-05-02T16:38:16.91Z</time></trkpt><trkpt lat="42.3083736" lon="13.2980434"><ele>771.0</ele><time>2026-05-02T16:38:17.91Z</time></trkpt><trkpt lat="42.3083878" lon="13.2981831"><ele>770.5</ele><time>2026-05-02T16:38:19.909Z</time></trkpt><trkpt lat="42.3083604" lon="13.2982703"><ele>770.0</ele><time>2026-05-02T16:38:21.909Z</time></trkpt><trkpt lat="42.3083093" lon="13.2983483"><ele>769.5</ele><time>2026-05-02T16:38:24.91Z</time></trkpt><trkpt lat="42.3082634" lon="13.2984114"><ele>769.0</ele><time>2026-05-02T16:38:49.91Z</time></trkpt><trkpt lat="42.3081374" lon="13.2985101"><ele>768.5</ele><time>2026-05-02T16:38:51.908Z</time></trkpt><trkpt lat="42.3080712" lon="13.2985422"><ele>768.0</ele><time>2026-05-02T16:38:52.909Z</time></trkpt><trkpt lat="42.3079923" lon="13.2985552"><ele>769.1666666666666</ele><time>2026-05-02T16:38:53.91Z</time></trkpt><trkpt lat="42.3079143" lon="13.29856"><ele>770.3333333333333</ele><time>2026-05-02T16:38:54.908Z</time></trkpt><trkpt lat="42.3078344" lon="13.2985527"><ele>771.5</ele><time>2026-05-02T16:38:55.91Z</time></trkpt><trkpt lat="42.3077574" lon="13.2985743"><ele>772.6666666666666</ele><time>2026-05-02T16:38:56.909Z</time></trkpt><trkpt lat="42.30769" lon="13.2986297"><ele>773.8333333333333</ele><time>2026-05-02T16:38:57.909Z</time></trkpt><trkpt lat="42.3076202" lon="13.2986936"><ele>775.0</ele><time>2026-05-02T16:38:58.909Z</time></trkpt><trkpt lat="42.3075667" lon="13.2987559"><ele>774.9999999999999</ele><time>2026-05-02T16:38:59.908Z</time></trkpt><trkpt lat="42.3075305" lon="13.2988319"><ele>775.0</ele><time>2026-05-02T16:39:00.911Z</time></trkpt><trkpt lat="42.3074908" lon="13.2989105"><ele>775.0</ele><time>2026-05-02T16:39:01.91Z</time></trkpt><trkpt lat="42.3074906" lon="13.2990196"><ele>775.0</ele><time>2026-05-02T16:39:02.91Z</time></trkpt><trkpt lat="42.3074666" lon="13.2991087"><ele>774.9999999999999</ele><time>2026-05-02T16:39:03.911Z</time></trkpt><trkpt lat="42.3073914" lon="13.2992394"><ele>775.0</ele><time>2026-05-02T16:39:05.911Z</time></trkpt><trkpt lat="42.3072669" lon="13.2992476"><ele>775.1666666666666</ele><time>2026-05-02T16:39:07.91Z</time></trkpt><trkpt lat="42.307185" lon="13.2992645"><ele>775.3333333333333</ele><time>2026-05-02T16:39:08.911Z</time></trkpt><trkpt lat="42.3071132" lon="13.2992689"><ele>775.5</ele><time>2026-05-02T16:39:09.91Z</time></trkpt><trkpt lat="42.307047" lon="13.2992503"><ele>775.6666666666667</ele><time>2026-05-02T16:39:10.911Z</time></trkpt><trkpt lat="42.3069505" lon="13.2992701"><ele>775.8333333333334</ele><time>2026-05-02T16:39:12.909Z</time></trkpt><trkpt lat="42.3068687" lon="13.2993682"><ele>776.0</ele><time>2026-05-02T16:39:14.911Z</time></trkpt><trkpt lat="42.306792" lon="13.2994465"><ele>776.0000000000001</ele><time>2026-05-02T16:39:16.91Z</time></trkpt><trkpt lat="42.3067135" lon="13.2994408"><ele>776.0</ele><time>2026-05-02T16:39:18.91Z</time></trkpt><trkpt lat="42.3066293" lon="13.2994489"><ele>776.0</ele><time>2026-05-02T16:39:20.91Z</time></trkpt><trkpt lat="42.3065863" lon="13.2995246"><ele>776.0</ele><time>2026-05-02T16:39:22.91Z</time></trkpt><trkpt lat="42.3065482" lon="13.2996075"><ele>776.0000000000001</ele><time>2026-05-02T16:39:23.909Z</time></trkpt><trkpt lat="42.3065152" lon="13.299691"><ele>776.0</ele><time>2026-05-02T16:39:24.911Z</time></trkpt><trkpt lat="42.3064529" lon="13.2997885"><ele>776.1999999999999</ele><time>2026-05-02T16:39:26.91Z</time></trkpt><trkpt lat="42.3063645" lon="13.2998269"><ele>776.4</ele><time>2026-05-02T16:39:28.91Z</time></trkpt><trkpt lat="42.306272" lon="13.299901"><ele>776.6</ele><time>2026-05-02T16:39:30.909Z</time></trkpt><trkpt lat="42.306183" lon="13.3000034"><ele>776.8</ele><time>2026-05-02T16:39:32.909Z</time></trkpt><trkpt lat="42.3061095" lon="13.2999951"><ele>777.0</ele><time>2026-05-02T16:39:34.91Z</time></trkpt><trkpt lat="42.3060109" lon="13.2999453"><ele>777.0</ele><time>2026-05-02T16:39:36.91Z</time></trkpt><trkpt lat="42.3059205" lon="13.2999675"><ele>777.0</ele><time>2026-05-02T16:39:38.909Z</time></trkpt><trkpt lat="42.3058317" lon="13.3000376"><ele>777.0</ele><time>2026-05-02T16:39:40.91Z</time></trkpt><trkpt lat="42.3057741" lon="13.3000785"><ele>777.0</ele><time>2026-05-02T16:39:41.908Z</time></trkpt><trkpt lat="42.3057081" lon="13.3001148"><ele>777.0</ele><time>2026-05-02T16:39:42.909Z</time></trkpt><trkpt lat="42.3056389" lon="13.3001501"><ele>777.0</ele><time>2026-05-02T16:39:43.91Z</time></trkpt><trkpt lat="42.3055788" lon="13.30019"><ele>778.4000000000001</ele><time>2026-05-02T16:39:44.909Z</time></trkpt><trkpt lat="42.3055326" lon="13.3002513"><ele>779.8000000000001</ele><time>2026-05-02T16:39:45.909Z</time></trkpt><trkpt lat="42.3054528" lon="13.3003585"><ele>781.2</ele><time>2026-05-02T16:39:47.91Z</time></trkpt><trkpt lat="42.3053324" lon="13.3004011"><ele>782.6</ele><time>2026-05-02T16:39:49.91Z</time></trkpt><trkpt lat="42.3052123" lon="13.3004519"><ele>784.0</ele><time>2026-05-02T16:39:51.91Z</time></trkpt><trkpt lat="42.3051488" lon="13.3005214"><ele>783.3333333333333</ele><time>2026-05-02T16:39:52.909Z</time></trkpt><trkpt lat="42.3050809" lon="13.3005929"><ele>782.6666666666666</ele><time>2026-05-02T16:39:53.91Z</time></trkpt><trkpt lat="42.3050068" lon="13.3006371"><ele>782.0</ele><time>2026-05-02T16:39:54.91Z</time></trkpt><trkpt lat="42.3049344" lon="13.3006889"><ele>781.3333333333333</ele><time>2026-05-02T16:39:55.91Z</time></trkpt><trkpt lat="42.3048607" lon="13.3007551"><ele>780.6666666666666</ele><time>2026-05-02T16:39:56.91Z</time></trkpt><trkpt lat="42.3047825" lon="13.3008087"><ele>780.0</ele><time>2026-05-02T16:39:57.908Z</time></trkpt><trkpt lat="42.3047043" lon="13.3008464"><ele>780.0</ele><time>2026-05-02T16:39:58.908Z</time></trkpt><trkpt lat="42.3046292" lon="13.3008731"><ele>780.0</ele><time>2026-05-02T16:39:59.91Z</time></trkpt><trkpt lat="42.3045606" lon="13.3008772"><ele>780.0</ele><time>2026-05-02T16:40:00.909Z</time></trkpt><trkpt lat="42.3044933" lon="13.3008654"><ele>780.0</ele><time>2026-05-02T16:40:01.91Z</time></trkpt><trkpt lat="42.304426" lon="13.3008529"><ele>780.0</ele><time>2026-05-02T16:40:02.911Z</time></trkpt><trkpt lat="42.304363" lon="13.3008428"><ele>780.0</ele><time>2026-05-02T16:40:03.91Z</time></trkpt><trkpt lat="42.3042953" lon="13.3008557"><ele>780.0</ele><time>2026-05-02T16:40:04.91Z</time></trkpt><trkpt lat="42.3042354" lon="13.3009175"><ele>780.0</ele><time>2026-05-02T16:40:05.911Z</time></trkpt><trkpt lat="42.3041752" lon="13.3010023"><ele>780.0</ele><time>2026-05-02T16:40:06.91Z</time></trkpt><trkpt lat="42.3041183" lon="13.3010948"><ele>780.0</ele><time>2026-05-02T16:40:07.91Z</time></trkpt><trkpt lat="42.3040586" lon="13.3011756"><ele>780.0</ele><time>2026-05-02T16:40:08.911Z</time></trkpt><trkpt lat="42.3039867" lon="13.3012641"><ele>780.0</ele><time>2026-05-02T16:40:09.91Z</time></trkpt><trkpt lat="42.3039153" lon="13.3013441"><ele>781.5</ele><time>2026-05-02T16:40:10.909Z</time></trkpt><trkpt lat="42.3038018" lon="13.3013684"><ele>783.0</ele><time>2026-05-02T16:40:12.91Z</time></trkpt><trkpt lat="42.3036665" lon="13.3013111"><ele>784.5</ele><time>2026-05-02T16:40:14.91Z</time></trkpt><trkpt lat="42.3035939" lon="13.3013008"><ele>786.0</ele><time>2026-05-02T16:40:15.911Z</time></trkpt><trkpt lat="42.3034716" lon="13.3013781"><ele>785.8</ele><time>2026-05-02T16:40:17.91Z</time></trkpt><trkpt lat="42.303407" lon="13.3014384"><ele>785.5999999999999</ele><time>2026-05-02T16:40:18.91Z</time></trkpt><trkpt lat="42.30334" lon="13.3014733"><ele>785.4</ele><time>2026-05-02T16:40:19.911Z</time></trkpt><trkpt lat="42.3032292" lon="13.3014695"><ele>785.2</ele><time>2026-05-02T16:40:21.909Z</time></trkpt><trkpt lat="42.303093" lon="13.3014602"><ele>785.0</ele><time>2026-05-02T16:40:23.909Z</time></trkpt><trkpt lat="42.3029966" lon="13.3014848"><ele>785.3333333333334</ele><time>2026-05-02T16:40:24.909Z</time></trkpt><trkpt lat="42.302916" lon="13.3015206"><ele>785.6666666666667</ele><time>2026-05-02T16:40:25.908Z</time></trkpt><trkpt lat="42.3028375" lon="13.3015593"><ele>786.0</ele><time>2026-05-02T16:40:26.91Z</time></trkpt><trkpt lat="42.3027642" lon="13.3015988"><ele>786.3333333333333</ele><time>2026-05-02T16:40:27.91Z</time></trkpt><trkpt lat="42.3026909" lon="13.3016305"><ele>786.6666666666666</ele><time>2026-05-02T16:40:28.91Z</time></trkpt><trkpt lat="42.3026146" lon="13.301632"><ele>787.0</ele><time>2026-05-02T16:40:29.911Z</time></trkpt><trkpt lat="42.3025353" lon="13.3016151"><ele>786.9999999999999</ele><time>2026-05-02T16:40:30.909Z</time></trkpt><trkpt lat="42.3024632" lon="13.3016024"><ele>787.0</ele><time>2026-05-02T16:40:31.91Z</time></trkpt><trkpt lat="42.3023997" lon="13.3016145"><ele>787.0</ele><time>2026-05-02T16:40:32.91Z</time></trkpt><trkpt lat="42.3023366" lon="13.3016656"><ele>787.0</ele><time>2026-05-02T16:40:33.911Z</time></trkpt><trkpt lat="42.3022722" lon="13.301735"><ele>786.9999999999999</ele><time>2026-05-02T16:40:34.909Z</time></trkpt><trkpt lat="42.3022029" lon="13.301791"><ele>787.0</ele><time>2026-05-02T16:40:35.908Z</time></trkpt><trkpt lat="42.3020989" lon="13.301805"><ele>786.9999999999999</ele><time>2026-05-02T16:40:37.91Z</time></trkpt><trkpt lat="42.3020184" lon="13.3018524"><ele>787.0</ele><time>2026-05-02T16:40:39.91Z</time></trkpt><trkpt lat="42.3019782" lon="13.3019397"><ele>787.0</ele><time>2026-05-02T16:40:41.91Z</time></trkpt><trkpt lat="42.3019236" lon="13.3020667"><ele>787.0</ele><time>2026-05-02T16:40:43.908Z</time></trkpt><trkpt lat="42.3018857" lon="13.3021424"><ele>786.9999999999999</ele><time>2026-05-02T16:40:44.911Z</time></trkpt><trkpt lat="42.3018098" lon="13.3022443"><ele>787.0</ele><time>2026-05-02T16:40:46.909Z</time></trkpt><trkpt lat="42.3018652" lon="13.3023111"><ele>788.2</ele><time>2026-05-02T16:40:50.909Z</time></trkpt><trkpt lat="42.3019538" lon="13.3023234"><ele>789.4000000000001</ele><time>2026-05-02T16:40:52.909Z</time></trkpt><trkpt lat="42.3020388" lon="13.3024443"><ele>790.5999999999999</ele><time>2026-05-02T16:40:54.91Z</time></trkpt><trkpt lat="42.3020863" lon="13.302526"><ele>791.8</ele><time>2026-05-02T16:40:55.909Z</time></trkpt><trkpt lat="42.302135" lon="13.3026002"><ele>793.0</ele><time>2026-05-02T16:40:56.909Z</time></trkpt><trkpt lat="42.3022482" lon="13.302676"><ele>793.0</ele><time>2026-05-02T16:40:58.909Z</time></trkpt><trkpt lat="42.3023315" lon="13.3026974"><ele>793.0</ele><time>2026-05-02T16:40:59.908Z</time></trkpt><trkpt lat="42.30242" lon="13.3027229"><ele>793.0</ele><time>2026-05-02T16:41:00.911Z</time></trkpt><trkpt lat="42.3025059" lon="13.302767"><ele>793.0</ele><time>2026-05-02T16:41:01.908Z</time></trkpt><trkpt lat="42.3025921" lon="13.3028182"><ele>793.0</ele><time>2026-05-02T16:41:02.908Z</time></trkpt><trkpt lat="42.3026824" lon="13.3028608"><ele>793.0</ele><time>2026-05-02T16:41:03.909Z</time></trkpt><trkpt lat="42.3027865" lon="13.3028848"><ele>793.0</ele><time>2026-05-02T16:41:04.91Z</time></trkpt><trkpt lat="42.3029029" lon="13.3028791"><ele>793.0</ele><time>2026-05-02T16:41:05.91Z</time></trkpt><trkpt lat="42.3030284" lon="13.302855"><ele>793.0</ele><time>2026-05-02T16:41:06.91Z</time></trkpt><trkpt lat="42.3031569" lon="13.3028249"><ele>793.0</ele><time>2026-05-02T16:41:07.911Z</time></trkpt><trkpt lat="42.3032886" lon="13.3027951"><ele>793.0</ele><time>2026-05-02T16:41:08.91Z</time></trkpt><trkpt lat="42.3034282" lon="13.3027638"><ele>793.0</ele><time>2026-05-02T16:41:09.909Z</time></trkpt><trkpt lat="42.3035729" lon="13.3027319"><ele>793.0</ele><time>2026-05-02T16:41:10.909Z</time></trkpt><trkpt lat="42.3037202" lon="13.302715"><ele>793.0</ele><time>2026-05-02T16:41:11.908Z</time></trkpt><trkpt lat="42.3038772" lon="13.3027081"><ele>793.0</ele><time>2026-05-02T16:41:12.909Z</time></trkpt><trkpt lat="42.3040391" lon="13.3027249"><ele>793.0</ele><time>2026-05-02T16:41:13.909Z</time></trkpt><trkpt lat="42.3042019" lon="13.3027536"><ele>794.0</ele><time>2026-05-02T16:41:14.91Z</time></trkpt><trkpt lat="42.3043528" lon="13.3027787"><ele>795.0</ele><time>2026-05-02T16:41:15.909Z</time></trkpt><trkpt lat="42.3044933" lon="13.3027876"><ele>796.0</ele><time>2026-05-02T16:41:16.909Z</time></trkpt><trkpt lat="42.3046416" lon="13.3027484"><ele>797.0</ele><time>2026-05-02T16:41:17.91Z</time></trkpt><trkpt lat="42.3047889" lon="13.3026785"><ele>799.3333333333334</ele><time>2026-05-02T16:41:18.909Z</time></trkpt><trkpt lat="42.3049421" lon="13.3026018"><ele>801.6666666666667</ele><time>2026-05-02T16:41:19.909Z</time></trkpt><trkpt lat="42.3050978" lon="13.3025429"><ele>804.0</ele><time>2026-05-02T16:41:20.909Z</time></trkpt><trkpt lat="42.3052523" lon="13.3024958"><ele>804.0</ele><time>2026-05-02T16:41:21.909Z</time></trkpt><trkpt lat="42.3054101" lon="13.3024529"><ele>804.0</ele><time>2026-05-02T16:41:22.909Z</time></trkpt><trkpt lat="42.3055681" lon="13.3024062"><ele>804.0</ele><time>2026-05-02T16:41:23.908Z</time></trkpt><trkpt lat="42.305732" lon="13.3023569"><ele>804.6666666666667</ele><time>2026-05-02T16:41:24.909Z</time></trkpt><trkpt lat="42.3058978" lon="13.3023146"><ele>805.3333333333334</ele><time>2026-05-02T16:41:25.911Z</time></trkpt><trkpt lat="42.306054" lon="13.302276"><ele>806.0</ele><time>2026-05-02T16:41:26.91Z</time></trkpt><trkpt lat="42.3062091" lon="13.3022253"><ele>803.0</ele><time>2026-05-02T16:41:27.908Z</time></trkpt><trkpt lat="42.3063676" lon="13.3021653"><ele>800.0</ele><time>2026-05-02T16:41:28.91Z</time></trkpt><trkpt lat="42.3065274" lon="13.3020936"><ele>797.0</ele><time>2026-05-02T16:41:29.908Z</time></trkpt><trkpt lat="42.3066894" lon="13.3020118"><ele>797.0</ele><time>2026-05-02T16:41:30.91Z</time></trkpt><trkpt lat="42.3068544" lon="13.3019408"><ele>797.0</ele><time>2026-05-02T16:41:31.91Z</time></trkpt><trkpt lat="42.3070252" lon="13.3018705"><ele>797.0</ele><time>2026-05-02T16:41:32.91Z</time></trkpt><trkpt lat="42.3071892" lon="13.3018289"><ele>798.0</ele><time>2026-05-02T16:41:33.909Z</time></trkpt><trkpt lat="42.3073438" lon="13.3017824"><ele>799.0</ele><time>2026-05-02T16:41:34.909Z</time></trkpt><trkpt lat="42.3074897" lon="13.301744"><ele>800.0</ele><time>2026-05-02T16:41:35.911Z</time></trkpt><trkpt lat="42.307637" lon="13.3017055"><ele>800.0</ele><time>2026-05-02T16:41:36.91Z</time></trkpt><trkpt lat="42.30779" lon="13.3016605"><ele>800.0</ele><time>2026-05-02T16:41:37.909Z</time></trkpt><trkpt lat="42.3079346" lon="13.3015966"><ele>800.0</ele><time>2026-05-02T16:41:38.909Z</time></trkpt><trkpt lat="42.3080653" lon="13.3015063"><ele>799.25</ele><time>2026-05-02T16:41:39.91Z</time></trkpt><trkpt lat="42.3081793" lon="13.3013871"><ele>798.5</ele><time>2026-05-02T16:41:40.909Z</time></trkpt><trkpt lat="42.3082816" lon="13.3012511"><ele>797.75</ele><time>2026-05-02T16:41:41.91Z</time></trkpt><trkpt lat="42.3083899" lon="13.3011113"><ele>797.0</ele><time>2026-05-02T16:41:42.91Z</time></trkpt><trkpt lat="42.3084958" lon="13.3009739"><ele>797.0</ele><time>2026-05-02T16:41:43.911Z</time></trkpt><trkpt lat="42.3086069" lon="13.3008388"><ele>797.0</ele><time>2026-05-02T16:41:44.909Z</time></trkpt><trkpt lat="42.3087265" lon="13.3007167"><ele>797.0</ele><time>2026-05-02T16:41:45.909Z</time></trkpt><trkpt lat="42.3088525" lon="13.3006098"><ele>797.0</ele><time>2026-05-02T16:41:46.911Z</time></trkpt><trkpt lat="42.3089895" lon="13.3005191"><ele>796.3333333333334</ele><time>2026-05-02T16:41:47.91Z</time></trkpt><trkpt lat="42.3091278" lon="13.3004398"><ele>795.6666666666667</ele><time>2026-05-02T16:41:48.909Z</time></trkpt><trkpt lat="42.3092771" lon="13.3003704"><ele>795.0</ele><time>2026-05-02T16:41:49.911Z</time></trkpt><trkpt lat="42.3094258" lon="13.300313"><ele>795.0</ele><time>2026-05-02T16:41:50.91Z</time></trkpt><trkpt lat="42.3095764" lon="13.3002646"><ele>795.0</ele><time>2026-05-02T16:41:51.91Z</time></trkpt><trkpt lat="42.3097272" lon="13.3002157"><ele>795.0</ele><time>2026-05-02T16:41:52.911Z</time></trkpt><trkpt lat="42.309864" lon="13.3001657"><ele>797.25</ele><time>2026-05-02T16:41:53.91Z</time></trkpt><trkpt lat="42.3099835" lon="13.3000999"><ele>799.5</ele><time>2026-05-02T16:41:54.91Z</time></trkpt><trkpt lat="42.3100909" lon="13.3000247"><ele>801.75</ele><time>2026-05-02T16:41:55.91Z</time></trkpt><trkpt lat="42.3101809" lon="13.2999154"><ele>804.0</ele><time>2026-05-02T16:41:56.911Z</time></trkpt><trkpt lat="42.310236" lon="13.29975"><ele>804.0</ele><time>2026-05-02T16:41:57.91Z</time></trkpt><trkpt lat="42.3102957" lon="13.2995953"><ele>804.0</ele><time>2026-05-02T16:41:58.91Z</time></trkpt><trkpt lat="42.3103689" lon="13.2994593"><ele>804.0</ele><time>2026-05-02T16:41:59.91Z</time></trkpt><trkpt lat="42.3104619" lon="13.2993397"><ele>804.0</ele><time>2026-05-02T16:42:00.911Z</time></trkpt><trkpt lat="42.310568" lon="13.2992355"><ele>805.2</ele><time>2026-05-02T16:42:01.911Z</time></trkpt><trkpt lat="42.3106687" lon="13.2991442"><ele>806.4000000000001</ele><time>2026-05-02T16:42:02.91Z</time></trkpt><trkpt lat="42.3107651" lon="13.2990625"><ele>807.6</ele><time>2026-05-02T16:42:03.91Z</time></trkpt><trkpt lat="42.3108621" lon="13.2989929"><ele>808.8</ele><time>2026-05-02T16:42:04.91Z</time></trkpt><trkpt lat="42.310952" lon="13.298921"><ele>810.0</ele><time>2026-05-02T16:42:05.91Z</time></trkpt><trkpt lat="42.3110397" lon="13.2988557"><ele>810.0</ele><time>2026-05-02T16:42:06.909Z</time></trkpt><trkpt lat="42.3111113" lon="13.2987868"><ele>810.0</ele><time>2026-05-02T16:42:07.909Z</time></trkpt><trkpt lat="42.3111821" lon="13.2987324"><ele>810.0</ele><time>2026-05-02T16:42:08.909Z</time></trkpt><trkpt lat="42.311248" lon="13.2986831"><ele>810.0</ele><time>2026-05-02T16:42:09.91Z</time></trkpt><trkpt lat="42.3113116" lon="13.2986346"><ele>810.0</ele><time>2026-05-02T16:42:10.91Z</time></trkpt><trkpt lat="42.3113674" lon="13.2985836"><ele>810.0</ele><time>2026-05-02T16:42:11.91Z</time></trkpt><trkpt lat="42.3114359" lon="13.2985326"><ele>810.4</ele><time>2026-05-02T16:42:12.91Z</time></trkpt><trkpt lat="42.3115081" lon="13.2984853"><ele>810.8</ele><time>2026-05-02T16:42:13.909Z</time></trkpt><trkpt lat="42.3115874" lon="13.2984419"><ele>811.2</ele><time>2026-05-02T16:42:14.911Z</time></trkpt><trkpt lat="42.3116729" lon="13.2983935"><ele>811.6</ele><time>2026-05-02T16:42:15.91Z</time></trkpt><trkpt lat="42.3117656" lon="13.2983426"><ele>812.0</ele><time>2026-05-02T16:42:16.91Z</time></trkpt><trkpt lat="42.3118559" lon="13.2983"><ele>812.0</ele><time>2026-05-02T16:42:17.91Z</time></trkpt><trkpt lat="42.3119489" lon="13.2982551"><ele>812.0</ele><time>2026-05-02T16:42:18.91Z</time></trkpt><trkpt lat="42.3120427" lon="13.2982236"><ele>812.0</ele><time>2026-05-02T16:42:19.911Z</time></trkpt><trkpt lat="42.3121457" lon="13.2981943"><ele>812.0</ele><time>2026-05-02T16:42:20.91Z</time></trkpt><trkpt lat="42.3122457" lon="13.2981732"><ele>812.0</ele><time>2026-05-02T16:42:21.909Z</time></trkpt><trkpt lat="42.3123459" lon="13.2981528"><ele>811.8</ele><time>2026-05-02T16:42:22.91Z</time></trkpt><trkpt lat="42.3124521" lon="13.2981398"><ele>811.6</ele><time>2026-05-02T16:42:23.909Z</time></trkpt><trkpt lat="42.3125603" lon="13.2981252"><ele>811.4</ele><time>2026-05-02T16:42:24.91Z</time></trkpt><trkpt lat="42.3126672" lon="13.2981076"><ele>811.1999999999999</ele><time>2026-05-02T16:42:25.91Z</time></trkpt><trkpt lat="42.3127592" lon="13.2980984"><ele>811.0</ele><time>2026-05-02T16:42:26.91Z</time></trkpt><trkpt lat="42.3128449" lon="13.2980908"><ele>810.9999999999999</ele><time>2026-05-02T16:42:27.91Z</time></trkpt><trkpt lat="42.3129363" lon="13.2980861"><ele>811.0</ele><time>2026-05-02T16:42:28.91Z</time></trkpt><trkpt lat="42.3130168" lon="13.2980764"><ele>811.0</ele><time>2026-05-02T16:42:29.91Z</time></trkpt><trkpt lat="42.313093" lon="13.2980523"><ele>811.0</ele><time>2026-05-02T16:42:30.909Z</time></trkpt><trkpt lat="42.3131762" lon="13.2980279"><ele>810.9999999999999</ele><time>2026-05-02T16:42:31.91Z</time></trkpt><trkpt lat="42.3132568" lon="13.2980028"><ele>811.0</ele><time>2026-05-02T16:42:32.91Z</time></trkpt><trkpt lat="42.3133349" lon="13.2979679"><ele>810.4999999999999</ele><time>2026-05-02T16:42:33.908Z</time></trkpt><trkpt lat="42.313413" lon="13.297927"><ele>810.0</ele><time>2026-05-02T16:42:34.91Z</time></trkpt><trkpt lat="42.3134878" lon="13.2978754"><ele>809.5</ele><time>2026-05-02T16:42:35.91Z</time></trkpt><trkpt lat="42.3135555" lon="13.2978177"><ele>809.0</ele><time>2026-05-02T16:42:36.91Z</time></trkpt><trkpt lat="42.3136216" lon="13.2977729"><ele>808.4999999999999</ele><time>2026-05-02T16:42:37.91Z</time></trkpt><trkpt lat="42.3136922" lon="13.2977284"><ele>808.0</ele><time>2026-05-02T16:42:38.91Z</time></trkpt><trkpt lat="42.313768" lon="13.2976839"><ele>807.9999999999999</ele><time>2026-05-02T16:42:39.909Z</time></trkpt><trkpt lat="42.3138468" lon="13.297648"><ele>808.0</ele><time>2026-05-02T16:42:40.91Z</time></trkpt><trkpt lat="42.3139176" lon="13.297624"><ele>808.0</ele><time>2026-05-02T16:42:41.91Z</time></trkpt><trkpt lat="42.3139881" lon="13.2976139"><ele>808.0</ele><time>2026-05-02T16:42:42.911Z</time></trkpt><trkpt lat="42.3141029" lon="13.2976352"><ele>807.9999999999999</ele><time>2026-05-02T16:42:44.91Z</time></trkpt><trkpt lat="42.314118" lon="13.297773"><ele>808.0</ele><time>2026-05-02T16:42:46.91Z</time></trkpt><trkpt lat="42.3141282" lon="13.2978645"><ele>807.4</ele><time>2026-05-02T16:42:47.909Z</time></trkpt><trkpt lat="42.3141444" lon="13.2980077"><ele>806.8</ele><time>2026-05-02T16:42:48.911Z</time></trkpt><trkpt lat="42.314169" lon="13.2981473"><ele>806.2</ele><time>2026-05-02T16:42:49.909Z</time></trkpt><trkpt lat="42.314194" lon="13.2983015"><ele>805.6</ele><time>2026-05-02T16:42:50.91Z</time></trkpt><trkpt lat="42.3142264" lon="13.2984564"><ele>805.0</ele><time>2026-05-02T16:42:51.909Z</time></trkpt><trkpt lat="42.3142627" lon="13.298612"><ele>805.0</ele><time>2026-05-02T16:42:52.909Z</time></trkpt><trkpt lat="42.3142917" lon="13.2987649"><ele>805.0</ele><time>2026-05-02T16:42:53.91Z</time></trkpt><trkpt lat="42.3143208" lon="13.2989033"><ele>805.0</ele><time>2026-05-02T16:42:54.91Z</time></trkpt><trkpt lat="42.3143447" lon="13.2990332"><ele>805.0</ele><time>2026-05-02T16:42:55.91Z</time></trkpt><trkpt lat="42.3143759" lon="13.2991431"><ele>805.0</ele><time>2026-05-02T16:42:56.911Z</time></trkpt><trkpt lat="42.314427" lon="13.2992331"><ele>804.0</ele><time>2026-05-02T16:42:57.91Z</time></trkpt><trkpt lat="42.3145005" lon="13.2992964"><ele>803.0</ele><time>2026-05-02T16:42:58.91Z</time></trkpt><trkpt lat="42.3145952" lon="13.2993373"><ele>802.0</ele><time>2026-05-02T16:42:59.91Z</time></trkpt><trkpt lat="42.3146972" lon="13.299364"><ele>801.0</ele><time>2026-05-02T16:43:00.91Z</time></trkpt><trkpt lat="42.3148207" lon="13.2993909"><ele>800.0</ele><time>2026-05-02T16:43:01.909Z</time></trkpt><trkpt lat="42.3149566" lon="13.2994099"><ele>798.0</ele><time>2026-05-02T16:43:02.909Z</time></trkpt><trkpt lat="42.3150963" lon="13.2994284"><ele>796.0</ele><time>2026-05-02T16:43:03.91Z</time></trkpt><trkpt lat="42.3152346" lon="13.2994265"><ele>794.0</ele><time>2026-05-02T16:43:04.909Z</time></trkpt><trkpt lat="42.3153737" lon="13.2994287"><ele>792.0</ele><time>2026-05-02T16:43:05.91Z</time></trkpt><trkpt lat="42.315488" lon="13.2994505"><ele>791.0</ele><time>2026-05-02T16:43:06.909Z</time></trkpt><trkpt lat="42.3156088" lon="13.2994851"><ele>790.0</ele><time>2026-05-02T16:43:07.91Z</time></trkpt><trkpt lat="42.3157164" lon="13.2995778"><ele>789.0</ele><time>2026-05-02T16:43:08.91Z</time></trkpt><trkpt lat="42.3158203" lon="13.2996839"><ele>788.0</ele><time>2026-05-02T16:43:09.908Z</time></trkpt><trkpt lat="42.3159331" lon="13.2997846"><ele>788.0</ele><time>2026-05-02T16:43:10.91Z</time></trkpt><trkpt lat="42.3160581" lon="13.299868"><ele>788.0</ele><time>2026-05-02T16:43:11.91Z</time></trkpt><trkpt lat="42.3161931" lon="13.2999177"><ele>788.0</ele><time>2026-05-02T16:43:12.91Z</time></trkpt><trkpt lat="42.3163352" lon="13.2999409"><ele>788.0</ele><time>2026-05-02T16:43:13.91Z</time></trkpt><trkpt lat="42.3164922" lon="13.299937"><ele>789.0</ele><time>2026-05-02T16:43:14.91Z</time></trkpt><trkpt lat="42.3166507" lon="13.2999348"><ele>790.0</ele><time>2026-05-02T16:43:15.909Z</time></trkpt><trkpt lat="42.3168166" lon="13.2999331"><ele>791.0</ele><time>2026-05-02T16:43:16.909Z</time></trkpt><trkpt lat="42.3169881" lon="13.2999335"><ele>791.0</ele><time>2026-05-02T16:43:17.91Z</time></trkpt><trkpt lat="42.3171586" lon="13.2999446"><ele>791.0</ele><time>2026-05-02T16:43:18.909Z</time></trkpt><trkpt lat="42.3173288" lon="13.2999512"><ele>791.0</ele><time>2026-05-02T16:43:19.909Z</time></trkpt><trkpt lat="42.3174832" lon="13.2999696"><ele>791.5</ele><time>2026-05-02T16:43:20.909Z</time></trkpt><trkpt lat="42.3176285" lon="13.2999885"><ele>792.0</ele><time>2026-05-02T16:43:21.91Z</time></trkpt><trkpt lat="42.3177583" lon="13.3000143"><ele>792.5</ele><time>2026-05-02T16:43:22.91Z</time></trkpt><trkpt lat="42.3178744" lon="13.3000695"><ele>793.0</ele><time>2026-05-02T16:43:23.91Z</time></trkpt><trkpt lat="42.317961" lon="13.3001968"><ele>793.0</ele><time>2026-05-02T16:43:24.91Z</time></trkpt><trkpt lat="42.3180448" lon="13.3003567"><ele>793.0</ele><time>2026-05-02T16:43:25.91Z</time></trkpt><trkpt lat="42.3181505" lon="13.3005249"><ele>793.0</ele><time>2026-05-02T16:43:26.909Z</time></trkpt><trkpt lat="42.3182678" lon="13.3006907"><ele>797.0</ele><time>2026-05-02T16:43:27.91Z</time></trkpt><trkpt lat="42.3184025" lon="13.3008329"><ele>801.0</ele><time>2026-05-02T16:43:28.911Z</time></trkpt><trkpt lat="42.3185384" lon="13.3009467"><ele>805.0</ele><time>2026-05-02T16:43:29.91Z</time></trkpt><trkpt lat="42.3186671" lon="13.3010434"><ele>805.0</ele><time>2026-05-02T16:43:30.91Z</time></trkpt><trkpt lat="42.3187578" lon="13.3010929"><ele>805.0</ele><time>2026-05-02T16:43:31.91Z</time></trkpt><trkpt lat="42.3188307" lon="13.3011326"><ele>805.0</ele><time>2026-05-02T16:43:32.91Z</time></trkpt><trkpt lat="42.3189084" lon="13.3012379"><ele>805.0</ele><time>2026-05-02T16:43:34.909Z</time></trkpt><trkpt lat="42.3188902" lon="13.3013823"><ele>805.0</ele><time>2026-05-02T16:43:36.911Z</time></trkpt><trkpt lat="42.318849" lon="13.3014726"><ele>806.4</ele><time>2026-05-02T16:43:37.908Z</time></trkpt><trkpt lat="42.3188" lon="13.3015794"><ele>807.8</ele><time>2026-05-02T16:43:38.908Z</time></trkpt><trkpt lat="42.3187411" lon="13.3016946"><ele>809.2</ele><time>2026-05-02T16:43:39.91Z</time></trkpt><trkpt lat="42.3186851" lon="13.3018219"><ele>810.6</ele><time>2026-05-02T16:43:40.911Z</time></trkpt><trkpt lat="42.3186286" lon="13.3019602"><ele>812.0</ele><time>2026-05-02T16:43:41.91Z</time></trkpt><trkpt lat="42.3185668" lon="13.3020992"><ele>812.0</ele><time>2026-05-02T16:43:42.911Z</time></trkpt><trkpt lat="42.3185086" lon="13.3022397"><ele>812.0</ele><time>2026-05-02T16:43:43.91Z</time></trkpt><trkpt lat="42.3184556" lon="13.3023771"><ele>812.0</ele><time>2026-05-02T16:43:44.909Z</time></trkpt><trkpt lat="42.3183961" lon="13.3025194"><ele>812.0</ele><time>2026-05-02T16:43:45.911Z</time></trkpt><trkpt lat="42.3183339" lon="13.3026661"><ele>810.75</ele><time>2026-05-02T16:43:46.909Z</time></trkpt><trkpt lat="42.3182674" lon="13.3028132"><ele>809.5</ele><time>2026-05-02T16:43:47.91Z</time></trkpt><trkpt lat="42.3182168" lon="13.3029728"><ele>808.25</ele><time>2026-05-02T16:43:48.91Z</time></trkpt><trkpt lat="42.3181719" lon="13.3031377"><ele>807.0</ele><time>2026-05-02T16:43:49.908Z</time></trkpt><trkpt lat="42.3181186" lon="13.3033032"><ele>806.5</ele><time>2026-05-02T16:43:50.91Z</time></trkpt><trkpt lat="42.3180697" lon="13.3034785"><ele>806.0</ele><time>2026-05-02T16:43:51.908Z</time></trkpt><trkpt lat="42.3180211" lon="13.3036423"><ele>805.5</ele><time>2026-05-02T16:43:52.91Z</time></trkpt><trkpt lat="42.317968" lon="13.3037839"><ele>805.0</ele><time>2026-05-02T16:43:53.909Z</time></trkpt><trkpt lat="42.3179104" lon="13.3039462"><ele>808.5</ele><time>2026-05-02T16:43:54.91Z</time></trkpt><trkpt lat="42.3178527" lon="13.3041111"><ele>812.0</ele><time>2026-05-02T16:43:55.909Z</time></trkpt><trkpt lat="42.3177915" lon="13.3042851"><ele>815.5</ele><time>2026-05-02T16:43:56.91Z</time></trkpt><trkpt lat="42.317729" lon="13.3044395"><ele>819.0</ele><time>2026-05-02T16:43:57.909Z</time></trkpt><trkpt lat="42.3176644" lon="13.3045902"><ele>818.0</ele><time>2026-05-02T16:43:58.91Z</time></trkpt><trkpt lat="42.3175947" lon="13.3047469"><ele>817.0</ele><time>2026-05-02T16:43:59.909Z</time></trkpt><trkpt lat="42.3175195" lon="13.3048995"><ele>816.0</ele><time>2026-05-02T16:44:00.91Z</time></trkpt><trkpt lat="42.3174458" lon="13.3050462"><ele>815.0</ele><time>2026-05-02T16:44:01.911Z</time></trkpt><trkpt lat="42.317374" lon="13.3051907"><ele>815.0</ele><time>2026-05-02T16:44:02.91Z</time></trkpt><trkpt lat="42.3173106" lon="13.3053196"><ele>815.0</ele><time>2026-05-02T16:44:03.91Z</time></trkpt><trkpt lat="42.3172541" lon="13.3054459"><ele>815.0</ele><time>2026-05-02T16:44:04.91Z</time></trkpt><trkpt lat="42.3172126" lon="13.3055805"><ele>815.0</ele><time>2026-05-02T16:44:05.91Z</time></trkpt><trkpt lat="42.3171876" lon="13.3057425"><ele>816.25</ele><time>2026-05-02T16:44:06.91Z</time></trkpt><trkpt lat="42.317174" lon="13.3059244"><ele>817.5</ele><time>2026-05-02T16:44:07.911Z</time></trkpt><trkpt lat="42.3171568" lon="13.3061138"><ele>818.75</ele><time>2026-05-02T16:44:08.91Z</time></trkpt><trkpt lat="42.3171358" lon="13.3063201"><ele>820.0</ele><time>2026-05-02T16:44:09.91Z</time></trkpt><trkpt lat="42.3171197" lon="13.306519"><ele>820.0</ele><time>2026-05-02T16:44:10.911Z</time></trkpt><trkpt lat="42.3171005" lon="13.306723"><ele>820.0</ele><time>2026-05-02T16:44:11.91Z</time></trkpt><trkpt lat="42.3170723" lon="13.306943"><ele>820.0</ele><time>2026-05-02T16:44:12.91Z</time></trkpt><trkpt lat="42.3170423" lon="13.3071552"><ele>820.75</ele><time>2026-05-02T16:44:13.91Z</time></trkpt><trkpt lat="42.3170155" lon="13.3073587"><ele>821.5</ele><time>2026-05-02T16:44:14.909Z</time></trkpt><trkpt lat="42.3169847" lon="13.3075497"><ele>822.25</ele><time>2026-05-02T16:44:15.911Z</time></trkpt><trkpt lat="42.3169553" lon="13.3077243"><ele>823.0</ele><time>2026-05-02T16:44:16.91Z</time></trkpt><trkpt lat="42.3169155" lon="13.3078771"><ele>823.0</ele><time>2026-05-02T16:44:17.91Z</time></trkpt><trkpt lat="42.3168544" lon="13.3080305"><ele>823.0</ele><time>2026-05-02T16:44:18.91Z</time></trkpt><trkpt lat="42.3167751" lon="13.308188"><ele>823.0</ele><time>2026-05-02T16:44:19.91Z</time></trkpt><trkpt lat="42.3166803" lon="13.3083264"><ele>823.0</ele><time>2026-05-02T16:44:20.909Z</time></trkpt><trkpt lat="42.316589" lon="13.3084535"><ele>823.0</ele><time>2026-05-02T16:44:21.91Z</time></trkpt><trkpt lat="42.3165167" lon="13.3085756"><ele>823.0</ele><time>2026-05-02T16:44:22.91Z</time></trkpt><trkpt lat="42.3164655" lon="13.3087191"><ele>823.0</ele><time>2026-05-02T16:44:23.91Z</time></trkpt><trkpt lat="42.3164206" lon="13.3088696"><ele>823.0</ele><time>2026-05-02T16:44:24.91Z</time></trkpt><trkpt lat="42.3163644" lon="13.3090119"><ele>823.0</ele><time>2026-05-02T16:44:25.91Z</time></trkpt><trkpt lat="42.3162802" lon="13.3091579"><ele>823.0</ele><time>2026-05-02T16:44:26.908Z</time></trkpt><trkpt lat="42.3161834" lon="13.3093101"><ele>823.0</ele><time>2026-05-02T16:44:27.911Z</time></trkpt><trkpt lat="42.3160875" lon="13.3094616"><ele>823.0</ele><time>2026-05-02T16:44:28.91Z</time></trkpt><trkpt lat="42.3159963" lon="13.3096049"><ele>824.25</ele><time>2026-05-02T16:44:29.91Z</time></trkpt><trkpt lat="42.3159052" lon="13.3097431"><ele>825.5</ele><time>2026-05-02T16:44:30.91Z</time></trkpt><trkpt lat="42.3158239" lon="13.3098891"><ele>826.75</ele><time>2026-05-02T16:44:31.911Z</time></trkpt><trkpt lat="42.315741" lon="13.3100561"><ele>828.0</ele><time>2026-05-02T16:44:32.91Z</time></trkpt><trkpt lat="42.3156542" lon="13.3102226"><ele>829.75</ele><time>2026-05-02T16:44:33.911Z</time></trkpt><trkpt lat="42.3155666" lon="13.3103593"><ele>831.5</ele><time>2026-05-02T16:44:34.91Z</time></trkpt><trkpt lat="42.3154819" lon="13.3104846"><ele>833.25</ele><time>2026-05-02T16:44:35.911Z</time></trkpt><trkpt lat="42.3154011" lon="13.3106075"><ele>835.0</ele><time>2026-05-02T16:44:36.91Z</time></trkpt><trkpt lat="42.3153271" lon="13.3107224"><ele>835.0</ele><time>2026-05-02T16:44:37.91Z</time></trkpt><trkpt lat="42.3152567" lon="13.3108269"><ele>835.0</ele><time>2026-05-02T16:44:38.909Z</time></trkpt><trkpt lat="42.3151882" lon="13.3109164"><ele>835.0</ele><time>2026-05-02T16:44:39.91Z</time></trkpt><trkpt lat="42.3151107" lon="13.3109943"><ele>835.0</ele><time>2026-05-02T16:44:40.91Z</time></trkpt><trkpt lat="42.3150267" lon="13.3110647"><ele>835.0</ele><time>2026-05-02T16:44:41.911Z</time></trkpt><trkpt lat="42.3149542" lon="13.3111217"><ele>835.0</ele><time>2026-05-02T16:44:42.91Z</time></trkpt><trkpt lat="42.3148956" lon="13.3111659"><ele>835.0</ele><time>2026-05-02T16:44:43.91Z</time></trkpt><trkpt lat="42.3148385" lon="13.3112774"><ele>835.0</ele><time>2026-05-02T16:44:45.91Z</time></trkpt><trkpt lat="42.3148579" lon="13.3114357"><ele>835.0</ele><time>2026-05-02T16:44:47.909Z</time></trkpt><trkpt lat="42.3149298" lon="13.3115525"><ele>835.0</ele><time>2026-05-02T16:44:49.91Z</time></trkpt><trkpt lat="42.3150075" lon="13.3116202"><ele>833.6</ele><time>2026-05-02T16:44:50.91Z</time></trkpt><trkpt lat="42.3150874" lon="13.3116839"><ele>832.2</ele><time>2026-05-02T16:44:51.91Z</time></trkpt><trkpt lat="42.3151363" lon="13.3117507"><ele>830.8</ele><time>2026-05-02T16:44:53.91Z</time></trkpt><trkpt lat="42.3151934" lon="13.3118718"><ele>829.4</ele><time>2026-05-02T16:45:15.91Z</time></trkpt><trkpt lat="42.3152616" lon="13.3119989"><ele>828.0</ele><time>2026-05-02T16:45:17.91Z</time></trkpt><trkpt lat="42.3153149" lon="13.312092"><ele>828.0</ele><time>2026-05-02T16:45:18.909Z</time></trkpt><trkpt lat="42.3153925" lon="13.312208"><ele>828.0</ele><time>2026-05-02T16:45:19.908Z</time></trkpt><trkpt lat="42.3154603" lon="13.3123131"><ele>828.0</ele><time>2026-05-02T16:45:20.91Z</time></trkpt><trkpt lat="42.3155248" lon="13.3124094"><ele>828.0</ele><time>2026-05-02T16:45:21.91Z</time></trkpt><trkpt lat="42.3155813" lon="13.3124709"><ele>828.0</ele><time>2026-05-02T16:45:22.911Z</time></trkpt><trkpt lat="42.3156858" lon="13.3125106"><ele>828.5714285714287</ele><time>2026-05-02T16:45:24.91Z</time></trkpt><trkpt lat="42.3157679" lon="13.3124894"><ele>829.1428571428571</ele><time>2026-05-02T16:45:25.91Z</time></trkpt><trkpt lat="42.3158464" lon="13.3124909"><ele>829.7142857142858</ele><time>2026-05-02T16:45:26.911Z</time></trkpt><trkpt lat="42.3159124" lon="13.3125091"><ele>830.2857142857143</ele><time>2026-05-02T16:45:27.91Z</time></trkpt><trkpt lat="42.3159787" lon="13.312552"><ele>830.8571428571429</ele><time>2026-05-02T16:45:28.909Z</time></trkpt><trkpt lat="42.3160417" lon="13.312592"><ele>831.4285714285714</ele><time>2026-05-02T16:45:29.909Z</time></trkpt><trkpt lat="42.3161031" lon="13.3126215"><ele>832.0</ele><time>2026-05-02T16:45:30.911Z</time></trkpt><trkpt lat="42.3161661" lon="13.3126642"><ele>832.0</ele><time>2026-05-02T16:45:31.91Z</time></trkpt><trkpt lat="42.3162441" lon="13.3127057"><ele>832.0</ele><time>2026-05-02T16:45:32.909Z</time></trkpt><trkpt lat="42.3163308" lon="13.312767"><ele>832.0</ele><time>2026-05-02T16:45:33.909Z</time></trkpt><trkpt lat="42.3164071" lon="13.3128305"><ele>832.0</ele><time>2026-05-02T16:45:34.909Z</time></trkpt><trkpt lat="42.3164904" lon="13.3128883"><ele>832.0</ele><time>2026-05-02T16:45:35.911Z</time></trkpt><trkpt lat="42.3165771" lon="13.3129314"><ele>834.0</ele><time>2026-05-02T16:45:36.91Z</time></trkpt><trkpt lat="42.3166728" lon="13.3129962"><ele>836.0</ele><time>2026-05-02T16:45:37.91Z</time></trkpt><trkpt lat="42.3167693" lon="13.3130648"><ele>838.0</ele><time>2026-05-02T16:45:38.91Z</time></trkpt><trkpt lat="42.3168593" lon="13.313115"><ele>840.0</ele><time>2026-05-02T16:45:39.909Z</time></trkpt><trkpt lat="42.3169486" lon="13.3131615"><ele>842.0</ele><time>2026-05-02T16:45:40.91Z</time></trkpt><trkpt lat="42.3170766" lon="13.3131541"><ele>843.0000000000001</ele><time>2026-05-02T16:45:42.91Z</time></trkpt><trkpt lat="42.3171546" lon="13.3131443"><ele>844.0</ele><time>2026-05-02T16:45:43.909Z</time></trkpt><trkpt lat="42.3172587" lon="13.3131769"><ele>845.0</ele><time>2026-05-02T16:45:45.91Z</time></trkpt><trkpt lat="42.3173143" lon="13.3132205"><ele>846.0</ele><time>2026-05-02T16:45:46.909Z</time></trkpt><trkpt lat="42.317371" lon="13.3132707"><ele>847.0000000000001</ele><time>2026-05-02T16:45:47.91Z</time></trkpt><trkpt lat="42.3174217" lon="13.3133323"><ele>848.0</ele><time>2026-05-02T16:45:48.911Z</time></trkpt><trkpt lat="42.3175123" lon="13.313425"><ele>848.8333333333334</ele><time>2026-05-02T16:45:50.91Z</time></trkpt><trkpt lat="42.3175897" lon="13.3135112"><ele>849.6666666666667</ele><time>2026-05-02T16:45:52.911Z</time></trkpt><trkpt lat="42.3176404" lon="13.3135636"><ele>850.5</ele><time>2026-05-02T16:45:53.91Z</time></trkpt><trkpt lat="42.3177116" lon="13.3136366"><ele>851.3333333333333</ele><time>2026-05-02T16:45:54.91Z</time></trkpt><trkpt lat="42.3177887" lon="13.3137087"><ele>852.1666666666666</ele><time>2026-05-02T16:45:55.91Z</time></trkpt><trkpt lat="42.3178601" lon="13.3137799"><ele>853.0</ele><time>2026-05-02T16:45:56.91Z</time></trkpt><trkpt lat="42.3179307" lon="13.313855"><ele>853.4999999999999</ele><time>2026-05-02T16:45:57.91Z</time></trkpt><trkpt lat="42.3180032" lon="13.3139269"><ele>854.0</ele><time>2026-05-02T16:45:58.911Z</time></trkpt><trkpt lat="42.3180702" lon="13.3139845"><ele>854.5</ele><time>2026-05-02T16:45:59.909Z</time></trkpt><trkpt lat="42.3181379" lon="13.3140225"><ele>855.0</ele><time>2026-05-02T16:46:00.91Z</time></trkpt><trkpt lat="42.3182273" lon="13.3140698"><ele>855.4999999999999</ele><time>2026-05-02T16:46:02.909Z</time></trkpt><trkpt lat="42.3182998" lon="13.3140779"><ele>856.0</ele><time>2026-05-02T16:46:06.909Z</time></trkpt><trkpt lat="42.3183934" lon="13.3140552"><ele>855.9999999999999</ele><time>2026-05-02T16:46:08.91Z</time></trkpt><trkpt lat="42.3184555" lon="13.3139843"><ele>856.0</ele><time>2026-05-02T16:46:09.91Z</time></trkpt><trkpt lat="42.3185129" lon="13.3138967"><ele>856.0</ele><time>2026-05-02T16:46:10.909Z</time></trkpt><trkpt lat="42.3185702" lon="13.3138088"><ele>856.0</ele><time>2026-05-02T16:46:11.91Z</time></trkpt><trkpt lat="42.3186208" lon="13.3137547"><ele>855.9999999999999</ele><time>2026-05-02T16:46:12.909Z</time></trkpt><trkpt lat="42.3187371" lon="13.3137288"><ele>856.0</ele><time>2026-05-02T16:46:14.91Z</time></trkpt><trkpt lat="42.3188062" lon="13.3137563"><ele>855.0</ele><time>2026-05-02T16:46:15.909Z</time></trkpt><trkpt lat="42.318901" lon="13.3138195"><ele>854.0</ele><time>2026-05-02T16:46:16.909Z</time></trkpt><trkpt lat="42.3190126" lon="13.3139164"><ele>853.0</ele><time>2026-05-02T16:46:17.911Z</time></trkpt><trkpt lat="42.3191148" lon="13.3139967"><ele>852.0</ele><time>2026-05-02T16:46:18.91Z</time></trkpt><trkpt lat="42.3192202" lon="13.3140766"><ele>850.75</ele><time>2026-05-02T16:46:19.91Z</time></trkpt><trkpt lat="42.3193282" lon="13.3141635"><ele>849.5</ele><time>2026-05-02T16:46:20.909Z</time></trkpt><trkpt lat="42.3194404" lon="13.3142527"><ele>848.25</ele><time>2026-05-02T16:46:21.909Z</time></trkpt><trkpt lat="42.3195544" lon="13.3143446"><ele>847.0</ele><time>2026-05-02T16:46:22.911Z</time></trkpt><trkpt lat="42.3196681" lon="13.3144347"><ele>845.5</ele><time>2026-05-02T16:46:23.911Z</time></trkpt><trkpt lat="42.31978" lon="13.3145272"><ele>844.0</ele><time>2026-05-02T16:46:24.909Z</time></trkpt><trkpt lat="42.3199009" lon="13.3146136"><ele>842.5</ele><time>2026-05-02T16:46:25.91Z</time></trkpt><trkpt lat="42.3200196" lon="13.3147051"><ele>841.0</ele><time>2026-05-02T16:46:26.911Z</time></trkpt><trkpt lat="42.3201317" lon="13.3148016"><ele>840.4</ele><time>2026-05-02T16:46:27.91Z</time></trkpt><trkpt lat="42.3202439" lon="13.3148923"><ele>839.8</ele><time>2026-05-02T16:46:28.91Z</time></trkpt><trkpt lat="42.3203334" lon="13.3149704"><ele>839.1999999999999</ele><time>2026-05-02T16:46:29.91Z</time></trkpt><trkpt lat="42.3204083" lon="13.3150449"><ele>838.5999999999999</ele><time>2026-05-02T16:46:30.911Z</time></trkpt><trkpt lat="42.3204385" lon="13.3151289"><ele>838.0</ele><time>2026-05-02T16:46:31.908Z</time></trkpt><trkpt lat="42.3204293" lon="13.3152451"><ele>837.9999999999999</ele><time>2026-05-02T16:46:32.909Z</time></trkpt><trkpt lat="42.3204184" lon="13.3153327"><ele>838.0</ele><time>2026-05-02T16:46:33.91Z</time></trkpt><trkpt lat="42.3204054" lon="13.3154308"><ele>838.0</ele><time>2026-05-02T16:46:35.91Z</time></trkpt><trkpt lat="42.3203499" lon="13.3155064"><ele>838.0</ele><time>2026-05-02T16:46:44.91Z</time></trkpt><trkpt lat="42.3203037" lon="13.3155849"><ele>837.9999999999999</ele><time>2026-05-02T16:46:46.91Z</time></trkpt><trkpt lat="42.3202851" lon="13.3156839"><ele>838.0</ele><time>2026-05-02T16:46:47.91Z</time></trkpt><trkpt lat="42.3202576" lon="13.3157926"><ele>837.8</ele><time>2026-05-02T16:46:48.91Z</time></trkpt><trkpt lat="42.3202386" lon="13.3159393"><ele>837.5999999999999</ele><time>2026-05-02T16:46:49.91Z</time></trkpt><trkpt lat="42.3202117" lon="13.3160956"><ele>837.4000000000001</ele><time>2026-05-02T16:46:50.91Z</time></trkpt><trkpt lat="42.3201862" lon="13.3162544"><ele>837.2</ele><time>2026-05-02T16:46:51.91Z</time></trkpt><trkpt lat="42.3201624" lon="13.3163834"><ele>837.0</ele><time>2026-05-02T16:46:52.91Z</time></trkpt><trkpt lat="42.3201452" lon="13.3164923"><ele>837.0</ele><time>2026-05-02T16:46:53.91Z</time></trkpt><trkpt lat="42.3201234" lon="13.3165865"><ele>837.0</ele><time>2026-05-02T16:46:54.91Z</time></trkpt><trkpt lat="42.3200895" lon="13.3166927"><ele>837.0</ele><time>2026-05-02T16:46:55.91Z</time></trkpt><trkpt lat="42.3200567" lon="13.3168134"><ele>837.0</ele><time>2026-05-02T16:46:56.91Z</time></trkpt><trkpt lat="42.3200294" lon="13.3169279"><ele>837.0</ele><time>2026-05-02T16:46:57.91Z</time></trkpt><trkpt lat="42.3200011" lon="13.3170254"><ele>837.0</ele><time>2026-05-02T16:46:58.91Z</time></trkpt><trkpt lat="42.3199842" lon="13.3171088"><ele>837.0</ele><time>2026-05-02T16:46:59.91Z</time></trkpt><trkpt lat="42.3199639" lon="13.3172327"><ele>837.0</ele><time>2026-05-02T16:47:01.91Z</time></trkpt><trkpt lat="42.3199965" lon="13.3173074"><ele>837.0</ele><time>2026-05-02T16:47:04.91Z</time></trkpt><trkpt lat="42.3199856" lon="13.3172039"><ele>837.0</ele><time>2026-05-02T16:47:13.909Z</time></trkpt><trkpt lat="42.3200018" lon="13.3171119"><ele>837.0</ele><time>2026-05-02T16:47:14.91Z</time></trkpt><trkpt lat="42.320029" lon="13.3169829"><ele>837.0</ele><time>2026-05-02T16:47:15.909Z</time></trkpt><trkpt lat="42.3200671" lon="13.3168341"><ele>837.0</ele><time>2026-05-02T16:47:16.909Z</time></trkpt><trkpt lat="42.3201202" lon="13.3166672"><ele>837.0</ele><time>2026-05-02T16:47:17.911Z</time></trkpt><trkpt lat="42.3201711" lon="13.3164742"><ele>837.0</ele><time>2026-05-02T16:47:18.91Z</time></trkpt><trkpt lat="42.320209" lon="13.3162734"><ele>837.0</ele><time>2026-05-02T16:47:19.91Z</time></trkpt><trkpt lat="42.3202408" lon="13.3160854"><ele>837.0</ele><time>2026-05-02T16:47:20.909Z</time></trkpt><trkpt lat="42.3202713" lon="13.3159025"><ele>837.0</ele><time>2026-05-02T16:47:21.91Z</time></trkpt><trkpt lat="42.3202988" lon="13.3157557"><ele>837.0</ele><time>2026-05-02T16:47:22.911Z</time></trkpt><trkpt lat="42.3203197" lon="13.3156536"><ele>837.0</ele><time>2026-05-02T16:47:23.91Z</time></trkpt><trkpt lat="42.3203456" lon="13.3155689"><ele>837.0</ele><time>2026-05-02T16:47:24.91Z</time></trkpt><trkpt lat="42.3204012" lon="13.3155031"><ele>837.0</ele><time>2026-05-02T16:47:26.91Z</time></trkpt><trkpt lat="42.3205362" lon="13.3155879"><ele>837.0</ele><time>2026-05-02T16:47:28.911Z</time></trkpt><trkpt lat="42.3206205" lon="13.3156533"><ele>837.0</ele><time>2026-05-02T16:47:29.91Z</time></trkpt><trkpt lat="42.3206785" lon="13.315691"><ele>837.0</ele><time>2026-05-02T16:47:30.91Z</time></trkpt><trkpt lat="42.3207426" lon="13.3157833"><ele>837.0</ele><time>2026-05-02T16:47:32.911Z</time></trkpt><trkpt lat="42.3207764" lon="13.3159216"><ele>835.6666666666666</ele><time>2026-05-02T16:47:34.911Z</time></trkpt><trkpt lat="42.3208162" lon="13.3159955"><ele>834.3333333333333</ele><time>2026-05-02T16:47:35.91Z</time></trkpt><trkpt lat="42.3208737" lon="13.316046"><ele>833.0</ele><time>2026-05-02T16:47:36.909Z</time></trkpt><trkpt lat="42.3209433" lon="13.3160662"><ele>831.6666666666666</ele><time>2026-05-02T16:47:37.91Z</time></trkpt><trkpt lat="42.3210419" lon="13.3160513"><ele>830.3333333333333</ele><time>2026-05-02T16:47:38.911Z</time></trkpt><trkpt lat="42.3211376" lon="13.3160463"><ele>829.0</ele><time>2026-05-02T16:47:39.911Z</time></trkpt><trkpt lat="42.3212373" lon="13.3160506"><ele>829.0</ele><time>2026-05-02T16:47:40.91Z</time></trkpt><trkpt lat="42.3213163" lon="13.3160673"><ele>829.0</ele><time>2026-05-02T16:47:41.91Z</time></trkpt><trkpt lat="42.3213829" lon="13.3160943"><ele>829.0</ele><time>2026-05-02T16:47:42.91Z</time></trkpt><trkpt lat="42.3214811" lon="13.3161485"><ele>829.0</ele><time>2026-05-02T16:47:44.91Z</time></trkpt><trkpt lat="42.3215712" lon="13.3161753"><ele>829.0</ele><time>2026-05-02T16:47:46.91Z</time></trkpt><trkpt lat="42.3216958" lon="13.3161843"><ele>828.0</ele><time>2026-05-02T16:47:48.91Z</time></trkpt><trkpt lat="42.3217611" lon="13.3161802"><ele>827.0</ele><time>2026-05-02T16:47:49.91Z</time></trkpt><trkpt lat="42.3218519" lon="13.3161887"><ele>826.0</ele><time>2026-05-02T16:47:50.91Z</time></trkpt><trkpt lat="42.3219488" lon="13.3162073"><ele>825.0</ele><time>2026-05-02T16:47:51.91Z</time></trkpt><trkpt lat="42.3220503" lon="13.3162364"><ele>824.0</ele><time>2026-05-02T16:47:52.91Z</time></trkpt><trkpt lat="42.3221461" lon="13.316273"><ele>823.0</ele><time>2026-05-02T16:47:53.91Z</time></trkpt><trkpt lat="42.3222551" lon="13.3163162"><ele>822.0</ele><time>2026-05-02T16:47:54.91Z</time></trkpt><trkpt lat="42.3223474" lon="13.3163619"><ele>821.0</ele><time>2026-05-02T16:47:55.911Z</time></trkpt><trkpt lat="42.3224356" lon="13.3164022"><ele>820.0</ele><time>2026-05-02T16:47:56.91Z</time></trkpt><trkpt lat="42.3225065" lon="13.3164388"><ele>819.0</ele><time>2026-05-02T16:47:57.91Z</time></trkpt><trkpt lat="42.322603" lon="13.3164863"><ele>819.0</ele><time>2026-05-02T16:47:59.91Z</time></trkpt><trkpt lat="42.3226647" lon="13.3165418"><ele>819.0</ele><time>2026-05-02T16:48:01.91Z</time></trkpt><trkpt lat="42.3227345" lon="13.3165799"><ele>819.0</ele><time>2026-05-02T16:48:09.91Z</time></trkpt><trkpt lat="42.322781" lon="13.3165045"><ele>819.0</ele><time>2026-05-02T16:48:13.911Z</time></trkpt><trkpt lat="42.3227932" lon="13.3164084"><ele>819.0</ele><time>2026-05-02T16:48:15.91Z</time></trkpt><trkpt lat="42.3228577" lon="13.3162169"><ele>818.0</ele><time>2026-05-02T16:48:17.91Z</time></trkpt><trkpt lat="42.3228911" lon="13.3161162"><ele>817.0</ele><time>2026-05-02T16:48:18.911Z</time></trkpt><trkpt lat="42.3229612" lon="13.3160295"><ele>816.0</ele><time>2026-05-02T16:48:20.91Z</time></trkpt><trkpt lat="42.3230672" lon="13.3160419"><ele>815.0</ele><time>2026-05-02T16:48:22.909Z</time></trkpt><trkpt lat="42.3231399" lon="13.3160719"><ele>814.0</ele><time>2026-05-02T16:48:23.91Z</time></trkpt><trkpt lat="42.3232429" lon="13.3161017"><ele>812.4000000000001</ele><time>2026-05-02T16:48:24.91Z</time></trkpt><trkpt lat="42.3233548" lon="13.316123"><ele>810.8</ele><time>2026-05-02T16:48:25.909Z</time></trkpt><trkpt lat="42.3234593" lon="13.3161392"><ele>809.2</ele><time>2026-05-02T16:48:26.91Z</time></trkpt><trkpt lat="42.3235678" lon="13.3161515"><ele>807.5999999999999</ele><time>2026-05-02T16:48:27.909Z</time></trkpt><trkpt lat="42.3236694" lon="13.3161769"><ele>806.0</ele><time>2026-05-02T16:48:28.91Z</time></trkpt><trkpt lat="42.3237727" lon="13.3162144"><ele>806.0</ele><time>2026-05-02T16:48:29.91Z</time></trkpt><trkpt lat="42.3238734" lon="13.3162505"><ele>806.0</ele><time>2026-05-02T16:48:30.91Z</time></trkpt><trkpt lat="42.3239815" lon="13.316291"><ele>806.0</ele><time>2026-05-02T16:48:31.91Z</time></trkpt><trkpt lat="42.3240853" lon="13.3163351"><ele>806.0</ele><time>2026-05-02T16:48:32.911Z</time></trkpt><trkpt lat="42.3241752" lon="13.3163754"><ele>806.0</ele><time>2026-05-02T16:48:33.91Z</time></trkpt><trkpt lat="42.3242595" lon="13.3164102"><ele>806.8</ele><time>2026-05-02T16:48:34.909Z</time></trkpt><trkpt lat="42.3243443" lon="13.3164456"><ele>807.5999999999999</ele><time>2026-05-02T16:48:35.909Z</time></trkpt><trkpt lat="42.3244291" lon="13.3164844"><ele>808.4</ele><time>2026-05-02T16:48:36.909Z</time></trkpt><trkpt lat="42.3244978" lon="13.3165083"><ele>809.2</ele><time>2026-05-02T16:48:37.91Z</time></trkpt><trkpt lat="42.3246245" lon="13.3165194"><ele>810.0</ele><time>2026-05-02T16:48:39.909Z</time></trkpt><trkpt lat="42.3247048" lon="13.3165228"><ele>809.5</ele><time>2026-05-02T16:48:40.909Z</time></trkpt><trkpt lat="42.3247794" lon="13.3165367"><ele>809.0</ele><time>2026-05-02T16:48:41.909Z</time></trkpt><trkpt lat="42.324857" lon="13.3165495"><ele>808.5</ele><time>2026-05-02T16:48:42.91Z</time></trkpt><trkpt lat="42.324955" lon="13.316559"><ele>808.0</ele><time>2026-05-02T16:48:43.911Z</time></trkpt><trkpt lat="42.3250561" lon="13.3165594"><ele>807.5</ele><time>2026-05-02T16:48:44.909Z</time></trkpt><trkpt lat="42.3251506" lon="13.3165548"><ele>807.0</ele><time>2026-05-02T16:48:45.91Z</time></trkpt><trkpt lat="42.3252301" lon="13.3165485"><ele>807.0</ele><time>2026-05-02T16:48:46.91Z</time></trkpt><trkpt lat="42.3253007" lon="13.3165398"><ele>807.0</ele><time>2026-05-02T16:48:47.91Z</time></trkpt><trkpt lat="42.3253715" lon="13.3165095"><ele>807.0</ele><time>2026-05-02T16:48:48.91Z</time></trkpt><trkpt lat="42.3254564" lon="13.3164498"><ele>807.0</ele><time>2026-05-02T16:48:49.911Z</time></trkpt><trkpt lat="42.3255364" lon="13.3163851"><ele>807.0</ele><time>2026-05-02T16:48:50.91Z</time></trkpt><trkpt lat="42.3256065" lon="13.3163256"><ele>807.0</ele><time>2026-05-02T16:48:51.91Z</time></trkpt><trkpt lat="42.325687" lon="13.3162641"><ele>804.6</ele><time>2026-05-02T16:48:52.91Z</time></trkpt><trkpt lat="42.3257717" lon="13.3162015"><ele>802.2</ele><time>2026-05-02T16:48:53.909Z</time></trkpt><trkpt lat="42.3258611" lon="13.3161515"><ele>799.8</ele><time>2026-05-02T16:48:54.91Z</time></trkpt><trkpt lat="42.325944" lon="13.316106"><ele>797.4</ele><time>2026-05-02T16:48:55.91Z</time></trkpt><trkpt lat="42.3260296" lon="13.3160742"><ele>795.0</ele><time>2026-05-02T16:48:56.91Z</time></trkpt><trkpt lat="42.3261279" lon="13.3160553"><ele>795.0</ele><time>2026-05-02T16:48:57.91Z</time></trkpt><trkpt lat="42.3262182" lon="13.3160481"><ele>795.0</ele><time>2026-05-02T16:48:58.91Z</time></trkpt><trkpt lat="42.3263054" lon="13.3160362"><ele>795.0</ele><time>2026-05-02T16:48:59.91Z</time></trkpt><trkpt lat="42.3263928" lon="13.3160229"><ele>795.0</ele><time>2026-05-02T16:49:00.91Z</time></trkpt><trkpt lat="42.3264603" lon="13.3159932"><ele>795.0</ele><time>2026-05-02T16:49:01.91Z</time></trkpt><trkpt lat="42.3265355" lon="13.3159471"><ele>795.0</ele><time>2026-05-02T16:49:02.91Z</time></trkpt><trkpt lat="42.3266019" lon="13.3159179"><ele>795.0</ele><time>2026-05-02T16:49:03.91Z</time></trkpt><trkpt lat="42.326674" lon="13.3158972"><ele>795.0</ele><time>2026-05-02T16:49:04.91Z</time></trkpt><trkpt lat="42.3267559" lon="13.3158999"><ele>795.0</ele><time>2026-05-02T16:49:05.909Z</time></trkpt><trkpt lat="42.3268459" lon="13.3159106"><ele>795.0</ele><time>2026-05-02T16:49:06.91Z</time></trkpt><trkpt lat="42.3269469" lon="13.3159252"><ele>795.0</ele><time>2026-05-02T16:49:07.911Z</time></trkpt><trkpt lat="42.3270611" lon="13.3159362"><ele>795.0</ele><time>2026-05-02T16:49:08.91Z</time></trkpt><trkpt lat="42.3271781" lon="13.3159349"><ele>795.0</ele><time>2026-05-02T16:49:09.909Z</time></trkpt><trkpt lat="42.3272978" lon="13.3159458"><ele>795.0</ele><time>2026-05-02T16:49:10.911Z</time></trkpt><trkpt lat="42.3274175" lon="13.3159603"><ele>795.0</ele><time>2026-05-02T16:49:11.911Z</time></trkpt><trkpt lat="42.32754" lon="13.3159677"><ele>794.0</ele><time>2026-05-02T16:49:12.91Z</time></trkpt><trkpt lat="42.3276638" lon="13.3159755"><ele>793.0</ele><time>2026-05-02T16:49:13.91Z</time></trkpt><trkpt lat="42.3277766" lon="13.3159833"><ele>792.0</ele><time>2026-05-02T16:49:14.911Z</time></trkpt><trkpt lat="42.3279005" lon="13.3160128"><ele>791.0</ele><time>2026-05-02T16:49:15.91Z</time></trkpt><trkpt lat="42.3280407" lon="13.3160543"><ele>789.0</ele><time>2026-05-02T16:49:16.91Z</time></trkpt><trkpt lat="42.3281764" lon="13.3161092"><ele>787.0</ele><time>2026-05-02T16:49:17.91Z</time></trkpt><trkpt lat="42.3283035" lon="13.3161695"><ele>785.0</ele><time>2026-05-02T16:49:18.91Z</time></trkpt><trkpt lat="42.3284153" lon="13.3162406"><ele>783.0</ele><time>2026-05-02T16:49:19.91Z</time></trkpt><trkpt lat="42.3285268" lon="13.316314"><ele>783.0</ele><time>2026-05-02T16:49:20.911Z</time></trkpt><trkpt lat="42.328639" lon="13.3163829"><ele>783.0</ele><time>2026-05-02T16:49:21.91Z</time></trkpt><trkpt lat="42.3287278" lon="13.3164359"><ele>783.0</ele><time>2026-05-02T16:49:22.909Z</time></trkpt><trkpt lat="42.3288183" lon="13.3164722"><ele>783.0</ele><time>2026-05-02T16:49:23.909Z</time></trkpt><trkpt lat="42.3289246" lon="13.3165075"><ele>783.0</ele><time>2026-05-02T16:49:24.909Z</time></trkpt><trkpt lat="42.3290512" lon="13.3165166"><ele>785.0</ele><time>2026-05-02T16:49:25.91Z</time></trkpt><trkpt lat="42.3291889" lon="13.3165357"><ele>787.0</ele><time>2026-05-02T16:49:26.911Z</time></trkpt><trkpt lat="42.3293251" lon="13.3165272"><ele>789.0</ele><time>2026-05-02T16:49:27.91Z</time></trkpt><trkpt lat="42.3294511" lon="13.3165238"><ele>791.0</ele><time>2026-05-02T16:49:28.91Z</time></trkpt><trkpt lat="42.3295809" lon="13.3165243"><ele>791.0</ele><time>2026-05-02T16:49:29.91Z</time></trkpt><trkpt lat="42.3297154" lon="13.3165284"><ele>791.0</ele><time>2026-05-02T16:49:30.91Z</time></trkpt><trkpt lat="42.3298441" lon="13.3165258"><ele>791.0</ele><time>2026-05-02T16:49:31.91Z</time></trkpt><trkpt lat="42.3299726" lon="13.3165229"><ele>791.0</ele><time>2026-05-02T16:49:32.91Z</time></trkpt><trkpt lat="42.3300956" lon="13.3165237"><ele>790.0</ele><time>2026-05-02T16:49:33.91Z</time></trkpt><trkpt lat="42.3302275" lon="13.3164985"><ele>789.0</ele><time>2026-05-02T16:49:34.91Z</time></trkpt><trkpt lat="42.3303375" lon="13.316493"><ele>788.0</ele><time>2026-05-02T16:49:35.909Z</time></trkpt><trkpt lat="42.3304523" lon="13.3164858"><ele>787.0</ele><time>2026-05-02T16:49:36.911Z</time></trkpt><trkpt lat="42.330562" lon="13.3164837"><ele>786.8</ele><time>2026-05-02T16:49:37.909Z</time></trkpt><trkpt lat="42.3306676" lon="13.3164807"><ele>786.6</ele><time>2026-05-02T16:49:38.911Z</time></trkpt><trkpt lat="42.3307637" lon="13.3164686"><ele>786.4</ele><time>2026-05-02T16:49:39.91Z</time></trkpt><trkpt lat="42.3308619" lon="13.3164633"><ele>786.1999999999999</ele><time>2026-05-02T16:49:40.91Z</time></trkpt><trkpt lat="42.3309347" lon="13.3164504"><ele>786.0</ele><time>2026-05-02T16:49:41.91Z</time></trkpt><trkpt lat="42.3310139" lon="13.3164333"><ele>786.0</ele><time>2026-05-02T16:49:42.91Z</time></trkpt><trkpt lat="42.3310884" lon="13.3164139"><ele>786.0</ele><time>2026-05-02T16:49:43.91Z</time></trkpt><trkpt lat="42.3311646" lon="13.316396"><ele>786.0</ele><time>2026-05-02T16:49:44.909Z</time></trkpt><trkpt lat="42.3312476" lon="13.3163441"><ele>786.0</ele><time>2026-05-02T16:49:45.911Z</time></trkpt><trkpt lat="42.3313189" lon="13.316298"><ele>786.0</ele><time>2026-05-02T16:49:46.91Z</time></trkpt><trkpt lat="42.3313937" lon="13.3162496"><ele>786.0</ele><time>2026-05-02T16:49:47.91Z</time></trkpt><trkpt lat="42.3314756" lon="13.3162055"><ele>784.6666666666666</ele><time>2026-05-02T16:49:48.91Z</time></trkpt><trkpt lat="42.3315526" lon="13.3161607"><ele>783.3333333333333</ele><time>2026-05-02T16:49:49.91Z</time></trkpt><trkpt lat="42.3316327" lon="13.3161049"><ele>782.0</ele><time>2026-05-02T16:49:50.91Z</time></trkpt><trkpt lat="42.3316997" lon="13.316061"><ele>780.6666666666666</ele><time>2026-05-02T16:49:51.911Z</time></trkpt><trkpt lat="42.3317877" lon="13.3160397"><ele>779.3333333333333</ele><time>2026-05-02T16:49:52.909Z</time></trkpt><trkpt lat="42.3318616" lon="13.3160397"><ele>778.0</ele><time>2026-05-02T16:49:53.91Z</time></trkpt><trkpt lat="42.3319332" lon="13.3160595"><ele>778.0</ele><time>2026-05-02T16:49:54.909Z</time></trkpt><trkpt lat="42.3320238" lon="13.3161129"><ele>778.0</ele><time>2026-05-02T16:49:55.91Z</time></trkpt><trkpt lat="42.3321167" lon="13.316153"><ele>778.0</ele><time>2026-05-02T16:49:56.91Z</time></trkpt><trkpt lat="42.33222" lon="13.3161914"><ele>778.0</ele><time>2026-05-02T16:49:57.91Z</time></trkpt><trkpt lat="42.332322" lon="13.3162319"><ele>778.0</ele><time>2026-05-02T16:49:58.909Z</time></trkpt><trkpt lat="42.3324297" lon="13.3162363"><ele>777.2</ele><time>2026-05-02T16:49:59.909Z</time></trkpt><trkpt lat="42.3325379" lon="13.3162245"><ele>776.4</ele><time>2026-05-02T16:50:00.911Z</time></trkpt><trkpt lat="42.3326401" lon="13.3161971"><ele>775.6</ele><time>2026-05-02T16:50:01.909Z</time></trkpt><trkpt lat="42.3327365" lon="13.3161811"><ele>774.8000000000001</ele><time>2026-05-02T16:50:02.911Z</time></trkpt><trkpt lat="42.3328447" lon="13.3161782"><ele>774.0</ele><time>2026-05-02T16:50:03.909Z</time></trkpt><trkpt lat="42.332954" lon="13.3161886"><ele>773.0</ele><time>2026-05-02T16:50:04.91Z</time></trkpt><trkpt lat="42.333058" lon="13.316212"><ele>772.0</ele><time>2026-05-02T16:50:05.909Z</time></trkpt><trkpt lat="42.3331597" lon="13.3162347"><ele>771.0</ele><time>2026-05-02T16:50:06.91Z</time></trkpt><trkpt lat="42.333269" lon="13.3162507"><ele>770.0</ele><time>2026-05-02T16:50:07.91Z</time></trkpt><trkpt lat="42.3333857" lon="13.316267"><ele>769.0</ele><time>2026-05-02T16:50:08.91Z</time></trkpt><trkpt lat="42.3335031" lon="13.3162808"><ele>769.0</ele><time>2026-05-02T16:50:09.91Z</time></trkpt><trkpt lat="42.3336204" lon="13.3162957"><ele>769.0</ele><time>2026-05-02T16:50:10.91Z</time></trkpt><trkpt lat="42.3337317" lon="13.3163107"><ele>769.0</ele><time>2026-05-02T16:50:11.909Z</time></trkpt><trkpt lat="42.3338455" lon="13.3163137"><ele>769.0</ele><time>2026-05-02T16:50:12.91Z</time></trkpt><trkpt lat="42.3339608" lon="13.3162935"><ele>766.6</ele><time>2026-05-02T16:50:13.91Z</time></trkpt><trkpt lat="42.3340827" lon="13.316285"><ele>764.2</ele><time>2026-05-02T16:50:14.91Z</time></trkpt><trkpt lat="42.3341575" lon="13.316286"><ele>761.8000000000001</ele><time>2026-05-02T16:50:15.91Z</time></trkpt><trkpt lat="42.3342373" lon="13.316282"><ele>759.4000000000001</ele><time>2026-05-02T16:50:16.91Z</time></trkpt><trkpt lat="42.334326" lon="13.3162708"><ele>757.0</ele><time>2026-05-02T16:50:17.91Z</time></trkpt><trkpt lat="42.334418" lon="13.3162512"><ele>757.0</ele><time>2026-05-02T16:50:18.91Z</time></trkpt><trkpt lat="42.3345146" lon="13.3162179"><ele>757.0</ele><time>2026-05-02T16:50:19.909Z</time></trkpt><trkpt lat="42.3346209" lon="13.3161726"><ele>757.0</ele><time>2026-05-02T16:50:20.909Z</time></trkpt><trkpt lat="42.3347343" lon="13.3161408"><ele>757.0</ele><time>2026-05-02T16:50:21.911Z</time></trkpt><trkpt lat="42.3348529" lon="13.3161121"><ele>757.0</ele><time>2026-05-02T16:50:22.91Z</time></trkpt><trkpt lat="42.3349601" lon="13.3160892"><ele>757.0</ele><time>2026-05-02T16:50:23.91Z</time></trkpt><trkpt lat="42.3350974" lon="13.3160684"><ele>757.0</ele><time>2026-05-02T16:50:24.91Z</time></trkpt><trkpt lat="42.3352283" lon="13.3160519"><ele>757.0</ele><time>2026-05-02T16:50:25.909Z</time></trkpt><trkpt lat="42.3353516" lon="13.3160412"><ele>757.0</ele><time>2026-05-02T16:50:26.91Z</time></trkpt><trkpt lat="42.3354788" lon="13.3160376"><ele>757.25</ele><time>2026-05-02T16:50:27.91Z</time></trkpt><trkpt lat="42.3356028" lon="13.3160346"><ele>757.5</ele><time>2026-05-02T16:50:28.909Z</time></trkpt><trkpt lat="42.3357353" lon="13.3160352"><ele>757.75</ele><time>2026-05-02T16:50:29.911Z</time></trkpt><trkpt lat="42.335862" lon="13.3160438"><ele>758.0</ele><time>2026-05-02T16:50:30.911Z</time></trkpt><trkpt lat="42.3360023" lon="13.3160109"><ele>758.0</ele><time>2026-05-02T16:50:31.91Z</time></trkpt><trkpt lat="42.3361376" lon="13.3159975"><ele>758.0</ele><time>2026-05-02T16:50:32.911Z</time></trkpt><trkpt lat="42.3362615" lon="13.3159816"><ele>758.0</ele><time>2026-05-02T16:50:33.911Z</time></trkpt><trkpt lat="42.336371" lon="13.3159639"><ele>758.0</ele><time>2026-05-02T16:50:34.91Z</time></trkpt><trkpt lat="42.3364819" lon="13.3159641"><ele>757.8</ele><time>2026-05-02T16:50:35.91Z</time></trkpt><trkpt lat="42.3365921" lon="13.315977"><ele>757.5999999999999</ele><time>2026-05-02T16:50:36.909Z</time></trkpt><trkpt lat="42.3366998" lon="13.3159996"><ele>757.4000000000001</ele><time>2026-05-02T16:50:37.909Z</time></trkpt><trkpt lat="42.3367954" lon="13.3160123"><ele>757.2</ele><time>2026-05-02T16:50:38.909Z</time></trkpt><trkpt lat="42.3368965" lon="13.3160095"><ele>757.0</ele><time>2026-05-02T16:50:39.911Z</time></trkpt><trkpt lat="42.3369986" lon="13.31601"><ele>757.0</ele><time>2026-05-02T16:50:40.91Z</time></trkpt><trkpt lat="42.3371126" lon="13.3160039"><ele>757.0</ele><time>2026-05-02T16:50:41.91Z</time></trkpt><trkpt lat="42.3372251" lon="13.3159923"><ele>757.0</ele><time>2026-05-02T16:50:42.911Z</time></trkpt><trkpt lat="42.337342" lon="13.3159614"><ele>757.0</ele><time>2026-05-02T16:50:43.912Z</time></trkpt><trkpt lat="42.3374638" lon="13.315936"><ele>757.75</ele><time>2026-05-02T16:50:44.911Z</time></trkpt><trkpt lat="42.3375875" lon="13.3159053"><ele>758.5</ele><time>2026-05-02T16:50:45.909Z</time></trkpt><trkpt lat="42.3377046" lon="13.3158762"><ele>759.25</ele><time>2026-05-02T16:50:46.91Z</time></trkpt><trkpt lat="42.3378219" lon="13.3158511"><ele>760.0</ele><time>2026-05-02T16:50:47.909Z</time></trkpt><trkpt lat="42.3379422" lon="13.3158117"><ele>760.5</ele><time>2026-05-02T16:50:48.909Z</time></trkpt><trkpt lat="42.3380602" lon="13.3157845"><ele>761.0</ele><time>2026-05-02T16:50:49.91Z</time></trkpt><trkpt lat="42.338179" lon="13.3157517"><ele>761.5</ele><time>2026-05-02T16:50:50.909Z</time></trkpt><trkpt lat="42.3382959" lon="13.3157293"><ele>762.0</ele><time>2026-05-02T16:50:51.911Z</time></trkpt><trkpt lat="42.3384163" lon="13.315704"><ele>762.0</ele><time>2026-05-02T16:50:52.91Z</time></trkpt><trkpt lat="42.338538" lon="13.3156952"><ele>762.0</ele><time>2026-05-02T16:50:53.91Z</time></trkpt><trkpt lat="42.3386551" lon="13.3156856"><ele>762.0</ele><time>2026-05-02T16:50:54.911Z</time></trkpt><trkpt lat="42.3387792" lon="13.3156884"><ele>762.0</ele><time>2026-05-02T16:50:55.91Z</time></trkpt><trkpt lat="42.3388982" lon="13.3156867"><ele>761.25</ele><time>2026-05-02T16:50:56.91Z</time></trkpt><trkpt lat="42.3390239" lon="13.3156986"><ele>760.5</ele><time>2026-05-02T16:50:57.909Z</time></trkpt><trkpt lat="42.3391436" lon="13.3157113"><ele>759.75</ele><time>2026-05-02T16:50:58.911Z</time></trkpt><trkpt lat="42.3392668" lon="13.3157398"><ele>759.0</ele><time>2026-05-02T16:50:59.909Z</time></trkpt><trkpt lat="42.3393778" lon="13.3157477"><ele>759.0</ele><time>2026-05-02T16:51:00.91Z</time></trkpt><trkpt lat="42.3394948" lon="13.3157655"><ele>759.0</ele><time>2026-05-02T16:51:01.911Z</time></trkpt><trkpt lat="42.339615" lon="13.3157784"><ele>759.0</ele><time>2026-05-02T16:51:02.91Z</time></trkpt><trkpt lat="42.3397461" lon="13.315774"><ele>759.0</ele><time>2026-05-02T16:51:03.91Z</time></trkpt><trkpt lat="42.3398702" lon="13.3157703"><ele>757.75</ele><time>2026-05-02T16:51:04.91Z</time></trkpt><trkpt lat="42.3399949" lon="13.315769"><ele>756.5</ele><time>2026-05-02T16:51:05.91Z</time></trkpt><trkpt lat="42.3401162" lon="13.3157684"><ele>755.25</ele><time>2026-05-02T16:51:06.91Z</time></trkpt><trkpt lat="42.3402352" lon="13.3157735"><ele>754.0</ele><time>2026-05-02T16:51:07.91Z</time></trkpt><trkpt lat="42.3403587" lon="13.3157793"><ele>754.0</ele><time>2026-05-02T16:51:08.911Z</time></trkpt><trkpt lat="42.3404635" lon="13.3158009"><ele>754.0</ele><time>2026-05-02T16:51:09.91Z</time></trkpt><trkpt lat="42.3405634" lon="13.3158344"><ele>754.0</ele><time>2026-05-02T16:51:10.91Z</time></trkpt><trkpt lat="42.3406635" lon="13.3158574"><ele>754.0</ele><time>2026-05-02T16:51:11.91Z</time></trkpt><trkpt lat="42.3407585" lon="13.3158824"><ele>754.0</ele><time>2026-05-02T16:51:12.91Z</time></trkpt><trkpt lat="42.3408593" lon="13.3159087"><ele>753.4000000000001</ele><time>2026-05-02T16:51:13.909Z</time></trkpt><trkpt lat="42.3409699" lon="13.3159099"><ele>752.8</ele><time>2026-05-02T16:51:14.91Z</time></trkpt><trkpt lat="42.3410775" lon="13.3159111"><ele>752.2</ele><time>2026-05-02T16:51:15.91Z</time></trkpt><trkpt lat="42.3411835" lon="13.3159213"><ele>751.5999999999999</ele><time>2026-05-02T16:51:16.911Z</time></trkpt><trkpt lat="42.3412934" lon="13.3159243"><ele>751.0</ele><time>2026-05-02T16:51:17.911Z</time></trkpt><trkpt lat="42.3414107" lon="13.3159406"><ele>748.8</ele><time>2026-05-02T16:51:18.911Z</time></trkpt><trkpt lat="42.3415209" lon="13.3159544"><ele>746.5999999999999</ele><time>2026-05-02T16:51:19.91Z</time></trkpt><trkpt lat="42.3416249" lon="13.3159514"><ele>744.4</ele><time>2026-05-02T16:51:20.911Z</time></trkpt><trkpt lat="42.3417337" lon="13.3159498"><ele>742.2</ele><time>2026-05-02T16:51:21.91Z</time></trkpt><trkpt lat="42.3418436" lon="13.3159492"><ele>740.0</ele><time>2026-05-02T16:51:22.909Z</time></trkpt><trkpt lat="42.3419501" lon="13.3159505"><ele>740.0</ele><time>2026-05-02T16:51:23.911Z</time></trkpt><trkpt lat="42.3420395" lon="13.3159511"><ele>740.0</ele><time>2026-05-02T16:51:24.91Z</time></trkpt><trkpt lat="42.3421239" lon="13.3159555"><ele>740.0</ele><time>2026-05-02T16:51:25.909Z</time></trkpt><trkpt lat="42.3422301" lon="13.3159834"><ele>740.0</ele><time>2026-05-02T16:51:27.909Z</time></trkpt><trkpt lat="42.3423397" lon="13.3159886"><ele>740.0</ele><time>2026-05-02T16:51:29.91Z</time></trkpt><trkpt lat="42.3424095" lon="13.3159577"><ele>739.5714285714286</ele><time>2026-05-02T16:51:30.91Z</time></trkpt><trkpt lat="42.3424734" lon="13.3159243"><ele>739.1428571428571</ele><time>2026-05-02T16:51:31.909Z</time></trkpt><trkpt lat="42.3425355" lon="13.3158775"><ele>738.7142857142858</ele><time>2026-05-02T16:51:32.91Z</time></trkpt><trkpt lat="42.3425874" lon="13.3158222"><ele>738.2857142857142</ele><time>2026-05-02T16:51:33.91Z</time></trkpt><trkpt lat="42.3426366" lon="13.3157587"><ele>737.8571428571429</ele><time>2026-05-02T16:51:34.909Z</time></trkpt><trkpt lat="42.342703" lon="13.3156965"><ele>737.4285714285714</ele><time>2026-05-02T16:51:35.909Z</time></trkpt><trkpt lat="42.3427806" lon="13.3156337"><ele>737.0</ele><time>2026-05-02T16:51:36.909Z</time></trkpt><trkpt lat="42.342857" lon="13.3155797"><ele>735.6666666666666</ele><time>2026-05-02T16:51:37.91Z</time></trkpt><trkpt lat="42.3429282" lon="13.3155434"><ele>734.3333333333333</ele><time>2026-05-02T16:51:38.911Z</time></trkpt><trkpt lat="42.3429868" lon="13.315483"><ele>733.0</ele><time>2026-05-02T16:51:39.91Z</time></trkpt><trkpt lat="42.3430699" lon="13.3154343"><ele>731.6666666666666</ele><time>2026-05-02T16:51:40.911Z</time></trkpt><trkpt lat="42.3431515" lon="13.3153954"><ele>730.3333333333334</ele><time>2026-05-02T16:51:41.91Z</time></trkpt><trkpt lat="42.3432158" lon="13.3153706"><ele>729.0</ele><time>2026-05-02T16:51:42.91Z</time></trkpt><trkpt lat="42.3433342" lon="13.3153602"><ele>729.0</ele><time>2026-05-02T16:51:44.911Z</time></trkpt><trkpt lat="42.3434148" lon="13.3153831"><ele>729.0</ele><time>2026-05-02T16:51:45.911Z</time></trkpt><trkpt lat="42.343501" lon="13.3154075"><ele>729.0</ele><time>2026-05-02T16:51:46.91Z</time></trkpt><trkpt lat="42.343584" lon="13.3154365"><ele>729.0</ele><time>2026-05-02T16:51:47.91Z</time></trkpt><trkpt lat="42.3436832" lon="13.3154685"><ele>729.0</ele><time>2026-05-02T16:51:48.911Z</time></trkpt><trkpt lat="42.3437625" lon="13.3154914"><ele>729.0</ele><time>2026-05-02T16:51:49.909Z</time></trkpt><trkpt lat="42.3438482" lon="13.3155069"><ele>727.6</ele><time>2026-05-02T16:51:50.91Z</time></trkpt><trkpt lat="42.3439428" lon="13.3155205"><ele>726.2</ele><time>2026-05-02T16:51:51.91Z</time></trkpt><trkpt lat="42.344051" lon="13.3155201"><ele>724.8000000000001</ele><time>2026-05-02T16:51:52.91Z</time></trkpt><trkpt lat="42.3441476" lon="13.3155179"><ele>723.4000000000001</ele><time>2026-05-02T16:51:53.909Z</time></trkpt><trkpt lat="42.3442439" lon="13.3155141"><ele>722.0</ele><time>2026-05-02T16:51:54.911Z</time></trkpt><trkpt lat="42.3443409" lon="13.3155097"><ele>722.0</ele><time>2026-05-02T16:51:55.91Z</time></trkpt><trkpt lat="42.3444425" lon="13.3155061"><ele>722.0</ele><time>2026-05-02T16:51:56.91Z</time></trkpt><trkpt lat="42.3445381" lon="13.3155041"><ele>722.0</ele><time>2026-05-02T16:51:57.909Z</time></trkpt><trkpt lat="42.3446353" lon="13.3154989"><ele>722.0</ele><time>2026-05-02T16:51:58.911Z</time></trkpt><trkpt lat="42.3447339" lon="13.3154898"><ele>722.0</ele><time>2026-05-02T16:51:59.911Z</time></trkpt><trkpt lat="42.3448298" lon="13.315481"><ele>721.0</ele><time>2026-05-02T16:52:00.909Z</time></trkpt><trkpt lat="42.3449331" lon="13.3154592"><ele>720.0</ele><time>2026-05-02T16:52:01.909Z</time></trkpt><trkpt lat="42.3450247" lon="13.315432"><ele>719.0</ele><time>2026-05-02T16:52:02.909Z</time></trkpt><trkpt lat="42.3451026" lon="13.3154173"><ele>718.0</ele><time>2026-05-02T16:52:03.91Z</time></trkpt><trkpt lat="42.3451851" lon="13.3153984"><ele>717.0</ele><time>2026-05-02T16:52:04.91Z</time></trkpt><trkpt lat="42.3452686" lon="13.3153801"><ele>716.0</ele><time>2026-05-02T16:52:05.911Z</time></trkpt><trkpt lat="42.3453599" lon="13.3153566"><ele>716.0</ele><time>2026-05-02T16:52:06.91Z</time></trkpt><trkpt lat="42.345436" lon="13.3153576"><ele>716.0</ele><time>2026-05-02T16:52:07.91Z</time></trkpt><trkpt lat="42.3455193" lon="13.3153822"><ele>716.0</ele><time>2026-05-02T16:52:08.909Z</time></trkpt><trkpt lat="42.3456195" lon="13.315425"><ele>716.0</ele><time>2026-05-02T16:52:09.91Z</time></trkpt><trkpt lat="42.3457211" lon="13.3154747"><ele>716.0</ele><time>2026-05-02T16:52:10.91Z</time></trkpt><trkpt lat="42.3458112" lon="13.3155109"><ele>715.5</ele><time>2026-05-02T16:52:11.91Z</time></trkpt><trkpt lat="42.3459298" lon="13.315536"><ele>715.0</ele><time>2026-05-02T16:52:12.911Z</time></trkpt><trkpt lat="42.34604" lon="13.3155599"><ele>714.5</ele><time>2026-05-02T16:52:13.911Z</time></trkpt><trkpt lat="42.3461611" lon="13.3155786"><ele>714.0</ele><time>2026-05-02T16:52:14.91Z</time></trkpt><trkpt lat="42.3462784" lon="13.3155949"><ele>715.6</ele><time>2026-05-02T16:52:15.91Z</time></trkpt><trkpt lat="42.3463906" lon="13.3156205"><ele>717.2</ele><time>2026-05-02T16:52:16.911Z</time></trkpt><trkpt lat="42.3464861" lon="13.3156393"><ele>718.8000000000001</ele><time>2026-05-02T16:52:17.91Z</time></trkpt><trkpt lat="42.3465762" lon="13.3156537"><ele>720.4000000000001</ele><time>2026-05-02T16:52:18.91Z</time></trkpt><trkpt lat="42.346663" lon="13.315666"><ele>722.0</ele><time>2026-05-02T16:52:19.911Z</time></trkpt><trkpt lat="42.3467499" lon="13.3156847"><ele>722.0</ele><time>2026-05-02T16:52:20.91Z</time></trkpt><trkpt lat="42.3468196" lon="13.3157107"><ele>722.0</ele><time>2026-05-02T16:52:21.912Z</time></trkpt><trkpt lat="42.3468798" lon="13.315738"><ele>722.0</ele><time>2026-05-02T16:52:22.909Z</time></trkpt><trkpt lat="42.346931" lon="13.3157897"><ele>722.0</ele><time>2026-05-02T16:52:23.91Z</time></trkpt><trkpt lat="42.3469792" lon="13.3158459"><ele>722.0</ele><time>2026-05-02T16:52:24.91Z</time></trkpt><trkpt lat="42.3470314" lon="13.3159082"><ele>722.0</ele><time>2026-05-02T16:52:25.91Z</time></trkpt><trkpt lat="42.3470821" lon="13.3159667"><ele>722.0</ele><time>2026-05-02T16:52:26.91Z</time></trkpt><trkpt lat="42.3471811" lon="13.3160448"><ele>721.5</ele><time>2026-05-02T16:52:28.91Z</time></trkpt><trkpt lat="42.3472299" lon="13.3161067"><ele>721.0</ele><time>2026-05-02T16:52:29.91Z</time></trkpt><trkpt lat="42.3472749" lon="13.3161702"><ele>720.5</ele><time>2026-05-02T16:52:30.91Z</time></trkpt><trkpt lat="42.3473633" lon="13.316266"><ele>720.0</ele><time>2026-05-02T16:52:32.91Z</time></trkpt><trkpt lat="42.3474492" lon="13.3163634"><ele>719.5</ele><time>2026-05-02T16:52:34.909Z</time></trkpt><trkpt lat="42.3475222" lon="13.3163998"><ele>719.0</ele><time>2026-05-02T16:52:35.91Z</time></trkpt><trkpt lat="42.3475999" lon="13.3164298"><ele>719.0</ele><time>2026-05-02T16:52:36.911Z</time></trkpt><trkpt lat="42.3476783" lon="13.3164396"><ele>719.0</ele><time>2026-05-02T16:52:37.91Z</time></trkpt><trkpt lat="42.3477523" lon="13.3164522"><ele>719.0</ele><time>2026-05-02T16:52:38.91Z</time></trkpt><trkpt lat="42.3478223" lon="13.3164731"><ele>719.0</ele><time>2026-05-02T16:52:39.909Z</time></trkpt><trkpt lat="42.3478962" lon="13.31651"><ele>719.0</ele><time>2026-05-02T16:52:40.91Z</time></trkpt><trkpt lat="42.3479725" lon="13.3165607"><ele>719.0</ele><time>2026-05-02T16:52:41.911Z</time></trkpt><trkpt lat="42.3480618" lon="13.3166296"><ele>718.6666666666666</ele><time>2026-05-02T16:52:42.91Z</time></trkpt><trkpt lat="42.3481482" lon="13.3166978"><ele>718.3333333333333</ele><time>2026-05-02T16:52:43.909Z</time></trkpt><trkpt lat="42.3482088" lon="13.3167656"><ele>718.0</ele><time>2026-05-02T16:52:44.91Z</time></trkpt><trkpt lat="42.348284" lon="13.3168204"><ele>717.6666666666666</ele><time>2026-05-02T16:52:45.91Z</time></trkpt><trkpt lat="42.348367" lon="13.316865"><ele>717.3333333333334</ele><time>2026-05-02T16:52:46.909Z</time></trkpt><trkpt lat="42.3484547" lon="13.3168907"><ele>717.0</ele><time>2026-05-02T16:52:47.91Z</time></trkpt><trkpt lat="42.3485502" lon="13.3169031"><ele>717.0</ele><time>2026-05-02T16:52:48.91Z</time></trkpt><trkpt lat="42.3486487" lon="13.316913"><ele>717.0</ele><time>2026-05-02T16:52:49.909Z</time></trkpt><trkpt lat="42.3487263" lon="13.3169105"><ele>717.0</ele><time>2026-05-02T16:52:50.909Z</time></trkpt><trkpt lat="42.3488453" lon="13.316901"><ele>717.0</ele><time>2026-05-02T16:52:52.911Z</time></trkpt><trkpt lat="42.3489099" lon="13.3169066"><ele>717.0</ele><time>2026-05-02T16:52:54.91Z</time></trkpt><trkpt lat="42.3489923" lon="13.3169596"><ele>716.2</ele><time>2026-05-02T16:52:57.909Z</time></trkpt><trkpt lat="42.3490598" lon="13.3170826"><ele>715.4000000000001</ele><time>2026-05-02T16:52:59.91Z</time></trkpt><trkpt lat="42.349093" lon="13.3172142"><ele>714.5999999999999</ele><time>2026-05-02T16:53:01.91Z</time></trkpt><trkpt lat="42.3491274" lon="13.3173464"><ele>713.8</ele><time>2026-05-02T16:53:03.909Z</time></trkpt><trkpt lat="42.3491533" lon="13.3174659"><ele>713.0</ele><time>2026-05-02T16:53:05.91Z</time></trkpt><trkpt lat="42.3491393" lon="13.3173693"><ele>711.4</ele><time>2026-05-02T16:53:23.91Z</time></trkpt><trkpt lat="42.3491024" lon="13.3172339"><ele>709.8</ele><time>2026-05-02T16:53:27.91Z</time></trkpt><trkpt lat="42.3490724" lon="13.3171009"><ele>708.2</ele><time>2026-05-02T16:53:29.91Z</time></trkpt><trkpt lat="42.3490431" lon="13.3170043"><ele>706.6</ele><time>2026-05-02T16:53:30.91Z</time></trkpt><trkpt lat="42.3490234" lon="13.3169204"><ele>705.0</ele><time>2026-05-02T16:53:31.909Z</time></trkpt><trkpt lat="42.3489969" lon="13.3167865"><ele>705.0</ele><time>2026-05-02T16:53:33.91Z</time></trkpt><trkpt lat="42.3490098" lon="13.3166761"><ele>705.0</ele><time>2026-05-02T16:53:36.911Z</time></trkpt><trkpt lat="42.3490885" lon="13.3166991"><ele>705.0</ele><time>2026-05-02T16:53:39.91Z</time></trkpt><trkpt lat="42.3491844" lon="13.3168298"><ele>705.0</ele><time>2026-05-02T16:53:41.91Z</time></trkpt><trkpt lat="42.3492557" lon="13.316893"><ele>705.0</ele><time>2026-05-02T16:53:42.912Z</time></trkpt><trkpt lat="42.3493314" lon="13.3169462"><ele>705.0</ele><time>2026-05-02T16:53:43.91Z</time></trkpt><trkpt lat="42.3493991" lon="13.3169999"><ele>705.0</ele><time>2026-05-02T16:53:44.91Z</time></trkpt><trkpt lat="42.3494757" lon="13.3170469"><ele>705.0</ele><time>2026-05-02T16:53:45.91Z</time></trkpt><trkpt lat="42.3495556" lon="13.3170989"><ele>705.0</ele><time>2026-05-02T16:53:46.91Z</time></trkpt><trkpt lat="42.3496424" lon="13.3171616"><ele>705.0</ele><time>2026-05-02T16:53:47.909Z</time></trkpt><trkpt lat="42.3497347" lon="13.3172323"><ele>702.75</ele><time>2026-05-02T16:53:48.91Z</time></trkpt><trkpt lat="42.3498326" lon="13.317319"><ele>700.5</ele><time>2026-05-02T16:53:49.911Z</time></trkpt><trkpt lat="42.3499247" lon="13.317442"><ele>698.25</ele><time>2026-05-02T16:53:50.91Z</time></trkpt><trkpt lat="42.3500236" lon="13.3175658"><ele>696.0</ele><time>2026-05-02T16:53:51.91Z</time></trkpt><trkpt lat="42.3501184" lon="13.3176928"><ele>696.0</ele><time>2026-05-02T16:53:52.912Z</time></trkpt><trkpt lat="42.3502098" lon="13.3178339"><ele>696.0</ele><time>2026-05-02T16:53:53.912Z</time></trkpt><trkpt lat="42.3503089" lon="13.317973"><ele>696.0</ele><time>2026-05-02T16:53:54.911Z</time></trkpt><trkpt lat="42.3504072" lon="13.3181158"><ele>696.0</ele><time>2026-05-02T16:53:55.91Z</time></trkpt><trkpt lat="42.3505115" lon="13.3182642"><ele>692.6666666666666</ele><time>2026-05-02T16:53:56.909Z</time></trkpt><trkpt lat="42.3506157" lon="13.318421"><ele>689.3333333333333</ele><time>2026-05-02T16:53:57.91Z</time></trkpt><trkpt lat="42.3507353" lon="13.3185832"><ele>686.0</ele><time>2026-05-02T16:53:58.91Z</time></trkpt><trkpt lat="42.3508534" lon="13.3187438"><ele>685.0</ele><time>2026-05-02T16:53:59.91Z</time></trkpt><trkpt lat="42.3509659" lon="13.318903"><ele>684.0</ele><time>2026-05-02T16:54:00.909Z</time></trkpt><trkpt lat="42.3510741" lon="13.3190534"><ele>683.0</ele><time>2026-05-02T16:54:01.91Z</time></trkpt><trkpt lat="42.3511794" lon="13.3192044"><ele>683.0</ele><time>2026-05-02T16:54:02.911Z</time></trkpt><trkpt lat="42.3512818" lon="13.3193466"><ele>683.0</ele><time>2026-05-02T16:54:03.91Z</time></trkpt><trkpt lat="42.3513837" lon="13.3194817"><ele>683.0</ele><time>2026-05-02T16:54:04.91Z</time></trkpt><trkpt lat="42.3515092" lon="13.3195951"><ele>683.0</ele><time>2026-05-02T16:54:05.911Z</time></trkpt><trkpt lat="42.3516365" lon="13.3197015"><ele>683.0</ele><time>2026-05-02T16:54:06.911Z</time></trkpt><trkpt lat="42.3517891" lon="13.3198092"><ele>683.0</ele><time>2026-05-02T16:54:07.91Z</time></trkpt><trkpt lat="42.3519246" lon="13.3199194"><ele>683.0</ele><time>2026-05-02T16:54:08.909Z</time></trkpt><trkpt lat="42.3520573" lon="13.3200357"><ele>683.0</ele><time>2026-05-02T16:54:09.911Z</time></trkpt><trkpt lat="42.3521814" lon="13.3201471"><ele>683.0</ele><time>2026-05-02T16:54:10.91Z</time></trkpt><trkpt lat="42.3522997" lon="13.3202622"><ele>683.0</ele><time>2026-05-02T16:54:11.911Z</time></trkpt><trkpt lat="42.3524094" lon="13.3203611"><ele>683.0</ele><time>2026-05-02T16:54:12.91Z</time></trkpt><trkpt lat="42.3525137" lon="13.3204487"><ele>681.5999999999999</ele><time>2026-05-02T16:54:13.91Z</time></trkpt><trkpt lat="42.352605" lon="13.3205318"><ele>680.1999999999999</ele><time>2026-05-02T16:54:14.91Z</time></trkpt><trkpt lat="42.3526803" lon="13.3205916"><ele>678.8</ele><time>2026-05-02T16:54:15.91Z</time></trkpt><trkpt lat="42.3527484" lon="13.3206491"><ele>677.4</ele><time>2026-05-02T16:54:16.909Z</time></trkpt><trkpt lat="42.3528272" lon="13.3207406"><ele>676.0</ele><time>2026-05-02T16:54:18.91Z</time></trkpt><trkpt lat="42.3528805" lon="13.3208151"><ele>676.0</ele><time>2026-05-02T16:54:20.91Z</time></trkpt><trkpt lat="42.3528854" lon="13.3209041"><ele>676.0</ele><time>2026-05-02T16:54:21.91Z</time></trkpt><trkpt lat="42.3528895" lon="13.32103"><ele>676.0</ele><time>2026-05-02T16:54:22.91Z</time></trkpt><trkpt lat="42.352892" lon="13.3211667"><ele>676.0</ele><time>2026-05-02T16:54:23.91Z</time></trkpt><trkpt lat="42.3528821" lon="13.3213314"><ele>676.0</ele><time>2026-05-02T16:54:24.91Z</time></trkpt><trkpt lat="42.3528922" lon="13.3214993"><ele>674.5</ele><time>2026-05-02T16:54:25.91Z</time></trkpt><trkpt lat="42.3529154" lon="13.3216665"><ele>673.0</ele><time>2026-05-02T16:54:26.91Z</time></trkpt><trkpt lat="42.3529578" lon="13.3218252"><ele>671.5</ele><time>2026-05-02T16:54:27.91Z</time></trkpt><trkpt lat="42.3530037" lon="13.3219833"><ele>670.0</ele><time>2026-05-02T16:54:28.91Z</time></trkpt><trkpt lat="42.3530551" lon="13.3221253"><ele>669.0</ele><time>2026-05-02T16:54:29.911Z</time></trkpt><trkpt lat="42.3531037" lon="13.3222642"><ele>668.0</ele><time>2026-05-02T16:54:30.91Z</time></trkpt><trkpt lat="42.3531552" lon="13.3223915"><ele>667.0</ele><time>2026-05-02T16:54:31.91Z</time></trkpt><trkpt lat="42.3531943" lon="13.322511"><ele>666.0</ele><time>2026-05-02T16:54:32.91Z</time></trkpt><trkpt lat="42.3532234" lon="13.3226191"><ele>665.0</ele><time>2026-05-02T16:54:33.911Z</time></trkpt><trkpt lat="42.3532308" lon="13.3227336"><ele>665.0</ele><time>2026-05-02T16:54:34.911Z</time></trkpt><trkpt lat="42.3532544" lon="13.3228418"><ele>665.0</ele><time>2026-05-02T16:54:35.909Z</time></trkpt><trkpt lat="42.3533021" lon="13.3229561"><ele>665.0</ele><time>2026-05-02T16:54:36.911Z</time></trkpt><trkpt lat="42.3533759" lon="13.3230747"><ele>665.0</ele><time>2026-05-02T16:54:37.91Z</time></trkpt><trkpt lat="42.3534519" lon="13.3232085"><ele>665.0</ele><time>2026-05-02T16:54:38.91Z</time></trkpt><trkpt lat="42.353524" lon="13.3233708"><ele>664.0</ele><time>2026-05-02T16:54:39.91Z</time></trkpt><trkpt lat="42.3536003" lon="13.3235415"><ele>663.0</ele><time>2026-05-02T16:54:40.91Z</time></trkpt><trkpt lat="42.353683" lon="13.3237233"><ele>662.0</ele><time>2026-05-02T16:54:41.91Z</time></trkpt><trkpt lat="42.3537648" lon="13.3239134"><ele>661.6666666666666</ele><time>2026-05-02T16:54:42.909Z</time></trkpt><trkpt lat="42.353854" lon="13.3241018"><ele>661.3333333333334</ele><time>2026-05-02T16:54:43.911Z</time></trkpt><trkpt lat="42.353946" lon="13.3242942"><ele>661.0</ele><time>2026-05-02T16:54:44.91Z</time></trkpt><trkpt lat="42.354037" lon="13.3244894"><ele>661.0</ele><time>2026-05-02T16:54:45.911Z</time></trkpt><trkpt lat="42.3541297" lon="13.3246854"><ele>661.0</ele><time>2026-05-02T16:54:46.911Z</time></trkpt><trkpt lat="42.3542223" lon="13.3248808"><ele>661.0</ele><time>2026-05-02T16:54:47.91Z</time></trkpt><trkpt lat="42.3543129" lon="13.3250791"><ele>659.6666666666667</ele><time>2026-05-02T16:54:48.91Z</time></trkpt><trkpt lat="42.3544105" lon="13.3252732"><ele>658.3333333333334</ele><time>2026-05-02T16:54:49.91Z</time></trkpt><trkpt lat="42.3545108" lon="13.3254618"><ele>657.0</ele><time>2026-05-02T16:54:50.91Z</time></trkpt><trkpt lat="42.3546178" lon="13.3256502"><ele>656.3333333333334</ele><time>2026-05-02T16:54:51.91Z</time></trkpt><trkpt lat="42.3547242" lon="13.325849"><ele>655.6666666666667</ele><time>2026-05-02T16:54:52.91Z</time></trkpt><trkpt lat="42.3548256" lon="13.3260476"><ele>655.0</ele><time>2026-05-02T16:54:53.91Z</time></trkpt><trkpt lat="42.3549232" lon="13.3262403"><ele>655.0</ele><time>2026-05-02T16:54:54.911Z</time></trkpt><trkpt lat="42.3550114" lon="13.3264259"><ele>655.0</ele><time>2026-05-02T16:54:55.91Z</time></trkpt><trkpt lat="42.3551115" lon="13.3266081"><ele>655.0</ele><time>2026-05-02T16:54:56.91Z</time></trkpt><trkpt lat="42.3552208" lon="13.3267854"><ele>655.0</ele><time>2026-05-02T16:54:57.91Z</time></trkpt><trkpt lat="42.3553393" lon="13.3269663"><ele>655.0</ele><time>2026-05-02T16:54:58.91Z</time></trkpt><trkpt lat="42.3554527" lon="13.3271541"><ele>655.0</ele><time>2026-05-02T16:54:59.911Z</time></trkpt><trkpt lat="42.3555633" lon="13.327347"><ele>654.3333333333334</ele><time>2026-05-02T16:55:00.912Z</time></trkpt><trkpt lat="42.3556675" lon="13.3275462"><ele>653.6666666666666</ele><time>2026-05-02T16:55:01.91Z</time></trkpt><trkpt lat="42.3557715" lon="13.3277421"><ele>653.0</ele><time>2026-05-02T16:55:02.91Z</time></trkpt><trkpt lat="42.3558753" lon="13.3279358"><ele>652.6666666666666</ele><time>2026-05-02T16:55:03.91Z</time></trkpt><trkpt lat="42.3559771" lon="13.3281249"><ele>652.3333333333334</ele><time>2026-05-02T16:55:04.911Z</time></trkpt><trkpt lat="42.3560737" lon="13.3283101"><ele>652.0</ele><time>2026-05-02T16:55:05.91Z</time></trkpt><trkpt lat="42.3561616" lon="13.3284916"><ele>652.0</ele><time>2026-05-02T16:55:06.909Z</time></trkpt><trkpt lat="42.3562305" lon="13.3286705"><ele>652.0</ele><time>2026-05-02T16:55:07.91Z</time></trkpt><trkpt lat="42.356266" lon="13.3288512"><ele>652.0</ele><time>2026-05-02T16:55:08.911Z</time></trkpt><trkpt lat="42.3562701" lon="13.329041"><ele>652.0</ele><time>2026-05-02T16:55:09.91Z</time></trkpt><trkpt lat="42.3562452" lon="13.3292357"><ele>652.0</ele><time>2026-05-02T16:55:10.91Z</time></trkpt><trkpt lat="42.3562069" lon="13.3294413"><ele>652.0</ele><time>2026-05-02T16:55:11.91Z</time></trkpt><trkpt lat="42.3561576" lon="13.3296589"><ele>652.0</ele><time>2026-05-02T16:55:12.91Z</time></trkpt><trkpt lat="42.3561139" lon="13.3298766"><ele>652.0</ele><time>2026-05-02T16:55:13.911Z</time></trkpt><trkpt lat="42.3560639" lon="13.3301087"><ele>652.0</ele><time>2026-05-02T16:55:14.91Z</time></trkpt><trkpt lat="42.3560181" lon="13.3303494"><ele>652.0</ele><time>2026-05-02T16:55:15.91Z</time></trkpt><trkpt lat="42.3559705" lon="13.3305884"><ele>652.3333333333334</ele><time>2026-05-02T16:55:16.91Z</time></trkpt><trkpt lat="42.3559305" lon="13.3308288"><ele>652.6666666666666</ele><time>2026-05-02T16:55:17.911Z</time></trkpt><trkpt lat="42.3558985" lon="13.3310745"><ele>653.0</ele><time>2026-05-02T16:55:18.91Z</time></trkpt><trkpt lat="42.3558777" lon="13.3313224"><ele>652.6666666666666</ele><time>2026-05-02T16:55:19.911Z</time></trkpt><trkpt lat="42.3558598" lon="13.331574"><ele>652.3333333333334</ele><time>2026-05-02T16:55:20.91Z</time></trkpt><trkpt lat="42.3558385" lon="13.3318205"><ele>652.0</ele><time>2026-05-02T16:55:21.912Z</time></trkpt><trkpt lat="42.3558211" lon="13.3320751"><ele>650.6666666666667</ele><time>2026-05-02T16:55:22.911Z</time></trkpt><trkpt lat="42.3558018" lon="13.3323281"><ele>649.3333333333334</ele><time>2026-05-02T16:55:23.91Z</time></trkpt><trkpt lat="42.35578" lon="13.3325806"><ele>648.0</ele><time>2026-05-02T16:55:24.91Z</time></trkpt><trkpt lat="42.3557621" lon="13.332836"><ele>647.6666666666666</ele><time>2026-05-02T16:55:25.909Z</time></trkpt><trkpt lat="42.3557463" lon="13.3330801"><ele>647.3333333333333</ele><time>2026-05-02T16:55:26.909Z</time></trkpt><trkpt lat="42.3557297" lon="13.3333185"><ele>647.0</ele><time>2026-05-02T16:55:27.91Z</time></trkpt><trkpt lat="42.3557153" lon="13.3335606"><ele>647.0</ele><time>2026-05-02T16:55:28.91Z</time></trkpt><trkpt lat="42.355704" lon="13.3337981"><ele>647.0</ele><time>2026-05-02T16:55:29.911Z</time></trkpt><trkpt lat="42.3556882" lon="13.3340164"><ele>647.0</ele><time>2026-05-02T16:55:30.909Z</time></trkpt><trkpt lat="42.3556786" lon="13.3342301"><ele>646.75</ele><time>2026-05-02T16:55:31.91Z</time></trkpt><trkpt lat="42.3556783" lon="13.3344293"><ele>646.5</ele><time>2026-05-02T16:55:32.911Z</time></trkpt><trkpt lat="42.3557053" lon="13.3346172"><ele>646.25</ele><time>2026-05-02T16:55:33.91Z</time></trkpt><trkpt lat="42.3557416" lon="13.3347879"><ele>646.0</ele><time>2026-05-02T16:55:34.91Z</time></trkpt><trkpt lat="42.3557806" lon="13.334941"><ele>645.1999999999999</ele><time>2026-05-02T16:55:35.91Z</time></trkpt><trkpt lat="42.3558145" lon="13.3350696"><ele>644.4</ele><time>2026-05-02T16:55:36.909Z</time></trkpt><trkpt lat="42.3558495" lon="13.335189"><ele>643.6</ele><time>2026-05-02T16:55:37.91Z</time></trkpt><trkpt lat="42.3558884" lon="13.3352935"><ele>642.8</ele><time>2026-05-02T16:55:38.912Z</time></trkpt><trkpt lat="42.355947" lon="13.3353814"><ele>642.0</ele><time>2026-05-02T16:55:39.911Z</time></trkpt><trkpt lat="42.3560513" lon="13.33544"><ele>642.0</ele><time>2026-05-02T16:55:40.91Z</time></trkpt><trkpt lat="42.3561408" lon="13.3355125"><ele>642.0</ele><time>2026-05-02T16:55:41.91Z</time></trkpt><trkpt lat="42.3562334" lon="13.3355975"><ele>642.0</ele><time>2026-05-02T16:55:42.91Z</time></trkpt><trkpt lat="42.3563275" lon="13.335688"><ele>642.0</ele><time>2026-05-02T16:55:43.911Z</time></trkpt><trkpt lat="42.3564295" lon="13.3357825"><ele>641.0</ele><time>2026-05-02T16:55:44.91Z</time></trkpt><trkpt lat="42.3565306" lon="13.3358803"><ele>640.0</ele><time>2026-05-02T16:55:45.91Z</time></trkpt><trkpt lat="42.3566404" lon="13.335978"><ele>639.0</ele><time>2026-05-02T16:55:46.911Z</time></trkpt><trkpt lat="42.3567392" lon="13.3360691"><ele>638.0</ele><time>2026-05-02T16:55:47.91Z</time></trkpt><trkpt lat="42.3568247" lon="13.3361415"><ele>638.0</ele><time>2026-05-02T16:55:48.911Z</time></trkpt><trkpt lat="42.3569063" lon="13.3362165"><ele>638.0</ele><time>2026-05-02T16:55:49.91Z</time></trkpt><trkpt lat="42.3569653" lon="13.3362806"><ele>638.0</ele><time>2026-05-02T16:55:50.911Z</time></trkpt><trkpt lat="42.3570214" lon="13.3363426"><ele>638.0</ele><time>2026-05-02T16:55:51.912Z</time></trkpt><trkpt lat="42.3570741" lon="13.3364794"><ele>638.0</ele><time>2026-05-02T16:55:53.911Z</time></trkpt><trkpt lat="42.3570805" lon="13.3365674"><ele>638.0</ele><time>2026-05-02T16:55:54.91Z</time></trkpt><trkpt lat="42.3570519" lon="13.3367125"><ele>638.75</ele><time>2026-05-02T16:55:55.911Z</time></trkpt><trkpt lat="42.3570249" lon="13.3368546"><ele>639.5</ele><time>2026-05-02T16:55:56.91Z</time></trkpt><trkpt lat="42.3569966" lon="13.3370029"><ele>640.25</ele><time>2026-05-02T16:55:57.909Z</time></trkpt><trkpt lat="42.3569655" lon="13.3371699"><ele>641.0</ele><time>2026-05-02T16:55:58.91Z</time></trkpt><trkpt lat="42.356929" lon="13.3373388"><ele>641.25</ele><time>2026-05-02T16:55:59.91Z</time></trkpt><trkpt lat="42.356894" lon="13.3375149"><ele>641.5</ele><time>2026-05-02T16:56:00.91Z</time></trkpt><trkpt lat="42.3568565" lon="13.3376772"><ele>641.75</ele><time>2026-05-02T16:56:01.912Z</time></trkpt><trkpt lat="42.3568229" lon="13.3378388"><ele>642.0</ele><time>2026-05-02T16:56:02.909Z</time></trkpt><trkpt lat="42.3567917" lon="13.3379988"><ele>642.5</ele><time>2026-05-02T16:56:03.909Z</time></trkpt><trkpt lat="42.3567611" lon="13.3381619"><ele>643.0</ele><time>2026-05-02T16:56:04.911Z</time></trkpt><trkpt lat="42.3567343" lon="13.3383304"><ele>643.5</ele><time>2026-05-02T16:56:05.91Z</time></trkpt><trkpt lat="42.3567046" lon="13.3385084"><ele>644.0</ele><time>2026-05-02T16:56:06.911Z</time></trkpt><trkpt lat="42.3566698" lon="13.3386767"><ele>644.0</ele><time>2026-05-02T16:56:07.91Z</time></trkpt><trkpt lat="42.3566314" lon="13.3388622"><ele>644.0</ele><time>2026-05-02T16:56:08.91Z</time></trkpt><trkpt lat="42.3565967" lon="13.3390457"><ele>644.0</ele><time>2026-05-02T16:56:09.909Z</time></trkpt><trkpt lat="42.3565607" lon="13.3392393"><ele>644.0</ele><time>2026-05-02T16:56:10.91Z</time></trkpt><trkpt lat="42.3565192" lon="13.339432"><ele>644.0</ele><time>2026-05-02T16:56:11.909Z</time></trkpt><trkpt lat="42.3564804" lon="13.3396266"><ele>644.0</ele><time>2026-05-02T16:56:12.91Z</time></trkpt><trkpt lat="42.3564435" lon="13.3398192"><ele>644.0</ele><time>2026-05-02T16:56:13.911Z</time></trkpt><trkpt lat="42.3564067" lon="13.3400154"><ele>644.0</ele><time>2026-05-02T16:56:14.912Z</time></trkpt><trkpt lat="42.3563671" lon="13.3402204"><ele>642.3333333333333</ele><time>2026-05-02T16:56:15.91Z</time></trkpt><trkpt lat="42.3563266" lon="13.3404295"><ele>640.6666666666666</ele><time>2026-05-02T16:56:16.91Z</time></trkpt><trkpt lat="42.3562867" lon="13.3406419"><ele>639.0</ele><time>2026-05-02T16:56:17.909Z</time></trkpt><trkpt lat="42.356247" lon="13.3408538"><ele>639.0</ele><time>2026-05-02T16:56:18.911Z</time></trkpt><trkpt lat="42.3562096" lon="13.3410586"><ele>639.0</ele><time>2026-05-02T16:56:19.911Z</time></trkpt><trkpt lat="42.35617" lon="13.3412559"><ele>639.0</ele><time>2026-05-02T16:56:20.911Z</time></trkpt><trkpt lat="42.3561317" lon="13.341454"><ele>639.0</ele><time>2026-05-02T16:56:21.911Z</time></trkpt><trkpt lat="42.3560918" lon="13.3416505"><ele>639.0</ele><time>2026-05-02T16:56:22.91Z</time></trkpt><trkpt lat="42.3560501" lon="13.3418496"><ele>639.0</ele><time>2026-05-02T16:56:23.91Z</time></trkpt><trkpt lat="42.3560104" lon="13.3420455"><ele>638.3333333333334</ele><time>2026-05-02T16:56:24.91Z</time></trkpt><trkpt lat="42.3559701" lon="13.3422432"><ele>637.6666666666667</ele><time>2026-05-02T16:56:25.91Z</time></trkpt><trkpt lat="42.3559325" lon="13.3424457"><ele>637.0</ele><time>2026-05-02T16:56:26.91Z</time></trkpt><trkpt lat="42.3558939" lon="13.3426499"><ele>637.0</ele><time>2026-05-02T16:56:27.91Z</time></trkpt><trkpt lat="42.3558579" lon="13.3428517"><ele>637.0</ele><time>2026-05-02T16:56:28.909Z</time></trkpt><trkpt lat="42.3558208" lon="13.3430643"><ele>637.0</ele><time>2026-05-02T16:56:29.91Z</time></trkpt><trkpt lat="42.3557933" lon="13.3432854"><ele>637.3333333333334</ele><time>2026-05-02T16:56:30.912Z</time></trkpt><trkpt lat="42.3557738" lon="13.3435074"><ele>637.6666666666666</ele><time>2026-05-02T16:56:31.91Z</time></trkpt><trkpt lat="42.3557858" lon="13.3437416"><ele>638.0</ele><time>2026-05-02T16:56:32.909Z</time></trkpt><trkpt lat="42.3558045" lon="13.343969"><ele>637.0</ele><time>2026-05-02T16:56:33.909Z</time></trkpt><trkpt lat="42.3558402" lon="13.3442"><ele>636.0</ele><time>2026-05-02T16:56:34.91Z</time></trkpt><trkpt lat="42.3558806" lon="13.3444243"><ele>635.0</ele><time>2026-05-02T16:56:35.911Z</time></trkpt><trkpt lat="42.3559284" lon="13.3446498"><ele>634.0</ele><time>2026-05-02T16:56:36.91Z</time></trkpt><trkpt lat="42.3559801" lon="13.3448751"><ele>633.0</ele><time>2026-05-02T16:56:37.91Z</time></trkpt><trkpt lat="42.3560346" lon="13.3450965"><ele>632.0</ele><time>2026-05-02T16:56:38.91Z</time></trkpt><trkpt lat="42.3560826" lon="13.3453093"><ele>632.0</ele><time>2026-05-02T16:56:39.91Z</time></trkpt><trkpt lat="42.3561306" lon="13.3455196"><ele>632.0</ele><time>2026-05-02T16:56:40.91Z</time></trkpt><trkpt lat="42.3561767" lon="13.3457301"><ele>632.0</ele><time>2026-05-02T16:56:41.911Z</time></trkpt><trkpt lat="42.3562239" lon="13.3459409"><ele>632.0</ele><time>2026-05-02T16:56:42.909Z</time></trkpt><trkpt lat="42.356278" lon="13.3461544"><ele>632.0</ele><time>2026-05-02T16:56:43.91Z</time></trkpt><trkpt lat="42.3563293" lon="13.3463667"><ele>632.0</ele><time>2026-05-02T16:56:44.911Z</time></trkpt><trkpt lat="42.3563776" lon="13.3465751"><ele>634.6666666666666</ele><time>2026-05-02T16:56:45.909Z</time></trkpt><trkpt lat="42.3564287" lon="13.3467801"><ele>637.3333333333334</ele><time>2026-05-02T16:56:46.909Z</time></trkpt><trkpt lat="42.3564791" lon="13.3469729"><ele>640.0</ele><time>2026-05-02T16:56:47.909Z</time></trkpt><trkpt lat="42.356522" lon="13.3471551"><ele>639.25</ele><time>2026-05-02T16:56:48.91Z</time></trkpt><trkpt lat="42.3565666" lon="13.3473322"><ele>638.5</ele><time>2026-05-02T16:56:49.91Z</time></trkpt><trkpt lat="42.3566052" lon="13.347507"><ele>637.75</ele><time>2026-05-02T16:56:50.909Z</time></trkpt><trkpt lat="42.3566434" lon="13.3476807"><ele>637.0</ele><time>2026-05-02T16:56:51.909Z</time></trkpt><trkpt lat="42.35668" lon="13.3478431"><ele>637.0</ele><time>2026-05-02T16:56:52.911Z</time></trkpt><trkpt lat="42.3567147" lon="13.3480088"><ele>637.0</ele><time>2026-05-02T16:56:53.911Z</time></trkpt><trkpt lat="42.3567582" lon="13.3481814"><ele>637.0</ele><time>2026-05-02T16:56:54.91Z</time></trkpt><trkpt lat="42.3568055" lon="13.3483543"><ele>637.0</ele><time>2026-05-02T16:56:55.912Z</time></trkpt><trkpt lat="42.3568553" lon="13.3485266"><ele>636.25</ele><time>2026-05-02T16:56:56.91Z</time></trkpt><trkpt lat="42.3568981" lon="13.348694"><ele>635.5</ele><time>2026-05-02T16:56:57.911Z</time></trkpt><trkpt lat="42.3569325" lon="13.3488489"><ele>634.75</ele><time>2026-05-02T16:56:58.911Z</time></trkpt><trkpt lat="42.3569631" lon="13.3489931"><ele>634.0</ele><time>2026-05-02T16:56:59.909Z</time></trkpt><trkpt lat="42.3569841" lon="13.3491251"><ele>633.8</ele><time>2026-05-02T16:57:00.91Z</time></trkpt><trkpt lat="42.3569953" lon="13.3492392"><ele>633.5999999999999</ele><time>2026-05-02T16:57:01.909Z</time></trkpt><trkpt lat="42.3569982" lon="13.3493552"><ele>633.4</ele><time>2026-05-02T16:57:02.911Z</time></trkpt><trkpt lat="42.35698" lon="13.3494846"><ele>633.1999999999999</ele><time>2026-05-02T16:57:03.91Z</time></trkpt><trkpt lat="42.356955" lon="13.3496057"><ele>633.0</ele><time>2026-05-02T16:57:04.91Z</time></trkpt><trkpt lat="42.3569304" lon="13.3497285"><ele>632.6666666666666</ele><time>2026-05-02T16:57:05.91Z</time></trkpt><trkpt lat="42.3569258" lon="13.3498548"><ele>632.3333333333334</ele><time>2026-05-02T16:57:06.91Z</time></trkpt><trkpt lat="42.3569464" lon="13.349969"><ele>632.0</ele><time>2026-05-02T16:57:07.911Z</time></trkpt><trkpt lat="42.3569839" lon="13.35007"><ele>631.6666666666667</ele><time>2026-05-02T16:57:08.91Z</time></trkpt><trkpt lat="42.3570409" lon="13.3501456"><ele>631.3333333333334</ele><time>2026-05-02T16:57:09.911Z</time></trkpt><trkpt lat="42.3571091" lon="13.3501996"><ele>631.0</ele><time>2026-05-02T16:57:10.911Z</time></trkpt><trkpt lat="42.3571913" lon="13.3502307"><ele>631.6</ele><time>2026-05-02T16:57:11.91Z</time></trkpt><trkpt lat="42.3572854" lon="13.3502435"><ele>632.2</ele><time>2026-05-02T16:57:12.91Z</time></trkpt><trkpt lat="42.3573829" lon="13.3502549"><ele>632.8</ele><time>2026-05-02T16:57:13.91Z</time></trkpt><trkpt lat="42.3574783" lon="13.3502741"><ele>633.4</ele><time>2026-05-02T16:57:14.909Z</time></trkpt><trkpt lat="42.3575678" lon="13.3503096"><ele>634.0</ele><time>2026-05-02T16:57:15.91Z</time></trkpt><trkpt lat="42.3576539" lon="13.3503652"><ele>634.0</ele><time>2026-05-02T16:57:16.911Z</time></trkpt><trkpt lat="42.3577336" lon="13.3504321"><ele>634.0</ele><time>2026-05-02T16:57:17.911Z</time></trkpt><trkpt lat="42.3578206" lon="13.3505221"><ele>634.0</ele><time>2026-05-02T16:57:18.912Z</time></trkpt><trkpt lat="42.3579206" lon="13.3506368"><ele>634.0</ele><time>2026-05-02T16:57:19.91Z</time></trkpt><trkpt lat="42.3580246" lon="13.3507784"><ele>632.75</ele><time>2026-05-02T16:57:20.91Z</time></trkpt><trkpt lat="42.3581183" lon="13.3509199"><ele>631.5</ele><time>2026-05-02T16:57:21.91Z</time></trkpt><trkpt lat="42.3582092" lon="13.3510602"><ele>630.25</ele><time>2026-05-02T16:57:22.91Z</time></trkpt><trkpt lat="42.3582932" lon="13.3512074"><ele>629.0</ele><time>2026-05-02T16:57:23.911Z</time></trkpt><trkpt lat="42.3583742" lon="13.3513507"><ele>628.8</ele><time>2026-05-02T16:57:24.909Z</time></trkpt><trkpt lat="42.3584456" lon="13.3514901"><ele>628.5999999999999</ele><time>2026-05-02T16:57:25.91Z</time></trkpt><trkpt lat="42.3585074" lon="13.3516193"><ele>628.4</ele><time>2026-05-02T16:57:26.911Z</time></trkpt><trkpt lat="42.358569" lon="13.3517373"><ele>628.1999999999999</ele><time>2026-05-02T16:57:27.911Z</time></trkpt><trkpt lat="42.3586195" lon="13.3518476"><ele>628.0</ele><time>2026-05-02T16:57:28.91Z</time></trkpt><trkpt lat="42.3586623" lon="13.3519542"><ele>628.0</ele><time>2026-05-02T16:57:29.91Z</time></trkpt><trkpt lat="42.358701" lon="13.3520547"><ele>628.0</ele><time>2026-05-02T16:57:30.91Z</time></trkpt><trkpt lat="42.3587202" lon="13.3521644"><ele>628.0</ele><time>2026-05-02T16:57:31.912Z</time></trkpt><trkpt lat="42.3587261" lon="13.3522889"><ele>628.0</ele><time>2026-05-02T16:57:32.91Z</time></trkpt><trkpt lat="42.3587284" lon="13.3523977"><ele>628.0</ele><time>2026-05-02T16:57:33.909Z</time></trkpt><trkpt lat="42.3587433" lon="13.3524979"><ele>628.0</ele><time>2026-05-02T16:57:34.911Z</time></trkpt><trkpt lat="42.3587731" lon="13.3526051"><ele>628.0</ele><time>2026-05-02T16:57:35.911Z</time></trkpt><trkpt lat="42.3588215" lon="13.3527111"><ele>628.0</ele><time>2026-05-02T16:57:36.909Z</time></trkpt><trkpt lat="42.3588851" lon="13.3528387"><ele>628.0</ele><time>2026-05-02T16:57:37.911Z</time></trkpt><trkpt lat="42.3589433" lon="13.3529944"><ele>628.0</ele><time>2026-05-02T16:57:38.91Z</time></trkpt><trkpt lat="42.3590022" lon="13.3531719"><ele>628.6666666666667</ele><time>2026-05-02T16:57:39.91Z</time></trkpt><trkpt lat="42.3590513" lon="13.3533658"><ele>629.3333333333334</ele><time>2026-05-02T16:57:40.911Z</time></trkpt><trkpt lat="42.3591104" lon="13.3535662"><ele>630.0</ele><time>2026-05-02T16:57:41.912Z</time></trkpt><trkpt lat="42.3591662" lon="13.3537697"><ele>629.3333333333334</ele><time>2026-05-02T16:57:42.909Z</time></trkpt><trkpt lat="42.3592234" lon="13.3539765"><ele>628.6666666666667</ele><time>2026-05-02T16:57:43.911Z</time></trkpt><trkpt lat="42.3592821" lon="13.3541828"><ele>628.0</ele><time>2026-05-02T16:57:44.91Z</time></trkpt><trkpt lat="42.359339" lon="13.3543922"><ele>628.0</ele><time>2026-05-02T16:57:45.91Z</time></trkpt><trkpt lat="42.3593919" lon="13.3545919"><ele>628.0</ele><time>2026-05-02T16:57:46.911Z</time></trkpt><trkpt lat="42.359437" lon="13.354788"><ele>628.0</ele><time>2026-05-02T16:57:47.91Z</time></trkpt><trkpt lat="42.3594888" lon="13.3549813"><ele>628.0</ele><time>2026-05-02T16:57:48.91Z</time></trkpt><trkpt lat="42.3595402" lon="13.3551688"><ele>628.0</ele><time>2026-05-02T16:57:49.909Z</time></trkpt><trkpt lat="42.3595953" lon="13.3553587"><ele>628.0</ele><time>2026-05-02T16:57:50.91Z</time></trkpt><trkpt lat="42.3596439" lon="13.3555242"><ele>628.0</ele><time>2026-05-02T16:57:51.91Z</time></trkpt><trkpt lat="42.359697" lon="13.3556905"><ele>627.5</ele><time>2026-05-02T16:57:52.911Z</time></trkpt><trkpt lat="42.3597373" lon="13.3558396"><ele>627.0</ele><time>2026-05-02T16:57:53.911Z</time></trkpt><trkpt lat="42.3597738" lon="13.3559836"><ele>626.5</ele><time>2026-05-02T16:57:54.911Z</time></trkpt><trkpt lat="42.3598124" lon="13.356128"><ele>626.0</ele><time>2026-05-02T16:57:55.91Z</time></trkpt><trkpt lat="42.3598499" lon="13.3562662"><ele>626.0</ele><time>2026-05-02T16:57:56.911Z</time></trkpt><trkpt lat="42.3598861" lon="13.3564037"><ele>626.0</ele><time>2026-05-02T16:57:57.91Z</time></trkpt><trkpt lat="42.3599211" lon="13.3565447"><ele>626.0</ele><time>2026-05-02T16:57:58.909Z</time></trkpt><trkpt lat="42.3599554" lon="13.3566853"><ele>626.0</ele><time>2026-05-02T16:57:59.91Z</time></trkpt><trkpt lat="42.359996" lon="13.3568453"><ele>626.0</ele><time>2026-05-02T16:58:00.912Z</time></trkpt><trkpt lat="42.3600295" lon="13.3570567"><ele>626.0</ele><time>2026-05-02T16:58:01.91Z</time></trkpt><trkpt lat="42.3600474" lon="13.3572686"><ele>626.0</ele><time>2026-05-02T16:58:02.91Z</time></trkpt><trkpt lat="42.3600524" lon="13.3574669"><ele>626.0</ele><time>2026-05-02T16:58:03.911Z</time></trkpt><trkpt lat="42.360051" lon="13.3576665"><ele>626.0</ele><time>2026-05-02T16:58:04.911Z</time></trkpt><trkpt lat="42.3600423" lon="13.3578763"><ele>626.0</ele><time>2026-05-02T16:58:05.91Z</time></trkpt><trkpt lat="42.3600296" lon="13.3581021"><ele>626.0</ele><time>2026-05-02T16:58:06.91Z</time></trkpt><trkpt lat="42.3599931" lon="13.3583355"><ele>626.0</ele><time>2026-05-02T16:58:07.91Z</time></trkpt><trkpt lat="42.3599508" lon="13.3585556"><ele>626.0</ele><time>2026-05-02T16:58:08.91Z</time></trkpt><trkpt lat="42.3598997" lon="13.35878"><ele>625.3333333333333</ele><time>2026-05-02T16:58:09.91Z</time></trkpt><trkpt lat="42.359831" lon="13.3590038"><ele>624.6666666666666</ele><time>2026-05-02T16:58:10.909Z</time></trkpt><trkpt lat="42.3597637" lon="13.359219"><ele>624.0</ele><time>2026-05-02T16:58:11.909Z</time></trkpt><trkpt lat="42.3596926" lon="13.3594333"><ele>624.0</ele><time>2026-05-02T16:58:12.909Z</time></trkpt><trkpt lat="42.3596252" lon="13.3596526"><ele>624.0</ele><time>2026-05-02T16:58:13.909Z</time></trkpt><trkpt lat="42.3595635" lon="13.3598734"><ele>624.0</ele><time>2026-05-02T16:58:14.911Z</time></trkpt><trkpt lat="42.3594985" lon="13.3601014"><ele>625.0</ele><time>2026-05-02T16:58:15.912Z</time></trkpt><trkpt lat="42.3594311" lon="13.3603259"><ele>626.0</ele><time>2026-05-02T16:58:16.911Z</time></trkpt><trkpt lat="42.3593668" lon="13.3605531"><ele>627.0</ele><time>2026-05-02T16:58:17.91Z</time></trkpt><trkpt lat="42.3592988" lon="13.3607839"><ele>627.3333333333334</ele><time>2026-05-02T16:58:18.912Z</time></trkpt><trkpt lat="42.3592319" lon="13.361017"><ele>627.6666666666667</ele><time>2026-05-02T16:58:19.912Z</time></trkpt><trkpt lat="42.3591639" lon="13.3612492"><ele>628.0</ele><time>2026-05-02T16:58:20.91Z</time></trkpt><trkpt lat="42.3590954" lon="13.3614818"><ele>630.0</ele><time>2026-05-02T16:58:21.91Z</time></trkpt><trkpt lat="42.3590325" lon="13.3617129"><ele>632.0</ele><time>2026-05-02T16:58:22.91Z</time></trkpt><trkpt lat="42.3589695" lon="13.3619475"><ele>634.0</ele><time>2026-05-02T16:58:23.91Z</time></trkpt><trkpt lat="42.358892" lon="13.3621425"><ele>631.3333333333334</ele><time>2026-05-02T16:58:24.91Z</time></trkpt><trkpt lat="42.3588295" lon="13.3623504"><ele>628.6666666666666</ele><time>2026-05-02T16:58:25.91Z</time></trkpt><trkpt lat="42.3587645" lon="13.3625587"><ele>626.0</ele><time>2026-05-02T16:58:26.91Z</time></trkpt><trkpt lat="42.3586994" lon="13.362776"><ele>626.0</ele><time>2026-05-02T16:58:27.911Z</time></trkpt><trkpt lat="42.3586325" lon="13.3629977"><ele>626.0</ele><time>2026-05-02T16:58:28.909Z</time></trkpt><trkpt lat="42.3585648" lon="13.3632213"><ele>626.0</ele><time>2026-05-02T16:58:29.91Z</time></trkpt><trkpt lat="42.3585025" lon="13.3634453"><ele>626.6666666666666</ele><time>2026-05-02T16:58:30.91Z</time></trkpt><trkpt lat="42.3584438" lon="13.3636741"><ele>627.3333333333334</ele><time>2026-05-02T16:58:31.91Z</time></trkpt><trkpt lat="42.3583817" lon="13.3639017"><ele>628.0</ele><time>2026-05-02T16:58:32.912Z</time></trkpt><trkpt lat="42.3583238" lon="13.3641404"><ele>628.3333333333334</ele><time>2026-05-02T16:58:33.912Z</time></trkpt><trkpt lat="42.3582768" lon="13.3643749"><ele>628.6666666666666</ele><time>2026-05-02T16:58:34.911Z</time></trkpt><trkpt lat="42.3582397" lon="13.364619"><ele>629.0</ele><time>2026-05-02T16:58:35.912Z</time></trkpt><trkpt lat="42.3582117" lon="13.364868"><ele>629.0</ele><time>2026-05-02T16:58:36.91Z</time></trkpt><trkpt lat="42.3581978" lon="13.3651162"><ele>629.0</ele><time>2026-05-02T16:58:37.91Z</time></trkpt><trkpt lat="42.3582001" lon="13.3653616"><ele>629.0</ele><time>2026-05-02T16:58:38.911Z</time></trkpt><trkpt lat="42.358218" lon="13.3655973"><ele>628.3333333333333</ele><time>2026-05-02T16:58:39.91Z</time></trkpt><trkpt lat="42.3582565" lon="13.365825"><ele>627.6666666666666</ele><time>2026-05-02T16:58:40.909Z</time></trkpt><trkpt lat="42.358305" lon="13.3660411"><ele>627.0</ele><time>2026-05-02T16:58:41.911Z</time></trkpt><trkpt lat="42.358372" lon="13.36625"><ele>627.3333333333334</ele><time>2026-05-02T16:58:42.911Z</time></trkpt><trkpt lat="42.3584529" lon="13.3664514"><ele>627.6666666666667</ele><time>2026-05-02T16:58:43.91Z</time></trkpt><trkpt lat="42.3585404" lon="13.3666482"><ele>628.0</ele><time>2026-05-02T16:58:44.911Z</time></trkpt><trkpt lat="42.3586241" lon="13.3668354"><ele>628.0</ele><time>2026-05-02T16:58:45.909Z</time></trkpt><trkpt lat="42.3587045" lon="13.3670229"><ele>628.0</ele><time>2026-05-02T16:58:46.911Z</time></trkpt><trkpt lat="42.3587797" lon="13.3672001"><ele>628.0</ele><time>2026-05-02T16:58:47.911Z</time></trkpt><trkpt lat="42.3588425" lon="13.3673627"><ele>628.0</ele><time>2026-05-02T16:58:48.91Z</time></trkpt><trkpt lat="42.3589009" lon="13.3675129"><ele>628.1666666666667</ele><time>2026-05-02T16:58:49.911Z</time></trkpt><trkpt lat="42.3589389" lon="13.3676303"><ele>628.3333333333334</ele><time>2026-05-02T16:58:50.909Z</time></trkpt><trkpt lat="42.3589717" lon="13.3677426"><ele>628.5</ele><time>2026-05-02T16:58:51.91Z</time></trkpt><trkpt lat="42.3589884" lon="13.3678521"><ele>628.6666666666666</ele><time>2026-05-02T16:58:52.91Z</time></trkpt><trkpt lat="42.3590058" lon="13.3679701"><ele>628.8333333333333</ele><time>2026-05-02T16:58:53.911Z</time></trkpt><trkpt lat="42.359041" lon="13.3680791"><ele>629.0</ele><time>2026-05-02T16:58:54.91Z</time></trkpt><trkpt lat="42.3590774" lon="13.3682056"><ele>629.0</ele><time>2026-05-02T16:58:55.911Z</time></trkpt><trkpt lat="42.3591047" lon="13.3683566"><ele>629.0</ele><time>2026-05-02T16:58:56.91Z</time></trkpt><trkpt lat="42.3591351" lon="13.3685303"><ele>629.0</ele><time>2026-05-02T16:58:57.911Z</time></trkpt><trkpt lat="42.3591635" lon="13.3687153"><ele>629.0</ele><time>2026-05-02T16:58:58.91Z</time></trkpt><trkpt lat="42.3591942" lon="13.3689145"><ele>629.25</ele><time>2026-05-02T16:58:59.912Z</time></trkpt><trkpt lat="42.3592325" lon="13.3691032"><ele>629.5</ele><time>2026-05-02T16:59:00.909Z</time></trkpt><trkpt lat="42.3592632" lon="13.3692764"><ele>629.75</ele><time>2026-05-02T16:59:01.91Z</time></trkpt><trkpt lat="42.3592863" lon="13.3694273"><ele>630.0</ele><time>2026-05-02T16:59:02.911Z</time></trkpt><trkpt lat="42.3593059" lon="13.3695563"><ele>630.0</ele><time>2026-05-02T16:59:03.912Z</time></trkpt><trkpt lat="42.3593241" lon="13.3696818"><ele>630.0</ele><time>2026-05-02T16:59:04.911Z</time></trkpt><trkpt lat="42.3593434" lon="13.3697973"><ele>630.0</ele><time>2026-05-02T16:59:05.91Z</time></trkpt><trkpt lat="42.3593622" lon="13.3699108"><ele>630.0</ele><time>2026-05-02T16:59:06.91Z</time></trkpt><trkpt lat="42.3593814" lon="13.3700334"><ele>630.0</ele><time>2026-05-02T16:59:07.912Z</time></trkpt><trkpt lat="42.3594018" lon="13.3701626"><ele>630.4</ele><time>2026-05-02T16:59:08.91Z</time></trkpt><trkpt lat="42.3594242" lon="13.3702969"><ele>630.8</ele><time>2026-05-02T16:59:09.911Z</time></trkpt><trkpt lat="42.3594468" lon="13.3704303"><ele>631.2</ele><time>2026-05-02T16:59:10.911Z</time></trkpt><trkpt lat="42.3594679" lon="13.3705577"><ele>631.6</ele><time>2026-05-02T16:59:11.909Z</time></trkpt><trkpt lat="42.3594871" lon="13.3706808"><ele>632.0</ele><time>2026-05-02T16:59:12.911Z</time></trkpt><trkpt lat="42.3595039" lon="13.3708085"><ele>633.0</ele><time>2026-05-02T16:59:13.912Z</time></trkpt><trkpt lat="42.3595191" lon="13.3709421"><ele>634.0</ele><time>2026-05-02T16:59:14.911Z</time></trkpt><trkpt lat="42.3595395" lon="13.3710892"><ele>635.0</ele><time>2026-05-02T16:59:15.91Z</time></trkpt><trkpt lat="42.3595601" lon="13.3712369"><ele>636.0</ele><time>2026-05-02T16:59:16.911Z</time></trkpt><trkpt lat="42.3595854" lon="13.3713911"><ele>637.0</ele><time>2026-05-02T16:59:17.91Z</time></trkpt><trkpt lat="42.3596051" lon="13.3715422"><ele>637.2</ele><time>2026-05-02T16:59:18.91Z</time></trkpt><trkpt lat="42.3596273" lon="13.3716932"><ele>637.4000000000001</ele><time>2026-05-02T16:59:19.911Z</time></trkpt><trkpt lat="42.3596513" lon="13.3718424"><ele>637.5999999999999</ele><time>2026-05-02T16:59:20.911Z</time></trkpt><trkpt lat="42.3596721" lon="13.3719889"><ele>637.8</ele><time>2026-05-02T16:59:21.911Z</time></trkpt><trkpt lat="42.3596937" lon="13.372136"><ele>638.0</ele><time>2026-05-02T16:59:22.91Z</time></trkpt><trkpt lat="42.3597186" lon="13.3722759"><ele>638.5999999999999</ele><time>2026-05-02T16:59:23.909Z</time></trkpt><trkpt lat="42.3597433" lon="13.372412"><ele>639.1999999999999</ele><time>2026-05-02T16:59:24.909Z</time></trkpt><trkpt lat="42.3597542" lon="13.3725358"><ele>639.8</ele><time>2026-05-02T16:59:25.911Z</time></trkpt><trkpt lat="42.3597754" lon="13.3726633"><ele>640.4</ele><time>2026-05-02T16:59:26.91Z</time></trkpt><trkpt lat="42.359796" lon="13.3727962"><ele>641.0</ele><time>2026-05-02T16:59:27.911Z</time></trkpt><trkpt lat="42.3598136" lon="13.372911"><ele>641.5999999999999</ele><time>2026-05-02T16:59:28.91Z</time></trkpt><trkpt lat="42.3598271" lon="13.373028"><ele>642.2</ele><time>2026-05-02T16:59:29.91Z</time></trkpt><trkpt lat="42.3598445" lon="13.3731496"><ele>642.8</ele><time>2026-05-02T16:59:30.911Z</time></trkpt><trkpt lat="42.3598659" lon="13.3732799"><ele>643.4000000000001</ele><time>2026-05-02T16:59:31.91Z</time></trkpt><trkpt lat="42.3598866" lon="13.3734124"><ele>644.0</ele><time>2026-05-02T16:59:32.909Z</time></trkpt><trkpt lat="42.3599016" lon="13.3735314"><ele>644.0</ele><time>2026-05-02T16:59:33.911Z</time></trkpt><trkpt lat="42.3599222" lon="13.3736496"><ele>644.0</ele><time>2026-05-02T16:59:34.912Z</time></trkpt><trkpt lat="42.3599438" lon="13.3737704"><ele>644.0</ele><time>2026-05-02T16:59:35.91Z</time></trkpt><trkpt lat="42.3599659" lon="13.3738807"><ele>644.0</ele><time>2026-05-02T16:59:36.909Z</time></trkpt><trkpt lat="42.3599867" lon="13.3740183"><ele>644.0</ele><time>2026-05-02T16:59:37.91Z</time></trkpt><trkpt lat="42.3600192" lon="13.3741954"><ele>644.3333333333333</ele><time>2026-05-02T16:59:38.909Z</time></trkpt><trkpt lat="42.3600503" lon="13.3743851"><ele>644.6666666666666</ele><time>2026-05-02T16:59:39.91Z</time></trkpt><trkpt lat="42.3600784" lon="13.3745942"><ele>645.0</ele><time>2026-05-02T16:59:40.911Z</time></trkpt><trkpt lat="42.3601079" lon="13.3748095"><ele>645.25</ele><time>2026-05-02T16:59:41.91Z</time></trkpt><trkpt lat="42.3601358" lon="13.3750085"><ele>645.5</ele><time>2026-05-02T16:59:42.911Z</time></trkpt><trkpt lat="42.3601611" lon="13.3751928"><ele>645.75</ele><time>2026-05-02T16:59:43.91Z</time></trkpt><trkpt lat="42.3601861" lon="13.3753719"><ele>646.0</ele><time>2026-05-02T16:59:44.91Z</time></trkpt><trkpt lat="42.3602147" lon="13.3755515"><ele>646.5</ele><time>2026-05-02T16:59:45.911Z</time></trkpt><trkpt lat="42.360234" lon="13.3757366"><ele>647.0</ele><time>2026-05-02T16:59:46.911Z</time></trkpt><trkpt lat="42.3602528" lon="13.3759256"><ele>647.5</ele><time>2026-05-02T16:59:47.911Z</time></trkpt><trkpt lat="42.360277" lon="13.3760998"><ele>648.0</ele><time>2026-05-02T16:59:48.909Z</time></trkpt><trkpt lat="42.3602958" lon="13.3762462"><ele>648.4</ele><time>2026-05-02T16:59:49.909Z</time></trkpt><trkpt lat="42.3603097" lon="13.3763758"><ele>648.8</ele><time>2026-05-02T16:59:50.91Z</time></trkpt><trkpt lat="42.3603189" lon="13.376485"><ele>649.2</ele><time>2026-05-02T16:59:51.91Z</time></trkpt><trkpt lat="42.3603319" lon="13.376601"><ele>649.6</ele><time>2026-05-02T16:59:52.911Z</time></trkpt><trkpt lat="42.3603435" lon="13.3767313"><ele>650.0</ele><time>2026-05-02T16:59:53.911Z</time></trkpt><trkpt lat="42.3603582" lon="13.3768613"><ele>650.0</ele><time>2026-05-02T16:59:54.91Z</time></trkpt><trkpt lat="42.3603745" lon="13.3769884"><ele>650.0</ele><time>2026-05-02T16:59:55.911Z</time></trkpt><trkpt lat="42.3603875" lon="13.3771053"><ele>650.0</ele><time>2026-05-02T16:59:56.911Z</time></trkpt><trkpt lat="42.3604003" lon="13.3772248"><ele>650.0</ele><time>2026-05-02T16:59:57.91Z</time></trkpt><trkpt lat="42.3604063" lon="13.3773195"><ele>650.0</ele><time>2026-05-02T16:59:58.91Z</time></trkpt><trkpt lat="42.3604081" lon="13.3774334"><ele>650.0</ele><time>2026-05-02T16:59:59.91Z</time></trkpt><trkpt lat="42.360407" lon="13.3775429"><ele>650.0</ele><time>2026-05-02T17:00:00.91Z</time></trkpt><trkpt lat="42.3604071" lon="13.3776678"><ele>650.0</ele><time>2026-05-02T17:00:01.912Z</time></trkpt><trkpt lat="42.3603985" lon="13.3778059"><ele>650.0</ele><time>2026-05-02T17:00:02.91Z</time></trkpt><trkpt lat="42.3603889" lon="13.3779532"><ele>650.0</ele><time>2026-05-02T17:00:03.909Z</time></trkpt><trkpt lat="42.3603771" lon="13.3781114"><ele>650.0</ele><time>2026-05-02T17:00:04.91Z</time></trkpt><trkpt lat="42.3603631" lon="13.3782587"><ele>650.2</ele><time>2026-05-02T17:00:05.911Z</time></trkpt><trkpt lat="42.3603423" lon="13.3784113"><ele>650.4</ele><time>2026-05-02T17:00:06.91Z</time></trkpt><trkpt lat="42.3603227" lon="13.3785524"><ele>650.5999999999999</ele><time>2026-05-02T17:00:07.91Z</time></trkpt><trkpt lat="42.3602957" lon="13.3786944"><ele>650.8</ele><time>2026-05-02T17:00:08.911Z</time></trkpt><trkpt lat="42.3602626" lon="13.378837"><ele>651.0</ele><time>2026-05-02T17:00:09.91Z</time></trkpt><trkpt lat="42.3602295" lon="13.3789711"><ele>651.1999999999999</ele><time>2026-05-02T17:00:10.91Z</time></trkpt><trkpt lat="42.3601904" lon="13.3790935"><ele>651.4</ele><time>2026-05-02T17:00:11.911Z</time></trkpt><trkpt lat="42.3601544" lon="13.3792069"><ele>651.6</ele><time>2026-05-02T17:00:12.91Z</time></trkpt><trkpt lat="42.3601176" lon="13.3793064"><ele>651.8</ele><time>2026-05-02T17:00:13.911Z</time></trkpt><trkpt lat="42.3600823" lon="13.3793917"><ele>652.0</ele><time>2026-05-02T17:00:14.91Z</time></trkpt><trkpt lat="42.3599937" lon="13.3795135"><ele>652.0</ele><time>2026-05-02T17:00:16.911Z</time></trkpt><trkpt lat="42.3599444" lon="13.3795691"><ele>652.0</ele><time>2026-05-02T17:00:17.91Z</time></trkpt><trkpt lat="42.3598745" lon="13.3797111"><ele>652.0</ele><time>2026-05-02T17:00:19.911Z</time></trkpt><trkpt lat="42.3598628" lon="13.3798086"><ele>652.0</ele><time>2026-05-02T17:00:20.91Z</time></trkpt><trkpt lat="42.359862" lon="13.3799187"><ele>652.0</ele><time>2026-05-02T17:00:21.912Z</time></trkpt><trkpt lat="42.3598595" lon="13.3800269"><ele>652.0</ele><time>2026-05-02T17:00:22.91Z</time></trkpt><trkpt lat="42.3598394" lon="13.3801349"><ele>651.8</ele><time>2026-05-02T17:00:23.91Z</time></trkpt><trkpt lat="42.3598068" lon="13.3802539"><ele>651.6</ele><time>2026-05-02T17:00:24.911Z</time></trkpt><trkpt lat="42.3597589" lon="13.3803731"><ele>651.4</ele><time>2026-05-02T17:00:25.91Z</time></trkpt><trkpt lat="42.3597059" lon="13.3804976"><ele>651.1999999999999</ele><time>2026-05-02T17:00:26.911Z</time></trkpt><trkpt lat="42.3596476" lon="13.3806435"><ele>651.0</ele><time>2026-05-02T17:00:27.91Z</time></trkpt><trkpt lat="42.3595825" lon="13.3807922"><ele>650.75</ele><time>2026-05-02T17:00:28.911Z</time></trkpt><trkpt lat="42.3595099" lon="13.3809451"><ele>650.5</ele><time>2026-05-02T17:00:29.911Z</time></trkpt><trkpt lat="42.3594385" lon="13.3810909"><ele>650.25</ele><time>2026-05-02T17:00:30.911Z</time></trkpt><trkpt lat="42.3593759" lon="13.3812392"><ele>650.0</ele><time>2026-05-02T17:00:31.91Z</time></trkpt><trkpt lat="42.3593088" lon="13.381405"><ele>649.75</ele><time>2026-05-02T17:00:32.91Z</time></trkpt><trkpt lat="42.3592408" lon="13.3815704"><ele>649.5</ele><time>2026-05-02T17:00:33.91Z</time></trkpt><trkpt lat="42.3591685" lon="13.3817413"><ele>649.25</ele><time>2026-05-02T17:00:34.912Z</time></trkpt><trkpt lat="42.3590935" lon="13.3819245"><ele>649.0</ele><time>2026-05-02T17:00:35.91Z</time></trkpt><trkpt lat="42.3590137" lon="13.3821066"><ele>649.6666666666667</ele><time>2026-05-02T17:00:36.911Z</time></trkpt><trkpt lat="42.3589282" lon="13.3822928"><ele>650.3333333333334</ele><time>2026-05-02T17:00:37.91Z</time></trkpt><trkpt lat="42.3588397" lon="13.3824779"><ele>651.0</ele><time>2026-05-02T17:00:38.909Z</time></trkpt><trkpt lat="42.3587534" lon="13.3826673"><ele>651.0</ele><time>2026-05-02T17:00:39.91Z</time></trkpt><trkpt lat="42.3586699" lon="13.3828628"><ele>651.0</ele><time>2026-05-02T17:00:40.91Z</time></trkpt><trkpt lat="42.3585847" lon="13.3830561"><ele>651.0</ele><time>2026-05-02T17:00:41.909Z</time></trkpt><trkpt lat="42.3585008" lon="13.3832436"><ele>650.3333333333334</ele><time>2026-05-02T17:00:42.91Z</time></trkpt><trkpt lat="42.3584157" lon="13.3834236"><ele>649.6666666666667</ele><time>2026-05-02T17:00:43.91Z</time></trkpt><trkpt lat="42.3583312" lon="13.383605"><ele>649.0</ele><time>2026-05-02T17:00:44.909Z</time></trkpt><trkpt lat="42.3582549" lon="13.3837736"><ele>649.25</ele><time>2026-05-02T17:00:45.911Z</time></trkpt><trkpt lat="42.358185" lon="13.3839353"><ele>649.5</ele><time>2026-05-02T17:00:46.911Z</time></trkpt><trkpt lat="42.3581128" lon="13.3840912"><ele>649.75</ele><time>2026-05-02T17:00:47.911Z</time></trkpt><trkpt lat="42.3580458" lon="13.3842526"><ele>650.0</ele><time>2026-05-02T17:00:48.911Z</time></trkpt><trkpt lat="42.35799" lon="13.3844071"><ele>649.8</ele><time>2026-05-02T17:00:49.911Z</time></trkpt><trkpt lat="42.3579444" lon="13.3845492"><ele>649.6</ele><time>2026-05-02T17:00:50.911Z</time></trkpt><trkpt lat="42.3579062" lon="13.3846763"><ele>649.4000000000001</ele><time>2026-05-02T17:00:51.91Z</time></trkpt><trkpt lat="42.3578705" lon="13.3847966"><ele>649.2</ele><time>2026-05-02T17:00:52.91Z</time></trkpt><trkpt lat="42.3578438" lon="13.3849024"><ele>649.0</ele><time>2026-05-02T17:00:53.911Z</time></trkpt><trkpt lat="42.3578145" lon="13.3849929"><ele>649.0</ele><time>2026-05-02T17:00:54.911Z</time></trkpt><trkpt lat="42.3577755" lon="13.3851036"><ele>649.0</ele><time>2026-05-02T17:00:56.911Z</time></trkpt><trkpt lat="42.3577223" lon="13.3852098"><ele>649.0</ele><time>2026-05-02T17:00:58.909Z</time></trkpt><trkpt lat="42.3576328" lon="13.3853272"><ele>649.0</ele><time>2026-05-02T17:01:00.91Z</time></trkpt><trkpt lat="42.3575898" lon="13.3853898"><ele>649.0</ele><time>2026-05-02T17:01:01.912Z</time></trkpt><trkpt lat="42.3575083" lon="13.3855401"><ele>649.0</ele><time>2026-05-02T17:01:03.91Z</time></trkpt><trkpt lat="42.35745" lon="13.3856459"><ele>649.0</ele><time>2026-05-02T17:01:04.91Z</time></trkpt><trkpt lat="42.3573797" lon="13.3857677"><ele>649.0</ele><time>2026-05-02T17:01:05.91Z</time></trkpt><trkpt lat="42.3572596" lon="13.3859044"><ele>649.0</ele><time>2026-05-02T17:01:06.911Z</time></trkpt><trkpt lat="42.3571465" lon="13.3860381"><ele>648.75</ele><time>2026-05-02T17:01:07.909Z</time></trkpt><trkpt lat="42.3570381" lon="13.3861692"><ele>648.5</ele><time>2026-05-02T17:01:08.91Z</time></trkpt><trkpt lat="42.356935" lon="13.3863059"><ele>648.25</ele><time>2026-05-02T17:01:09.91Z</time></trkpt><trkpt lat="42.356849" lon="13.3864376"><ele>648.0</ele><time>2026-05-02T17:01:10.911Z</time></trkpt><trkpt lat="42.3567572" lon="13.3865757"><ele>648.0</ele><time>2026-05-02T17:01:11.91Z</time></trkpt><trkpt lat="42.3566704" lon="13.3867115"><ele>648.0</ele><time>2026-05-02T17:01:12.91Z</time></trkpt><trkpt lat="42.3565943" lon="13.3868413"><ele>648.0</ele><time>2026-05-02T17:01:13.91Z</time></trkpt><trkpt lat="42.3565148" lon="13.3869691"><ele>648.0</ele><time>2026-05-02T17:01:14.91Z</time></trkpt><trkpt lat="42.3564352" lon="13.3871018"><ele>647.5</ele><time>2026-05-02T17:01:15.911Z</time></trkpt><trkpt lat="42.3563579" lon="13.3872485"><ele>647.0</ele><time>2026-05-02T17:01:16.91Z</time></trkpt><trkpt lat="42.3562811" lon="13.3873905"><ele>646.5</ele><time>2026-05-02T17:01:17.912Z</time></trkpt><trkpt lat="42.3562041" lon="13.3875262"><ele>646.0</ele><time>2026-05-02T17:01:18.909Z</time></trkpt><trkpt lat="42.3561313" lon="13.3876581"><ele>646.0</ele><time>2026-05-02T17:01:19.91Z</time></trkpt><trkpt lat="42.3560656" lon="13.3877823"><ele>646.0</ele><time>2026-05-02T17:01:20.911Z</time></trkpt><trkpt lat="42.3560072" lon="13.3878892"><ele>646.0</ele><time>2026-05-02T17:01:21.91Z</time></trkpt><trkpt lat="42.3559581" lon="13.3879752"><ele>646.0</ele><time>2026-05-02T17:01:22.911Z</time></trkpt><trkpt lat="42.3559112" lon="13.3880428"><ele>646.0</ele><time>2026-05-02T17:01:23.91Z</time></trkpt><trkpt lat="42.3558542" lon="13.3881016"><ele>646.0</ele><time>2026-05-02T17:01:24.912Z</time></trkpt><trkpt lat="42.355793" lon="13.3881505"><ele>647.0</ele><time>2026-05-02T17:01:25.91Z</time></trkpt><trkpt lat="42.3557279" lon="13.3881833"><ele>648.0</ele><time>2026-05-02T17:01:26.911Z</time></trkpt><trkpt lat="42.3556575" lon="13.3882045"><ele>649.0</ele><time>2026-05-02T17:01:27.911Z</time></trkpt><trkpt lat="42.3555976" lon="13.3882348"><ele>650.0</ele><time>2026-05-02T17:01:28.91Z</time></trkpt><trkpt lat="42.3555049" lon="13.3883494"><ele>651.0</ele><time>2026-05-02T17:01:30.91Z</time></trkpt><trkpt lat="42.3555157" lon="13.3885218"><ele>651.1999999999999</ele><time>2026-05-02T17:01:32.911Z</time></trkpt><trkpt lat="42.3556046" lon="13.3886465"><ele>651.4</ele><time>2026-05-02T17:01:34.91Z</time></trkpt><trkpt lat="42.3556663" lon="13.388713"><ele>651.6</ele><time>2026-05-02T17:01:35.911Z</time></trkpt><trkpt lat="42.3557264" lon="13.3887967"><ele>651.8</ele><time>2026-05-02T17:01:36.91Z</time></trkpt><trkpt lat="42.3557893" lon="13.3888911"><ele>652.0</ele><time>2026-05-02T17:01:37.91Z</time></trkpt><trkpt lat="42.35585" lon="13.3889854"><ele>652.8333333333334</ele><time>2026-05-02T17:01:38.911Z</time></trkpt><trkpt lat="42.3559036" lon="13.3890772"><ele>653.6666666666667</ele><time>2026-05-02T17:01:39.91Z</time></trkpt><trkpt lat="42.3559562" lon="13.3891702"><ele>654.5</ele><time>2026-05-02T17:01:40.91Z</time></trkpt><trkpt lat="42.3560111" lon="13.3892603"><ele>655.3333333333334</ele><time>2026-05-02T17:01:41.911Z</time></trkpt><trkpt lat="42.3560626" lon="13.3893489"><ele>656.1666666666666</ele><time>2026-05-02T17:01:42.911Z</time></trkpt><trkpt lat="42.356116" lon="13.3894439"><ele>657.0</ele><time>2026-05-02T17:01:43.912Z</time></trkpt><trkpt lat="42.3561642" lon="13.3895419"><ele>657.0</ele><time>2026-05-02T17:01:44.91Z</time></trkpt><trkpt lat="42.3562123" lon="13.3896414"><ele>657.0</ele><time>2026-05-02T17:01:45.91Z</time></trkpt><trkpt lat="42.3562629" lon="13.3897368"><ele>657.0</ele><time>2026-05-02T17:01:46.91Z</time></trkpt><trkpt lat="42.3563089" lon="13.3898265"><ele>657.0</ele><time>2026-05-02T17:01:47.909Z</time></trkpt><trkpt lat="42.3563591" lon="13.3899164"><ele>657.0</ele><time>2026-05-02T17:01:48.91Z</time></trkpt><trkpt lat="42.3564133" lon="13.3899983"><ele>657.0</ele><time>2026-05-02T17:01:49.91Z</time></trkpt><trkpt lat="42.3564724" lon="13.3900747"><ele>656.5714285714286</ele><time>2026-05-02T17:01:50.91Z</time></trkpt><trkpt lat="42.3565313" lon="13.3901419"><ele>656.1428571428572</ele><time>2026-05-02T17:01:51.911Z</time></trkpt><trkpt lat="42.3565904" lon="13.3902077"><ele>655.7142857142858</ele><time>2026-05-02T17:01:52.909Z</time></trkpt><trkpt lat="42.3566419" lon="13.3902681"><ele>655.2857142857142</ele><time>2026-05-02T17:01:53.911Z</time></trkpt><trkpt lat="42.3566867" lon="13.3903336"><ele>654.8571428571429</ele><time>2026-05-02T17:01:54.91Z</time></trkpt><trkpt lat="42.356731" lon="13.3904051"><ele>654.4285714285714</ele><time>2026-05-02T17:01:55.91Z</time></trkpt><trkpt lat="42.3567687" lon="13.3904802"><ele>654.0</ele><time>2026-05-02T17:01:56.909Z</time></trkpt><trkpt lat="42.356813" lon="13.3906419"><ele>654.0</ele><time>2026-05-02T17:01:58.911Z</time></trkpt><trkpt lat="42.3568145" lon="13.3907362"><ele>654.0</ele><time>2026-05-02T17:01:59.91Z</time></trkpt><trkpt lat="42.3567987" lon="13.3908394"><ele>654.0</ele><time>2026-05-02T17:02:00.91Z</time></trkpt><trkpt lat="42.3567755" lon="13.390945"><ele>654.0</ele><time>2026-05-02T17:02:01.912Z</time></trkpt><trkpt lat="42.3567506" lon="13.3910496"><ele>654.0</ele><time>2026-05-02T17:02:02.91Z</time></trkpt><trkpt lat="42.3567246" lon="13.3911605"><ele>654.0</ele><time>2026-05-02T17:02:03.911Z</time></trkpt><trkpt lat="42.3567031" lon="13.3912731"><ele>654.7142857142857</ele><time>2026-05-02T17:02:04.91Z</time></trkpt><trkpt lat="42.3566871" lon="13.3913891"><ele>655.4285714285714</ele><time>2026-05-02T17:02:05.91Z</time></trkpt><trkpt lat="42.3566775" lon="13.3914891"><ele>656.1428571428571</ele><time>2026-05-02T17:02:06.91Z</time></trkpt><trkpt lat="42.3566689" lon="13.3915774"><ele>656.8571428571429</ele><time>2026-05-02T17:02:07.91Z</time></trkpt><trkpt lat="42.3566658" lon="13.3916714"><ele>657.5714285714286</ele><time>2026-05-02T17:02:08.91Z</time></trkpt><trkpt lat="42.3566619" lon="13.3917672"><ele>658.2857142857143</ele><time>2026-05-02T17:02:09.911Z</time></trkpt><trkpt lat="42.3566642" lon="13.3918539"><ele>659.0</ele><time>2026-05-02T17:02:10.911Z</time></trkpt><trkpt lat="42.3566581" lon="13.3919456"><ele>659.0</ele><time>2026-05-02T17:02:11.91Z</time></trkpt><trkpt lat="42.3566503" lon="13.3920409"><ele>659.0</ele><time>2026-05-02T17:02:12.91Z</time></trkpt><trkpt lat="42.3566468" lon="13.3921367"><ele>659.0</ele><time>2026-05-02T17:02:13.911Z</time></trkpt><trkpt lat="42.3566457" lon="13.3922291"><ele>659.0</ele><time>2026-05-02T17:02:14.91Z</time></trkpt><trkpt lat="42.3566462" lon="13.3923167"><ele>659.0</ele><time>2026-05-02T17:02:15.911Z</time></trkpt><trkpt lat="42.3566514" lon="13.3924779"><ele>659.0</ele><time>2026-05-02T17:02:17.911Z</time></trkpt><trkpt lat="42.3566524" lon="13.392676"><ele>660.0</ele><time>2026-05-02T17:02:19.909Z</time></trkpt><trkpt lat="42.3566532" lon="13.3928056"><ele>661.0</ele><time>2026-05-02T17:02:20.91Z</time></trkpt><trkpt lat="42.3566574" lon="13.3929311"><ele>662.0</ele><time>2026-05-02T17:02:21.91Z</time></trkpt><trkpt lat="42.3566562" lon="13.3930393"><ele>663.0</ele><time>2026-05-02T17:02:22.91Z</time></trkpt><trkpt lat="42.3566579" lon="13.3931395"><ele>664.0</ele><time>2026-05-02T17:02:23.91Z</time></trkpt><trkpt lat="42.3566595" lon="13.3932517"><ele>665.0</ele><time>2026-05-02T17:02:24.911Z</time></trkpt><trkpt lat="42.3566554" lon="13.3933818"><ele>665.8</ele><time>2026-05-02T17:02:25.911Z</time></trkpt><trkpt lat="42.3566522" lon="13.3935138"><ele>666.6</ele><time>2026-05-02T17:02:26.912Z</time></trkpt><trkpt lat="42.3566476" lon="13.3936648"><ele>667.4000000000001</ele><time>2026-05-02T17:02:27.911Z</time></trkpt><trkpt lat="42.3566434" lon="13.3938089"><ele>668.2</ele><time>2026-05-02T17:02:28.909Z</time></trkpt><trkpt lat="42.3566381" lon="13.3939625"><ele>669.0</ele><time>2026-05-02T17:02:29.909Z</time></trkpt><trkpt lat="42.356634" lon="13.3941108"><ele>670.5</ele><time>2026-05-02T17:02:30.911Z</time></trkpt><trkpt lat="42.3566301" lon="13.3942782"><ele>672.0</ele><time>2026-05-02T17:02:31.911Z</time></trkpt><trkpt lat="42.3566317" lon="13.3944432"><ele>673.5</ele><time>2026-05-02T17:02:32.91Z</time></trkpt><trkpt lat="42.3566272" lon="13.3946037"><ele>675.0</ele><time>2026-05-02T17:02:33.911Z</time></trkpt><trkpt lat="42.3566274" lon="13.3947728"><ele>675.2</ele><time>2026-05-02T17:02:34.912Z</time></trkpt><trkpt lat="42.3566286" lon="13.3949248"><ele>675.4</ele><time>2026-05-02T17:02:35.91Z</time></trkpt><trkpt lat="42.3566211" lon="13.3950739"><ele>675.5999999999999</ele><time>2026-05-02T17:02:36.91Z</time></trkpt><trkpt lat="42.3566132" lon="13.3952209"><ele>675.8</ele><time>2026-05-02T17:02:37.911Z</time></trkpt><trkpt lat="42.3566128" lon="13.3953561"><ele>676.0</ele><time>2026-05-02T17:02:38.91Z</time></trkpt><trkpt lat="42.3566116" lon="13.3954939"><ele>675.6666666666667</ele><time>2026-05-02T17:02:39.909Z</time></trkpt><trkpt lat="42.3566163" lon="13.3956228"><ele>675.3333333333334</ele><time>2026-05-02T17:02:40.91Z</time></trkpt><trkpt lat="42.3566148" lon="13.39575"><ele>675.0</ele><time>2026-05-02T17:02:41.91Z</time></trkpt><trkpt lat="42.3566105" lon="13.3958681"><ele>674.6666666666666</ele><time>2026-05-02T17:02:42.91Z</time></trkpt><trkpt lat="42.356613" lon="13.3959608"><ele>674.3333333333333</ele><time>2026-05-02T17:02:43.91Z</time></trkpt><trkpt lat="42.3566103" lon="13.3960514"><ele>674.0</ele><time>2026-05-02T17:02:44.911Z</time></trkpt><trkpt lat="42.3566006" lon="13.396147"><ele>674.0</ele><time>2026-05-02T17:02:45.911Z</time></trkpt><trkpt lat="42.3565964" lon="13.3962441"><ele>674.0</ele><time>2026-05-02T17:02:46.911Z</time></trkpt><trkpt lat="42.3565918" lon="13.3963555"><ele>674.0</ele><time>2026-05-02T17:02:47.911Z</time></trkpt><trkpt lat="42.3565823" lon="13.3964735"><ele>674.0</ele><time>2026-05-02T17:02:48.91Z</time></trkpt><trkpt lat="42.3565699" lon="13.396584"><ele>674.0</ele><time>2026-05-02T17:02:49.909Z</time></trkpt><trkpt lat="42.356562" lon="13.3967097"><ele>674.0</ele><time>2026-05-02T17:02:50.91Z</time></trkpt><trkpt lat="42.356547" lon="13.396845"><ele>675.0</ele><time>2026-05-02T17:02:51.909Z</time></trkpt><trkpt lat="42.3565358" lon="13.3969826"><ele>676.0</ele><time>2026-05-02T17:02:52.91Z</time></trkpt><trkpt lat="42.3565246" lon="13.3971294"><ele>677.0</ele><time>2026-05-02T17:02:53.911Z</time></trkpt><trkpt lat="42.356514" lon="13.3972839"><ele>678.0</ele><time>2026-05-02T17:02:54.91Z</time></trkpt><trkpt lat="42.3565232" lon="13.3974431"><ele>679.0</ele><time>2026-05-02T17:02:55.91Z</time></trkpt><trkpt lat="42.35654" lon="13.3975956"><ele>680.8000000000001</ele><time>2026-05-02T17:02:56.911Z</time></trkpt><trkpt lat="42.3565693" lon="13.3977358"><ele>682.6</ele><time>2026-05-02T17:02:57.91Z</time></trkpt><trkpt lat="42.3566047" lon="13.3978677"><ele>684.4</ele><time>2026-05-02T17:02:58.91Z</time></trkpt><trkpt lat="42.3566477" lon="13.3979889"><ele>686.2</ele><time>2026-05-02T17:02:59.91Z</time></trkpt><trkpt lat="42.356699" lon="13.3981042"><ele>688.0</ele><time>2026-05-02T17:03:00.91Z</time></trkpt><trkpt lat="42.3567473" lon="13.3982134"><ele>688.2</ele><time>2026-05-02T17:03:01.911Z</time></trkpt><trkpt lat="42.3567931" lon="13.3983153"><ele>688.4</ele><time>2026-05-02T17:03:02.91Z</time></trkpt><trkpt lat="42.3568377" lon="13.3984219"><ele>688.6</ele><time>2026-05-02T17:03:03.91Z</time></trkpt><trkpt lat="42.3568818" lon="13.3985312"><ele>688.8000000000001</ele><time>2026-05-02T17:03:04.912Z</time></trkpt><trkpt lat="42.3569288" lon="13.3986418"><ele>689.0</ele><time>2026-05-02T17:03:05.911Z</time></trkpt><trkpt lat="42.3569694" lon="13.3987701"><ele>690.0</ele><time>2026-05-02T17:03:06.909Z</time></trkpt><trkpt lat="42.3570116" lon="13.3988959"><ele>691.0</ele><time>2026-05-02T17:03:07.912Z</time></trkpt><trkpt lat="42.3570338" lon="13.3990293"><ele>692.0</ele><time>2026-05-02T17:03:08.91Z</time></trkpt><trkpt lat="42.3570324" lon="13.3991555"><ele>693.0</ele><time>2026-05-02T17:03:09.91Z</time></trkpt><trkpt lat="42.3570423" lon="13.3992891"><ele>694.0</ele><time>2026-05-02T17:03:10.911Z</time></trkpt><trkpt lat="42.3570469" lon="13.3994238"><ele>694.0</ele><time>2026-05-02T17:03:11.912Z</time></trkpt><trkpt lat="42.3570568" lon="13.3995397"><ele>694.0</ele><time>2026-05-02T17:03:12.911Z</time></trkpt><trkpt lat="42.3570605" lon="13.3996701"><ele>694.0</ele><time>2026-05-02T17:03:13.91Z</time></trkpt><trkpt lat="42.357059" lon="13.3997947"><ele>694.0</ele><time>2026-05-02T17:03:14.911Z</time></trkpt><trkpt lat="42.3570577" lon="13.3999129"><ele>694.0</ele><time>2026-05-02T17:03:15.91Z</time></trkpt><trkpt lat="42.3570564" lon="13.4000222"><ele>694.0</ele><time>2026-05-02T17:03:16.911Z</time></trkpt><trkpt lat="42.3570609" lon="13.4001282"><ele>695.2</ele><time>2026-05-02T17:03:17.911Z</time></trkpt><trkpt lat="42.3570573" lon="13.4002289"><ele>696.4000000000001</ele><time>2026-05-02T17:03:18.91Z</time></trkpt><trkpt lat="42.3570598" lon="13.4003195"><ele>697.6</ele><time>2026-05-02T17:03:19.912Z</time></trkpt><trkpt lat="42.3570685" lon="13.4004739"><ele>698.8</ele><time>2026-05-02T17:03:21.911Z</time></trkpt><trkpt lat="42.357074" lon="13.400634"><ele>700.0</ele><time>2026-05-02T17:03:23.911Z</time></trkpt><trkpt lat="42.3570722" lon="13.4007371"><ele>700.5</ele><time>2026-05-02T17:03:24.91Z</time></trkpt><trkpt lat="42.3570703" lon="13.4008366"><ele>701.0</ele><time>2026-05-02T17:03:25.911Z</time></trkpt><trkpt lat="42.3570677" lon="13.4009282"><ele>701.5</ele><time>2026-05-02T17:03:26.911Z</time></trkpt><trkpt lat="42.3570686" lon="13.4010373"><ele>702.0</ele><time>2026-05-02T17:03:27.911Z</time></trkpt><trkpt lat="42.357067" lon="13.401151"><ele>702.5</ele><time>2026-05-02T17:03:28.911Z</time></trkpt><trkpt lat="42.3570685" lon="13.4012685"><ele>703.0</ele><time>2026-05-02T17:03:29.911Z</time></trkpt><trkpt lat="42.3570704" lon="13.4013829"><ele>703.0</ele><time>2026-05-02T17:03:30.911Z</time></trkpt><trkpt lat="42.3570669" lon="13.4014922"><ele>703.0</ele><time>2026-05-02T17:03:31.911Z</time></trkpt><trkpt lat="42.3570683" lon="13.4016042"><ele>703.0</ele><time>2026-05-02T17:03:32.91Z</time></trkpt><trkpt lat="42.3570729" lon="13.4017203"><ele>703.0</ele><time>2026-05-02T17:03:33.912Z</time></trkpt><trkpt lat="42.3570742" lon="13.401844"><ele>703.0</ele><time>2026-05-02T17:03:34.911Z</time></trkpt><trkpt lat="42.3570763" lon="13.4019671"><ele>703.0</ele><time>2026-05-02T17:03:35.91Z</time></trkpt><trkpt lat="42.3570774" lon="13.4020857"><ele>702.1666666666667</ele><time>2026-05-02T17:03:36.911Z</time></trkpt><trkpt lat="42.3570736" lon="13.4022009"><ele>701.3333333333334</ele><time>2026-05-02T17:03:37.91Z</time></trkpt><trkpt lat="42.3570741" lon="13.4023152"><ele>700.5</ele><time>2026-05-02T17:03:38.91Z</time></trkpt><trkpt lat="42.3570743" lon="13.4024197"><ele>699.6666666666666</ele><time>2026-05-02T17:03:39.911Z</time></trkpt><trkpt lat="42.3570766" lon="13.4025289"><ele>698.8333333333333</ele><time>2026-05-02T17:03:40.91Z</time></trkpt><trkpt lat="42.3570812" lon="13.4026339"><ele>698.0</ele><time>2026-05-02T17:03:41.91Z</time></trkpt><trkpt lat="42.3570913" lon="13.4027256"><ele>698.0</ele><time>2026-05-02T17:03:42.912Z</time></trkpt><trkpt lat="42.3571127" lon="13.4028652"><ele>698.0</ele><time>2026-05-02T17:03:44.91Z</time></trkpt><trkpt lat="42.3571495" lon="13.403"><ele>698.0</ele><time>2026-05-02T17:03:46.91Z</time></trkpt><trkpt lat="42.357175" lon="13.4030901"><ele>698.0</ele><time>2026-05-02T17:03:47.912Z</time></trkpt><trkpt lat="42.3572074" lon="13.4031779"><ele>698.0</ele><time>2026-05-02T17:03:48.911Z</time></trkpt><trkpt lat="42.3572509" lon="13.4032795"><ele>698.0</ele><time>2026-05-02T17:03:49.91Z</time></trkpt><trkpt lat="42.3572947" lon="13.4033867"><ele>698.8</ele><time>2026-05-02T17:03:50.91Z</time></trkpt><trkpt lat="42.3573443" lon="13.4035029"><ele>699.5999999999999</ele><time>2026-05-02T17:03:51.911Z</time></trkpt><trkpt lat="42.3573904" lon="13.4036248"><ele>700.4000000000001</ele><time>2026-05-02T17:03:52.91Z</time></trkpt><trkpt lat="42.3574412" lon="13.4037601"><ele>701.2</ele><time>2026-05-02T17:03:53.91Z</time></trkpt><trkpt lat="42.3574879" lon="13.4038866"><ele>702.0</ele><time>2026-05-02T17:03:54.91Z</time></trkpt><trkpt lat="42.3575392" lon="13.4040168"><ele>702.0</ele><time>2026-05-02T17:03:55.91Z</time></trkpt><trkpt lat="42.3575844" lon="13.4041428"><ele>702.0</ele><time>2026-05-02T17:03:56.911Z</time></trkpt><trkpt lat="42.3576272" lon="13.4042688"><ele>702.0</ele><time>2026-05-02T17:03:57.911Z</time></trkpt><trkpt lat="42.3576529" lon="13.4043987"><ele>702.0</ele><time>2026-05-02T17:03:58.911Z</time></trkpt><trkpt lat="42.3576534" lon="13.4045208"><ele>702.0</ele><time>2026-05-02T17:03:59.911Z</time></trkpt><trkpt lat="42.3576276" lon="13.4046366"><ele>703.0</ele><time>2026-05-02T17:04:00.909Z</time></trkpt><trkpt lat="42.357581" lon="13.4047334"><ele>704.0</ele><time>2026-05-02T17:04:01.911Z</time></trkpt><trkpt lat="42.3575084" lon="13.4048115"><ele>705.0</ele><time>2026-05-02T17:04:02.911Z</time></trkpt><trkpt lat="42.3574302" lon="13.4048621"><ele>706.0</ele><time>2026-05-02T17:04:03.911Z</time></trkpt><trkpt lat="42.3573464" lon="13.4049044"><ele>707.0</ele><time>2026-05-02T17:04:04.911Z</time></trkpt><trkpt lat="42.3572522" lon="13.4049213"><ele>708.0</ele><time>2026-05-02T17:04:05.91Z</time></trkpt><trkpt lat="42.3571641" lon="13.4049396"><ele>708.0</ele><time>2026-05-02T17:04:06.91Z</time></trkpt><trkpt lat="42.3570709" lon="13.4049465"><ele>708.0</ele><time>2026-05-02T17:04:07.909Z</time></trkpt><trkpt lat="42.3569855" lon="13.4049556"><ele>708.0</ele><time>2026-05-02T17:04:08.91Z</time></trkpt><trkpt lat="42.3569044" lon="13.4049667"><ele>708.0</ele><time>2026-05-02T17:04:09.909Z</time></trkpt><trkpt lat="42.356833" lon="13.404992"><ele>708.0</ele><time>2026-05-02T17:04:10.911Z</time></trkpt><trkpt lat="42.3567564" lon="13.4050234"><ele>708.0</ele><time>2026-05-02T17:04:11.911Z</time></trkpt><trkpt lat="42.356692" lon="13.4050587"><ele>708.0</ele><time>2026-05-02T17:04:12.91Z</time></trkpt><trkpt lat="42.3566308" lon="13.4051071"><ele>708.0</ele><time>2026-05-02T17:04:13.911Z</time></trkpt><trkpt lat="42.3565659" lon="13.4051649"><ele>708.0</ele><time>2026-05-02T17:04:19.911Z</time></trkpt><trkpt lat="42.3565119" lon="13.4052112"><ele>708.0</ele><time>2026-05-02T17:04:23.909Z</time></trkpt><trkpt lat="42.3564554" lon="13.405264"><ele>708.0</ele><time>2026-05-02T17:04:25.91Z</time></trkpt><trkpt lat="42.3563994" lon="13.4053235"><ele>708.0</ele><time>2026-05-02T17:04:27.91Z</time></trkpt><trkpt lat="42.3562891" lon="13.405398"><ele>708.5999999999999</ele><time>2026-05-02T17:04:29.912Z</time></trkpt><trkpt lat="42.3562108" lon="13.4054699"><ele>709.1999999999999</ele><time>2026-05-02T17:04:31.911Z</time></trkpt><trkpt lat="42.3561326" lon="13.405526"><ele>709.8</ele><time>2026-05-02T17:04:33.91Z</time></trkpt><trkpt lat="42.3560607" lon="13.4055702"><ele>710.4</ele><time>2026-05-02T17:04:40.91Z</time></trkpt><trkpt lat="42.3559516" lon="13.4055794"><ele>711.0</ele><time>2026-05-02T17:04:42.909Z</time></trkpt><trkpt lat="42.3558505" lon="13.4054985"><ele>711.0</ele><time>2026-05-02T17:04:44.911Z</time></trkpt><trkpt lat="42.3558144" lon="13.4054273"><ele>711.0</ele><time>2026-05-02T17:04:45.91Z</time></trkpt><trkpt lat="42.3557779" lon="13.4053126"><ele>711.0</ele><time>2026-05-02T17:04:46.91Z</time></trkpt><trkpt lat="42.3557404" lon="13.4052055"><ele>711.0</ele><time>2026-05-02T17:04:47.91Z</time></trkpt><trkpt lat="42.3557082" lon="13.4050715"><ele>711.0</ele><time>2026-05-02T17:04:48.911Z</time></trkpt><trkpt lat="42.3556778" lon="13.4049437"><ele>711.0</ele><time>2026-05-02T17:04:49.911Z</time></trkpt><trkpt lat="42.3556398" lon="13.4048086"><ele>711.0</ele><time>2026-05-02T17:04:50.911Z</time></trkpt><trkpt lat="42.3556056" lon="13.4046658"><ele>711.0</ele><time>2026-05-02T17:04:51.91Z</time></trkpt><trkpt lat="42.3555755" lon="13.4045222"><ele>711.0</ele><time>2026-05-02T17:04:52.91Z</time></trkpt><trkpt lat="42.3555498" lon="13.4043737"><ele>711.0</ele><time>2026-05-02T17:04:53.91Z</time></trkpt><trkpt lat="42.3555186" lon="13.4042319"><ele>711.0</ele><time>2026-05-02T17:04:54.911Z</time></trkpt><trkpt lat="42.3554835" lon="13.4040893"><ele>713.4</ele><time>2026-05-02T17:04:55.911Z</time></trkpt><trkpt lat="42.3554517" lon="13.4039424"><ele>715.8</ele><time>2026-05-02T17:04:56.911Z</time></trkpt><trkpt lat="42.3554226" lon="13.403804"><ele>718.1999999999999</ele><time>2026-05-02T17:04:57.91Z</time></trkpt><trkpt lat="42.3553939" lon="13.4036666"><ele>720.5999999999999</ele><time>2026-05-02T17:04:58.912Z</time></trkpt><trkpt lat="42.3553622" lon="13.4035366"><ele>723.0</ele><time>2026-05-02T17:04:59.91Z</time></trkpt><trkpt lat="42.3553233" lon="13.4034118"><ele>723.0</ele><time>2026-05-02T17:05:00.91Z</time></trkpt><trkpt lat="42.355286" lon="13.403295"><ele>723.0</ele><time>2026-05-02T17:05:01.912Z</time></trkpt><trkpt lat="42.3552478" lon="13.4031906"><ele>723.0</ele><time>2026-05-02T17:05:02.909Z</time></trkpt><trkpt lat="42.3552036" lon="13.4030877"><ele>723.0</ele><time>2026-05-02T17:05:03.909Z</time></trkpt><trkpt lat="42.355152" lon="13.4030022"><ele>723.0</ele><time>2026-05-02T17:05:04.909Z</time></trkpt><trkpt lat="42.3551022" lon="13.4029166"><ele>723.0</ele><time>2026-05-02T17:05:05.91Z</time></trkpt><trkpt lat="42.3550474" lon="13.4028345"><ele>721.8333333333334</ele><time>2026-05-02T17:05:06.911Z</time></trkpt><trkpt lat="42.354991" lon="13.4027527"><ele>720.6666666666666</ele><time>2026-05-02T17:05:07.911Z</time></trkpt><trkpt lat="42.3549337" lon="13.4026821"><ele>719.5</ele><time>2026-05-02T17:05:08.91Z</time></trkpt><trkpt lat="42.354879" lon="13.4026193"><ele>718.3333333333333</ele><time>2026-05-02T17:05:09.91Z</time></trkpt><trkpt lat="42.3548278" lon="13.4025662"><ele>717.1666666666666</ele><time>2026-05-02T17:05:10.911Z</time></trkpt><trkpt lat="42.3547513" lon="13.4024778"><ele>716.0</ele><time>2026-05-02T17:05:12.91Z</time></trkpt><trkpt lat="42.3546891" lon="13.402409"><ele>718.0</ele><time>2026-05-02T17:05:15.909Z</time></trkpt><trkpt lat="42.3546112" lon="13.4023181"><ele>720.0</ele><time>2026-05-02T17:05:18.91Z</time></trkpt><trkpt lat="42.3545453" lon="13.4022352"><ele>722.0</ele><time>2026-05-02T17:05:20.91Z</time></trkpt><trkpt lat="42.3544812" lon="13.4021455"><ele>724.0</ele><time>2026-05-02T17:05:22.911Z</time></trkpt><trkpt lat="42.3544322" lon="13.4020885"><ele>726.0</ele><time>2026-05-02T17:05:23.91Z</time></trkpt><trkpt lat="42.3543739" lon="13.4019876"><ele>728.0</ele><time>2026-05-02T17:05:25.912Z</time></trkpt><trkpt lat="42.3543315" lon="13.4018918"><ele>728.0</ele><time>2026-05-02T17:05:27.911Z</time></trkpt><trkpt lat="42.3543117" lon="13.4017919"><ele>728.0</ele><time>2026-05-02T17:05:30.909Z</time></trkpt><trkpt lat="42.3543223" lon="13.4016688"><ele>728.0</ele><time>2026-05-02T17:05:33.911Z</time></trkpt><trkpt lat="42.3543503" lon="13.4015628"><ele>728.0</ele><time>2026-05-02T17:05:35.91Z</time></trkpt><trkpt lat="42.3543499" lon="13.4014518"><ele>728.0</ele><time>2026-05-02T17:05:37.911Z</time></trkpt><trkpt lat="42.3543083" lon="13.4013775"><ele>728.0</ele><time>2026-05-02T17:05:39.911Z</time></trkpt><trkpt lat="42.3542431" lon="13.40135"><ele>728.0</ele><time>2026-05-02T17:05:41.909Z</time></trkpt><trkpt lat="42.3541628" lon="13.4013326"><ele>728.0</ele><time>2026-05-02T17:05:44.912Z</time></trkpt><trkpt lat="42.3540922" lon="13.4013611"><ele>728.0</ele><time>2026-05-02T17:05:47.912Z</time></trkpt><trkpt lat="42.3540548" lon="13.4014496"><ele>728.0</ele><time>2026-05-02T17:05:55.911Z</time></trkpt><trkpt lat="42.3540561" lon="13.4015763"><ele>728.0</ele><time>2026-05-02T17:05:58.91Z</time></trkpt><trkpt lat="42.354118" lon="13.401722"><ele>728.0</ele><time>2026-05-02T17:06:00.91Z</time></trkpt><trkpt lat="42.3541791" lon="13.4017695"><ele>728.0</ele><time>2026-05-02T17:06:01.911Z</time></trkpt><trkpt lat="42.3542674" lon="13.4017573"><ele>728.0</ele><time>2026-05-02T17:06:03.91Z</time></trkpt><trkpt lat="42.3543213" lon="13.4016287"><ele>728.0</ele><time>2026-05-02T17:06:05.911Z</time></trkpt><trkpt lat="42.3543431" lon="13.4014817"><ele>728.0</ele><time>2026-05-02T17:06:07.91Z</time></trkpt><trkpt lat="42.3543103" lon="13.4013676"><ele>728.0</ele><time>2026-05-02T17:06:09.91Z</time></trkpt><trkpt lat="42.3542388" lon="13.4013383"><ele>728.5</ele><time>2026-05-02T17:06:11.91Z</time></trkpt><trkpt lat="42.3541356" lon="13.4013035"><ele>729.0</ele><time>2026-05-02T17:06:13.911Z</time></trkpt><trkpt lat="42.3540523" lon="13.4012555"><ele>729.5</ele><time>2026-05-02T17:06:15.91Z</time></trkpt><trkpt lat="42.353967" lon="13.4012051"><ele>730.0</ele><time>2026-05-02T17:06:17.911Z</time></trkpt><trkpt lat="42.3538942" lon="13.4011775"><ele>730.5</ele><time>2026-05-02T17:06:19.909Z</time></trkpt><trkpt lat="42.3538196" lon="13.4012004"><ele>731.0</ele><time>2026-05-02T17:06:21.91Z</time></trkpt><trkpt lat="42.3537722" lon="13.4012809"><ele>731.4285714285714</ele><time>2026-05-02T17:06:23.91Z</time></trkpt><trkpt lat="42.3537257" lon="13.4013694"><ele>731.8571428571429</ele><time>2026-05-02T17:06:26.909Z</time></trkpt><trkpt lat="42.3536936" lon="13.4014459"><ele>732.2857142857142</ele><time>2026-05-02T17:06:30.91Z</time></trkpt><trkpt lat="42.3536662" lon="13.4015434"><ele>732.7142857142858</ele><time>2026-05-02T17:06:33.911Z</time></trkpt><trkpt lat="42.353686" lon="13.4016299"><ele>733.1428571428572</ele><time>2026-05-02T17:06:36.911Z</time></trkpt><trkpt lat="42.3537046" lon="13.4017126"><ele>733.5714285714286</ele><time>2026-05-02T17:06:40.911Z</time></trkpt><trkpt lat="42.3537259" lon="13.4018094"><ele>734.0</ele><time>2026-05-02T17:06:42.912Z</time></trkpt><trkpt lat="42.3537398" lon="13.4019115"><ele>734.0</ele><time>2026-05-02T17:06:44.909Z</time></trkpt><trkpt lat="42.3537624" lon="13.4020246"><ele>734.0</ele><time>2026-05-02T17:06:46.91Z</time></trkpt><trkpt lat="42.3537695" lon="13.4021154"><ele>734.0</ele><time>2026-05-02T17:06:48.911Z</time></trkpt><trkpt lat="42.353766" lon="13.4022115"><ele>734.0</ele><time>2026-05-02T17:06:51.91Z</time></trkpt><trkpt lat="42.3537593" lon="13.402307"><ele>734.0</ele><time>2026-05-02T17:06:54.911Z</time></trkpt><trkpt lat="42.3537816" lon="13.4023975"><ele>734.0</ele><time>2026-05-02T17:06:57.909Z</time></trkpt><trkpt lat="42.3537869" lon="13.4024923"><ele>734.0</ele><time>2026-05-02T17:07:00.91Z</time></trkpt><trkpt lat="42.3538295" lon="13.402415"><ele>735.0</ele><time>2026-05-02T17:07:18.912Z</time></trkpt></trkseg></trk></gpx>